<?xml version="1.0" encoding="UTF-8" standalone="no" ?>
<gpx xmlns="http://www.topografix.com/GPX/1/1" xmlns:gpxtpx="http://www.garmin.com/xmlschemas/TrackPointExtension/v1" creator="OruxMaps v.7.3.7" version="1.1" xmlns:xsi="http://www.w3.org/2001/XMLSchema-instance" xsi:schemaLocation="http://www.topografix.com/GPX/1/1 http://www.topografix.com/GPX/1/1/gpx.xsd">
<metadata>
<name><![CDATA[2018-12-30 09:30]]></name>
<link href="https://www.oruxmaps.com">
<text>OruxMaps</text>
</link>
<time>2018-12-30T08:30:50Z</time><bounds maxlat="49.1607689" maxlon="2.7185588" minlat="49.1249099" minlon="2.6556862"/>
</metadata>
<wpt lat="49.1254554" lon="2.6934216">
<ele>80.61</ele>
<time>2018-12-30T08:30:51Z</time>
<name><![CDATA[0000022]]></name>
<sym>Waypoint</sym>
<type>Point de départ</type>
<extensions>
<om:oruxmapsextensions xmlns:om="http://www.oruxmaps.com/oruxmapsextensions/1/0">
<om:ext type="ICON" subtype="0">38</om:ext>
</om:oruxmapsextensions>
</extensions>
</wpt>
<wpt lat="49.1255566" lon="2.6934044">
<ele>79.91</ele>
<time>2018-12-30T13:08:27Z</time>
<name><![CDATA[0000023]]></name>
<desc><![CDATA[<p><br /><h3>Nom: Segment: 1</h3><br />Heure de départ: 12/30/2018 09:30<br/>Heure d'arrivée: 12/30/2018 14:07<br/>Distance: 43km (04:37)<br/>Temps déplacement: 03:03<br/>Vitesse moyenne: 9,32 km/h<br/>Vitesse moyenne mouv.: 14,03 km/h<br/>Vitesse Max.: 40,37 km/h<br/>Altitude minimale: 63 m<br/>Altitude maximale: 131 m<br/>Vitesse de montée: 266,5 m/h<br/>Vitesse de descente: -472,5 m/h<br/>Gain d'altitude: 722 m<br/>Perte d'altitude: -725 m<br/>Temps de montée: 02:42<br/>Temps de descente: 01:32<br/></p>]]></desc>
<sym>Waypoint</sym>
<type>Point d'arrivée</type>
<extensions>
<om:oruxmapsextensions xmlns:om="http://www.oruxmaps.com/oruxmapsextensions/1/0">
<om:ext type="ICON" subtype="0">15</om:ext>
</om:oruxmapsextensions>
</extensions>
</wpt>
<trk>
<name><![CDATA[2018-12-30 09:30]]></name>
<desc><![CDATA[<p>Heure de départ: 12/30/2018 09:30<br/>Heure d'arrivée: 12/30/2018 14:07<br/>Distance: 43 km (04:37)<br/>Temps déplacement: 03:03<br/>Vitesse moyenne: 9,32 km/h<br/>Vitesse moyenne mouv.: 14,08 km/h<br/>Vitesse Max.: 40,37 km/h<br/>Altitude minimale: 63 m<br/>Altitude maximale: 131 m<br/>Vitesse de montée: 225,8 m/h<br/>Vitesse de descente: -394,3 m/h<br/>Gain d'altitude: 641 m<br/>Perte d'altitude: -641 m<br/>Temps de montée: 02:50<br/>Temps de descente: 01:37<br/></p><hr align="center" width="480" style="height: 2px; width: 517px"/>]]></desc>
<type>Indéfini</type>
<extensions>
<om:oruxmapsextensions xmlns:om="http://www.oruxmaps.com/oruxmapsextensions/1/0">
<om:ext type="TYPE" subtype="0">0</om:ext>
<om:ext type="DIFFICULTY">0</om:ext>
</om:oruxmapsextensions>
</extensions>
<trkseg>
<trkpt lat="49.1254554" lon="2.6934216">
<ele>80.61</ele>
<time>2018-12-30T08:30:51Z</time>
</trkpt>
<trkpt lat="49.1254675" lon="2.6933474">
<ele>80.61</ele>
<time>2018-12-30T08:31:31Z</time>
</trkpt>
<trkpt lat="49.1254393" lon="2.6932792">
<ele>80.90</ele>
<time>2018-12-30T08:31:35Z</time>
</trkpt>
<trkpt lat="49.1254030" lon="2.6932137">
<ele>80.61</ele>
<time>2018-12-30T08:31:39Z</time>
</trkpt>
<trkpt lat="49.1254410" lon="2.6931763">
<ele>80.61</ele>
<time>2018-12-30T08:31:42Z</time>
</trkpt>
<trkpt lat="49.1254676" lon="2.6932449">
<ele>79.91</ele>
<time>2018-12-30T08:32:17Z</time>
</trkpt>
<trkpt lat="49.1255193" lon="2.6932543">
<ele>78.35</ele>
<time>2018-12-30T08:32:21Z</time>
</trkpt>
<trkpt lat="49.1255807" lon="2.6932303">
<ele>78.60</ele>
<time>2018-12-30T08:32:24Z</time>
</trkpt>
<trkpt lat="49.1256210" lon="2.6931631">
<ele>78.82</ele>
<time>2018-12-30T08:32:27Z</time>
</trkpt>
<trkpt lat="49.1256176" lon="2.6930570">
<ele>78.62</ele>
<time>2018-12-30T08:32:30Z</time>
</trkpt>
<trkpt lat="49.1256089" lon="2.6929734">
<ele>78.61</ele>
<time>2018-12-30T08:32:32Z</time>
</trkpt>
<trkpt lat="49.1256052" lon="2.6928941">
<ele>77.70</ele>
<time>2018-12-30T08:32:34Z</time>
</trkpt>
<trkpt lat="49.1255953" lon="2.6928179">
<ele>78.53</ele>
<time>2018-12-30T08:32:36Z</time>
</trkpt>
<trkpt lat="49.1255895" lon="2.6927440">
<ele>78.60</ele>
<time>2018-12-30T08:32:38Z</time>
</trkpt>
<trkpt lat="49.1255959" lon="2.6926626">
<ele>78.61</ele>
<time>2018-12-30T08:32:40Z</time>
</trkpt>
<trkpt lat="49.1256064" lon="2.6925730">
<ele>77.70</ele>
<time>2018-12-30T08:32:42Z</time>
</trkpt>
<trkpt lat="49.1256301" lon="2.6924650">
<ele>76.71</ele>
<time>2018-12-30T08:32:44Z</time>
</trkpt>
<trkpt lat="49.1256618" lon="2.6923675">
<ele>76.62</ele>
<time>2018-12-30T08:32:46Z</time>
</trkpt>
<trkpt lat="49.1257000" lon="2.6922797">
<ele>76.61</ele>
<time>2018-12-30T08:32:48Z</time>
</trkpt>
<trkpt lat="49.1257499" lon="2.6921943">
<ele>75.70</ele>
<time>2018-12-30T08:32:50Z</time>
</trkpt>
<trkpt lat="49.1258013" lon="2.6921157">
<ele>75.62</ele>
<time>2018-12-30T08:32:52Z</time>
</trkpt>
<trkpt lat="49.1258482" lon="2.6920429">
<ele>76.52</ele>
<time>2018-12-30T08:32:54Z</time>
</trkpt>
<trkpt lat="49.1258982" lon="2.6919814">
<ele>76.60</ele>
<time>2018-12-30T08:32:56Z</time>
</trkpt>
<trkpt lat="49.1259547" lon="2.6919058">
<ele>75.91</ele>
<time>2018-12-30T08:32:58Z</time>
</trkpt>
<trkpt lat="49.1260215" lon="2.6918195">
<ele>75.64</ele>
<time>2018-12-30T08:33:00Z</time>
</trkpt>
<trkpt lat="49.1260793" lon="2.6917532">
<ele>75.61</ele>
<time>2018-12-30T08:33:02Z</time>
</trkpt>
<trkpt lat="49.1261302" lon="2.6916820">
<ele>75.61</ele>
<time>2018-12-30T08:33:04Z</time>
</trkpt>
<trkpt lat="49.1261796" lon="2.6916102">
<ele>75.61</ele>
<time>2018-12-30T08:33:06Z</time>
</trkpt>
<trkpt lat="49.1262341" lon="2.6915374">
<ele>76.31</ele>
<time>2018-12-30T08:33:08Z</time>
</trkpt>
<trkpt lat="49.1262895" lon="2.6914772">
<ele>76.58</ele>
<time>2018-12-30T08:33:10Z</time>
</trkpt>
<trkpt lat="49.1263411" lon="2.6914102">
<ele>76.61</ele>
<time>2018-12-30T08:33:12Z</time>
</trkpt>
<trkpt lat="49.1264012" lon="2.6913449">
<ele>76.61</ele>
<time>2018-12-30T08:33:14Z</time>
</trkpt>
<trkpt lat="49.1264505" lon="2.6912771">
<ele>76.61</ele>
<time>2018-12-30T08:33:16Z</time>
</trkpt>
<trkpt lat="49.1264940" lon="2.6911966">
<ele>76.61</ele>
<time>2018-12-30T08:33:18Z</time>
</trkpt>
<trkpt lat="49.1265295" lon="2.6910983">
<ele>76.61</ele>
<time>2018-12-30T08:33:20Z</time>
</trkpt>
<trkpt lat="49.1265488" lon="2.6910332">
<ele>76.61</ele>
<time>2018-12-30T08:33:21Z</time>
</trkpt>
<trkpt lat="49.1265715" lon="2.6909694">
<ele>76.61</ele>
<time>2018-12-30T08:33:22Z</time>
</trkpt>
<trkpt lat="49.1265912" lon="2.6909056">
<ele>76.61</ele>
<time>2018-12-30T08:33:23Z</time>
</trkpt>
<trkpt lat="49.1266345" lon="2.6908013">
<ele>75.70</ele>
<time>2018-12-30T08:33:25Z</time>
</trkpt>
<trkpt lat="49.1266872" lon="2.6907103">
<ele>76.32</ele>
<time>2018-12-30T08:33:27Z</time>
</trkpt>
<trkpt lat="49.1267411" lon="2.6906355">
<ele>77.28</ele>
<time>2018-12-30T08:33:29Z</time>
</trkpt>
<trkpt lat="49.1268015" lon="2.6905804">
<ele>77.58</ele>
<time>2018-12-30T08:33:31Z</time>
</trkpt>
<trkpt lat="49.1268610" lon="2.6905322">
<ele>77.61</ele>
<time>2018-12-30T08:33:33Z</time>
</trkpt>
<trkpt lat="49.1269170" lon="2.6904892">
<ele>78.31</ele>
<time>2018-12-30T08:33:35Z</time>
</trkpt>
<trkpt lat="49.1269687" lon="2.6904446">
<ele>78.58</ele>
<time>2018-12-30T08:33:37Z</time>
</trkpt>
<trkpt lat="49.1270233" lon="2.6904019">
<ele>78.61</ele>
<time>2018-12-30T08:33:39Z</time>
</trkpt>
<trkpt lat="49.1270814" lon="2.6903613">
<ele>78.61</ele>
<time>2018-12-30T08:33:41Z</time>
</trkpt>
<trkpt lat="49.1271415" lon="2.6903185">
<ele>78.61</ele>
<time>2018-12-30T08:33:43Z</time>
</trkpt>
<trkpt lat="49.1272034" lon="2.6902865">
<ele>78.61</ele>
<time>2018-12-30T08:33:45Z</time>
</trkpt>
<trkpt lat="49.1272593" lon="2.6902477">
<ele>78.61</ele>
<time>2018-12-30T08:33:47Z</time>
</trkpt>
<trkpt lat="49.1273163" lon="2.6902024">
<ele>78.61</ele>
<time>2018-12-30T08:33:49Z</time>
</trkpt>
<trkpt lat="49.1273660" lon="2.6901611">
<ele>79.31</ele>
<time>2018-12-30T08:33:51Z</time>
</trkpt>
<trkpt lat="49.1274010" lon="2.6900883">
<ele>79.58</ele>
<time>2018-12-30T08:33:53Z</time>
</trkpt>
<trkpt lat="49.1274080" lon="2.6900109">
<ele>79.61</ele>
<time>2018-12-30T08:33:55Z</time>
</trkpt>
<trkpt lat="49.1273922" lon="2.6899238">
<ele>79.61</ele>
<time>2018-12-30T08:33:57Z</time>
</trkpt>
<trkpt lat="49.1273809" lon="2.6898194">
<ele>79.61</ele>
<time>2018-12-30T08:33:59Z</time>
</trkpt>
<trkpt lat="49.1273728" lon="2.6897163">
<ele>79.61</ele>
<time>2018-12-30T08:34:01Z</time>
</trkpt>
<trkpt lat="49.1273727" lon="2.6896129">
<ele>79.61</ele>
<time>2018-12-30T08:34:03Z</time>
</trkpt>
<trkpt lat="49.1273992" lon="2.6895258">
<ele>79.61</ele>
<time>2018-12-30T08:34:05Z</time>
</trkpt>
<trkpt lat="49.1274396" lon="2.6894594">
<ele>79.61</ele>
<time>2018-12-30T08:34:07Z</time>
</trkpt>
<trkpt lat="49.1274769" lon="2.6893703">
<ele>80.31</ele>
<time>2018-12-30T08:34:09Z</time>
</trkpt>
<trkpt lat="49.1275024" lon="2.6892826">
<ele>80.58</ele>
<time>2018-12-30T08:34:11Z</time>
</trkpt>
<trkpt lat="49.1275241" lon="2.6891864">
<ele>80.61</ele>
<time>2018-12-30T08:34:13Z</time>
</trkpt>
<trkpt lat="49.1275469" lon="2.6890960">
<ele>80.61</ele>
<time>2018-12-30T08:34:15Z</time>
</trkpt>
<trkpt lat="49.1275622" lon="2.6890097">
<ele>81.52</ele>
<time>2018-12-30T08:34:17Z</time>
</trkpt>
<trkpt lat="49.1275792" lon="2.6889211">
<ele>81.60</ele>
<time>2018-12-30T08:34:19Z</time>
</trkpt>
<trkpt lat="49.1276004" lon="2.6888365">
<ele>82.52</ele>
<time>2018-12-30T08:34:21Z</time>
</trkpt>
<trkpt lat="49.1276199" lon="2.6887501">
<ele>82.60</ele>
<time>2018-12-30T08:34:23Z</time>
</trkpt>
<trkpt lat="49.1276396" lon="2.6886695">
<ele>82.61</ele>
<time>2018-12-30T08:34:25Z</time>
</trkpt>
<trkpt lat="49.1276648" lon="2.6885914">
<ele>83.52</ele>
<time>2018-12-30T08:34:27Z</time>
</trkpt>
<trkpt lat="49.1276873" lon="2.6885150">
<ele>83.60</ele>
<time>2018-12-30T08:34:29Z</time>
</trkpt>
<trkpt lat="49.1277091" lon="2.6884345">
<ele>83.61</ele>
<time>2018-12-30T08:34:31Z</time>
</trkpt>
<trkpt lat="49.1277321" lon="2.6883501">
<ele>84.52</ele>
<time>2018-12-30T08:34:33Z</time>
</trkpt>
<trkpt lat="49.1277577" lon="2.6882740">
<ele>84.60</ele>
<time>2018-12-30T08:34:35Z</time>
</trkpt>
<trkpt lat="49.1277775" lon="2.6881948">
<ele>85.31</ele>
<time>2018-12-30T08:34:37Z</time>
</trkpt>
<trkpt lat="49.1277963" lon="2.6881168">
<ele>85.58</ele>
<time>2018-12-30T08:34:39Z</time>
</trkpt>
<trkpt lat="49.1278139" lon="2.6880430">
<ele>86.52</ele>
<time>2018-12-30T08:34:41Z</time>
</trkpt>
<trkpt lat="49.1278275" lon="2.6879733">
<ele>87.30</ele>
<time>2018-12-30T08:34:43Z</time>
</trkpt>
<trkpt lat="49.1278442" lon="2.6879023">
<ele>87.58</ele>
<time>2018-12-30T08:34:45Z</time>
</trkpt>
<trkpt lat="49.1278605" lon="2.6878370">
<ele>88.52</ele>
<time>2018-12-30T08:34:47Z</time>
</trkpt>
<trkpt lat="49.1278762" lon="2.6877689">
<ele>89.51</ele>
<time>2018-12-30T08:34:49Z</time>
</trkpt>
<trkpt lat="49.1278995" lon="2.6876945">
<ele>90.51</ele>
<time>2018-12-30T08:34:51Z</time>
</trkpt>
<trkpt lat="49.1279228" lon="2.6876117">
<ele>90.60</ele>
<time>2018-12-30T08:34:53Z</time>
</trkpt>
<trkpt lat="49.1279372" lon="2.6875340">
<ele>91.31</ele>
<time>2018-12-30T08:34:55Z</time>
</trkpt>
<trkpt lat="49.1279553" lon="2.6874585">
<ele>91.58</ele>
<time>2018-12-30T08:34:57Z</time>
</trkpt>
<trkpt lat="49.1279771" lon="2.6873740">
<ele>91.61</ele>
<time>2018-12-30T08:34:59Z</time>
</trkpt>
<trkpt lat="49.1279896" lon="2.6872968">
<ele>91.61</ele>
<time>2018-12-30T08:35:01Z</time>
</trkpt>
<trkpt lat="49.1280013" lon="2.6872123">
<ele>92.31</ele>
<time>2018-12-30T08:35:03Z</time>
</trkpt>
<trkpt lat="49.1280202" lon="2.6871392">
<ele>92.58</ele>
<time>2018-12-30T08:35:05Z</time>
</trkpt>
<trkpt lat="49.1280453" lon="2.6870424">
<ele>93.52</ele>
<time>2018-12-30T08:35:08Z</time>
</trkpt>
<trkpt lat="49.1280707" lon="2.6869434">
<ele>92.69</ele>
<time>2018-12-30T08:35:10Z</time>
</trkpt>
<trkpt lat="49.1280896" lon="2.6868469">
<ele>93.32</ele>
<time>2018-12-30T08:35:12Z</time>
</trkpt>
<trkpt lat="49.1281076" lon="2.6867617">
<ele>93.58</ele>
<time>2018-12-30T08:35:14Z</time>
</trkpt>
<trkpt lat="49.1281231" lon="2.6866707">
<ele>93.61</ele>
<time>2018-12-30T08:35:16Z</time>
</trkpt>
<trkpt lat="49.1281390" lon="2.6865744">
<ele>93.61</ele>
<time>2018-12-30T08:35:18Z</time>
</trkpt>
<trkpt lat="49.1281579" lon="2.6864753">
<ele>94.52</ele>
<time>2018-12-30T08:35:20Z</time>
</trkpt>
<trkpt lat="49.1281771" lon="2.6863804">
<ele>94.60</ele>
<time>2018-12-30T08:35:22Z</time>
</trkpt>
<trkpt lat="49.1281955" lon="2.6862876">
<ele>94.61</ele>
<time>2018-12-30T08:35:24Z</time>
</trkpt>
<trkpt lat="49.1282037" lon="2.6862116">
<ele>95.31</ele>
<time>2018-12-30T08:35:26Z</time>
</trkpt>
<trkpt lat="49.1282088" lon="2.6861116">
<ele>95.60</ele>
<time>2018-12-30T08:35:29Z</time>
</trkpt>
<trkpt lat="49.1282120" lon="2.6860338">
<ele>94.70</ele>
<time>2018-12-30T08:35:32Z</time>
</trkpt>
<trkpt lat="49.1282071" lon="2.6859533">
<ele>95.52</ele>
<time>2018-12-30T08:35:35Z</time>
</trkpt>
<trkpt lat="49.1282633" lon="2.6859622">
<ele>96.31</ele>
<time>2018-12-30T08:35:39Z</time>
</trkpt>
<trkpt lat="49.1282690" lon="2.6860351">
<ele>96.60</ele>
<time>2018-12-30T08:35:42Z</time>
</trkpt>
<trkpt lat="49.1282128" lon="2.6860514">
<ele>96.88</ele>
<time>2018-12-30T08:35:45Z</time>
</trkpt>
<trkpt lat="49.1282040" lon="2.6859654">
<ele>96.64</ele>
<time>2018-12-30T08:35:47Z</time>
</trkpt>
<trkpt lat="49.1282019" lon="2.6858387">
<ele>97.31</ele>
<time>2018-12-30T08:35:49Z</time>
</trkpt>
<trkpt lat="49.1281963" lon="2.6857396">
<ele>97.79</ele>
<time>2018-12-30T08:35:51Z</time>
</trkpt>
<trkpt lat="49.1282001" lon="2.6856706">
<ele>98.33</ele>
<time>2018-12-30T08:35:53Z</time>
</trkpt>
<trkpt lat="49.1282310" lon="2.6856070">
<ele>98.61</ele>
<time>2018-12-30T08:35:58Z</time>
</trkpt>
<trkpt lat="49.1282725" lon="2.6855659">
<ele>99.58</ele>
<time>2018-12-30T08:36:02Z</time>
</trkpt>
<trkpt lat="49.1283104" lon="2.6855265">
<ele>101.52</ele>
<time>2018-12-30T08:36:08Z</time>
</trkpt>
<trkpt lat="49.1283610" lon="2.6855182">
<ele>102.61</ele>
<time>2018-12-30T08:36:14Z</time>
</trkpt>
<trkpt lat="49.1284112" lon="2.6854825">
<ele>101.61</ele>
<time>2018-12-30T08:36:30Z</time>
</trkpt>
<trkpt lat="49.1284658" lon="2.6854446">
<ele>102.31</ele>
<time>2018-12-30T08:36:32Z</time>
</trkpt>
<trkpt lat="49.1285267" lon="2.6853954">
<ele>102.58</ele>
<time>2018-12-30T08:36:34Z</time>
</trkpt>
<trkpt lat="49.1285870" lon="2.6853405">
<ele>102.61</ele>
<time>2018-12-30T08:36:36Z</time>
</trkpt>
<trkpt lat="49.1286496" lon="2.6852980">
<ele>102.61</ele>
<time>2018-12-30T08:36:38Z</time>
</trkpt>
<trkpt lat="49.1287256" lon="2.6852624">
<ele>102.61</ele>
<time>2018-12-30T08:36:40Z</time>
</trkpt>
<trkpt lat="49.1287784" lon="2.6852257">
<ele>103.31</ele>
<time>2018-12-30T08:36:41Z</time>
</trkpt>
<trkpt lat="49.1288304" lon="2.6852059">
<ele>102.82</ele>
<time>2018-12-30T08:36:42Z</time>
</trkpt>
<trkpt lat="49.1288786" lon="2.6851831">
<ele>103.37</ele>
<time>2018-12-30T08:36:43Z</time>
</trkpt>
<trkpt lat="49.1289660" lon="2.6851704">
<ele>102.89</ele>
<time>2018-12-30T08:36:45Z</time>
</trkpt>
<trkpt lat="49.1290263" lon="2.6851602">
<ele>101.99</ele>
<time>2018-12-30T08:36:46Z</time>
</trkpt>
<trkpt lat="49.1290788" lon="2.6851470">
<ele>101.73</ele>
<time>2018-12-30T08:36:47Z</time>
</trkpt>
<trkpt lat="49.1291321" lon="2.6850778">
<ele>100.92</ele>
<time>2018-12-30T08:36:49Z</time>
</trkpt>
<trkpt lat="49.1291899" lon="2.6850258">
<ele>100.64</ele>
<time>2018-12-30T08:36:51Z</time>
</trkpt>
<trkpt lat="49.1292478" lon="2.6849960">
<ele>100.61</ele>
<time>2018-12-30T08:36:53Z</time>
</trkpt>
<trkpt lat="49.1293027" lon="2.6849693">
<ele>99.91</ele>
<time>2018-12-30T08:36:55Z</time>
</trkpt>
<trkpt lat="49.1293526" lon="2.6849575">
<ele>99.64</ele>
<time>2018-12-30T08:36:57Z</time>
</trkpt>
<trkpt lat="49.1294029" lon="2.6849667">
<ele>98.91</ele>
<time>2018-12-30T08:36:59Z</time>
</trkpt>
<trkpt lat="49.1294547" lon="2.6849714">
<ele>98.64</ele>
<time>2018-12-30T08:37:01Z</time>
</trkpt>
<trkpt lat="49.1295090" lon="2.6849710">
<ele>97.91</ele>
<time>2018-12-30T08:37:03Z</time>
</trkpt>
<trkpt lat="49.1295597" lon="2.6849956">
<ele>97.64</ele>
<time>2018-12-30T08:37:05Z</time>
</trkpt>
<trkpt lat="49.1295939" lon="2.6850430">
<ele>97.61</ele>
<time>2018-12-30T08:37:07Z</time>
</trkpt>
<trkpt lat="49.1296330" lon="2.6850810">
<ele>96.91</ele>
<time>2018-12-30T08:37:09Z</time>
</trkpt>
<trkpt lat="49.1296898" lon="2.6850953">
<ele>96.62</ele>
<time>2018-12-30T08:37:12Z</time>
</trkpt>
<trkpt lat="49.1297427" lon="2.6850979">
<ele>96.61</ele>
<time>2018-12-30T08:37:15Z</time>
</trkpt>
<trkpt lat="49.1297899" lon="2.6851185">
<ele>95.70</ele>
<time>2018-12-30T08:37:19Z</time>
</trkpt>
<trkpt lat="49.1298354" lon="2.6850889">
<ele>92.70</ele>
<time>2018-12-30T08:37:43Z</time>
</trkpt>
<trkpt lat="49.1298742" lon="2.6850538">
<ele>92.61</ele>
<time>2018-12-30T08:37:47Z</time>
</trkpt>
<trkpt lat="49.1299263" lon="2.6850310">
<ele>90.92</ele>
<time>2018-12-30T08:37:51Z</time>
</trkpt>
<trkpt lat="49.1299757" lon="2.6849952">
<ele>89.91</ele>
<time>2018-12-30T08:37:55Z</time>
</trkpt>
<trkpt lat="49.1300297" lon="2.6849762">
<ele>88.65</ele>
<time>2018-12-30T08:37:58Z</time>
</trkpt>
<trkpt lat="49.1300744" lon="2.6849682">
<ele>87.70</ele>
<time>2018-12-30T08:38:00Z</time>
</trkpt>
<trkpt lat="49.1301408" lon="2.6849580">
<ele>86.71</ele>
<time>2018-12-30T08:38:02Z</time>
</trkpt>
<trkpt lat="49.1301892" lon="2.6849358">
<ele>85.94</ele>
<time>2018-12-30T08:38:03Z</time>
</trkpt>
<trkpt lat="49.1302357" lon="2.6849034">
<ele>85.64</ele>
<time>2018-12-30T08:38:05Z</time>
</trkpt>
<trkpt lat="49.1302666" lon="2.6848380">
<ele>84.68</ele>
<time>2018-12-30T08:38:10Z</time>
</trkpt>
<trkpt lat="49.1303226" lon="2.6847908">
<ele>82.94</ele>
<time>2018-12-30T08:38:13Z</time>
</trkpt>
<trkpt lat="49.1303859" lon="2.6847267">
<ele>82.64</ele>
<time>2018-12-30T08:38:15Z</time>
</trkpt>
<trkpt lat="49.1304522" lon="2.6846719">
<ele>82.61</ele>
<time>2018-12-30T08:38:17Z</time>
</trkpt>
<trkpt lat="49.1304965" lon="2.6846386">
<ele>81.91</ele>
<time>2018-12-30T08:38:19Z</time>
</trkpt>
<trkpt lat="49.1305352" lon="2.6845884">
<ele>79.61</ele>
<time>2018-12-30T08:41:26Z</time>
</trkpt>
<trkpt lat="49.1305762" lon="2.6845451">
<ele>79.61</ele>
<time>2018-12-30T08:41:29Z</time>
</trkpt>
<trkpt lat="49.1306205" lon="2.6845103">
<ele>79.61</ele>
<time>2018-12-30T08:41:31Z</time>
</trkpt>
<trkpt lat="49.1306661" lon="2.6845178">
<ele>79.61</ele>
<time>2018-12-30T08:41:33Z</time>
</trkpt>
<trkpt lat="49.1307201" lon="2.6845455">
<ele>78.91</ele>
<time>2018-12-30T08:41:35Z</time>
</trkpt>
<trkpt lat="49.1307672" lon="2.6845781">
<ele>78.64</ele>
<time>2018-12-30T08:41:37Z</time>
</trkpt>
<trkpt lat="49.1308077" lon="2.6846180">
<ele>78.61</ele>
<time>2018-12-30T08:41:39Z</time>
</trkpt>
<trkpt lat="49.1308581" lon="2.6846280">
<ele>78.61</ele>
<time>2018-12-30T08:41:41Z</time>
</trkpt>
<trkpt lat="49.1309138" lon="2.6846258">
<ele>78.61</ele>
<time>2018-12-30T08:41:43Z</time>
</trkpt>
<trkpt lat="49.1309652" lon="2.6845982">
<ele>78.61</ele>
<time>2018-12-30T08:41:45Z</time>
</trkpt>
<trkpt lat="49.1310144" lon="2.6845391">
<ele>79.52</ele>
<time>2018-12-30T08:41:47Z</time>
</trkpt>
<trkpt lat="49.1310538" lon="2.6844733">
<ele>80.51</ele>
<time>2018-12-30T08:41:49Z</time>
</trkpt>
<trkpt lat="49.1311127" lon="2.6844107">
<ele>80.60</ele>
<time>2018-12-30T08:41:51Z</time>
</trkpt>
<trkpt lat="49.1311695" lon="2.6843392">
<ele>80.61</ele>
<time>2018-12-30T08:41:53Z</time>
</trkpt>
<trkpt lat="49.1312121" lon="2.6842477">
<ele>80.61</ele>
<time>2018-12-30T08:41:55Z</time>
</trkpt>
<trkpt lat="49.1312353" lon="2.6841777">
<ele>80.55</ele>
<time>2018-12-30T08:41:58Z</time>
</trkpt>
<trkpt lat="49.1312242" lon="2.6841045">
<ele>80.31</ele>
<time>2018-12-30T08:42:07Z</time>
</trkpt>
<trkpt lat="49.1312086" lon="2.6840241">
<ele>80.58</ele>
<time>2018-12-30T08:42:09Z</time>
</trkpt>
<trkpt lat="49.1311896" lon="2.6839364">
<ele>81.31</ele>
<time>2018-12-30T08:42:11Z</time>
</trkpt>
<trkpt lat="49.1311684" lon="2.6838531">
<ele>81.58</ele>
<time>2018-12-30T08:42:13Z</time>
</trkpt>
<trkpt lat="49.1311392" lon="2.6837693">
<ele>82.31</ele>
<time>2018-12-30T08:42:15Z</time>
</trkpt>
<trkpt lat="49.1311123" lon="2.6836650">
<ele>82.58</ele>
<time>2018-12-30T08:42:17Z</time>
</trkpt>
<trkpt lat="49.1310891" lon="2.6835602">
<ele>82.40</ele>
<time>2018-12-30T08:42:19Z</time>
</trkpt>
<trkpt lat="49.1310510" lon="2.6834608">
<ele>82.59</ele>
<time>2018-12-30T08:42:21Z</time>
</trkpt>
<trkpt lat="49.1310173" lon="2.6833578">
<ele>82.61</ele>
<time>2018-12-30T08:42:23Z</time>
</trkpt>
<trkpt lat="49.1309686" lon="2.6832428">
<ele>81.70</ele>
<time>2018-12-30T08:42:25Z</time>
</trkpt>
<trkpt lat="49.1309349" lon="2.6831804">
<ele>81.64</ele>
<time>2018-12-30T08:42:26Z</time>
</trkpt>
<trkpt lat="49.1309078" lon="2.6831247">
<ele>81.62</ele>
<time>2018-12-30T08:42:27Z</time>
</trkpt>
<trkpt lat="49.1308611" lon="2.6830268">
<ele>82.31</ele>
<time>2018-12-30T08:42:29Z</time>
</trkpt>
<trkpt lat="49.1308199" lon="2.6829456">
<ele>82.58</ele>
<time>2018-12-30T08:42:31Z</time>
</trkpt>
<trkpt lat="49.1307738" lon="2.6828522">
<ele>82.61</ele>
<time>2018-12-30T08:42:33Z</time>
</trkpt>
<trkpt lat="49.1307264" lon="2.6827611">
<ele>82.82</ele>
<time>2018-12-30T08:42:35Z</time>
</trkpt>
<trkpt lat="49.1306710" lon="2.6826538">
<ele>83.33</ele>
<time>2018-12-30T08:42:37Z</time>
</trkpt>
<trkpt lat="49.1306240" lon="2.6825494">
<ele>83.59</ele>
<time>2018-12-30T08:42:39Z</time>
</trkpt>
<trkpt lat="49.1305886" lon="2.6824978">
<ele>83.60</ele>
<time>2018-12-30T08:42:40Z</time>
</trkpt>
<trkpt lat="49.1305385" lon="2.6823973">
<ele>84.31</ele>
<time>2018-12-30T08:42:42Z</time>
</trkpt>
<trkpt lat="49.1304913" lon="2.6823031">
<ele>84.58</ele>
<time>2018-12-30T08:42:44Z</time>
</trkpt>
<trkpt lat="49.1304503" lon="2.6822125">
<ele>84.61</ele>
<time>2018-12-30T08:42:46Z</time>
</trkpt>
<trkpt lat="49.1304253" lon="2.6821215">
<ele>84.61</ele>
<time>2018-12-30T08:42:48Z</time>
</trkpt>
<trkpt lat="49.1304332" lon="2.6820158">
<ele>84.61</ele>
<time>2018-12-30T08:42:50Z</time>
</trkpt>
<trkpt lat="49.1304360" lon="2.6819243">
<ele>84.61</ele>
<time>2018-12-30T08:42:52Z</time>
</trkpt>
<trkpt lat="49.1304501" lon="2.6818429">
<ele>85.31</ele>
<time>2018-12-30T08:42:54Z</time>
</trkpt>
<trkpt lat="49.1304737" lon="2.6817680">
<ele>85.58</ele>
<time>2018-12-30T08:42:56Z</time>
</trkpt>
<trkpt lat="49.1305132" lon="2.6817118">
<ele>85.61</ele>
<time>2018-12-30T08:43:00Z</time>
</trkpt>
<trkpt lat="49.1305474" lon="2.6816672">
<ele>85.61</ele>
<time>2018-12-30T08:43:02Z</time>
</trkpt>
<trkpt lat="49.1305884" lon="2.6816064">
<ele>85.61</ele>
<time>2018-12-30T08:43:04Z</time>
</trkpt>
<trkpt lat="49.1306308" lon="2.6815519">
<ele>85.61</ele>
<time>2018-12-30T08:43:06Z</time>
</trkpt>
<trkpt lat="49.1306764" lon="2.6815023">
<ele>85.61</ele>
<time>2018-12-30T08:43:08Z</time>
</trkpt>
<trkpt lat="49.1307119" lon="2.6814468">
<ele>85.61</ele>
<time>2018-12-30T08:43:10Z</time>
</trkpt>
<trkpt lat="49.1307473" lon="2.6813870">
<ele>86.31</ele>
<time>2018-12-30T08:43:13Z</time>
</trkpt>
<trkpt lat="49.1307873" lon="2.6813352">
<ele>86.60</ele>
<time>2018-12-30T08:43:16Z</time>
</trkpt>
<trkpt lat="49.1308282" lon="2.6813672">
<ele>86.58</ele>
<time>2018-12-30T08:43:33Z</time>
</trkpt>
<trkpt lat="49.1308933" lon="2.6813776">
<ele>87.31</ele>
<time>2018-12-30T08:43:36Z</time>
</trkpt>
<trkpt lat="49.1309522" lon="2.6813599">
<ele>87.58</ele>
<time>2018-12-30T08:43:38Z</time>
</trkpt>
<trkpt lat="49.1310123" lon="2.6813642">
<ele>87.61</ele>
<time>2018-12-30T08:43:40Z</time>
</trkpt>
<trkpt lat="49.1310757" lon="2.6813677">
<ele>88.52</ele>
<time>2018-12-30T08:43:42Z</time>
</trkpt>
<trkpt lat="49.1311421" lon="2.6813504">
<ele>88.60</ele>
<time>2018-12-30T08:43:44Z</time>
</trkpt>
<trkpt lat="49.1312093" lon="2.6813284">
<ele>88.61</ele>
<time>2018-12-30T08:43:46Z</time>
</trkpt>
<trkpt lat="49.1312806" lon="2.6813040">
<ele>88.61</ele>
<time>2018-12-30T08:43:48Z</time>
</trkpt>
<trkpt lat="49.1313482" lon="2.6812508">
<ele>89.31</ele>
<time>2018-12-30T08:43:50Z</time>
</trkpt>
<trkpt lat="49.1314127" lon="2.6812148">
<ele>89.58</ele>
<time>2018-12-30T08:43:52Z</time>
</trkpt>
<trkpt lat="49.1314858" lon="2.6812038">
<ele>88.91</ele>
<time>2018-12-30T08:43:54Z</time>
</trkpt>
<trkpt lat="49.1315580" lon="2.6812063">
<ele>88.64</ele>
<time>2018-12-30T08:43:56Z</time>
</trkpt>
<trkpt lat="49.1316282" lon="2.6811945">
<ele>89.52</ele>
<time>2018-12-30T08:43:58Z</time>
</trkpt>
<trkpt lat="49.1316866" lon="2.6811448">
<ele>89.60</ele>
<time>2018-12-30T08:44:00Z</time>
</trkpt>
<trkpt lat="49.1317217" lon="2.6810601">
<ele>89.61</ele>
<time>2018-12-30T08:44:02Z</time>
</trkpt>
<trkpt lat="49.1316950" lon="2.6809753">
<ele>89.61</ele>
<time>2018-12-30T08:44:04Z</time>
</trkpt>
<trkpt lat="49.1316873" lon="2.6808766">
<ele>89.61</ele>
<time>2018-12-30T08:44:06Z</time>
</trkpt>
<trkpt lat="49.1316957" lon="2.6807724">
<ele>89.61</ele>
<time>2018-12-30T08:44:08Z</time>
</trkpt>
<trkpt lat="49.1317272" lon="2.6806663">
<ele>90.52</ele>
<time>2018-12-30T08:44:10Z</time>
</trkpt>
<trkpt lat="49.1317153" lon="2.6805792">
<ele>91.30</ele>
<time>2018-12-30T08:44:12Z</time>
</trkpt>
<trkpt lat="49.1316756" lon="2.6804766">
<ele>91.37</ele>
<time>2018-12-30T08:44:14Z</time>
</trkpt>
<trkpt lat="49.1316667" lon="2.6803922">
<ele>92.94</ele>
<time>2018-12-30T08:44:15Z</time>
</trkpt>
<trkpt lat="49.1316733" lon="2.6802750">
<ele>94.46</ele>
<time>2018-12-30T08:44:17Z</time>
</trkpt>
<trkpt lat="49.1316767" lon="2.6801979">
<ele>94.60</ele>
<time>2018-12-30T08:44:19Z</time>
</trkpt>
<trkpt lat="49.1316928" lon="2.6801133">
<ele>94.61</ele>
<time>2018-12-30T08:44:21Z</time>
</trkpt>
<trkpt lat="49.1317139" lon="2.6800217">
<ele>94.61</ele>
<time>2018-12-30T08:44:23Z</time>
</trkpt>
<trkpt lat="49.1317173" lon="2.6799425">
<ele>94.61</ele>
<time>2018-12-30T08:44:25Z</time>
</trkpt>
<trkpt lat="49.1317119" lon="2.6798480">
<ele>94.61</ele>
<time>2018-12-30T08:44:28Z</time>
</trkpt>
<trkpt lat="49.1317043" lon="2.6797720">
<ele>94.61</ele>
<time>2018-12-30T08:44:30Z</time>
</trkpt>
<trkpt lat="49.1317153" lon="2.6797024">
<ele>94.61</ele>
<time>2018-12-30T08:44:32Z</time>
</trkpt>
<trkpt lat="49.1317071" lon="2.6796084">
<ele>95.58</ele>
<time>2018-12-30T08:44:35Z</time>
</trkpt>
<trkpt lat="49.1316866" lon="2.6795161">
<ele>95.61</ele>
<time>2018-12-30T08:44:38Z</time>
</trkpt>
<trkpt lat="49.1316999" lon="2.6794319">
<ele>96.52</ele>
<time>2018-12-30T08:44:40Z</time>
</trkpt>
<trkpt lat="49.1317313" lon="2.6793490">
<ele>95.90</ele>
<time>2018-12-30T08:44:42Z</time>
</trkpt>
<trkpt lat="49.1317196" lon="2.6792825">
<ele>95.64</ele>
<time>2018-12-30T08:44:44Z</time>
</trkpt>
<trkpt lat="49.1317018" lon="2.6792062">
<ele>96.52</ele>
<time>2018-12-30T08:44:46Z</time>
</trkpt>
<trkpt lat="49.1316851" lon="2.6791202">
<ele>97.30</ele>
<time>2018-12-30T08:44:48Z</time>
</trkpt>
<trkpt lat="49.1316522" lon="2.6790631">
<ele>97.58</ele>
<time>2018-12-30T08:44:50Z</time>
</trkpt>
<trkpt lat="49.1315984" lon="2.6790023">
<ele>98.31</ele>
<time>2018-12-30T08:44:52Z</time>
</trkpt>
<trkpt lat="49.1315746" lon="2.6789001">
<ele>98.60</ele>
<time>2018-12-30T08:44:55Z</time>
</trkpt>
<trkpt lat="49.1315982" lon="2.6788097">
<ele>98.61</ele>
<time>2018-12-30T08:44:57Z</time>
</trkpt>
<trkpt lat="49.1316345" lon="2.6787401">
<ele>99.31</ele>
<time>2018-12-30T08:44:59Z</time>
</trkpt>
<trkpt lat="49.1316734" lon="2.6786618">
<ele>99.58</ele>
<time>2018-12-30T08:45:01Z</time>
</trkpt>
<trkpt lat="49.1317186" lon="2.6786070">
<ele>99.40</ele>
<time>2018-12-30T08:45:03Z</time>
</trkpt>
<trkpt lat="49.1317769" lon="2.6785641">
<ele>98.89</ele>
<time>2018-12-30T08:45:05Z</time>
</trkpt>
<trkpt lat="49.1318294" lon="2.6785154">
<ele>99.53</ele>
<time>2018-12-30T08:45:08Z</time>
</trkpt>
<trkpt lat="49.1318445" lon="2.6784259">
<ele>99.61</ele>
<time>2018-12-30T08:45:11Z</time>
</trkpt>
<trkpt lat="49.1318224" lon="2.6783550">
<ele>99.61</ele>
<time>2018-12-30T08:45:13Z</time>
</trkpt>
<trkpt lat="49.1318043" lon="2.6782785">
<ele>99.61</ele>
<time>2018-12-30T08:45:15Z</time>
</trkpt>
<trkpt lat="49.1317970" lon="2.6781846">
<ele>100.31</ele>
<time>2018-12-30T08:45:17Z</time>
</trkpt>
<trkpt lat="49.1317838" lon="2.6781038">
<ele>100.58</ele>
<time>2018-12-30T08:45:19Z</time>
</trkpt>
<trkpt lat="49.1317608" lon="2.6780226">
<ele>100.61</ele>
<time>2018-12-30T08:45:22Z</time>
</trkpt>
<trkpt lat="49.1317216" lon="2.6779726">
<ele>100.61</ele>
<time>2018-12-30T08:45:24Z</time>
</trkpt>
<trkpt lat="49.1316911" lon="2.6778844">
<ele>100.61</ele>
<time>2018-12-30T08:45:26Z</time>
</trkpt>
<trkpt lat="49.1316943" lon="2.6778026">
<ele>99.91</ele>
<time>2018-12-30T08:45:28Z</time>
</trkpt>
<trkpt lat="49.1316910" lon="2.6777309">
<ele>99.64</ele>
<time>2018-12-30T08:45:30Z</time>
</trkpt>
<trkpt lat="49.1316843" lon="2.6776536">
<ele>100.37</ele>
<time>2018-12-30T08:45:33Z</time>
</trkpt>
<trkpt lat="49.1316772" lon="2.6775795">
<ele>99.89</ele>
<time>2018-12-30T08:45:35Z</time>
</trkpt>
<trkpt lat="49.1316605" lon="2.6775046">
<ele>100.88</ele>
<time>2018-12-30T08:45:41Z</time>
</trkpt>
<trkpt lat="49.1316847" lon="2.6774250">
<ele>100.64</ele>
<time>2018-12-30T08:45:43Z</time>
</trkpt>
<trkpt lat="49.1317275" lon="2.6773434">
<ele>101.52</ele>
<time>2018-12-30T08:45:45Z</time>
</trkpt>
<trkpt lat="49.1317692" lon="2.6772959">
<ele>101.60</ele>
<time>2018-12-30T08:45:47Z</time>
</trkpt>
<trkpt lat="49.1318253" lon="2.6772915">
<ele>101.61</ele>
<time>2018-12-30T08:45:50Z</time>
</trkpt>
<trkpt lat="49.1318727" lon="2.6772432">
<ele>101.61</ele>
<time>2018-12-30T08:45:58Z</time>
</trkpt>
<trkpt lat="49.1319352" lon="2.6771811">
<ele>102.58</ele>
<time>2018-12-30T08:46:01Z</time>
</trkpt>
<trkpt lat="49.1320040" lon="2.6771157">
<ele>102.61</ele>
<time>2018-12-30T08:46:03Z</time>
</trkpt>
<trkpt lat="49.1320658" lon="2.6770805">
<ele>102.40</ele>
<time>2018-12-30T08:46:05Z</time>
</trkpt>
<trkpt lat="49.1321233" lon="2.6770917">
<ele>102.59</ele>
<time>2018-12-30T08:46:07Z</time>
</trkpt>
<trkpt lat="49.1321750" lon="2.6770902">
<ele>102.82</ele>
<time>2018-12-30T08:46:09Z</time>
</trkpt>
<trkpt lat="49.1322308" lon="2.6770863">
<ele>102.63</ele>
<time>2018-12-30T08:46:11Z</time>
</trkpt>
<trkpt lat="49.1322799" lon="2.6771148">
<ele>103.31</ele>
<time>2018-12-30T08:46:13Z</time>
</trkpt>
<trkpt lat="49.1323233" lon="2.6771814">
<ele>103.58</ele>
<time>2018-12-30T08:46:15Z</time>
</trkpt>
<trkpt lat="49.1323759" lon="2.6771909">
<ele>103.55</ele>
<time>2018-12-30T08:46:18Z</time>
</trkpt>
<trkpt lat="49.1324253" lon="2.6771404">
<ele>104.31</ele>
<time>2018-12-30T08:46:21Z</time>
</trkpt>
<trkpt lat="49.1324866" lon="2.6771786">
<ele>104.60</ele>
<time>2018-12-30T08:46:24Z</time>
</trkpt>
<trkpt lat="49.1325239" lon="2.6772241">
<ele>105.31</ele>
<time>2018-12-30T08:46:26Z</time>
</trkpt>
<trkpt lat="49.1325610" lon="2.6772643">
<ele>106.28</ele>
<time>2018-12-30T08:46:28Z</time>
</trkpt>
<trkpt lat="49.1326099" lon="2.6773056">
<ele>106.58</ele>
<time>2018-12-30T08:46:30Z</time>
</trkpt>
<trkpt lat="49.1326352" lon="2.6773677">
<ele>105.70</ele>
<time>2018-12-30T08:46:32Z</time>
</trkpt>
<trkpt lat="49.1326749" lon="2.6774374">
<ele>105.61</ele>
<time>2018-12-30T08:46:35Z</time>
</trkpt>
<trkpt lat="49.1327005" lon="2.6775184">
<ele>106.37</ele>
<time>2018-12-30T08:46:38Z</time>
</trkpt>
<trkpt lat="49.1327174" lon="2.6775985">
<ele>106.61</ele>
<time>2018-12-30T08:46:50Z</time>
</trkpt>
<trkpt lat="49.1327648" lon="2.6776659">
<ele>105.64</ele>
<time>2018-12-30T08:46:53Z</time>
</trkpt>
<trkpt lat="49.1328115" lon="2.6777073">
<ele>106.52</ele>
<time>2018-12-30T08:46:55Z</time>
</trkpt>
<trkpt lat="49.1328723" lon="2.6777505">
<ele>106.60</ele>
<time>2018-12-30T08:46:57Z</time>
</trkpt>
<trkpt lat="49.1329341" lon="2.6778100">
<ele>106.61</ele>
<time>2018-12-30T08:46:59Z</time>
</trkpt>
<trkpt lat="49.1330093" lon="2.6778855">
<ele>105.91</ele>
<time>2018-12-30T08:47:01Z</time>
</trkpt>
<trkpt lat="49.1330480" lon="2.6779321">
<ele>105.70</ele>
<time>2018-12-30T08:47:02Z</time>
</trkpt>
<trkpt lat="49.1330875" lon="2.6779922">
<ele>105.64</ele>
<time>2018-12-30T08:47:03Z</time>
</trkpt>
<trkpt lat="49.1331381" lon="2.6780716">
<ele>104.92</ele>
<time>2018-12-30T08:47:04Z</time>
</trkpt>
<trkpt lat="49.1331841" lon="2.6781399">
<ele>104.70</ele>
<time>2018-12-30T08:47:05Z</time>
</trkpt>
<trkpt lat="49.1332185" lon="2.6781860">
<ele>104.64</ele>
<time>2018-12-30T08:47:06Z</time>
</trkpt>
<trkpt lat="49.1332431" lon="2.6782506">
<ele>105.32</ele>
<time>2018-12-30T08:47:07Z</time>
</trkpt>
<trkpt lat="49.1332802" lon="2.6783258">
<ele>105.58</ele>
<time>2018-12-30T08:47:09Z</time>
</trkpt>
<trkpt lat="49.1333308" lon="2.6783600">
<ele>105.61</ele>
<time>2018-12-30T08:47:12Z</time>
</trkpt>
<trkpt lat="49.1333841" lon="2.6783060">
<ele>106.31</ele>
<time>2018-12-30T08:47:15Z</time>
</trkpt>
<trkpt lat="49.1334307" lon="2.6783393">
<ele>106.58</ele>
<time>2018-12-30T08:47:17Z</time>
</trkpt>
<trkpt lat="49.1334794" lon="2.6784034">
<ele>106.61</ele>
<time>2018-12-30T08:47:19Z</time>
</trkpt>
<trkpt lat="49.1335321" lon="2.6784854">
<ele>106.61</ele>
<time>2018-12-30T08:47:21Z</time>
</trkpt>
<trkpt lat="49.1335976" lon="2.6785478">
<ele>106.61</ele>
<time>2018-12-30T08:47:23Z</time>
</trkpt>
<trkpt lat="49.1336797" lon="2.6786055">
<ele>105.91</ele>
<time>2018-12-30T08:47:25Z</time>
</trkpt>
<trkpt lat="49.1337350" lon="2.6786765">
<ele>105.64</ele>
<time>2018-12-30T08:47:27Z</time>
</trkpt>
<trkpt lat="49.1337785" lon="2.6787402">
<ele>105.61</ele>
<time>2018-12-30T08:47:29Z</time>
</trkpt>
<trkpt lat="49.1338337" lon="2.6787817">
<ele>106.31</ele>
<time>2018-12-30T08:47:31Z</time>
</trkpt>
<trkpt lat="49.1338689" lon="2.6788494">
<ele>106.58</ele>
<time>2018-12-30T08:47:33Z</time>
</trkpt>
<trkpt lat="49.1338827" lon="2.6789234">
<ele>106.61</ele>
<time>2018-12-30T08:47:35Z</time>
</trkpt>
<trkpt lat="49.1338899" lon="2.6790003">
<ele>106.61</ele>
<time>2018-12-30T08:47:37Z</time>
</trkpt>
<trkpt lat="49.1339187" lon="2.6790849">
<ele>105.91</ele>
<time>2018-12-30T08:47:39Z</time>
</trkpt>
<trkpt lat="49.1339528" lon="2.6791721">
<ele>105.64</ele>
<time>2018-12-30T08:47:41Z</time>
</trkpt>
<trkpt lat="49.1340124" lon="2.6792311">
<ele>104.91</ele>
<time>2018-12-30T08:47:43Z</time>
</trkpt>
<trkpt lat="49.1340869" lon="2.6792520">
<ele>104.64</ele>
<time>2018-12-30T08:47:45Z</time>
</trkpt>
<trkpt lat="49.1341428" lon="2.6792679">
<ele>104.61</ele>
<time>2018-12-30T08:47:47Z</time>
</trkpt>
<trkpt lat="49.1341968" lon="2.6792577">
<ele>104.55</ele>
<time>2018-12-30T08:47:50Z</time>
</trkpt>
<trkpt lat="49.1342408" lon="2.6792243">
<ele>103.61</ele>
<time>2018-12-30T08:47:59Z</time>
</trkpt>
<trkpt lat="49.1342819" lon="2.6791879">
<ele>102.91</ele>
<time>2018-12-30T08:48:23Z</time>
</trkpt>
<trkpt lat="49.1343224" lon="2.6791536">
<ele>102.64</ele>
<time>2018-12-30T08:48:25Z</time>
</trkpt>
<trkpt lat="49.1343663" lon="2.6791186">
<ele>103.52</ele>
<time>2018-12-30T08:48:27Z</time>
</trkpt>
<trkpt lat="49.1344162" lon="2.6790879">
<ele>103.60</ele>
<time>2018-12-30T08:48:29Z</time>
</trkpt>
<trkpt lat="49.1344642" lon="2.6790609">
<ele>103.61</ele>
<time>2018-12-30T08:48:31Z</time>
</trkpt>
<trkpt lat="49.1345134" lon="2.6790312">
<ele>103.61</ele>
<time>2018-12-30T08:48:33Z</time>
</trkpt>
<trkpt lat="49.1345639" lon="2.6789977">
<ele>103.61</ele>
<time>2018-12-30T08:48:35Z</time>
</trkpt>
<trkpt lat="49.1346125" lon="2.6789724">
<ele>104.52</ele>
<time>2018-12-30T08:48:37Z</time>
</trkpt>
<trkpt lat="49.1346591" lon="2.6789320">
<ele>104.60</ele>
<time>2018-12-30T08:48:39Z</time>
</trkpt>
<trkpt lat="49.1347165" lon="2.6788845">
<ele>104.61</ele>
<time>2018-12-30T08:48:41Z</time>
</trkpt>
<trkpt lat="49.1347736" lon="2.6788433">
<ele>104.61</ele>
<time>2018-12-30T08:48:43Z</time>
</trkpt>
<trkpt lat="49.1348372" lon="2.6787938">
<ele>104.61</ele>
<time>2018-12-30T08:48:45Z</time>
</trkpt>
<trkpt lat="49.1348819" lon="2.6787600">
<ele>104.61</ele>
<time>2018-12-30T08:48:47Z</time>
</trkpt>
<trkpt lat="49.1349257" lon="2.6787317">
<ele>104.61</ele>
<time>2018-12-30T08:48:49Z</time>
</trkpt>
<trkpt lat="49.1349709" lon="2.6786900">
<ele>104.82</ele>
<time>2018-12-30T08:48:51Z</time>
</trkpt>
<trkpt lat="49.1350217" lon="2.6786528">
<ele>105.54</ele>
<time>2018-12-30T08:48:53Z</time>
</trkpt>
<trkpt lat="49.1350669" lon="2.6786299">
<ele>106.51</ele>
<time>2018-12-30T08:48:55Z</time>
</trkpt>
<trkpt lat="49.1351165" lon="2.6786023">
<ele>106.60</ele>
<time>2018-12-30T08:48:57Z</time>
</trkpt>
<trkpt lat="49.1351707" lon="2.6785767">
<ele>106.61</ele>
<time>2018-12-30T08:48:59Z</time>
</trkpt>
<trkpt lat="49.1352251" lon="2.6785405">
<ele>106.61</ele>
<time>2018-12-30T08:49:01Z</time>
</trkpt>
<trkpt lat="49.1352902" lon="2.6784864">
<ele>107.31</ele>
<time>2018-12-30T08:49:03Z</time>
</trkpt>
<trkpt lat="49.1353555" lon="2.6784395">
<ele>107.58</ele>
<time>2018-12-30T08:49:05Z</time>
</trkpt>
<trkpt lat="49.1354292" lon="2.6784533">
<ele>107.61</ele>
<time>2018-12-30T08:49:07Z</time>
</trkpt>
<trkpt lat="49.1354818" lon="2.6785307">
<ele>107.61</ele>
<time>2018-12-30T08:49:09Z</time>
</trkpt>
<trkpt lat="49.1355379" lon="2.6786187">
<ele>107.61</ele>
<time>2018-12-30T08:49:11Z</time>
</trkpt>
<trkpt lat="49.1356015" lon="2.6786336">
<ele>107.61</ele>
<time>2018-12-30T08:49:13Z</time>
</trkpt>
<trkpt lat="49.1356647" lon="2.6785747">
<ele>108.52</ele>
<time>2018-12-30T08:49:15Z</time>
</trkpt>
<trkpt lat="49.1357217" lon="2.6785066">
<ele>109.30</ele>
<time>2018-12-30T08:49:17Z</time>
</trkpt>
<trkpt lat="49.1357759" lon="2.6784594">
<ele>109.58</ele>
<time>2018-12-30T08:49:19Z</time>
</trkpt>
<trkpt lat="49.1358269" lon="2.6784322">
<ele>109.61</ele>
<time>2018-12-30T08:49:23Z</time>
</trkpt>
<trkpt lat="49.1358702" lon="2.6784706">
<ele>110.31</ele>
<time>2018-12-30T08:49:27Z</time>
</trkpt>
<trkpt lat="49.1358924" lon="2.6785858">
<ele>110.54</ele>
<time>2018-12-30T08:49:30Z</time>
</trkpt>
<trkpt lat="49.1359087" lon="2.6786977">
<ele>110.39</ele>
<time>2018-12-30T08:49:32Z</time>
</trkpt>
<trkpt lat="49.1359345" lon="2.6788225">
<ele>110.59</ele>
<time>2018-12-30T08:49:34Z</time>
</trkpt>
<trkpt lat="49.1359709" lon="2.6789476">
<ele>109.91</ele>
<time>2018-12-30T08:49:36Z</time>
</trkpt>
<trkpt lat="49.1360079" lon="2.6790508">
<ele>110.55</ele>
<time>2018-12-30T08:49:38Z</time>
</trkpt>
<trkpt lat="49.1360278" lon="2.6791474">
<ele>110.61</ele>
<time>2018-12-30T08:49:40Z</time>
</trkpt>
<trkpt lat="49.1360476" lon="2.6792406">
<ele>111.31</ele>
<time>2018-12-30T08:49:42Z</time>
</trkpt>
<trkpt lat="49.1360759" lon="2.6793298">
<ele>111.58</ele>
<time>2018-12-30T08:49:44Z</time>
</trkpt>
<trkpt lat="49.1361085" lon="2.6794152">
<ele>111.61</ele>
<time>2018-12-30T08:49:46Z</time>
</trkpt>
<trkpt lat="49.1361323" lon="2.6795197">
<ele>110.91</ele>
<time>2018-12-30T08:49:48Z</time>
</trkpt>
<trkpt lat="49.1361193" lon="2.6796017">
<ele>110.64</ele>
<time>2018-12-30T08:49:50Z</time>
</trkpt>
<trkpt lat="49.1360627" lon="2.6796536">
<ele>110.61</ele>
<time>2018-12-30T08:49:53Z</time>
</trkpt>
<trkpt lat="49.1360042" lon="2.6796777">
<ele>110.61</ele>
<time>2018-12-30T08:49:55Z</time>
</trkpt>
<trkpt lat="49.1359453" lon="2.6796433">
<ele>110.61</ele>
<time>2018-12-30T08:49:57Z</time>
</trkpt>
<trkpt lat="49.1358907" lon="2.6795844">
<ele>110.61</ele>
<time>2018-12-30T08:49:59Z</time>
</trkpt>
<trkpt lat="49.1358351" lon="2.6795875">
<ele>110.61</ele>
<time>2018-12-30T08:50:01Z</time>
</trkpt>
<trkpt lat="49.1357843" lon="2.6796460">
<ele>110.61</ele>
<time>2018-12-30T08:50:03Z</time>
</trkpt>
<trkpt lat="49.1357575" lon="2.6797229">
<ele>111.31</ele>
<time>2018-12-30T08:50:05Z</time>
</trkpt>
<trkpt lat="49.1357472" lon="2.6798126">
<ele>110.88</ele>
<time>2018-12-30T08:50:07Z</time>
</trkpt>
<trkpt lat="49.1357341" lon="2.6799097">
<ele>111.55</ele>
<time>2018-12-30T08:50:09Z</time>
</trkpt>
<trkpt lat="49.1356875" lon="2.6800225">
<ele>111.61</ele>
<time>2018-12-30T08:50:11Z</time>
</trkpt>
<trkpt lat="49.1356547" lon="2.6801028">
<ele>110.91</ele>
<time>2018-12-30T08:50:12Z</time>
</trkpt>
<trkpt lat="49.1356048" lon="2.6801925">
<ele>110.64</ele>
<time>2018-12-30T08:50:14Z</time>
</trkpt>
<trkpt lat="49.1355532" lon="2.6802677">
<ele>110.61</ele>
<time>2018-12-30T08:50:16Z</time>
</trkpt>
<trkpt lat="49.1355320" lon="2.6803518">
<ele>110.61</ele>
<time>2018-12-30T08:50:18Z</time>
</trkpt>
<trkpt lat="49.1355302" lon="2.6804353">
<ele>109.70</ele>
<time>2018-12-30T08:50:20Z</time>
</trkpt>
<trkpt lat="49.1355108" lon="2.6805371">
<ele>110.32</ele>
<time>2018-12-30T08:50:22Z</time>
</trkpt>
<trkpt lat="49.1354540" lon="2.6806128">
<ele>110.58</ele>
<time>2018-12-30T08:50:24Z</time>
</trkpt>
<trkpt lat="49.1353869" lon="2.6806758">
<ele>110.61</ele>
<time>2018-12-30T08:50:26Z</time>
</trkpt>
<trkpt lat="49.1353236" lon="2.6807398">
<ele>110.61</ele>
<time>2018-12-30T08:50:28Z</time>
</trkpt>
<trkpt lat="49.1352657" lon="2.6807887">
<ele>110.82</ele>
<time>2018-12-30T08:50:30Z</time>
</trkpt>
<trkpt lat="49.1352145" lon="2.6808323">
<ele>110.63</ele>
<time>2018-12-30T08:50:32Z</time>
</trkpt>
<trkpt lat="49.1351660" lon="2.6808958">
<ele>110.61</ele>
<time>2018-12-30T08:50:34Z</time>
</trkpt>
<trkpt lat="49.1351187" lon="2.6809464">
<ele>111.31</ele>
<time>2018-12-30T08:50:36Z</time>
</trkpt>
<trkpt lat="49.1350592" lon="2.6809916">
<ele>111.58</ele>
<time>2018-12-30T08:50:38Z</time>
</trkpt>
<trkpt lat="49.1349838" lon="2.6810078">
<ele>111.61</ele>
<time>2018-12-30T08:50:40Z</time>
</trkpt>
<trkpt lat="49.1349105" lon="2.6809974">
<ele>111.61</ele>
<time>2018-12-30T08:50:42Z</time>
</trkpt>
<trkpt lat="49.1346792" lon="2.6810452">
<ele>110.21</ele>
<time>2018-12-30T08:50:47Z</time>
</trkpt>
<trkpt lat="49.1346151" lon="2.6810587">
<ele>109.67</ele>
<time>2018-12-30T08:50:49Z</time>
</trkpt>
<trkpt lat="49.1345497" lon="2.6810665">
<ele>109.62</ele>
<time>2018-12-30T08:50:51Z</time>
</trkpt>
<trkpt lat="49.1344997" lon="2.6810596">
<ele>108.70</ele>
<time>2018-12-30T08:50:53Z</time>
</trkpt>
<trkpt lat="49.1344499" lon="2.6810676">
<ele>108.62</ele>
<time>2018-12-30T08:50:55Z</time>
</trkpt>
<trkpt lat="49.1343903" lon="2.6810841">
<ele>108.61</ele>
<time>2018-12-30T08:50:57Z</time>
</trkpt>
<trkpt lat="49.1343075" lon="2.6810775">
<ele>107.70</ele>
<time>2018-12-30T08:50:59Z</time>
</trkpt>
<trkpt lat="49.1342227" lon="2.6810653">
<ele>107.62</ele>
<time>2018-12-30T08:51:01Z</time>
</trkpt>
<trkpt lat="49.1341682" lon="2.6810692">
<ele>106.91</ele>
<time>2018-12-30T08:51:02Z</time>
</trkpt>
<trkpt lat="49.1341193" lon="2.6810844">
<ele>106.70</ele>
<time>2018-12-30T08:51:03Z</time>
</trkpt>
<trkpt lat="49.1340719" lon="2.6811112">
<ele>106.64</ele>
<time>2018-12-30T08:51:04Z</time>
</trkpt>
<trkpt lat="49.1340276" lon="2.6811541">
<ele>105.92</ele>
<time>2018-12-30T08:51:05Z</time>
</trkpt>
<trkpt lat="49.1339835" lon="2.6811966">
<ele>105.70</ele>
<time>2018-12-30T08:51:06Z</time>
</trkpt>
<trkpt lat="49.1339347" lon="2.6812975">
<ele>104.71</ele>
<time>2018-12-30T08:51:08Z</time>
</trkpt>
<trkpt lat="49.1339014" lon="2.6813815">
<ele>104.62</ele>
<time>2018-12-30T08:51:10Z</time>
</trkpt>
<trkpt lat="49.1338583" lon="2.6814516">
<ele>105.52</ele>
<time>2018-12-30T08:51:12Z</time>
</trkpt>
<trkpt lat="49.1338094" lon="2.6815195">
<ele>105.60</ele>
<time>2018-12-30T08:51:14Z</time>
</trkpt>
<trkpt lat="49.1337553" lon="2.6815734">
<ele>105.61</ele>
<time>2018-12-30T08:51:16Z</time>
</trkpt>
<trkpt lat="49.1337092" lon="2.6816354">
<ele>105.61</ele>
<time>2018-12-30T08:51:18Z</time>
</trkpt>
<trkpt lat="49.1336374" lon="2.6816756">
<ele>106.52</ele>
<time>2018-12-30T08:51:20Z</time>
</trkpt>
<trkpt lat="49.1335768" lon="2.6816954">
<ele>106.39</ele>
<time>2018-12-30T08:51:22Z</time>
</trkpt>
<trkpt lat="49.1334934" lon="2.6817214">
<ele>105.89</ele>
<time>2018-12-30T08:51:24Z</time>
</trkpt>
<trkpt lat="49.1334514" lon="2.6817851">
<ele>106.34</ele>
<time>2018-12-30T08:51:26Z</time>
</trkpt>
<trkpt lat="49.1334417" lon="2.6818706">
<ele>105.89</ele>
<time>2018-12-30T08:51:28Z</time>
</trkpt>
<trkpt lat="49.1334572" lon="2.6819643">
<ele>105.85</ele>
<time>2018-12-30T08:51:30Z</time>
</trkpt>
<trkpt lat="49.1334856" lon="2.6820573">
<ele>106.54</ele>
<time>2018-12-30T08:51:32Z</time>
</trkpt>
<trkpt lat="49.1335161" lon="2.6821453">
<ele>106.60</ele>
<time>2018-12-30T08:51:34Z</time>
</trkpt>
<trkpt lat="49.1335572" lon="2.6822393">
<ele>106.61</ele>
<time>2018-12-30T08:51:36Z</time>
</trkpt>
<trkpt lat="49.1336058" lon="2.6823269">
<ele>106.61</ele>
<time>2018-12-30T08:51:38Z</time>
</trkpt>
<trkpt lat="49.1336625" lon="2.6824050">
<ele>106.61</ele>
<time>2018-12-30T08:51:40Z</time>
</trkpt>
<trkpt lat="49.1337230" lon="2.6824774">
<ele>106.61</ele>
<time>2018-12-30T08:51:42Z</time>
</trkpt>
<trkpt lat="49.1337619" lon="2.6825209">
<ele>106.61</ele>
<time>2018-12-30T08:51:43Z</time>
</trkpt>
<trkpt lat="49.1337962" lon="2.6826052">
<ele>106.61</ele>
<time>2018-12-30T08:51:45Z</time>
</trkpt>
<trkpt lat="49.1337775" lon="2.6827066">
<ele>107.31</ele>
<time>2018-12-30T08:51:47Z</time>
</trkpt>
<trkpt lat="49.1337269" lon="2.6827564">
<ele>107.58</ele>
<time>2018-12-30T08:51:49Z</time>
</trkpt>
<trkpt lat="49.1336844" lon="2.6828009">
<ele>106.91</ele>
<time>2018-12-30T08:51:51Z</time>
</trkpt>
<trkpt lat="49.1336404" lon="2.6828772">
<ele>106.64</ele>
<time>2018-12-30T08:51:53Z</time>
</trkpt>
<trkpt lat="49.1335824" lon="2.6829675">
<ele>106.61</ele>
<time>2018-12-30T08:51:55Z</time>
</trkpt>
<trkpt lat="49.1335080" lon="2.6830335">
<ele>106.61</ele>
<time>2018-12-30T08:51:57Z</time>
</trkpt>
<trkpt lat="49.1334634" lon="2.6830617">
<ele>105.91</ele>
<time>2018-12-30T08:51:58Z</time>
</trkpt>
<trkpt lat="49.1333913" lon="2.6831076">
<ele>105.64</ele>
<time>2018-12-30T08:52:00Z</time>
</trkpt>
<trkpt lat="49.1333173" lon="2.6831437">
<ele>106.31</ele>
<time>2018-12-30T08:52:02Z</time>
</trkpt>
<trkpt lat="49.1332251" lon="2.6831532">
<ele>105.88</ele>
<time>2018-12-30T08:52:04Z</time>
</trkpt>
<trkpt lat="49.1331506" lon="2.6831534">
<ele>105.64</ele>
<time>2018-12-30T08:52:06Z</time>
</trkpt>
<trkpt lat="49.1331005" lon="2.6831926">
<ele>105.61</ele>
<time>2018-12-30T08:52:08Z</time>
</trkpt>
<trkpt lat="49.1330883" lon="2.6832913">
<ele>104.91</ele>
<time>2018-12-30T08:52:10Z</time>
</trkpt>
<trkpt lat="49.1330622" lon="2.6833941">
<ele>104.64</ele>
<time>2018-12-30T08:52:12Z</time>
</trkpt>
<trkpt lat="49.1330148" lon="2.6834874">
<ele>105.52</ele>
<time>2018-12-30T08:52:14Z</time>
</trkpt>
<trkpt lat="49.1329342" lon="2.6835509">
<ele>105.60</ele>
<time>2018-12-30T08:52:16Z</time>
</trkpt>
<trkpt lat="49.1328775" lon="2.6835831">
<ele>105.61</ele>
<time>2018-12-30T08:52:17Z</time>
</trkpt>
<trkpt lat="49.1328222" lon="2.6836067">
<ele>105.61</ele>
<time>2018-12-30T08:52:18Z</time>
</trkpt>
<trkpt lat="49.1327746" lon="2.6836269">
<ele>106.31</ele>
<time>2018-12-30T08:52:19Z</time>
</trkpt>
<trkpt lat="49.1327268" lon="2.6836455">
<ele>106.52</ele>
<time>2018-12-30T08:52:20Z</time>
</trkpt>
<trkpt lat="49.1326744" lon="2.6836626">
<ele>106.58</ele>
<time>2018-12-30T08:52:21Z</time>
</trkpt>
<trkpt lat="49.1326243" lon="2.6836692">
<ele>106.60</ele>
<time>2018-12-30T08:52:22Z</time>
</trkpt>
<trkpt lat="49.1325744" lon="2.6836821">
<ele>106.61</ele>
<time>2018-12-30T08:52:23Z</time>
</trkpt>
<trkpt lat="49.1325212" lon="2.6837002">
<ele>106.61</ele>
<time>2018-12-30T08:52:24Z</time>
</trkpt>
<trkpt lat="49.1324732" lon="2.6837202">
<ele>106.61</ele>
<time>2018-12-30T08:52:25Z</time>
</trkpt>
<trkpt lat="49.1324338" lon="2.6837647">
<ele>105.91</ele>
<time>2018-12-30T08:52:26Z</time>
</trkpt>
<trkpt lat="49.1323985" lon="2.6838101">
<ele>105.00</ele>
<time>2018-12-30T08:52:27Z</time>
</trkpt>
<trkpt lat="49.1323598" lon="2.6838618">
<ele>104.03</ele>
<time>2018-12-30T08:52:28Z</time>
</trkpt>
<trkpt lat="49.1323186" lon="2.6839131">
<ele>103.74</ele>
<time>2018-12-30T08:52:29Z</time>
</trkpt>
<trkpt lat="49.1322838" lon="2.6839767">
<ele>102.95</ele>
<time>2018-12-30T08:52:30Z</time>
</trkpt>
<trkpt lat="49.1322708" lon="2.6840642">
<ele>101.73</ele>
<time>2018-12-30T08:52:32Z</time>
</trkpt>
<trkpt lat="49.1322958" lon="2.6841327">
<ele>100.70</ele>
<time>2018-12-30T08:52:40Z</time>
</trkpt>
<trkpt lat="49.1323348" lon="2.6842762">
<ele>99.92</ele>
<time>2018-12-30T08:52:42Z</time>
</trkpt>
<trkpt lat="49.1323452" lon="2.6843720">
<ele>99.00</ele>
<time>2018-12-30T08:52:43Z</time>
</trkpt>
<trkpt lat="49.1323571" lon="2.6844870">
<ele>97.33</ele>
<time>2018-12-30T08:52:44Z</time>
</trkpt>
<trkpt lat="49.1323628" lon="2.6846088">
<ele>96.13</ele>
<time>2018-12-30T08:52:45Z</time>
</trkpt>
<trkpt lat="49.1323816" lon="2.6846983">
<ele>95.07</ele>
<time>2018-12-30T08:52:46Z</time>
</trkpt>
<trkpt lat="49.1324168" lon="2.6847747">
<ele>94.05</ele>
<time>2018-12-30T08:52:47Z</time>
</trkpt>
<trkpt lat="49.1324607" lon="2.6848316">
<ele>93.74</ele>
<time>2018-12-30T08:52:48Z</time>
</trkpt>
<trkpt lat="49.1325063" lon="2.6848719">
<ele>92.95</ele>
<time>2018-12-30T08:52:49Z</time>
</trkpt>
<trkpt lat="49.1325542" lon="2.6849079">
<ele>92.01</ele>
<time>2018-12-30T08:52:50Z</time>
</trkpt>
<trkpt lat="49.1326074" lon="2.6849547">
<ele>91.73</ele>
<time>2018-12-30T08:52:51Z</time>
</trkpt>
<trkpt lat="49.1326675" lon="2.6850126">
<ele>90.95</ele>
<time>2018-12-30T08:52:52Z</time>
</trkpt>
<trkpt lat="49.1327237" lon="2.6851035">
<ele>90.01</ele>
<time>2018-12-30T08:52:53Z</time>
</trkpt>
<trkpt lat="49.1327594" lon="2.6852193">
<ele>89.73</ele>
<time>2018-12-30T08:52:54Z</time>
</trkpt>
<trkpt lat="49.1327813" lon="2.6853216">
<ele>88.95</ele>
<time>2018-12-30T08:52:55Z</time>
</trkpt>
<trkpt lat="49.1328033" lon="2.6853946">
<ele>88.71</ele>
<time>2018-12-30T08:52:56Z</time>
</trkpt>
<trkpt lat="49.1328507" lon="2.6854201">
<ele>87.94</ele>
<time>2018-12-30T08:52:57Z</time>
</trkpt>
<trkpt lat="49.1329471" lon="2.6854309">
<ele>86.03</ele>
<time>2018-12-30T08:52:59Z</time>
</trkpt>
<trkpt lat="49.1330051" lon="2.6854480">
<ele>85.74</ele>
<time>2018-12-30T08:53:00Z</time>
</trkpt>
<trkpt lat="49.1330616" lon="2.6854652">
<ele>85.65</ele>
<time>2018-12-30T08:53:01Z</time>
</trkpt>
<trkpt lat="49.1331175" lon="2.6854851">
<ele>85.62</ele>
<time>2018-12-30T08:53:02Z</time>
</trkpt>
<trkpt lat="49.1331768" lon="2.6855011">
<ele>84.91</ele>
<time>2018-12-30T08:53:03Z</time>
</trkpt>
<trkpt lat="49.1332315" lon="2.6855100">
<ele>85.40</ele>
<time>2018-12-30T08:53:04Z</time>
</trkpt>
<trkpt lat="49.1332829" lon="2.6855158">
<ele>85.55</ele>
<time>2018-12-30T08:53:05Z</time>
</trkpt>
<trkpt lat="49.1333329" lon="2.6855125">
<ele>85.59</ele>
<time>2018-12-30T08:53:06Z</time>
</trkpt>
<trkpt lat="49.1333859" lon="2.6855070">
<ele>86.31</ele>
<time>2018-12-30T08:53:07Z</time>
</trkpt>
<trkpt lat="49.1334374" lon="2.6855225">
<ele>86.52</ele>
<time>2018-12-30T08:53:08Z</time>
</trkpt>
<trkpt lat="49.1334845" lon="2.6855691">
<ele>86.58</ele>
<time>2018-12-30T08:53:09Z</time>
</trkpt>
<trkpt lat="49.1335336" lon="2.6856213">
<ele>85.90</ele>
<time>2018-12-30T08:53:10Z</time>
</trkpt>
<trkpt lat="49.1335812" lon="2.6856657">
<ele>85.70</ele>
<time>2018-12-30T08:53:11Z</time>
</trkpt>
<trkpt lat="49.1336316" lon="2.6857151">
<ele>84.94</ele>
<time>2018-12-30T08:53:12Z</time>
</trkpt>
<trkpt lat="49.1336779" lon="2.6857624">
<ele>84.71</ele>
<time>2018-12-30T08:53:13Z</time>
</trkpt>
<trkpt lat="49.1337273" lon="2.6858140">
<ele>84.64</ele>
<time>2018-12-30T08:53:14Z</time>
</trkpt>
<trkpt lat="49.1337764" lon="2.6858589">
<ele>83.92</ele>
<time>2018-12-30T08:53:15Z</time>
</trkpt>
<trkpt lat="49.1338234" lon="2.6858958">
<ele>83.70</ele>
<time>2018-12-30T08:53:16Z</time>
</trkpt>
<trkpt lat="49.1338703" lon="2.6859076">
<ele>83.64</ele>
<time>2018-12-30T08:53:17Z</time>
</trkpt>
<trkpt lat="49.1339187" lon="2.6859160">
<ele>83.62</ele>
<time>2018-12-30T08:53:18Z</time>
</trkpt>
<trkpt lat="49.1339746" lon="2.6859053">
<ele>83.61</ele>
<time>2018-12-30T08:53:19Z</time>
</trkpt>
<trkpt lat="49.1340242" lon="2.6858805">
<ele>82.91</ele>
<time>2018-12-30T08:53:20Z</time>
</trkpt>
<trkpt lat="49.1340744" lon="2.6858739">
<ele>83.40</ele>
<time>2018-12-30T08:53:21Z</time>
</trkpt>
<trkpt lat="49.1341196" lon="2.6858757">
<ele>83.55</ele>
<time>2018-12-30T08:53:22Z</time>
</trkpt>
<trkpt lat="49.1341849" lon="2.6858881">
<ele>83.61</ele>
<time>2018-12-30T08:53:24Z</time>
</trkpt>
<trkpt lat="49.1342444" lon="2.6858635">
<ele>83.61</ele>
<time>2018-12-30T08:53:26Z</time>
</trkpt>
<trkpt lat="49.1343115" lon="2.6858179">
<ele>83.61</ele>
<time>2018-12-30T08:53:28Z</time>
</trkpt>
<trkpt lat="49.1343987" lon="2.6858148">
<ele>83.61</ele>
<time>2018-12-30T08:53:30Z</time>
</trkpt>
<trkpt lat="49.1344879" lon="2.6858585">
<ele>82.70</ele>
<time>2018-12-30T08:53:32Z</time>
</trkpt>
<trkpt lat="49.1345380" lon="2.6858843">
<ele>82.64</ele>
<time>2018-12-30T08:53:33Z</time>
</trkpt>
<trkpt lat="49.1345849" lon="2.6859196">
<ele>82.62</ele>
<time>2018-12-30T08:53:34Z</time>
</trkpt>
<trkpt lat="49.1346265" lon="2.6859581">
<ele>82.61</ele>
<time>2018-12-30T08:53:35Z</time>
</trkpt>
<trkpt lat="49.1346656" lon="2.6859930">
<ele>82.61</ele>
<time>2018-12-30T08:53:36Z</time>
</trkpt>
<trkpt lat="49.1347421" lon="2.6860554">
<ele>82.61</ele>
<time>2018-12-30T08:53:38Z</time>
</trkpt>
<trkpt lat="49.1348173" lon="2.6860865">
<ele>83.31</ele>
<time>2018-12-30T08:53:40Z</time>
</trkpt>
<trkpt lat="49.1348596" lon="2.6861116">
<ele>83.52</ele>
<time>2018-12-30T08:53:41Z</time>
</trkpt>
<trkpt lat="49.1349052" lon="2.6861382">
<ele>83.58</ele>
<time>2018-12-30T08:53:42Z</time>
</trkpt>
<trkpt lat="49.1349450" lon="2.6861778">
<ele>83.60</ele>
<time>2018-12-30T08:53:43Z</time>
</trkpt>
<trkpt lat="49.1350116" lon="2.6862690">
<ele>84.31</ele>
<time>2018-12-30T08:53:45Z</time>
</trkpt>
<trkpt lat="49.1350607" lon="2.6863637">
<ele>84.58</ele>
<time>2018-12-30T08:53:47Z</time>
</trkpt>
<trkpt lat="49.1350971" lon="2.6864201">
<ele>84.60</ele>
<time>2018-12-30T08:53:48Z</time>
</trkpt>
<trkpt lat="49.1351321" lon="2.6864692">
<ele>84.61</ele>
<time>2018-12-30T08:53:49Z</time>
</trkpt>
<trkpt lat="49.1351760" lon="2.6865039">
<ele>84.61</ele>
<time>2018-12-30T08:53:50Z</time>
</trkpt>
<trkpt lat="49.1352175" lon="2.6865356">
<ele>85.31</ele>
<time>2018-12-30T08:53:51Z</time>
</trkpt>
<trkpt lat="49.1352832" lon="2.6866086">
<ele>85.58</ele>
<time>2018-12-30T08:53:53Z</time>
</trkpt>
<trkpt lat="49.1353457" lon="2.6867025">
<ele>86.52</ele>
<time>2018-12-30T08:53:55Z</time>
</trkpt>
<trkpt lat="49.1353838" lon="2.6867423">
<ele>86.58</ele>
<time>2018-12-30T08:53:56Z</time>
</trkpt>
<trkpt lat="49.1354198" lon="2.6867943">
<ele>86.60</ele>
<time>2018-12-30T08:53:57Z</time>
</trkpt>
<trkpt lat="49.1354562" lon="2.6868493">
<ele>86.61</ele>
<time>2018-12-30T08:53:58Z</time>
</trkpt>
<trkpt lat="49.1355003" lon="2.6869030">
<ele>86.61</ele>
<time>2018-12-30T08:53:59Z</time>
</trkpt>
<trkpt lat="49.1355384" lon="2.6869461">
<ele>86.61</ele>
<time>2018-12-30T08:54:00Z</time>
</trkpt>
<trkpt lat="49.1355762" lon="2.6869956">
<ele>85.91</ele>
<time>2018-12-30T08:54:01Z</time>
</trkpt>
<trkpt lat="49.1356219" lon="2.6870306">
<ele>85.00</ele>
<time>2018-12-30T08:54:02Z</time>
</trkpt>
<trkpt lat="49.1356734" lon="2.6870583">
<ele>84.73</ele>
<time>2018-12-30T08:54:03Z</time>
</trkpt>
<trkpt lat="49.1357221" lon="2.6870751">
<ele>84.65</ele>
<time>2018-12-30T08:54:04Z</time>
</trkpt>
<trkpt lat="49.1357671" lon="2.6870755">
<ele>84.62</ele>
<time>2018-12-30T08:54:05Z</time>
</trkpt>
<trkpt lat="49.1358446" lon="2.6870724">
<ele>85.52</ele>
<time>2018-12-30T08:54:07Z</time>
</trkpt>
<trkpt lat="49.1359233" lon="2.6870691">
<ele>85.60</ele>
<time>2018-12-30T08:54:09Z</time>
</trkpt>
<trkpt lat="49.1360104" lon="2.6870738">
<ele>85.61</ele>
<time>2018-12-30T08:54:11Z</time>
</trkpt>
<trkpt lat="49.1360515" lon="2.6871066">
<ele>84.91</ele>
<time>2018-12-30T08:54:12Z</time>
</trkpt>
<trkpt lat="49.1361090" lon="2.6871351">
<ele>84.64</ele>
<time>2018-12-30T08:54:14Z</time>
</trkpt>
<trkpt lat="49.1361580" lon="2.6871397">
<ele>82.94</ele>
<time>2018-12-30T08:54:19Z</time>
</trkpt>
<trkpt lat="49.1361115" lon="2.6871284">
<ele>81.83</ele>
<time>2018-12-30T08:54:25Z</time>
</trkpt>
<trkpt lat="49.1360480" lon="2.6871073">
<ele>82.54</ele>
<time>2018-12-30T08:54:29Z</time>
</trkpt>
<trkpt lat="49.1359977" lon="2.6871033">
<ele>83.58</ele>
<time>2018-12-30T08:54:33Z</time>
</trkpt>
<trkpt lat="49.1359759" lon="2.6870385">
<ele>83.61</ele>
<time>2018-12-30T08:54:36Z</time>
</trkpt>
<trkpt lat="49.1359804" lon="2.6869383">
<ele>84.58</ele>
<time>2018-12-30T08:54:39Z</time>
</trkpt>
<trkpt lat="49.1359769" lon="2.6868531">
<ele>83.91</ele>
<time>2018-12-30T08:54:41Z</time>
</trkpt>
<trkpt lat="49.1359625" lon="2.6867772">
<ele>82.94</ele>
<time>2018-12-30T08:54:43Z</time>
</trkpt>
<trkpt lat="49.1359718" lon="2.6866919">
<ele>83.59</ele>
<time>2018-12-30T08:54:46Z</time>
</trkpt>
<trkpt lat="49.1359953" lon="2.6866123">
<ele>83.61</ele>
<time>2018-12-30T08:54:49Z</time>
</trkpt>
<trkpt lat="49.1360103" lon="2.6865325">
<ele>84.31</ele>
<time>2018-12-30T08:54:52Z</time>
</trkpt>
<trkpt lat="49.1360217" lon="2.6864508">
<ele>84.60</ele>
<time>2018-12-30T08:54:55Z</time>
</trkpt>
<trkpt lat="49.1360225" lon="2.6863615">
<ele>85.52</ele>
<time>2018-12-30T08:54:58Z</time>
</trkpt>
<trkpt lat="49.1360356" lon="2.6862873">
<ele>85.60</ele>
<time>2018-12-30T08:55:00Z</time>
</trkpt>
<trkpt lat="49.1360511" lon="2.6862086">
<ele>85.61</ele>
<time>2018-12-30T08:55:02Z</time>
</trkpt>
<trkpt lat="49.1360528" lon="2.6861229">
<ele>86.52</ele>
<time>2018-12-30T08:55:05Z</time>
</trkpt>
<trkpt lat="49.1360451" lon="2.6860258">
<ele>87.58</ele>
<time>2018-12-30T08:55:08Z</time>
</trkpt>
<trkpt lat="49.1360528" lon="2.6859279">
<ele>88.52</ele>
<time>2018-12-30T08:55:11Z</time>
</trkpt>
<trkpt lat="49.1360629" lon="2.6858344">
<ele>88.61</ele>
<time>2018-12-30T08:55:14Z</time>
</trkpt>
<trkpt lat="49.1360715" lon="2.6857533">
<ele>88.61</ele>
<time>2018-12-30T08:55:17Z</time>
</trkpt>
<trkpt lat="49.1360779" lon="2.6856697">
<ele>89.58</ele>
<time>2018-12-30T08:55:20Z</time>
</trkpt>
<trkpt lat="49.1360678" lon="2.6856014">
<ele>91.28</ele>
<time>2018-12-30T08:55:23Z</time>
</trkpt>
<trkpt lat="49.1360670" lon="2.6855266">
<ele>92.51</ele>
<time>2018-12-30T08:55:26Z</time>
</trkpt>
<trkpt lat="49.1360826" lon="2.6854348">
<ele>94.28</ele>
<time>2018-12-30T08:55:29Z</time>
</trkpt>
<trkpt lat="49.1361261" lon="2.6853572">
<ele>95.30</ele>
<time>2018-12-30T08:55:32Z</time>
</trkpt>
<trkpt lat="49.1361580" lon="2.6852959">
<ele>95.58</ele>
<time>2018-12-30T08:55:34Z</time>
</trkpt>
<trkpt lat="49.1362030" lon="2.6852316">
<ele>96.31</ele>
<time>2018-12-30T08:55:36Z</time>
</trkpt>
<trkpt lat="49.1362451" lon="2.6851514">
<ele>96.58</ele>
<time>2018-12-30T08:55:38Z</time>
</trkpt>
<trkpt lat="49.1362734" lon="2.6850739">
<ele>96.61</ele>
<time>2018-12-30T08:55:40Z</time>
</trkpt>
<trkpt lat="49.1362856" lon="2.6849956">
<ele>96.61</ele>
<time>2018-12-30T08:55:42Z</time>
</trkpt>
<trkpt lat="49.1362971" lon="2.6849188">
<ele>96.61</ele>
<time>2018-12-30T08:55:44Z</time>
</trkpt>
<trkpt lat="49.1362937" lon="2.6848450">
<ele>97.52</ele>
<time>2018-12-30T08:55:46Z</time>
</trkpt>
<trkpt lat="49.1362857" lon="2.6847755">
<ele>98.51</ele>
<time>2018-12-30T08:55:48Z</time>
</trkpt>
<trkpt lat="49.1363043" lon="2.6846810">
<ele>98.61</ele>
<time>2018-12-30T08:55:51Z</time>
</trkpt>
<trkpt lat="49.1363030" lon="2.6846019">
<ele>98.61</ele>
<time>2018-12-30T08:55:54Z</time>
</trkpt>
<trkpt lat="49.1362980" lon="2.6845192">
<ele>99.52</ele>
<time>2018-12-30T08:55:57Z</time>
</trkpt>
<trkpt lat="49.1362970" lon="2.6844338">
<ele>99.61</ele>
<time>2018-12-30T08:56:00Z</time>
</trkpt>
<trkpt lat="49.1362928" lon="2.6843498">
<ele>101.51</ele>
<time>2018-12-30T08:56:04Z</time>
</trkpt>
<trkpt lat="49.1362907" lon="2.6842734">
<ele>101.28</ele>
<time>2018-12-30T09:00:44Z</time>
</trkpt>
<trkpt lat="49.1362785" lon="2.6841875">
<ele>102.31</ele>
<time>2018-12-30T09:00:48Z</time>
</trkpt>
<trkpt lat="49.1362845" lon="2.6841163">
<ele>102.60</ele>
<time>2018-12-30T09:00:51Z</time>
</trkpt>
<trkpt lat="49.1362871" lon="2.6840475">
<ele>103.52</ele>
<time>2018-12-30T09:00:53Z</time>
</trkpt>
<trkpt lat="49.1362862" lon="2.6839727">
<ele>103.60</ele>
<time>2018-12-30T09:00:55Z</time>
</trkpt>
<trkpt lat="49.1363042" lon="2.6838965">
<ele>103.61</ele>
<time>2018-12-30T09:00:57Z</time>
</trkpt>
<trkpt lat="49.1363190" lon="2.6838266">
<ele>103.61</ele>
<time>2018-12-30T09:00:59Z</time>
</trkpt>
<trkpt lat="49.1363298" lon="2.6837509">
<ele>103.40</ele>
<time>2018-12-30T09:01:01Z</time>
</trkpt>
<trkpt lat="49.1363206" lon="2.6836670">
<ele>104.29</ele>
<time>2018-12-30T09:01:03Z</time>
</trkpt>
<trkpt lat="49.1363067" lon="2.6835839">
<ele>104.58</ele>
<time>2018-12-30T09:01:05Z</time>
</trkpt>
<trkpt lat="49.1362890" lon="2.6834738">
<ele>104.61</ele>
<time>2018-12-30T09:01:07Z</time>
</trkpt>
<trkpt lat="49.1362630" lon="2.6833504">
<ele>106.22</ele>
<time>2018-12-30T09:01:09Z</time>
</trkpt>
<trkpt lat="49.1362471" lon="2.6832624">
<ele>106.58</ele>
<time>2018-12-30T09:01:11Z</time>
</trkpt>
<trkpt lat="49.1362433" lon="2.6831887">
<ele>107.31</ele>
<time>2018-12-30T09:01:13Z</time>
</trkpt>
<trkpt lat="49.1362489" lon="2.6831179">
<ele>107.37</ele>
<time>2018-12-30T09:01:15Z</time>
</trkpt>
<trkpt lat="49.1362720" lon="2.6830499">
<ele>107.60</ele>
<time>2018-12-30T09:01:18Z</time>
</trkpt>
<trkpt lat="49.1363060" lon="2.6829989">
<ele>107.61</ele>
<time>2018-12-30T09:01:28Z</time>
</trkpt>
<trkpt lat="49.1363462" lon="2.6829434">
<ele>107.61</ele>
<time>2018-12-30T09:01:31Z</time>
</trkpt>
<trkpt lat="49.1364001" lon="2.6829030">
<ele>106.70</ele>
<time>2018-12-30T09:01:33Z</time>
</trkpt>
<trkpt lat="49.1364769" lon="2.6828860">
<ele>106.62</ele>
<time>2018-12-30T09:01:35Z</time>
</trkpt>
<trkpt lat="49.1365356" lon="2.6828900">
<ele>105.21</ele>
<time>2018-12-30T09:01:36Z</time>
</trkpt>
<trkpt lat="49.1365939" lon="2.6828930">
<ele>104.09</ele>
<time>2018-12-30T09:01:37Z</time>
</trkpt>
<trkpt lat="49.1366408" lon="2.6828933">
<ele>103.76</ele>
<time>2018-12-30T09:01:38Z</time>
</trkpt>
<trkpt lat="49.1367094" lon="2.6828675">
<ele>103.83</ele>
<time>2018-12-30T09:01:40Z</time>
</trkpt>
<trkpt lat="49.1367624" lon="2.6828232">
<ele>103.63</ele>
<time>2018-12-30T09:01:42Z</time>
</trkpt>
<trkpt lat="49.1367929" lon="2.6827725">
<ele>103.61</ele>
<time>2018-12-30T09:01:44Z</time>
</trkpt>
<trkpt lat="49.1368171" lon="2.6826761">
<ele>103.61</ele>
<time>2018-12-30T09:01:47Z</time>
</trkpt>
<trkpt lat="49.1368329" lon="2.6825899">
<ele>103.61</ele>
<time>2018-12-30T09:01:49Z</time>
</trkpt>
<trkpt lat="49.1368760" lon="2.6824989">
<ele>103.61</ele>
<time>2018-12-30T09:01:51Z</time>
</trkpt>
<trkpt lat="49.1369045" lon="2.6824266">
<ele>103.61</ele>
<time>2018-12-30T09:01:53Z</time>
</trkpt>
<trkpt lat="49.1369339" lon="2.6823445">
<ele>104.58</ele>
<time>2018-12-30T09:01:56Z</time>
</trkpt>
<trkpt lat="49.1369601" lon="2.6822712">
<ele>104.61</ele>
<time>2018-12-30T09:01:58Z</time>
</trkpt>
<trkpt lat="49.1369826" lon="2.6821695">
<ele>104.61</ele>
<time>2018-12-30T09:02:01Z</time>
</trkpt>
<trkpt lat="49.1369788" lon="2.6820926">
<ele>104.61</ele>
<time>2018-12-30T09:02:03Z</time>
</trkpt>
<trkpt lat="49.1369788" lon="2.6820145">
<ele>104.61</ele>
<time>2018-12-30T09:02:05Z</time>
</trkpt>
<trkpt lat="49.1369827" lon="2.6819279">
<ele>104.61</ele>
<time>2018-12-30T09:02:07Z</time>
</trkpt>
<trkpt lat="49.1369959" lon="2.6818374">
<ele>104.61</ele>
<time>2018-12-30T09:02:09Z</time>
</trkpt>
<trkpt lat="49.1370091" lon="2.6817461">
<ele>104.61</ele>
<time>2018-12-30T09:02:11Z</time>
</trkpt>
<trkpt lat="49.1370317" lon="2.6816557">
<ele>104.61</ele>
<time>2018-12-30T09:02:13Z</time>
</trkpt>
<trkpt lat="49.1370616" lon="2.6815805">
<ele>103.70</ele>
<time>2018-12-30T09:02:15Z</time>
</trkpt>
<trkpt lat="49.1370854" lon="2.6815157">
<ele>104.32</ele>
<time>2018-12-30T09:02:17Z</time>
</trkpt>
<trkpt lat="49.1371153" lon="2.6814425">
<ele>104.60</ele>
<time>2018-12-30T09:02:20Z</time>
</trkpt>
<trkpt lat="49.1371547" lon="2.6813593">
<ele>105.31</ele>
<time>2018-12-30T09:02:23Z</time>
</trkpt>
<trkpt lat="49.1371738" lon="2.6812782">
<ele>105.60</ele>
<time>2018-12-30T09:02:26Z</time>
</trkpt>
<trkpt lat="49.1371957" lon="2.6812094">
<ele>105.82</ele>
<time>2018-12-30T09:02:28Z</time>
</trkpt>
<trkpt lat="49.1372214" lon="2.6811287">
<ele>105.63</ele>
<time>2018-12-30T09:02:30Z</time>
</trkpt>
<trkpt lat="49.1372254" lon="2.6810330">
<ele>105.61</ele>
<time>2018-12-30T09:02:33Z</time>
</trkpt>
<trkpt lat="49.1372579" lon="2.6809445">
<ele>105.61</ele>
<time>2018-12-30T09:02:36Z</time>
</trkpt>
<trkpt lat="49.1372906" lon="2.6808922">
<ele>105.61</ele>
<time>2018-12-30T09:02:38Z</time>
</trkpt>
<trkpt lat="49.1373341" lon="2.6808585">
<ele>105.61</ele>
<time>2018-12-30T09:02:41Z</time>
</trkpt>
<trkpt lat="49.1373825" lon="2.6808820">
<ele>105.61</ele>
<time>2018-12-30T09:02:46Z</time>
</trkpt>
<trkpt lat="49.1373895" lon="2.6809518">
<ele>105.61</ele>
<time>2018-12-30T09:02:49Z</time>
</trkpt>
<trkpt lat="49.1374068" lon="2.6810226">
<ele>104.91</ele>
<time>2018-12-30T09:02:51Z</time>
</trkpt>
<trkpt lat="49.1374329" lon="2.6810891">
<ele>103.94</ele>
<time>2018-12-30T09:02:53Z</time>
</trkpt>
<trkpt lat="49.1374785" lon="2.6811438">
<ele>102.73</ele>
<time>2018-12-30T09:02:55Z</time>
</trkpt>
<trkpt lat="49.1375556" lon="2.6811977">
<ele>101.92</ele>
<time>2018-12-30T09:02:57Z</time>
</trkpt>
<trkpt lat="49.1376330" lon="2.6812111">
<ele>101.00</ele>
<time>2018-12-30T09:02:58Z</time>
</trkpt>
<trkpt lat="49.1377147" lon="2.6812200">
<ele>100.03</ele>
<time>2018-12-30T09:02:59Z</time>
</trkpt>
<trkpt lat="49.1377889" lon="2.6812247">
<ele>99.74</ele>
<time>2018-12-30T09:03:00Z</time>
</trkpt>
<trkpt lat="49.1378512" lon="2.6812275">
<ele>98.25</ele>
<time>2018-12-30T09:03:01Z</time>
</trkpt>
<trkpt lat="49.1379067" lon="2.6812266">
<ele>96.40</ele>
<time>2018-12-30T09:03:02Z</time>
</trkpt>
<trkpt lat="49.1379784" lon="2.6812064">
<ele>95.68</ele>
<time>2018-12-30T09:03:04Z</time>
</trkpt>
<trkpt lat="49.1380452" lon="2.6811469">
<ele>94.71</ele>
<time>2018-12-30T09:03:06Z</time>
</trkpt>
<trkpt lat="49.1380797" lon="2.6811006">
<ele>94.64</ele>
<time>2018-12-30T09:03:07Z</time>
</trkpt>
<trkpt lat="49.1381300" lon="2.6810532">
<ele>93.92</ele>
<time>2018-12-30T09:03:08Z</time>
</trkpt>
<trkpt lat="49.1381803" lon="2.6810257">
<ele>93.70</ele>
<time>2018-12-30T09:03:09Z</time>
</trkpt>
<trkpt lat="49.1382315" lon="2.6810052">
<ele>93.64</ele>
<time>2018-12-30T09:03:10Z</time>
</trkpt>
<trkpt lat="49.1382845" lon="2.6810068">
<ele>93.62</ele>
<time>2018-12-30T09:03:11Z</time>
</trkpt>
<trkpt lat="49.1383397" lon="2.6810165">
<ele>92.91</ele>
<time>2018-12-30T09:03:12Z</time>
</trkpt>
<trkpt lat="49.1383905" lon="2.6810395">
<ele>92.70</ele>
<time>2018-12-30T09:03:13Z</time>
</trkpt>
<trkpt lat="49.1384429" lon="2.6810712">
<ele>91.94</ele>
<time>2018-12-30T09:03:14Z</time>
</trkpt>
<trkpt lat="49.1384978" lon="2.6811182">
<ele>91.71</ele>
<time>2018-12-30T09:03:15Z</time>
</trkpt>
<trkpt lat="49.1385508" lon="2.6811713">
<ele>90.94</ele>
<time>2018-12-30T09:03:16Z</time>
</trkpt>
<trkpt lat="49.1385949" lon="2.6812438">
<ele>90.01</ele>
<time>2018-12-30T09:03:17Z</time>
</trkpt>
<trkpt lat="49.1386156" lon="2.6813246">
<ele>89.73</ele>
<time>2018-12-30T09:03:18Z</time>
</trkpt>
<trkpt lat="49.1386334" lon="2.6814101">
<ele>89.65</ele>
<time>2018-12-30T09:03:19Z</time>
</trkpt>
<trkpt lat="49.1386452" lon="2.6815074">
<ele>88.92</ele>
<time>2018-12-30T09:03:20Z</time>
</trkpt>
<trkpt lat="49.1386485" lon="2.6816127">
<ele>88.00</ele>
<time>2018-12-30T09:03:21Z</time>
</trkpt>
<trkpt lat="49.1386522" lon="2.6817097">
<ele>87.03</ele>
<time>2018-12-30T09:03:22Z</time>
</trkpt>
<trkpt lat="49.1386699" lon="2.6817839">
<ele>86.74</ele>
<time>2018-12-30T09:03:23Z</time>
</trkpt>
<trkpt lat="49.1387009" lon="2.6818423">
<ele>86.65</ele>
<time>2018-12-30T09:03:24Z</time>
</trkpt>
<trkpt lat="49.1387317" lon="2.6818984">
<ele>85.92</ele>
<time>2018-12-30T09:03:25Z</time>
</trkpt>
<trkpt lat="49.1387625" lon="2.6819607">
<ele>85.70</ele>
<time>2018-12-30T09:03:26Z</time>
</trkpt>
<trkpt lat="49.1387875" lon="2.6820363">
<ele>85.64</ele>
<time>2018-12-30T09:03:27Z</time>
</trkpt>
<trkpt lat="49.1388148" lon="2.6821074">
<ele>85.62</ele>
<time>2018-12-30T09:03:28Z</time>
</trkpt>
<trkpt lat="49.1388391" lon="2.6821829">
<ele>84.91</ele>
<time>2018-12-30T09:03:29Z</time>
</trkpt>
<trkpt lat="49.1388616" lon="2.6822640">
<ele>84.70</ele>
<time>2018-12-30T09:03:30Z</time>
</trkpt>
<trkpt lat="49.1388715" lon="2.6823398">
<ele>83.94</ele>
<time>2018-12-30T09:03:31Z</time>
</trkpt>
<trkpt lat="49.1388803" lon="2.6824093">
<ele>83.71</ele>
<time>2018-12-30T09:03:32Z</time>
</trkpt>
<trkpt lat="49.1388910" lon="2.6824769">
<ele>82.94</ele>
<time>2018-12-30T09:03:33Z</time>
</trkpt>
<trkpt lat="49.1389040" lon="2.6825454">
<ele>82.01</ele>
<time>2018-12-30T09:03:34Z</time>
</trkpt>
<trkpt lat="49.1389189" lon="2.6826585">
<ele>81.65</ele>
<time>2018-12-30T09:03:36Z</time>
</trkpt>
<trkpt lat="49.1389317" lon="2.6827367">
<ele>81.61</ele>
<time>2018-12-30T09:03:38Z</time>
</trkpt>
<trkpt lat="49.1389451" lon="2.6828253">
<ele>80.64</ele>
<time>2018-12-30T09:03:41Z</time>
</trkpt>
<trkpt lat="49.1389428" lon="2.6829102">
<ele>79.70</ele>
<time>2018-12-30T09:03:43Z</time>
</trkpt>
<trkpt lat="49.1389607" lon="2.6830014">
<ele>79.61</ele>
<time>2018-12-30T09:03:46Z</time>
</trkpt>
<trkpt lat="49.1389667" lon="2.6830959">
<ele>78.70</ele>
<time>2018-12-30T09:03:49Z</time>
</trkpt>
<trkpt lat="49.1389685" lon="2.6831850">
<ele>78.62</ele>
<time>2018-12-30T09:03:51Z</time>
</trkpt>
<trkpt lat="49.1389796" lon="2.6832767">
<ele>77.64</ele>
<time>2018-12-30T09:03:54Z</time>
</trkpt>
<trkpt lat="49.1389887" lon="2.6833547">
<ele>77.61</ele>
<time>2018-12-30T09:03:57Z</time>
</trkpt>
<trkpt lat="49.1389949" lon="2.6834359">
<ele>77.61</ele>
<time>2018-12-30T09:04:00Z</time>
</trkpt>
<trkpt lat="49.1389937" lon="2.6835142">
<ele>76.70</ele>
<time>2018-12-30T09:04:02Z</time>
</trkpt>
<trkpt lat="49.1390004" lon="2.6836140">
<ele>75.92</ele>
<time>2018-12-30T09:04:04Z</time>
</trkpt>
<trkpt lat="49.1390093" lon="2.6837083">
<ele>75.64</ele>
<time>2018-12-30T09:04:06Z</time>
</trkpt>
<trkpt lat="49.1390168" lon="2.6837937">
<ele>75.61</ele>
<time>2018-12-30T09:04:08Z</time>
</trkpt>
<trkpt lat="49.1390204" lon="2.6838735">
<ele>76.52</ele>
<time>2018-12-30T09:04:10Z</time>
</trkpt>
<trkpt lat="49.1390309" lon="2.6839653">
<ele>76.60</ele>
<time>2018-12-30T09:04:12Z</time>
</trkpt>
<trkpt lat="49.1390533" lon="2.6840760">
<ele>76.61</ele>
<time>2018-12-30T09:04:14Z</time>
</trkpt>
<trkpt lat="49.1390638" lon="2.6841838">
<ele>75.70</ele>
<time>2018-12-30T09:04:16Z</time>
</trkpt>
<trkpt lat="49.1390674" lon="2.6842840">
<ele>75.62</ele>
<time>2018-12-30T09:04:18Z</time>
</trkpt>
<trkpt lat="49.1390781" lon="2.6843663">
<ele>75.61</ele>
<time>2018-12-30T09:04:20Z</time>
</trkpt>
<trkpt lat="49.1390976" lon="2.6844358">
<ele>74.91</ele>
<time>2018-12-30T09:04:23Z</time>
</trkpt>
<trkpt lat="49.1390684" lon="2.6843815">
<ele>76.52</ele>
<time>2018-12-30T09:04:40Z</time>
</trkpt>
<trkpt lat="49.1390737" lon="2.6842926">
<ele>75.64</ele>
<time>2018-12-30T09:04:43Z</time>
</trkpt>
<trkpt lat="49.1391082" lon="2.6842387">
<ele>75.61</ele>
<time>2018-12-30T09:04:45Z</time>
</trkpt>
<trkpt lat="49.1391449" lon="2.6841798">
<ele>75.61</ele>
<time>2018-12-30T09:04:47Z</time>
</trkpt>
<trkpt lat="49.1391847" lon="2.6841125">
<ele>74.91</ele>
<time>2018-12-30T09:04:49Z</time>
</trkpt>
<trkpt lat="49.1392295" lon="2.6840426">
<ele>74.64</ele>
<time>2018-12-30T09:04:51Z</time>
</trkpt>
<trkpt lat="49.1392684" lon="2.6839696">
<ele>74.61</ele>
<time>2018-12-30T09:04:53Z</time>
</trkpt>
<trkpt lat="49.1393035" lon="2.6838844">
<ele>74.61</ele>
<time>2018-12-30T09:04:55Z</time>
</trkpt>
<trkpt lat="49.1393245" lon="2.6838033">
<ele>75.52</ele>
<time>2018-12-30T09:04:57Z</time>
</trkpt>
<trkpt lat="49.1393230" lon="2.6837152">
<ele>76.51</ele>
<time>2018-12-30T09:04:59Z</time>
</trkpt>
<trkpt lat="49.1393198" lon="2.6836427">
<ele>76.60</ele>
<time>2018-12-30T09:05:01Z</time>
</trkpt>
<trkpt lat="49.1393265" lon="2.6835655">
<ele>76.61</ele>
<time>2018-12-30T09:05:03Z</time>
</trkpt>
<trkpt lat="49.1393451" lon="2.6834717">
<ele>76.61</ele>
<time>2018-12-30T09:05:05Z</time>
</trkpt>
<trkpt lat="49.1393513" lon="2.6833704">
<ele>76.61</ele>
<time>2018-12-30T09:05:08Z</time>
</trkpt>
<trkpt lat="49.1393619" lon="2.6832697">
<ele>77.52</ele>
<time>2018-12-30T09:05:11Z</time>
</trkpt>
<trkpt lat="49.1393884" lon="2.6832034">
<ele>77.60</ele>
<time>2018-12-30T09:05:13Z</time>
</trkpt>
<trkpt lat="49.1394136" lon="2.6831404">
<ele>77.61</ele>
<time>2018-12-30T09:05:15Z</time>
</trkpt>
<trkpt lat="49.1394276" lon="2.6830416">
<ele>78.58</ele>
<time>2018-12-30T09:05:18Z</time>
</trkpt>
<trkpt lat="49.1394454" lon="2.6829651">
<ele>78.61</ele>
<time>2018-12-30T09:05:20Z</time>
</trkpt>
<trkpt lat="49.1394797" lon="2.6828862">
<ele>77.70</ele>
<time>2018-12-30T09:05:22Z</time>
</trkpt>
<trkpt lat="49.1395108" lon="2.6828273">
<ele>77.62</ele>
<time>2018-12-30T09:05:24Z</time>
</trkpt>
<trkpt lat="49.1395391" lon="2.6827719">
<ele>78.52</ele>
<time>2018-12-30T09:05:26Z</time>
</trkpt>
<trkpt lat="49.1395793" lon="2.6827241">
<ele>78.60</ele>
<time>2018-12-30T09:05:28Z</time>
</trkpt>
<trkpt lat="49.1396268" lon="2.6826770">
<ele>78.61</ele>
<time>2018-12-30T09:05:30Z</time>
</trkpt>
<trkpt lat="49.1396602" lon="2.6826301">
<ele>79.31</ele>
<time>2018-12-30T09:05:32Z</time>
</trkpt>
<trkpt lat="49.1396709" lon="2.6825482">
<ele>80.30</ele>
<time>2018-12-30T09:05:35Z</time>
</trkpt>
<trkpt lat="49.1397184" lon="2.6824921">
<ele>81.51</ele>
<time>2018-12-30T09:05:38Z</time>
</trkpt>
<trkpt lat="49.1397758" lon="2.6824818">
<ele>82.31</ele>
<time>2018-12-30T09:05:41Z</time>
</trkpt>
<trkpt lat="49.1398101" lon="2.6824253">
<ele>82.60</ele>
<time>2018-12-30T09:05:44Z</time>
</trkpt>
<trkpt lat="49.1398091" lon="2.6823518">
<ele>82.61</ele>
<time>2018-12-30T09:05:47Z</time>
</trkpt>
<trkpt lat="49.1397768" lon="2.6822909">
<ele>83.31</ele>
<time>2018-12-30T09:05:50Z</time>
</trkpt>
<trkpt lat="49.1397356" lon="2.6822292">
<ele>84.30</ele>
<time>2018-12-30T09:05:53Z</time>
</trkpt>
<trkpt lat="49.1396915" lon="2.6821772">
<ele>84.60</ele>
<time>2018-12-30T09:05:56Z</time>
</trkpt>
<trkpt lat="49.1396549" lon="2.6821052">
<ele>85.52</ele>
<time>2018-12-30T09:05:59Z</time>
</trkpt>
<trkpt lat="49.1396076" lon="2.6820241">
<ele>86.31</ele>
<time>2018-12-30T09:06:02Z</time>
</trkpt>
<trkpt lat="49.1395683" lon="2.6819658">
<ele>86.58</ele>
<time>2018-12-30T09:06:04Z</time>
</trkpt>
<trkpt lat="49.1395223" lon="2.6818996">
<ele>87.52</ele>
<time>2018-12-30T09:06:06Z</time>
</trkpt>
<trkpt lat="49.1394772" lon="2.6818074">
<ele>87.60</ele>
<time>2018-12-30T09:06:08Z</time>
</trkpt>
<trkpt lat="49.1394214" lon="2.6817135">
<ele>87.61</ele>
<time>2018-12-30T09:06:10Z</time>
</trkpt>
<trkpt lat="49.1393632" lon="2.6816335">
<ele>87.61</ele>
<time>2018-12-30T09:06:12Z</time>
</trkpt>
<trkpt lat="49.1393345" lon="2.6815276">
<ele>87.61</ele>
<time>2018-12-30T09:06:14Z</time>
</trkpt>
<trkpt lat="49.1393178" lon="2.6814468">
<ele>87.61</ele>
<time>2018-12-30T09:06:16Z</time>
</trkpt>
<trkpt lat="49.1392981" lon="2.6813813">
<ele>87.61</ele>
<time>2018-12-30T09:06:18Z</time>
</trkpt>
<trkpt lat="49.1392841" lon="2.6812865">
<ele>90.19</ele>
<time>2018-12-30T09:06:21Z</time>
</trkpt>
<trkpt lat="49.1392852" lon="2.6811987">
<ele>91.57</ele>
<time>2018-12-30T09:06:24Z</time>
</trkpt>
<trkpt lat="49.1393116" lon="2.6811430">
<ele>92.52</ele>
<time>2018-12-30T09:06:26Z</time>
</trkpt>
<trkpt lat="49.1393237" lon="2.6810717">
<ele>93.58</ele>
<time>2018-12-30T09:06:30Z</time>
</trkpt>
<trkpt lat="49.1393512" lon="2.6810157">
<ele>97.22</ele>
<time>2018-12-30T09:06:44Z</time>
</trkpt>
<trkpt lat="49.1394019" lon="2.6810276">
<ele>98.70</ele>
<time>2018-12-30T09:07:47Z</time>
</trkpt>
<trkpt lat="49.1394375" lon="2.6810907">
<ele>99.52</ele>
<time>2018-12-30T09:07:51Z</time>
</trkpt>
<trkpt lat="49.1394586" lon="2.6811707">
<ele>98.64</ele>
<time>2018-12-30T09:07:54Z</time>
</trkpt>
<trkpt lat="49.1395051" lon="2.6812128">
<ele>98.61</ele>
<time>2018-12-30T09:07:58Z</time>
</trkpt>
<trkpt lat="49.1395434" lon="2.6812728">
<ele>98.61</ele>
<time>2018-12-30T09:08:01Z</time>
</trkpt>
<trkpt lat="49.1395706" lon="2.6813306">
<ele>97.91</ele>
<time>2018-12-30T09:08:03Z</time>
</trkpt>
<trkpt lat="49.1396046" lon="2.6813933">
<ele>97.64</ele>
<time>2018-12-30T09:08:05Z</time>
</trkpt>
<trkpt lat="49.1396450" lon="2.6814339">
<ele>98.31</ele>
<time>2018-12-30T09:08:07Z</time>
</trkpt>
<trkpt lat="49.1396863" lon="2.6814822">
<ele>98.58</ele>
<time>2018-12-30T09:08:09Z</time>
</trkpt>
<trkpt lat="49.1397440" lon="2.6815138">
<ele>98.61</ele>
<time>2018-12-30T09:08:12Z</time>
</trkpt>
<trkpt lat="49.1397885" lon="2.6815238">
<ele>99.52</ele>
<time>2018-12-30T09:08:15Z</time>
</trkpt>
<trkpt lat="49.1398317" lon="2.6815539">
<ele>99.82</ele>
<time>2018-12-30T09:08:18Z</time>
</trkpt>
<trkpt lat="49.1398680" lon="2.6816095">
<ele>99.62</ele>
<time>2018-12-30T09:08:21Z</time>
</trkpt>
<trkpt lat="49.1398470" lon="2.6816815">
<ele>99.61</ele>
<time>2018-12-30T09:08:25Z</time>
</trkpt>
<trkpt lat="49.1397980" lon="2.6816943">
<ele>99.61</ele>
<time>2018-12-30T09:08:28Z</time>
</trkpt>
<trkpt lat="49.1397667" lon="2.6816412">
<ele>98.85</ele>
<time>2018-12-30T09:08:31Z</time>
</trkpt>
<trkpt lat="49.1397965" lon="2.6815737">
<ele>97.61</ele>
<time>2018-12-30T09:08:39Z</time>
</trkpt>
<trkpt lat="49.1398358" lon="2.6815319">
<ele>96.21</ele>
<time>2018-12-30T09:08:45Z</time>
</trkpt>
<trkpt lat="49.1398813" lon="2.6815538">
<ele>96.61</ele>
<time>2018-12-30T09:08:49Z</time>
</trkpt>
<trkpt lat="49.1399301" lon="2.6816180">
<ele>97.31</ele>
<time>2018-12-30T09:08:52Z</time>
</trkpt>
<trkpt lat="49.1399859" lon="2.6816364">
<ele>97.60</ele>
<time>2018-12-30T09:08:55Z</time>
</trkpt>
<trkpt lat="49.1400480" lon="2.6816434">
<ele>97.61</ele>
<time>2018-12-30T09:08:58Z</time>
</trkpt>
<trkpt lat="49.1401019" lon="2.6816302">
<ele>97.61</ele>
<time>2018-12-30T09:09:01Z</time>
</trkpt>
<trkpt lat="49.1401166" lon="2.6815491">
<ele>99.28</ele>
<time>2018-12-30T09:09:04Z</time>
</trkpt>
<trkpt lat="49.1401628" lon="2.6814872">
<ele>100.51</ele>
<time>2018-12-30T09:09:07Z</time>
</trkpt>
<trkpt lat="49.1401874" lon="2.6814211">
<ele>100.53</ele>
<time>2018-12-30T09:09:12Z</time>
</trkpt>
<trkpt lat="49.1401918" lon="2.6813450">
<ele>100.61</ele>
<time>2018-12-30T09:09:15Z</time>
</trkpt>
<trkpt lat="49.1402145" lon="2.6812795">
<ele>100.61</ele>
<time>2018-12-30T09:09:18Z</time>
</trkpt>
<trkpt lat="49.1402500" lon="2.6812306">
<ele>101.52</ele>
<time>2018-12-30T09:09:21Z</time>
</trkpt>
<trkpt lat="49.1402943" lon="2.6811857">
<ele>101.61</ele>
<time>2018-12-30T09:09:24Z</time>
</trkpt>
<trkpt lat="49.1403501" lon="2.6811396">
<ele>100.70</ele>
<time>2018-12-30T09:09:27Z</time>
</trkpt>
<trkpt lat="49.1403860" lon="2.6810844">
<ele>100.62</ele>
<time>2018-12-30T09:09:29Z</time>
</trkpt>
<trkpt lat="49.1404282" lon="2.6810142">
<ele>99.91</ele>
<time>2018-12-30T09:09:31Z</time>
</trkpt>
<trkpt lat="49.1404570" lon="2.6809389">
<ele>100.55</ele>
<time>2018-12-30T09:09:33Z</time>
</trkpt>
<trkpt lat="49.1404691" lon="2.6808522">
<ele>100.61</ele>
<time>2018-12-30T09:09:35Z</time>
</trkpt>
<trkpt lat="49.1404814" lon="2.6807770">
<ele>100.61</ele>
<time>2018-12-30T09:09:37Z</time>
</trkpt>
<trkpt lat="49.1404957" lon="2.6806990">
<ele>100.61</ele>
<time>2018-12-30T09:09:39Z</time>
</trkpt>
<trkpt lat="49.1405033" lon="2.6806299">
<ele>100.61</ele>
<time>2018-12-30T09:09:41Z</time>
</trkpt>
<trkpt lat="49.1405041" lon="2.6805526">
<ele>101.52</ele>
<time>2018-12-30T09:09:43Z</time>
</trkpt>
<trkpt lat="49.1404905" lon="2.6804813">
<ele>101.60</ele>
<time>2018-12-30T09:09:45Z</time>
</trkpt>
<trkpt lat="49.1404713" lon="2.6804049">
<ele>101.61</ele>
<time>2018-12-30T09:09:47Z</time>
</trkpt>
<trkpt lat="49.1404726" lon="2.6803224">
<ele>101.61</ele>
<time>2018-12-30T09:09:49Z</time>
</trkpt>
<trkpt lat="49.1404828" lon="2.6802324">
<ele>101.61</ele>
<time>2018-12-30T09:09:51Z</time>
</trkpt>
<trkpt lat="49.1405046" lon="2.6801472">
<ele>101.61</ele>
<time>2018-12-30T09:09:53Z</time>
</trkpt>
<trkpt lat="49.1405320" lon="2.6800710">
<ele>100.70</ele>
<time>2018-12-30T09:09:55Z</time>
</trkpt>
<trkpt lat="49.1405574" lon="2.6799835">
<ele>100.62</ele>
<time>2018-12-30T09:09:57Z</time>
</trkpt>
<trkpt lat="49.1405867" lon="2.6798917">
<ele>100.82</ele>
<time>2018-12-30T09:09:59Z</time>
</trkpt>
<trkpt lat="49.1406061" lon="2.6798088">
<ele>100.63</ele>
<time>2018-12-30T09:10:01Z</time>
</trkpt>
<trkpt lat="49.1406217" lon="2.6797173">
<ele>100.61</ele>
<time>2018-12-30T09:10:03Z</time>
</trkpt>
<trkpt lat="49.1405991" lon="2.6796014">
<ele>99.91</ele>
<time>2018-12-30T09:10:05Z</time>
</trkpt>
<trkpt lat="49.1405888" lon="2.6795183">
<ele>101.10</ele>
<time>2018-12-30T09:10:06Z</time>
</trkpt>
<trkpt lat="49.1405856" lon="2.6794442">
<ele>102.16</ele>
<time>2018-12-30T09:10:07Z</time>
</trkpt>
<trkpt lat="49.1405960" lon="2.6793717">
<ele>102.48</ele>
<time>2018-12-30T09:10:08Z</time>
</trkpt>
<trkpt lat="49.1405934" lon="2.6792398">
<ele>102.60</ele>
<time>2018-12-30T09:10:10Z</time>
</trkpt>
<trkpt lat="49.1405449" lon="2.6791431">
<ele>103.31</ele>
<time>2018-12-30T09:10:12Z</time>
</trkpt>
<trkpt lat="49.1405079" lon="2.6790523">
<ele>103.58</ele>
<time>2018-12-30T09:10:14Z</time>
</trkpt>
<trkpt lat="49.1404954" lon="2.6789696">
<ele>103.61</ele>
<time>2018-12-30T09:10:16Z</time>
</trkpt>
<trkpt lat="49.1404887" lon="2.6789008">
<ele>103.82</ele>
<time>2018-12-30T09:10:18Z</time>
</trkpt>
<trkpt lat="49.1404835" lon="2.6788288">
<ele>103.63</ele>
<time>2018-12-30T09:10:20Z</time>
</trkpt>
<trkpt lat="49.1404446" lon="2.6787879">
<ele>103.61</ele>
<time>2018-12-30T09:10:22Z</time>
</trkpt>
<trkpt lat="49.1404032" lon="2.6787202">
<ele>103.61</ele>
<time>2018-12-30T09:10:25Z</time>
</trkpt>
<trkpt lat="49.1403984" lon="2.6786201">
<ele>103.61</ele>
<time>2018-12-30T09:10:28Z</time>
</trkpt>
<trkpt lat="49.1403692" lon="2.6785299">
<ele>103.61</ele>
<time>2018-12-30T09:10:30Z</time>
</trkpt>
<trkpt lat="49.1403364" lon="2.6784454">
<ele>103.61</ele>
<time>2018-12-30T09:10:32Z</time>
</trkpt>
<trkpt lat="49.1403409" lon="2.6783616">
<ele>102.70</ele>
<time>2018-12-30T09:10:34Z</time>
</trkpt>
<trkpt lat="49.1403386" lon="2.6782882">
<ele>101.92</ele>
<time>2018-12-30T09:10:36Z</time>
</trkpt>
<trkpt lat="49.1403396" lon="2.6782084">
<ele>101.62</ele>
<time>2018-12-30T09:10:39Z</time>
</trkpt>
<trkpt lat="49.1403396" lon="2.6781070">
<ele>101.61</ele>
<time>2018-12-30T09:10:41Z</time>
</trkpt>
<trkpt lat="49.1403228" lon="2.6780430">
<ele>100.91</ele>
<time>2018-12-30T09:10:42Z</time>
</trkpt>
<trkpt lat="49.1403132" lon="2.6779283">
<ele>100.64</ele>
<time>2018-12-30T09:10:44Z</time>
</trkpt>
<trkpt lat="49.1403472" lon="2.6778259">
<ele>99.70</ele>
<time>2018-12-30T09:10:46Z</time>
</trkpt>
<trkpt lat="49.1403951" lon="2.6777542">
<ele>99.62</ele>
<time>2018-12-30T09:10:48Z</time>
</trkpt>
<trkpt lat="49.1404334" lon="2.6777073">
<ele>100.52</ele>
<time>2018-12-30T09:10:50Z</time>
</trkpt>
<trkpt lat="49.1404714" lon="2.6776587">
<ele>100.61</ele>
<time>2018-12-30T09:10:53Z</time>
</trkpt>
<trkpt lat="49.1405183" lon="2.6775943">
<ele>100.61</ele>
<time>2018-12-30T09:10:56Z</time>
</trkpt>
<trkpt lat="49.1405530" lon="2.6775067">
<ele>100.61</ele>
<time>2018-12-30T09:10:59Z</time>
</trkpt>
<trkpt lat="49.1405820" lon="2.6774317">
<ele>100.61</ele>
<time>2018-12-30T09:11:01Z</time>
</trkpt>
<trkpt lat="49.1406089" lon="2.6773756">
<ele>101.31</ele>
<time>2018-12-30T09:11:03Z</time>
</trkpt>
<trkpt lat="49.1406373" lon="2.6773151">
<ele>102.52</ele>
<time>2018-12-30T09:11:37Z</time>
</trkpt>
<trkpt lat="49.1406924" lon="2.6773466">
<ele>102.61</ele>
<time>2018-12-30T09:11:40Z</time>
</trkpt>
<trkpt lat="49.1407232" lon="2.6774081">
<ele>102.61</ele>
<time>2018-12-30T09:11:42Z</time>
</trkpt>
<trkpt lat="49.1407370" lon="2.6774988">
<ele>101.91</ele>
<time>2018-12-30T09:11:45Z</time>
</trkpt>
<trkpt lat="49.1407612" lon="2.6775759">
<ele>101.62</ele>
<time>2018-12-30T09:11:48Z</time>
</trkpt>
<trkpt lat="49.1407820" lon="2.6776472">
<ele>100.70</ele>
<time>2018-12-30T09:11:50Z</time>
</trkpt>
<trkpt lat="49.1407866" lon="2.6777335">
<ele>99.71</ele>
<time>2018-12-30T09:11:52Z</time>
</trkpt>
<trkpt lat="49.1407643" lon="2.6778452">
<ele>98.01</ele>
<time>2018-12-30T09:11:54Z</time>
</trkpt>
<trkpt lat="49.1407432" lon="2.6780135">
<ele>96.74</ele>
<time>2018-12-30T09:11:56Z</time>
</trkpt>
<trkpt lat="49.1407322" lon="2.6781100">
<ele>96.65</ele>
<time>2018-12-30T09:11:57Z</time>
</trkpt>
<trkpt lat="49.1407262" lon="2.6782088">
<ele>96.62</ele>
<time>2018-12-30T09:11:58Z</time>
</trkpt>
<trkpt lat="49.1407305" lon="2.6783057">
<ele>96.61</ele>
<time>2018-12-30T09:11:59Z</time>
</trkpt>
<trkpt lat="49.1407502" lon="2.6783927">
<ele>95.91</ele>
<time>2018-12-30T09:12:00Z</time>
</trkpt>
<trkpt lat="49.1407740" lon="2.6784906">
<ele>95.64</ele>
<time>2018-12-30T09:12:02Z</time>
</trkpt>
<trkpt lat="49.1407904" lon="2.6785869">
<ele>94.91</ele>
<time>2018-12-30T09:12:05Z</time>
</trkpt>
<trkpt lat="49.1407910" lon="2.6786735">
<ele>95.53</ele>
<time>2018-12-30T09:12:08Z</time>
</trkpt>
<trkpt lat="49.1407946" lon="2.6787521">
<ele>94.61</ele>
<time>2018-12-30T09:12:35Z</time>
</trkpt>
<trkpt lat="49.1408029" lon="2.6788223">
<ele>94.62</ele>
<time>2018-12-30T09:12:42Z</time>
</trkpt>
<trkpt lat="49.1408553" lon="2.6788497">
<ele>94.70</ele>
<time>2018-12-30T09:13:28Z</time>
</trkpt>
<trkpt lat="49.1408398" lon="2.6789309">
<ele>96.58</ele>
<time>2018-12-30T09:13:33Z</time>
</trkpt>
<trkpt lat="49.1408136" lon="2.6790180">
<ele>96.61</ele>
<time>2018-12-30T09:13:36Z</time>
</trkpt>
<trkpt lat="49.1408019" lon="2.6790983">
<ele>96.82</ele>
<time>2018-12-30T09:13:38Z</time>
</trkpt>
<trkpt lat="49.1407831" lon="2.6791700">
<ele>96.84</ele>
<time>2018-12-30T09:13:40Z</time>
</trkpt>
<trkpt lat="49.1407659" lon="2.6792510">
<ele>97.54</ele>
<time>2018-12-30T09:13:42Z</time>
</trkpt>
<trkpt lat="49.1407537" lon="2.6793496">
<ele>96.90</ele>
<time>2018-12-30T09:13:44Z</time>
</trkpt>
<trkpt lat="49.1407454" lon="2.6794222">
<ele>96.70</ele>
<time>2018-12-30T09:13:45Z</time>
</trkpt>
<trkpt lat="49.1407417" lon="2.6795297">
<ele>95.94</ele>
<time>2018-12-30T09:13:46Z</time>
</trkpt>
<trkpt lat="49.1407447" lon="2.6796271">
<ele>96.41</ele>
<time>2018-12-30T09:13:47Z</time>
</trkpt>
<trkpt lat="49.1407526" lon="2.6796963">
<ele>96.55</ele>
<time>2018-12-30T09:13:48Z</time>
</trkpt>
<trkpt lat="49.1407571" lon="2.6797830">
<ele>97.52</ele>
<time>2018-12-30T09:13:50Z</time>
</trkpt>
<trkpt lat="49.1407592" lon="2.6798612">
<ele>98.51</ele>
<time>2018-12-30T09:13:52Z</time>
</trkpt>
<trkpt lat="49.1407695" lon="2.6799425">
<ele>98.60</ele>
<time>2018-12-30T09:13:54Z</time>
</trkpt>
<trkpt lat="49.1407692" lon="2.6800208">
<ele>98.61</ele>
<time>2018-12-30T09:13:56Z</time>
</trkpt>
<trkpt lat="49.1407730" lon="2.6801150">
<ele>98.40</ele>
<time>2018-12-30T09:13:59Z</time>
</trkpt>
<trkpt lat="49.1407976" lon="2.6801955">
<ele>98.61</ele>
<time>2018-12-30T09:14:02Z</time>
</trkpt>
<trkpt lat="49.1408297" lon="2.6802508">
<ele>98.61</ele>
<time>2018-12-30T09:14:11Z</time>
</trkpt>
<trkpt lat="49.1408463" lon="2.6803387">
<ele>98.61</ele>
<time>2018-12-30T09:14:14Z</time>
</trkpt>
<trkpt lat="49.1408690" lon="2.6804916">
<ele>97.91</ele>
<time>2018-12-30T09:14:16Z</time>
</trkpt>
<trkpt lat="49.1409240" lon="2.6805966">
<ele>97.70</ele>
<time>2018-12-30T09:14:18Z</time>
</trkpt>
<trkpt lat="49.1409771" lon="2.6806708">
<ele>97.62</ele>
<time>2018-12-30T09:14:20Z</time>
</trkpt>
<trkpt lat="49.1410181" lon="2.6807341">
<ele>98.31</ele>
<time>2018-12-30T09:14:23Z</time>
</trkpt>
<trkpt lat="49.1410031" lon="2.6808304">
<ele>98.60</ele>
<time>2018-12-30T09:14:26Z</time>
</trkpt>
<trkpt lat="49.1409968" lon="2.6809075">
<ele>97.91</ele>
<time>2018-12-30T09:14:28Z</time>
</trkpt>
<trkpt lat="49.1409777" lon="2.6810045">
<ele>97.64</ele>
<time>2018-12-30T09:14:30Z</time>
</trkpt>
<trkpt lat="49.1409765" lon="2.6810949">
<ele>97.61</ele>
<time>2018-12-30T09:14:32Z</time>
</trkpt>
<trkpt lat="49.1410065" lon="2.6811516">
<ele>97.61</ele>
<time>2018-12-30T09:14:34Z</time>
</trkpt>
<trkpt lat="49.1410235" lon="2.6812231">
<ele>97.61</ele>
<time>2018-12-30T09:14:36Z</time>
</trkpt>
<trkpt lat="49.1410394" lon="2.6813028">
<ele>97.61</ele>
<time>2018-12-30T09:14:38Z</time>
</trkpt>
<trkpt lat="49.1410662" lon="2.6813891">
<ele>96.91</ele>
<time>2018-12-30T09:14:40Z</time>
</trkpt>
<trkpt lat="49.1410724" lon="2.6814779">
<ele>96.64</ele>
<time>2018-12-30T09:14:42Z</time>
</trkpt>
<trkpt lat="49.1410373" lon="2.6815701">
<ele>96.61</ele>
<time>2018-12-30T09:14:44Z</time>
</trkpt>
<trkpt lat="49.1409902" lon="2.6816525">
<ele>96.61</ele>
<time>2018-12-30T09:14:46Z</time>
</trkpt>
<trkpt lat="49.1409550" lon="2.6817133">
<ele>96.61</ele>
<time>2018-12-30T09:14:48Z</time>
</trkpt>
<trkpt lat="49.1409112" lon="2.6817495">
<ele>96.61</ele>
<time>2018-12-30T09:14:50Z</time>
</trkpt>
<trkpt lat="49.1408664" lon="2.6817805">
<ele>96.61</ele>
<time>2018-12-30T09:14:52Z</time>
</trkpt>
<trkpt lat="49.1408125" lon="2.6817716">
<ele>97.31</ele>
<time>2018-12-30T09:14:55Z</time>
</trkpt>
<trkpt lat="49.1407912" lon="2.6818467">
<ele>97.61</ele>
<time>2018-12-30T09:14:59Z</time>
</trkpt>
<trkpt lat="49.1408376" lon="2.6819027">
<ele>98.61</ele>
<time>2018-12-30T09:15:13Z</time>
</trkpt>
<trkpt lat="49.1408498" lon="2.6819793">
<ele>97.70</ele>
<time>2018-12-30T09:15:15Z</time>
</trkpt>
<trkpt lat="49.1408549" lon="2.6820603">
<ele>97.62</ele>
<time>2018-12-30T09:15:17Z</time>
</trkpt>
<trkpt lat="49.1408708" lon="2.6821472">
<ele>97.61</ele>
<time>2018-12-30T09:15:20Z</time>
</trkpt>
<trkpt lat="49.1409105" lon="2.6821799">
<ele>97.61</ele>
<time>2018-12-30T09:15:24Z</time>
</trkpt>
<trkpt lat="49.1409431" lon="2.6821193">
<ele>97.61</ele>
<time>2018-12-30T09:15:34Z</time>
</trkpt>
<trkpt lat="49.1410032" lon="2.6820415">
<ele>96.00</ele>
<time>2018-12-30T09:15:36Z</time>
</trkpt>
<trkpt lat="49.1410725" lon="2.6819317">
<ele>95.65</ele>
<time>2018-12-30T09:15:38Z</time>
</trkpt>
<trkpt lat="49.1411093" lon="2.6818418">
<ele>95.61</ele>
<time>2018-12-30T09:15:40Z</time>
</trkpt>
<trkpt lat="49.1411554" lon="2.6818706">
<ele>94.62</ele>
<time>2018-12-30T09:15:44Z</time>
</trkpt>
<trkpt lat="49.1411972" lon="2.6819436">
<ele>93.70</ele>
<time>2018-12-30T09:15:46Z</time>
</trkpt>
<trkpt lat="49.1412485" lon="2.6820024">
<ele>92.92</ele>
<time>2018-12-30T09:15:48Z</time>
</trkpt>
<trkpt lat="49.1413285" lon="2.6820657">
<ele>92.64</ele>
<time>2018-12-30T09:15:50Z</time>
</trkpt>
<trkpt lat="49.1414012" lon="2.6821110">
<ele>92.61</ele>
<time>2018-12-30T09:15:52Z</time>
</trkpt>
<trkpt lat="49.1414428" lon="2.6821518">
<ele>92.61</ele>
<time>2018-12-30T09:15:53Z</time>
</trkpt>
<trkpt lat="49.1414932" lon="2.6821983">
<ele>92.61</ele>
<time>2018-12-30T09:15:55Z</time>
</trkpt>
<trkpt lat="49.1415051" lon="2.6822943">
<ele>90.92</ele>
<time>2018-12-30T09:16:07Z</time>
</trkpt>
<trkpt lat="49.1415154" lon="2.6823958">
<ele>90.64</ele>
<time>2018-12-30T09:16:09Z</time>
</trkpt>
<trkpt lat="49.1415535" lon="2.6825351">
<ele>89.00</ele>
<time>2018-12-30T09:16:11Z</time>
</trkpt>
<trkpt lat="49.1415751" lon="2.6825968">
<ele>87.33</ele>
<time>2018-12-30T09:16:12Z</time>
</trkpt>
<trkpt lat="49.1416030" lon="2.6826828">
<ele>86.68</ele>
<time>2018-12-30T09:16:14Z</time>
</trkpt>
<trkpt lat="49.1416367" lon="2.6827665">
<ele>86.62</ele>
<time>2018-12-30T09:16:16Z</time>
</trkpt>
<trkpt lat="49.1416797" lon="2.6828550">
<ele>85.91</ele>
<time>2018-12-30T09:16:18Z</time>
</trkpt>
<trkpt lat="49.1416767" lon="2.6829626">
<ele>84.71</ele>
<time>2018-12-30T09:16:21Z</time>
</trkpt>
<trkpt lat="49.1416537" lon="2.6830667">
<ele>83.92</ele>
<time>2018-12-30T09:16:23Z</time>
</trkpt>
<trkpt lat="49.1416242" lon="2.6831338">
<ele>83.64</ele>
<time>2018-12-30T09:16:25Z</time>
</trkpt>
<trkpt lat="49.1415725" lon="2.6831452">
<ele>82.64</ele>
<time>2018-12-30T09:16:53Z</time>
</trkpt>
<trkpt lat="49.1415284" lon="2.6831877">
<ele>81.91</ele>
<time>2018-12-30T09:16:56Z</time>
</trkpt>
<trkpt lat="49.1414710" lon="2.6832101">
<ele>81.62</ele>
<time>2018-12-30T09:16:59Z</time>
</trkpt>
<trkpt lat="49.1414287" lon="2.6832548">
<ele>81.61</ele>
<time>2018-12-30T09:17:02Z</time>
</trkpt>
<trkpt lat="49.1414098" lon="2.6833295">
<ele>81.61</ele>
<time>2018-12-30T09:17:04Z</time>
</trkpt>
<trkpt lat="49.1413844" lon="2.6834107">
<ele>80.91</ele>
<time>2018-12-30T09:17:06Z</time>
</trkpt>
<trkpt lat="49.1413689" lon="2.6835109">
<ele>80.64</ele>
<time>2018-12-30T09:17:08Z</time>
</trkpt>
<trkpt lat="49.1413497" lon="2.6836015">
<ele>79.91</ele>
<time>2018-12-30T09:17:10Z</time>
</trkpt>
<trkpt lat="49.1413235" lon="2.6836832">
<ele>80.34</ele>
<time>2018-12-30T09:17:12Z</time>
</trkpt>
<trkpt lat="49.1412777" lon="2.6837504">
<ele>79.68</ele>
<time>2018-12-30T09:17:14Z</time>
</trkpt>
<trkpt lat="49.1412325" lon="2.6838074">
<ele>79.62</ele>
<time>2018-12-30T09:17:16Z</time>
</trkpt>
<trkpt lat="49.1411795" lon="2.6838544">
<ele>78.70</ele>
<time>2018-12-30T09:17:18Z</time>
</trkpt>
<trkpt lat="49.1411304" lon="2.6838950">
<ele>78.62</ele>
<time>2018-12-30T09:17:20Z</time>
</trkpt>
<trkpt lat="49.1410945" lon="2.6839544">
<ele>77.91</ele>
<time>2018-12-30T09:17:22Z</time>
</trkpt>
<trkpt lat="49.1410604" lon="2.6840000">
<ele>77.64</ele>
<time>2018-12-30T09:17:24Z</time>
</trkpt>
<trkpt lat="49.1410101" lon="2.6840357">
<ele>77.61</ele>
<time>2018-12-30T09:17:26Z</time>
</trkpt>
<trkpt lat="49.1409686" lon="2.6841012">
<ele>76.91</ele>
<time>2018-12-30T09:17:28Z</time>
</trkpt>
<trkpt lat="49.1409428" lon="2.6841866">
<ele>75.73</ele>
<time>2018-12-30T09:17:30Z</time>
</trkpt>
<trkpt lat="49.1408935" lon="2.6842196">
<ele>76.53</ele>
<time>2018-12-30T09:17:32Z</time>
</trkpt>
<trkpt lat="49.1408506" lon="2.6842634">
<ele>76.60</ele>
<time>2018-12-30T09:17:34Z</time>
</trkpt>
<trkpt lat="49.1408220" lon="2.6843308">
<ele>75.70</ele>
<time>2018-12-30T09:17:36Z</time>
</trkpt>
<trkpt lat="49.1407727" lon="2.6843751">
<ele>76.32</ele>
<time>2018-12-30T09:17:38Z</time>
</trkpt>
<trkpt lat="49.1407284" lon="2.6844188">
<ele>76.58</ele>
<time>2018-12-30T09:17:40Z</time>
</trkpt>
<trkpt lat="49.1406839" lon="2.6844722">
<ele>76.61</ele>
<time>2018-12-30T09:17:42Z</time>
</trkpt>
<trkpt lat="49.1406368" lon="2.6845240">
<ele>76.61</ele>
<time>2018-12-30T09:17:44Z</time>
</trkpt>
<trkpt lat="49.1405848" lon="2.6845914">
<ele>77.52</ele>
<time>2018-12-30T09:17:46Z</time>
</trkpt>
<trkpt lat="49.1405445" lon="2.6846684">
<ele>77.60</ele>
<time>2018-12-30T09:17:48Z</time>
</trkpt>
<trkpt lat="49.1405152" lon="2.6847243">
<ele>77.61</ele>
<time>2018-12-30T09:17:50Z</time>
</trkpt>
<trkpt lat="49.1404901" lon="2.6848041">
<ele>76.64</ele>
<time>2018-12-30T09:17:53Z</time>
</trkpt>
<trkpt lat="49.1404490" lon="2.6848352">
<ele>77.52</ele>
<time>2018-12-30T09:17:55Z</time>
</trkpt>
<trkpt lat="49.1403947" lon="2.6848848">
<ele>78.31</ele>
<time>2018-12-30T09:17:58Z</time>
</trkpt>
<trkpt lat="49.1403387" lon="2.6849324">
<ele>78.60</ele>
<time>2018-12-30T09:18:01Z</time>
</trkpt>
<trkpt lat="49.1402919" lon="2.6849843">
<ele>78.82</ele>
<time>2018-12-30T09:18:03Z</time>
</trkpt>
<trkpt lat="49.1402605" lon="2.6850479">
<ele>78.63</ele>
<time>2018-12-30T09:18:05Z</time>
</trkpt>
<trkpt lat="49.1402331" lon="2.6851070">
<ele>77.70</ele>
<time>2018-12-30T09:18:07Z</time>
</trkpt>
<trkpt lat="49.1401873" lon="2.6851650">
<ele>76.92</ele>
<time>2018-12-30T09:18:09Z</time>
</trkpt>
<trkpt lat="49.1401462" lon="2.6852334">
<ele>76.64</ele>
<time>2018-12-30T09:18:11Z</time>
</trkpt>
<trkpt lat="49.1401000" lon="2.6852916">
<ele>76.61</ele>
<time>2018-12-30T09:18:13Z</time>
</trkpt>
<trkpt lat="49.1400566" lon="2.6853475">
<ele>75.70</ele>
<time>2018-12-30T09:18:15Z</time>
</trkpt>
<trkpt lat="49.1400056" lon="2.6853941">
<ele>75.62</ele>
<time>2018-12-30T09:18:17Z</time>
</trkpt>
<trkpt lat="49.1399586" lon="2.6854436">
<ele>75.40</ele>
<time>2018-12-30T09:18:19Z</time>
</trkpt>
<trkpt lat="49.1399063" lon="2.6854985">
<ele>76.31</ele>
<time>2018-12-30T09:18:22Z</time>
</trkpt>
<trkpt lat="49.1398529" lon="2.6855524">
<ele>76.33</ele>
<time>2018-12-30T09:18:25Z</time>
</trkpt>
<trkpt lat="49.1398094" lon="2.6855760">
<ele>77.29</ele>
<time>2018-12-30T09:18:27Z</time>
</trkpt>
<trkpt lat="49.1397610" lon="2.6855920">
<ele>78.28</ele>
<time>2018-12-30T09:18:29Z</time>
</trkpt>
<trkpt lat="49.1397046" lon="2.6856273">
<ele>78.60</ele>
<time>2018-12-30T09:18:32Z</time>
</trkpt>
<trkpt lat="49.1396753" lon="2.6856813">
<ele>77.91</ele>
<time>2018-12-30T09:18:34Z</time>
</trkpt>
<trkpt lat="49.1396512" lon="2.6857489">
<ele>77.64</ele>
<time>2018-12-30T09:18:36Z</time>
</trkpt>
<trkpt lat="49.1396140" lon="2.6858119">
<ele>78.52</ele>
<time>2018-12-30T09:18:38Z</time>
</trkpt>
<trkpt lat="49.1395794" lon="2.6858842">
<ele>78.60</ele>
<time>2018-12-30T09:18:40Z</time>
</trkpt>
<trkpt lat="49.1395357" lon="2.6859377">
<ele>77.91</ele>
<time>2018-12-30T09:18:42Z</time>
</trkpt>
<trkpt lat="49.1394885" lon="2.6859462">
<ele>77.64</ele>
<time>2018-12-30T09:18:44Z</time>
</trkpt>
<trkpt lat="49.1394209" lon="2.6859298">
<ele>78.31</ele>
<time>2018-12-30T09:18:46Z</time>
</trkpt>
<trkpt lat="49.1393568" lon="2.6859228">
<ele>78.58</ele>
<time>2018-12-30T09:18:48Z</time>
</trkpt>
<trkpt lat="49.1393061" lon="2.6859150">
<ele>79.52</ele>
<time>2018-12-30T09:18:50Z</time>
</trkpt>
<trkpt lat="49.1392624" lon="2.6858670">
<ele>78.70</ele>
<time>2018-12-30T09:18:53Z</time>
</trkpt>
<trkpt lat="49.1392547" lon="2.6857943">
<ele>79.53</ele>
<time>2018-12-30T09:18:55Z</time>
</trkpt>
<trkpt lat="49.1392467" lon="2.6857088">
<ele>79.60</ele>
<time>2018-12-30T09:18:57Z</time>
</trkpt>
<trkpt lat="49.1392276" lon="2.6856162">
<ele>80.52</ele>
<time>2018-12-30T09:18:59Z</time>
</trkpt>
<trkpt lat="49.1392183" lon="2.6855207">
<ele>80.81</ele>
<time>2018-12-30T09:19:01Z</time>
</trkpt>
<trkpt lat="49.1392061" lon="2.6854303">
<ele>81.33</ele>
<time>2018-12-30T09:19:03Z</time>
</trkpt>
<trkpt lat="49.1391914" lon="2.6853401">
<ele>81.59</ele>
<time>2018-12-30T09:19:05Z</time>
</trkpt>
<trkpt lat="49.1391747" lon="2.6852153">
<ele>81.61</ele>
<time>2018-12-30T09:19:07Z</time>
</trkpt>
<trkpt lat="49.1391599" lon="2.6850688">
<ele>82.31</ele>
<time>2018-12-30T09:19:09Z</time>
</trkpt>
<trkpt lat="49.1391499" lon="2.6849849">
<ele>82.52</ele>
<time>2018-12-30T09:19:10Z</time>
</trkpt>
<trkpt lat="49.1391394" lon="2.6849034">
<ele>83.28</ele>
<time>2018-12-30T09:19:11Z</time>
</trkpt>
<trkpt lat="49.1391259" lon="2.6848222">
<ele>83.51</ele>
<time>2018-12-30T09:19:12Z</time>
</trkpt>
<trkpt lat="49.1391152" lon="2.6847445">
<ele>83.58</ele>
<time>2018-12-30T09:19:13Z</time>
</trkpt>
<trkpt lat="49.1391064" lon="2.6846722">
<ele>83.60</ele>
<time>2018-12-30T09:19:14Z</time>
</trkpt>
<trkpt lat="49.1390994" lon="2.6845993">
<ele>83.61</ele>
<time>2018-12-30T09:19:15Z</time>
</trkpt>
<trkpt lat="49.1391042" lon="2.6845300">
<ele>82.91</ele>
<time>2018-12-30T09:19:16Z</time>
</trkpt>
<trkpt lat="49.1390952" lon="2.6844023">
<ele>81.94</ele>
<time>2018-12-30T09:19:18Z</time>
</trkpt>
<trkpt lat="49.1390812" lon="2.6843034">
<ele>82.55</ele>
<time>2018-12-30T09:19:20Z</time>
</trkpt>
<trkpt lat="49.1390697" lon="2.6841916">
<ele>82.61</ele>
<time>2018-12-30T09:19:22Z</time>
</trkpt>
<trkpt lat="49.1390677" lon="2.6840947">
<ele>82.61</ele>
<time>2018-12-30T09:19:24Z</time>
</trkpt>
<trkpt lat="49.1390546" lon="2.6840112">
<ele>82.61</ele>
<time>2018-12-30T09:19:26Z</time>
</trkpt>
<trkpt lat="49.1390325" lon="2.6839192">
<ele>82.61</ele>
<time>2018-12-30T09:19:28Z</time>
</trkpt>
<trkpt lat="49.1390159" lon="2.6838266">
<ele>82.61</ele>
<time>2018-12-30T09:19:30Z</time>
</trkpt>
<trkpt lat="49.1390098" lon="2.6837353">
<ele>82.61</ele>
<time>2018-12-30T09:19:32Z</time>
</trkpt>
<trkpt lat="49.1389968" lon="2.6836384">
<ele>81.91</ele>
<time>2018-12-30T09:19:34Z</time>
</trkpt>
<trkpt lat="49.1389961" lon="2.6835546">
<ele>81.64</ele>
<time>2018-12-30T09:19:36Z</time>
</trkpt>
<trkpt lat="49.1389883" lon="2.6834637">
<ele>80.91</ele>
<time>2018-12-30T09:19:38Z</time>
</trkpt>
<trkpt lat="49.1389678" lon="2.6833564">
<ele>80.64</ele>
<time>2018-12-30T09:19:40Z</time>
</trkpt>
<trkpt lat="49.1389330" lon="2.6832548">
<ele>79.91</ele>
<time>2018-12-30T09:19:42Z</time>
</trkpt>
<trkpt lat="49.1389182" lon="2.6831511">
<ele>79.64</ele>
<time>2018-12-30T09:19:44Z</time>
</trkpt>
<trkpt lat="49.1389017" lon="2.6830547">
<ele>80.31</ele>
<time>2018-12-30T09:19:46Z</time>
</trkpt>
<trkpt lat="49.1388915" lon="2.6829710">
<ele>80.58</ele>
<time>2018-12-30T09:19:48Z</time>
</trkpt>
<trkpt lat="49.1388806" lon="2.6828795">
<ele>80.61</ele>
<time>2018-12-30T09:19:50Z</time>
</trkpt>
<trkpt lat="49.1388664" lon="2.6827795">
<ele>81.52</ele>
<time>2018-12-30T09:19:52Z</time>
</trkpt>
<trkpt lat="49.1388501" lon="2.6826926">
<ele>81.60</ele>
<time>2018-12-30T09:19:54Z</time>
</trkpt>
<trkpt lat="49.1388180" lon="2.6826040">
<ele>81.61</ele>
<time>2018-12-30T09:19:56Z</time>
</trkpt>
<trkpt lat="49.1387983" lon="2.6825030">
<ele>82.52</ele>
<time>2018-12-30T09:19:58Z</time>
</trkpt>
<trkpt lat="49.1387786" lon="2.6824036">
<ele>81.90</ele>
<time>2018-12-30T09:20:00Z</time>
</trkpt>
<trkpt lat="49.1387650" lon="2.6822959">
<ele>82.34</ele>
<time>2018-12-30T09:20:02Z</time>
</trkpt>
<trkpt lat="49.1387470" lon="2.6821879">
<ele>82.59</ele>
<time>2018-12-30T09:20:04Z</time>
</trkpt>
<trkpt lat="49.1387281" lon="2.6820736">
<ele>82.61</ele>
<time>2018-12-30T09:20:06Z</time>
</trkpt>
<trkpt lat="49.1387122" lon="2.6819516">
<ele>84.22</ele>
<time>2018-12-30T09:20:08Z</time>
</trkpt>
<trkpt lat="49.1386809" lon="2.6818547">
<ele>84.58</ele>
<time>2018-12-30T09:20:10Z</time>
</trkpt>
<trkpt lat="49.1386258" lon="2.6817502">
<ele>85.52</ele>
<time>2018-12-30T09:20:12Z</time>
</trkpt>
<trkpt lat="49.1386128" lon="2.6816276">
<ele>86.51</ele>
<time>2018-12-30T09:20:14Z</time>
</trkpt>
<trkpt lat="49.1386066" lon="2.6814945">
<ele>87.30</ele>
<time>2018-12-30T09:20:16Z</time>
</trkpt>
<trkpt lat="49.1385818" lon="2.6813673">
<ele>88.28</ele>
<time>2018-12-30T09:20:18Z</time>
</trkpt>
<trkpt lat="49.1385607" lon="2.6812385">
<ele>88.58</ele>
<time>2018-12-30T09:20:20Z</time>
</trkpt>
<trkpt lat="49.1385056" lon="2.6811347">
<ele>89.31</ele>
<time>2018-12-30T09:20:22Z</time>
</trkpt>
<trkpt lat="49.1384665" lon="2.6810974">
<ele>89.52</ele>
<time>2018-12-30T09:20:23Z</time>
</trkpt>
<trkpt lat="49.1384038" lon="2.6810335">
<ele>90.51</ele>
<time>2018-12-30T09:20:25Z</time>
</trkpt>
<trkpt lat="49.1383545" lon="2.6810053">
<ele>91.51</ele>
<time>2018-12-30T09:20:27Z</time>
</trkpt>
<trkpt lat="49.1382839" lon="2.6809967">
<ele>91.61</ele>
<time>2018-12-30T09:20:30Z</time>
</trkpt>
<trkpt lat="49.1382351" lon="2.6810071">
<ele>91.61</ele>
<time>2018-12-30T09:20:32Z</time>
</trkpt>
<trkpt lat="49.1381789" lon="2.6810477">
<ele>91.61</ele>
<time>2018-12-30T09:20:35Z</time>
</trkpt>
<trkpt lat="49.1381415" lon="2.6811091">
<ele>91.61</ele>
<time>2018-12-30T09:20:38Z</time>
</trkpt>
<trkpt lat="49.1381137" lon="2.6811784">
<ele>92.58</ele>
<time>2018-12-30T09:20:41Z</time>
</trkpt>
<trkpt lat="49.1380534" lon="2.6812276">
<ele>93.58</ele>
<time>2018-12-30T09:20:44Z</time>
</trkpt>
<trkpt lat="49.1379994" lon="2.6812510">
<ele>94.31</ele>
<time>2018-12-30T09:20:47Z</time>
</trkpt>
<trkpt lat="49.1379445" lon="2.6812552">
<ele>94.60</ele>
<time>2018-12-30T09:20:50Z</time>
</trkpt>
<trkpt lat="49.1378974" lon="2.6812531">
<ele>94.61</ele>
<time>2018-12-30T09:20:52Z</time>
</trkpt>
<trkpt lat="49.1378509" lon="2.6812437">
<ele>95.52</ele>
<time>2018-12-30T09:20:54Z</time>
</trkpt>
<trkpt lat="49.1377931" lon="2.6812357">
<ele>95.60</ele>
<time>2018-12-30T09:20:56Z</time>
</trkpt>
<trkpt lat="49.1377359" lon="2.6812318">
<ele>95.61</ele>
<time>2018-12-30T09:20:58Z</time>
</trkpt>
<trkpt lat="49.1376763" lon="2.6812156">
<ele>96.52</ele>
<time>2018-12-30T09:21:00Z</time>
</trkpt>
<trkpt lat="49.1376131" lon="2.6811847">
<ele>96.60</ele>
<time>2018-12-30T09:21:02Z</time>
</trkpt>
<trkpt lat="49.1375585" lon="2.6811604">
<ele>97.52</ele>
<time>2018-12-30T09:21:04Z</time>
</trkpt>
<trkpt lat="49.1375012" lon="2.6811313">
<ele>98.30</ele>
<time>2018-12-30T09:21:06Z</time>
</trkpt>
<trkpt lat="49.1374452" lon="2.6810891">
<ele>98.58</ele>
<time>2018-12-30T09:21:08Z</time>
</trkpt>
<trkpt lat="49.1374023" lon="2.6810227">
<ele>98.61</ele>
<time>2018-12-30T09:21:10Z</time>
</trkpt>
<trkpt lat="49.1373673" lon="2.6809362">
<ele>99.31</ele>
<time>2018-12-30T09:21:12Z</time>
</trkpt>
<trkpt lat="49.1373530" lon="2.6808506">
<ele>100.49</ele>
<time>2018-12-30T09:21:14Z</time>
</trkpt>
<trkpt lat="49.1373264" lon="2.6807721">
<ele>100.60</ele>
<time>2018-12-30T09:21:16Z</time>
</trkpt>
<trkpt lat="49.1372812" lon="2.6806821">
<ele>101.52</ele>
<time>2018-12-30T09:21:18Z</time>
</trkpt>
<trkpt lat="49.1372275" lon="2.6805824">
<ele>102.51</ele>
<time>2018-12-30T09:21:20Z</time>
</trkpt>
<trkpt lat="49.1371821" lon="2.6804809">
<ele>102.60</ele>
<time>2018-12-30T09:21:22Z</time>
</trkpt>
<trkpt lat="49.1371474" lon="2.6804203">
<ele>102.61</ele>
<time>2018-12-30T09:21:24Z</time>
</trkpt>
<trkpt lat="49.1371098" lon="2.6803708">
<ele>102.61</ele>
<time>2018-12-30T09:21:26Z</time>
</trkpt>
<trkpt lat="49.1370590" lon="2.6803162">
<ele>103.52</ele>
<time>2018-12-30T09:21:28Z</time>
</trkpt>
<trkpt lat="49.1369982" lon="2.6802769">
<ele>104.51</ele>
<time>2018-12-30T09:21:30Z</time>
</trkpt>
<trkpt lat="49.1369381" lon="2.6802435">
<ele>104.60</ele>
<time>2018-12-30T09:21:32Z</time>
</trkpt>
<trkpt lat="49.1368734" lon="2.6802065">
<ele>104.61</ele>
<time>2018-12-30T09:21:34Z</time>
</trkpt>
<trkpt lat="49.1368103" lon="2.6801653">
<ele>105.31</ele>
<time>2018-12-30T09:21:36Z</time>
</trkpt>
<trkpt lat="49.1367454" lon="2.6801313">
<ele>105.58</ele>
<time>2018-12-30T09:21:38Z</time>
</trkpt>
<trkpt lat="49.1366714" lon="2.6800989">
<ele>106.52</ele>
<time>2018-12-30T09:21:40Z</time>
</trkpt>
<trkpt lat="49.1366020" lon="2.6800674">
<ele>106.60</ele>
<time>2018-12-30T09:21:42Z</time>
</trkpt>
<trkpt lat="49.1365377" lon="2.6800037">
<ele>106.61</ele>
<time>2018-12-30T09:21:44Z</time>
</trkpt>
<trkpt lat="49.1364781" lon="2.6799355">
<ele>106.61</ele>
<time>2018-12-30T09:21:46Z</time>
</trkpt>
<trkpt lat="49.1364225" lon="2.6798695">
<ele>106.61</ele>
<time>2018-12-30T09:21:48Z</time>
</trkpt>
<trkpt lat="49.1363704" lon="2.6798084">
<ele>106.61</ele>
<time>2018-12-30T09:21:50Z</time>
</trkpt>
<trkpt lat="49.1363120" lon="2.6797418">
<ele>107.31</ele>
<time>2018-12-30T09:21:52Z</time>
</trkpt>
<trkpt lat="49.1362587" lon="2.6796820">
<ele>109.19</ele>
<time>2018-12-30T09:21:54Z</time>
</trkpt>
<trkpt lat="49.1362108" lon="2.6796274">
<ele>109.57</ele>
<time>2018-12-30T09:21:56Z</time>
</trkpt>
<trkpt lat="49.1361761" lon="2.6795758">
<ele>108.70</ele>
<time>2018-12-30T09:21:58Z</time>
</trkpt>
<trkpt lat="49.1361204" lon="2.6795027">
<ele>108.62</ele>
<time>2018-12-30T09:22:00Z</time>
</trkpt>
<trkpt lat="49.1360660" lon="2.6794157">
<ele>108.82</ele>
<time>2018-12-30T09:22:02Z</time>
</trkpt>
<trkpt lat="49.1360183" lon="2.6793117">
<ele>108.84</ele>
<time>2018-12-30T09:22:04Z</time>
</trkpt>
<trkpt lat="49.1359731" lon="2.6792158">
<ele>107.93</ele>
<time>2018-12-30T09:22:06Z</time>
</trkpt>
<trkpt lat="49.1359303" lon="2.6791185">
<ele>108.34</ele>
<time>2018-12-30T09:22:08Z</time>
</trkpt>
<trkpt lat="49.1359593" lon="2.6790538">
<ele>109.29</ele>
<time>2018-12-30T09:22:10Z</time>
</trkpt>
<trkpt lat="49.1360182" lon="2.6790027">
<ele>109.58</ele>
<time>2018-12-30T09:22:12Z</time>
</trkpt>
<trkpt lat="49.1360923" lon="2.6789520">
<ele>109.61</ele>
<time>2018-12-30T09:22:14Z</time>
</trkpt>
<trkpt lat="49.1361634" lon="2.6789241">
<ele>109.61</ele>
<time>2018-12-30T09:22:16Z</time>
</trkpt>
<trkpt lat="49.1362145" lon="2.6788799">
<ele>110.52</ele>
<time>2018-12-30T09:22:18Z</time>
</trkpt>
<trkpt lat="49.1362748" lon="2.6788165">
<ele>110.60</ele>
<time>2018-12-30T09:22:20Z</time>
</trkpt>
<trkpt lat="49.1363418" lon="2.6787663">
<ele>110.61</ele>
<time>2018-12-30T09:22:22Z</time>
</trkpt>
<trkpt lat="49.1364093" lon="2.6787244">
<ele>110.61</ele>
<time>2018-12-30T09:22:24Z</time>
</trkpt>
<trkpt lat="49.1364973" lon="2.6786846">
<ele>110.61</ele>
<time>2018-12-30T09:22:26Z</time>
</trkpt>
<trkpt lat="49.1365709" lon="2.6786161">
<ele>112.01</ele>
<time>2018-12-30T09:22:28Z</time>
</trkpt>
<trkpt lat="49.1366334" lon="2.6785604">
<ele>112.35</ele>
<time>2018-12-30T09:22:30Z</time>
</trkpt>
<trkpt lat="49.1367115" lon="2.6785199">
<ele>113.29</ele>
<time>2018-12-30T09:22:32Z</time>
</trkpt>
<trkpt lat="49.1367784" lon="2.6784867">
<ele>113.58</ele>
<time>2018-12-30T09:22:34Z</time>
</trkpt>
<trkpt lat="49.1368518" lon="2.6784083">
<ele>112.70</ele>
<time>2018-12-30T09:22:36Z</time>
</trkpt>
<trkpt lat="49.1368974" lon="2.6783678">
<ele>112.64</ele>
<time>2018-12-30T09:22:37Z</time>
</trkpt>
<trkpt lat="49.1369503" lon="2.6783237">
<ele>112.62</ele>
<time>2018-12-30T09:22:38Z</time>
</trkpt>
<trkpt lat="49.1369997" lon="2.6782894">
<ele>112.61</ele>
<time>2018-12-30T09:22:39Z</time>
</trkpt>
<trkpt lat="49.1370435" lon="2.6782510">
<ele>112.61</ele>
<time>2018-12-30T09:22:40Z</time>
</trkpt>
<trkpt lat="49.1370852" lon="2.6782135">
<ele>112.61</ele>
<time>2018-12-30T09:22:41Z</time>
</trkpt>
<trkpt lat="49.1371315" lon="2.6781905">
<ele>112.61</ele>
<time>2018-12-30T09:22:42Z</time>
</trkpt>
<trkpt lat="49.1371738" lon="2.6781559">
<ele>113.31</ele>
<time>2018-12-30T09:22:43Z</time>
</trkpt>
<trkpt lat="49.1372167" lon="2.6781211">
<ele>113.52</ele>
<time>2018-12-30T09:22:44Z</time>
</trkpt>
<trkpt lat="49.1372596" lon="2.6780892">
<ele>113.58</ele>
<time>2018-12-30T09:22:45Z</time>
</trkpt>
<trkpt lat="49.1373028" lon="2.6780622">
<ele>113.60</ele>
<time>2018-12-30T09:22:46Z</time>
</trkpt>
<trkpt lat="49.1373456" lon="2.6780334">
<ele>113.61</ele>
<time>2018-12-30T09:22:47Z</time>
</trkpt>
<trkpt lat="49.1374221" lon="2.6779728">
<ele>113.61</ele>
<time>2018-12-30T09:22:49Z</time>
</trkpt>
<trkpt lat="49.1375007" lon="2.6779178">
<ele>113.61</ele>
<time>2018-12-30T09:22:51Z</time>
</trkpt>
<trkpt lat="49.1375440" lon="2.6778849">
<ele>114.31</ele>
<time>2018-12-30T09:22:52Z</time>
</trkpt>
<trkpt lat="49.1375955" lon="2.6778480">
<ele>115.22</ele>
<time>2018-12-30T09:22:53Z</time>
</trkpt>
<trkpt lat="49.1376376" lon="2.6778184">
<ele>115.49</ele>
<time>2018-12-30T09:22:54Z</time>
</trkpt>
<trkpt lat="49.1377118" lon="2.6777793">
<ele>115.60</ele>
<time>2018-12-30T09:22:56Z</time>
</trkpt>
<trkpt lat="49.1377737" lon="2.6777318">
<ele>115.61</ele>
<time>2018-12-30T09:22:58Z</time>
</trkpt>
<trkpt lat="49.1378353" lon="2.6776874">
<ele>115.61</ele>
<time>2018-12-30T09:23:00Z</time>
</trkpt>
<trkpt lat="49.1378877" lon="2.6776364">
<ele>116.52</ele>
<time>2018-12-30T09:23:02Z</time>
</trkpt>
<trkpt lat="49.1379448" lon="2.6775996">
<ele>116.60</ele>
<time>2018-12-30T09:23:04Z</time>
</trkpt>
<trkpt lat="49.1379959" lon="2.6775499">
<ele>116.61</ele>
<time>2018-12-30T09:23:06Z</time>
</trkpt>
<trkpt lat="49.1380615" lon="2.6774978">
<ele>116.61</ele>
<time>2018-12-30T09:23:08Z</time>
</trkpt>
<trkpt lat="49.1381341" lon="2.6774434">
<ele>115.91</ele>
<time>2018-12-30T09:23:10Z</time>
</trkpt>
<trkpt lat="49.1381979" lon="2.6773956">
<ele>115.64</ele>
<time>2018-12-30T09:23:12Z</time>
</trkpt>
<trkpt lat="49.1382650" lon="2.6773389">
<ele>115.61</ele>
<time>2018-12-30T09:23:14Z</time>
</trkpt>
<trkpt lat="49.1383264" lon="2.6772868">
<ele>115.61</ele>
<time>2018-12-30T09:23:16Z</time>
</trkpt>
<trkpt lat="49.1383937" lon="2.6772340">
<ele>115.61</ele>
<time>2018-12-30T09:23:18Z</time>
</trkpt>
<trkpt lat="49.1384708" lon="2.6771837">
<ele>115.82</ele>
<time>2018-12-30T09:23:20Z</time>
</trkpt>
<trkpt lat="49.1385229" lon="2.6771473">
<ele>116.37</ele>
<time>2018-12-30T09:23:21Z</time>
</trkpt>
<trkpt lat="49.1385639" lon="2.6771189">
<ele>116.54</ele>
<time>2018-12-30T09:23:22Z</time>
</trkpt>
<trkpt lat="49.1386061" lon="2.6770926">
<ele>117.29</ele>
<time>2018-12-30T09:23:23Z</time>
</trkpt>
<trkpt lat="49.1386512" lon="2.6770697">
<ele>117.51</ele>
<time>2018-12-30T09:23:24Z</time>
</trkpt>
<trkpt lat="49.1387328" lon="2.6770165">
<ele>117.60</ele>
<time>2018-12-30T09:23:26Z</time>
</trkpt>
<trkpt lat="49.1387892" lon="2.6769635">
<ele>118.31</ele>
<time>2018-12-30T09:23:28Z</time>
</trkpt>
<trkpt lat="49.1388402" lon="2.6769228">
<ele>118.58</ele>
<time>2018-12-30T09:23:30Z</time>
</trkpt>
<trkpt lat="49.1388790" lon="2.6768700">
<ele>118.61</ele>
<time>2018-12-30T09:23:32Z</time>
</trkpt>
<trkpt lat="49.1389141" lon="2.6768113">
<ele>118.61</ele>
<time>2018-12-30T09:23:34Z</time>
</trkpt>
<trkpt lat="49.1389512" lon="2.6767456">
<ele>118.61</ele>
<time>2018-12-30T09:23:36Z</time>
</trkpt>
<trkpt lat="49.1390052" lon="2.6766811">
<ele>118.61</ele>
<time>2018-12-30T09:23:38Z</time>
</trkpt>
<trkpt lat="49.1390569" lon="2.6765935">
<ele>118.61</ele>
<time>2018-12-30T09:23:40Z</time>
</trkpt>
<trkpt lat="49.1391112" lon="2.6765187">
<ele>117.70</ele>
<time>2018-12-30T09:23:42Z</time>
</trkpt>
<trkpt lat="49.1391609" lon="2.6764612">
<ele>117.62</ele>
<time>2018-12-30T09:23:44Z</time>
</trkpt>
<trkpt lat="49.1392043" lon="2.6763898">
<ele>117.61</ele>
<time>2018-12-30T09:23:46Z</time>
</trkpt>
<trkpt lat="49.1392499" lon="2.6763014">
<ele>116.91</ele>
<time>2018-12-30T09:23:48Z</time>
</trkpt>
<trkpt lat="49.1392954" lon="2.6762393">
<ele>116.64</ele>
<time>2018-12-30T09:23:50Z</time>
</trkpt>
<trkpt lat="49.1393408" lon="2.6761564">
<ele>116.61</ele>
<time>2018-12-30T09:23:52Z</time>
</trkpt>
<trkpt lat="49.1393931" lon="2.6760679">
<ele>116.61</ele>
<time>2018-12-30T09:23:54Z</time>
</trkpt>
<trkpt lat="49.1394505" lon="2.6759841">
<ele>115.70</ele>
<time>2018-12-30T09:23:56Z</time>
</trkpt>
<trkpt lat="49.1395069" lon="2.6758978">
<ele>114.92</ele>
<time>2018-12-30T09:23:58Z</time>
</trkpt>
<trkpt lat="49.1395548" lon="2.6758239">
<ele>114.64</ele>
<time>2018-12-30T09:24:00Z</time>
</trkpt>
<trkpt lat="49.1395998" lon="2.6757650">
<ele>114.61</ele>
<time>2018-12-30T09:24:02Z</time>
</trkpt>
<trkpt lat="49.1396335" lon="2.6757003">
<ele>115.52</ele>
<time>2018-12-30T09:24:04Z</time>
</trkpt>
<trkpt lat="49.1396705" lon="2.6756255">
<ele>115.60</ele>
<time>2018-12-30T09:24:06Z</time>
</trkpt>
<trkpt lat="49.1397209" lon="2.6755548">
<ele>114.91</ele>
<time>2018-12-30T09:24:08Z</time>
</trkpt>
<trkpt lat="49.1397586" lon="2.6754940">
<ele>115.55</ele>
<time>2018-12-30T09:24:10Z</time>
</trkpt>
<trkpt lat="49.1397919" lon="2.6754391">
<ele>114.91</ele>
<time>2018-12-30T09:24:12Z</time>
</trkpt>
<trkpt lat="49.1398304" lon="2.6753895">
<ele>114.64</ele>
<time>2018-12-30T09:24:14Z</time>
</trkpt>
<trkpt lat="49.1398756" lon="2.6753417">
<ele>114.61</ele>
<time>2018-12-30T09:24:17Z</time>
</trkpt>
<trkpt lat="49.1399042" lon="2.6752716">
<ele>115.31</ele>
<time>2018-12-30T09:24:21Z</time>
</trkpt>
<trkpt lat="49.1399402" lon="2.6752105">
<ele>115.59</ele>
<time>2018-12-30T09:24:25Z</time>
</trkpt>
<trkpt lat="49.1399806" lon="2.6751607">
<ele>116.31</ele>
<time>2018-12-30T09:24:30Z</time>
</trkpt>
<trkpt lat="49.1400150" lon="2.6751115">
<ele>114.82</ele>
<time>2018-12-30T09:25:36Z</time>
</trkpt>
<trkpt lat="49.1400504" lon="2.6750604">
<ele>115.52</ele>
<time>2018-12-30T09:25:40Z</time>
</trkpt>
<trkpt lat="49.1400876" lon="2.6750032">
<ele>115.61</ele>
<time>2018-12-30T09:25:44Z</time>
</trkpt>
<trkpt lat="49.1401216" lon="2.6749376">
<ele>115.61</ele>
<time>2018-12-30T09:25:47Z</time>
</trkpt>
<trkpt lat="49.1401840" lon="2.6749287">
<ele>115.61</ele>
<time>2018-12-30T09:25:50Z</time>
</trkpt>
<trkpt lat="49.1402219" lon="2.6748916">
<ele>115.61</ele>
<time>2018-12-30T09:25:52Z</time>
</trkpt>
<trkpt lat="49.1402207" lon="2.6748143">
<ele>115.61</ele>
<time>2018-12-30T09:25:55Z</time>
</trkpt>
<trkpt lat="49.1402391" lon="2.6747447">
<ele>115.61</ele>
<time>2018-12-30T09:25:57Z</time>
</trkpt>
<trkpt lat="49.1402770" lon="2.6746766">
<ele>115.61</ele>
<time>2018-12-30T09:25:59Z</time>
</trkpt>
<trkpt lat="49.1403279" lon="2.6746113">
<ele>115.61</ele>
<time>2018-12-30T09:26:01Z</time>
</trkpt>
<trkpt lat="49.1404012" lon="2.6745379">
<ele>115.61</ele>
<time>2018-12-30T09:26:03Z</time>
</trkpt>
<trkpt lat="49.1404622" lon="2.6744595">
<ele>115.61</ele>
<time>2018-12-30T09:26:05Z</time>
</trkpt>
<trkpt lat="49.1405233" lon="2.6743647">
<ele>116.31</ele>
<time>2018-12-30T09:26:07Z</time>
</trkpt>
<trkpt lat="49.1405520" lon="2.6743115">
<ele>115.82</ele>
<time>2018-12-30T09:26:08Z</time>
</trkpt>
<trkpt lat="49.1406132" lon="2.6742126">
<ele>114.93</ele>
<time>2018-12-30T09:26:10Z</time>
</trkpt>
<trkpt lat="49.1406380" lon="2.6741348">
<ele>115.41</ele>
<time>2018-12-30T09:26:11Z</time>
</trkpt>
<trkpt lat="49.1406735" lon="2.6739968">
<ele>114.68</ele>
<time>2018-12-30T09:26:13Z</time>
</trkpt>
<trkpt lat="49.1407058" lon="2.6739264">
<ele>114.63</ele>
<time>2018-12-30T09:26:14Z</time>
</trkpt>
<trkpt lat="49.1407285" lon="2.6738600">
<ele>114.62</ele>
<time>2018-12-30T09:26:15Z</time>
</trkpt>
<trkpt lat="49.1407677" lon="2.6737993">
<ele>114.61</ele>
<time>2018-12-30T09:26:16Z</time>
</trkpt>
<trkpt lat="49.1408146" lon="2.6737583">
<ele>114.61</ele>
<time>2018-12-30T09:26:17Z</time>
</trkpt>
<trkpt lat="49.1408602" lon="2.6737173">
<ele>114.61</ele>
<time>2018-12-30T09:26:18Z</time>
</trkpt>
<trkpt lat="49.1409306" lon="2.6736635">
<ele>114.61</ele>
<time>2018-12-30T09:26:20Z</time>
</trkpt>
<trkpt lat="49.1409829" lon="2.6736043">
<ele>114.61</ele>
<time>2018-12-30T09:26:22Z</time>
</trkpt>
<trkpt lat="49.1410317" lon="2.6735653">
<ele>114.61</ele>
<time>2018-12-30T09:26:24Z</time>
</trkpt>
<trkpt lat="49.1410774" lon="2.6734977">
<ele>115.31</ele>
<time>2018-12-30T09:26:27Z</time>
</trkpt>
<trkpt lat="49.1411106" lon="2.6734466">
<ele>115.58</ele>
<time>2018-12-30T09:26:29Z</time>
</trkpt>
<trkpt lat="49.1411446" lon="2.6733856">
<ele>114.91</ele>
<time>2018-12-30T09:26:31Z</time>
</trkpt>
<trkpt lat="49.1411850" lon="2.6733233">
<ele>111.64</ele>
<time>2018-12-30T09:26:38Z</time>
</trkpt>
<trkpt lat="49.1412205" lon="2.6732761">
<ele>111.61</ele>
<time>2018-12-30T09:26:40Z</time>
</trkpt>
<trkpt lat="49.1412640" lon="2.6732149">
<ele>111.61</ele>
<time>2018-12-30T09:26:42Z</time>
</trkpt>
<trkpt lat="49.1413232" lon="2.6731202">
<ele>111.61</ele>
<time>2018-12-30T09:26:44Z</time>
</trkpt>
<trkpt lat="49.1413938" lon="2.6730196">
<ele>112.31</ele>
<time>2018-12-30T09:26:46Z</time>
</trkpt>
<trkpt lat="49.1414341" lon="2.6729705">
<ele>112.52</ele>
<time>2018-12-30T09:26:47Z</time>
</trkpt>
<trkpt lat="49.1414663" lon="2.6729209">
<ele>113.28</ele>
<time>2018-12-30T09:26:48Z</time>
</trkpt>
<trkpt lat="49.1414996" lon="2.6728708">
<ele>113.51</ele>
<time>2018-12-30T09:26:49Z</time>
</trkpt>
<trkpt lat="49.1415277" lon="2.6728149">
<ele>113.58</ele>
<time>2018-12-30T09:26:50Z</time>
</trkpt>
<trkpt lat="49.1415940" lon="2.6727143">
<ele>113.61</ele>
<time>2018-12-30T09:26:52Z</time>
</trkpt>
<trkpt lat="49.1416265" lon="2.6726627">
<ele>113.61</ele>
<time>2018-12-30T09:26:53Z</time>
</trkpt>
<trkpt lat="49.1416573" lon="2.6726044">
<ele>113.61</ele>
<time>2018-12-30T09:26:54Z</time>
</trkpt>
<trkpt lat="49.1416912" lon="2.6725503">
<ele>113.61</ele>
<time>2018-12-30T09:26:55Z</time>
</trkpt>
<trkpt lat="49.1417545" lon="2.6724417">
<ele>113.61</ele>
<time>2018-12-30T09:26:57Z</time>
</trkpt>
<trkpt lat="49.1417850" lon="2.6723899">
<ele>114.31</ele>
<time>2018-12-30T09:26:58Z</time>
</trkpt>
<trkpt lat="49.1418436" lon="2.6723045">
<ele>114.58</ele>
<time>2018-12-30T09:27:00Z</time>
</trkpt>
<trkpt lat="49.1418975" lon="2.6722244">
<ele>114.61</ele>
<time>2018-12-30T09:27:02Z</time>
</trkpt>
<trkpt lat="49.1419511" lon="2.6721169">
<ele>114.61</ele>
<time>2018-12-30T09:27:04Z</time>
</trkpt>
<trkpt lat="49.1419882" lon="2.6720725">
<ele>115.31</ele>
<time>2018-12-30T09:27:05Z</time>
</trkpt>
<trkpt lat="49.1420420" lon="2.6719715">
<ele>115.58</ele>
<time>2018-12-30T09:27:07Z</time>
</trkpt>
<trkpt lat="49.1420941" lon="2.6718871">
<ele>115.61</ele>
<time>2018-12-30T09:27:09Z</time>
</trkpt>
<trkpt lat="49.1421459" lon="2.6718064">
<ele>115.61</ele>
<time>2018-12-30T09:27:11Z</time>
</trkpt>
<trkpt lat="49.1421812" lon="2.6717529">
<ele>115.61</ele>
<time>2018-12-30T09:27:12Z</time>
</trkpt>
<trkpt lat="49.1422211" lon="2.6716998">
<ele>115.61</ele>
<time>2018-12-30T09:27:13Z</time>
</trkpt>
<trkpt lat="49.1422547" lon="2.6716528">
<ele>115.61</ele>
<time>2018-12-30T09:27:14Z</time>
</trkpt>
<trkpt lat="49.1422874" lon="2.6716038">
<ele>115.61</ele>
<time>2018-12-30T09:27:15Z</time>
</trkpt>
<trkpt lat="49.1423495" lon="2.6715216">
<ele>115.61</ele>
<time>2018-12-30T09:27:17Z</time>
</trkpt>
<trkpt lat="49.1424086" lon="2.6714248">
<ele>115.61</ele>
<time>2018-12-30T09:27:19Z</time>
</trkpt>
<trkpt lat="49.1424703" lon="2.6713326">
<ele>116.52</ele>
<time>2018-12-30T09:27:21Z</time>
</trkpt>
<trkpt lat="49.1425224" lon="2.6712406">
<ele>116.60</ele>
<time>2018-12-30T09:27:23Z</time>
</trkpt>
<trkpt lat="49.1425585" lon="2.6711918">
<ele>116.61</ele>
<time>2018-12-30T09:27:24Z</time>
</trkpt>
<trkpt lat="49.1425929" lon="2.6711444">
<ele>116.61</ele>
<time>2018-12-30T09:27:25Z</time>
</trkpt>
<trkpt lat="49.1426291" lon="2.6710944">
<ele>116.61</ele>
<time>2018-12-30T09:27:26Z</time>
</trkpt>
<trkpt lat="49.1426641" lon="2.6710417">
<ele>116.61</ele>
<time>2018-12-30T09:27:27Z</time>
</trkpt>
<trkpt lat="49.1427043" lon="2.6709802">
<ele>116.61</ele>
<time>2018-12-30T09:27:28Z</time>
</trkpt>
<trkpt lat="49.1427443" lon="2.6709111">
<ele>115.91</ele>
<time>2018-12-30T09:27:29Z</time>
</trkpt>
<trkpt lat="49.1427901" lon="2.6708477">
<ele>115.70</ele>
<time>2018-12-30T09:27:30Z</time>
</trkpt>
<trkpt lat="49.1428375" lon="2.6707817">
<ele>115.64</ele>
<time>2018-12-30T09:27:31Z</time>
</trkpt>
<trkpt lat="49.1428791" lon="2.6707152">
<ele>115.62</ele>
<time>2018-12-30T09:27:32Z</time>
</trkpt>
<trkpt lat="49.1429143" lon="2.6706521">
<ele>116.31</ele>
<time>2018-12-30T09:27:33Z</time>
</trkpt>
<trkpt lat="49.1429467" lon="2.6705937">
<ele>116.52</ele>
<time>2018-12-30T09:27:34Z</time>
</trkpt>
<trkpt lat="49.1429796" lon="2.6705467">
<ele>116.58</ele>
<time>2018-12-30T09:27:35Z</time>
</trkpt>
<trkpt lat="49.1430140" lon="2.6704992">
<ele>116.60</ele>
<time>2018-12-30T09:27:36Z</time>
</trkpt>
<trkpt lat="49.1430461" lon="2.6704448">
<ele>116.61</ele>
<time>2018-12-30T09:27:37Z</time>
</trkpt>
<trkpt lat="49.1430762" lon="2.6703934">
<ele>117.31</ele>
<time>2018-12-30T09:27:38Z</time>
</trkpt>
<trkpt lat="49.1431449" lon="2.6702989">
<ele>117.58</ele>
<time>2018-12-30T09:27:40Z</time>
</trkpt>
<trkpt lat="49.1432004" lon="2.6701956">
<ele>117.61</ele>
<time>2018-12-30T09:27:42Z</time>
</trkpt>
<trkpt lat="49.1432645" lon="2.6701029">
<ele>117.61</ele>
<time>2018-12-30T09:27:44Z</time>
</trkpt>
<trkpt lat="49.1433143" lon="2.6700206">
<ele>117.61</ele>
<time>2018-12-30T09:27:46Z</time>
</trkpt>
<trkpt lat="49.1433489" lon="2.6699646">
<ele>116.91</ele>
<time>2018-12-30T09:27:47Z</time>
</trkpt>
<trkpt lat="49.1433804" lon="2.6699040">
<ele>116.70</ele>
<time>2018-12-30T09:27:48Z</time>
</trkpt>
<trkpt lat="49.1434133" lon="2.6698459">
<ele>117.34</ele>
<time>2018-12-30T09:27:49Z</time>
</trkpt>
<trkpt lat="49.1434507" lon="2.6697817">
<ele>117.53</ele>
<time>2018-12-30T09:27:50Z</time>
</trkpt>
<trkpt lat="49.1434922" lon="2.6697113">
<ele>117.59</ele>
<time>2018-12-30T09:27:51Z</time>
</trkpt>
<trkpt lat="49.1435314" lon="2.6696501">
<ele>117.60</ele>
<time>2018-12-30T09:27:52Z</time>
</trkpt>
<trkpt lat="49.1435714" lon="2.6695919">
<ele>117.61</ele>
<time>2018-12-30T09:27:53Z</time>
</trkpt>
<trkpt lat="49.1436053" lon="2.6695414">
<ele>116.91</ele>
<time>2018-12-30T09:27:54Z</time>
</trkpt>
<trkpt lat="49.1436456" lon="2.6695017">
<ele>116.70</ele>
<time>2018-12-30T09:27:55Z</time>
</trkpt>
<trkpt lat="49.1437095" lon="2.6694899">
<ele>117.32</ele>
<time>2018-12-30T09:27:57Z</time>
</trkpt>
<trkpt lat="49.1437594" lon="2.6695295">
<ele>117.58</ele>
<time>2018-12-30T09:27:59Z</time>
</trkpt>
<trkpt lat="49.1438204" lon="2.6695956">
<ele>117.61</ele>
<time>2018-12-30T09:28:01Z</time>
</trkpt>
<trkpt lat="49.1438755" lon="2.6696580">
<ele>117.61</ele>
<time>2018-12-30T09:28:03Z</time>
</trkpt>
<trkpt lat="49.1439388" lon="2.6697098">
<ele>117.61</ele>
<time>2018-12-30T09:28:05Z</time>
</trkpt>
<trkpt lat="49.1439929" lon="2.6697657">
<ele>117.61</ele>
<time>2018-12-30T09:28:07Z</time>
</trkpt>
<trkpt lat="49.1440630" lon="2.6698424">
<ele>118.52</ele>
<time>2018-12-30T09:28:09Z</time>
</trkpt>
<trkpt lat="49.1441132" lon="2.6698803">
<ele>118.58</ele>
<time>2018-12-30T09:28:10Z</time>
</trkpt>
<trkpt lat="49.1441525" lon="2.6699266">
<ele>118.60</ele>
<time>2018-12-30T09:28:11Z</time>
</trkpt>
<trkpt lat="49.1441845" lon="2.6699760">
<ele>118.61</ele>
<time>2018-12-30T09:28:12Z</time>
</trkpt>
<trkpt lat="49.1442503" lon="2.6700551">
<ele>118.61</ele>
<time>2018-12-30T09:28:14Z</time>
</trkpt>
<trkpt lat="49.1443114" lon="2.6701169">
<ele>118.61</ele>
<time>2018-12-30T09:28:16Z</time>
</trkpt>
<trkpt lat="49.1443727" lon="2.6701721">
<ele>118.61</ele>
<time>2018-12-30T09:28:18Z</time>
</trkpt>
<trkpt lat="49.1444235" lon="2.6702247">
<ele>118.61</ele>
<time>2018-12-30T09:28:21Z</time>
</trkpt>
<trkpt lat="49.1444527" lon="2.6703101">
<ele>118.61</ele>
<time>2018-12-30T09:28:24Z</time>
</trkpt>
<trkpt lat="49.1444767" lon="2.6703697">
<ele>118.61</ele>
<time>2018-12-30T09:28:26Z</time>
</trkpt>
<trkpt lat="49.1444891" lon="2.6704434">
<ele>117.91</ele>
<time>2018-12-30T09:28:28Z</time>
</trkpt>
<trkpt lat="49.1445540" lon="2.6704758">
<ele>117.61</ele>
<time>2018-12-30T09:28:32Z</time>
</trkpt>
<trkpt lat="49.1446007" lon="2.6705245">
<ele>117.61</ele>
<time>2018-12-30T09:28:34Z</time>
</trkpt>
<trkpt lat="49.1446565" lon="2.6705640">
<ele>117.61</ele>
<time>2018-12-30T09:28:36Z</time>
</trkpt>
<trkpt lat="49.1447095" lon="2.6706189">
<ele>117.61</ele>
<time>2018-12-30T09:28:38Z</time>
</trkpt>
<trkpt lat="49.1447711" lon="2.6706940">
<ele>117.61</ele>
<time>2018-12-30T09:28:40Z</time>
</trkpt>
<trkpt lat="49.1448150" lon="2.6707567">
<ele>117.61</ele>
<time>2018-12-30T09:28:42Z</time>
</trkpt>
<trkpt lat="49.1448344" lon="2.6708196">
<ele>115.64</ele>
<time>2018-12-30T09:28:58Z</time>
</trkpt>
<trkpt lat="49.1448735" lon="2.6708679">
<ele>115.61</ele>
<time>2018-12-30T09:29:02Z</time>
</trkpt>
<trkpt lat="49.1449177" lon="2.6709477">
<ele>115.61</ele>
<time>2018-12-30T09:29:05Z</time>
</trkpt>
<trkpt lat="49.1449633" lon="2.6710083">
<ele>115.61</ele>
<time>2018-12-30T09:29:07Z</time>
</trkpt>
<trkpt lat="49.1450208" lon="2.6710690">
<ele>115.61</ele>
<time>2018-12-30T09:29:09Z</time>
</trkpt>
<trkpt lat="49.1450638" lon="2.6710998">
<ele>115.61</ele>
<time>2018-12-30T09:29:10Z</time>
</trkpt>
<trkpt lat="49.1451325" lon="2.6711643">
<ele>114.70</ele>
<time>2018-12-30T09:29:12Z</time>
</trkpt>
<trkpt lat="49.1451923" lon="2.6712312">
<ele>114.62</ele>
<time>2018-12-30T09:29:14Z</time>
</trkpt>
<trkpt lat="49.1452440" lon="2.6712948">
<ele>114.61</ele>
<time>2018-12-30T09:29:16Z</time>
</trkpt>
<trkpt lat="49.1452910" lon="2.6713472">
<ele>114.61</ele>
<time>2018-12-30T09:29:18Z</time>
</trkpt>
<trkpt lat="49.1453547" lon="2.6713806">
<ele>114.61</ele>
<time>2018-12-30T09:29:21Z</time>
</trkpt>
<trkpt lat="49.1453981" lon="2.6714074">
<ele>112.94</ele>
<time>2018-12-30T09:29:24Z</time>
</trkpt>
<trkpt lat="49.1454452" lon="2.6714341">
<ele>111.70</ele>
<time>2018-12-30T09:29:28Z</time>
</trkpt>
<trkpt lat="49.1455101" lon="2.6714452">
<ele>110.01</ele>
<time>2018-12-30T09:29:30Z</time>
</trkpt>
<trkpt lat="49.1455725" lon="2.6714606">
<ele>108.74</ele>
<time>2018-12-30T09:29:32Z</time>
</trkpt>
<trkpt lat="49.1456229" lon="2.6714741">
<ele>107.71</ele>
<time>2018-12-30T09:29:34Z</time>
</trkpt>
<trkpt lat="49.1456743" lon="2.6714741">
<ele>106.64</ele>
<time>2018-12-30T09:29:37Z</time>
</trkpt>
<trkpt lat="49.1457226" lon="2.6714467">
<ele>106.61</ele>
<time>2018-12-30T09:29:39Z</time>
</trkpt>
<trkpt lat="49.1457953" lon="2.6714145">
<ele>105.70</ele>
<time>2018-12-30T09:29:41Z</time>
</trkpt>
<trkpt lat="49.1458419" lon="2.6713995">
<ele>105.64</ele>
<time>2018-12-30T09:29:42Z</time>
</trkpt>
<trkpt lat="49.1458936" lon="2.6713795">
<ele>105.62</ele>
<time>2018-12-30T09:29:43Z</time>
</trkpt>
<trkpt lat="49.1459393" lon="2.6713564">
<ele>105.61</ele>
<time>2018-12-30T09:29:44Z</time>
</trkpt>
<trkpt lat="49.1459853" lon="2.6713380">
<ele>104.91</ele>
<time>2018-12-30T09:29:45Z</time>
</trkpt>
<trkpt lat="49.1460668" lon="2.6712915">
<ele>104.64</ele>
<time>2018-12-30T09:29:47Z</time>
</trkpt>
<trkpt lat="49.1461259" lon="2.6712485">
<ele>104.61</ele>
<time>2018-12-30T09:29:49Z</time>
</trkpt>
<trkpt lat="49.1461830" lon="2.6712074">
<ele>103.91</ele>
<time>2018-12-30T09:29:51Z</time>
</trkpt>
<trkpt lat="49.1462393" lon="2.6711561">
<ele>102.91</ele>
<time>2018-12-30T09:29:55Z</time>
</trkpt>
<trkpt lat="49.1462742" lon="2.6711098">
<ele>101.91</ele>
<time>2018-12-30T09:30:03Z</time>
</trkpt>
<trkpt lat="49.1463237" lon="2.6710804">
<ele>98.94</ele>
<time>2018-12-30T09:30:08Z</time>
</trkpt>
<trkpt lat="49.1463647" lon="2.6710502">
<ele>96.74</ele>
<time>2018-12-30T09:30:11Z</time>
</trkpt>
<trkpt lat="49.1463231" lon="2.6710157">
<ele>94.62</ele>
<time>2018-12-30T09:30:38Z</time>
</trkpt>
<trkpt lat="49.1462799" lon="2.6709737">
<ele>93.91</ele>
<time>2018-12-30T09:30:40Z</time>
</trkpt>
<trkpt lat="49.1462403" lon="2.6709173">
<ele>93.64</ele>
<time>2018-12-30T09:30:42Z</time>
</trkpt>
<trkpt lat="49.1461948" lon="2.6708608">
<ele>92.00</ele>
<time>2018-12-30T09:30:44Z</time>
</trkpt>
<trkpt lat="49.1461685" lon="2.6708033">
<ele>91.65</ele>
<time>2018-12-30T09:30:46Z</time>
</trkpt>
<trkpt lat="49.1461485" lon="2.6707344">
<ele>91.61</ele>
<time>2018-12-30T09:30:48Z</time>
</trkpt>
<trkpt lat="49.1461155" lon="2.6706619">
<ele>91.61</ele>
<time>2018-12-30T09:30:50Z</time>
</trkpt>
<trkpt lat="49.1460818" lon="2.6705980">
<ele>91.61</ele>
<time>2018-12-30T09:30:52Z</time>
</trkpt>
<trkpt lat="49.1460450" lon="2.6705407">
<ele>92.31</ele>
<time>2018-12-30T09:30:54Z</time>
</trkpt>
<trkpt lat="49.1460048" lon="2.6704938">
<ele>92.58</ele>
<time>2018-12-30T09:30:56Z</time>
</trkpt>
<trkpt lat="49.1459726" lon="2.6704453">
<ele>93.52</ele>
<time>2018-12-30T09:30:58Z</time>
</trkpt>
<trkpt lat="49.1459364" lon="2.6703968">
<ele>92.69</ele>
<time>2018-12-30T09:31:00Z</time>
</trkpt>
<trkpt lat="49.1458977" lon="2.6703476">
<ele>93.53</ele>
<time>2018-12-30T09:31:02Z</time>
</trkpt>
<trkpt lat="49.1458661" lon="2.6702976">
<ele>93.60</ele>
<time>2018-12-30T09:31:04Z</time>
</trkpt>
<trkpt lat="49.1458368" lon="2.6702397">
<ele>93.55</ele>
<time>2018-12-30T09:31:07Z</time>
</trkpt>
<trkpt lat="49.1457961" lon="2.6702079">
<ele>93.61</ele>
<time>2018-12-30T09:31:09Z</time>
</trkpt>
<trkpt lat="49.1457534" lon="2.6701679">
<ele>94.52</ele>
<time>2018-12-30T09:31:11Z</time>
</trkpt>
<trkpt lat="49.1456974" lon="2.6700993">
<ele>95.58</ele>
<time>2018-12-30T09:31:14Z</time>
</trkpt>
<trkpt lat="49.1456539" lon="2.6700414">
<ele>96.58</ele>
<time>2018-12-30T09:31:17Z</time>
</trkpt>
<trkpt lat="49.1456184" lon="2.6699959">
<ele>97.58</ele>
<time>2018-12-30T09:31:20Z</time>
</trkpt>
<trkpt lat="49.1455825" lon="2.6699404">
<ele>97.61</ele>
<time>2018-12-30T09:31:23Z</time>
</trkpt>
<trkpt lat="49.1455460" lon="2.6698965">
<ele>98.52</ele>
<time>2018-12-30T09:31:26Z</time>
</trkpt>
<trkpt lat="49.1455041" lon="2.6698596">
<ele>99.31</ele>
<time>2018-12-30T09:31:29Z</time>
</trkpt>
<trkpt lat="49.1454733" lon="2.6698060">
<ele>100.51</ele>
<time>2018-12-30T09:31:32Z</time>
</trkpt>
<trkpt lat="49.1454302" lon="2.6697481">
<ele>101.52</ele>
<time>2018-12-30T09:31:35Z</time>
</trkpt>
<trkpt lat="49.1453771" lon="2.6697039">
<ele>102.31</ele>
<time>2018-12-30T09:31:38Z</time>
</trkpt>
<trkpt lat="49.1453343" lon="2.6696604">
<ele>102.60</ele>
<time>2018-12-30T09:31:41Z</time>
</trkpt>
<trkpt lat="49.1452972" lon="2.6695878">
<ele>101.85</ele>
<time>2018-12-30T09:31:44Z</time>
</trkpt>
<trkpt lat="49.1452560" lon="2.6695342">
<ele>102.60</ele>
<time>2018-12-30T09:31:48Z</time>
</trkpt>
<trkpt lat="49.1452141" lon="2.6694943">
<ele>103.58</ele>
<time>2018-12-30T09:31:52Z</time>
</trkpt>
<trkpt lat="49.1451649" lon="2.6694513">
<ele>104.60</ele>
<time>2018-12-30T09:31:56Z</time>
</trkpt>
<trkpt lat="49.1451190" lon="2.6694255">
<ele>110.52</ele>
<time>2018-12-30T09:32:13Z</time>
</trkpt>
<trkpt lat="49.1450892" lon="2.6693648">
<ele>110.61</ele>
<time>2018-12-30T09:33:30Z</time>
</trkpt>
<trkpt lat="49.1450548" lon="2.6693143">
<ele>110.61</ele>
<time>2018-12-30T09:33:37Z</time>
</trkpt>
<trkpt lat="49.1450128" lon="2.6692531">
<ele>112.28</ele>
<time>2018-12-30T09:33:40Z</time>
</trkpt>
<trkpt lat="49.1449544" lon="2.6692000">
<ele>113.51</ele>
<time>2018-12-30T09:33:43Z</time>
</trkpt>
<trkpt lat="49.1449160" lon="2.6691614">
<ele>112.69</ele>
<time>2018-12-30T09:33:45Z</time>
</trkpt>
<trkpt lat="49.1448700" lon="2.6691042">
<ele>112.62</ele>
<time>2018-12-30T09:33:47Z</time>
</trkpt>
<trkpt lat="49.1448301" lon="2.6690562">
<ele>112.61</ele>
<time>2018-12-30T09:33:49Z</time>
</trkpt>
<trkpt lat="49.1447849" lon="2.6689827">
<ele>113.52</ele>
<time>2018-12-30T09:33:51Z</time>
</trkpt>
<trkpt lat="49.1447545" lon="2.6689133">
<ele>113.60</ele>
<time>2018-12-30T09:33:53Z</time>
</trkpt>
<trkpt lat="49.1447146" lon="2.6688810">
<ele>113.61</ele>
<time>2018-12-30T09:33:55Z</time>
</trkpt>
<trkpt lat="49.1446639" lon="2.6688323">
<ele>113.61</ele>
<time>2018-12-30T09:33:57Z</time>
</trkpt>
<trkpt lat="49.1446372" lon="2.6687742">
<ele>113.61</ele>
<time>2018-12-30T09:33:59Z</time>
</trkpt>
<trkpt lat="49.1445874" lon="2.6687085">
<ele>113.40</ele>
<time>2018-12-30T09:34:02Z</time>
</trkpt>
<trkpt lat="49.1445683" lon="2.6686339">
<ele>113.59</ele>
<time>2018-12-30T09:34:04Z</time>
</trkpt>
<trkpt lat="49.1445531" lon="2.6685425">
<ele>113.61</ele>
<time>2018-12-30T09:34:06Z</time>
</trkpt>
<trkpt lat="49.1445457" lon="2.6684543">
<ele>113.61</ele>
<time>2018-12-30T09:34:08Z</time>
</trkpt>
<trkpt lat="49.1445373" lon="2.6683780">
<ele>114.52</ele>
<time>2018-12-30T09:34:10Z</time>
</trkpt>
<trkpt lat="49.1445784" lon="2.6683135">
<ele>114.61</ele>
<time>2018-12-30T09:34:13Z</time>
</trkpt>
<trkpt lat="49.1446353" lon="2.6682511">
<ele>114.61</ele>
<time>2018-12-30T09:34:16Z</time>
</trkpt>
<trkpt lat="49.1446834" lon="2.6681991">
<ele>113.70</ele>
<time>2018-12-30T09:34:18Z</time>
</trkpt>
<trkpt lat="49.1447316" lon="2.6681794">
<ele>114.61</ele>
<time>2018-12-30T09:34:42Z</time>
</trkpt>
<trkpt lat="49.1447795" lon="2.6681299">
<ele>114.55</ele>
<time>2018-12-30T09:34:46Z</time>
</trkpt>
<trkpt lat="49.1447700" lon="2.6680392">
<ele>114.61</ele>
<time>2018-12-30T09:34:49Z</time>
</trkpt>
<trkpt lat="49.1447882" lon="2.6679498">
<ele>114.61</ele>
<time>2018-12-30T09:34:52Z</time>
</trkpt>
<trkpt lat="49.1448008" lon="2.6678609">
<ele>114.40</ele>
<time>2018-12-30T09:34:55Z</time>
</trkpt>
<trkpt lat="49.1448335" lon="2.6677737">
<ele>114.59</ele>
<time>2018-12-30T09:34:57Z</time>
</trkpt>
<trkpt lat="49.1448853" lon="2.6677151">
<ele>114.61</ele>
<time>2018-12-30T09:34:59Z</time>
</trkpt>
<trkpt lat="49.1449394" lon="2.6676430">
<ele>114.61</ele>
<time>2018-12-30T09:35:01Z</time>
</trkpt>
<trkpt lat="49.1450036" lon="2.6675649">
<ele>114.61</ele>
<time>2018-12-30T09:35:03Z</time>
</trkpt>
<trkpt lat="49.1450448" lon="2.6674710">
<ele>114.61</ele>
<time>2018-12-30T09:35:05Z</time>
</trkpt>
<trkpt lat="49.1450975" lon="2.6673543">
<ele>113.91</ele>
<time>2018-12-30T09:35:07Z</time>
</trkpt>
<trkpt lat="49.1451278" lon="2.6673018">
<ele>113.70</ele>
<time>2018-12-30T09:35:08Z</time>
</trkpt>
<trkpt lat="49.1451932" lon="2.6672321">
<ele>113.62</ele>
<time>2018-12-30T09:35:10Z</time>
</trkpt>
<trkpt lat="49.1452553" lon="2.6671890">
<ele>113.61</ele>
<time>2018-12-30T09:35:12Z</time>
</trkpt>
<trkpt lat="49.1453272" lon="2.6671420">
<ele>113.61</ele>
<time>2018-12-30T09:35:14Z</time>
</trkpt>
<trkpt lat="49.1453800" lon="2.6670572">
<ele>113.61</ele>
<time>2018-12-30T09:35:16Z</time>
</trkpt>
<trkpt lat="49.1454583" lon="2.6669936">
<ele>112.91</ele>
<time>2018-12-30T09:35:18Z</time>
</trkpt>
<trkpt lat="49.1455412" lon="2.6669612">
<ele>111.94</ele>
<time>2018-12-30T09:35:20Z</time>
</trkpt>
<trkpt lat="49.1456148" lon="2.6668956">
<ele>110.94</ele>
<time>2018-12-30T09:35:22Z</time>
</trkpt>
<trkpt lat="49.1456543" lon="2.6668129">
<ele>109.94</ele>
<time>2018-12-30T09:35:24Z</time>
</trkpt>
<trkpt lat="49.1456717" lon="2.6667280">
<ele>109.68</ele>
<time>2018-12-30T09:35:27Z</time>
</trkpt>
<trkpt lat="49.1456967" lon="2.6666336">
<ele>109.61</ele>
<time>2018-12-30T09:35:30Z</time>
</trkpt>
<trkpt lat="49.1457256" lon="2.6665373">
<ele>109.61</ele>
<time>2018-12-30T09:35:32Z</time>
</trkpt>
<trkpt lat="49.1457621" lon="2.6664383">
<ele>108.70</ele>
<time>2018-12-30T09:35:34Z</time>
</trkpt>
<trkpt lat="49.1457914" lon="2.6663752">
<ele>108.64</ele>
<time>2018-12-30T09:35:35Z</time>
</trkpt>
<trkpt lat="49.1458208" lon="2.6662907">
<ele>108.62</ele>
<time>2018-12-30T09:35:36Z</time>
</trkpt>
<trkpt lat="49.1458416" lon="2.6662215">
<ele>108.61</ele>
<time>2018-12-30T09:35:37Z</time>
</trkpt>
<trkpt lat="49.1458439" lon="2.6661251">
<ele>107.70</ele>
<time>2018-12-30T09:35:39Z</time>
</trkpt>
<trkpt lat="49.1458640" lon="2.6660628">
<ele>107.61</ele>
<time>2018-12-30T09:35:43Z</time>
</trkpt>
<trkpt lat="49.1458901" lon="2.6659894">
<ele>106.61</ele>
<time>2018-12-30T09:36:06Z</time>
</trkpt>
<trkpt lat="49.1459421" lon="2.6659308">
<ele>105.70</ele>
<time>2018-12-30T09:36:09Z</time>
</trkpt>
<trkpt lat="49.1459998" lon="2.6658437">
<ele>104.01</ele>
<time>2018-12-30T09:36:11Z</time>
</trkpt>
<trkpt lat="49.1460390" lon="2.6657932">
<ele>103.73</ele>
<time>2018-12-30T09:36:12Z</time>
</trkpt>
<trkpt lat="49.1460869" lon="2.6657340">
<ele>102.95</ele>
<time>2018-12-30T09:36:13Z</time>
</trkpt>
<trkpt lat="49.1461420" lon="2.6656636">
<ele>102.01</ele>
<time>2018-12-30T09:36:14Z</time>
</trkpt>
<trkpt lat="49.1462003" lon="2.6655786">
<ele>101.03</ele>
<time>2018-12-30T09:36:15Z</time>
</trkpt>
<trkpt lat="49.1462621" lon="2.6654859">
<ele>100.74</ele>
<time>2018-12-30T09:36:16Z</time>
</trkpt>
<trkpt lat="49.1463255" lon="2.6653889">
<ele>100.65</ele>
<time>2018-12-30T09:36:17Z</time>
</trkpt>
<trkpt lat="49.1463916" lon="2.6652837">
<ele>99.92</ele>
<time>2018-12-30T09:36:18Z</time>
</trkpt>
<trkpt lat="49.1464609" lon="2.6651776">
<ele>99.00</ele>
<time>2018-12-30T09:36:19Z</time>
</trkpt>
<trkpt lat="49.1465218" lon="2.6650710">
<ele>98.03</ele>
<time>2018-12-30T09:36:20Z</time>
</trkpt>
<trkpt lat="49.1465632" lon="2.6650146">
<ele>97.04</ele>
<time>2018-12-30T09:36:21Z</time>
</trkpt>
<trkpt lat="49.1465856" lon="2.6649301">
<ele>95.62</ele>
<time>2018-12-30T09:36:49Z</time>
</trkpt>
<trkpt lat="49.1466286" lon="2.6648813">
<ele>94.70</ele>
<time>2018-12-30T09:36:51Z</time>
</trkpt>
<trkpt lat="49.1467163" lon="2.6647675">
<ele>93.01</ele>
<time>2018-12-30T09:36:53Z</time>
</trkpt>
<trkpt lat="49.1467770" lon="2.6646671">
<ele>92.73</ele>
<time>2018-12-30T09:36:54Z</time>
</trkpt>
<trkpt lat="49.1468401" lon="2.6645643">
<ele>91.95</ele>
<time>2018-12-30T09:36:55Z</time>
</trkpt>
<trkpt lat="49.1469015" lon="2.6644604">
<ele>91.01</ele>
<time>2018-12-30T09:36:56Z</time>
</trkpt>
<trkpt lat="49.1469670" lon="2.6643644">
<ele>90.73</ele>
<time>2018-12-30T09:36:57Z</time>
</trkpt>
<trkpt lat="49.1470251" lon="2.6642650">
<ele>89.95</ele>
<time>2018-12-30T09:36:58Z</time>
</trkpt>
<trkpt lat="49.1470774" lon="2.6641701">
<ele>89.71</ele>
<time>2018-12-30T09:36:59Z</time>
</trkpt>
<trkpt lat="49.1471273" lon="2.6640894">
<ele>89.64</ele>
<time>2018-12-30T09:37:00Z</time>
</trkpt>
<trkpt lat="49.1471598" lon="2.6640329">
<ele>88.92</ele>
<time>2018-12-30T09:37:01Z</time>
</trkpt>
<trkpt lat="49.1471782" lon="2.6639669">
<ele>86.91</ele>
<time>2018-12-30T09:37:11Z</time>
</trkpt>
<trkpt lat="49.1472049" lon="2.6638951">
<ele>86.61</ele>
<time>2018-12-30T09:37:15Z</time>
</trkpt>
<trkpt lat="49.1472398" lon="2.6638269">
<ele>86.61</ele>
<time>2018-12-30T09:37:17Z</time>
</trkpt>
<trkpt lat="49.1472933" lon="2.6637495">
<ele>86.61</ele>
<time>2018-12-30T09:37:19Z</time>
</trkpt>
<trkpt lat="49.1473700" lon="2.6636517">
<ele>85.91</ele>
<time>2018-12-30T09:37:21Z</time>
</trkpt>
<trkpt lat="49.1474128" lon="2.6635965">
<ele>85.70</ele>
<time>2018-12-30T09:37:22Z</time>
</trkpt>
<trkpt lat="49.1474588" lon="2.6635429">
<ele>85.64</ele>
<time>2018-12-30T09:37:23Z</time>
</trkpt>
<trkpt lat="49.1474955" lon="2.6634945">
<ele>85.62</ele>
<time>2018-12-30T09:37:24Z</time>
</trkpt>
<trkpt lat="49.1475594" lon="2.6633954">
<ele>86.31</ele>
<time>2018-12-30T09:37:26Z</time>
</trkpt>
<trkpt lat="49.1475918" lon="2.6633413">
<ele>86.52</ele>
<time>2018-12-30T09:37:27Z</time>
</trkpt>
<trkpt lat="49.1476259" lon="2.6632930">
<ele>86.58</ele>
<time>2018-12-30T09:37:28Z</time>
</trkpt>
<trkpt lat="49.1476605" lon="2.6632491">
<ele>86.60</ele>
<time>2018-12-30T09:37:29Z</time>
</trkpt>
<trkpt lat="49.1476938" lon="2.6632014">
<ele>85.91</ele>
<time>2018-12-30T09:37:30Z</time>
</trkpt>
<trkpt lat="49.1477321" lon="2.6631426">
<ele>85.70</ele>
<time>2018-12-30T09:37:31Z</time>
</trkpt>
<trkpt lat="49.1477792" lon="2.6630819">
<ele>84.94</ele>
<time>2018-12-30T09:37:32Z</time>
</trkpt>
<trkpt lat="49.1478252" lon="2.6630267">
<ele>84.71</ele>
<time>2018-12-30T09:37:33Z</time>
</trkpt>
<trkpt lat="49.1478714" lon="2.6629700">
<ele>84.64</ele>
<time>2018-12-30T09:37:34Z</time>
</trkpt>
<trkpt lat="49.1479124" lon="2.6629177">
<ele>83.92</ele>
<time>2018-12-30T09:37:35Z</time>
</trkpt>
<trkpt lat="49.1479538" lon="2.6628659">
<ele>83.70</ele>
<time>2018-12-30T09:37:36Z</time>
</trkpt>
<trkpt lat="49.1479990" lon="2.6628080">
<ele>83.64</ele>
<time>2018-12-30T09:37:37Z</time>
</trkpt>
<trkpt lat="49.1480461" lon="2.6627464">
<ele>82.92</ele>
<time>2018-12-30T09:37:38Z</time>
</trkpt>
<trkpt lat="49.1480883" lon="2.6626814">
<ele>82.70</ele>
<time>2018-12-30T09:37:39Z</time>
</trkpt>
<trkpt lat="49.1481279" lon="2.6626224">
<ele>82.64</ele>
<time>2018-12-30T09:37:40Z</time>
</trkpt>
<trkpt lat="49.1481662" lon="2.6625620">
<ele>82.62</ele>
<time>2018-12-30T09:37:41Z</time>
</trkpt>
<trkpt lat="49.1482009" lon="2.6625032">
<ele>81.91</ele>
<time>2018-12-30T09:37:42Z</time>
</trkpt>
<trkpt lat="49.1482362" lon="2.6624464">
<ele>81.70</ele>
<time>2018-12-30T09:37:43Z</time>
</trkpt>
<trkpt lat="49.1482698" lon="2.6623882">
<ele>81.64</ele>
<time>2018-12-30T09:37:44Z</time>
</trkpt>
<trkpt lat="49.1483011" lon="2.6623261">
<ele>81.62</ele>
<time>2018-12-30T09:37:45Z</time>
</trkpt>
<trkpt lat="49.1483369" lon="2.6622676">
<ele>81.61</ele>
<time>2018-12-30T09:37:46Z</time>
</trkpt>
<trkpt lat="49.1483757" lon="2.6622085">
<ele>80.91</ele>
<time>2018-12-30T09:37:47Z</time>
</trkpt>
<trkpt lat="49.1484048" lon="2.6621528">
<ele>80.70</ele>
<time>2018-12-30T09:37:48Z</time>
</trkpt>
<trkpt lat="49.1484726" lon="2.6620438">
<ele>79.92</ele>
<time>2018-12-30T09:37:50Z</time>
</trkpt>
<trkpt lat="49.1485074" lon="2.6619909">
<ele>79.70</ele>
<time>2018-12-30T09:37:51Z</time>
</trkpt>
<trkpt lat="49.1485457" lon="2.6619351">
<ele>79.64</ele>
<time>2018-12-30T09:37:52Z</time>
</trkpt>
<trkpt lat="49.1485854" lon="2.6618842">
<ele>79.62</ele>
<time>2018-12-30T09:37:53Z</time>
</trkpt>
<trkpt lat="49.1486201" lon="2.6618327">
<ele>78.91</ele>
<time>2018-12-30T09:37:54Z</time>
</trkpt>
<trkpt lat="49.1486565" lon="2.6617914">
<ele>78.70</ele>
<time>2018-12-30T09:37:55Z</time>
</trkpt>
<trkpt lat="49.1487041" lon="2.6617579">
<ele>77.91</ele>
<time>2018-12-30T09:37:58Z</time>
</trkpt>
<trkpt lat="49.1487534" lon="2.6616945">
<ele>77.62</ele>
<time>2018-12-30T09:38:01Z</time>
</trkpt>
<trkpt lat="49.1487905" lon="2.6616411">
<ele>77.61</ele>
<time>2018-12-30T09:38:03Z</time>
</trkpt>
<trkpt lat="49.1488391" lon="2.6615900">
<ele>77.61</ele>
<time>2018-12-30T09:38:05Z</time>
</trkpt>
<trkpt lat="49.1488945" lon="2.6615425">
<ele>77.61</ele>
<time>2018-12-30T09:38:07Z</time>
</trkpt>
<trkpt lat="49.1489481" lon="2.6614859">
<ele>77.61</ele>
<time>2018-12-30T09:38:09Z</time>
</trkpt>
<trkpt lat="49.1490069" lon="2.6614373">
<ele>77.61</ele>
<time>2018-12-30T09:38:11Z</time>
</trkpt>
<trkpt lat="49.1490668" lon="2.6614007">
<ele>77.61</ele>
<time>2018-12-30T09:38:13Z</time>
</trkpt>
<trkpt lat="49.1491300" lon="2.6613583">
<ele>77.61</ele>
<time>2018-12-30T09:38:15Z</time>
</trkpt>
<trkpt lat="49.1491914" lon="2.6613097">
<ele>77.61</ele>
<time>2018-12-30T09:38:17Z</time>
</trkpt>
<trkpt lat="49.1492610" lon="2.6612595">
<ele>77.61</ele>
<time>2018-12-30T09:38:19Z</time>
</trkpt>
<trkpt lat="49.1493473" lon="2.6612008">
<ele>78.31</ele>
<time>2018-12-30T09:38:21Z</time>
</trkpt>
<trkpt lat="49.1493954" lon="2.6611642">
<ele>77.82</ele>
<time>2018-12-30T09:38:22Z</time>
</trkpt>
<trkpt lat="49.1494383" lon="2.6611228">
<ele>76.97</ele>
<time>2018-12-30T09:38:23Z</time>
</trkpt>
<trkpt lat="49.1495146" lon="2.6610694">
<ele>77.55</ele>
<time>2018-12-30T09:38:25Z</time>
</trkpt>
<trkpt lat="49.1495850" lon="2.6610103">
<ele>77.61</ele>
<time>2018-12-30T09:38:27Z</time>
</trkpt>
<trkpt lat="49.1496443" lon="2.6609616">
<ele>77.61</ele>
<time>2018-12-30T09:38:29Z</time>
</trkpt>
<trkpt lat="49.1497070" lon="2.6609472">
<ele>77.61</ele>
<time>2018-12-30T09:38:31Z</time>
</trkpt>
<trkpt lat="49.1497425" lon="2.6610164">
<ele>77.61</ele>
<time>2018-12-30T09:38:33Z</time>
</trkpt>
<trkpt lat="49.1497469" lon="2.6611038">
<ele>77.61</ele>
<time>2018-12-30T09:38:35Z</time>
</trkpt>
<trkpt lat="49.1497400" lon="2.6612197">
<ele>76.91</ele>
<time>2018-12-30T09:38:37Z</time>
</trkpt>
<trkpt lat="49.1497552" lon="2.6613509">
<ele>75.94</ele>
<time>2018-12-30T09:38:39Z</time>
</trkpt>
<trkpt lat="49.1497506" lon="2.6614211">
<ele>75.71</ele>
<time>2018-12-30T09:38:40Z</time>
</trkpt>
<trkpt lat="49.1497404" lon="2.6614943">
<ele>75.64</ele>
<time>2018-12-30T09:38:41Z</time>
</trkpt>
<trkpt lat="49.1497367" lon="2.6615731">
<ele>74.92</ele>
<time>2018-12-30T09:38:42Z</time>
</trkpt>
<trkpt lat="49.1497331" lon="2.6616595">
<ele>74.70</ele>
<time>2018-12-30T09:38:43Z</time>
</trkpt>
<trkpt lat="49.1497260" lon="2.6617459">
<ele>74.64</ele>
<time>2018-12-30T09:38:44Z</time>
</trkpt>
<trkpt lat="49.1497182" lon="2.6618284">
<ele>74.62</ele>
<time>2018-12-30T09:38:45Z</time>
</trkpt>
<trkpt lat="49.1497081" lon="2.6619193">
<ele>73.91</ele>
<time>2018-12-30T09:38:46Z</time>
</trkpt>
<trkpt lat="49.1497008" lon="2.6620064">
<ele>73.70</ele>
<time>2018-12-30T09:38:47Z</time>
</trkpt>
<trkpt lat="49.1496948" lon="2.6620919">
<ele>73.64</ele>
<time>2018-12-30T09:38:48Z</time>
</trkpt>
<trkpt lat="49.1496926" lon="2.6621750">
<ele>73.62</ele>
<time>2018-12-30T09:38:49Z</time>
</trkpt>
<trkpt lat="49.1496856" lon="2.6622478">
<ele>73.61</ele>
<time>2018-12-30T09:38:50Z</time>
</trkpt>
<trkpt lat="49.1496828" lon="2.6623191">
<ele>73.61</ele>
<time>2018-12-30T09:38:51Z</time>
</trkpt>
<trkpt lat="49.1496758" lon="2.6624559">
<ele>73.61</ele>
<time>2018-12-30T09:38:53Z</time>
</trkpt>
<trkpt lat="49.1496635" lon="2.6625244">
<ele>74.31</ele>
<time>2018-12-30T09:38:54Z</time>
</trkpt>
<trkpt lat="49.1496488" lon="2.6626522">
<ele>73.67</ele>
<time>2018-12-30T09:38:56Z</time>
</trkpt>
<trkpt lat="49.1496361" lon="2.6627852">
<ele>73.62</ele>
<time>2018-12-30T09:38:58Z</time>
</trkpt>
<trkpt lat="49.1496284" lon="2.6629135">
<ele>73.61</ele>
<time>2018-12-30T09:39:00Z</time>
</trkpt>
<trkpt lat="49.1496210" lon="2.6630395">
<ele>73.61</ele>
<time>2018-12-30T09:39:02Z</time>
</trkpt>
<trkpt lat="49.1496024" lon="2.6631679">
<ele>73.82</ele>
<time>2018-12-30T09:39:04Z</time>
</trkpt>
<trkpt lat="49.1495887" lon="2.6632929">
<ele>74.33</ele>
<time>2018-12-30T09:39:06Z</time>
</trkpt>
<trkpt lat="49.1495802" lon="2.6634237">
<ele>74.59</ele>
<time>2018-12-30T09:39:08Z</time>
</trkpt>
<trkpt lat="49.1495774" lon="2.6634937">
<ele>74.60</ele>
<time>2018-12-30T09:39:09Z</time>
</trkpt>
<trkpt lat="49.1495747" lon="2.6635636">
<ele>73.91</ele>
<time>2018-12-30T09:39:10Z</time>
</trkpt>
<trkpt lat="49.1495661" lon="2.6636941">
<ele>73.64</ele>
<time>2018-12-30T09:39:12Z</time>
</trkpt>
<trkpt lat="49.1495478" lon="2.6638176">
<ele>73.61</ele>
<time>2018-12-30T09:39:14Z</time>
</trkpt>
<trkpt lat="49.1495451" lon="2.6639401">
<ele>74.31</ele>
<time>2018-12-30T09:39:16Z</time>
</trkpt>
<trkpt lat="49.1495344" lon="2.6640538">
<ele>75.28</ele>
<time>2018-12-30T09:39:18Z</time>
</trkpt>
<trkpt lat="49.1495175" lon="2.6641485">
<ele>75.58</ele>
<time>2018-12-30T09:39:20Z</time>
</trkpt>
<trkpt lat="49.1495030" lon="2.6642468">
<ele>75.61</ele>
<time>2018-12-30T09:39:22Z</time>
</trkpt>
<trkpt lat="49.1494918" lon="2.6643484">
<ele>75.61</ele>
<time>2018-12-30T09:39:24Z</time>
</trkpt>
<trkpt lat="49.1494802" lon="2.6644520">
<ele>75.61</ele>
<time>2018-12-30T09:39:26Z</time>
</trkpt>
<trkpt lat="49.1494710" lon="2.6645549">
<ele>74.91</ele>
<time>2018-12-30T09:39:28Z</time>
</trkpt>
<trkpt lat="49.1494541" lon="2.6646513">
<ele>74.64</ele>
<time>2018-12-30T09:39:30Z</time>
</trkpt>
<trkpt lat="49.1494366" lon="2.6647516">
<ele>75.31</ele>
<time>2018-12-30T09:39:32Z</time>
</trkpt>
<trkpt lat="49.1494289" lon="2.6648744">
<ele>75.58</ele>
<time>2018-12-30T09:39:34Z</time>
</trkpt>
<trkpt lat="49.1494239" lon="2.6649438">
<ele>75.60</ele>
<time>2018-12-30T09:39:35Z</time>
</trkpt>
<trkpt lat="49.1494210" lon="2.6650131">
<ele>75.61</ele>
<time>2018-12-30T09:39:36Z</time>
</trkpt>
<trkpt lat="49.1494128" lon="2.6651471">
<ele>75.61</ele>
<time>2018-12-30T09:39:38Z</time>
</trkpt>
<trkpt lat="49.1494092" lon="2.6652201">
<ele>75.61</ele>
<time>2018-12-30T09:39:39Z</time>
</trkpt>
<trkpt lat="49.1494039" lon="2.6652909">
<ele>75.61</ele>
<time>2018-12-30T09:39:40Z</time>
</trkpt>
<trkpt lat="49.1493919" lon="2.6654250">
<ele>75.61</ele>
<time>2018-12-30T09:39:42Z</time>
</trkpt>
<trkpt lat="49.1493921" lon="2.6655663">
<ele>76.31</ele>
<time>2018-12-30T09:39:44Z</time>
</trkpt>
<trkpt lat="49.1493891" lon="2.6657012">
<ele>75.67</ele>
<time>2018-12-30T09:39:46Z</time>
</trkpt>
<trkpt lat="49.1493835" lon="2.6657700">
<ele>75.63</ele>
<time>2018-12-30T09:39:47Z</time>
</trkpt>
<trkpt lat="49.1493755" lon="2.6658388">
<ele>75.62</ele>
<time>2018-12-30T09:39:48Z</time>
</trkpt>
<trkpt lat="49.1493694" lon="2.6659102">
<ele>75.61</ele>
<time>2018-12-30T09:39:49Z</time>
</trkpt>
<trkpt lat="49.1493635" lon="2.6659811">
<ele>75.61</ele>
<time>2018-12-30T09:39:50Z</time>
</trkpt>
<trkpt lat="49.1493552" lon="2.6660588">
<ele>75.61</ele>
<time>2018-12-30T09:39:51Z</time>
</trkpt>
<trkpt lat="49.1493461" lon="2.6661278">
<ele>75.61</ele>
<time>2018-12-30T09:39:52Z</time>
</trkpt>
<trkpt lat="49.1493354" lon="2.6661997">
<ele>75.61</ele>
<time>2018-12-30T09:39:53Z</time>
</trkpt>
<trkpt lat="49.1493258" lon="2.6662723">
<ele>75.61</ele>
<time>2018-12-30T09:39:54Z</time>
</trkpt>
<trkpt lat="49.1493183" lon="2.6663435">
<ele>75.61</ele>
<time>2018-12-30T09:39:55Z</time>
</trkpt>
<trkpt lat="49.1493060" lon="2.6664748">
<ele>76.52</ele>
<time>2018-12-30T09:39:57Z</time>
</trkpt>
<trkpt lat="49.1492922" lon="2.6666104">
<ele>76.60</ele>
<time>2018-12-30T09:39:59Z</time>
</trkpt>
<trkpt lat="49.1492868" lon="2.6666809">
<ele>76.61</ele>
<time>2018-12-30T09:40:00Z</time>
</trkpt>
<trkpt lat="49.1492762" lon="2.6668096">
<ele>75.70</ele>
<time>2018-12-30T09:40:02Z</time>
</trkpt>
<trkpt lat="49.1492646" lon="2.6669441">
<ele>74.71</ele>
<time>2018-12-30T09:40:04Z</time>
</trkpt>
<trkpt lat="49.1492495" lon="2.6670756">
<ele>74.62</ele>
<time>2018-12-30T09:40:06Z</time>
</trkpt>
<trkpt lat="49.1492407" lon="2.6671439">
<ele>73.91</ele>
<time>2018-12-30T09:40:07Z</time>
</trkpt>
<trkpt lat="49.1492315" lon="2.6672156">
<ele>73.70</ele>
<time>2018-12-30T09:40:08Z</time>
</trkpt>
<trkpt lat="49.1492252" lon="2.6672876">
<ele>73.64</ele>
<time>2018-12-30T09:40:09Z</time>
</trkpt>
<trkpt lat="49.1492206" lon="2.6673575">
<ele>73.62</ele>
<time>2018-12-30T09:40:10Z</time>
</trkpt>
<trkpt lat="49.1492081" lon="2.6674878">
<ele>73.61</ele>
<time>2018-12-30T09:40:12Z</time>
</trkpt>
<trkpt lat="49.1491990" lon="2.6675578">
<ele>73.61</ele>
<time>2018-12-30T09:40:13Z</time>
</trkpt>
<trkpt lat="49.1491960" lon="2.6676333">
<ele>73.61</ele>
<time>2018-12-30T09:40:14Z</time>
</trkpt>
<trkpt lat="49.1491889" lon="2.6677056">
<ele>73.61</ele>
<time>2018-12-30T09:40:15Z</time>
</trkpt>
<trkpt lat="49.1491818" lon="2.6677780">
<ele>72.91</ele>
<time>2018-12-30T09:40:16Z</time>
</trkpt>
<trkpt lat="49.1491704" lon="2.6679207">
<ele>73.55</ele>
<time>2018-12-30T09:40:18Z</time>
</trkpt>
<trkpt lat="49.1491628" lon="2.6679901">
<ele>73.59</ele>
<time>2018-12-30T09:40:19Z</time>
</trkpt>
<trkpt lat="49.1491615" lon="2.6680627">
<ele>73.61</ele>
<time>2018-12-30T09:40:20Z</time>
</trkpt>
<trkpt lat="49.1491579" lon="2.6681369">
<ele>72.91</ele>
<time>2018-12-30T09:40:21Z</time>
</trkpt>
<trkpt lat="49.1491473" lon="2.6682096">
<ele>72.70</ele>
<time>2018-12-30T09:40:22Z</time>
</trkpt>
<trkpt lat="49.1491429" lon="2.6682785">
<ele>72.64</ele>
<time>2018-12-30T09:40:23Z</time>
</trkpt>
<trkpt lat="49.1491370" lon="2.6684167">
<ele>72.61</ele>
<time>2018-12-30T09:40:25Z</time>
</trkpt>
<trkpt lat="49.1491225" lon="2.6686256">
<ele>72.61</ele>
<time>2018-12-30T09:40:28Z</time>
</trkpt>
<trkpt lat="49.1491155" lon="2.6687551">
<ele>72.61</ele>
<time>2018-12-30T09:40:30Z</time>
</trkpt>
<trkpt lat="49.1491057" lon="2.6688808">
<ele>72.61</ele>
<time>2018-12-30T09:40:32Z</time>
</trkpt>
<trkpt lat="49.1490948" lon="2.6690058">
<ele>72.61</ele>
<time>2018-12-30T09:40:34Z</time>
</trkpt>
<trkpt lat="49.1490792" lon="2.6691349">
<ele>72.61</ele>
<time>2018-12-30T09:40:36Z</time>
</trkpt>
<trkpt lat="49.1490707" lon="2.6692033">
<ele>72.61</ele>
<time>2018-12-30T09:40:37Z</time>
</trkpt>
<trkpt lat="49.1490559" lon="2.6693213">
<ele>72.61</ele>
<time>2018-12-30T09:40:39Z</time>
</trkpt>
<trkpt lat="49.1490485" lon="2.6694376">
<ele>72.61</ele>
<time>2018-12-30T09:40:41Z</time>
</trkpt>
<trkpt lat="49.1490362" lon="2.6695457">
<ele>73.31</ele>
<time>2018-12-30T09:40:43Z</time>
</trkpt>
<trkpt lat="49.1490240" lon="2.6696586">
<ele>73.58</ele>
<time>2018-12-30T09:40:45Z</time>
</trkpt>
<trkpt lat="49.1490148" lon="2.6697841">
<ele>73.61</ele>
<time>2018-12-30T09:40:47Z</time>
</trkpt>
<trkpt lat="49.1490075" lon="2.6698986">
<ele>73.61</ele>
<time>2018-12-30T09:40:49Z</time>
</trkpt>
<trkpt lat="49.1489921" lon="2.6700138">
<ele>73.40</ele>
<time>2018-12-30T09:40:51Z</time>
</trkpt>
<trkpt lat="49.1489803" lon="2.6701292">
<ele>73.59</ele>
<time>2018-12-30T09:40:53Z</time>
</trkpt>
<trkpt lat="49.1489770" lon="2.6702435">
<ele>73.61</ele>
<time>2018-12-30T09:40:55Z</time>
</trkpt>
<trkpt lat="49.1489650" lon="2.6703614">
<ele>73.61</ele>
<time>2018-12-30T09:40:57Z</time>
</trkpt>
<trkpt lat="49.1489568" lon="2.6704850">
<ele>72.70</ele>
<time>2018-12-30T09:40:59Z</time>
</trkpt>
<trkpt lat="49.1489468" lon="2.6706063">
<ele>72.62</ele>
<time>2018-12-30T09:41:01Z</time>
</trkpt>
<trkpt lat="49.1489339" lon="2.6707203">
<ele>72.61</ele>
<time>2018-12-30T09:41:03Z</time>
</trkpt>
<trkpt lat="49.1489276" lon="2.6708315">
<ele>73.31</ele>
<time>2018-12-30T09:41:05Z</time>
</trkpt>
<trkpt lat="49.1489194" lon="2.6709538">
<ele>73.58</ele>
<time>2018-12-30T09:41:07Z</time>
</trkpt>
<trkpt lat="49.1489055" lon="2.6710755">
<ele>73.61</ele>
<time>2018-12-30T09:41:09Z</time>
</trkpt>
<trkpt lat="49.1488942" lon="2.6712036">
<ele>73.61</ele>
<time>2018-12-30T09:41:11Z</time>
</trkpt>
<trkpt lat="49.1488817" lon="2.6713282">
<ele>73.61</ele>
<time>2018-12-30T09:41:13Z</time>
</trkpt>
<trkpt lat="49.1488740" lon="2.6714499">
<ele>73.61</ele>
<time>2018-12-30T09:41:15Z</time>
</trkpt>
<trkpt lat="49.1488610" lon="2.6715794">
<ele>72.70</ele>
<time>2018-12-30T09:41:17Z</time>
</trkpt>
<trkpt lat="49.1488537" lon="2.6717033">
<ele>72.62</ele>
<time>2018-12-30T09:41:19Z</time>
</trkpt>
<trkpt lat="49.1488403" lon="2.6718274">
<ele>72.61</ele>
<time>2018-12-30T09:41:21Z</time>
</trkpt>
<trkpt lat="49.1488289" lon="2.6719579">
<ele>72.61</ele>
<time>2018-12-30T09:41:23Z</time>
</trkpt>
<trkpt lat="49.1488237" lon="2.6720928">
<ele>72.61</ele>
<time>2018-12-30T09:41:25Z</time>
</trkpt>
<trkpt lat="49.1488167" lon="2.6721627">
<ele>72.61</ele>
<time>2018-12-30T09:41:26Z</time>
</trkpt>
<trkpt lat="49.1488042" lon="2.6722992">
<ele>72.61</ele>
<time>2018-12-30T09:41:28Z</time>
</trkpt>
<trkpt lat="49.1487904" lon="2.6724268">
<ele>72.61</ele>
<time>2018-12-30T09:41:30Z</time>
</trkpt>
<trkpt lat="49.1487720" lon="2.6725585">
<ele>72.61</ele>
<time>2018-12-30T09:41:32Z</time>
</trkpt>
<trkpt lat="49.1487614" lon="2.6726917">
<ele>72.61</ele>
<time>2018-12-30T09:41:34Z</time>
</trkpt>
<trkpt lat="49.1487493" lon="2.6728258">
<ele>71.70</ele>
<time>2018-12-30T09:41:36Z</time>
</trkpt>
<trkpt lat="49.1487427" lon="2.6728964">
<ele>71.64</ele>
<time>2018-12-30T09:41:37Z</time>
</trkpt>
<trkpt lat="49.1487368" lon="2.6729670">
<ele>71.62</ele>
<time>2018-12-30T09:41:38Z</time>
</trkpt>
<trkpt lat="49.1487305" lon="2.6730962">
<ele>71.61</ele>
<time>2018-12-30T09:41:40Z</time>
</trkpt>
<trkpt lat="49.1487292" lon="2.6732275">
<ele>71.61</ele>
<time>2018-12-30T09:41:42Z</time>
</trkpt>
<trkpt lat="49.1487279" lon="2.6733545">
<ele>72.31</ele>
<time>2018-12-30T09:41:44Z</time>
</trkpt>
<trkpt lat="49.1487141" lon="2.6734768">
<ele>72.58</ele>
<time>2018-12-30T09:41:46Z</time>
</trkpt>
<trkpt lat="49.1487042" lon="2.6735896">
<ele>72.61</ele>
<time>2018-12-30T09:41:48Z</time>
</trkpt>
<trkpt lat="49.1486886" lon="2.6737588">
<ele>73.31</ele>
<time>2018-12-30T09:41:51Z</time>
</trkpt>
<trkpt lat="49.1486731" lon="2.6738621">
<ele>73.58</ele>
<time>2018-12-30T09:41:53Z</time>
</trkpt>
<trkpt lat="49.1486648" lon="2.6739650">
<ele>74.52</ele>
<time>2018-12-30T09:41:55Z</time>
</trkpt>
<trkpt lat="49.1486603" lon="2.6740626">
<ele>74.60</ele>
<time>2018-12-30T09:41:57Z</time>
</trkpt>
<trkpt lat="49.1486457" lon="2.6741566">
<ele>74.61</ele>
<time>2018-12-30T09:41:59Z</time>
</trkpt>
<trkpt lat="49.1486291" lon="2.6742395">
<ele>74.61</ele>
<time>2018-12-30T09:42:01Z</time>
</trkpt>
<trkpt lat="49.1486314" lon="2.6743144">
<ele>74.61</ele>
<time>2018-12-30T09:42:03Z</time>
</trkpt>
<trkpt lat="49.1486123" lon="2.6743963">
<ele>74.61</ele>
<time>2018-12-30T09:42:06Z</time>
</trkpt>
<trkpt lat="49.1485872" lon="2.6744859">
<ele>74.61</ele>
<time>2018-12-30T09:42:09Z</time>
</trkpt>
<trkpt lat="49.1485896" lon="2.6745895">
<ele>75.31</ele>
<time>2018-12-30T09:42:12Z</time>
</trkpt>
<trkpt lat="49.1485927" lon="2.6746597">
<ele>75.58</ele>
<time>2018-12-30T09:42:14Z</time>
</trkpt>
<trkpt lat="49.1485922" lon="2.6747388">
<ele>76.61</ele>
<time>2018-12-30T09:42:24Z</time>
</trkpt>
<trkpt lat="49.1485894" lon="2.6748135">
<ele>77.58</ele>
<time>2018-12-30T09:42:27Z</time>
</trkpt>
<trkpt lat="49.1485919" lon="2.6748940">
<ele>78.58</ele>
<time>2018-12-30T09:42:30Z</time>
</trkpt>
<trkpt lat="49.1485749" lon="2.6749810">
<ele>78.61</ele>
<time>2018-12-30T09:42:33Z</time>
</trkpt>
<trkpt lat="49.1485663" lon="2.6750490">
<ele>79.31</ele>
<time>2018-12-30T09:42:35Z</time>
</trkpt>
<trkpt lat="49.1485483" lon="2.6751449">
<ele>78.69</ele>
<time>2018-12-30T09:42:38Z</time>
</trkpt>
<trkpt lat="49.1485290" lon="2.6752362">
<ele>77.92</ele>
<time>2018-12-30T09:42:40Z</time>
</trkpt>
<trkpt lat="49.1485194" lon="2.6753043">
<ele>76.94</ele>
<time>2018-12-30T09:42:42Z</time>
</trkpt>
<trkpt lat="49.1485071" lon="2.6753849">
<ele>76.64</ele>
<time>2018-12-30T09:42:44Z</time>
</trkpt>
<trkpt lat="49.1484971" lon="2.6754660">
<ele>76.61</ele>
<time>2018-12-30T09:42:46Z</time>
</trkpt>
<trkpt lat="49.1484886" lon="2.6755443">
<ele>76.61</ele>
<time>2018-12-30T09:42:48Z</time>
</trkpt>
<trkpt lat="49.1484727" lon="2.6756324">
<ele>75.91</ele>
<time>2018-12-30T09:42:50Z</time>
</trkpt>
<trkpt lat="49.1484643" lon="2.6757171">
<ele>75.64</ele>
<time>2018-12-30T09:42:52Z</time>
</trkpt>
<trkpt lat="49.1484636" lon="2.6757987">
<ele>75.61</ele>
<time>2018-12-30T09:42:54Z</time>
</trkpt>
<trkpt lat="49.1484582" lon="2.6758795">
<ele>75.61</ele>
<time>2018-12-30T09:42:56Z</time>
</trkpt>
<trkpt lat="49.1484487" lon="2.6759533">
<ele>75.61</ele>
<time>2018-12-30T09:42:58Z</time>
</trkpt>
<trkpt lat="49.1484362" lon="2.6760376">
<ele>75.61</ele>
<time>2018-12-30T09:43:00Z</time>
</trkpt>
<trkpt lat="49.1484263" lon="2.6761297">
<ele>75.61</ele>
<time>2018-12-30T09:43:02Z</time>
</trkpt>
<trkpt lat="49.1484140" lon="2.6762123">
<ele>76.31</ele>
<time>2018-12-30T09:43:04Z</time>
</trkpt>
<trkpt lat="49.1484075" lon="2.6762932">
<ele>77.28</ele>
<time>2018-12-30T09:43:06Z</time>
</trkpt>
<trkpt lat="49.1484065" lon="2.6763906">
<ele>77.58</ele>
<time>2018-12-30T09:43:08Z</time>
</trkpt>
<trkpt lat="49.1483995" lon="2.6764771">
<ele>77.61</ele>
<time>2018-12-30T09:43:10Z</time>
</trkpt>
<trkpt lat="49.1483909" lon="2.6765713">
<ele>76.91</ele>
<time>2018-12-30T09:43:12Z</time>
</trkpt>
<trkpt lat="49.1483789" lon="2.6766612">
<ele>76.64</ele>
<time>2018-12-30T09:43:14Z</time>
</trkpt>
<trkpt lat="49.1483693" lon="2.6767552">
<ele>76.61</ele>
<time>2018-12-30T09:43:16Z</time>
</trkpt>
<trkpt lat="49.1483623" lon="2.6768422">
<ele>76.61</ele>
<time>2018-12-30T09:43:18Z</time>
</trkpt>
<trkpt lat="49.1483539" lon="2.6769436">
<ele>76.61</ele>
<time>2018-12-30T09:43:20Z</time>
</trkpt>
<trkpt lat="49.1483474" lon="2.6770360">
<ele>76.61</ele>
<time>2018-12-30T09:43:22Z</time>
</trkpt>
<trkpt lat="49.1483409" lon="2.6771266">
<ele>76.61</ele>
<time>2018-12-30T09:43:24Z</time>
</trkpt>
<trkpt lat="49.1483390" lon="2.6772148">
<ele>77.31</ele>
<time>2018-12-30T09:43:26Z</time>
</trkpt>
<trkpt lat="49.1483339" lon="2.6773038">
<ele>76.67</ele>
<time>2018-12-30T09:43:28Z</time>
</trkpt>
<trkpt lat="49.1483252" lon="2.6773962">
<ele>77.53</ele>
<time>2018-12-30T09:43:30Z</time>
</trkpt>
<trkpt lat="49.1483129" lon="2.6774908">
<ele>77.60</ele>
<time>2018-12-30T09:43:32Z</time>
</trkpt>
<trkpt lat="49.1483060" lon="2.6775851">
<ele>76.70</ele>
<time>2018-12-30T09:43:34Z</time>
</trkpt>
<trkpt lat="49.1482946" lon="2.6776752">
<ele>76.62</ele>
<time>2018-12-30T09:43:36Z</time>
</trkpt>
<trkpt lat="49.1482827" lon="2.6777702">
<ele>76.61</ele>
<time>2018-12-30T09:43:38Z</time>
</trkpt>
<trkpt lat="49.1482802" lon="2.6778575">
<ele>76.61</ele>
<time>2018-12-30T09:43:40Z</time>
</trkpt>
<trkpt lat="49.1482765" lon="2.6779507">
<ele>76.61</ele>
<time>2018-12-30T09:43:42Z</time>
</trkpt>
<trkpt lat="49.1482655" lon="2.6780411">
<ele>77.31</ele>
<time>2018-12-30T09:43:44Z</time>
</trkpt>
<trkpt lat="49.1482550" lon="2.6781317">
<ele>76.67</ele>
<time>2018-12-30T09:43:46Z</time>
</trkpt>
<trkpt lat="49.1482454" lon="2.6782167">
<ele>77.53</ele>
<time>2018-12-30T09:43:48Z</time>
</trkpt>
<trkpt lat="49.1482419" lon="2.6783058">
<ele>77.60</ele>
<time>2018-12-30T09:43:50Z</time>
</trkpt>
<trkpt lat="49.1482377" lon="2.6783841">
<ele>77.61</ele>
<time>2018-12-30T09:43:52Z</time>
</trkpt>
<trkpt lat="49.1482270" lon="2.6784780">
<ele>77.61</ele>
<time>2018-12-30T09:43:54Z</time>
</trkpt>
<trkpt lat="49.1482182" lon="2.6785776">
<ele>78.31</ele>
<time>2018-12-30T09:43:56Z</time>
</trkpt>
<trkpt lat="49.1482077" lon="2.6786656">
<ele>78.58</ele>
<time>2018-12-30T09:43:58Z</time>
</trkpt>
<trkpt lat="49.1481947" lon="2.6787556">
<ele>79.52</ele>
<time>2018-12-30T09:44:00Z</time>
</trkpt>
<trkpt lat="49.1481784" lon="2.6788547">
<ele>79.60</ele>
<time>2018-12-30T09:44:02Z</time>
</trkpt>
<trkpt lat="49.1481707" lon="2.6789564">
<ele>79.61</ele>
<time>2018-12-30T09:44:04Z</time>
</trkpt>
<trkpt lat="49.1481598" lon="2.6790481">
<ele>79.61</ele>
<time>2018-12-30T09:44:06Z</time>
</trkpt>
<trkpt lat="49.1481510" lon="2.6791323">
<ele>80.31</ele>
<time>2018-12-30T09:44:08Z</time>
</trkpt>
<trkpt lat="49.1481418" lon="2.6792158">
<ele>80.58</ele>
<time>2018-12-30T09:44:10Z</time>
</trkpt>
<trkpt lat="49.1481408" lon="2.6793040">
<ele>80.40</ele>
<time>2018-12-30T09:44:12Z</time>
</trkpt>
<trkpt lat="49.1481388" lon="2.6793949">
<ele>79.68</ele>
<time>2018-12-30T09:44:14Z</time>
</trkpt>
<trkpt lat="49.1481310" lon="2.6794901">
<ele>79.62</ele>
<time>2018-12-30T09:44:16Z</time>
</trkpt>
<trkpt lat="49.1481196" lon="2.6795824">
<ele>79.61</ele>
<time>2018-12-30T09:44:18Z</time>
</trkpt>
<trkpt lat="49.1481157" lon="2.6796771">
<ele>78.70</ele>
<time>2018-12-30T09:44:20Z</time>
</trkpt>
<trkpt lat="49.1481139" lon="2.6797761">
<ele>78.62</ele>
<time>2018-12-30T09:44:22Z</time>
</trkpt>
<trkpt lat="49.1481028" lon="2.6798688">
<ele>77.91</ele>
<time>2018-12-30T09:44:24Z</time>
</trkpt>
<trkpt lat="49.1480883" lon="2.6799614">
<ele>77.64</ele>
<time>2018-12-30T09:44:26Z</time>
</trkpt>
<trkpt lat="49.1480745" lon="2.6800516">
<ele>77.61</ele>
<time>2018-12-30T09:44:28Z</time>
</trkpt>
<trkpt lat="49.1480712" lon="2.6801482">
<ele>78.52</ele>
<time>2018-12-30T09:44:30Z</time>
</trkpt>
<trkpt lat="49.1480637" lon="2.6802368">
<ele>77.90</ele>
<time>2018-12-30T09:44:32Z</time>
</trkpt>
<trkpt lat="49.1480520" lon="2.6803440">
<ele>77.64</ele>
<time>2018-12-30T09:44:34Z</time>
</trkpt>
<trkpt lat="49.1480468" lon="2.6804552">
<ele>77.61</ele>
<time>2018-12-30T09:44:36Z</time>
</trkpt>
<trkpt lat="49.1480405" lon="2.6805578">
<ele>77.61</ele>
<time>2018-12-30T09:44:38Z</time>
</trkpt>
<trkpt lat="49.1480256" lon="2.6806626">
<ele>77.61</ele>
<time>2018-12-30T09:44:40Z</time>
</trkpt>
<trkpt lat="49.1480165" lon="2.6807757">
<ele>77.40</ele>
<time>2018-12-30T09:44:42Z</time>
</trkpt>
<trkpt lat="49.1480093" lon="2.6808770">
<ele>77.59</ele>
<time>2018-12-30T09:44:44Z</time>
</trkpt>
<trkpt lat="49.1480019" lon="2.6809717">
<ele>76.91</ele>
<time>2018-12-30T09:44:46Z</time>
</trkpt>
<trkpt lat="49.1479975" lon="2.6810702">
<ele>77.34</ele>
<time>2018-12-30T09:44:48Z</time>
</trkpt>
<trkpt lat="49.1479908" lon="2.6811702">
<ele>76.68</ele>
<time>2018-12-30T09:44:50Z</time>
</trkpt>
<trkpt lat="49.1479790" lon="2.6812567">
<ele>76.83</ele>
<time>2018-12-30T09:44:52Z</time>
</trkpt>
<trkpt lat="49.1479758" lon="2.6813443">
<ele>76.63</ele>
<time>2018-12-30T09:44:54Z</time>
</trkpt>
<trkpt lat="49.1479624" lon="2.6814287">
<ele>77.52</ele>
<time>2018-12-30T09:44:56Z</time>
</trkpt>
<trkpt lat="49.1479577" lon="2.6815174">
<ele>77.60</ele>
<time>2018-12-30T09:44:58Z</time>
</trkpt>
<trkpt lat="49.1479410" lon="2.6816025">
<ele>77.61</ele>
<time>2018-12-30T09:45:00Z</time>
</trkpt>
<trkpt lat="49.1479202" lon="2.6816771">
<ele>78.31</ele>
<time>2018-12-30T09:45:02Z</time>
</trkpt>
<trkpt lat="49.1479084" lon="2.6817582">
<ele>79.28</ele>
<time>2018-12-30T09:45:04Z</time>
</trkpt>
<trkpt lat="49.1478977" lon="2.6818291">
<ele>79.58</ele>
<time>2018-12-30T09:45:06Z</time>
</trkpt>
<trkpt lat="49.1478797" lon="2.6819094">
<ele>78.70</ele>
<time>2018-12-30T09:45:08Z</time>
</trkpt>
<trkpt lat="49.1478710" lon="2.6819901">
<ele>77.92</ele>
<time>2018-12-30T09:45:10Z</time>
</trkpt>
<trkpt lat="49.1478779" lon="2.6820729">
<ele>77.62</ele>
<time>2018-12-30T09:45:13Z</time>
</trkpt>
<trkpt lat="49.1479006" lon="2.6821657">
<ele>78.31</ele>
<time>2018-12-30T09:45:16Z</time>
</trkpt>
<trkpt lat="49.1479178" lon="2.6822653">
<ele>78.60</ele>
<time>2018-12-30T09:45:19Z</time>
</trkpt>
<trkpt lat="49.1479221" lon="2.6823338">
<ele>79.52</ele>
<time>2018-12-30T09:45:21Z</time>
</trkpt>
<trkpt lat="49.1479161" lon="2.6824315">
<ele>79.61</ele>
<time>2018-12-30T09:45:24Z</time>
</trkpt>
<trkpt lat="49.1479058" lon="2.6825032">
<ele>79.61</ele>
<time>2018-12-30T09:45:26Z</time>
</trkpt>
<trkpt lat="49.1478809" lon="2.6825973">
<ele>78.70</ele>
<time>2018-12-30T09:45:29Z</time>
</trkpt>
<trkpt lat="49.1478653" lon="2.6826932">
<ele>77.91</ele>
<time>2018-12-30T09:45:32Z</time>
</trkpt>
<trkpt lat="49.1478405" lon="2.6827829">
<ele>78.32</ele>
<time>2018-12-30T09:45:35Z</time>
</trkpt>
<trkpt lat="49.1477911" lon="2.6828272">
<ele>78.60</ele>
<time>2018-12-30T09:45:38Z</time>
</trkpt>
<trkpt lat="49.1477342" lon="2.6828465">
<ele>78.61</ele>
<time>2018-12-30T09:45:42Z</time>
</trkpt>
<trkpt lat="49.1476795" lon="2.6828465">
<ele>77.91</ele>
<time>2018-12-30T09:45:46Z</time>
</trkpt>
<trkpt lat="49.1476337" lon="2.6828690">
<ele>76.91</ele>
<time>2018-12-30T09:45:50Z</time>
</trkpt>
<trkpt lat="49.1475899" lon="2.6828852">
<ele>76.62</ele>
<time>2018-12-30T09:45:53Z</time>
</trkpt>
<trkpt lat="49.1475348" lon="2.6829076">
<ele>76.61</ele>
<time>2018-12-30T09:45:57Z</time>
</trkpt>
<trkpt lat="49.1474927" lon="2.6829585">
<ele>75.56</ele>
<time>2018-12-30T09:46:01Z</time>
</trkpt>
<trkpt lat="49.1474634" lon="2.6830131">
<ele>75.61</ele>
<time>2018-12-30T09:46:04Z</time>
</trkpt>
<trkpt lat="49.1474265" lon="2.6830739">
<ele>75.61</ele>
<time>2018-12-30T09:46:07Z</time>
</trkpt>
<trkpt lat="49.1473928" lon="2.6831247">
<ele>75.61</ele>
<time>2018-12-30T09:46:10Z</time>
</trkpt>
<trkpt lat="49.1474188" lon="2.6830612">
<ele>75.58</ele>
<time>2018-12-30T10:10:17Z</time>
</trkpt>
<trkpt lat="49.1474494" lon="2.6829817">
<ele>76.31</ele>
<time>2018-12-30T10:10:21Z</time>
</trkpt>
<trkpt lat="49.1475086" lon="2.6829382">
<ele>76.60</ele>
<time>2018-12-30T10:10:24Z</time>
</trkpt>
<trkpt lat="49.1475548" lon="2.6829153">
<ele>77.31</ele>
<time>2018-12-30T10:10:26Z</time>
</trkpt>
<trkpt lat="49.1476049" lon="2.6828911">
<ele>77.58</ele>
<time>2018-12-30T10:10:28Z</time>
</trkpt>
<trkpt lat="49.1476561" lon="2.6828639">
<ele>77.61</ele>
<time>2018-12-30T10:10:30Z</time>
</trkpt>
<trkpt lat="49.1477067" lon="2.6828423">
<ele>77.61</ele>
<time>2018-12-30T10:10:32Z</time>
</trkpt>
<trkpt lat="49.1477708" lon="2.6828339">
<ele>78.31</ele>
<time>2018-12-30T10:10:34Z</time>
</trkpt>
<trkpt lat="49.1478590" lon="2.6828373">
<ele>80.19</ele>
<time>2018-12-30T10:10:36Z</time>
</trkpt>
<trkpt lat="49.1479443" lon="2.6828443">
<ele>80.57</ele>
<time>2018-12-30T10:10:38Z</time>
</trkpt>
<trkpt lat="49.1480264" lon="2.6828433">
<ele>80.61</ele>
<time>2018-12-30T10:10:40Z</time>
</trkpt>
<trkpt lat="49.1481099" lon="2.6828429">
<ele>80.61</ele>
<time>2018-12-30T10:10:42Z</time>
</trkpt>
<trkpt lat="49.1481819" lon="2.6828263">
<ele>81.52</ele>
<time>2018-12-30T10:10:44Z</time>
</trkpt>
<trkpt lat="49.1482444" lon="2.6828341">
<ele>81.60</ele>
<time>2018-12-30T10:10:46Z</time>
</trkpt>
<trkpt lat="49.1482936" lon="2.6828491">
<ele>81.61</ele>
<time>2018-12-30T10:10:48Z</time>
</trkpt>
<trkpt lat="49.1483452" lon="2.6828522">
<ele>81.61</ele>
<time>2018-12-30T10:10:52Z</time>
</trkpt>
<trkpt lat="49.1483981" lon="2.6828646">
<ele>81.61</ele>
<time>2018-12-30T10:11:01Z</time>
</trkpt>
<trkpt lat="49.1483525" lon="2.6828486">
<ele>79.61</ele>
<time>2018-12-30T10:11:17Z</time>
</trkpt>
<trkpt lat="49.1484084" lon="2.6828650">
<ele>79.58</ele>
<time>2018-12-30T10:11:31Z</time>
</trkpt>
<trkpt lat="49.1484537" lon="2.6828679">
<ele>80.31</ele>
<time>2018-12-30T10:11:36Z</time>
</trkpt>
<trkpt lat="49.1485101" lon="2.6828825">
<ele>79.85</ele>
<time>2018-12-30T10:11:45Z</time>
</trkpt>
<trkpt lat="49.1485578" lon="2.6828773">
<ele>80.54</ele>
<time>2018-12-30T10:11:47Z</time>
</trkpt>
<trkpt lat="49.1486242" lon="2.6828826">
<ele>81.51</ele>
<time>2018-12-30T10:11:49Z</time>
</trkpt>
<trkpt lat="49.1486987" lon="2.6828832">
<ele>82.30</ele>
<time>2018-12-30T10:11:51Z</time>
</trkpt>
<trkpt lat="49.1487573" lon="2.6828856">
<ele>80.42</ele>
<time>2018-12-30T10:11:52Z</time>
</trkpt>
<trkpt lat="49.1488066" lon="2.6828924">
<ele>79.85</ele>
<time>2018-12-30T10:11:53Z</time>
</trkpt>
<trkpt lat="49.1488619" lon="2.6828871">
<ele>78.98</ele>
<time>2018-12-30T10:11:54Z</time>
</trkpt>
<trkpt lat="49.1489106" lon="2.6828829">
<ele>78.72</ele>
<time>2018-12-30T10:11:55Z</time>
</trkpt>
<trkpt lat="49.1489583" lon="2.6828824">
<ele>77.94</ele>
<time>2018-12-30T10:11:56Z</time>
</trkpt>
<trkpt lat="49.1490111" lon="2.6828753">
<ele>77.71</ele>
<time>2018-12-30T10:11:57Z</time>
</trkpt>
<trkpt lat="49.1490577" lon="2.6828610">
<ele>77.64</ele>
<time>2018-12-30T10:11:58Z</time>
</trkpt>
<trkpt lat="49.1491027" lon="2.6828519">
<ele>77.62</ele>
<time>2018-12-30T10:11:59Z</time>
</trkpt>
<trkpt lat="49.1491710" lon="2.6828452">
<ele>77.61</ele>
<time>2018-12-30T10:12:01Z</time>
</trkpt>
<trkpt lat="49.1492292" lon="2.6828506">
<ele>78.52</ele>
<time>2018-12-30T10:12:03Z</time>
</trkpt>
<trkpt lat="49.1492882" lon="2.6828492">
<ele>79.30</ele>
<time>2018-12-30T10:12:05Z</time>
</trkpt>
<trkpt lat="49.1493434" lon="2.6828461">
<ele>79.58</ele>
<time>2018-12-30T10:12:07Z</time>
</trkpt>
<trkpt lat="49.1493986" lon="2.6828440">
<ele>80.52</ele>
<time>2018-12-30T10:12:09Z</time>
</trkpt>
<trkpt lat="49.1494671" lon="2.6828550">
<ele>81.30</ele>
<time>2018-12-30T10:12:11Z</time>
</trkpt>
<trkpt lat="49.1495283" lon="2.6828635">
<ele>81.58</ele>
<time>2018-12-30T10:12:13Z</time>
</trkpt>
<trkpt lat="49.1495974" lon="2.6828553">
<ele>81.61</ele>
<time>2018-12-30T10:12:15Z</time>
</trkpt>
<trkpt lat="49.1496639" lon="2.6828563">
<ele>81.61</ele>
<time>2018-12-30T10:12:17Z</time>
</trkpt>
<trkpt lat="49.1497193" lon="2.6828629">
<ele>82.31</ele>
<time>2018-12-30T10:12:19Z</time>
</trkpt>
<trkpt lat="49.1497709" lon="2.6828589">
<ele>82.58</ele>
<time>2018-12-30T10:12:21Z</time>
</trkpt>
<trkpt lat="49.1498235" lon="2.6828563">
<ele>82.61</ele>
<time>2018-12-30T10:12:23Z</time>
</trkpt>
<trkpt lat="49.1498757" lon="2.6828547">
<ele>83.31</ele>
<time>2018-12-30T10:12:25Z</time>
</trkpt>
<trkpt lat="49.1499248" lon="2.6828469">
<ele>83.58</ele>
<time>2018-12-30T10:12:27Z</time>
</trkpt>
<trkpt lat="49.1499748" lon="2.6828526">
<ele>84.31</ele>
<time>2018-12-30T10:12:29Z</time>
</trkpt>
<trkpt lat="49.1500352" lon="2.6828544">
<ele>85.51</ele>
<time>2018-12-30T10:12:32Z</time>
</trkpt>
<trkpt lat="49.1500849" lon="2.6828496">
<ele>85.60</ele>
<time>2018-12-30T10:12:34Z</time>
</trkpt>
<trkpt lat="49.1501397" lon="2.6828469">
<ele>86.52</ele>
<time>2018-12-30T10:12:36Z</time>
</trkpt>
<trkpt lat="49.1501940" lon="2.6828432">
<ele>86.60</ele>
<time>2018-12-30T10:12:38Z</time>
</trkpt>
<trkpt lat="49.1502485" lon="2.6828493">
<ele>86.61</ele>
<time>2018-12-30T10:12:40Z</time>
</trkpt>
<trkpt lat="49.1503048" lon="2.6828648">
<ele>87.52</ele>
<time>2018-12-30T10:12:42Z</time>
</trkpt>
<trkpt lat="49.1503511" lon="2.6828714">
<ele>88.30</ele>
<time>2018-12-30T10:12:44Z</time>
</trkpt>
<trkpt lat="49.1503998" lon="2.6828748">
<ele>88.58</ele>
<time>2018-12-30T10:12:46Z</time>
</trkpt>
<trkpt lat="49.1504497" lon="2.6828754">
<ele>89.52</ele>
<time>2018-12-30T10:12:48Z</time>
</trkpt>
<trkpt lat="49.1505011" lon="2.6828723">
<ele>90.30</ele>
<time>2018-12-30T10:12:50Z</time>
</trkpt>
<trkpt lat="49.1505579" lon="2.6828652">
<ele>90.58</ele>
<time>2018-12-30T10:12:52Z</time>
</trkpt>
<trkpt lat="49.1506124" lon="2.6828594">
<ele>91.31</ele>
<time>2018-12-30T10:12:54Z</time>
</trkpt>
<trkpt lat="49.1506669" lon="2.6828502">
<ele>91.58</ele>
<time>2018-12-30T10:12:56Z</time>
</trkpt>
<trkpt lat="49.1507240" lon="2.6828446">
<ele>91.61</ele>
<time>2018-12-30T10:12:58Z</time>
</trkpt>
<trkpt lat="49.1507790" lon="2.6828492">
<ele>91.61</ele>
<time>2018-12-30T10:13:00Z</time>
</trkpt>
<trkpt lat="49.1508392" lon="2.6828512">
<ele>90.91</ele>
<time>2018-12-30T10:13:02Z</time>
</trkpt>
<trkpt lat="49.1509129" lon="2.6828388">
<ele>89.94</ele>
<time>2018-12-30T10:13:04Z</time>
</trkpt>
<trkpt lat="49.1509813" lon="2.6828358">
<ele>88.94</ele>
<time>2018-12-30T10:13:06Z</time>
</trkpt>
<trkpt lat="49.1510537" lon="2.6828451">
<ele>87.94</ele>
<time>2018-12-30T10:13:08Z</time>
</trkpt>
<trkpt lat="49.1511270" lon="2.6828508">
<ele>86.03</ele>
<time>2018-12-30T10:13:10Z</time>
</trkpt>
<trkpt lat="49.1511970" lon="2.6828603">
<ele>84.04</ele>
<time>2018-12-30T10:13:12Z</time>
</trkpt>
<trkpt lat="49.1512728" lon="2.6828746">
<ele>82.95</ele>
<time>2018-12-30T10:13:14Z</time>
</trkpt>
<trkpt lat="49.1513517" lon="2.6828813">
<ele>81.03</ele>
<time>2018-12-30T10:13:16Z</time>
</trkpt>
<trkpt lat="49.1514281" lon="2.6828853">
<ele>79.95</ele>
<time>2018-12-30T10:13:18Z</time>
</trkpt>
<trkpt lat="49.1515085" lon="2.6828978">
<ele>78.03</ele>
<time>2018-12-30T10:13:20Z</time>
</trkpt>
<trkpt lat="49.1515825" lon="2.6829072">
<ele>76.74</ele>
<time>2018-12-30T10:13:22Z</time>
</trkpt>
<trkpt lat="49.1516590" lon="2.6829194">
<ele>75.01</ele>
<time>2018-12-30T10:13:24Z</time>
</trkpt>
<trkpt lat="49.1517385" lon="2.6829287">
<ele>71.43</ele>
<time>2018-12-30T10:13:26Z</time>
</trkpt>
<trkpt lat="49.1518150" lon="2.6829247">
<ele>69.98</ele>
<time>2018-12-30T10:13:28Z</time>
</trkpt>
<trkpt lat="49.1518961" lon="2.6829227">
<ele>69.64</ele>
<time>2018-12-30T10:13:30Z</time>
</trkpt>
<trkpt lat="49.1519750" lon="2.6829237">
<ele>68.70</ele>
<time>2018-12-30T10:13:32Z</time>
</trkpt>
<trkpt lat="49.1520497" lon="2.6829246">
<ele>68.62</ele>
<time>2018-12-30T10:13:34Z</time>
</trkpt>
<trkpt lat="49.1521182" lon="2.6829258">
<ele>69.31</ele>
<time>2018-12-30T10:13:36Z</time>
</trkpt>
<trkpt lat="49.1521862" lon="2.6829299">
<ele>69.58</ele>
<time>2018-12-30T10:13:38Z</time>
</trkpt>
<trkpt lat="49.1522528" lon="2.6829319">
<ele>69.61</ele>
<time>2018-12-30T10:13:40Z</time>
</trkpt>
<trkpt lat="49.1523194" lon="2.6829318">
<ele>69.61</ele>
<time>2018-12-30T10:13:42Z</time>
</trkpt>
<trkpt lat="49.1523838" lon="2.6829332">
<ele>69.61</ele>
<time>2018-12-30T10:13:44Z</time>
</trkpt>
<trkpt lat="49.1524488" lon="2.6829238">
<ele>70.52</ele>
<time>2018-12-30T10:13:46Z</time>
</trkpt>
<trkpt lat="49.1525145" lon="2.6829319">
<ele>70.60</ele>
<time>2018-12-30T10:13:48Z</time>
</trkpt>
<trkpt lat="49.1525807" lon="2.6829361">
<ele>70.61</ele>
<time>2018-12-30T10:13:50Z</time>
</trkpt>
<trkpt lat="49.1526466" lon="2.6829326">
<ele>70.61</ele>
<time>2018-12-30T10:13:52Z</time>
</trkpt>
<trkpt lat="49.1527096" lon="2.6829349">
<ele>71.52</ele>
<time>2018-12-30T10:13:54Z</time>
</trkpt>
<trkpt lat="49.1527731" lon="2.6829314">
<ele>71.60</ele>
<time>2018-12-30T10:13:56Z</time>
</trkpt>
<trkpt lat="49.1528376" lon="2.6829244">
<ele>71.61</ele>
<time>2018-12-30T10:13:58Z</time>
</trkpt>
<trkpt lat="49.1528981" lon="2.6829211">
<ele>71.61</ele>
<time>2018-12-30T10:14:00Z</time>
</trkpt>
<trkpt lat="49.1529559" lon="2.6829207">
<ele>71.61</ele>
<time>2018-12-30T10:14:02Z</time>
</trkpt>
<trkpt lat="49.1530041" lon="2.6829175">
<ele>71.61</ele>
<time>2018-12-30T10:14:04Z</time>
</trkpt>
<trkpt lat="49.1530672" lon="2.6829166">
<ele>71.61</ele>
<time>2018-12-30T10:14:07Z</time>
</trkpt>
<trkpt lat="49.1531224" lon="2.6829243">
<ele>71.61</ele>
<time>2018-12-30T10:14:10Z</time>
</trkpt>
<trkpt lat="49.1531736" lon="2.6829304">
<ele>71.61</ele>
<time>2018-12-30T10:14:12Z</time>
</trkpt>
<trkpt lat="49.1532213" lon="2.6829267">
<ele>71.61</ele>
<time>2018-12-30T10:14:14Z</time>
</trkpt>
<trkpt lat="49.1532698" lon="2.6829225">
<ele>71.61</ele>
<time>2018-12-30T10:14:16Z</time>
</trkpt>
<trkpt lat="49.1533147" lon="2.6829135">
<ele>71.61</ele>
<time>2018-12-30T10:14:18Z</time>
</trkpt>
<trkpt lat="49.1533779" lon="2.6829056">
<ele>70.64</ele>
<time>2018-12-30T10:14:21Z</time>
</trkpt>
<trkpt lat="49.1534344" lon="2.6829019">
<ele>71.31</ele>
<time>2018-12-30T10:14:23Z</time>
</trkpt>
<trkpt lat="49.1534875" lon="2.6828928">
<ele>71.58</ele>
<time>2018-12-30T10:14:25Z</time>
</trkpt>
<trkpt lat="49.1535395" lon="2.6828805">
<ele>71.61</ele>
<time>2018-12-30T10:14:27Z</time>
</trkpt>
<trkpt lat="49.1535926" lon="2.6828677">
<ele>71.61</ele>
<time>2018-12-30T10:14:29Z</time>
</trkpt>
<trkpt lat="49.1536473" lon="2.6828576">
<ele>71.61</ele>
<time>2018-12-30T10:14:31Z</time>
</trkpt>
<trkpt lat="49.1537019" lon="2.6828499">
<ele>71.61</ele>
<time>2018-12-30T10:14:33Z</time>
</trkpt>
<trkpt lat="49.1537621" lon="2.6828362">
<ele>70.91</ele>
<time>2018-12-30T10:14:35Z</time>
</trkpt>
<trkpt lat="49.1538255" lon="2.6828201">
<ele>70.64</ele>
<time>2018-12-30T10:14:37Z</time>
</trkpt>
<trkpt lat="49.1538894" lon="2.6828116">
<ele>70.61</ele>
<time>2018-12-30T10:14:39Z</time>
</trkpt>
<trkpt lat="49.1539518" lon="2.6827983">
<ele>70.61</ele>
<time>2018-12-30T10:14:41Z</time>
</trkpt>
<trkpt lat="49.1540139" lon="2.6827813">
<ele>70.61</ele>
<time>2018-12-30T10:14:43Z</time>
</trkpt>
<trkpt lat="49.1540778" lon="2.6827624">
<ele>70.61</ele>
<time>2018-12-30T10:14:45Z</time>
</trkpt>
<trkpt lat="49.1541440" lon="2.6827452">
<ele>70.61</ele>
<time>2018-12-30T10:14:47Z</time>
</trkpt>
<trkpt lat="49.1542078" lon="2.6827215">
<ele>69.91</ele>
<time>2018-12-30T10:14:49Z</time>
</trkpt>
<trkpt lat="49.1542726" lon="2.6827077">
<ele>69.64</ele>
<time>2018-12-30T10:14:51Z</time>
</trkpt>
<trkpt lat="49.1543339" lon="2.6826891">
<ele>70.31</ele>
<time>2018-12-30T10:14:53Z</time>
</trkpt>
<trkpt lat="49.1543945" lon="2.6826747">
<ele>70.58</ele>
<time>2018-12-30T10:14:55Z</time>
</trkpt>
<trkpt lat="49.1544570" lon="2.6826608">
<ele>70.61</ele>
<time>2018-12-30T10:14:57Z</time>
</trkpt>
<trkpt lat="49.1545222" lon="2.6826393">
<ele>70.61</ele>
<time>2018-12-30T10:14:59Z</time>
</trkpt>
<trkpt lat="49.1545854" lon="2.6826257">
<ele>70.61</ele>
<time>2018-12-30T10:15:01Z</time>
</trkpt>
<trkpt lat="49.1546465" lon="2.6826100">
<ele>70.61</ele>
<time>2018-12-30T10:15:03Z</time>
</trkpt>
<trkpt lat="49.1547030" lon="2.6825944">
<ele>70.61</ele>
<time>2018-12-30T10:15:05Z</time>
</trkpt>
<trkpt lat="49.1547584" lon="2.6825790">
<ele>70.61</ele>
<time>2018-12-30T10:15:07Z</time>
</trkpt>
<trkpt lat="49.1548213" lon="2.6825627">
<ele>70.61</ele>
<time>2018-12-30T10:15:09Z</time>
</trkpt>
<trkpt lat="49.1548877" lon="2.6825488">
<ele>70.61</ele>
<time>2018-12-30T10:15:11Z</time>
</trkpt>
<trkpt lat="49.1549545" lon="2.6825274">
<ele>69.70</ele>
<time>2018-12-30T10:15:13Z</time>
</trkpt>
<trkpt lat="49.1550187" lon="2.6825146">
<ele>69.62</ele>
<time>2018-12-30T10:15:15Z</time>
</trkpt>
<trkpt lat="49.1550820" lon="2.6825045">
<ele>69.61</ele>
<time>2018-12-30T10:15:17Z</time>
</trkpt>
<trkpt lat="49.1551464" lon="2.6824911">
<ele>69.61</ele>
<time>2018-12-30T10:15:19Z</time>
</trkpt>
<trkpt lat="49.1552144" lon="2.6824813">
<ele>69.61</ele>
<time>2018-12-30T10:15:21Z</time>
</trkpt>
<trkpt lat="49.1552798" lon="2.6824675">
<ele>69.61</ele>
<time>2018-12-30T10:15:23Z</time>
</trkpt>
<trkpt lat="49.1553484" lon="2.6824544">
<ele>69.61</ele>
<time>2018-12-30T10:15:25Z</time>
</trkpt>
<trkpt lat="49.1554190" lon="2.6824450">
<ele>70.31</ele>
<time>2018-12-30T10:15:27Z</time>
</trkpt>
<trkpt lat="49.1554912" lon="2.6824390">
<ele>69.67</ele>
<time>2018-12-30T10:15:29Z</time>
</trkpt>
<trkpt lat="49.1555575" lon="2.6824331">
<ele>68.92</ele>
<time>2018-12-30T10:15:31Z</time>
</trkpt>
<trkpt lat="49.1556253" lon="2.6824292">
<ele>68.64</ele>
<time>2018-12-30T10:15:33Z</time>
</trkpt>
<trkpt lat="49.1556880" lon="2.6824243">
<ele>69.31</ele>
<time>2018-12-30T10:15:35Z</time>
</trkpt>
<trkpt lat="49.1557470" lon="2.6824177">
<ele>69.37</ele>
<time>2018-12-30T10:15:37Z</time>
</trkpt>
<trkpt lat="49.1558109" lon="2.6824117">
<ele>69.59</ele>
<time>2018-12-30T10:15:39Z</time>
</trkpt>
<trkpt lat="49.1558792" lon="2.6824027">
<ele>69.61</ele>
<time>2018-12-30T10:15:41Z</time>
</trkpt>
<trkpt lat="49.1559415" lon="2.6823968">
<ele>69.61</ele>
<time>2018-12-30T10:15:43Z</time>
</trkpt>
<trkpt lat="49.1560027" lon="2.6823873">
<ele>69.61</ele>
<time>2018-12-30T10:15:45Z</time>
</trkpt>
<trkpt lat="49.1560609" lon="2.6823802">
<ele>69.61</ele>
<time>2018-12-30T10:15:47Z</time>
</trkpt>
<trkpt lat="49.1561218" lon="2.6823762">
<ele>69.61</ele>
<time>2018-12-30T10:15:49Z</time>
</trkpt>
<trkpt lat="49.1561809" lon="2.6823696">
<ele>69.61</ele>
<time>2018-12-30T10:15:51Z</time>
</trkpt>
<trkpt lat="49.1562428" lon="2.6823604">
<ele>69.61</ele>
<time>2018-12-30T10:15:53Z</time>
</trkpt>
<trkpt lat="49.1563026" lon="2.6823530">
<ele>70.31</ele>
<time>2018-12-30T10:15:55Z</time>
</trkpt>
<trkpt lat="49.1563678" lon="2.6823507">
<ele>70.58</ele>
<time>2018-12-30T10:15:57Z</time>
</trkpt>
<trkpt lat="49.1564303" lon="2.6823431">
<ele>70.61</ele>
<time>2018-12-30T10:15:59Z</time>
</trkpt>
<trkpt lat="49.1564931" lon="2.6823426">
<ele>70.61</ele>
<time>2018-12-30T10:16:01Z</time>
</trkpt>
<trkpt lat="49.1565584" lon="2.6823343">
<ele>70.61</ele>
<time>2018-12-30T10:16:03Z</time>
</trkpt>
<trkpt lat="49.1566161" lon="2.6823299">
<ele>70.61</ele>
<time>2018-12-30T10:16:05Z</time>
</trkpt>
<trkpt lat="49.1566761" lon="2.6823236">
<ele>70.61</ele>
<time>2018-12-30T10:16:07Z</time>
</trkpt>
<trkpt lat="49.1567373" lon="2.6823197">
<ele>70.61</ele>
<time>2018-12-30T10:16:09Z</time>
</trkpt>
<trkpt lat="49.1567982" lon="2.6823346">
<ele>70.61</ele>
<time>2018-12-30T10:16:11Z</time>
</trkpt>
<trkpt lat="49.1568527" lon="2.6823896">
<ele>70.61</ele>
<time>2018-12-30T10:16:13Z</time>
</trkpt>
<trkpt lat="49.1568845" lon="2.6824720">
<ele>69.70</ele>
<time>2018-12-30T10:16:15Z</time>
</trkpt>
<trkpt lat="49.1568986" lon="2.6825554">
<ele>69.62</ele>
<time>2018-12-30T10:16:17Z</time>
</trkpt>
<trkpt lat="49.1569035" lon="2.6826571">
<ele>69.61</ele>
<time>2018-12-30T10:16:19Z</time>
</trkpt>
<trkpt lat="49.1569096" lon="2.6827619">
<ele>69.61</ele>
<time>2018-12-30T10:16:21Z</time>
</trkpt>
<trkpt lat="49.1569143" lon="2.6828665">
<ele>69.61</ele>
<time>2018-12-30T10:16:23Z</time>
</trkpt>
<trkpt lat="49.1569240" lon="2.6829659">
<ele>69.61</ele>
<time>2018-12-30T10:16:25Z</time>
</trkpt>
<trkpt lat="49.1569328" lon="2.6830450">
<ele>69.61</ele>
<time>2018-12-30T10:16:28Z</time>
</trkpt>
<trkpt lat="49.1569377" lon="2.6831149">
<ele>68.61</ele>
<time>2018-12-30T10:16:33Z</time>
</trkpt>
<trkpt lat="49.1569442" lon="2.6831975">
<ele>68.61</ele>
<time>2018-12-30T10:16:36Z</time>
</trkpt>
<trkpt lat="49.1569501" lon="2.6832730">
<ele>68.55</ele>
<time>2018-12-30T10:16:39Z</time>
</trkpt>
<trkpt lat="49.1569509" lon="2.6833445">
<ele>68.61</ele>
<time>2018-12-30T10:16:42Z</time>
</trkpt>
<trkpt lat="49.1569556" lon="2.6834496">
<ele>69.52</ele>
<time>2018-12-30T10:16:45Z</time>
</trkpt>
<trkpt lat="49.1569566" lon="2.6835424">
<ele>68.69</ele>
<time>2018-12-30T10:16:47Z</time>
</trkpt>
<trkpt lat="49.1569620" lon="2.6836422">
<ele>68.62</ele>
<time>2018-12-30T10:16:49Z</time>
</trkpt>
<trkpt lat="49.1569679" lon="2.6837457">
<ele>68.61</ele>
<time>2018-12-30T10:16:51Z</time>
</trkpt>
<trkpt lat="49.1569728" lon="2.6838542">
<ele>67.91</ele>
<time>2018-12-30T10:16:53Z</time>
</trkpt>
<trkpt lat="49.1569730" lon="2.6839713">
<ele>66.73</ele>
<time>2018-12-30T10:16:55Z</time>
</trkpt>
<trkpt lat="49.1569716" lon="2.6840893">
<ele>67.53</ele>
<time>2018-12-30T10:16:57Z</time>
</trkpt>
<trkpt lat="49.1569613" lon="2.6842161">
<ele>67.60</ele>
<time>2018-12-30T10:16:59Z</time>
</trkpt>
<trkpt lat="49.1569499" lon="2.6843426">
<ele>66.91</ele>
<time>2018-12-30T10:17:01Z</time>
</trkpt>
<trkpt lat="49.1569359" lon="2.6844679">
<ele>66.64</ele>
<time>2018-12-30T10:17:03Z</time>
</trkpt>
<trkpt lat="49.1569165" lon="2.6845851">
<ele>66.61</ele>
<time>2018-12-30T10:17:05Z</time>
</trkpt>
<trkpt lat="49.1568970" lon="2.6846948">
<ele>66.61</ele>
<time>2018-12-30T10:17:07Z</time>
</trkpt>
<trkpt lat="49.1568673" lon="2.6847942">
<ele>66.61</ele>
<time>2018-12-30T10:17:09Z</time>
</trkpt>
<trkpt lat="49.1568364" lon="2.6849232">
<ele>66.61</ele>
<time>2018-12-30T10:17:11Z</time>
</trkpt>
<trkpt lat="49.1568038" lon="2.6850470">
<ele>66.61</ele>
<time>2018-12-30T10:17:13Z</time>
</trkpt>
<trkpt lat="49.1567649" lon="2.6851693">
<ele>66.61</ele>
<time>2018-12-30T10:17:15Z</time>
</trkpt>
<trkpt lat="49.1567312" lon="2.6852881">
<ele>66.61</ele>
<time>2018-12-30T10:17:17Z</time>
</trkpt>
<trkpt lat="49.1566974" lon="2.6854090">
<ele>66.40</ele>
<time>2018-12-30T10:17:19Z</time>
</trkpt>
<trkpt lat="49.1566803" lon="2.6854763">
<ele>66.55</ele>
<time>2018-12-30T10:17:20Z</time>
</trkpt>
<trkpt lat="49.1566577" lon="2.6855390">
<ele>66.59</ele>
<time>2018-12-30T10:17:21Z</time>
</trkpt>
<trkpt lat="49.1566313" lon="2.6856572">
<ele>65.70</ele>
<time>2018-12-30T10:17:23Z</time>
</trkpt>
<trkpt lat="49.1565910" lon="2.6857745">
<ele>65.62</ele>
<time>2018-12-30T10:17:25Z</time>
</trkpt>
<trkpt lat="49.1565566" lon="2.6858958">
<ele>65.61</ele>
<time>2018-12-30T10:17:27Z</time>
</trkpt>
<trkpt lat="49.1565179" lon="2.6860103">
<ele>66.52</ele>
<time>2018-12-30T10:17:29Z</time>
</trkpt>
<trkpt lat="49.1564859" lon="2.6861205">
<ele>65.69</ele>
<time>2018-12-30T10:17:31Z</time>
</trkpt>
<trkpt lat="49.1564519" lon="2.6862286">
<ele>65.62</ele>
<time>2018-12-30T10:17:33Z</time>
</trkpt>
<trkpt lat="49.1564164" lon="2.6863427">
<ele>65.61</ele>
<time>2018-12-30T10:17:35Z</time>
</trkpt>
<trkpt lat="49.1563850" lon="2.6864560">
<ele>65.61</ele>
<time>2018-12-30T10:17:37Z</time>
</trkpt>
<trkpt lat="49.1563563" lon="2.6865672">
<ele>65.61</ele>
<time>2018-12-30T10:17:39Z</time>
</trkpt>
<trkpt lat="49.1563259" lon="2.6866796">
<ele>65.61</ele>
<time>2018-12-30T10:17:41Z</time>
</trkpt>
<trkpt lat="49.1562982" lon="2.6867831">
<ele>65.61</ele>
<time>2018-12-30T10:17:43Z</time>
</trkpt>
<trkpt lat="49.1562659" lon="2.6868954">
<ele>65.61</ele>
<time>2018-12-30T10:17:45Z</time>
</trkpt>
<trkpt lat="49.1562326" lon="2.6870061">
<ele>65.61</ele>
<time>2018-12-30T10:17:47Z</time>
</trkpt>
<trkpt lat="49.1562039" lon="2.6871149">
<ele>65.61</ele>
<time>2018-12-30T10:17:49Z</time>
</trkpt>
<trkpt lat="49.1561696" lon="2.6872221">
<ele>65.61</ele>
<time>2018-12-30T10:17:51Z</time>
</trkpt>
<trkpt lat="49.1561304" lon="2.6873477">
<ele>65.61</ele>
<time>2018-12-30T10:17:53Z</time>
</trkpt>
<trkpt lat="49.1561130" lon="2.6874142">
<ele>65.61</ele>
<time>2018-12-30T10:17:54Z</time>
</trkpt>
<trkpt lat="49.1560796" lon="2.6875385">
<ele>65.61</ele>
<time>2018-12-30T10:17:56Z</time>
</trkpt>
<trkpt lat="49.1560603" lon="2.6876069">
<ele>65.61</ele>
<time>2018-12-30T10:17:57Z</time>
</trkpt>
<trkpt lat="49.1560402" lon="2.6876711">
<ele>65.61</ele>
<time>2018-12-30T10:17:58Z</time>
</trkpt>
<trkpt lat="49.1560201" lon="2.6877326">
<ele>65.61</ele>
<time>2018-12-30T10:17:59Z</time>
</trkpt>
<trkpt lat="49.1560016" lon="2.6877987">
<ele>65.61</ele>
<time>2018-12-30T10:18:00Z</time>
</trkpt>
<trkpt lat="49.1559825" lon="2.6878623">
<ele>65.61</ele>
<time>2018-12-30T10:18:01Z</time>
</trkpt>
<trkpt lat="49.1559609" lon="2.6879254">
<ele>65.61</ele>
<time>2018-12-30T10:18:02Z</time>
</trkpt>
<trkpt lat="49.1559387" lon="2.6879900">
<ele>65.61</ele>
<time>2018-12-30T10:18:03Z</time>
</trkpt>
<trkpt lat="49.1558997" lon="2.6881138">
<ele>66.52</ele>
<time>2018-12-30T10:18:05Z</time>
</trkpt>
<trkpt lat="49.1558771" lon="2.6881751">
<ele>66.58</ele>
<time>2018-12-30T10:18:06Z</time>
</trkpt>
<trkpt lat="49.1558593" lon="2.6882383">
<ele>66.60</ele>
<time>2018-12-30T10:18:07Z</time>
</trkpt>
<trkpt lat="49.1558395" lon="2.6883003">
<ele>66.61</ele>
<time>2018-12-30T10:18:08Z</time>
</trkpt>
<trkpt lat="49.1558020" lon="2.6884229">
<ele>66.61</ele>
<time>2018-12-30T10:18:10Z</time>
</trkpt>
<trkpt lat="49.1557687" lon="2.6885412">
<ele>66.61</ele>
<time>2018-12-30T10:18:12Z</time>
</trkpt>
<trkpt lat="49.1557504" lon="2.6886570">
<ele>66.61</ele>
<time>2018-12-30T10:18:14Z</time>
</trkpt>
<trkpt lat="49.1557539" lon="2.6887955">
<ele>66.61</ele>
<time>2018-12-30T10:18:16Z</time>
</trkpt>
<trkpt lat="49.1557645" lon="2.6888685">
<ele>65.91</ele>
<time>2018-12-30T10:18:17Z</time>
</trkpt>
<trkpt lat="49.1557802" lon="2.6889332">
<ele>65.70</ele>
<time>2018-12-30T10:18:18Z</time>
</trkpt>
<trkpt lat="49.1558025" lon="2.6889934">
<ele>65.64</ele>
<time>2018-12-30T10:18:19Z</time>
</trkpt>
<trkpt lat="49.1558495" lon="2.6891032">
<ele>65.82</ele>
<time>2018-12-30T10:18:21Z</time>
</trkpt>
<trkpt lat="49.1559037" lon="2.6892047">
<ele>66.54</ele>
<time>2018-12-30T10:18:23Z</time>
</trkpt>
<trkpt lat="49.1559623" lon="2.6893011">
<ele>65.69</ele>
<time>2018-12-30T10:18:25Z</time>
</trkpt>
<trkpt lat="49.1560314" lon="2.6893838">
<ele>65.62</ele>
<time>2018-12-30T10:18:27Z</time>
</trkpt>
<trkpt lat="49.1560941" lon="2.6894667">
<ele>65.61</ele>
<time>2018-12-30T10:18:29Z</time>
</trkpt>
<trkpt lat="49.1561637" lon="2.6895330">
<ele>66.31</ele>
<time>2018-12-30T10:18:31Z</time>
</trkpt>
<trkpt lat="49.1562398" lon="2.6895871">
<ele>66.58</ele>
<time>2018-12-30T10:18:33Z</time>
</trkpt>
<trkpt lat="49.1563202" lon="2.6896429">
<ele>67.31</ele>
<time>2018-12-30T10:18:35Z</time>
</trkpt>
<trkpt lat="49.1564046" lon="2.6896951">
<ele>67.58</ele>
<time>2018-12-30T10:18:37Z</time>
</trkpt>
<trkpt lat="49.1564482" lon="2.6897143">
<ele>67.60</ele>
<time>2018-12-30T10:18:38Z</time>
</trkpt>
<trkpt lat="49.1565279" lon="2.6897608">
<ele>67.61</ele>
<time>2018-12-30T10:18:40Z</time>
</trkpt>
<trkpt lat="49.1566009" lon="2.6898062">
<ele>67.61</ele>
<time>2018-12-30T10:18:42Z</time>
</trkpt>
<trkpt lat="49.1566805" lon="2.6898526">
<ele>67.61</ele>
<time>2018-12-30T10:18:44Z</time>
</trkpt>
<trkpt lat="49.1567652" lon="2.6898816">
<ele>67.61</ele>
<time>2018-12-30T10:18:46Z</time>
</trkpt>
<trkpt lat="49.1568485" lon="2.6899233">
<ele>67.61</ele>
<time>2018-12-30T10:18:48Z</time>
</trkpt>
<trkpt lat="49.1569330" lon="2.6899558">
<ele>67.61</ele>
<time>2018-12-30T10:18:50Z</time>
</trkpt>
<trkpt lat="49.1570166" lon="2.6899899">
<ele>67.61</ele>
<time>2018-12-30T10:18:52Z</time>
</trkpt>
<trkpt lat="49.1570972" lon="2.6900262">
<ele>67.61</ele>
<time>2018-12-30T10:18:54Z</time>
</trkpt>
<trkpt lat="49.1571778" lon="2.6900624">
<ele>67.61</ele>
<time>2018-12-30T10:18:56Z</time>
</trkpt>
<trkpt lat="49.1572555" lon="2.6900948">
<ele>67.61</ele>
<time>2018-12-30T10:18:58Z</time>
</trkpt>
<trkpt lat="49.1573360" lon="2.6901318">
<ele>67.61</ele>
<time>2018-12-30T10:19:00Z</time>
</trkpt>
<trkpt lat="49.1574062" lon="2.6901709">
<ele>67.61</ele>
<time>2018-12-30T10:19:02Z</time>
</trkpt>
<trkpt lat="49.1574832" lon="2.6902131">
<ele>67.61</ele>
<time>2018-12-30T10:19:04Z</time>
</trkpt>
<trkpt lat="49.1575558" lon="2.6902480">
<ele>68.31</ele>
<time>2018-12-30T10:19:06Z</time>
</trkpt>
<trkpt lat="49.1576712" lon="2.6903067">
<ele>68.58</ele>
<time>2018-12-30T10:19:09Z</time>
</trkpt>
<trkpt lat="49.1577468" lon="2.6903446">
<ele>68.61</ele>
<time>2018-12-30T10:19:11Z</time>
</trkpt>
<trkpt lat="49.1578174" lon="2.6903891">
<ele>68.61</ele>
<time>2018-12-30T10:19:13Z</time>
</trkpt>
<trkpt lat="49.1578911" lon="2.6904292">
<ele>68.61</ele>
<time>2018-12-30T10:19:15Z</time>
</trkpt>
<trkpt lat="49.1579622" lon="2.6904718">
<ele>69.31</ele>
<time>2018-12-30T10:19:17Z</time>
</trkpt>
<trkpt lat="49.1580364" lon="2.6905172">
<ele>69.58</ele>
<time>2018-12-30T10:19:19Z</time>
</trkpt>
<trkpt lat="49.1581074" lon="2.6905674">
<ele>69.61</ele>
<time>2018-12-30T10:19:21Z</time>
</trkpt>
<trkpt lat="49.1581857" lon="2.6906265">
<ele>69.61</ele>
<time>2018-12-30T10:19:23Z</time>
</trkpt>
<trkpt lat="49.1582650" lon="2.6906835">
<ele>69.61</ele>
<time>2018-12-30T10:19:25Z</time>
</trkpt>
<trkpt lat="49.1583386" lon="2.6907425">
<ele>68.70</ele>
<time>2018-12-30T10:19:27Z</time>
</trkpt>
<trkpt lat="49.1584007" lon="2.6907814">
<ele>69.53</ele>
<time>2018-12-30T10:19:29Z</time>
</trkpt>
<trkpt lat="49.1584535" lon="2.6908358">
<ele>69.60</ele>
<time>2018-12-30T10:19:31Z</time>
</trkpt>
<trkpt lat="49.1584680" lon="2.6909406">
<ele>69.61</ele>
<time>2018-12-30T10:19:33Z</time>
</trkpt>
<trkpt lat="49.1584747" lon="2.6910639">
<ele>68.91</ele>
<time>2018-12-30T10:19:35Z</time>
</trkpt>
<trkpt lat="49.1584933" lon="2.6911869">
<ele>68.64</ele>
<time>2018-12-30T10:19:37Z</time>
</trkpt>
<trkpt lat="49.1584979" lon="2.6912597">
<ele>68.62</ele>
<time>2018-12-30T10:19:38Z</time>
</trkpt>
<trkpt lat="49.1585026" lon="2.6913400">
<ele>68.61</ele>
<time>2018-12-30T10:19:39Z</time>
</trkpt>
<trkpt lat="49.1585150" lon="2.6914256">
<ele>68.61</ele>
<time>2018-12-30T10:19:40Z</time>
</trkpt>
<trkpt lat="49.1585280" lon="2.6915134">
<ele>68.61</ele>
<time>2018-12-30T10:19:41Z</time>
</trkpt>
<trkpt lat="49.1585377" lon="2.6916044">
<ele>69.31</ele>
<time>2018-12-30T10:19:42Z</time>
</trkpt>
<trkpt lat="49.1585468" lon="2.6916984">
<ele>69.52</ele>
<time>2018-12-30T10:19:43Z</time>
</trkpt>
<trkpt lat="49.1585546" lon="2.6917923">
<ele>69.58</ele>
<time>2018-12-30T10:19:44Z</time>
</trkpt>
<trkpt lat="49.1585630" lon="2.6918861">
<ele>69.60</ele>
<time>2018-12-30T10:19:45Z</time>
</trkpt>
<trkpt lat="49.1585749" lon="2.6919780">
<ele>70.31</ele>
<time>2018-12-30T10:19:46Z</time>
</trkpt>
<trkpt lat="49.1585860" lon="2.6920714">
<ele>70.52</ele>
<time>2018-12-30T10:19:47Z</time>
</trkpt>
<trkpt lat="49.1585984" lon="2.6921659">
<ele>70.58</ele>
<time>2018-12-30T10:19:48Z</time>
</trkpt>
<trkpt lat="49.1586088" lon="2.6922601">
<ele>70.60</ele>
<time>2018-12-30T10:19:49Z</time>
</trkpt>
<trkpt lat="49.1586233" lon="2.6923544">
<ele>70.61</ele>
<time>2018-12-30T10:19:50Z</time>
</trkpt>
<trkpt lat="49.1586386" lon="2.6924514">
<ele>70.61</ele>
<time>2018-12-30T10:19:51Z</time>
</trkpt>
<trkpt lat="49.1586513" lon="2.6925464">
<ele>71.31</ele>
<time>2018-12-30T10:19:52Z</time>
</trkpt>
<trkpt lat="49.1586621" lon="2.6926466">
<ele>71.52</ele>
<time>2018-12-30T10:19:53Z</time>
</trkpt>
<trkpt lat="49.1586751" lon="2.6927436">
<ele>71.58</ele>
<time>2018-12-30T10:19:54Z</time>
</trkpt>
<trkpt lat="49.1586906" lon="2.6928342">
<ele>71.60</ele>
<time>2018-12-30T10:19:55Z</time>
</trkpt>
<trkpt lat="49.1587026" lon="2.6929248">
<ele>71.61</ele>
<time>2018-12-30T10:19:56Z</time>
</trkpt>
<trkpt lat="49.1587178" lon="2.6930216">
<ele>71.61</ele>
<time>2018-12-30T10:19:57Z</time>
</trkpt>
<trkpt lat="49.1587294" lon="2.6931163">
<ele>71.61</ele>
<time>2018-12-30T10:19:58Z</time>
</trkpt>
<trkpt lat="49.1587387" lon="2.6932098">
<ele>71.61</ele>
<time>2018-12-30T10:19:59Z</time>
</trkpt>
<trkpt lat="49.1587467" lon="2.6933064">
<ele>71.61</ele>
<time>2018-12-30T10:20:00Z</time>
</trkpt>
<trkpt lat="49.1587566" lon="2.6933990">
<ele>71.61</ele>
<time>2018-12-30T10:20:01Z</time>
</trkpt>
<trkpt lat="49.1587656" lon="2.6934941">
<ele>71.61</ele>
<time>2018-12-30T10:20:02Z</time>
</trkpt>
<trkpt lat="49.1587740" lon="2.6935956">
<ele>71.61</ele>
<time>2018-12-30T10:20:03Z</time>
</trkpt>
<trkpt lat="49.1587836" lon="2.6936918">
<ele>71.61</ele>
<time>2018-12-30T10:20:04Z</time>
</trkpt>
<trkpt lat="49.1587937" lon="2.6937899">
<ele>71.61</ele>
<time>2018-12-30T10:20:05Z</time>
</trkpt>
<trkpt lat="49.1588056" lon="2.6938818">
<ele>71.61</ele>
<time>2018-12-30T10:20:06Z</time>
</trkpt>
<trkpt lat="49.1588149" lon="2.6939767">
<ele>71.61</ele>
<time>2018-12-30T10:20:07Z</time>
</trkpt>
<trkpt lat="49.1588255" lon="2.6940740">
<ele>72.31</ele>
<time>2018-12-30T10:20:08Z</time>
</trkpt>
<trkpt lat="49.1588357" lon="2.6941681">
<ele>72.52</ele>
<time>2018-12-30T10:20:09Z</time>
</trkpt>
<trkpt lat="49.1588459" lon="2.6942624">
<ele>72.58</ele>
<time>2018-12-30T10:20:10Z</time>
</trkpt>
<trkpt lat="49.1588546" lon="2.6943562">
<ele>71.90</ele>
<time>2018-12-30T10:20:11Z</time>
</trkpt>
<trkpt lat="49.1588646" lon="2.6944473">
<ele>71.70</ele>
<time>2018-12-30T10:20:12Z</time>
</trkpt>
<trkpt lat="49.1588760" lon="2.6945398">
<ele>72.34</ele>
<time>2018-12-30T10:20:13Z</time>
</trkpt>
<trkpt lat="49.1588855" lon="2.6946328">
<ele>72.53</ele>
<time>2018-12-30T10:20:14Z</time>
</trkpt>
<trkpt lat="49.1588981" lon="2.6947245">
<ele>72.59</ele>
<time>2018-12-30T10:20:15Z</time>
</trkpt>
<trkpt lat="49.1589095" lon="2.6948216">
<ele>72.60</ele>
<time>2018-12-30T10:20:16Z</time>
</trkpt>
<trkpt lat="49.1589173" lon="2.6949209">
<ele>72.61</ele>
<time>2018-12-30T10:20:17Z</time>
</trkpt>
<trkpt lat="49.1589249" lon="2.6950197">
<ele>72.61</ele>
<time>2018-12-30T10:20:18Z</time>
</trkpt>
<trkpt lat="49.1589359" lon="2.6951176">
<ele>72.61</ele>
<time>2018-12-30T10:20:19Z</time>
</trkpt>
<trkpt lat="49.1589462" lon="2.6952099">
<ele>72.61</ele>
<time>2018-12-30T10:20:20Z</time>
</trkpt>
<trkpt lat="49.1589631" lon="2.6953037">
<ele>72.61</ele>
<time>2018-12-30T10:20:21Z</time>
</trkpt>
<trkpt lat="49.1589793" lon="2.6953946">
<ele>72.61</ele>
<time>2018-12-30T10:20:22Z</time>
</trkpt>
<trkpt lat="49.1589928" lon="2.6954876">
<ele>72.61</ele>
<time>2018-12-30T10:20:23Z</time>
</trkpt>
<trkpt lat="49.1590025" lon="2.6955884">
<ele>72.61</ele>
<time>2018-12-30T10:20:24Z</time>
</trkpt>
<trkpt lat="49.1590129" lon="2.6956859">
<ele>72.61</ele>
<time>2018-12-30T10:20:25Z</time>
</trkpt>
<trkpt lat="49.1590224" lon="2.6957770">
<ele>73.31</ele>
<time>2018-12-30T10:20:26Z</time>
</trkpt>
<trkpt lat="49.1590312" lon="2.6958662">
<ele>73.52</ele>
<time>2018-12-30T10:20:27Z</time>
</trkpt>
<trkpt lat="49.1590333" lon="2.6959526">
<ele>73.58</ele>
<time>2018-12-30T10:20:28Z</time>
</trkpt>
<trkpt lat="49.1590368" lon="2.6960344">
<ele>73.60</ele>
<time>2018-12-30T10:20:29Z</time>
</trkpt>
<trkpt lat="49.1590530" lon="2.6961098">
<ele>73.61</ele>
<time>2018-12-30T10:20:30Z</time>
</trkpt>
<trkpt lat="49.1590683" lon="2.6961810">
<ele>73.61</ele>
<time>2018-12-30T10:20:31Z</time>
</trkpt>
<trkpt lat="49.1591042" lon="2.6962949">
<ele>73.61</ele>
<time>2018-12-30T10:20:33Z</time>
</trkpt>
<trkpt lat="49.1591271" lon="2.6963606">
<ele>73.61</ele>
<time>2018-12-30T10:20:34Z</time>
</trkpt>
<trkpt lat="49.1591357" lon="2.6964341">
<ele>74.31</ele>
<time>2018-12-30T10:20:35Z</time>
</trkpt>
<trkpt lat="49.1591143" lon="2.6965737">
<ele>74.58</ele>
<time>2018-12-30T10:20:37Z</time>
</trkpt>
<trkpt lat="49.1591302" lon="2.6967003">
<ele>75.31</ele>
<time>2018-12-30T10:20:39Z</time>
</trkpt>
<trkpt lat="49.1591428" lon="2.6967667">
<ele>75.52</ele>
<time>2018-12-30T10:20:40Z</time>
</trkpt>
<trkpt lat="49.1591519" lon="2.6968374">
<ele>75.58</ele>
<time>2018-12-30T10:20:41Z</time>
</trkpt>
<trkpt lat="49.1591589" lon="2.6969118">
<ele>76.30</ele>
<time>2018-12-30T10:20:42Z</time>
</trkpt>
<trkpt lat="49.1591763" lon="2.6970382">
<ele>77.28</ele>
<time>2018-12-30T10:20:44Z</time>
</trkpt>
<trkpt lat="49.1591996" lon="2.6971341">
<ele>77.58</ele>
<time>2018-12-30T10:20:46Z</time>
</trkpt>
<trkpt lat="49.1592012" lon="2.6972465">
<ele>78.52</ele>
<time>2018-12-30T10:20:48Z</time>
</trkpt>
<trkpt lat="49.1592099" lon="2.6973690">
<ele>79.51</ele>
<time>2018-12-30T10:20:50Z</time>
</trkpt>
<trkpt lat="49.1592318" lon="2.6974853">
<ele>79.60</ele>
<time>2018-12-30T10:20:52Z</time>
</trkpt>
<trkpt lat="49.1592551" lon="2.6975994">
<ele>80.52</ele>
<time>2018-12-30T10:20:54Z</time>
</trkpt>
<trkpt lat="49.1592778" lon="2.6977179">
<ele>81.30</ele>
<time>2018-12-30T10:20:56Z</time>
</trkpt>
<trkpt lat="49.1592899" lon="2.6978384">
<ele>81.58</ele>
<time>2018-12-30T10:20:58Z</time>
</trkpt>
<trkpt lat="49.1593048" lon="2.6979662">
<ele>81.61</ele>
<time>2018-12-30T10:21:00Z</time>
</trkpt>
<trkpt lat="49.1593228" lon="2.6980782">
<ele>81.82</ele>
<time>2018-12-30T10:21:02Z</time>
</trkpt>
<trkpt lat="49.1593402" lon="2.6981840">
<ele>81.63</ele>
<time>2018-12-30T10:21:04Z</time>
</trkpt>
<trkpt lat="49.1593545" lon="2.6982964">
<ele>81.61</ele>
<time>2018-12-30T10:21:06Z</time>
</trkpt>
<trkpt lat="49.1593716" lon="2.6984092">
<ele>80.91</ele>
<time>2018-12-30T10:21:08Z</time>
</trkpt>
<trkpt lat="49.1593825" lon="2.6985352">
<ele>80.85</ele>
<time>2018-12-30T10:21:10Z</time>
</trkpt>
<trkpt lat="49.1593894" lon="2.6986517">
<ele>80.63</ele>
<time>2018-12-30T10:21:12Z</time>
</trkpt>
<trkpt lat="49.1594167" lon="2.6987795">
<ele>81.52</ele>
<time>2018-12-30T10:21:14Z</time>
</trkpt>
<trkpt lat="49.1594306" lon="2.6988859">
<ele>81.60</ele>
<time>2018-12-30T10:21:16Z</time>
</trkpt>
<trkpt lat="49.1594515" lon="2.6989737">
<ele>81.61</ele>
<time>2018-12-30T10:21:18Z</time>
</trkpt>
<trkpt lat="49.1594716" lon="2.6990835">
<ele>81.61</ele>
<time>2018-12-30T10:21:20Z</time>
</trkpt>
<trkpt lat="49.1594579" lon="2.6991524">
<ele>80.91</ele>
<time>2018-12-30T10:21:21Z</time>
</trkpt>
<trkpt lat="49.1594225" lon="2.6992602">
<ele>79.73</ele>
<time>2018-12-30T10:21:23Z</time>
</trkpt>
<trkpt lat="49.1594016" lon="2.6993221">
<ele>78.95</ele>
<time>2018-12-30T10:21:24Z</time>
</trkpt>
<trkpt lat="49.1593550" lon="2.6994286">
<ele>78.64</ele>
<time>2018-12-30T10:21:26Z</time>
</trkpt>
<trkpt lat="49.1592868" lon="2.6995140">
<ele>78.61</ele>
<time>2018-12-30T10:21:28Z</time>
</trkpt>
<trkpt lat="49.1592444" lon="2.6995413">
<ele>77.91</ele>
<time>2018-12-30T10:21:29Z</time>
</trkpt>
<trkpt lat="49.1592019" lon="2.6995676">
<ele>77.70</ele>
<time>2018-12-30T10:21:30Z</time>
</trkpt>
<trkpt lat="49.1591217" lon="2.6996094">
<ele>77.62</ele>
<time>2018-12-30T10:21:32Z</time>
</trkpt>
<trkpt lat="49.1590400" lon="2.6996644">
<ele>77.61</ele>
<time>2018-12-30T10:21:34Z</time>
</trkpt>
<trkpt lat="49.1589928" lon="2.6996953">
<ele>77.61</ele>
<time>2018-12-30T10:21:35Z</time>
</trkpt>
<trkpt lat="49.1589449" lon="2.6997246">
<ele>76.91</ele>
<time>2018-12-30T10:21:36Z</time>
</trkpt>
<trkpt lat="49.1589002" lon="2.6997575">
<ele>76.70</ele>
<time>2018-12-30T10:21:37Z</time>
</trkpt>
<trkpt lat="49.1588553" lon="2.6997876">
<ele>76.64</ele>
<time>2018-12-30T10:21:38Z</time>
</trkpt>
<trkpt lat="49.1588120" lon="2.6998169">
<ele>76.62</ele>
<time>2018-12-30T10:21:39Z</time>
</trkpt>
<trkpt lat="49.1587704" lon="2.6998519">
<ele>76.61</ele>
<time>2018-12-30T10:21:40Z</time>
</trkpt>
<trkpt lat="49.1587270" lon="2.6998879">
<ele>76.61</ele>
<time>2018-12-30T10:21:41Z</time>
</trkpt>
<trkpt lat="49.1586830" lon="2.6999206">
<ele>76.61</ele>
<time>2018-12-30T10:21:42Z</time>
</trkpt>
<trkpt lat="49.1586374" lon="2.6999533">
<ele>76.61</ele>
<time>2018-12-30T10:21:43Z</time>
</trkpt>
<trkpt lat="49.1585930" lon="2.6999870">
<ele>75.91</ele>
<time>2018-12-30T10:21:44Z</time>
</trkpt>
<trkpt lat="49.1585482" lon="2.7000243">
<ele>75.70</ele>
<time>2018-12-30T10:21:45Z</time>
</trkpt>
<trkpt lat="49.1585006" lon="2.7000574">
<ele>75.64</ele>
<time>2018-12-30T10:21:46Z</time>
</trkpt>
<trkpt lat="49.1584516" lon="2.7000941">
<ele>75.62</ele>
<time>2018-12-30T10:21:47Z</time>
</trkpt>
<trkpt lat="49.1584058" lon="2.7001315">
<ele>75.61</ele>
<time>2018-12-30T10:21:48Z</time>
</trkpt>
<trkpt lat="49.1583595" lon="2.7001640">
<ele>75.61</ele>
<time>2018-12-30T10:21:49Z</time>
</trkpt>
<trkpt lat="49.1583137" lon="2.7001984">
<ele>75.61</ele>
<time>2018-12-30T10:21:50Z</time>
</trkpt>
<trkpt lat="49.1582660" lon="2.7002330">
<ele>75.61</ele>
<time>2018-12-30T10:21:51Z</time>
</trkpt>
<trkpt lat="49.1582184" lon="2.7002744">
<ele>75.61</ele>
<time>2018-12-30T10:21:52Z</time>
</trkpt>
<trkpt lat="49.1581693" lon="2.7003139">
<ele>74.91</ele>
<time>2018-12-30T10:21:53Z</time>
</trkpt>
<trkpt lat="49.1581209" lon="2.7003517">
<ele>74.70</ele>
<time>2018-12-30T10:21:54Z</time>
</trkpt>
<trkpt lat="49.1580689" lon="2.7003863">
<ele>74.64</ele>
<time>2018-12-30T10:21:55Z</time>
</trkpt>
<trkpt lat="49.1580180" lon="2.7004179">
<ele>74.62</ele>
<time>2018-12-30T10:21:56Z</time>
</trkpt>
<trkpt lat="49.1579690" lon="2.7004474">
<ele>74.61</ele>
<time>2018-12-30T10:21:57Z</time>
</trkpt>
<trkpt lat="49.1579178" lon="2.7004766">
<ele>75.31</ele>
<time>2018-12-30T10:21:58Z</time>
</trkpt>
<trkpt lat="49.1578685" lon="2.7005101">
<ele>75.52</ele>
<time>2018-12-30T10:21:59Z</time>
</trkpt>
<trkpt lat="49.1578205" lon="2.7005475">
<ele>75.58</ele>
<time>2018-12-30T10:22:00Z</time>
</trkpt>
<trkpt lat="49.1577722" lon="2.7005842">
<ele>75.60</ele>
<time>2018-12-30T10:22:01Z</time>
</trkpt>
<trkpt lat="49.1577235" lon="2.7006212">
<ele>75.61</ele>
<time>2018-12-30T10:22:02Z</time>
</trkpt>
<trkpt lat="49.1576722" lon="2.7006658">
<ele>75.61</ele>
<time>2018-12-30T10:22:03Z</time>
</trkpt>
<trkpt lat="49.1576222" lon="2.7007134">
<ele>75.61</ele>
<time>2018-12-30T10:22:04Z</time>
</trkpt>
<trkpt lat="49.1575715" lon="2.7007555">
<ele>75.61</ele>
<time>2018-12-30T10:22:05Z</time>
</trkpt>
<trkpt lat="49.1575237" lon="2.7007943">
<ele>75.61</ele>
<time>2018-12-30T10:22:06Z</time>
</trkpt>
<trkpt lat="49.1574802" lon="2.7008326">
<ele>75.61</ele>
<time>2018-12-30T10:22:07Z</time>
</trkpt>
<trkpt lat="49.1574338" lon="2.7008622">
<ele>75.61</ele>
<time>2018-12-30T10:22:08Z</time>
</trkpt>
<trkpt lat="49.1573914" lon="2.7008936">
<ele>75.61</ele>
<time>2018-12-30T10:22:09Z</time>
</trkpt>
<trkpt lat="49.1573460" lon="2.7009286">
<ele>75.61</ele>
<time>2018-12-30T10:22:10Z</time>
</trkpt>
<trkpt lat="49.1572987" lon="2.7009622">
<ele>75.61</ele>
<time>2018-12-30T10:22:11Z</time>
</trkpt>
<trkpt lat="49.1572521" lon="2.7009984">
<ele>75.61</ele>
<time>2018-12-30T10:22:12Z</time>
</trkpt>
<trkpt lat="49.1572082" lon="2.7010325">
<ele>75.61</ele>
<time>2018-12-30T10:22:13Z</time>
</trkpt>
<trkpt lat="49.1571648" lon="2.7010652">
<ele>76.31</ele>
<time>2018-12-30T10:22:14Z</time>
</trkpt>
<trkpt lat="49.1571219" lon="2.7010924">
<ele>75.82</ele>
<time>2018-12-30T10:22:15Z</time>
</trkpt>
<trkpt lat="49.1570514" lon="2.7011722">
<ele>76.54</ele>
<time>2018-12-30T10:22:17Z</time>
</trkpt>
<trkpt lat="49.1569695" lon="2.7012309">
<ele>75.90</ele>
<time>2018-12-30T10:22:19Z</time>
</trkpt>
<trkpt lat="49.1569281" lon="2.7012654">
<ele>75.70</ele>
<time>2018-12-30T10:22:20Z</time>
</trkpt>
<trkpt lat="49.1568842" lon="2.7013042">
<ele>75.64</ele>
<time>2018-12-30T10:22:21Z</time>
</trkpt>
<trkpt lat="49.1568400" lon="2.7013449">
<ele>75.62</ele>
<time>2018-12-30T10:22:22Z</time>
</trkpt>
<trkpt lat="49.1567966" lon="2.7013778">
<ele>75.61</ele>
<time>2018-12-30T10:22:23Z</time>
</trkpt>
<trkpt lat="49.1567501" lon="2.7014098">
<ele>76.31</ele>
<time>2018-12-30T10:22:24Z</time>
</trkpt>
<trkpt lat="49.1567048" lon="2.7014394">
<ele>76.52</ele>
<time>2018-12-30T10:22:25Z</time>
</trkpt>
<trkpt lat="49.1566252" lon="2.7014933">
<ele>76.60</ele>
<time>2018-12-30T10:22:27Z</time>
</trkpt>
<trkpt lat="49.1565761" lon="2.7015203">
<ele>77.31</ele>
<time>2018-12-30T10:22:28Z</time>
</trkpt>
<trkpt lat="49.1565297" lon="2.7015546">
<ele>77.52</ele>
<time>2018-12-30T10:22:29Z</time>
</trkpt>
<trkpt lat="49.1564838" lon="2.7015866">
<ele>77.58</ele>
<time>2018-12-30T10:22:30Z</time>
</trkpt>
<trkpt lat="49.1564330" lon="2.7016221">
<ele>77.60</ele>
<time>2018-12-30T10:22:31Z</time>
</trkpt>
<trkpt lat="49.1563859" lon="2.7016648">
<ele>77.61</ele>
<time>2018-12-30T10:22:32Z</time>
</trkpt>
<trkpt lat="49.1563384" lon="2.7017029">
<ele>76.91</ele>
<time>2018-12-30T10:22:33Z</time>
</trkpt>
<trkpt lat="49.1562945" lon="2.7017451">
<ele>76.70</ele>
<time>2018-12-30T10:22:34Z</time>
</trkpt>
<trkpt lat="49.1562487" lon="2.7017859">
<ele>76.64</ele>
<time>2018-12-30T10:22:35Z</time>
</trkpt>
<trkpt lat="49.1562025" lon="2.7018301">
<ele>76.62</ele>
<time>2018-12-30T10:22:36Z</time>
</trkpt>
<trkpt lat="49.1561580" lon="2.7018748">
<ele>77.31</ele>
<time>2018-12-30T10:22:37Z</time>
</trkpt>
<trkpt lat="49.1561096" lon="2.7019219">
<ele>77.52</ele>
<time>2018-12-30T10:22:38Z</time>
</trkpt>
<trkpt lat="49.1560612" lon="2.7019644">
<ele>77.58</ele>
<time>2018-12-30T10:22:39Z</time>
</trkpt>
<trkpt lat="49.1560128" lon="2.7020059">
<ele>78.30</ele>
<time>2018-12-30T10:22:40Z</time>
</trkpt>
<trkpt lat="49.1559668" lon="2.7020430">
<ele>78.52</ele>
<time>2018-12-30T10:22:41Z</time>
</trkpt>
<trkpt lat="49.1559230" lon="2.7020796">
<ele>78.58</ele>
<time>2018-12-30T10:22:42Z</time>
</trkpt>
<trkpt lat="49.1558802" lon="2.7021139">
<ele>78.60</ele>
<time>2018-12-30T10:22:43Z</time>
</trkpt>
<trkpt lat="49.1558316" lon="2.7021385">
<ele>79.31</ele>
<time>2018-12-30T10:22:44Z</time>
</trkpt>
<trkpt lat="49.1557804" lon="2.7021610">
<ele>79.52</ele>
<time>2018-12-30T10:22:45Z</time>
</trkpt>
<trkpt lat="49.1557299" lon="2.7021797">
<ele>79.58</ele>
<time>2018-12-30T10:22:46Z</time>
</trkpt>
<trkpt lat="49.1556818" lon="2.7021963">
<ele>79.60</ele>
<time>2018-12-30T10:22:47Z</time>
</trkpt>
<trkpt lat="49.1556366" lon="2.7022166">
<ele>80.31</ele>
<time>2018-12-30T10:22:48Z</time>
</trkpt>
<trkpt lat="49.1555939" lon="2.7022459">
<ele>80.52</ele>
<time>2018-12-30T10:22:49Z</time>
</trkpt>
<trkpt lat="49.1555495" lon="2.7022758">
<ele>80.58</ele>
<time>2018-12-30T10:22:50Z</time>
</trkpt>
<trkpt lat="49.1555061" lon="2.7023061">
<ele>80.60</ele>
<time>2018-12-30T10:22:51Z</time>
</trkpt>
<trkpt lat="49.1554277" lon="2.7023871">
<ele>80.61</ele>
<time>2018-12-30T10:22:53Z</time>
</trkpt>
<trkpt lat="49.1553875" lon="2.7024357">
<ele>79.91</ele>
<time>2018-12-30T10:22:54Z</time>
</trkpt>
<trkpt lat="49.1553417" lon="2.7024868">
<ele>79.70</ele>
<time>2018-12-30T10:22:55Z</time>
</trkpt>
<trkpt lat="49.1552985" lon="2.7025376">
<ele>79.64</ele>
<time>2018-12-30T10:22:56Z</time>
</trkpt>
<trkpt lat="49.1552531" lon="2.7025783">
<ele>78.92</ele>
<time>2018-12-30T10:22:57Z</time>
</trkpt>
<trkpt lat="49.1552131" lon="2.7026122">
<ele>78.70</ele>
<time>2018-12-30T10:22:58Z</time>
</trkpt>
<trkpt lat="49.1551090" lon="2.7026800">
<ele>78.62</ele>
<time>2018-12-30T10:23:01Z</time>
</trkpt>
<trkpt lat="49.1550418" lon="2.7027238">
<ele>78.61</ele>
<time>2018-12-30T10:23:03Z</time>
</trkpt>
<trkpt lat="49.1549753" lon="2.7027624">
<ele>78.61</ele>
<time>2018-12-30T10:23:05Z</time>
</trkpt>
<trkpt lat="49.1549073" lon="2.7028057">
<ele>78.61</ele>
<time>2018-12-30T10:23:07Z</time>
</trkpt>
<trkpt lat="49.1548366" lon="2.7028557">
<ele>77.91</ele>
<time>2018-12-30T10:23:09Z</time>
</trkpt>
<trkpt lat="49.1547649" lon="2.7028919">
<ele>77.64</ele>
<time>2018-12-30T10:23:11Z</time>
</trkpt>
<trkpt lat="49.1546898" lon="2.7029266">
<ele>76.70</ele>
<time>2018-12-30T10:23:13Z</time>
</trkpt>
<trkpt lat="49.1546237" lon="2.7029773">
<ele>76.62</ele>
<time>2018-12-30T10:23:15Z</time>
</trkpt>
<trkpt lat="49.1545688" lon="2.7030075">
<ele>76.61</ele>
<time>2018-12-30T10:23:17Z</time>
</trkpt>
<trkpt lat="49.1545169" lon="2.7030513">
<ele>76.61</ele>
<time>2018-12-30T10:23:19Z</time>
</trkpt>
<trkpt lat="49.1544496" lon="2.7031076">
<ele>77.52</ele>
<time>2018-12-30T10:23:21Z</time>
</trkpt>
<trkpt lat="49.1544064" lon="2.7031358">
<ele>77.58</ele>
<time>2018-12-30T10:23:22Z</time>
</trkpt>
<trkpt lat="49.1543278" lon="2.7032064">
<ele>76.70</ele>
<time>2018-12-30T10:23:24Z</time>
</trkpt>
<trkpt lat="49.1542465" lon="2.7032690">
<ele>76.62</ele>
<time>2018-12-30T10:23:26Z</time>
</trkpt>
<trkpt lat="49.1541655" lon="2.7033343">
<ele>75.70</ele>
<time>2018-12-30T10:23:28Z</time>
</trkpt>
<trkpt lat="49.1541229" lon="2.7033674">
<ele>75.64</ele>
<time>2018-12-30T10:23:29Z</time>
</trkpt>
<trkpt lat="49.1540516" lon="2.7034257">
<ele>74.70</ele>
<time>2018-12-30T10:23:31Z</time>
</trkpt>
<trkpt lat="49.1539725" lon="2.7034822">
<ele>74.62</ele>
<time>2018-12-30T10:23:33Z</time>
</trkpt>
<trkpt lat="49.1539303" lon="2.7035142">
<ele>73.91</ele>
<time>2018-12-30T10:23:34Z</time>
</trkpt>
<trkpt lat="49.1538550" lon="2.7035699">
<ele>73.64</ele>
<time>2018-12-30T10:23:36Z</time>
</trkpt>
<trkpt lat="49.1537766" lon="2.7036271">
<ele>73.61</ele>
<time>2018-12-30T10:23:38Z</time>
</trkpt>
<trkpt lat="49.1537050" lon="2.7036896">
<ele>73.61</ele>
<time>2018-12-30T10:23:40Z</time>
</trkpt>
<trkpt lat="49.1536288" lon="2.7037362">
<ele>74.52</ele>
<time>2018-12-30T10:23:42Z</time>
</trkpt>
<trkpt lat="49.1535485" lon="2.7037839">
<ele>74.60</ele>
<time>2018-12-30T10:23:44Z</time>
</trkpt>
<trkpt lat="49.1535046" lon="2.7038073">
<ele>74.61</ele>
<time>2018-12-30T10:23:45Z</time>
</trkpt>
<trkpt lat="49.1534579" lon="2.7038290">
<ele>74.61</ele>
<time>2018-12-30T10:23:46Z</time>
</trkpt>
<trkpt lat="49.1534106" lon="2.7038621">
<ele>74.61</ele>
<time>2018-12-30T10:23:47Z</time>
</trkpt>
<trkpt lat="49.1533647" lon="2.7038956">
<ele>74.61</ele>
<time>2018-12-30T10:23:48Z</time>
</trkpt>
<trkpt lat="49.1532814" lon="2.7039576">
<ele>74.61</ele>
<time>2018-12-30T10:23:50Z</time>
</trkpt>
<trkpt lat="49.1532387" lon="2.7039897">
<ele>74.61</ele>
<time>2018-12-30T10:23:51Z</time>
</trkpt>
<trkpt lat="49.1531974" lon="2.7040259">
<ele>74.61</ele>
<time>2018-12-30T10:23:52Z</time>
</trkpt>
<trkpt lat="49.1531559" lon="2.7040595">
<ele>73.91</ele>
<time>2018-12-30T10:23:53Z</time>
</trkpt>
<trkpt lat="49.1530816" lon="2.7041296">
<ele>74.55</ele>
<time>2018-12-30T10:23:55Z</time>
</trkpt>
<trkpt lat="49.1530037" lon="2.7041915">
<ele>73.70</ele>
<time>2018-12-30T10:23:57Z</time>
</trkpt>
<trkpt lat="49.1529263" lon="2.7042346">
<ele>74.53</ele>
<time>2018-12-30T10:23:59Z</time>
</trkpt>
<trkpt lat="49.1528522" lon="2.7042828">
<ele>74.60</ele>
<time>2018-12-30T10:24:01Z</time>
</trkpt>
<trkpt lat="49.1527782" lon="2.7043299">
<ele>74.61</ele>
<time>2018-12-30T10:24:03Z</time>
</trkpt>
<trkpt lat="49.1527126" lon="2.7043727">
<ele>74.61</ele>
<time>2018-12-30T10:24:05Z</time>
</trkpt>
<trkpt lat="49.1526475" lon="2.7044241">
<ele>75.31</ele>
<time>2018-12-30T10:24:07Z</time>
</trkpt>
<trkpt lat="49.1525755" lon="2.7044774">
<ele>75.58</ele>
<time>2018-12-30T10:24:09Z</time>
</trkpt>
<trkpt lat="49.1525027" lon="2.7045229">
<ele>75.61</ele>
<time>2018-12-30T10:24:11Z</time>
</trkpt>
<trkpt lat="49.1524295" lon="2.7045684">
<ele>74.91</ele>
<time>2018-12-30T10:24:13Z</time>
</trkpt>
<trkpt lat="49.1523546" lon="2.7046268">
<ele>75.55</ele>
<time>2018-12-30T10:24:15Z</time>
</trkpt>
<trkpt lat="49.1522805" lon="2.7046888">
<ele>75.61</ele>
<time>2018-12-30T10:24:17Z</time>
</trkpt>
<trkpt lat="49.1522067" lon="2.7047499">
<ele>75.61</ele>
<time>2018-12-30T10:24:19Z</time>
</trkpt>
<trkpt lat="49.1521348" lon="2.7048006">
<ele>76.31</ele>
<time>2018-12-30T10:24:21Z</time>
</trkpt>
<trkpt lat="49.1520656" lon="2.7048350">
<ele>76.58</ele>
<time>2018-12-30T10:24:23Z</time>
</trkpt>
<trkpt lat="49.1519984" lon="2.7048686">
<ele>76.61</ele>
<time>2018-12-30T10:24:25Z</time>
</trkpt>
<trkpt lat="49.1519383" lon="2.7049273">
<ele>77.52</ele>
<time>2018-12-30T10:24:27Z</time>
</trkpt>
<trkpt lat="49.1518785" lon="2.7049928">
<ele>77.60</ele>
<time>2018-12-30T10:24:29Z</time>
</trkpt>
<trkpt lat="49.1518156" lon="2.7050796">
<ele>77.61</ele>
<time>2018-12-30T10:24:31Z</time>
</trkpt>
<trkpt lat="49.1517527" lon="2.7051519">
<ele>78.31</ele>
<time>2018-12-30T10:24:33Z</time>
</trkpt>
<trkpt lat="49.1516870" lon="2.7052269">
<ele>78.58</ele>
<time>2018-12-30T10:24:35Z</time>
</trkpt>
<trkpt lat="49.1516204" lon="2.7052752">
<ele>78.61</ele>
<time>2018-12-30T10:24:37Z</time>
</trkpt>
<trkpt lat="49.1515475" lon="2.7053307">
<ele>78.61</ele>
<time>2018-12-30T10:24:39Z</time>
</trkpt>
<trkpt lat="49.1514662" lon="2.7053938">
<ele>80.22</ele>
<time>2018-12-30T10:24:41Z</time>
</trkpt>
<trkpt lat="49.1513923" lon="2.7054450">
<ele>80.58</ele>
<time>2018-12-30T10:24:43Z</time>
</trkpt>
<trkpt lat="49.1513227" lon="2.7055079">
<ele>80.61</ele>
<time>2018-12-30T10:24:45Z</time>
</trkpt>
<trkpt lat="49.1512444" lon="2.7055718">
<ele>80.61</ele>
<time>2018-12-30T10:24:47Z</time>
</trkpt>
<trkpt lat="49.1511568" lon="2.7056308">
<ele>81.52</ele>
<time>2018-12-30T10:24:49Z</time>
</trkpt>
<trkpt lat="49.1511079" lon="2.7056645">
<ele>81.58</ele>
<time>2018-12-30T10:24:50Z</time>
</trkpt>
<trkpt lat="49.1510614" lon="2.7056981">
<ele>81.60</ele>
<time>2018-12-30T10:24:51Z</time>
</trkpt>
<trkpt lat="49.1510109" lon="2.7057308">
<ele>81.61</ele>
<time>2018-12-30T10:24:52Z</time>
</trkpt>
<trkpt lat="49.1509614" lon="2.7057616">
<ele>81.61</ele>
<time>2018-12-30T10:24:53Z</time>
</trkpt>
<trkpt lat="49.1509140" lon="2.7057933">
<ele>82.31</ele>
<time>2018-12-30T10:24:54Z</time>
</trkpt>
<trkpt lat="49.1508658" lon="2.7058287">
<ele>82.52</ele>
<time>2018-12-30T10:24:55Z</time>
</trkpt>
<trkpt lat="49.1508215" lon="2.7058594">
<ele>83.28</ele>
<time>2018-12-30T10:24:56Z</time>
</trkpt>
<trkpt lat="49.1507766" lon="2.7058954">
<ele>83.51</ele>
<time>2018-12-30T10:24:57Z</time>
</trkpt>
<trkpt lat="49.1507288" lon="2.7059358">
<ele>83.58</ele>
<time>2018-12-30T10:24:58Z</time>
</trkpt>
<trkpt lat="49.1506810" lon="2.7059759">
<ele>83.60</ele>
<time>2018-12-30T10:24:59Z</time>
</trkpt>
<trkpt lat="49.1506334" lon="2.7060254">
<ele>83.61</ele>
<time>2018-12-30T10:25:00Z</time>
</trkpt>
<trkpt lat="49.1505853" lon="2.7060768">
<ele>83.61</ele>
<time>2018-12-30T10:25:01Z</time>
</trkpt>
<trkpt lat="49.1505374" lon="2.7061254">
<ele>84.31</ele>
<time>2018-12-30T10:25:02Z</time>
</trkpt>
<trkpt lat="49.1504853" lon="2.7061673">
<ele>84.52</ele>
<time>2018-12-30T10:25:03Z</time>
</trkpt>
<trkpt lat="49.1504368" lon="2.7062157">
<ele>84.58</ele>
<time>2018-12-30T10:25:04Z</time>
</trkpt>
<trkpt lat="49.1503876" lon="2.7062689">
<ele>84.60</ele>
<time>2018-12-30T10:25:05Z</time>
</trkpt>
<trkpt lat="49.1503435" lon="2.7063204">
<ele>85.31</ele>
<time>2018-12-30T10:25:06Z</time>
</trkpt>
<trkpt lat="49.1502960" lon="2.7063694">
<ele>85.52</ele>
<time>2018-12-30T10:25:07Z</time>
</trkpt>
<trkpt lat="49.1502456" lon="2.7064198">
<ele>84.88</ele>
<time>2018-12-30T10:25:08Z</time>
</trkpt>
<trkpt lat="49.1501905" lon="2.7064742">
<ele>85.39</ele>
<time>2018-12-30T10:25:09Z</time>
</trkpt>
<trkpt lat="49.1501374" lon="2.7065294">
<ele>85.55</ele>
<time>2018-12-30T10:25:10Z</time>
</trkpt>
<trkpt lat="49.1500819" lon="2.7065817">
<ele>85.59</ele>
<time>2018-12-30T10:25:11Z</time>
</trkpt>
<trkpt lat="49.1500337" lon="2.7066273">
<ele>85.61</ele>
<time>2018-12-30T10:25:12Z</time>
</trkpt>
<trkpt lat="49.1499836" lon="2.7066812">
<ele>86.31</ele>
<time>2018-12-30T10:25:13Z</time>
</trkpt>
<trkpt lat="49.1499335" lon="2.7067255">
<ele>86.52</ele>
<time>2018-12-30T10:25:14Z</time>
</trkpt>
<trkpt lat="49.1498778" lon="2.7067731">
<ele>86.58</ele>
<time>2018-12-30T10:25:15Z</time>
</trkpt>
<trkpt lat="49.1498250" lon="2.7068150">
<ele>86.60</ele>
<time>2018-12-30T10:25:16Z</time>
</trkpt>
<trkpt lat="49.1497703" lon="2.7068565">
<ele>86.61</ele>
<time>2018-12-30T10:25:17Z</time>
</trkpt>
<trkpt lat="49.1497142" lon="2.7068984">
<ele>86.61</ele>
<time>2018-12-30T10:25:18Z</time>
</trkpt>
<trkpt lat="49.1496578" lon="2.7069427">
<ele>86.61</ele>
<time>2018-12-30T10:25:19Z</time>
</trkpt>
<trkpt lat="49.1495980" lon="2.7069851">
<ele>86.61</ele>
<time>2018-12-30T10:25:20Z</time>
</trkpt>
<trkpt lat="49.1495423" lon="2.7070282">
<ele>86.61</ele>
<time>2018-12-30T10:25:21Z</time>
</trkpt>
<trkpt lat="49.1494926" lon="2.7070569">
<ele>86.61</ele>
<time>2018-12-30T10:25:22Z</time>
</trkpt>
<trkpt lat="49.1494361" lon="2.7070984">
<ele>86.61</ele>
<time>2018-12-30T10:25:23Z</time>
</trkpt>
<trkpt lat="49.1493755" lon="2.7071460">
<ele>86.61</ele>
<time>2018-12-30T10:25:24Z</time>
</trkpt>
<trkpt lat="49.1493169" lon="2.7071828">
<ele>86.61</ele>
<time>2018-12-30T10:25:25Z</time>
</trkpt>
<trkpt lat="49.1492623" lon="2.7072241">
<ele>87.31</ele>
<time>2018-12-30T10:25:26Z</time>
</trkpt>
<trkpt lat="49.1492115" lon="2.7072506">
<ele>86.82</ele>
<time>2018-12-30T10:25:27Z</time>
</trkpt>
<trkpt lat="49.1491549" lon="2.7072818">
<ele>87.37</ele>
<time>2018-12-30T10:25:28Z</time>
</trkpt>
<trkpt lat="49.1490952" lon="2.7073231">
<ele>87.54</ele>
<time>2018-12-30T10:25:29Z</time>
</trkpt>
<trkpt lat="49.1490424" lon="2.7073618">
<ele>87.59</ele>
<time>2018-12-30T10:25:30Z</time>
</trkpt>
<trkpt lat="49.1489904" lon="2.7073976">
<ele>88.30</ele>
<time>2018-12-30T10:25:31Z</time>
</trkpt>
<trkpt lat="49.1489372" lon="2.7074323">
<ele>88.52</ele>
<time>2018-12-30T10:25:32Z</time>
</trkpt>
<trkpt lat="49.1488874" lon="2.7074630">
<ele>88.58</ele>
<time>2018-12-30T10:25:33Z</time>
</trkpt>
<trkpt lat="49.1488391" lon="2.7074921">
<ele>88.60</ele>
<time>2018-12-30T10:25:34Z</time>
</trkpt>
<trkpt lat="49.1487925" lon="2.7075266">
<ele>88.61</ele>
<time>2018-12-30T10:25:35Z</time>
</trkpt>
<trkpt lat="49.1487434" lon="2.7075587">
<ele>88.61</ele>
<time>2018-12-30T10:25:36Z</time>
</trkpt>
<trkpt lat="49.1486890" lon="2.7075925">
<ele>87.91</ele>
<time>2018-12-30T10:25:37Z</time>
</trkpt>
<trkpt lat="49.1486315" lon="2.7076340">
<ele>88.40</ele>
<time>2018-12-30T10:25:38Z</time>
</trkpt>
<trkpt lat="49.1485799" lon="2.7076726">
<ele>88.55</ele>
<time>2018-12-30T10:25:39Z</time>
</trkpt>
<trkpt lat="49.1485254" lon="2.7077123">
<ele>88.59</ele>
<time>2018-12-30T10:25:40Z</time>
</trkpt>
<trkpt lat="49.1484735" lon="2.7077442">
<ele>88.61</ele>
<time>2018-12-30T10:25:41Z</time>
</trkpt>
<trkpt lat="49.1484208" lon="2.7077790">
<ele>88.61</ele>
<time>2018-12-30T10:25:42Z</time>
</trkpt>
<trkpt lat="49.1483685" lon="2.7078125">
<ele>88.61</ele>
<time>2018-12-30T10:25:43Z</time>
</trkpt>
<trkpt lat="49.1483223" lon="2.7078579">
<ele>88.61</ele>
<time>2018-12-30T10:25:44Z</time>
</trkpt>
<trkpt lat="49.1482752" lon="2.7078975">
<ele>88.61</ele>
<time>2018-12-30T10:25:45Z</time>
</trkpt>
<trkpt lat="49.1482277" lon="2.7079324">
<ele>87.91</ele>
<time>2018-12-30T10:25:46Z</time>
</trkpt>
<trkpt lat="49.1481805" lon="2.7079638">
<ele>87.70</ele>
<time>2018-12-30T10:25:47Z</time>
</trkpt>
<trkpt lat="49.1481281" lon="2.7079905">
<ele>87.64</ele>
<time>2018-12-30T10:25:48Z</time>
</trkpt>
<trkpt lat="49.1480764" lon="2.7080161">
<ele>87.62</ele>
<time>2018-12-30T10:25:49Z</time>
</trkpt>
<trkpt lat="49.1480295" lon="2.7080456">
<ele>87.61</ele>
<time>2018-12-30T10:25:50Z</time>
</trkpt>
<trkpt lat="49.1479414" lon="2.7081002">
<ele>87.61</ele>
<time>2018-12-30T10:25:52Z</time>
</trkpt>
<trkpt lat="49.1478880" lon="2.7081394">
<ele>87.61</ele>
<time>2018-12-30T10:25:53Z</time>
</trkpt>
<trkpt lat="49.1478345" lon="2.7081878">
<ele>87.61</ele>
<time>2018-12-30T10:25:54Z</time>
</trkpt>
<trkpt lat="49.1477788" lon="2.7082272">
<ele>87.61</ele>
<time>2018-12-30T10:25:55Z</time>
</trkpt>
<trkpt lat="49.1477248" lon="2.7082673">
<ele>87.61</ele>
<time>2018-12-30T10:25:56Z</time>
</trkpt>
<trkpt lat="49.1476746" lon="2.7083097">
<ele>86.91</ele>
<time>2018-12-30T10:25:57Z</time>
</trkpt>
<trkpt lat="49.1476243" lon="2.7083479">
<ele>86.70</ele>
<time>2018-12-30T10:25:58Z</time>
</trkpt>
<trkpt lat="49.1475743" lon="2.7083823">
<ele>86.64</ele>
<time>2018-12-30T10:25:59Z</time>
</trkpt>
<trkpt lat="49.1475214" lon="2.7084204">
<ele>86.62</ele>
<time>2018-12-30T10:26:00Z</time>
</trkpt>
<trkpt lat="49.1474696" lon="2.7084561">
<ele>86.61</ele>
<time>2018-12-30T10:26:01Z</time>
</trkpt>
<trkpt lat="49.1474182" lon="2.7084947">
<ele>86.61</ele>
<time>2018-12-30T10:26:02Z</time>
</trkpt>
<trkpt lat="49.1473687" lon="2.7085327">
<ele>86.61</ele>
<time>2018-12-30T10:26:03Z</time>
</trkpt>
<trkpt lat="49.1473173" lon="2.7085704">
<ele>86.61</ele>
<time>2018-12-30T10:26:04Z</time>
</trkpt>
<trkpt lat="49.1472671" lon="2.7086077">
<ele>86.61</ele>
<time>2018-12-30T10:26:05Z</time>
</trkpt>
<trkpt lat="49.1472137" lon="2.7086450">
<ele>85.91</ele>
<time>2018-12-30T10:26:06Z</time>
</trkpt>
<trkpt lat="49.1471631" lon="2.7086804">
<ele>85.70</ele>
<time>2018-12-30T10:26:07Z</time>
</trkpt>
<trkpt lat="49.1471131" lon="2.7087148">
<ele>86.34</ele>
<time>2018-12-30T10:26:08Z</time>
</trkpt>
<trkpt lat="49.1470625" lon="2.7087516">
<ele>86.53</ele>
<time>2018-12-30T10:26:09Z</time>
</trkpt>
<trkpt lat="49.1470131" lon="2.7087890">
<ele>86.59</ele>
<time>2018-12-30T10:26:10Z</time>
</trkpt>
<trkpt lat="49.1469639" lon="2.7088287">
<ele>85.90</ele>
<time>2018-12-30T10:26:11Z</time>
</trkpt>
<trkpt lat="49.1469144" lon="2.7088669">
<ele>86.40</ele>
<time>2018-12-30T10:26:12Z</time>
</trkpt>
<trkpt lat="49.1468663" lon="2.7089032">
<ele>85.85</ele>
<time>2018-12-30T10:26:13Z</time>
</trkpt>
<trkpt lat="49.1468217" lon="2.7089396">
<ele>86.38</ele>
<time>2018-12-30T10:26:14Z</time>
</trkpt>
<trkpt lat="49.1467785" lon="2.7089788">
<ele>86.54</ele>
<time>2018-12-30T10:26:15Z</time>
</trkpt>
<trkpt lat="49.1467285" lon="2.7090143">
<ele>86.59</ele>
<time>2018-12-30T10:26:16Z</time>
</trkpt>
<trkpt lat="49.1466788" lon="2.7090509">
<ele>86.60</ele>
<time>2018-12-30T10:26:17Z</time>
</trkpt>
<trkpt lat="49.1466301" lon="2.7090910">
<ele>87.31</ele>
<time>2018-12-30T10:26:18Z</time>
</trkpt>
<trkpt lat="49.1465847" lon="2.7091310">
<ele>87.52</ele>
<time>2018-12-30T10:26:19Z</time>
</trkpt>
<trkpt lat="49.1465417" lon="2.7091692">
<ele>88.28</ele>
<time>2018-12-30T10:26:20Z</time>
</trkpt>
<trkpt lat="49.1464640" lon="2.7092341">
<ele>88.58</ele>
<time>2018-12-30T10:26:22Z</time>
</trkpt>
<trkpt lat="49.1464236" lon="2.7092774">
<ele>88.60</ele>
<time>2018-12-30T10:26:23Z</time>
</trkpt>
<trkpt lat="49.1463477" lon="2.7093633">
<ele>89.52</ele>
<time>2018-12-30T10:26:25Z</time>
</trkpt>
<trkpt lat="49.1463064" lon="2.7094012">
<ele>89.58</ele>
<time>2018-12-30T10:26:26Z</time>
</trkpt>
<trkpt lat="49.1462624" lon="2.7094384">
<ele>89.60</ele>
<time>2018-12-30T10:26:27Z</time>
</trkpt>
<trkpt lat="49.1461890" lon="2.7095116">
<ele>90.31</ele>
<time>2018-12-30T10:26:29Z</time>
</trkpt>
<trkpt lat="49.1461313" lon="2.7095855">
<ele>90.58</ele>
<time>2018-12-30T10:26:31Z</time>
</trkpt>
<trkpt lat="49.1460765" lon="2.7096556">
<ele>91.52</ele>
<time>2018-12-30T10:26:33Z</time>
</trkpt>
<trkpt lat="49.1460277" lon="2.7097173">
<ele>91.60</ele>
<time>2018-12-30T10:26:35Z</time>
</trkpt>
<trkpt lat="49.1459890" lon="2.7097934">
<ele>92.52</ele>
<time>2018-12-30T10:26:37Z</time>
</trkpt>
<trkpt lat="49.1459536" lon="2.7098730">
<ele>92.60</ele>
<time>2018-12-30T10:26:39Z</time>
</trkpt>
<trkpt lat="49.1459188" lon="2.7099286">
<ele>93.31</ele>
<time>2018-12-30T10:26:41Z</time>
</trkpt>
<trkpt lat="49.1458675" lon="2.7099405">
<ele>93.61</ele>
<time>2018-12-30T10:26:45Z</time>
</trkpt>
<trkpt lat="49.1458358" lon="2.7098909">
<ele>94.60</ele>
<time>2018-12-30T10:26:49Z</time>
</trkpt>
<trkpt lat="49.1457967" lon="2.7098473">
<ele>93.61</ele>
<time>2018-12-30T10:27:17Z</time>
</trkpt>
<trkpt lat="49.1457607" lon="2.7097736">
<ele>93.67</ele>
<time>2018-12-30T10:27:20Z</time>
</trkpt>
<trkpt lat="49.1457153" lon="2.7096867">
<ele>93.62</ele>
<time>2018-12-30T10:27:22Z</time>
</trkpt>
<trkpt lat="49.1456787" lon="2.7095949">
<ele>93.61</ele>
<time>2018-12-30T10:27:24Z</time>
</trkpt>
<trkpt lat="49.1456412" lon="2.7095524">
<ele>92.91</ele>
<time>2018-12-30T10:27:26Z</time>
</trkpt>
<trkpt lat="49.1456002" lon="2.7095218">
<ele>90.74</ele>
<time>2018-12-30T10:27:29Z</time>
</trkpt>
<trkpt lat="49.1455788" lon="2.7094593">
<ele>89.70</ele>
<time>2018-12-30T10:28:33Z</time>
</trkpt>
<trkpt lat="49.1455448" lon="2.7093757">
<ele>89.62</ele>
<time>2018-12-30T10:28:35Z</time>
</trkpt>
<trkpt lat="49.1454925" lon="2.7092662">
<ele>89.61</ele>
<time>2018-12-30T10:28:37Z</time>
</trkpt>
<trkpt lat="49.1454565" lon="2.7091877">
<ele>90.31</ele>
<time>2018-12-30T10:28:38Z</time>
</trkpt>
<trkpt lat="49.1454174" lon="2.7091030">
<ele>89.82</ele>
<time>2018-12-30T10:28:39Z</time>
</trkpt>
<trkpt lat="49.1453793" lon="2.7090237">
<ele>89.67</ele>
<time>2018-12-30T10:28:40Z</time>
</trkpt>
<trkpt lat="49.1453400" lon="2.7089384">
<ele>89.63</ele>
<time>2018-12-30T10:28:41Z</time>
</trkpt>
<trkpt lat="49.1452991" lon="2.7088567">
<ele>89.62</ele>
<time>2018-12-30T10:28:42Z</time>
</trkpt>
<trkpt lat="49.1452582" lon="2.7087723">
<ele>88.91</ele>
<time>2018-12-30T10:28:43Z</time>
</trkpt>
<trkpt lat="49.1452164" lon="2.7086781">
<ele>89.40</ele>
<time>2018-12-30T10:28:44Z</time>
</trkpt>
<trkpt lat="49.1451755" lon="2.7085895">
<ele>89.55</ele>
<time>2018-12-30T10:28:45Z</time>
</trkpt>
<trkpt lat="49.1451361" lon="2.7085080">
<ele>89.59</ele>
<time>2018-12-30T10:28:46Z</time>
</trkpt>
<trkpt lat="49.1450991" lon="2.7084271">
<ele>89.61</ele>
<time>2018-12-30T10:28:47Z</time>
</trkpt>
<trkpt lat="49.1450614" lon="2.7083466">
<ele>89.61</ele>
<time>2018-12-30T10:28:48Z</time>
</trkpt>
<trkpt lat="49.1450191" lon="2.7082596">
<ele>88.21</ele>
<time>2018-12-30T10:28:49Z</time>
</trkpt>
<trkpt lat="49.1449746" lon="2.7081767">
<ele>87.79</ele>
<time>2018-12-30T10:28:50Z</time>
</trkpt>
<trkpt lat="49.1449328" lon="2.7080976">
<ele>86.96</ele>
<time>2018-12-30T10:28:51Z</time>
</trkpt>
<trkpt lat="49.1448867" lon="2.7080253">
<ele>86.72</ele>
<time>2018-12-30T10:28:52Z</time>
</trkpt>
<trkpt lat="49.1448363" lon="2.7079956">
<ele>86.64</ele>
<time>2018-12-30T10:28:53Z</time>
</trkpt>
<trkpt lat="49.1447846" lon="2.7080025">
<ele>86.62</ele>
<time>2018-12-30T10:28:54Z</time>
</trkpt>
<trkpt lat="49.1447332" lon="2.7080265">
<ele>87.31</ele>
<time>2018-12-30T10:28:55Z</time>
</trkpt>
<trkpt lat="49.1446792" lon="2.7081127">
<ele>87.58</ele>
<time>2018-12-30T10:28:57Z</time>
</trkpt>
<trkpt lat="49.1446609" lon="2.7081816">
<ele>87.60</ele>
<time>2018-12-30T10:28:58Z</time>
</trkpt>
<trkpt lat="49.1446351" lon="2.7082383">
<ele>87.61</ele>
<time>2018-12-30T10:28:59Z</time>
</trkpt>
<trkpt lat="49.1445751" lon="2.7083161">
<ele>87.61</ele>
<time>2018-12-30T10:29:01Z</time>
</trkpt>
<trkpt lat="49.1445377" lon="2.7083637">
<ele>87.61</ele>
<time>2018-12-30T10:29:02Z</time>
</trkpt>
<trkpt lat="49.1444810" lon="2.7084510">
<ele>87.61</ele>
<time>2018-12-30T10:29:04Z</time>
</trkpt>
<trkpt lat="49.1444477" lon="2.7085296">
<ele>87.61</ele>
<time>2018-12-30T10:29:06Z</time>
</trkpt>
<trkpt lat="49.1444111" lon="2.7085952">
<ele>87.61</ele>
<time>2018-12-30T10:29:09Z</time>
</trkpt>
<trkpt lat="49.1443889" lon="2.7086615">
<ele>88.52</ele>
<time>2018-12-30T10:29:11Z</time>
</trkpt>
<trkpt lat="49.1443577" lon="2.7087217">
<ele>87.90</ele>
<time>2018-12-30T10:29:13Z</time>
</trkpt>
<trkpt lat="49.1443192" lon="2.7087956">
<ele>87.64</ele>
<time>2018-12-30T10:29:15Z</time>
</trkpt>
<trkpt lat="49.1442759" lon="2.7088901">
<ele>88.52</ele>
<time>2018-12-30T10:29:17Z</time>
</trkpt>
<trkpt lat="49.1442286" lon="2.7089875">
<ele>88.60</ele>
<time>2018-12-30T10:29:19Z</time>
</trkpt>
<trkpt lat="49.1441663" lon="2.7091081">
<ele>89.31</ele>
<time>2018-12-30T10:29:21Z</time>
</trkpt>
<trkpt lat="49.1441355" lon="2.7091719">
<ele>89.52</ele>
<time>2018-12-30T10:29:22Z</time>
</trkpt>
<trkpt lat="49.1441066" lon="2.7092336">
<ele>88.88</ele>
<time>2018-12-30T10:29:23Z</time>
</trkpt>
<trkpt lat="49.1440773" lon="2.7092957">
<ele>88.69</ele>
<time>2018-12-30T10:29:24Z</time>
</trkpt>
<trkpt lat="49.1440514" lon="2.7093608">
<ele>89.34</ele>
<time>2018-12-30T10:29:25Z</time>
</trkpt>
<trkpt lat="49.1440245" lon="2.7094244">
<ele>89.53</ele>
<time>2018-12-30T10:29:26Z</time>
</trkpt>
<trkpt lat="49.1439917" lon="2.7094813">
<ele>89.59</ele>
<time>2018-12-30T10:29:27Z</time>
</trkpt>
<trkpt lat="49.1439593" lon="2.7095421">
<ele>90.30</ele>
<time>2018-12-30T10:29:28Z</time>
</trkpt>
<trkpt lat="49.1439269" lon="2.7096022">
<ele>89.82</ele>
<time>2018-12-30T10:29:29Z</time>
</trkpt>
<trkpt lat="49.1438950" lon="2.7096708">
<ele>89.67</ele>
<time>2018-12-30T10:29:30Z</time>
</trkpt>
<trkpt lat="49.1438651" lon="2.7097385">
<ele>90.33</ele>
<time>2018-12-30T10:29:31Z</time>
</trkpt>
<trkpt lat="49.1438362" lon="2.7098041">
<ele>90.53</ele>
<time>2018-12-30T10:29:32Z</time>
</trkpt>
<trkpt lat="49.1438087" lon="2.7098690">
<ele>90.59</ele>
<time>2018-12-30T10:29:33Z</time>
</trkpt>
<trkpt lat="49.1437800" lon="2.7099331">
<ele>90.60</ele>
<time>2018-12-30T10:29:34Z</time>
</trkpt>
<trkpt lat="49.1437506" lon="2.7099918">
<ele>90.61</ele>
<time>2018-12-30T10:29:35Z</time>
</trkpt>
<trkpt lat="49.1437242" lon="2.7100530">
<ele>90.61</ele>
<time>2018-12-30T10:29:36Z</time>
</trkpt>
<trkpt lat="49.1437007" lon="2.7101118">
<ele>89.91</ele>
<time>2018-12-30T10:29:37Z</time>
</trkpt>
<trkpt lat="49.1436471" lon="2.7102166">
<ele>89.64</ele>
<time>2018-12-30T10:29:39Z</time>
</trkpt>
<trkpt lat="49.1436136" lon="2.7102714">
<ele>89.62</ele>
<time>2018-12-30T10:29:40Z</time>
</trkpt>
<trkpt lat="49.1435640" lon="2.7103806">
<ele>90.31</ele>
<time>2018-12-30T10:29:42Z</time>
</trkpt>
<trkpt lat="49.1434987" lon="2.7104783">
<ele>90.58</ele>
<time>2018-12-30T10:29:44Z</time>
</trkpt>
<trkpt lat="49.1434412" lon="2.7105802">
<ele>91.31</ele>
<time>2018-12-30T10:29:46Z</time>
</trkpt>
<trkpt lat="49.1433852" lon="2.7106517">
<ele>92.28</ele>
<time>2018-12-30T10:29:48Z</time>
</trkpt>
<trkpt lat="49.1433297" lon="2.7107243">
<ele>92.58</ele>
<time>2018-12-30T10:29:50Z</time>
</trkpt>
<trkpt lat="49.1432709" lon="2.7107854">
<ele>93.52</ele>
<time>2018-12-30T10:29:52Z</time>
</trkpt>
<trkpt lat="49.1432365" lon="2.7108626">
<ele>93.60</ele>
<time>2018-12-30T10:29:54Z</time>
</trkpt>
<trkpt lat="49.1431955" lon="2.7109558">
<ele>94.52</ele>
<time>2018-12-30T10:29:56Z</time>
</trkpt>
<trkpt lat="49.1431657" lon="2.7110613">
<ele>94.60</ele>
<time>2018-12-30T10:29:58Z</time>
</trkpt>
<trkpt lat="49.1431398" lon="2.7111723">
<ele>95.31</ele>
<time>2018-12-30T10:30:00Z</time>
</trkpt>
<trkpt lat="49.1431072" lon="2.7112832">
<ele>95.58</ele>
<time>2018-12-30T10:30:02Z</time>
</trkpt>
<trkpt lat="49.1430356" lon="2.7113689">
<ele>96.52</ele>
<time>2018-12-30T10:30:04Z</time>
</trkpt>
<trkpt lat="49.1429841" lon="2.7114629">
<ele>96.60</ele>
<time>2018-12-30T10:30:06Z</time>
</trkpt>
<trkpt lat="49.1429520" lon="2.7115745">
<ele>97.52</ele>
<time>2018-12-30T10:30:08Z</time>
</trkpt>
<trkpt lat="49.1429278" lon="2.7116998">
<ele>97.60</ele>
<time>2018-12-30T10:30:10Z</time>
</trkpt>
<trkpt lat="49.1428859" lon="2.7118129">
<ele>98.31</ele>
<time>2018-12-30T10:30:12Z</time>
</trkpt>
<trkpt lat="49.1428603" lon="2.7118735">
<ele>98.52</ele>
<time>2018-12-30T10:30:13Z</time>
</trkpt>
<trkpt lat="49.1428120" lon="2.7119756">
<ele>98.60</ele>
<time>2018-12-30T10:30:15Z</time>
</trkpt>
<trkpt lat="49.1427610" lon="2.7120667">
<ele>99.31</ele>
<time>2018-12-30T10:30:17Z</time>
</trkpt>
<trkpt lat="49.1427269" lon="2.7121590">
<ele>100.28</ele>
<time>2018-12-30T10:30:19Z</time>
</trkpt>
<trkpt lat="49.1426856" lon="2.7122455">
<ele>100.58</ele>
<time>2018-12-30T10:30:21Z</time>
</trkpt>
<trkpt lat="49.1426457" lon="2.7123302">
<ele>100.61</ele>
<time>2018-12-30T10:30:23Z</time>
</trkpt>
<trkpt lat="49.1426018" lon="2.7124048">
<ele>100.61</ele>
<time>2018-12-30T10:30:25Z</time>
</trkpt>
<trkpt lat="49.1425489" lon="2.7124647">
<ele>101.52</ele>
<time>2018-12-30T10:30:27Z</time>
</trkpt>
<trkpt lat="49.1425041" lon="2.7125231">
<ele>101.60</ele>
<time>2018-12-30T10:30:29Z</time>
</trkpt>
<trkpt lat="49.1424623" lon="2.7125906">
<ele>102.31</ele>
<time>2018-12-30T10:30:31Z</time>
</trkpt>
<trkpt lat="49.1424327" lon="2.7126714">
<ele>102.58</ele>
<time>2018-12-30T10:30:33Z</time>
</trkpt>
<trkpt lat="49.1424106" lon="2.7127646">
<ele>103.52</ele>
<time>2018-12-30T10:30:35Z</time>
</trkpt>
<trkpt lat="49.1423731" lon="2.7128341">
<ele>104.51</ele>
<time>2018-12-30T10:30:37Z</time>
</trkpt>
<trkpt lat="49.1423396" lon="2.7129024">
<ele>104.60</ele>
<time>2018-12-30T10:30:39Z</time>
</trkpt>
<trkpt lat="49.1423094" lon="2.7129802">
<ele>105.52</ele>
<time>2018-12-30T10:30:41Z</time>
</trkpt>
<trkpt lat="49.1422687" lon="2.7130447">
<ele>105.60</ele>
<time>2018-12-30T10:30:43Z</time>
</trkpt>
<trkpt lat="49.1422367" lon="2.7131195">
<ele>106.31</ele>
<time>2018-12-30T10:30:45Z</time>
</trkpt>
<trkpt lat="49.1422028" lon="2.7131967">
<ele>107.28</ele>
<time>2018-12-30T10:30:47Z</time>
</trkpt>
<trkpt lat="49.1421794" lon="2.7132725">
<ele>108.28</ele>
<time>2018-12-30T10:30:49Z</time>
</trkpt>
<trkpt lat="49.1421482" lon="2.7133396">
<ele>108.58</ele>
<time>2018-12-30T10:30:51Z</time>
</trkpt>
<trkpt lat="49.1421077" lon="2.7134070">
<ele>110.22</ele>
<time>2018-12-30T10:30:53Z</time>
</trkpt>
<trkpt lat="49.1420667" lon="2.7134610">
<ele>110.58</ele>
<time>2018-12-30T10:30:55Z</time>
</trkpt>
<trkpt lat="49.1420193" lon="2.7135309">
<ele>111.58</ele>
<time>2018-12-30T10:30:58Z</time>
</trkpt>
<trkpt lat="49.1419804" lon="2.7135947">
<ele>112.31</ele>
<time>2018-12-30T10:31:01Z</time>
</trkpt>
<trkpt lat="49.1419719" lon="2.7136633">
<ele>112.61</ele>
<time>2018-12-30T10:31:08Z</time>
</trkpt>
<trkpt lat="49.1419445" lon="2.7137189">
<ele>116.13</ele>
<time>2018-12-30T10:31:23Z</time>
</trkpt>
<trkpt lat="49.1419257" lon="2.7137906">
<ele>117.31</ele>
<time>2018-12-30T10:31:29Z</time>
</trkpt>
<trkpt lat="49.1418931" lon="2.7138421">
<ele>118.31</ele>
<time>2018-12-30T10:31:56Z</time>
</trkpt>
<trkpt lat="49.1418807" lon="2.7139124">
<ele>119.51</ele>
<time>2018-12-30T10:31:59Z</time>
</trkpt>
<trkpt lat="49.1418621" lon="2.7140047">
<ele>119.34</ele>
<time>2018-12-30T10:32:02Z</time>
</trkpt>
<trkpt lat="49.1418434" lon="2.7140701">
<ele>120.50</ele>
<time>2018-12-30T10:32:04Z</time>
</trkpt>
<trkpt lat="49.1418281" lon="2.7141385">
<ele>121.30</ele>
<time>2018-12-30T10:32:06Z</time>
</trkpt>
<trkpt lat="49.1418182" lon="2.7142244">
<ele>122.28</ele>
<time>2018-12-30T10:32:08Z</time>
</trkpt>
<trkpt lat="49.1418051" lon="2.7143014">
<ele>122.58</ele>
<time>2018-12-30T10:32:10Z</time>
</trkpt>
<trkpt lat="49.1417816" lon="2.7143759">
<ele>122.61</ele>
<time>2018-12-30T10:32:12Z</time>
</trkpt>
<trkpt lat="49.1417579" lon="2.7144427">
<ele>123.31</ele>
<time>2018-12-30T10:32:14Z</time>
</trkpt>
<trkpt lat="49.1417211" lon="2.7145016">
<ele>125.49</ele>
<time>2018-12-30T10:32:17Z</time>
</trkpt>
<trkpt lat="49.1417163" lon="2.7145942">
<ele>125.61</ele>
<time>2018-12-30T10:32:21Z</time>
</trkpt>
<trkpt lat="49.1417051" lon="2.7146625">
<ele>126.61</ele>
<time>2018-12-30T10:32:32Z</time>
</trkpt>
<trkpt lat="49.1416689" lon="2.7145891">
<ele>126.61</ele>
<time>2018-12-30T10:32:38Z</time>
</trkpt>
<trkpt lat="49.1416338" lon="2.7145065">
<ele>126.61</ele>
<time>2018-12-30T10:32:40Z</time>
</trkpt>
<trkpt lat="49.1415791" lon="2.7144278">
<ele>127.31</ele>
<time>2018-12-30T10:32:42Z</time>
</trkpt>
<trkpt lat="49.1415229" lon="2.7143836">
<ele>126.67</ele>
<time>2018-12-30T10:32:44Z</time>
</trkpt>
<trkpt lat="49.1414502" lon="2.7143214">
<ele>127.53</ele>
<time>2018-12-30T10:32:46Z</time>
</trkpt>
<trkpt lat="49.1413918" lon="2.7142359">
<ele>128.30</ele>
<time>2018-12-30T10:32:48Z</time>
</trkpt>
<trkpt lat="49.1413160" lon="2.7141461">
<ele>128.58</ele>
<time>2018-12-30T10:32:50Z</time>
</trkpt>
<trkpt lat="49.1412561" lon="2.7140979">
<ele>128.60</ele>
<time>2018-12-30T10:32:51Z</time>
</trkpt>
<trkpt lat="49.1412052" lon="2.7140465">
<ele>128.61</ele>
<time>2018-12-30T10:32:52Z</time>
</trkpt>
<trkpt lat="49.1411559" lon="2.7139987">
<ele>127.91</ele>
<time>2018-12-30T10:32:53Z</time>
</trkpt>
<trkpt lat="49.1411127" lon="2.7139479">
<ele>127.70</ele>
<time>2018-12-30T10:32:54Z</time>
</trkpt>
<trkpt lat="49.1410730" lon="2.7139024">
<ele>128.34</ele>
<time>2018-12-30T10:32:55Z</time>
</trkpt>
<trkpt lat="49.1410321" lon="2.7138646">
<ele>128.53</ele>
<time>2018-12-30T10:32:56Z</time>
</trkpt>
<trkpt lat="49.1409921" lon="2.7138206">
<ele>128.59</ele>
<time>2018-12-30T10:32:57Z</time>
</trkpt>
<trkpt lat="49.1409299" lon="2.7137409">
<ele>128.61</ele>
<time>2018-12-30T10:32:59Z</time>
</trkpt>
<trkpt lat="49.1408508" lon="2.7136663">
<ele>128.61</ele>
<time>2018-12-30T10:33:01Z</time>
</trkpt>
<trkpt lat="49.1408104" lon="2.7136230">
<ele>128.61</ele>
<time>2018-12-30T10:33:02Z</time>
</trkpt>
<trkpt lat="49.1407644" lon="2.7135842">
<ele>127.91</ele>
<time>2018-12-30T10:33:03Z</time>
</trkpt>
<trkpt lat="49.1407254" lon="2.7135382">
<ele>127.70</ele>
<time>2018-12-30T10:33:04Z</time>
</trkpt>
<trkpt lat="49.1406856" lon="2.7134949">
<ele>127.64</ele>
<time>2018-12-30T10:33:05Z</time>
</trkpt>
<trkpt lat="49.1406231" lon="2.7134437">
<ele>126.70</ele>
<time>2018-12-30T10:33:07Z</time>
</trkpt>
<trkpt lat="49.1405644" lon="2.7133921">
<ele>127.53</ele>
<time>2018-12-30T10:33:09Z</time>
</trkpt>
<trkpt lat="49.1405045" lon="2.7133291">
<ele>127.60</ele>
<time>2018-12-30T10:33:11Z</time>
</trkpt>
<trkpt lat="49.1404422" lon="2.7132689">
<ele>128.31</ele>
<time>2018-12-30T10:33:13Z</time>
</trkpt>
<trkpt lat="49.1404055" lon="2.7132194">
<ele>128.52</ele>
<time>2018-12-30T10:33:14Z</time>
</trkpt>
<trkpt lat="49.1403634" lon="2.7131860">
<ele>128.58</ele>
<time>2018-12-30T10:33:15Z</time>
</trkpt>
<trkpt lat="49.1403232" lon="2.7131496">
<ele>129.30</ele>
<time>2018-12-30T10:33:16Z</time>
</trkpt>
<trkpt lat="49.1402525" lon="2.7130671">
<ele>129.58</ele>
<time>2018-12-30T10:33:18Z</time>
</trkpt>
<trkpt lat="49.1401901" lon="2.7129937">
<ele>130.31</ele>
<time>2018-12-30T10:33:20Z</time>
</trkpt>
<trkpt lat="49.1401354" lon="2.7129412">
<ele>130.58</ele>
<time>2018-12-30T10:33:22Z</time>
</trkpt>
<trkpt lat="49.1400786" lon="2.7128636">
<ele>129.91</ele>
<time>2018-12-30T10:33:24Z</time>
</trkpt>
<trkpt lat="49.1400145" lon="2.7127815">
<ele>130.34</ele>
<time>2018-12-30T10:33:26Z</time>
</trkpt>
<trkpt lat="49.1399262" lon="2.7127061">
<ele>130.59</ele>
<time>2018-12-30T10:33:28Z</time>
</trkpt>
<trkpt lat="49.1398773" lon="2.7126723">
<ele>130.60</ele>
<time>2018-12-30T10:33:29Z</time>
</trkpt>
<trkpt lat="49.1398391" lon="2.7126329">
<ele>130.61</ele>
<time>2018-12-30T10:33:30Z</time>
</trkpt>
<trkpt lat="49.1397723" lon="2.7125663">
<ele>131.31</ele>
<time>2018-12-30T10:33:32Z</time>
</trkpt>
<trkpt lat="49.1397175" lon="2.7125010">
<ele>131.37</ele>
<time>2018-12-30T10:33:34Z</time>
</trkpt>
<trkpt lat="49.1396623" lon="2.7124316">
<ele>131.59</ele>
<time>2018-12-30T10:33:36Z</time>
</trkpt>
<trkpt lat="49.1395991" lon="2.7123693">
<ele>131.61</ele>
<time>2018-12-30T10:33:38Z</time>
</trkpt>
<trkpt lat="49.1395373" lon="2.7123015">
<ele>131.61</ele>
<time>2018-12-30T10:33:40Z</time>
</trkpt>
<trkpt lat="49.1394804" lon="2.7122363">
<ele>131.61</ele>
<time>2018-12-30T10:33:42Z</time>
</trkpt>
<trkpt lat="49.1394192" lon="2.7121747">
<ele>131.61</ele>
<time>2018-12-30T10:33:44Z</time>
</trkpt>
<trkpt lat="49.1393637" lon="2.7121161">
<ele>131.61</ele>
<time>2018-12-30T10:33:46Z</time>
</trkpt>
<trkpt lat="49.1393084" lon="2.7120587">
<ele>131.61</ele>
<time>2018-12-30T10:33:48Z</time>
</trkpt>
<trkpt lat="49.1392519" lon="2.7120067">
<ele>131.61</ele>
<time>2018-12-30T10:33:50Z</time>
</trkpt>
<trkpt lat="49.1391920" lon="2.7119577">
<ele>130.70</ele>
<time>2018-12-30T10:33:52Z</time>
</trkpt>
<trkpt lat="49.1391241" lon="2.7118957">
<ele>131.53</ele>
<time>2018-12-30T10:33:54Z</time>
</trkpt>
<trkpt lat="49.1390603" lon="2.7118286">
<ele>131.60</ele>
<time>2018-12-30T10:33:56Z</time>
</trkpt>
<trkpt lat="49.1390197" lon="2.7117953">
<ele>131.61</ele>
<time>2018-12-30T10:33:57Z</time>
</trkpt>
<trkpt lat="49.1389793" lon="2.7117577">
<ele>131.61</ele>
<time>2018-12-30T10:33:58Z</time>
</trkpt>
<trkpt lat="49.1389364" lon="2.7117215">
<ele>131.61</ele>
<time>2018-12-30T10:33:59Z</time>
</trkpt>
<trkpt lat="49.1388974" lon="2.7116826">
<ele>131.61</ele>
<time>2018-12-30T10:34:00Z</time>
</trkpt>
<trkpt lat="49.1388570" lon="2.7116484">
<ele>130.91</ele>
<time>2018-12-30T10:34:01Z</time>
</trkpt>
<trkpt lat="49.1387824" lon="2.7115750">
<ele>130.43</ele>
<time>2018-12-30T10:34:03Z</time>
</trkpt>
<trkpt lat="49.1387461" lon="2.7115295">
<ele>130.56</ele>
<time>2018-12-30T10:34:04Z</time>
</trkpt>
<trkpt lat="49.1386724" lon="2.7114424">
<ele>129.91</ele>
<time>2018-12-30T10:34:06Z</time>
</trkpt>
<trkpt lat="49.1386268" lon="2.7113918">
<ele>129.70</ele>
<time>2018-12-30T10:34:07Z</time>
</trkpt>
<trkpt lat="49.1385846" lon="2.7113379">
<ele>129.64</ele>
<time>2018-12-30T10:34:08Z</time>
</trkpt>
<trkpt lat="49.1385418" lon="2.7112821">
<ele>129.62</ele>
<time>2018-12-30T10:34:09Z</time>
</trkpt>
<trkpt lat="49.1384978" lon="2.7112293">
<ele>129.61</ele>
<time>2018-12-30T10:34:10Z</time>
</trkpt>
<trkpt lat="49.1384607" lon="2.7111881">
<ele>129.61</ele>
<time>2018-12-30T10:34:11Z</time>
</trkpt>
<trkpt lat="49.1384206" lon="2.7111414">
<ele>129.61</ele>
<time>2018-12-30T10:34:12Z</time>
</trkpt>
<trkpt lat="49.1383789" lon="2.7111026">
<ele>129.61</ele>
<time>2018-12-30T10:34:13Z</time>
</trkpt>
<trkpt lat="49.1383409" lon="2.7110574">
<ele>129.61</ele>
<time>2018-12-30T10:34:14Z</time>
</trkpt>
<trkpt lat="49.1382780" lon="2.7109682">
<ele>129.61</ele>
<time>2018-12-30T10:34:16Z</time>
</trkpt>
<trkpt lat="49.1381963" lon="2.7108764">
<ele>129.61</ele>
<time>2018-12-30T10:34:18Z</time>
</trkpt>
<trkpt lat="49.1381511" lon="2.7108227">
<ele>129.61</ele>
<time>2018-12-30T10:34:19Z</time>
</trkpt>
<trkpt lat="49.1381102" lon="2.7107687">
<ele>129.61</ele>
<time>2018-12-30T10:34:20Z</time>
</trkpt>
<trkpt lat="49.1380728" lon="2.7107208">
<ele>128.91</ele>
<time>2018-12-30T10:34:21Z</time>
</trkpt>
<trkpt lat="49.1380347" lon="2.7106658">
<ele>128.70</ele>
<time>2018-12-30T10:34:22Z</time>
</trkpt>
<trkpt lat="49.1379867" lon="2.7106243">
<ele>127.94</ele>
<time>2018-12-30T10:34:23Z</time>
</trkpt>
<trkpt lat="49.1379506" lon="2.7105715">
<ele>128.41</ele>
<time>2018-12-30T10:34:24Z</time>
</trkpt>
<trkpt lat="49.1379211" lon="2.7104543">
<ele>126.98</ele>
<time>2018-12-30T10:34:26Z</time>
</trkpt>
<trkpt lat="49.1379380" lon="2.7103848">
<ele>126.02</ele>
<time>2018-12-30T10:34:27Z</time>
</trkpt>
<trkpt lat="49.1379797" lon="2.7102668">
<ele>124.74</ele>
<time>2018-12-30T10:34:29Z</time>
</trkpt>
<trkpt lat="49.1380163" lon="2.7101653">
<ele>123.71</ele>
<time>2018-12-30T10:34:31Z</time>
</trkpt>
<trkpt lat="49.1380580" lon="2.7100349">
<ele>122.92</ele>
<time>2018-12-30T10:34:33Z</time>
</trkpt>
<trkpt lat="49.1380764" lon="2.7099683">
<ele>122.70</ele>
<time>2018-12-30T10:34:34Z</time>
</trkpt>
<trkpt lat="49.1381070" lon="2.7098478">
<ele>121.71</ele>
<time>2018-12-30T10:34:36Z</time>
</trkpt>
<trkpt lat="49.1381424" lon="2.7097519">
<ele>122.53</ele>
<time>2018-12-30T10:34:38Z</time>
</trkpt>
<trkpt lat="49.1381709" lon="2.7096639">
<ele>122.60</ele>
<time>2018-12-30T10:34:40Z</time>
</trkpt>
<trkpt lat="49.1382026" lon="2.7095844">
<ele>122.61</ele>
<time>2018-12-30T10:34:42Z</time>
</trkpt>
<trkpt lat="49.1382386" lon="2.7094985">
<ele>122.61</ele>
<time>2018-12-30T10:34:44Z</time>
</trkpt>
<trkpt lat="49.1382767" lon="2.7094097">
<ele>122.61</ele>
<time>2018-12-30T10:34:46Z</time>
</trkpt>
<trkpt lat="49.1383099" lon="2.7093174">
<ele>122.61</ele>
<time>2018-12-30T10:34:48Z</time>
</trkpt>
<trkpt lat="49.1383390" lon="2.7092324">
<ele>122.61</ele>
<time>2018-12-30T10:34:50Z</time>
</trkpt>
<trkpt lat="49.1383654" lon="2.7091500">
<ele>123.31</ele>
<time>2018-12-30T10:34:52Z</time>
</trkpt>
<trkpt lat="49.1383914" lon="2.7090728">
<ele>123.58</ele>
<time>2018-12-30T10:34:54Z</time>
</trkpt>
<trkpt lat="49.1384210" lon="2.7090133">
<ele>123.61</ele>
<time>2018-12-30T10:34:56Z</time>
</trkpt>
<trkpt lat="49.1384650" lon="2.7089404">
<ele>123.61</ele>
<time>2018-12-30T10:34:58Z</time>
</trkpt>
<trkpt lat="49.1384999" lon="2.7088694">
<ele>124.31</ele>
<time>2018-12-30T10:34:59Z</time>
</trkpt>
<trkpt lat="49.1385379" lon="2.7088060">
<ele>124.52</ele>
<time>2018-12-30T10:35:00Z</time>
</trkpt>
<trkpt lat="49.1385755" lon="2.7087600">
<ele>124.58</ele>
<time>2018-12-30T10:35:01Z</time>
</trkpt>
<trkpt lat="49.1386572" lon="2.7086988">
<ele>125.31</ele>
<time>2018-12-30T10:35:03Z</time>
</trkpt>
<trkpt lat="49.1387179" lon="2.7086771">
<ele>125.52</ele>
<time>2018-12-30T10:35:04Z</time>
</trkpt>
<trkpt lat="49.1387909" lon="2.7086593">
<ele>125.58</ele>
<time>2018-12-30T10:35:05Z</time>
</trkpt>
<trkpt lat="49.1388693" lon="2.7086406">
<ele>125.60</ele>
<time>2018-12-30T10:35:06Z</time>
</trkpt>
<trkpt lat="49.1389565" lon="2.7086344">
<ele>125.61</ele>
<time>2018-12-30T10:35:07Z</time>
</trkpt>
<trkpt lat="49.1390513" lon="2.7086441">
<ele>125.61</ele>
<time>2018-12-30T10:35:08Z</time>
</trkpt>
<trkpt lat="49.1391421" lon="2.7086523">
<ele>125.61</ele>
<time>2018-12-30T10:35:09Z</time>
</trkpt>
<trkpt lat="49.1392370" lon="2.7086732">
<ele>125.61</ele>
<time>2018-12-30T10:35:10Z</time>
</trkpt>
<trkpt lat="49.1393373" lon="2.7086944">
<ele>125.61</ele>
<time>2018-12-30T10:35:11Z</time>
</trkpt>
<trkpt lat="49.1394387" lon="2.7087226">
<ele>125.61</ele>
<time>2018-12-30T10:35:12Z</time>
</trkpt>
<trkpt lat="49.1395394" lon="2.7087532">
<ele>124.91</ele>
<time>2018-12-30T10:35:13Z</time>
</trkpt>
<trkpt lat="49.1396406" lon="2.7087962">
<ele>124.00</ele>
<time>2018-12-30T10:35:14Z</time>
</trkpt>
<trkpt lat="49.1397443" lon="2.7088408">
<ele>123.03</ele>
<time>2018-12-30T10:35:15Z</time>
</trkpt>
<trkpt lat="49.1398449" lon="2.7088869">
<ele>122.74</ele>
<time>2018-12-30T10:35:16Z</time>
</trkpt>
<trkpt lat="49.1399426" lon="2.7089356">
<ele>121.95</ele>
<time>2018-12-30T10:35:17Z</time>
</trkpt>
<trkpt lat="49.1400375" lon="2.7089757">
<ele>121.01</ele>
<time>2018-12-30T10:35:18Z</time>
</trkpt>
<trkpt lat="49.1401331" lon="2.7090148">
<ele>120.73</ele>
<time>2018-12-30T10:35:19Z</time>
</trkpt>
<trkpt lat="49.1402196" lon="2.7090485">
<ele>119.25</ele>
<time>2018-12-30T10:35:20Z</time>
</trkpt>
<trkpt lat="49.1402969" lon="2.7090745">
<ele>118.10</ele>
<time>2018-12-30T10:35:21Z</time>
</trkpt>
<trkpt lat="49.1403515" lon="2.7090967">
<ele>117.76</ele>
<time>2018-12-30T10:35:22Z</time>
</trkpt>
<trkpt lat="49.1404188" lon="2.7091288">
<ele>116.01</ele>
<time>2018-12-30T10:35:24Z</time>
</trkpt>
<trkpt lat="49.1404078" lon="2.7090600">
<ele>113.91</ele>
<time>2018-12-30T10:35:34Z</time>
</trkpt>
<trkpt lat="49.1403804" lon="2.7089794">
<ele>113.62</ele>
<time>2018-12-30T10:35:37Z</time>
</trkpt>
<trkpt lat="49.1403687" lon="2.7089109">
<ele>113.61</ele>
<time>2018-12-30T10:35:39Z</time>
</trkpt>
<trkpt lat="49.1403394" lon="2.7088213">
<ele>114.31</ele>
<time>2018-12-30T10:35:42Z</time>
</trkpt>
<trkpt lat="49.1403102" lon="2.7087675">
<ele>114.58</ele>
<time>2018-12-30T10:35:44Z</time>
</trkpt>
<trkpt lat="49.1402833" lon="2.7087066">
<ele>114.61</ele>
<time>2018-12-30T10:35:46Z</time>
</trkpt>
<trkpt lat="49.1402481" lon="2.7086586">
<ele>114.61</ele>
<time>2018-12-30T10:35:48Z</time>
</trkpt>
<trkpt lat="49.1401958" lon="2.7086139">
<ele>115.52</ele>
<time>2018-12-30T10:35:51Z</time>
</trkpt>
<trkpt lat="49.1401426" lon="2.7085930">
<ele>116.52</ele>
<time>2018-12-30T10:36:00Z</time>
</trkpt>
<trkpt lat="49.1400826" lon="2.7085706">
<ele>117.31</ele>
<time>2018-12-30T10:36:03Z</time>
</trkpt>
<trkpt lat="49.1400230" lon="2.7085496">
<ele>117.58</ele>
<time>2018-12-30T10:36:05Z</time>
</trkpt>
<trkpt lat="49.1399734" lon="2.7085372">
<ele>117.61</ele>
<time>2018-12-30T10:36:07Z</time>
</trkpt>
<trkpt lat="49.1399185" lon="2.7085184">
<ele>117.61</ele>
<time>2018-12-30T10:36:09Z</time>
</trkpt>
<trkpt lat="49.1398646" lon="2.7085046">
<ele>117.61</ele>
<time>2018-12-30T10:36:11Z</time>
</trkpt>
<trkpt lat="49.1398216" lon="2.7084796">
<ele>117.61</ele>
<time>2018-12-30T10:36:13Z</time>
</trkpt>
<trkpt lat="49.1397698" lon="2.7084349">
<ele>118.31</ele>
<time>2018-12-30T10:36:16Z</time>
</trkpt>
<trkpt lat="49.1397258" lon="2.7083910">
<ele>119.30</ele>
<time>2018-12-30T10:36:19Z</time>
</trkpt>
<trkpt lat="49.1397827" lon="2.7084346">
<ele>119.61</ele>
<time>2018-12-30T10:36:52Z</time>
</trkpt>
<trkpt lat="49.1398310" lon="2.7084635">
<ele>118.91</ele>
<time>2018-12-30T10:36:54Z</time>
</trkpt>
<trkpt lat="49.1398892" lon="2.7084765">
<ele>119.32</ele>
<time>2018-12-30T10:36:57Z</time>
</trkpt>
<trkpt lat="49.1399365" lon="2.7084952">
<ele>119.58</ele>
<time>2018-12-30T10:36:59Z</time>
</trkpt>
<trkpt lat="49.1398860" lon="2.7085152">
<ele>116.70</ele>
<time>2018-12-30T10:38:41Z</time>
</trkpt>
<trkpt lat="49.1398234" lon="2.7084894">
<ele>116.61</ele>
<time>2018-12-30T10:38:45Z</time>
</trkpt>
<trkpt lat="49.1397673" lon="2.7084467">
<ele>117.31</ele>
<time>2018-12-30T10:38:48Z</time>
</trkpt>
<trkpt lat="49.1397269" lon="2.7084033">
<ele>117.58</ele>
<time>2018-12-30T10:38:50Z</time>
</trkpt>
<trkpt lat="49.1396976" lon="2.7083199">
<ele>117.61</ele>
<time>2018-12-30T10:38:52Z</time>
</trkpt>
<trkpt lat="49.1396631" lon="2.7082425">
<ele>117.61</ele>
<time>2018-12-30T10:38:54Z</time>
</trkpt>
<trkpt lat="49.1396367" lon="2.7081456">
<ele>117.61</ele>
<time>2018-12-30T10:38:56Z</time>
</trkpt>
<trkpt lat="49.1396451" lon="2.7080341">
<ele>117.61</ele>
<time>2018-12-30T10:38:58Z</time>
</trkpt>
<trkpt lat="49.1396842" lon="2.7078842">
<ele>117.61</ele>
<time>2018-12-30T10:39:00Z</time>
</trkpt>
<trkpt lat="49.1397086" lon="2.7077993">
<ele>116.91</ele>
<time>2018-12-30T10:39:01Z</time>
</trkpt>
<trkpt lat="49.1397320" lon="2.7077095">
<ele>116.00</ele>
<time>2018-12-30T10:39:02Z</time>
</trkpt>
<trkpt lat="49.1397586" lon="2.7076146">
<ele>114.33</ele>
<time>2018-12-30T10:39:03Z</time>
</trkpt>
<trkpt lat="49.1397940" lon="2.7075219">
<ele>113.83</ele>
<time>2018-12-30T10:39:04Z</time>
</trkpt>
<trkpt lat="49.1398274" lon="2.7074309">
<ele>113.68</ele>
<time>2018-12-30T10:39:05Z</time>
</trkpt>
<trkpt lat="49.1398542" lon="2.7073395">
<ele>113.63</ele>
<time>2018-12-30T10:39:06Z</time>
</trkpt>
<trkpt lat="49.1398761" lon="2.7072545">
<ele>113.62</ele>
<time>2018-12-30T10:39:07Z</time>
</trkpt>
<trkpt lat="49.1398963" lon="2.7071716">
<ele>112.91</ele>
<time>2018-12-30T10:39:08Z</time>
</trkpt>
<trkpt lat="49.1399069" lon="2.7070906">
<ele>112.70</ele>
<time>2018-12-30T10:39:09Z</time>
</trkpt>
<trkpt lat="49.1399134" lon="2.7070104">
<ele>112.64</ele>
<time>2018-12-30T10:39:10Z</time>
</trkpt>
<trkpt lat="49.1399241" lon="2.7069239">
<ele>112.62</ele>
<time>2018-12-30T10:39:11Z</time>
</trkpt>
<trkpt lat="49.1399335" lon="2.7068310">
<ele>112.61</ele>
<time>2018-12-30T10:39:12Z</time>
</trkpt>
<trkpt lat="49.1399345" lon="2.7067382">
<ele>112.61</ele>
<time>2018-12-30T10:39:13Z</time>
</trkpt>
<trkpt lat="49.1399240" lon="2.7066527">
<ele>112.61</ele>
<time>2018-12-30T10:39:14Z</time>
</trkpt>
<trkpt lat="49.1399122" lon="2.7065645">
<ele>112.61</ele>
<time>2018-12-30T10:39:15Z</time>
</trkpt>
<trkpt lat="49.1398961" lon="2.7064884">
<ele>112.61</ele>
<time>2018-12-30T10:39:16Z</time>
</trkpt>
<trkpt lat="49.1398795" lon="2.7064114">
<ele>112.61</ele>
<time>2018-12-30T10:39:17Z</time>
</trkpt>
<trkpt lat="49.1398736" lon="2.7063324">
<ele>112.61</ele>
<time>2018-12-30T10:39:18Z</time>
</trkpt>
<trkpt lat="49.1398807" lon="2.7062513">
<ele>112.61</ele>
<time>2018-12-30T10:39:19Z</time>
</trkpt>
<trkpt lat="49.1398867" lon="2.7061668">
<ele>113.31</ele>
<time>2018-12-30T10:39:20Z</time>
</trkpt>
<trkpt lat="49.1398874" lon="2.7060802">
<ele>113.52</ele>
<time>2018-12-30T10:39:21Z</time>
</trkpt>
<trkpt lat="49.1399108" lon="2.7059763">
<ele>113.60</ele>
<time>2018-12-30T10:39:23Z</time>
</trkpt>
<trkpt lat="49.1399339" lon="2.7058649">
<ele>113.61</ele>
<time>2018-12-30T10:39:25Z</time>
</trkpt>
<trkpt lat="49.1399365" lon="2.7057512">
<ele>113.61</ele>
<time>2018-12-30T10:39:26Z</time>
</trkpt>
<trkpt lat="49.1399361" lon="2.7056468">
<ele>113.61</ele>
<time>2018-12-30T10:39:27Z</time>
</trkpt>
<trkpt lat="49.1399292" lon="2.7055532">
<ele>113.61</ele>
<time>2018-12-30T10:39:28Z</time>
</trkpt>
<trkpt lat="49.1399087" lon="2.7054765">
<ele>113.61</ele>
<time>2018-12-30T10:39:29Z</time>
</trkpt>
<trkpt lat="49.1398716" lon="2.7054221">
<ele>113.61</ele>
<time>2018-12-30T10:39:30Z</time>
</trkpt>
<trkpt lat="49.1398231" lon="2.7053876">
<ele>113.61</ele>
<time>2018-12-30T10:39:31Z</time>
</trkpt>
<trkpt lat="49.1397725" lon="2.7053623">
<ele>113.61</ele>
<time>2018-12-30T10:39:32Z</time>
</trkpt>
<trkpt lat="49.1397213" lon="2.7053220">
<ele>113.61</ele>
<time>2018-12-30T10:39:33Z</time>
</trkpt>
<trkpt lat="49.1396722" lon="2.7052616">
<ele>113.61</ele>
<time>2018-12-30T10:39:34Z</time>
</trkpt>
<trkpt lat="49.1396549" lon="2.7051813">
<ele>113.61</ele>
<time>2018-12-30T10:39:35Z</time>
</trkpt>
<trkpt lat="49.1396398" lon="2.7051049">
<ele>114.52</ele>
<time>2018-12-30T10:39:37Z</time>
</trkpt>
<trkpt lat="49.1396420" lon="2.7051768">
<ele>113.34</ele>
<time>2018-12-30T10:39:49Z</time>
</trkpt>
<trkpt lat="49.1396509" lon="2.7052628">
<ele>113.60</ele>
<time>2018-12-30T10:39:52Z</time>
</trkpt>
<trkpt lat="49.1396753" lon="2.7053241">
<ele>114.52</ele>
<time>2018-12-30T10:39:54Z</time>
</trkpt>
<trkpt lat="49.1396525" lon="2.7052407">
<ele>114.59</ele>
<time>2018-12-30T10:39:59Z</time>
</trkpt>
<trkpt lat="49.1396405" lon="2.7051672">
<ele>114.61</ele>
<time>2018-12-30T10:40:01Z</time>
</trkpt>
<trkpt lat="49.1396405" lon="2.7050821">
<ele>114.61</ele>
<time>2018-12-30T10:40:04Z</time>
</trkpt>
<trkpt lat="49.1396322" lon="2.7050036">
<ele>114.61</ele>
<time>2018-12-30T10:40:08Z</time>
</trkpt>
<trkpt lat="49.1396515" lon="2.7049225">
<ele>114.61</ele>
<time>2018-12-30T10:40:12Z</time>
</trkpt>
<trkpt lat="49.1396396" lon="2.7048374">
<ele>112.31</ele>
<time>2018-12-30T10:41:15Z</time>
</trkpt>
<trkpt lat="49.1396357" lon="2.7047581">
<ele>112.58</ele>
<time>2018-12-30T10:41:17Z</time>
</trkpt>
<trkpt lat="49.1396266" lon="2.7046803">
<ele>112.61</ele>
<time>2018-12-30T10:41:19Z</time>
</trkpt>
<trkpt lat="49.1396136" lon="2.7046049">
<ele>112.61</ele>
<time>2018-12-30T10:41:21Z</time>
</trkpt>
<trkpt lat="49.1395854" lon="2.7045370">
<ele>114.22</ele>
<time>2018-12-30T10:41:23Z</time>
</trkpt>
<trkpt lat="49.1395497" lon="2.7044731">
<ele>114.58</ele>
<time>2018-12-30T10:41:25Z</time>
</trkpt>
<trkpt lat="49.1395135" lon="2.7044307">
<ele>113.70</ele>
<time>2018-12-30T10:41:27Z</time>
</trkpt>
<trkpt lat="49.1394637" lon="2.7043988">
<ele>114.52</ele>
<time>2018-12-30T10:42:48Z</time>
</trkpt>
<trkpt lat="49.1394101" lon="2.7043861">
<ele>116.51</ele>
<time>2018-12-30T10:42:52Z</time>
</trkpt>
<trkpt lat="49.1393553" lon="2.7043595">
<ele>116.61</ele>
<time>2018-12-30T10:42:55Z</time>
</trkpt>
<trkpt lat="49.1393067" lon="2.7043330">
<ele>116.61</ele>
<time>2018-12-30T10:42:57Z</time>
</trkpt>
<trkpt lat="49.1392616" lon="2.7043068">
<ele>116.61</ele>
<time>2018-12-30T10:42:59Z</time>
</trkpt>
<trkpt lat="49.1392000" lon="2.7042747">
<ele>117.31</ele>
<time>2018-12-30T10:43:02Z</time>
</trkpt>
<trkpt lat="49.1391541" lon="2.7042557">
<ele>117.58</ele>
<time>2018-12-30T10:43:04Z</time>
</trkpt>
<trkpt lat="49.1390929" lon="2.7042326">
<ele>117.61</ele>
<time>2018-12-30T10:43:07Z</time>
</trkpt>
<trkpt lat="49.1390445" lon="2.7042104">
<ele>117.61</ele>
<time>2018-12-30T10:43:09Z</time>
</trkpt>
<trkpt lat="49.1389908" lon="2.7041761">
<ele>117.61</ele>
<time>2018-12-30T10:43:11Z</time>
</trkpt>
<trkpt lat="49.1389416" lon="2.7041279">
<ele>117.61</ele>
<time>2018-12-30T10:43:13Z</time>
</trkpt>
<trkpt lat="49.1388833" lon="2.7040868">
<ele>118.52</ele>
<time>2018-12-30T10:43:15Z</time>
</trkpt>
<trkpt lat="49.1388332" lon="2.7040424">
<ele>119.31</ele>
<time>2018-12-30T10:43:18Z</time>
</trkpt>
<trkpt lat="49.1387931" lon="2.7039972">
<ele>119.58</ele>
<time>2018-12-30T10:43:20Z</time>
</trkpt>
<trkpt lat="49.1387465" lon="2.7039513">
<ele>119.61</ele>
<time>2018-12-30T10:43:22Z</time>
</trkpt>
<trkpt lat="49.1386954" lon="2.7039116">
<ele>119.61</ele>
<time>2018-12-30T10:43:24Z</time>
</trkpt>
<trkpt lat="49.1386271" lon="2.7038853">
<ele>119.61</ele>
<time>2018-12-30T10:43:26Z</time>
</trkpt>
<trkpt lat="49.1385727" lon="2.7038653">
<ele>119.61</ele>
<time>2018-12-30T10:43:28Z</time>
</trkpt>
<trkpt lat="49.1385221" lon="2.7038535">
<ele>119.61</ele>
<time>2018-12-30T10:43:30Z</time>
</trkpt>
<trkpt lat="49.1384755" lon="2.7038383">
<ele>119.61</ele>
<time>2018-12-30T10:43:32Z</time>
</trkpt>
<trkpt lat="49.1384240" lon="2.7038187">
<ele>119.61</ele>
<time>2018-12-30T10:43:34Z</time>
</trkpt>
<trkpt lat="49.1383678" lon="2.7038152">
<ele>120.31</ele>
<time>2018-12-30T10:43:36Z</time>
</trkpt>
<trkpt lat="49.1383170" lon="2.7038217">
<ele>120.58</ele>
<time>2018-12-30T10:43:38Z</time>
</trkpt>
<trkpt lat="49.1382576" lon="2.7038459">
<ele>120.61</ele>
<time>2018-12-30T10:43:40Z</time>
</trkpt>
<trkpt lat="49.1381924" lon="2.7038667">
<ele>120.61</ele>
<time>2018-12-30T10:43:42Z</time>
</trkpt>
<trkpt lat="49.1381297" lon="2.7038814">
<ele>119.70</ele>
<time>2018-12-30T10:43:44Z</time>
</trkpt>
<trkpt lat="49.1380715" lon="2.7039093">
<ele>120.53</ele>
<time>2018-12-30T10:43:46Z</time>
</trkpt>
<trkpt lat="49.1380079" lon="2.7039318">
<ele>120.60</ele>
<time>2018-12-30T10:43:48Z</time>
</trkpt>
<trkpt lat="49.1379510" lon="2.7039442">
<ele>120.61</ele>
<time>2018-12-30T10:43:50Z</time>
</trkpt>
<trkpt lat="49.1378862" lon="2.7039676">
<ele>121.52</ele>
<time>2018-12-30T10:43:52Z</time>
</trkpt>
<trkpt lat="49.1378190" lon="2.7039844">
<ele>121.60</ele>
<time>2018-12-30T10:43:54Z</time>
</trkpt>
<trkpt lat="49.1377554" lon="2.7040122">
<ele>121.61</ele>
<time>2018-12-30T10:43:56Z</time>
</trkpt>
<trkpt lat="49.1377024" lon="2.7040472">
<ele>122.52</ele>
<time>2018-12-30T10:43:58Z</time>
</trkpt>
<trkpt lat="49.1376814" lon="2.7041346">
<ele>122.60</ele>
<time>2018-12-30T10:44:00Z</time>
</trkpt>
<trkpt lat="49.1376706" lon="2.7042390">
<ele>122.61</ele>
<time>2018-12-30T10:44:02Z</time>
</trkpt>
<trkpt lat="49.1376494" lon="2.7043528">
<ele>121.91</ele>
<time>2018-12-30T10:44:04Z</time>
</trkpt>
<trkpt lat="49.1376124" lon="2.7044880">
<ele>120.73</ele>
<time>2018-12-30T10:44:06Z</time>
</trkpt>
<trkpt lat="49.1375897" lon="2.7045580">
<ele>120.65</ele>
<time>2018-12-30T10:44:07Z</time>
</trkpt>
<trkpt lat="49.1375716" lon="2.7046356">
<ele>120.62</ele>
<time>2018-12-30T10:44:08Z</time>
</trkpt>
<trkpt lat="49.1375532" lon="2.7047037">
<ele>121.31</ele>
<time>2018-12-30T10:44:09Z</time>
</trkpt>
<trkpt lat="49.1375389" lon="2.7047749">
<ele>121.52</ele>
<time>2018-12-30T10:44:10Z</time>
</trkpt>
<trkpt lat="49.1375272" lon="2.7048443">
<ele>121.58</ele>
<time>2018-12-30T10:44:11Z</time>
</trkpt>
<trkpt lat="49.1375155" lon="2.7049189">
<ele>120.90</ele>
<time>2018-12-30T10:44:12Z</time>
</trkpt>
<trkpt lat="49.1375066" lon="2.7049940">
<ele>120.70</ele>
<time>2018-12-30T10:44:13Z</time>
</trkpt>
<trkpt lat="49.1374942" lon="2.7050704">
<ele>120.64</ele>
<time>2018-12-30T10:44:14Z</time>
</trkpt>
<trkpt lat="49.1374776" lon="2.7051403">
<ele>120.62</ele>
<time>2018-12-30T10:44:15Z</time>
</trkpt>
<trkpt lat="49.1374499" lon="2.7052017">
<ele>120.61</ele>
<time>2018-12-30T10:44:16Z</time>
</trkpt>
<trkpt lat="49.1374138" lon="2.7052470">
<ele>121.31</ele>
<time>2018-12-30T10:44:17Z</time>
</trkpt>
<trkpt lat="49.1373738" lon="2.7052893">
<ele>121.52</ele>
<time>2018-12-30T10:44:18Z</time>
</trkpt>
<trkpt lat="49.1373380" lon="2.7053365">
<ele>122.28</ele>
<time>2018-12-30T10:44:19Z</time>
</trkpt>
<trkpt lat="49.1372856" lon="2.7053882">
<ele>123.49</ele>
<time>2018-12-30T10:44:21Z</time>
</trkpt>
<trkpt lat="49.1372297" lon="2.7054035">
<ele>123.60</ele>
<time>2018-12-30T10:44:23Z</time>
</trkpt>
<trkpt lat="49.1371561" lon="2.7054121">
<ele>122.70</ele>
<time>2018-12-30T10:44:25Z</time>
</trkpt>
<trkpt lat="49.1370816" lon="2.7054209">
<ele>121.71</ele>
<time>2018-12-30T10:44:27Z</time>
</trkpt>
<trkpt lat="49.1370156" lon="2.7054218">
<ele>120.71</ele>
<time>2018-12-30T10:44:29Z</time>
</trkpt>
<trkpt lat="49.1369466" lon="2.7054087">
<ele>121.32</ele>
<time>2018-12-30T10:44:31Z</time>
</trkpt>
<trkpt lat="49.1368661" lon="2.7053435">
<ele>121.58</ele>
<time>2018-12-30T10:44:33Z</time>
</trkpt>
<trkpt lat="49.1368209" lon="2.7052831">
<ele>122.31</ele>
<time>2018-12-30T10:44:35Z</time>
</trkpt>
<trkpt lat="49.1367781" lon="2.7052323">
<ele>122.61</ele>
<time>2018-12-30T10:44:39Z</time>
</trkpt>
<trkpt lat="49.1368149" lon="2.7052839">
<ele>122.61</ele>
<time>2018-12-30T10:44:47Z</time>
</trkpt>
<trkpt lat="49.1368495" lon="2.7053370">
<ele>122.61</ele>
<time>2018-12-30T10:44:49Z</time>
</trkpt>
<trkpt lat="49.1369008" lon="2.7053732">
<ele>121.70</ele>
<time>2018-12-30T10:44:51Z</time>
</trkpt>
<trkpt lat="49.1369562" lon="2.7053956">
<ele>121.62</ele>
<time>2018-12-30T10:44:53Z</time>
</trkpt>
<trkpt lat="49.1370058" lon="2.7053886">
<ele>121.61</ele>
<time>2018-12-30T10:44:55Z</time>
</trkpt>
<trkpt lat="49.1370369" lon="2.7053052">
<ele>121.34</ele>
<time>2018-12-30T10:44:58Z</time>
</trkpt>
<trkpt lat="49.1370202" lon="2.7051948">
<ele>120.68</ele>
<time>2018-12-30T10:45:00Z</time>
</trkpt>
<trkpt lat="49.1370414" lon="2.7050856">
<ele>120.62</ele>
<time>2018-12-30T10:45:02Z</time>
</trkpt>
<trkpt lat="49.1370820" lon="2.7049983">
<ele>120.61</ele>
<time>2018-12-30T10:45:04Z</time>
</trkpt>
<trkpt lat="49.1370936" lon="2.7049067">
<ele>120.61</ele>
<time>2018-12-30T10:45:07Z</time>
</trkpt>
<trkpt lat="49.1370596" lon="2.7048443">
<ele>120.61</ele>
<time>2018-12-30T10:45:09Z</time>
</trkpt>
<trkpt lat="49.1370240" lon="2.7047972">
<ele>119.91</ele>
<time>2018-12-30T10:45:10Z</time>
</trkpt>
<trkpt lat="49.1369879" lon="2.7047440">
<ele>119.70</ele>
<time>2018-12-30T10:45:11Z</time>
</trkpt>
<trkpt lat="49.1369605" lon="2.7046600">
<ele>118.94</ele>
<time>2018-12-30T10:45:12Z</time>
</trkpt>
<trkpt lat="49.1369488" lon="2.7045923">
<ele>118.71</ele>
<time>2018-12-30T10:45:13Z</time>
</trkpt>
<trkpt lat="49.1369403" lon="2.7044985">
<ele>118.64</ele>
<time>2018-12-30T10:45:14Z</time>
</trkpt>
<trkpt lat="49.1369332" lon="2.7043973">
<ele>118.62</ele>
<time>2018-12-30T10:45:15Z</time>
</trkpt>
<trkpt lat="49.1369229" lon="2.7042857">
<ele>117.91</ele>
<time>2018-12-30T10:45:16Z</time>
</trkpt>
<trkpt lat="49.1369132" lon="2.7041759">
<ele>117.70</ele>
<time>2018-12-30T10:45:17Z</time>
</trkpt>
<trkpt lat="49.1369026" lon="2.7040589">
<ele>116.94</ele>
<time>2018-12-30T10:45:18Z</time>
</trkpt>
<trkpt lat="49.1368911" lon="2.7039355">
<ele>116.71</ele>
<time>2018-12-30T10:45:19Z</time>
</trkpt>
<trkpt lat="49.1368816" lon="2.7038083">
<ele>116.64</ele>
<time>2018-12-30T10:45:20Z</time>
</trkpt>
<trkpt lat="49.1368676" lon="2.7036803">
<ele>116.62</ele>
<time>2018-12-30T10:45:21Z</time>
</trkpt>
<trkpt lat="49.1368575" lon="2.7035428">
<ele>115.91</ele>
<time>2018-12-30T10:45:22Z</time>
</trkpt>
<trkpt lat="49.1368504" lon="2.7034033">
<ele>115.70</ele>
<time>2018-12-30T10:45:23Z</time>
</trkpt>
<trkpt lat="49.1368295" lon="2.7032452">
<ele>114.94</ele>
<time>2018-12-30T10:45:24Z</time>
</trkpt>
<trkpt lat="49.1367925" lon="2.7030789">
<ele>114.01</ele>
<time>2018-12-30T10:45:25Z</time>
</trkpt>
<trkpt lat="49.1367534" lon="2.7029187">
<ele>113.73</ele>
<time>2018-12-30T10:45:26Z</time>
</trkpt>
<trkpt lat="49.1367133" lon="2.7027614">
<ele>112.95</ele>
<time>2018-12-30T10:45:27Z</time>
</trkpt>
<trkpt lat="49.1366868" lon="2.7026108">
<ele>112.01</ele>
<time>2018-12-30T10:45:28Z</time>
</trkpt>
<trkpt lat="49.1366593" lon="2.7024433">
<ele>111.73</ele>
<time>2018-12-30T10:45:29Z</time>
</trkpt>
<trkpt lat="49.1366281" lon="2.7022841">
<ele>110.95</ele>
<time>2018-12-30T10:45:30Z</time>
</trkpt>
<trkpt lat="49.1366100" lon="2.7021245">
<ele>110.01</ele>
<time>2018-12-30T10:45:31Z</time>
</trkpt>
<trkpt lat="49.1365859" lon="2.7019805">
<ele>109.03</ele>
<time>2018-12-30T10:45:32Z</time>
</trkpt>
<trkpt lat="49.1365625" lon="2.7018333">
<ele>108.04</ele>
<time>2018-12-30T10:45:33Z</time>
</trkpt>
<trkpt lat="49.1365390" lon="2.7016858">
<ele>107.04</ele>
<time>2018-12-30T10:45:34Z</time>
</trkpt>
<trkpt lat="49.1365155" lon="2.7015469">
<ele>106.04</ele>
<time>2018-12-30T10:45:35Z</time>
</trkpt>
<trkpt lat="49.1364945" lon="2.7014085">
<ele>105.04</ele>
<time>2018-12-30T10:45:36Z</time>
</trkpt>
<trkpt lat="49.1364773" lon="2.7012709">
<ele>104.74</ele>
<time>2018-12-30T10:45:37Z</time>
</trkpt>
<trkpt lat="49.1364565" lon="2.7011282">
<ele>103.95</ele>
<time>2018-12-30T10:45:38Z</time>
</trkpt>
<trkpt lat="49.1364368" lon="2.7010000">
<ele>102.31</ele>
<time>2018-12-30T10:45:39Z</time>
</trkpt>
<trkpt lat="49.1364144" lon="2.7009109">
<ele>101.12</ele>
<time>2018-12-30T10:45:40Z</time>
</trkpt>
<trkpt lat="49.1363775" lon="2.7009503">
<ele>95.91</ele>
<time>2018-12-30T10:46:05Z</time>
</trkpt>
<trkpt lat="49.1363315" lon="2.7009307">
<ele>95.64</ele>
<time>2018-12-30T10:46:07Z</time>
</trkpt>
<trkpt lat="49.1362572" lon="2.7008802">
<ele>95.61</ele>
<time>2018-12-30T10:46:09Z</time>
</trkpt>
<trkpt lat="49.1361846" lon="2.7007867">
<ele>94.70</ele>
<time>2018-12-30T10:46:11Z</time>
</trkpt>
<trkpt lat="49.1361508" lon="2.7007202">
<ele>94.64</ele>
<time>2018-12-30T10:46:12Z</time>
</trkpt>
<trkpt lat="49.1361111" lon="2.7006575">
<ele>94.62</ele>
<time>2018-12-30T10:46:13Z</time>
</trkpt>
<trkpt lat="49.1360643" lon="2.7005951">
<ele>93.91</ele>
<time>2018-12-30T10:46:14Z</time>
</trkpt>
<trkpt lat="49.1360072" lon="2.7005313">
<ele>93.00</ele>
<time>2018-12-30T10:46:15Z</time>
</trkpt>
<trkpt lat="49.1359537" lon="2.7004691">
<ele>92.73</ele>
<time>2018-12-30T10:46:16Z</time>
</trkpt>
<trkpt lat="49.1359051" lon="2.7004077">
<ele>92.65</ele>
<time>2018-12-30T10:46:17Z</time>
</trkpt>
<trkpt lat="49.1358555" lon="2.7003449">
<ele>92.62</ele>
<time>2018-12-30T10:46:18Z</time>
</trkpt>
<trkpt lat="49.1358081" lon="2.7002949">
<ele>92.61</ele>
<time>2018-12-30T10:46:19Z</time>
</trkpt>
<trkpt lat="49.1357648" lon="2.7002746">
<ele>91.91</ele>
<time>2018-12-30T10:46:20Z</time>
</trkpt>
<trkpt lat="49.1357181" lon="2.7003387">
<ele>90.73</ele>
<time>2018-12-30T10:46:22Z</time>
</trkpt>
<trkpt lat="49.1357460" lon="2.7004480">
<ele>90.62</ele>
<time>2018-12-30T10:46:24Z</time>
</trkpt>
<trkpt lat="49.1357682" lon="2.7005088">
<ele>90.61</ele>
<time>2018-12-30T10:46:25Z</time>
</trkpt>
<trkpt lat="49.1357891" lon="2.7006032">
<ele>89.70</ele>
<time>2018-12-30T10:46:27Z</time>
</trkpt>
<trkpt lat="49.1358029" lon="2.7006895">
<ele>89.62</ele>
<time>2018-12-30T10:46:29Z</time>
</trkpt>
<trkpt lat="49.1358166" lon="2.7007793">
<ele>89.82</ele>
<time>2018-12-30T10:46:31Z</time>
</trkpt>
<trkpt lat="49.1358265" lon="2.7008646">
<ele>90.33</ele>
<time>2018-12-30T10:46:33Z</time>
</trkpt>
<trkpt lat="49.1358395" lon="2.7009501">
<ele>90.38</ele>
<time>2018-12-30T10:46:35Z</time>
</trkpt>
<trkpt lat="49.1358512" lon="2.7010262">
<ele>89.89</ele>
<time>2018-12-30T10:46:37Z</time>
</trkpt>
<trkpt lat="49.1358611" lon="2.7011023">
<ele>89.64</ele>
<time>2018-12-30T10:46:39Z</time>
</trkpt>
<trkpt lat="49.1358694" lon="2.7011890">
<ele>89.61</ele>
<time>2018-12-30T10:46:41Z</time>
</trkpt>
<trkpt lat="49.1358775" lon="2.7012685">
<ele>90.31</ele>
<time>2018-12-30T10:46:43Z</time>
</trkpt>
<trkpt lat="49.1358871" lon="2.7013458">
<ele>90.58</ele>
<time>2018-12-30T10:46:45Z</time>
</trkpt>
<trkpt lat="49.1358994" lon="2.7014197">
<ele>91.31</ele>
<time>2018-12-30T10:46:47Z</time>
</trkpt>
<trkpt lat="49.1359181" lon="2.7014875">
<ele>91.58</ele>
<time>2018-12-30T10:46:49Z</time>
</trkpt>
<trkpt lat="49.1359297" lon="2.7015632">
<ele>91.61</ele>
<time>2018-12-30T10:46:51Z</time>
</trkpt>
<trkpt lat="49.1359417" lon="2.7016371">
<ele>91.61</ele>
<time>2018-12-30T10:46:53Z</time>
</trkpt>
<trkpt lat="49.1359509" lon="2.7017153">
<ele>91.61</ele>
<time>2018-12-30T10:46:55Z</time>
</trkpt>
<trkpt lat="49.1359658" lon="2.7017906">
<ele>91.61</ele>
<time>2018-12-30T10:46:57Z</time>
</trkpt>
<trkpt lat="49.1359785" lon="2.7018629">
<ele>91.61</ele>
<time>2018-12-30T10:46:59Z</time>
</trkpt>
<trkpt lat="49.1359989" lon="2.7019370">
<ele>91.61</ele>
<time>2018-12-30T10:47:02Z</time>
</trkpt>
<trkpt lat="49.1360108" lon="2.7020255">
<ele>91.61</ele>
<time>2018-12-30T10:47:05Z</time>
</trkpt>
<trkpt lat="49.1360184" lon="2.7021046">
<ele>91.61</ele>
<time>2018-12-30T10:47:08Z</time>
</trkpt>
<trkpt lat="49.1360374" lon="2.7022059">
<ele>91.61</ele>
<time>2018-12-30T10:47:11Z</time>
</trkpt>
<trkpt lat="49.1360440" lon="2.7022822">
<ele>90.70</ele>
<time>2018-12-30T10:47:13Z</time>
</trkpt>
<trkpt lat="49.1360545" lon="2.7023527">
<ele>90.62</ele>
<time>2018-12-30T10:47:15Z</time>
</trkpt>
<trkpt lat="49.1360667" lon="2.7024316">
<ele>90.61</ele>
<time>2018-12-30T10:47:17Z</time>
</trkpt>
<trkpt lat="49.1360762" lon="2.7025054">
<ele>90.61</ele>
<time>2018-12-30T10:47:19Z</time>
</trkpt>
<trkpt lat="49.1360850" lon="2.7025760">
<ele>90.61</ele>
<time>2018-12-30T10:47:21Z</time>
</trkpt>
<trkpt lat="49.1360999" lon="2.7026520">
<ele>90.61</ele>
<time>2018-12-30T10:47:23Z</time>
</trkpt>
<trkpt lat="49.1361131" lon="2.7027249">
<ele>90.61</ele>
<time>2018-12-30T10:47:25Z</time>
</trkpt>
<trkpt lat="49.1361277" lon="2.7027951">
<ele>90.61</ele>
<time>2018-12-30T10:47:27Z</time>
</trkpt>
<trkpt lat="49.1361368" lon="2.7028735">
<ele>90.61</ele>
<time>2018-12-30T10:47:29Z</time>
</trkpt>
<trkpt lat="49.1361532" lon="2.7029468">
<ele>90.61</ele>
<time>2018-12-30T10:47:31Z</time>
</trkpt>
<trkpt lat="49.1361683" lon="2.7030181">
<ele>90.61</ele>
<time>2018-12-30T10:47:33Z</time>
</trkpt>
<trkpt lat="49.1361891" lon="2.7030974">
<ele>90.61</ele>
<time>2018-12-30T10:47:35Z</time>
</trkpt>
<trkpt lat="49.1362046" lon="2.7031706">
<ele>90.61</ele>
<time>2018-12-30T10:47:37Z</time>
</trkpt>
<trkpt lat="49.1362244" lon="2.7032459">
<ele>90.61</ele>
<time>2018-12-30T10:47:39Z</time>
</trkpt>
<trkpt lat="49.1362384" lon="2.7033238">
<ele>90.61</ele>
<time>2018-12-30T10:47:41Z</time>
</trkpt>
<trkpt lat="49.1362543" lon="2.7033922">
<ele>91.52</ele>
<time>2018-12-30T10:47:43Z</time>
</trkpt>
<trkpt lat="49.1362619" lon="2.7034659">
<ele>92.30</ele>
<time>2018-12-30T10:47:45Z</time>
</trkpt>
<trkpt lat="49.1362722" lon="2.7035462">
<ele>93.28</ele>
<time>2018-12-30T10:47:47Z</time>
</trkpt>
<trkpt lat="49.1362846" lon="2.7036186">
<ele>94.28</ele>
<time>2018-12-30T10:47:49Z</time>
</trkpt>
<trkpt lat="49.1362909" lon="2.7036921">
<ele>94.58</ele>
<time>2018-12-30T10:47:51Z</time>
</trkpt>
<trkpt lat="49.1363025" lon="2.7037653">
<ele>95.31</ele>
<time>2018-12-30T10:47:53Z</time>
</trkpt>
<trkpt lat="49.1363077" lon="2.7038407">
<ele>96.28</ele>
<time>2018-12-30T10:47:55Z</time>
</trkpt>
<trkpt lat="49.1363139" lon="2.7039145">
<ele>97.28</ele>
<time>2018-12-30T10:47:57Z</time>
</trkpt>
<trkpt lat="49.1363250" lon="2.7039852">
<ele>98.28</ele>
<time>2018-12-30T10:47:59Z</time>
</trkpt>
<trkpt lat="49.1363392" lon="2.7040602">
<ele>100.19</ele>
<time>2018-12-30T10:48:01Z</time>
</trkpt>
<trkpt lat="49.1363440" lon="2.7041349">
<ele>101.27</ele>
<time>2018-12-30T10:48:03Z</time>
</trkpt>
<trkpt lat="49.1363556" lon="2.7042197">
<ele>102.28</ele>
<time>2018-12-30T10:48:05Z</time>
</trkpt>
<trkpt lat="49.1363641" lon="2.7042979">
<ele>102.58</ele>
<time>2018-12-30T10:48:07Z</time>
</trkpt>
<trkpt lat="49.1363685" lon="2.7043725">
<ele>103.31</ele>
<time>2018-12-30T10:48:09Z</time>
</trkpt>
<trkpt lat="49.1363753" lon="2.7044579">
<ele>104.58</ele>
<time>2018-12-30T10:48:12Z</time>
</trkpt>
<trkpt lat="49.1363348" lon="2.7045226">
<ele>110.09</ele>
<time>2018-12-30T10:48:16Z</time>
</trkpt>
<trkpt lat="49.1362905" lon="2.7045374">
<ele>112.17</ele>
<time>2018-12-30T10:48:18Z</time>
</trkpt>
<trkpt lat="49.1362375" lon="2.7045388">
<ele>113.51</ele>
<time>2018-12-30T10:48:21Z</time>
</trkpt>
<trkpt lat="49.1361904" lon="2.7045532">
<ele>114.58</ele>
<time>2018-12-30T10:48:24Z</time>
</trkpt>
<trkpt lat="49.1361294" lon="2.7045612">
<ele>115.58</ele>
<time>2018-12-30T10:48:27Z</time>
</trkpt>
<trkpt lat="49.1360754" lon="2.7045784">
<ele>115.61</ele>
<time>2018-12-30T10:48:29Z</time>
</trkpt>
<trkpt lat="49.1360062" lon="2.7045972">
<ele>115.82</ele>
<time>2018-12-30T10:48:31Z</time>
</trkpt>
<trkpt lat="49.1359394" lon="2.7046131">
<ele>116.33</ele>
<time>2018-12-30T10:48:33Z</time>
</trkpt>
<trkpt lat="49.1358746" lon="2.7046364">
<ele>116.59</ele>
<time>2018-12-30T10:48:35Z</time>
</trkpt>
<trkpt lat="49.1358171" lon="2.7046569">
<ele>117.52</ele>
<time>2018-12-30T10:48:37Z</time>
</trkpt>
<trkpt lat="49.1357650" lon="2.7046674">
<ele>117.60</ele>
<time>2018-12-30T10:48:39Z</time>
</trkpt>
<trkpt lat="49.1357107" lon="2.7046871">
<ele>117.61</ele>
<time>2018-12-30T10:48:41Z</time>
</trkpt>
<trkpt lat="49.1356613" lon="2.7047076">
<ele>117.61</ele>
<time>2018-12-30T10:48:43Z</time>
</trkpt>
<trkpt lat="49.1356076" lon="2.7047230">
<ele>117.61</ele>
<time>2018-12-30T10:48:45Z</time>
</trkpt>
<trkpt lat="49.1355481" lon="2.7047509">
<ele>118.52</ele>
<time>2018-12-30T10:48:47Z</time>
</trkpt>
<trkpt lat="49.1354779" lon="2.7047682">
<ele>118.60</ele>
<time>2018-12-30T10:48:49Z</time>
</trkpt>
<trkpt lat="49.1354128" lon="2.7047868">
<ele>119.31</ele>
<time>2018-12-30T10:48:51Z</time>
</trkpt>
<trkpt lat="49.1353431" lon="2.7048070">
<ele>119.58</ele>
<time>2018-12-30T10:48:53Z</time>
</trkpt>
<trkpt lat="49.1352602" lon="2.7048200">
<ele>119.61</ele>
<time>2018-12-30T10:48:55Z</time>
</trkpt>
<trkpt lat="49.1351836" lon="2.7048303">
<ele>119.61</ele>
<time>2018-12-30T10:48:57Z</time>
</trkpt>
<trkpt lat="49.1351037" lon="2.7048589">
<ele>120.52</ele>
<time>2018-12-30T10:48:59Z</time>
</trkpt>
<trkpt lat="49.1350598" lon="2.7048811">
<ele>121.28</ele>
<time>2018-12-30T10:49:00Z</time>
</trkpt>
<trkpt lat="49.1350136" lon="2.7049007">
<ele>122.21</ele>
<time>2018-12-30T10:49:01Z</time>
</trkpt>
<trkpt lat="49.1349612" lon="2.7049205">
<ele>122.49</ele>
<time>2018-12-30T10:49:02Z</time>
</trkpt>
<trkpt lat="49.1348787" lon="2.7049457">
<ele>124.21</ele>
<time>2018-12-30T10:49:04Z</time>
</trkpt>
<trkpt lat="49.1348318" lon="2.7049616">
<ele>123.79</ele>
<time>2018-12-30T10:49:05Z</time>
</trkpt>
<trkpt lat="49.1347861" lon="2.7049759">
<ele>123.66</ele>
<time>2018-12-30T10:49:06Z</time>
</trkpt>
<trkpt lat="49.1347384" lon="2.7049921">
<ele>123.63</ele>
<time>2018-12-30T10:49:07Z</time>
</trkpt>
<trkpt lat="49.1346461" lon="2.7050190">
<ele>124.52</ele>
<time>2018-12-30T10:49:09Z</time>
</trkpt>
<trkpt lat="49.1345965" lon="2.7050297">
<ele>123.88</ele>
<time>2018-12-30T10:49:10Z</time>
</trkpt>
<trkpt lat="49.1345447" lon="2.7050410">
<ele>123.69</ele>
<time>2018-12-30T10:49:11Z</time>
</trkpt>
<trkpt lat="49.1344962" lon="2.7050563">
<ele>123.64</ele>
<time>2018-12-30T10:49:12Z</time>
</trkpt>
<trkpt lat="49.1344494" lon="2.7050697">
<ele>123.62</ele>
<time>2018-12-30T10:49:13Z</time>
</trkpt>
<trkpt lat="49.1343998" lon="2.7050834">
<ele>124.31</ele>
<time>2018-12-30T10:49:14Z</time>
</trkpt>
<trkpt lat="49.1343499" lon="2.7050996">
<ele>124.52</ele>
<time>2018-12-30T10:49:15Z</time>
</trkpt>
<trkpt lat="49.1342986" lon="2.7051206">
<ele>124.58</ele>
<time>2018-12-30T10:49:16Z</time>
</trkpt>
<trkpt lat="49.1342442" lon="2.7051342">
<ele>124.60</ele>
<time>2018-12-30T10:49:17Z</time>
</trkpt>
<trkpt lat="49.1341829" lon="2.7051502">
<ele>124.61</ele>
<time>2018-12-30T10:49:18Z</time>
</trkpt>
<trkpt lat="49.1341332" lon="2.7051737">
<ele>124.61</ele>
<time>2018-12-30T10:49:19Z</time>
</trkpt>
<trkpt lat="49.1340826" lon="2.7051953">
<ele>124.61</ele>
<time>2018-12-30T10:49:20Z</time>
</trkpt>
<trkpt lat="49.1340300" lon="2.7052142">
<ele>124.61</ele>
<time>2018-12-30T10:49:21Z</time>
</trkpt>
<trkpt lat="49.1339774" lon="2.7052348">
<ele>124.61</ele>
<time>2018-12-30T10:49:22Z</time>
</trkpt>
<trkpt lat="49.1339253" lon="2.7052539">
<ele>124.61</ele>
<time>2018-12-30T10:49:23Z</time>
</trkpt>
<trkpt lat="49.1338683" lon="2.7052722">
<ele>123.91</ele>
<time>2018-12-30T10:49:24Z</time>
</trkpt>
<trkpt lat="49.1338172" lon="2.7052879">
<ele>123.70</ele>
<time>2018-12-30T10:49:25Z</time>
</trkpt>
<trkpt lat="49.1337605" lon="2.7053058">
<ele>123.64</ele>
<time>2018-12-30T10:49:26Z</time>
</trkpt>
<trkpt lat="49.1336965" lon="2.7053239">
<ele>123.62</ele>
<time>2018-12-30T10:49:27Z</time>
</trkpt>
<trkpt lat="49.1336379" lon="2.7053411">
<ele>123.61</ele>
<time>2018-12-30T10:49:28Z</time>
</trkpt>
<trkpt lat="49.1335731" lon="2.7053574">
<ele>123.61</ele>
<time>2018-12-30T10:49:29Z</time>
</trkpt>
<trkpt lat="49.1335169" lon="2.7053739">
<ele>123.61</ele>
<time>2018-12-30T10:49:30Z</time>
</trkpt>
<trkpt lat="49.1334599" lon="2.7053910">
<ele>123.61</ele>
<time>2018-12-30T10:49:31Z</time>
</trkpt>
<trkpt lat="49.1334100" lon="2.7054076">
<ele>123.61</ele>
<time>2018-12-30T10:49:32Z</time>
</trkpt>
<trkpt lat="49.1333647" lon="2.7054162">
<ele>123.61</ele>
<time>2018-12-30T10:49:33Z</time>
</trkpt>
<trkpt lat="49.1333099" lon="2.7054352">
<ele>123.61</ele>
<time>2018-12-30T10:49:34Z</time>
</trkpt>
<trkpt lat="49.1332551" lon="2.7054487">
<ele>123.61</ele>
<time>2018-12-30T10:49:35Z</time>
</trkpt>
<trkpt lat="49.1332033" lon="2.7054601">
<ele>123.61</ele>
<time>2018-12-30T10:49:36Z</time>
</trkpt>
<trkpt lat="49.1331449" lon="2.7054895">
<ele>122.91</ele>
<time>2018-12-30T10:49:38Z</time>
</trkpt>
<trkpt lat="49.1330891" lon="2.7054421">
<ele>123.61</ele>
<time>2018-12-30T10:51:04Z</time>
</trkpt>
<trkpt lat="49.1330403" lon="2.7054036">
<ele>123.61</ele>
<time>2018-12-30T10:51:06Z</time>
</trkpt>
<trkpt lat="49.1329796" lon="2.7053473">
<ele>123.61</ele>
<time>2018-12-30T10:51:08Z</time>
</trkpt>
<trkpt lat="49.1329168" lon="2.7052862">
<ele>123.61</ele>
<time>2018-12-30T10:51:10Z</time>
</trkpt>
<trkpt lat="49.1328375" lon="2.7052305">
<ele>123.82</ele>
<time>2018-12-30T10:51:12Z</time>
</trkpt>
<trkpt lat="49.1327707" lon="2.7051350">
<ele>123.63</ele>
<time>2018-12-30T10:51:14Z</time>
</trkpt>
<trkpt lat="49.1327293" lon="2.7050895">
<ele>123.62</ele>
<time>2018-12-30T10:51:15Z</time>
</trkpt>
<trkpt lat="49.1326848" lon="2.7050463">
<ele>123.61</ele>
<time>2018-12-30T10:51:16Z</time>
</trkpt>
<trkpt lat="49.1326369" lon="2.7050039">
<ele>123.61</ele>
<time>2018-12-30T10:51:17Z</time>
</trkpt>
<trkpt lat="49.1325905" lon="2.7049548">
<ele>123.61</ele>
<time>2018-12-30T10:51:18Z</time>
</trkpt>
<trkpt lat="49.1325435" lon="2.7048995">
<ele>123.61</ele>
<time>2018-12-30T10:51:19Z</time>
</trkpt>
<trkpt lat="49.1324942" lon="2.7048444">
<ele>123.61</ele>
<time>2018-12-30T10:51:20Z</time>
</trkpt>
<trkpt lat="49.1324464" lon="2.7047920">
<ele>123.61</ele>
<time>2018-12-30T10:51:21Z</time>
</trkpt>
<trkpt lat="49.1323957" lon="2.7047399">
<ele>123.61</ele>
<time>2018-12-30T10:51:22Z</time>
</trkpt>
<trkpt lat="49.1323388" lon="2.7046765">
<ele>123.61</ele>
<time>2018-12-30T10:51:23Z</time>
</trkpt>
<trkpt lat="49.1322772" lon="2.7046125">
<ele>122.91</ele>
<time>2018-12-30T10:51:24Z</time>
</trkpt>
<trkpt lat="49.1322157" lon="2.7045494">
<ele>122.70</ele>
<time>2018-12-30T10:51:25Z</time>
</trkpt>
<trkpt lat="49.1321569" lon="2.7044931">
<ele>122.64</ele>
<time>2018-12-30T10:51:26Z</time>
</trkpt>
<trkpt lat="49.1321051" lon="2.7044396">
<ele>122.62</ele>
<time>2018-12-30T10:51:27Z</time>
</trkpt>
<trkpt lat="49.1320503" lon="2.7043838">
<ele>122.61</ele>
<time>2018-12-30T10:51:28Z</time>
</trkpt>
<trkpt lat="49.1320020" lon="2.7043253">
<ele>121.91</ele>
<time>2018-12-30T10:51:29Z</time>
</trkpt>
<trkpt lat="49.1319484" lon="2.7042684">
<ele>121.70</ele>
<time>2018-12-30T10:51:30Z</time>
</trkpt>
<trkpt lat="49.1318966" lon="2.7042155">
<ele>121.64</ele>
<time>2018-12-30T10:51:31Z</time>
</trkpt>
<trkpt lat="49.1318440" lon="2.7041621">
<ele>121.62</ele>
<time>2018-12-30T10:51:32Z</time>
</trkpt>
<trkpt lat="49.1317929" lon="2.7041017">
<ele>121.61</ele>
<time>2018-12-30T10:51:33Z</time>
</trkpt>
<trkpt lat="49.1317422" lon="2.7040475">
<ele>121.61</ele>
<time>2018-12-30T10:51:34Z</time>
</trkpt>
<trkpt lat="49.1316874" lon="2.7039911">
<ele>121.61</ele>
<time>2018-12-30T10:51:35Z</time>
</trkpt>
<trkpt lat="49.1316363" lon="2.7039388">
<ele>121.61</ele>
<time>2018-12-30T10:51:36Z</time>
</trkpt>
<trkpt lat="49.1315865" lon="2.7039114">
<ele>121.61</ele>
<time>2018-12-30T10:51:37Z</time>
</trkpt>
<trkpt lat="49.1315347" lon="2.7039265">
<ele>121.61</ele>
<time>2018-12-30T10:51:38Z</time>
</trkpt>
<trkpt lat="49.1314804" lon="2.7040280">
<ele>120.70</ele>
<time>2018-12-30T10:51:40Z</time>
</trkpt>
<trkpt lat="49.1314682" lon="2.7041020">
<ele>120.64</ele>
<time>2018-12-30T10:51:41Z</time>
</trkpt>
<trkpt lat="49.1314451" lon="2.7041697">
<ele>120.62</ele>
<time>2018-12-30T10:51:42Z</time>
</trkpt>
<trkpt lat="49.1314156" lon="2.7042360">
<ele>120.61</ele>
<time>2018-12-30T10:51:43Z</time>
</trkpt>
<trkpt lat="49.1313911" lon="2.7043036">
<ele>120.61</ele>
<time>2018-12-30T10:51:44Z</time>
</trkpt>
<trkpt lat="49.1313643" lon="2.7043818">
<ele>121.31</ele>
<time>2018-12-30T10:51:45Z</time>
</trkpt>
<trkpt lat="49.1313288" lon="2.7044471">
<ele>120.82</ele>
<time>2018-12-30T10:51:46Z</time>
</trkpt>
<trkpt lat="49.1312760" lon="2.7045023">
<ele>120.67</ele>
<time>2018-12-30T10:51:47Z</time>
</trkpt>
<trkpt lat="49.1312208" lon="2.7045357">
<ele>119.93</ele>
<time>2018-12-30T10:51:48Z</time>
</trkpt>
<trkpt lat="49.1311625" lon="2.7045350">
<ele>119.71</ele>
<time>2018-12-30T10:51:49Z</time>
</trkpt>
<trkpt lat="49.1311083" lon="2.7045133">
<ele>119.64</ele>
<time>2018-12-30T10:51:50Z</time>
</trkpt>
<trkpt lat="49.1310486" lon="2.7045019">
<ele>118.92</ele>
<time>2018-12-30T10:51:51Z</time>
</trkpt>
<trkpt lat="49.1309953" lon="2.7044861">
<ele>118.70</ele>
<time>2018-12-30T10:51:52Z</time>
</trkpt>
<trkpt lat="49.1309393" lon="2.7044677">
<ele>118.64</ele>
<time>2018-12-30T10:51:53Z</time>
</trkpt>
<trkpt lat="49.1308753" lon="2.7044405">
<ele>118.62</ele>
<time>2018-12-30T10:51:54Z</time>
</trkpt>
<trkpt lat="49.1308137" lon="2.7044295">
<ele>117.91</ele>
<time>2018-12-30T10:51:55Z</time>
</trkpt>
<trkpt lat="49.1307577" lon="2.7044123">
<ele>117.70</ele>
<time>2018-12-30T10:51:56Z</time>
</trkpt>
<trkpt lat="49.1307010" lon="2.7043814">
<ele>117.64</ele>
<time>2018-12-30T10:51:57Z</time>
</trkpt>
<trkpt lat="49.1306539" lon="2.7043332">
<ele>117.62</ele>
<time>2018-12-30T10:51:58Z</time>
</trkpt>
<trkpt lat="49.1306056" lon="2.7042881">
<ele>117.61</ele>
<time>2018-12-30T10:51:59Z</time>
</trkpt>
<trkpt lat="49.1305640" lon="2.7042293">
<ele>117.61</ele>
<time>2018-12-30T10:52:00Z</time>
</trkpt>
<trkpt lat="49.1305186" lon="2.7041719">
<ele>116.91</ele>
<time>2018-12-30T10:52:01Z</time>
</trkpt>
<trkpt lat="49.1304670" lon="2.7041140">
<ele>116.70</ele>
<time>2018-12-30T10:52:02Z</time>
</trkpt>
<trkpt lat="49.1303993" lon="2.7040854">
<ele>116.64</ele>
<time>2018-12-30T10:52:03Z</time>
</trkpt>
<trkpt lat="49.1303274" lon="2.7040714">
<ele>116.62</ele>
<time>2018-12-30T10:52:04Z</time>
</trkpt>
<trkpt lat="49.1302692" lon="2.7040567">
<ele>116.61</ele>
<time>2018-12-30T10:52:05Z</time>
</trkpt>
<trkpt lat="49.1302071" lon="2.7040466">
<ele>116.61</ele>
<time>2018-12-30T10:52:06Z</time>
</trkpt>
<trkpt lat="49.1301511" lon="2.7040483">
<ele>116.61</ele>
<time>2018-12-30T10:52:07Z</time>
</trkpt>
<trkpt lat="49.1301018" lon="2.7040492">
<ele>115.91</ele>
<time>2018-12-30T10:52:08Z</time>
</trkpt>
<trkpt lat="49.1300526" lon="2.7040651">
<ele>115.70</ele>
<time>2018-12-30T10:52:09Z</time>
</trkpt>
<trkpt lat="49.1300026" lon="2.7040811">
<ele>114.94</ele>
<time>2018-12-30T10:52:10Z</time>
</trkpt>
<trkpt lat="49.1299252" lon="2.7040959">
<ele>114.64</ele>
<time>2018-12-30T10:52:12Z</time>
</trkpt>
<trkpt lat="49.1298680" lon="2.7041110">
<ele>113.70</ele>
<time>2018-12-30T10:52:14Z</time>
</trkpt>
<trkpt lat="49.1298141" lon="2.7041280">
<ele>113.62</ele>
<time>2018-12-30T10:52:16Z</time>
</trkpt>
<trkpt lat="49.1297600" lon="2.7041361">
<ele>113.61</ele>
<time>2018-12-30T10:52:19Z</time>
</trkpt>
<trkpt lat="49.1297602" lon="2.7040505">
<ele>111.91</ele>
<time>2018-12-30T10:52:31Z</time>
</trkpt>
<trkpt lat="49.1297756" lon="2.7039649">
<ele>110.94</ele>
<time>2018-12-30T10:52:33Z</time>
</trkpt>
<trkpt lat="49.1297839" lon="2.7038667">
<ele>110.64</ele>
<time>2018-12-30T10:52:35Z</time>
</trkpt>
<trkpt lat="49.1297442" lon="2.7038340">
<ele>110.61</ele>
<time>2018-12-30T10:52:37Z</time>
</trkpt>
<trkpt lat="49.1296918" lon="2.7038407">
<ele>109.70</ele>
<time>2018-12-30T10:52:39Z</time>
</trkpt>
<trkpt lat="49.1296469" lon="2.7038458">
<ele>109.62</ele>
<time>2018-12-30T10:52:41Z</time>
</trkpt>
<trkpt lat="49.1295765" lon="2.7038323">
<ele>109.61</ele>
<time>2018-12-30T10:52:44Z</time>
</trkpt>
<trkpt lat="49.1295123" lon="2.7037689">
<ele>109.82</ele>
<time>2018-12-30T10:52:46Z</time>
</trkpt>
<trkpt lat="49.1294347" lon="2.7037653">
<ele>109.63</ele>
<time>2018-12-30T10:52:48Z</time>
</trkpt>
<trkpt lat="49.1293829" lon="2.7037720">
<ele>108.22</ele>
<time>2018-12-30T10:52:49Z</time>
</trkpt>
<trkpt lat="49.1293141" lon="2.7037930">
<ele>107.79</ele>
<time>2018-12-30T10:52:50Z</time>
</trkpt>
<trkpt lat="49.1292609" lon="2.7038104">
<ele>107.67</ele>
<time>2018-12-30T10:52:51Z</time>
</trkpt>
<trkpt lat="49.1292186" lon="2.7038679">
<ele>107.62</ele>
<time>2018-12-30T10:52:53Z</time>
</trkpt>
<trkpt lat="49.1291985" lon="2.7039456">
<ele>107.61</ele>
<time>2018-12-30T10:53:13Z</time>
</trkpt>
<trkpt lat="49.1291581" lon="2.7040333">
<ele>107.34</ele>
<time>2018-12-30T10:53:18Z</time>
</trkpt>
<trkpt lat="49.1291011" lon="2.7040657">
<ele>105.93</ele>
<time>2018-12-30T10:53:21Z</time>
</trkpt>
<trkpt lat="49.1290466" lon="2.7040564">
<ele>104.92</ele>
<time>2018-12-30T10:53:24Z</time>
</trkpt>
<trkpt lat="49.1289966" lon="2.7040430">
<ele>104.64</ele>
<time>2018-12-30T10:53:26Z</time>
</trkpt>
<trkpt lat="49.1289159" lon="2.7040523">
<ele>103.00</ele>
<time>2018-12-30T10:53:28Z</time>
</trkpt>
<trkpt lat="49.1288667" lon="2.7040622">
<ele>102.03</ele>
<time>2018-12-30T10:53:29Z</time>
</trkpt>
<trkpt lat="49.1288134" lon="2.7040903">
<ele>98.34</ele>
<time>2018-12-30T10:53:32Z</time>
</trkpt>
<trkpt lat="49.1287686" lon="2.7040724">
<ele>93.73</ele>
<time>2018-12-30T10:53:43Z</time>
</trkpt>
<trkpt lat="49.1287441" lon="2.7040101">
<ele>92.61</ele>
<time>2018-12-30T10:53:51Z</time>
</trkpt>
<trkpt lat="49.1287300" lon="2.7039042">
<ele>92.61</ele>
<time>2018-12-30T10:53:54Z</time>
</trkpt>
<trkpt lat="49.1287192" lon="2.7038210">
<ele>91.91</ele>
<time>2018-12-30T10:53:56Z</time>
</trkpt>
<trkpt lat="49.1287007" lon="2.7037328">
<ele>91.64</ele>
<time>2018-12-30T10:53:58Z</time>
</trkpt>
<trkpt lat="49.1286836" lon="2.7036416">
<ele>91.61</ele>
<time>2018-12-30T10:54:00Z</time>
</trkpt>
<trkpt lat="49.1286620" lon="2.7035508">
<ele>91.61</ele>
<time>2018-12-30T10:54:02Z</time>
</trkpt>
<trkpt lat="49.1286497" lon="2.7034628">
<ele>91.40</ele>
<time>2018-12-30T10:54:04Z</time>
</trkpt>
<trkpt lat="49.1286400" lon="2.7033770">
<ele>90.89</ele>
<time>2018-12-30T10:54:06Z</time>
</trkpt>
<trkpt lat="49.1286285" lon="2.7032854">
<ele>91.34</ele>
<time>2018-12-30T10:54:08Z</time>
</trkpt>
<trkpt lat="49.1286196" lon="2.7031978">
<ele>91.59</ele>
<time>2018-12-30T10:54:10Z</time>
</trkpt>
<trkpt lat="49.1286194" lon="2.7030958">
<ele>91.61</ele>
<time>2018-12-30T10:54:12Z</time>
</trkpt>
<trkpt lat="49.1286158" lon="2.7029983">
<ele>90.70</ele>
<time>2018-12-30T10:54:14Z</time>
</trkpt>
<trkpt lat="49.1285954" lon="2.7028969">
<ele>90.62</ele>
<time>2018-12-30T10:54:16Z</time>
</trkpt>
<trkpt lat="49.1285909" lon="2.7027894">
<ele>90.61</ele>
<time>2018-12-30T10:54:18Z</time>
</trkpt>
<trkpt lat="49.1286068" lon="2.7027034">
<ele>90.61</ele>
<time>2018-12-30T10:54:20Z</time>
</trkpt>
<trkpt lat="49.1285805" lon="2.7026356">
<ele>91.52</ele>
<time>2018-12-30T10:54:22Z</time>
</trkpt>
<trkpt lat="49.1285356" lon="2.7025796">
<ele>91.60</ele>
<time>2018-12-30T10:54:24Z</time>
</trkpt>
<trkpt lat="49.1284864" lon="2.7025438">
<ele>91.61</ele>
<time>2018-12-30T10:54:26Z</time>
</trkpt>
<trkpt lat="49.1284246" lon="2.7025580">
<ele>90.70</ele>
<time>2018-12-30T10:54:28Z</time>
</trkpt>
<trkpt lat="49.1283628" lon="2.7025982">
<ele>90.62</ele>
<time>2018-12-30T10:54:30Z</time>
</trkpt>
<trkpt lat="49.1283052" lon="2.7026073">
<ele>90.61</ele>
<time>2018-12-30T10:54:32Z</time>
</trkpt>
<trkpt lat="49.1282352" lon="2.7025880">
<ele>89.70</ele>
<time>2018-12-30T10:54:34Z</time>
</trkpt>
<trkpt lat="49.1281661" lon="2.7025392">
<ele>89.62</ele>
<time>2018-12-30T10:54:36Z</time>
</trkpt>
<trkpt lat="49.1280999" lon="2.7024611">
<ele>88.70</ele>
<time>2018-12-30T10:54:38Z</time>
</trkpt>
<trkpt lat="49.1280415" lon="2.7023846">
<ele>87.71</ele>
<time>2018-12-30T10:54:40Z</time>
</trkpt>
<trkpt lat="49.1279832" lon="2.7023071">
<ele>86.92</ele>
<time>2018-12-30T10:54:42Z</time>
</trkpt>
<trkpt lat="49.1279240" lon="2.7022200">
<ele>86.64</ele>
<time>2018-12-30T10:54:44Z</time>
</trkpt>
<trkpt lat="49.1278592" lon="2.7021439">
<ele>86.61</ele>
<time>2018-12-30T10:54:46Z</time>
</trkpt>
<trkpt lat="49.1277945" lon="2.7020715">
<ele>86.61</ele>
<time>2018-12-30T10:54:48Z</time>
</trkpt>
<trkpt lat="49.1277312" lon="2.7019999">
<ele>86.40</ele>
<time>2018-12-30T10:54:50Z</time>
</trkpt>
<trkpt lat="49.1276667" lon="2.7019344">
<ele>87.29</ele>
<time>2018-12-30T10:54:52Z</time>
</trkpt>
<trkpt lat="49.1276055" lon="2.7018626">
<ele>87.58</ele>
<time>2018-12-30T10:54:54Z</time>
</trkpt>
<trkpt lat="49.1275440" lon="2.7017951">
<ele>87.61</ele>
<time>2018-12-30T10:54:56Z</time>
</trkpt>
<trkpt lat="49.1274870" lon="2.7017161">
<ele>88.52</ele>
<time>2018-12-30T10:54:58Z</time>
</trkpt>
<trkpt lat="49.1274349" lon="2.7016273">
<ele>88.60</ele>
<time>2018-12-30T10:55:00Z</time>
</trkpt>
<trkpt lat="49.1274072" lon="2.7015122">
<ele>89.52</ele>
<time>2018-12-30T10:55:02Z</time>
</trkpt>
<trkpt lat="49.1273982" lon="2.7013984">
<ele>89.60</ele>
<time>2018-12-30T10:55:04Z</time>
</trkpt>
<trkpt lat="49.1274121" lon="2.7012706">
<ele>90.31</ele>
<time>2018-12-30T10:55:06Z</time>
</trkpt>
<trkpt lat="49.1274297" lon="2.7011395">
<ele>90.58</ele>
<time>2018-12-30T10:55:08Z</time>
</trkpt>
<trkpt lat="49.1274400" lon="2.7010664">
<ele>90.60</ele>
<time>2018-12-30T10:55:09Z</time>
</trkpt>
<trkpt lat="49.1274537" lon="2.7009982">
<ele>90.61</ele>
<time>2018-12-30T10:55:10Z</time>
</trkpt>
<trkpt lat="49.1274659" lon="2.7009240">
<ele>90.61</ele>
<time>2018-12-30T10:55:11Z</time>
</trkpt>
<trkpt lat="49.1274764" lon="2.7008524">
<ele>90.61</ele>
<time>2018-12-30T10:55:12Z</time>
</trkpt>
<trkpt lat="49.1274895" lon="2.7007799">
<ele>90.61</ele>
<time>2018-12-30T10:55:13Z</time>
</trkpt>
<trkpt lat="49.1275016" lon="2.7007101">
<ele>90.61</ele>
<time>2018-12-30T10:55:14Z</time>
</trkpt>
<trkpt lat="49.1275153" lon="2.7006407">
<ele>90.61</ele>
<time>2018-12-30T10:55:15Z</time>
</trkpt>
<trkpt lat="49.1275250" lon="2.7005718">
<ele>90.61</ele>
<time>2018-12-30T10:55:16Z</time>
</trkpt>
<trkpt lat="49.1275315" lon="2.7005033">
<ele>90.61</ele>
<time>2018-12-30T10:55:17Z</time>
</trkpt>
<trkpt lat="49.1275349" lon="2.7004335">
<ele>90.61</ele>
<time>2018-12-30T10:55:18Z</time>
</trkpt>
<trkpt lat="49.1275499" lon="2.7003103">
<ele>91.31</ele>
<time>2018-12-30T10:55:20Z</time>
</trkpt>
<trkpt lat="49.1275774" lon="2.7002324">
<ele>91.58</ele>
<time>2018-12-30T10:55:22Z</time>
</trkpt>
<trkpt lat="49.1276257" lon="2.7001962">
<ele>91.61</ele>
<time>2018-12-30T10:55:24Z</time>
</trkpt>
<trkpt lat="49.1276820" lon="2.7002024">
<ele>91.61</ele>
<time>2018-12-30T10:55:26Z</time>
</trkpt>
<trkpt lat="49.1277382" lon="2.7002105">
<ele>91.61</ele>
<time>2018-12-30T10:55:28Z</time>
</trkpt>
<trkpt lat="49.1278058" lon="2.7002185">
<ele>91.61</ele>
<time>2018-12-30T10:55:30Z</time>
</trkpt>
<trkpt lat="49.1278698" lon="2.7002110">
<ele>90.70</ele>
<time>2018-12-30T10:55:32Z</time>
</trkpt>
<trkpt lat="49.1279082" lon="2.7001301">
<ele>90.62</ele>
<time>2018-12-30T10:55:34Z</time>
</trkpt>
<trkpt lat="49.1279270" lon="2.7000434">
<ele>90.61</ele>
<time>2018-12-30T10:55:36Z</time>
</trkpt>
<trkpt lat="49.1279452" lon="2.6999429">
<ele>89.70</ele>
<time>2018-12-30T10:55:38Z</time>
</trkpt>
<trkpt lat="49.1279555" lon="2.6998367">
<ele>89.62</ele>
<time>2018-12-30T10:55:40Z</time>
</trkpt>
<trkpt lat="49.1279614" lon="2.6997242">
<ele>89.61</ele>
<time>2018-12-30T10:55:42Z</time>
</trkpt>
<trkpt lat="49.1279631" lon="2.6996044">
<ele>88.70</ele>
<time>2018-12-30T10:55:44Z</time>
</trkpt>
<trkpt lat="49.1279651" lon="2.6994942">
<ele>88.62</ele>
<time>2018-12-30T10:55:46Z</time>
</trkpt>
<trkpt lat="49.1279566" lon="2.6993694">
<ele>88.61</ele>
<time>2018-12-30T10:55:48Z</time>
</trkpt>
<trkpt lat="49.1279527" lon="2.6992402">
<ele>87.91</ele>
<time>2018-12-30T10:55:50Z</time>
</trkpt>
<trkpt lat="49.1279408" lon="2.6991370">
<ele>87.64</ele>
<time>2018-12-30T10:55:52Z</time>
</trkpt>
<trkpt lat="49.1279298" lon="2.6990290">
<ele>86.91</ele>
<time>2018-12-30T10:55:54Z</time>
</trkpt>
<trkpt lat="49.1279204" lon="2.6989175">
<ele>86.64</ele>
<time>2018-12-30T10:55:56Z</time>
</trkpt>
<trkpt lat="49.1279022" lon="2.6988059">
<ele>85.70</ele>
<time>2018-12-30T10:55:58Z</time>
</trkpt>
<trkpt lat="49.1278866" lon="2.6986926">
<ele>85.62</ele>
<time>2018-12-30T10:56:00Z</time>
</trkpt>
<trkpt lat="49.1278757" lon="2.6985686">
<ele>85.61</ele>
<time>2018-12-30T10:56:02Z</time>
</trkpt>
<trkpt lat="49.1278605" lon="2.6984495">
<ele>85.61</ele>
<time>2018-12-30T10:56:04Z</time>
</trkpt>
<trkpt lat="49.1278460" lon="2.6983384">
<ele>84.70</ele>
<time>2018-12-30T10:56:06Z</time>
</trkpt>
<trkpt lat="49.1278384" lon="2.6982235">
<ele>83.71</ele>
<time>2018-12-30T10:56:08Z</time>
</trkpt>
<trkpt lat="49.1278291" lon="2.6980962">
<ele>83.62</ele>
<time>2018-12-30T10:56:10Z</time>
</trkpt>
<trkpt lat="49.1278208" lon="2.6980283">
<ele>84.31</ele>
<time>2018-12-30T10:56:11Z</time>
</trkpt>
<trkpt lat="49.1278135" lon="2.6979584">
<ele>84.52</ele>
<time>2018-12-30T10:56:12Z</time>
</trkpt>
<trkpt lat="49.1278037" lon="2.6978356">
<ele>84.60</ele>
<time>2018-12-30T10:56:14Z</time>
</trkpt>
<trkpt lat="49.1277958" lon="2.6977257">
<ele>84.61</ele>
<time>2018-12-30T10:56:16Z</time>
</trkpt>
<trkpt lat="49.1277883" lon="2.6976167">
<ele>84.61</ele>
<time>2018-12-30T10:56:18Z</time>
</trkpt>
<trkpt lat="49.1277807" lon="2.6975017">
<ele>84.61</ele>
<time>2018-12-30T10:56:20Z</time>
</trkpt>
<trkpt lat="49.1277777" lon="2.6973778">
<ele>84.61</ele>
<time>2018-12-30T10:56:22Z</time>
</trkpt>
<trkpt lat="49.1277789" lon="2.6972630">
<ele>84.61</ele>
<time>2018-12-30T10:56:24Z</time>
</trkpt>
<trkpt lat="49.1277832" lon="2.6971452">
<ele>84.61</ele>
<time>2018-12-30T10:56:26Z</time>
</trkpt>
<trkpt lat="49.1277774" lon="2.6970206">
<ele>84.61</ele>
<time>2018-12-30T10:56:28Z</time>
</trkpt>
<trkpt lat="49.1277734" lon="2.6968966">
<ele>84.40</ele>
<time>2018-12-30T10:56:30Z</time>
</trkpt>
<trkpt lat="49.1277761" lon="2.6968271">
<ele>83.85</ele>
<time>2018-12-30T10:56:31Z</time>
</trkpt>
<trkpt lat="49.1277784" lon="2.6967553">
<ele>83.68</ele>
<time>2018-12-30T10:56:32Z</time>
</trkpt>
<trkpt lat="49.1277773" lon="2.6966857">
<ele>83.63</ele>
<time>2018-12-30T10:56:33Z</time>
</trkpt>
<trkpt lat="49.1277626" lon="2.6965594">
<ele>83.61</ele>
<time>2018-12-30T10:56:35Z</time>
</trkpt>
<trkpt lat="49.1277340" lon="2.6964351">
<ele>84.52</ele>
<time>2018-12-30T10:56:37Z</time>
</trkpt>
<trkpt lat="49.1276950" lon="2.6963201">
<ele>84.60</ele>
<time>2018-12-30T10:56:39Z</time>
</trkpt>
<trkpt lat="49.1276597" lon="2.6962023">
<ele>84.61</ele>
<time>2018-12-30T10:56:41Z</time>
</trkpt>
<trkpt lat="49.1276242" lon="2.6960908">
<ele>85.52</ele>
<time>2018-12-30T10:56:43Z</time>
</trkpt>
<trkpt lat="49.1275867" lon="2.6959908">
<ele>85.60</ele>
<time>2018-12-30T10:56:45Z</time>
</trkpt>
<trkpt lat="49.1275348" lon="2.6958965">
<ele>85.61</ele>
<time>2018-12-30T10:56:47Z</time>
</trkpt>
<trkpt lat="49.1274834" lon="2.6958109">
<ele>85.61</ele>
<time>2018-12-30T10:56:49Z</time>
</trkpt>
<trkpt lat="49.1274362" lon="2.6957232">
<ele>84.70</ele>
<time>2018-12-30T10:56:51Z</time>
</trkpt>
<trkpt lat="49.1273882" lon="2.6956214">
<ele>84.62</ele>
<time>2018-12-30T10:56:53Z</time>
</trkpt>
<trkpt lat="49.1273346" lon="2.6955181">
<ele>84.61</ele>
<time>2018-12-30T10:56:55Z</time>
</trkpt>
<trkpt lat="49.1273033" lon="2.6954687">
<ele>84.61</ele>
<time>2018-12-30T10:56:56Z</time>
</trkpt>
<trkpt lat="49.1272445" lon="2.6953788">
<ele>85.52</ele>
<time>2018-12-30T10:56:58Z</time>
</trkpt>
<trkpt lat="49.1271861" lon="2.6952878">
<ele>86.51</ele>
<time>2018-12-30T10:57:00Z</time>
</trkpt>
<trkpt lat="49.1271316" lon="2.6951908">
<ele>85.69</ele>
<time>2018-12-30T10:57:02Z</time>
</trkpt>
<trkpt lat="49.1270784" lon="2.6950938">
<ele>85.62</ele>
<time>2018-12-30T10:57:04Z</time>
</trkpt>
<trkpt lat="49.1270244" lon="2.6950055">
<ele>85.61</ele>
<time>2018-12-30T10:57:06Z</time>
</trkpt>
<trkpt lat="49.1269620" lon="2.6949094">
<ele>85.61</ele>
<time>2018-12-30T10:57:08Z</time>
</trkpt>
<trkpt lat="49.1269094" lon="2.6948074">
<ele>85.61</ele>
<time>2018-12-30T10:57:10Z</time>
</trkpt>
<trkpt lat="49.1268559" lon="2.6947058">
<ele>85.61</ele>
<time>2018-12-30T10:57:12Z</time>
</trkpt>
<trkpt lat="49.1267979" lon="2.6946090">
<ele>85.61</ele>
<time>2018-12-30T10:57:14Z</time>
</trkpt>
<trkpt lat="49.1267683" lon="2.6945561">
<ele>85.61</ele>
<time>2018-12-30T10:57:15Z</time>
</trkpt>
<trkpt lat="49.1267412" lon="2.6945011">
<ele>86.31</ele>
<time>2018-12-30T10:57:16Z</time>
</trkpt>
<trkpt lat="49.1266950" lon="2.6943955">
<ele>86.58</ele>
<time>2018-12-30T10:57:18Z</time>
</trkpt>
<trkpt lat="49.1266324" lon="2.6943165">
<ele>86.61</ele>
<time>2018-12-30T10:57:20Z</time>
</trkpt>
<trkpt lat="49.1265938" lon="2.6942784">
<ele>86.61</ele>
<time>2018-12-30T10:57:21Z</time>
</trkpt>
<trkpt lat="49.1265554" lon="2.6942381">
<ele>86.61</ele>
<time>2018-12-30T10:57:22Z</time>
</trkpt>
<trkpt lat="49.1265191" lon="2.6941949">
<ele>85.91</ele>
<time>2018-12-30T10:57:23Z</time>
</trkpt>
<trkpt lat="49.1264492" lon="2.6941179">
<ele>85.64</ele>
<time>2018-12-30T10:57:25Z</time>
</trkpt>
<trkpt lat="49.1263737" lon="2.6940640">
<ele>85.61</ele>
<time>2018-12-30T10:57:27Z</time>
</trkpt>
<trkpt lat="49.1262979" lon="2.6940010">
<ele>85.61</ele>
<time>2018-12-30T10:57:29Z</time>
</trkpt>
<trkpt lat="49.1262178" lon="2.6939392">
<ele>85.61</ele>
<time>2018-12-30T10:57:31Z</time>
</trkpt>
<trkpt lat="49.1261402" lon="2.6938753">
<ele>85.61</ele>
<time>2018-12-30T10:57:33Z</time>
</trkpt>
<trkpt lat="49.1260639" lon="2.6938126">
<ele>84.70</ele>
<time>2018-12-30T10:57:35Z</time>
</trkpt>
<trkpt lat="49.1259910" lon="2.6937493">
<ele>84.62</ele>
<time>2018-12-30T10:57:37Z</time>
</trkpt>
<trkpt lat="49.1259291" lon="2.6936951">
<ele>83.70</ele>
<time>2018-12-30T10:57:39Z</time>
</trkpt>
<trkpt lat="49.1258565" lon="2.6936457">
<ele>83.62</ele>
<time>2018-12-30T10:57:41Z</time>
</trkpt>
<trkpt lat="49.1257840" lon="2.6935921">
<ele>83.61</ele>
<time>2018-12-30T10:57:43Z</time>
</trkpt>
<trkpt lat="49.1257160" lon="2.6935351">
<ele>84.31</ele>
<time>2018-12-30T10:57:45Z</time>
</trkpt>
<trkpt lat="49.1256608" lon="2.6934968">
<ele>84.58</ele>
<time>2018-12-30T10:57:47Z</time>
</trkpt>
<trkpt lat="49.1256162" lon="2.6934137">
<ele>85.31</ele>
<time>2018-12-30T10:57:50Z</time>
</trkpt>
<trkpt lat="49.1255946" lon="2.6933114">
<ele>85.37</ele>
<time>2018-12-30T10:57:52Z</time>
</trkpt>
<trkpt lat="49.1255552" lon="2.6932362">
<ele>84.68</ele>
<time>2018-12-30T10:57:54Z</time>
</trkpt>
<trkpt lat="49.1255080" lon="2.6932480">
<ele>85.32</ele>
<time>2018-12-30T10:57:56Z</time>
</trkpt>
<trkpt lat="49.1254960" lon="2.6933364">
<ele>84.90</ele>
<time>2018-12-30T10:57:59Z</time>
</trkpt>
<trkpt lat="49.1255047" lon="2.6934071">
<ele>85.31</ele>
<time>2018-12-30T11:18:49Z</time>
</trkpt>
<trkpt lat="49.1255437" lon="2.6934487">
<ele>85.61</ele>
<time>2018-12-30T11:19:02Z</time>
</trkpt>
<trkpt lat="49.1255961" lon="2.6934086">
<ele>84.70</ele>
<time>2018-12-30T11:19:05Z</time>
</trkpt>
<trkpt lat="49.1256225" lon="2.6933466">
<ele>84.62</ele>
<time>2018-12-30T11:19:07Z</time>
</trkpt>
<trkpt lat="49.1256343" lon="2.6932288">
<ele>85.31</ele>
<time>2018-12-30T11:19:09Z</time>
</trkpt>
<trkpt lat="49.1256250" lon="2.6931004">
<ele>85.58</ele>
<time>2018-12-30T11:19:11Z</time>
</trkpt>
<trkpt lat="49.1256158" lon="2.6930275">
<ele>86.30</ele>
<time>2018-12-30T11:19:12Z</time>
</trkpt>
<trkpt lat="49.1256059" lon="2.6929539">
<ele>86.52</ele>
<time>2018-12-30T11:19:13Z</time>
</trkpt>
<trkpt lat="49.1256030" lon="2.6928698">
<ele>85.88</ele>
<time>2018-12-30T11:19:14Z</time>
</trkpt>
<trkpt lat="49.1256039" lon="2.6927782">
<ele>85.69</ele>
<time>2018-12-30T11:19:15Z</time>
</trkpt>
<trkpt lat="49.1256068" lon="2.6926908">
<ele>85.64</ele>
<time>2018-12-30T11:19:16Z</time>
</trkpt>
<trkpt lat="49.1256090" lon="2.6926045">
<ele>85.62</ele>
<time>2018-12-30T11:19:17Z</time>
</trkpt>
<trkpt lat="49.1256121" lon="2.6925176">
<ele>85.61</ele>
<time>2018-12-30T11:19:18Z</time>
</trkpt>
<trkpt lat="49.1256325" lon="2.6924379">
<ele>84.91</ele>
<time>2018-12-30T11:19:19Z</time>
</trkpt>
<trkpt lat="49.1256601" lon="2.6923580">
<ele>84.00</ele>
<time>2018-12-30T11:19:20Z</time>
</trkpt>
<trkpt lat="49.1256958" lon="2.6922831">
<ele>83.73</ele>
<time>2018-12-30T11:19:21Z</time>
</trkpt>
<trkpt lat="49.1257382" lon="2.6922070">
<ele>83.65</ele>
<time>2018-12-30T11:19:22Z</time>
</trkpt>
<trkpt lat="49.1257796" lon="2.6921382">
<ele>82.92</ele>
<time>2018-12-30T11:19:23Z</time>
</trkpt>
<trkpt lat="49.1258252" lon="2.6920709">
<ele>82.70</ele>
<time>2018-12-30T11:19:24Z</time>
</trkpt>
<trkpt lat="49.1258736" lon="2.6920044">
<ele>82.64</ele>
<time>2018-12-30T11:19:25Z</time>
</trkpt>
<trkpt lat="49.1259204" lon="2.6919386">
<ele>81.92</ele>
<time>2018-12-30T11:19:26Z</time>
</trkpt>
<trkpt lat="49.1259673" lon="2.6918718">
<ele>81.70</ele>
<time>2018-12-30T11:19:27Z</time>
</trkpt>
<trkpt lat="49.1260147" lon="2.6918101">
<ele>81.64</ele>
<time>2018-12-30T11:19:28Z</time>
</trkpt>
<trkpt lat="49.1260604" lon="2.6917495">
<ele>81.62</ele>
<time>2018-12-30T11:19:29Z</time>
</trkpt>
<trkpt lat="49.1261062" lon="2.6916858">
<ele>81.61</ele>
<time>2018-12-30T11:19:30Z</time>
</trkpt>
<trkpt lat="49.1261454" lon="2.6916262">
<ele>81.61</ele>
<time>2018-12-30T11:19:31Z</time>
</trkpt>
<trkpt lat="49.1261843" lon="2.6915638">
<ele>81.61</ele>
<time>2018-12-30T11:19:32Z</time>
</trkpt>
<trkpt lat="49.1262224" lon="2.6915066">
<ele>81.61</ele>
<time>2018-12-30T11:19:33Z</time>
</trkpt>
<trkpt lat="49.1262616" lon="2.6914518">
<ele>81.61</ele>
<time>2018-12-30T11:19:34Z</time>
</trkpt>
<trkpt lat="49.1263036" lon="2.6913957">
<ele>81.61</ele>
<time>2018-12-30T11:19:35Z</time>
</trkpt>
<trkpt lat="49.1263450" lon="2.6913424">
<ele>81.61</ele>
<time>2018-12-30T11:19:36Z</time>
</trkpt>
<trkpt lat="49.1263864" lon="2.6912911">
<ele>81.61</ele>
<time>2018-12-30T11:19:37Z</time>
</trkpt>
<trkpt lat="49.1264276" lon="2.6912407">
<ele>81.61</ele>
<time>2018-12-30T11:19:38Z</time>
</trkpt>
<trkpt lat="49.1264652" lon="2.6911808">
<ele>81.61</ele>
<time>2018-12-30T11:19:39Z</time>
</trkpt>
<trkpt lat="49.1265014" lon="2.6911161">
<ele>81.61</ele>
<time>2018-12-30T11:19:40Z</time>
</trkpt>
<trkpt lat="49.1265308" lon="2.6910378">
<ele>82.31</ele>
<time>2018-12-30T11:19:41Z</time>
</trkpt>
<trkpt lat="49.1265616" lon="2.6909491">
<ele>82.52</ele>
<time>2018-12-30T11:19:42Z</time>
</trkpt>
<trkpt lat="49.1265959" lon="2.6908618">
<ele>82.58</ele>
<time>2018-12-30T11:19:43Z</time>
</trkpt>
<trkpt lat="49.1266309" lon="2.6907850">
<ele>82.60</ele>
<time>2018-12-30T11:19:44Z</time>
</trkpt>
<trkpt lat="49.1266686" lon="2.6907173">
<ele>83.31</ele>
<time>2018-12-30T11:19:45Z</time>
</trkpt>
<trkpt lat="49.1267077" lon="2.6906540">
<ele>82.82</ele>
<time>2018-12-30T11:19:46Z</time>
</trkpt>
<trkpt lat="49.1267504" lon="2.6906037">
<ele>82.67</ele>
<time>2018-12-30T11:19:47Z</time>
</trkpt>
<trkpt lat="49.1267910" lon="2.6905548">
<ele>82.63</ele>
<time>2018-12-30T11:19:48Z</time>
</trkpt>
<trkpt lat="49.1268337" lon="2.6905084">
<ele>82.62</ele>
<time>2018-12-30T11:19:49Z</time>
</trkpt>
<trkpt lat="49.1268842" lon="2.6904686">
<ele>82.61</ele>
<time>2018-12-30T11:19:50Z</time>
</trkpt>
<trkpt lat="49.1269362" lon="2.6904389">
<ele>82.61</ele>
<time>2018-12-30T11:19:51Z</time>
</trkpt>
<trkpt lat="49.1269841" lon="2.6904064">
<ele>83.31</ele>
<time>2018-12-30T11:19:52Z</time>
</trkpt>
<trkpt lat="49.1270319" lon="2.6903721">
<ele>83.52</ele>
<time>2018-12-30T11:19:53Z</time>
</trkpt>
<trkpt lat="49.1270792" lon="2.6903398">
<ele>83.58</ele>
<time>2018-12-30T11:19:54Z</time>
</trkpt>
<trkpt lat="49.1271247" lon="2.6903104">
<ele>83.60</ele>
<time>2018-12-30T11:19:55Z</time>
</trkpt>
<trkpt lat="49.1271678" lon="2.6902831">
<ele>83.61</ele>
<time>2018-12-30T11:19:56Z</time>
</trkpt>
<trkpt lat="49.1272161" lon="2.6902587">
<ele>83.61</ele>
<time>2018-12-30T11:19:57Z</time>
</trkpt>
<trkpt lat="49.1272583" lon="2.6902336">
<ele>83.61</ele>
<time>2018-12-30T11:19:58Z</time>
</trkpt>
<trkpt lat="49.1273012" lon="2.6902062">
<ele>83.61</ele>
<time>2018-12-30T11:19:59Z</time>
</trkpt>
<trkpt lat="49.1273439" lon="2.6901727">
<ele>83.61</ele>
<time>2018-12-30T11:20:00Z</time>
</trkpt>
<trkpt lat="49.1273830" lon="2.6901347">
<ele>83.61</ele>
<time>2018-12-30T11:20:01Z</time>
</trkpt>
<trkpt lat="49.1274211" lon="2.6900266">
<ele>84.52</ele>
<time>2018-12-30T11:20:03Z</time>
</trkpt>
<trkpt lat="49.1274093" lon="2.6899173">
<ele>85.51</ele>
<time>2018-12-30T11:20:05Z</time>
</trkpt>
<trkpt lat="49.1273940" lon="2.6898105">
<ele>85.60</ele>
<time>2018-12-30T11:20:07Z</time>
</trkpt>
<trkpt lat="49.1273805" lon="2.6896811">
<ele>87.22</ele>
<time>2018-12-30T11:20:09Z</time>
</trkpt>
<trkpt lat="49.1273828" lon="2.6895570">
<ele>87.58</ele>
<time>2018-12-30T11:20:11Z</time>
</trkpt>
<trkpt lat="49.1274091" lon="2.6894543">
<ele>88.31</ele>
<time>2018-12-30T11:20:13Z</time>
</trkpt>
<trkpt lat="49.1274536" lon="2.6893817">
<ele>88.58</ele>
<time>2018-12-30T11:20:15Z</time>
</trkpt>
<trkpt lat="49.1274860" lon="2.6893099">
<ele>88.61</ele>
<time>2018-12-30T11:20:17Z</time>
</trkpt>
<trkpt lat="49.1275098" lon="2.6892273">
<ele>88.61</ele>
<time>2018-12-30T11:20:19Z</time>
</trkpt>
<trkpt lat="49.1275433" lon="2.6891246">
<ele>88.61</ele>
<time>2018-12-30T11:20:21Z</time>
</trkpt>
<trkpt lat="49.1275621" lon="2.6890280">
<ele>88.61</ele>
<time>2018-12-30T11:20:23Z</time>
</trkpt>
<trkpt lat="49.1275789" lon="2.6889409">
<ele>89.31</ele>
<time>2018-12-30T11:20:25Z</time>
</trkpt>
<trkpt lat="49.1275966" lon="2.6888632">
<ele>89.58</ele>
<time>2018-12-30T11:20:27Z</time>
</trkpt>
<trkpt lat="49.1276155" lon="2.6887891">
<ele>89.61</ele>
<time>2018-12-30T11:20:29Z</time>
</trkpt>
<trkpt lat="49.1276364" lon="2.6887183">
<ele>90.31</ele>
<time>2018-12-30T11:20:31Z</time>
</trkpt>
<trkpt lat="49.1276570" lon="2.6886529">
<ele>90.58</ele>
<time>2018-12-30T11:20:33Z</time>
</trkpt>
<trkpt lat="49.1276733" lon="2.6885683">
<ele>90.61</ele>
<time>2018-12-30T11:20:36Z</time>
</trkpt>
<trkpt lat="49.1276836" lon="2.6884918">
<ele>91.52</ele>
<time>2018-12-30T11:20:39Z</time>
</trkpt>
<trkpt lat="49.1277098" lon="2.6884359">
<ele>91.61</ele>
<time>2018-12-30T11:20:42Z</time>
</trkpt>
<trkpt lat="49.1277334" lon="2.6883674">
<ele>92.52</ele>
<time>2018-12-30T11:20:44Z</time>
</trkpt>
<trkpt lat="49.1277579" lon="2.6882980">
<ele>92.60</ele>
<time>2018-12-30T11:20:46Z</time>
</trkpt>
<trkpt lat="49.1277875" lon="2.6882145">
<ele>93.52</ele>
<time>2018-12-30T11:20:48Z</time>
</trkpt>
<trkpt lat="49.1278078" lon="2.6881246">
<ele>93.60</ele>
<time>2018-12-30T11:20:50Z</time>
</trkpt>
<trkpt lat="49.1278353" lon="2.6880230">
<ele>93.61</ele>
<time>2018-12-30T11:20:52Z</time>
</trkpt>
<trkpt lat="49.1278659" lon="2.6879254">
<ele>94.31</ele>
<time>2018-12-30T11:20:54Z</time>
</trkpt>
<trkpt lat="49.1278941" lon="2.6878282">
<ele>94.58</ele>
<time>2018-12-30T11:20:56Z</time>
</trkpt>
<trkpt lat="49.1279216" lon="2.6877311">
<ele>95.52</ele>
<time>2018-12-30T11:20:58Z</time>
</trkpt>
<trkpt lat="49.1279464" lon="2.6876283">
<ele>95.60</ele>
<time>2018-12-30T11:21:00Z</time>
</trkpt>
<trkpt lat="49.1279733" lon="2.6875244">
<ele>95.61</ele>
<time>2018-12-30T11:21:02Z</time>
</trkpt>
<trkpt lat="49.1280065" lon="2.6873953">
<ele>97.22</ele>
<time>2018-12-30T11:21:04Z</time>
</trkpt>
<trkpt lat="49.1280382" lon="2.6872769">
<ele>98.28</ele>
<time>2018-12-30T11:21:06Z</time>
</trkpt>
<trkpt lat="49.1280520" lon="2.6872090">
<ele>98.51</ele>
<time>2018-12-30T11:21:07Z</time>
</trkpt>
<trkpt lat="49.1280672" lon="2.6870863">
<ele>99.51</ele>
<time>2018-12-30T11:21:09Z</time>
</trkpt>
<trkpt lat="49.1280846" lon="2.6869544">
<ele>99.60</ele>
<time>2018-12-30T11:21:11Z</time>
</trkpt>
<trkpt lat="49.1281014" lon="2.6868761">
<ele>100.31</ele>
<time>2018-12-30T11:21:12Z</time>
</trkpt>
<trkpt lat="49.1281192" lon="2.6867963">
<ele>100.52</ele>
<time>2018-12-30T11:21:13Z</time>
</trkpt>
<trkpt lat="49.1281331" lon="2.6867235">
<ele>100.58</ele>
<time>2018-12-30T11:21:14Z</time>
</trkpt>
<trkpt lat="49.1281478" lon="2.6866461">
<ele>100.60</ele>
<time>2018-12-30T11:21:15Z</time>
</trkpt>
<trkpt lat="49.1281632" lon="2.6865728">
<ele>101.31</ele>
<time>2018-12-30T11:21:16Z</time>
</trkpt>
<trkpt lat="49.1281778" lon="2.6864935">
<ele>101.52</ele>
<time>2018-12-30T11:21:17Z</time>
</trkpt>
<trkpt lat="49.1281979" lon="2.6864174">
<ele>101.58</ele>
<time>2018-12-30T11:21:18Z</time>
</trkpt>
<trkpt lat="49.1282159" lon="2.6863468">
<ele>101.60</ele>
<time>2018-12-30T11:21:19Z</time>
</trkpt>
<trkpt lat="49.1282306" lon="2.6862747">
<ele>101.61</ele>
<time>2018-12-30T11:21:20Z</time>
</trkpt>
<trkpt lat="49.1282398" lon="2.6862016">
<ele>101.61</ele>
<time>2018-12-30T11:21:21Z</time>
</trkpt>
<trkpt lat="49.1282477" lon="2.6861227">
<ele>101.61</ele>
<time>2018-12-30T11:21:22Z</time>
</trkpt>
<trkpt lat="49.1282545" lon="2.6860438">
<ele>101.61</ele>
<time>2018-12-30T11:21:23Z</time>
</trkpt>
<trkpt lat="49.1282574" lon="2.6859667">
<ele>101.61</ele>
<time>2018-12-30T11:21:24Z</time>
</trkpt>
<trkpt lat="49.1282560" lon="2.6858856">
<ele>101.61</ele>
<time>2018-12-30T11:21:25Z</time>
</trkpt>
<trkpt lat="49.1282585" lon="2.6858121">
<ele>101.61</ele>
<time>2018-12-30T11:21:26Z</time>
</trkpt>
<trkpt lat="49.1282505" lon="2.6857069">
<ele>101.61</ele>
<time>2018-12-30T11:21:28Z</time>
</trkpt>
<trkpt lat="49.1282498" lon="2.6856255">
<ele>101.61</ele>
<time>2018-12-30T11:21:30Z</time>
</trkpt>
<trkpt lat="49.1283052" lon="2.6855783">
<ele>101.61</ele>
<time>2018-12-30T11:21:33Z</time>
</trkpt>
<trkpt lat="49.1283539" lon="2.6855674">
<ele>101.61</ele>
<time>2018-12-30T11:21:35Z</time>
</trkpt>
<trkpt lat="49.1284055" lon="2.6855431">
<ele>101.61</ele>
<time>2018-12-30T11:21:37Z</time>
</trkpt>
<trkpt lat="49.1284689" lon="2.6854899">
<ele>100.91</ele>
<time>2018-12-30T11:21:39Z</time>
</trkpt>
<trkpt lat="49.1285363" lon="2.6854372">
<ele>100.64</ele>
<time>2018-12-30T11:21:41Z</time>
</trkpt>
<trkpt lat="49.1286053" lon="2.6853519">
<ele>100.61</ele>
<time>2018-12-30T11:21:43Z</time>
</trkpt>
<trkpt lat="49.1286840" lon="2.6853315">
<ele>101.31</ele>
<time>2018-12-30T11:21:45Z</time>
</trkpt>
<trkpt lat="49.1287280" lon="2.6853012">
<ele>100.82</ele>
<time>2018-12-30T11:21:46Z</time>
</trkpt>
<trkpt lat="49.1287844" lon="2.6852575">
<ele>101.37</ele>
<time>2018-12-30T11:21:47Z</time>
</trkpt>
<trkpt lat="49.1288372" lon="2.6852174">
<ele>101.54</ele>
<time>2018-12-30T11:21:48Z</time>
</trkpt>
<trkpt lat="49.1288915" lon="2.6851801">
<ele>100.89</ele>
<time>2018-12-30T11:21:49Z</time>
</trkpt>
<trkpt lat="49.1289414" lon="2.6851704">
<ele>101.39</ele>
<time>2018-12-30T11:21:50Z</time>
</trkpt>
<trkpt lat="49.1289889" lon="2.6851516">
<ele>101.55</ele>
<time>2018-12-30T11:21:51Z</time>
</trkpt>
<trkpt lat="49.1290608" lon="2.6851207">
<ele>101.61</ele>
<time>2018-12-30T11:21:53Z</time>
</trkpt>
<trkpt lat="49.1291212" lon="2.6850517">
<ele>101.61</ele>
<time>2018-12-30T11:21:55Z</time>
</trkpt>
<trkpt lat="49.1292039" lon="2.6849789">
<ele>101.40</ele>
<time>2018-12-30T11:21:57Z</time>
</trkpt>
<trkpt lat="49.1292489" lon="2.6849615">
<ele>100.85</ele>
<time>2018-12-30T11:21:58Z</time>
</trkpt>
<trkpt lat="49.1292955" lon="2.6849507">
<ele>99.98</ele>
<time>2018-12-30T11:21:59Z</time>
</trkpt>
<trkpt lat="49.1293619" lon="2.6849506">
<ele>99.64</ele>
<time>2018-12-30T11:22:01Z</time>
</trkpt>
<trkpt lat="49.1294386" lon="2.6849694">
<ele>99.61</ele>
<time>2018-12-30T11:22:03Z</time>
</trkpt>
<trkpt lat="49.1295214" lon="2.6850035">
<ele>99.61</ele>
<time>2018-12-30T11:22:05Z</time>
</trkpt>
<trkpt lat="49.1295836" lon="2.6850721">
<ele>98.70</ele>
<time>2018-12-30T11:22:07Z</time>
</trkpt>
<trkpt lat="49.1296587" lon="2.6850873">
<ele>97.71</ele>
<time>2018-12-30T11:22:09Z</time>
</trkpt>
<trkpt lat="49.1297061" lon="2.6850841">
<ele>97.64</ele>
<time>2018-12-30T11:22:10Z</time>
</trkpt>
<trkpt lat="49.1297631" lon="2.6850875">
<ele>96.91</ele>
<time>2018-12-30T11:22:12Z</time>
</trkpt>
<trkpt lat="49.1298161" lon="2.6850691">
<ele>94.94</ele>
<time>2018-12-30T11:22:17Z</time>
</trkpt>
<trkpt lat="49.1298661" lon="2.6850482">
<ele>95.34</ele>
<time>2018-12-30T11:22:24Z</time>
</trkpt>
<trkpt lat="49.1299062" lon="2.6850076">
<ele>94.70</ele>
<time>2018-12-30T11:22:28Z</time>
</trkpt>
<trkpt lat="49.1299509" lon="2.6849795">
<ele>94.61</ele>
<time>2018-12-30T11:22:31Z</time>
</trkpt>
<trkpt lat="49.1299986" lon="2.6849626">
<ele>93.70</ele>
<time>2018-12-30T11:22:33Z</time>
</trkpt>
<trkpt lat="49.1300641" lon="2.6849348">
<ele>92.91</ele>
<time>2018-12-30T11:22:36Z</time>
</trkpt>
<trkpt lat="49.1301762" lon="2.6849243">
<ele>91.94</ele>
<time>2018-12-30T11:22:38Z</time>
</trkpt>
<trkpt lat="49.1302417" lon="2.6848891">
<ele>91.01</ele>
<time>2018-12-30T11:22:39Z</time>
</trkpt>
<trkpt lat="49.1303122" lon="2.6848272">
<ele>90.73</ele>
<time>2018-12-30T11:22:40Z</time>
</trkpt>
<trkpt lat="49.1303956" lon="2.6847604">
<ele>90.65</ele>
<time>2018-12-30T11:22:41Z</time>
</trkpt>
<trkpt lat="49.1304607" lon="2.6846992">
<ele>89.92</ele>
<time>2018-12-30T11:22:42Z</time>
</trkpt>
<trkpt lat="49.1305144" lon="2.6846342">
<ele>89.70</ele>
<time>2018-12-30T11:22:43Z</time>
</trkpt>
<trkpt lat="49.1305570" lon="2.6845704">
<ele>89.64</ele>
<time>2018-12-30T11:22:44Z</time>
</trkpt>
<trkpt lat="49.1305969" lon="2.6845174">
<ele>89.62</ele>
<time>2018-12-30T11:22:45Z</time>
</trkpt>
<trkpt lat="49.1306440" lon="2.6844837">
<ele>89.61</ele>
<time>2018-12-30T11:22:46Z</time>
</trkpt>
<trkpt lat="49.1306965" lon="2.6844973">
<ele>89.61</ele>
<time>2018-12-30T11:22:47Z</time>
</trkpt>
<trkpt lat="49.1307449" lon="2.6845131">
<ele>88.91</ele>
<time>2018-12-30T11:22:48Z</time>
</trkpt>
<trkpt lat="49.1308015" lon="2.6845447">
<ele>88.70</ele>
<time>2018-12-30T11:22:49Z</time>
</trkpt>
<trkpt lat="49.1308471" lon="2.6845781">
<ele>87.94</ele>
<time>2018-12-30T11:22:50Z</time>
</trkpt>
<trkpt lat="49.1308930" lon="2.6845846">
<ele>87.71</ele>
<time>2018-12-30T11:22:51Z</time>
</trkpt>
<trkpt lat="49.1309698" lon="2.6845743">
<ele>86.71</ele>
<time>2018-12-30T11:22:53Z</time>
</trkpt>
<trkpt lat="49.1310429" lon="2.6845041">
<ele>86.62</ele>
<time>2018-12-30T11:22:55Z</time>
</trkpt>
<trkpt lat="49.1310998" lon="2.6844246">
<ele>86.61</ele>
<time>2018-12-30T11:22:57Z</time>
</trkpt>
<trkpt lat="49.1311409" lon="2.6843770">
<ele>86.61</ele>
<time>2018-12-30T11:22:58Z</time>
</trkpt>
<trkpt lat="49.1311739" lon="2.6843253">
<ele>86.61</ele>
<time>2018-12-30T11:22:59Z</time>
</trkpt>
<trkpt lat="49.1312058" lon="2.6842546">
<ele>86.61</ele>
<time>2018-12-30T11:23:00Z</time>
</trkpt>
<trkpt lat="49.1312248" lon="2.6841814">
<ele>86.61</ele>
<time>2018-12-30T11:23:01Z</time>
</trkpt>
<trkpt lat="49.1312055" lon="2.6840654">
<ele>86.61</ele>
<time>2018-12-30T11:23:03Z</time>
</trkpt>
<trkpt lat="49.1311818" lon="2.6839582">
<ele>86.61</ele>
<time>2018-12-30T11:23:05Z</time>
</trkpt>
<trkpt lat="49.1311506" lon="2.6838385">
<ele>86.40</ele>
<time>2018-12-30T11:23:07Z</time>
</trkpt>
<trkpt lat="49.1311287" lon="2.6837423">
<ele>87.50</ele>
<time>2018-12-30T11:23:09Z</time>
</trkpt>
<trkpt lat="49.1311051" lon="2.6836660">
<ele>88.51</ele>
<time>2018-12-30T11:23:11Z</time>
</trkpt>
<trkpt lat="49.1310838" lon="2.6835769">
<ele>88.60</ele>
<time>2018-12-30T11:23:13Z</time>
</trkpt>
<trkpt lat="49.1310612" lon="2.6834988">
<ele>88.61</ele>
<time>2018-12-30T11:23:15Z</time>
</trkpt>
<trkpt lat="49.1310299" lon="2.6834253">
<ele>89.31</ele>
<time>2018-12-30T11:23:17Z</time>
</trkpt>
<trkpt lat="49.1310056" lon="2.6833228">
<ele>89.58</ele>
<time>2018-12-30T11:23:19Z</time>
</trkpt>
<trkpt lat="49.1309735" lon="2.6832149">
<ele>89.61</ele>
<time>2018-12-30T11:23:21Z</time>
</trkpt>
<trkpt lat="49.1309336" lon="2.6831181">
<ele>89.61</ele>
<time>2018-12-30T11:23:23Z</time>
</trkpt>
<trkpt lat="49.1308867" lon="2.6830242">
<ele>89.61</ele>
<time>2018-12-30T11:23:25Z</time>
</trkpt>
<trkpt lat="49.1308450" lon="2.6829299">
<ele>89.61</ele>
<time>2018-12-30T11:23:27Z</time>
</trkpt>
<trkpt lat="49.1307957" lon="2.6828232">
<ele>89.61</ele>
<time>2018-12-30T11:23:29Z</time>
</trkpt>
<trkpt lat="49.1307708" lon="2.6827656">
<ele>89.61</ele>
<time>2018-12-30T11:23:30Z</time>
</trkpt>
<trkpt lat="49.1307440" lon="2.6827002">
<ele>89.61</ele>
<time>2018-12-30T11:23:31Z</time>
</trkpt>
<trkpt lat="49.1307091" lon="2.6826353">
<ele>89.61</ele>
<time>2018-12-30T11:23:32Z</time>
</trkpt>
<trkpt lat="49.1306753" lon="2.6825839">
<ele>89.61</ele>
<time>2018-12-30T11:23:33Z</time>
</trkpt>
<trkpt lat="49.1306259" lon="2.6824860">
<ele>90.52</ele>
<time>2018-12-30T11:23:35Z</time>
</trkpt>
<trkpt lat="49.1305708" lon="2.6823799">
<ele>89.69</ele>
<time>2018-12-30T11:23:37Z</time>
</trkpt>
<trkpt lat="49.1305298" lon="2.6823100">
<ele>90.34</ele>
<time>2018-12-30T11:23:38Z</time>
</trkpt>
<trkpt lat="49.1304951" lon="2.6822409">
<ele>90.53</ele>
<time>2018-12-30T11:23:39Z</time>
</trkpt>
<trkpt lat="49.1304723" lon="2.6821648">
<ele>90.59</ele>
<time>2018-12-30T11:23:40Z</time>
</trkpt>
<trkpt lat="49.1304632" lon="2.6820900">
<ele>91.30</ele>
<time>2018-12-30T11:23:41Z</time>
</trkpt>
<trkpt lat="49.1304531" lon="2.6820091">
<ele>91.52</ele>
<time>2018-12-30T11:23:42Z</time>
</trkpt>
<trkpt lat="49.1304487" lon="2.6819352">
<ele>90.88</ele>
<time>2018-12-30T11:23:43Z</time>
</trkpt>
<trkpt lat="49.1304534" lon="2.6818101">
<ele>91.34</ele>
<time>2018-12-30T11:23:45Z</time>
</trkpt>
<trkpt lat="49.1304961" lon="2.6817218">
<ele>91.59</ele>
<time>2018-12-30T11:23:47Z</time>
</trkpt>
<trkpt lat="49.1305293" lon="2.6816689">
<ele>91.60</ele>
<time>2018-12-30T11:23:48Z</time>
</trkpt>
<trkpt lat="49.1305870" lon="2.6815832">
<ele>91.61</ele>
<time>2018-12-30T11:23:50Z</time>
</trkpt>
<trkpt lat="49.1306394" lon="2.6815079">
<ele>90.70</ele>
<time>2018-12-30T11:23:52Z</time>
</trkpt>
<trkpt lat="49.1306923" lon="2.6814426">
<ele>90.62</ele>
<time>2018-12-30T11:23:54Z</time>
</trkpt>
<trkpt lat="49.1307487" lon="2.6814002">
<ele>91.52</ele>
<time>2018-12-30T11:23:56Z</time>
</trkpt>
<trkpt lat="49.1308139" lon="2.6813855">
<ele>91.60</ele>
<time>2018-12-30T11:23:58Z</time>
</trkpt>
<trkpt lat="49.1308794" lon="2.6813612">
<ele>91.61</ele>
<time>2018-12-30T11:24:00Z</time>
</trkpt>
<trkpt lat="49.1309810" lon="2.6813364">
<ele>92.31</ele>
<time>2018-12-30T11:24:02Z</time>
</trkpt>
<trkpt lat="49.1310640" lon="2.6813275">
<ele>93.49</ele>
<time>2018-12-30T11:24:04Z</time>
</trkpt>
<trkpt lat="49.1311364" lon="2.6812999">
<ele>93.60</ele>
<time>2018-12-30T11:24:06Z</time>
</trkpt>
<trkpt lat="49.1312103" lon="2.6812712">
<ele>93.61</ele>
<time>2018-12-30T11:24:08Z</time>
</trkpt>
<trkpt lat="49.1312907" lon="2.6812414">
<ele>93.61</ele>
<time>2018-12-30T11:24:10Z</time>
</trkpt>
<trkpt lat="49.1313630" lon="2.6812174">
<ele>94.31</ele>
<time>2018-12-30T11:24:12Z</time>
</trkpt>
<trkpt lat="49.1314347" lon="2.6812003">
<ele>94.58</ele>
<time>2018-12-30T11:24:14Z</time>
</trkpt>
<trkpt lat="49.1315124" lon="2.6811959">
<ele>94.61</ele>
<time>2018-12-30T11:24:16Z</time>
</trkpt>
<trkpt lat="49.1315927" lon="2.6811889">
<ele>94.61</ele>
<time>2018-12-30T11:24:18Z</time>
</trkpt>
<trkpt lat="49.1316645" lon="2.6811589">
<ele>94.61</ele>
<time>2018-12-30T11:24:20Z</time>
</trkpt>
<trkpt lat="49.1317139" lon="2.6811116">
<ele>95.31</ele>
<time>2018-12-30T11:24:22Z</time>
</trkpt>
<trkpt lat="49.1317347" lon="2.6810451">
<ele>94.88</ele>
<time>2018-12-30T11:24:24Z</time>
</trkpt>
<trkpt lat="49.1317355" lon="2.6809760">
<ele>95.55</ele>
<time>2018-12-30T11:24:26Z</time>
</trkpt>
<trkpt lat="49.1317279" lon="2.6809013">
<ele>95.61</ele>
<time>2018-12-30T11:24:28Z</time>
</trkpt>
<trkpt lat="49.1317277" lon="2.6808169">
<ele>96.52</ele>
<time>2018-12-30T11:24:30Z</time>
</trkpt>
<trkpt lat="49.1317377" lon="2.6807173">
<ele>97.30</ele>
<time>2018-12-30T11:24:32Z</time>
</trkpt>
<trkpt lat="49.1317614" lon="2.6806466">
<ele>97.58</ele>
<time>2018-12-30T11:24:34Z</time>
</trkpt>
<trkpt lat="49.1317485" lon="2.6805657">
<ele>97.61</ele>
<time>2018-12-30T11:24:36Z</time>
</trkpt>
<trkpt lat="49.1317132" lon="2.6804646">
<ele>97.61</ele>
<time>2018-12-30T11:24:38Z</time>
</trkpt>
<trkpt lat="49.1316884" lon="2.6803292">
<ele>98.31</ele>
<time>2018-12-30T11:24:40Z</time>
</trkpt>
<trkpt lat="49.1316935" lon="2.6802224">
<ele>99.49</ele>
<time>2018-12-30T11:24:42Z</time>
</trkpt>
<trkpt lat="49.1317051" lon="2.6801288">
<ele>99.60</ele>
<time>2018-12-30T11:24:44Z</time>
</trkpt>
<trkpt lat="49.1317214" lon="2.6800308">
<ele>99.61</ele>
<time>2018-12-30T11:24:46Z</time>
</trkpt>
<trkpt lat="49.1317282" lon="2.6799393">
<ele>99.61</ele>
<time>2018-12-30T11:24:48Z</time>
</trkpt>
<trkpt lat="49.1317226" lon="2.6798605">
<ele>99.61</ele>
<time>2018-12-30T11:24:50Z</time>
</trkpt>
<trkpt lat="49.1317098" lon="2.6797549">
<ele>99.61</ele>
<time>2018-12-30T11:24:53Z</time>
</trkpt>
<trkpt lat="49.1317160" lon="2.6796654">
<ele>99.61</ele>
<time>2018-12-30T11:24:55Z</time>
</trkpt>
<trkpt lat="49.1317093" lon="2.6795927">
<ele>99.61</ele>
<time>2018-12-30T11:24:57Z</time>
</trkpt>
<trkpt lat="49.1316952" lon="2.6795090">
<ele>99.61</ele>
<time>2018-12-30T11:24:59Z</time>
</trkpt>
<trkpt lat="49.1316843" lon="2.6794253">
<ele>99.61</ele>
<time>2018-12-30T11:25:01Z</time>
</trkpt>
<trkpt lat="49.1317005" lon="2.6793433">
<ele>99.61</ele>
<time>2018-12-30T11:25:03Z</time>
</trkpt>
<trkpt lat="49.1316838" lon="2.6792623">
<ele>99.61</ele>
<time>2018-12-30T11:25:05Z</time>
</trkpt>
<trkpt lat="49.1316746" lon="2.6791860">
<ele>100.52</ele>
<time>2018-12-30T11:25:07Z</time>
</trkpt>
<trkpt lat="49.1316659" lon="2.6791144">
<ele>101.51</ele>
<time>2018-12-30T11:25:09Z</time>
</trkpt>
<trkpt lat="49.1316405" lon="2.6790471">
<ele>101.60</ele>
<time>2018-12-30T11:25:11Z</time>
</trkpt>
<trkpt lat="49.1316027" lon="2.6789847">
<ele>102.31</ele>
<time>2018-12-30T11:25:13Z</time>
</trkpt>
<trkpt lat="49.1315983" lon="2.6788987">
<ele>102.58</ele>
<time>2018-12-30T11:25:15Z</time>
</trkpt>
<trkpt lat="49.1316236" lon="2.6787962">
<ele>101.70</ele>
<time>2018-12-30T11:25:17Z</time>
</trkpt>
<trkpt lat="49.1316500" lon="2.6787096">
<ele>102.32</ele>
<time>2018-12-30T11:25:19Z</time>
</trkpt>
<trkpt lat="49.1316773" lon="2.6786401">
<ele>101.67</ele>
<time>2018-12-30T11:25:21Z</time>
</trkpt>
<trkpt lat="49.1317201" lon="2.6785897">
<ele>102.32</ele>
<time>2018-12-30T11:25:23Z</time>
</trkpt>
<trkpt lat="49.1317692" lon="2.6785688">
<ele>102.58</ele>
<time>2018-12-30T11:25:25Z</time>
</trkpt>
<trkpt lat="49.1318110" lon="2.6785376">
<ele>102.61</ele>
<time>2018-12-30T11:25:27Z</time>
</trkpt>
<trkpt lat="49.1318441" lon="2.6784673">
<ele>102.61</ele>
<time>2018-12-30T11:25:29Z</time>
</trkpt>
<trkpt lat="49.1318245" lon="2.6783738">
<ele>103.31</ele>
<time>2018-12-30T11:25:32Z</time>
</trkpt>
<trkpt lat="49.1318183" lon="2.6782965">
<ele>103.58</ele>
<time>2018-12-30T11:25:34Z</time>
</trkpt>
<trkpt lat="49.1317971" lon="2.6782125">
<ele>103.61</ele>
<time>2018-12-30T11:25:36Z</time>
</trkpt>
<trkpt lat="49.1317772" lon="2.6781150">
<ele>103.61</ele>
<time>2018-12-30T11:25:38Z</time>
</trkpt>
<trkpt lat="49.1317572" lon="2.6780446">
<ele>103.61</ele>
<time>2018-12-30T11:25:40Z</time>
</trkpt>
<trkpt lat="49.1317168" lon="2.6779947">
<ele>104.52</ele>
<time>2018-12-30T11:25:42Z</time>
</trkpt>
<trkpt lat="49.1316963" lon="2.6778975">
<ele>104.60</ele>
<time>2018-12-30T11:25:44Z</time>
</trkpt>
<trkpt lat="49.1317164" lon="2.6777972">
<ele>104.61</ele>
<time>2018-12-30T11:25:46Z</time>
</trkpt>
<trkpt lat="49.1317199" lon="2.6777195">
<ele>104.61</ele>
<time>2018-12-30T11:25:48Z</time>
</trkpt>
<trkpt lat="49.1317135" lon="2.6776298">
<ele>104.61</ele>
<time>2018-12-30T11:25:50Z</time>
</trkpt>
<trkpt lat="49.1317056" lon="2.6775255">
<ele>103.70</ele>
<time>2018-12-30T11:25:52Z</time>
</trkpt>
<trkpt lat="49.1317264" lon="2.6774162">
<ele>103.62</ele>
<time>2018-12-30T11:25:54Z</time>
</trkpt>
<trkpt lat="49.1317619" lon="2.6773488">
<ele>103.61</ele>
<time>2018-12-30T11:25:56Z</time>
</trkpt>
<trkpt lat="49.1318179" lon="2.6773211">
<ele>103.61</ele>
<time>2018-12-30T11:25:58Z</time>
</trkpt>
<trkpt lat="49.1318651" lon="2.6772941">
<ele>103.61</ele>
<time>2018-12-30T11:26:00Z</time>
</trkpt>
<trkpt lat="49.1319147" lon="2.6772628">
<ele>103.61</ele>
<time>2018-12-30T11:26:02Z</time>
</trkpt>
<trkpt lat="49.1319722" lon="2.6772086">
<ele>103.40</ele>
<time>2018-12-30T11:26:04Z</time>
</trkpt>
<trkpt lat="49.1320303" lon="2.6771452">
<ele>103.59</ele>
<time>2018-12-30T11:26:06Z</time>
</trkpt>
<trkpt lat="49.1320949" lon="2.6771152">
<ele>103.61</ele>
<time>2018-12-30T11:26:08Z</time>
</trkpt>
<trkpt lat="49.1321522" lon="2.6771310">
<ele>103.61</ele>
<time>2018-12-30T11:26:10Z</time>
</trkpt>
<trkpt lat="49.1322045" lon="2.6771287">
<ele>103.82</ele>
<time>2018-12-30T11:26:12Z</time>
</trkpt>
<trkpt lat="49.1322540" lon="2.6771178">
<ele>103.63</ele>
<time>2018-12-30T11:26:14Z</time>
</trkpt>
<trkpt lat="49.1323025" lon="2.6771420">
<ele>104.52</ele>
<time>2018-12-30T11:26:16Z</time>
</trkpt>
<trkpt lat="49.1323469" lon="2.6771716">
<ele>103.69</ele>
<time>2018-12-30T11:26:18Z</time>
</trkpt>
<trkpt lat="49.1324072" lon="2.6771703">
<ele>104.38</ele>
<time>2018-12-30T11:26:21Z</time>
</trkpt>
<trkpt lat="49.1324491" lon="2.6771115">
<ele>106.28</ele>
<time>2018-12-30T11:26:24Z</time>
</trkpt>
<trkpt lat="49.1324910" lon="2.6771401">
<ele>107.57</ele>
<time>2018-12-30T11:26:27Z</time>
</trkpt>
<trkpt lat="49.1325355" lon="2.6771982">
<ele>108.58</ele>
<time>2018-12-30T11:26:30Z</time>
</trkpt>
<trkpt lat="49.1325688" lon="2.6772484">
<ele>108.40</ele>
<time>2018-12-30T11:26:32Z</time>
</trkpt>
<trkpt lat="49.1326070" lon="2.6772883">
<ele>108.59</ele>
<time>2018-12-30T11:26:34Z</time>
</trkpt>
<trkpt lat="49.1326474" lon="2.6773359">
<ele>108.61</ele>
<time>2018-12-30T11:26:36Z</time>
</trkpt>
<trkpt lat="49.1326753" lon="2.6774002">
<ele>108.40</ele>
<time>2018-12-30T11:26:38Z</time>
</trkpt>
<trkpt lat="49.1327034" lon="2.6774707">
<ele>110.20</ele>
<time>2018-12-30T11:26:40Z</time>
</trkpt>
<trkpt lat="49.1327256" lon="2.6775427">
<ele>111.27</ele>
<time>2018-12-30T11:26:42Z</time>
</trkpt>
<trkpt lat="49.1327298" lon="2.6776172">
<ele>112.49</ele>
<time>2018-12-30T11:26:44Z</time>
</trkpt>
<trkpt lat="49.1327502" lon="2.6776823">
<ele>111.90</ele>
<time>2018-12-30T11:26:46Z</time>
</trkpt>
<trkpt lat="49.1328079" lon="2.6777160">
<ele>111.62</ele>
<time>2018-12-30T11:26:49Z</time>
</trkpt>
<trkpt lat="49.1328590" lon="2.6777469">
<ele>111.61</ele>
<time>2018-12-30T11:26:51Z</time>
</trkpt>
<trkpt lat="49.1329174" lon="2.6777794">
<ele>112.52</ele>
<time>2018-12-30T11:26:53Z</time>
</trkpt>
<trkpt lat="49.1329762" lon="2.6778368">
<ele>111.90</ele>
<time>2018-12-30T11:26:55Z</time>
</trkpt>
<trkpt lat="49.1330367" lon="2.6779186">
<ele>111.64</ele>
<time>2018-12-30T11:26:57Z</time>
</trkpt>
<trkpt lat="49.1330885" lon="2.6780136">
<ele>110.70</ele>
<time>2018-12-30T11:26:59Z</time>
</trkpt>
<trkpt lat="49.1331375" lon="2.6781194">
<ele>110.62</ele>
<time>2018-12-30T11:27:01Z</time>
</trkpt>
<trkpt lat="49.1331941" lon="2.6782129">
<ele>110.61</ele>
<time>2018-12-30T11:27:03Z</time>
</trkpt>
<trkpt lat="49.1332367" lon="2.6783126">
<ele>110.61</ele>
<time>2018-12-30T11:27:05Z</time>
</trkpt>
<trkpt lat="49.1332848" lon="2.6783898">
<ele>109.00</ele>
<time>2018-12-30T11:27:07Z</time>
</trkpt>
<trkpt lat="49.1333473" lon="2.6783303">
<ele>108.62</ele>
<time>2018-12-30T11:27:10Z</time>
</trkpt>
<trkpt lat="49.1334084" lon="2.6783122">
<ele>109.31</ele>
<time>2018-12-30T11:27:12Z</time>
</trkpt>
<trkpt lat="49.1334615" lon="2.6783576">
<ele>109.58</ele>
<time>2018-12-30T11:27:14Z</time>
</trkpt>
<trkpt lat="49.1335144" lon="2.6784480">
<ele>109.61</ele>
<time>2018-12-30T11:27:16Z</time>
</trkpt>
<trkpt lat="49.1335431" lon="2.6785010">
<ele>108.91</ele>
<time>2018-12-30T11:27:17Z</time>
</trkpt>
<trkpt lat="49.1336045" lon="2.6785708">
<ele>109.55</ele>
<time>2018-12-30T11:27:19Z</time>
</trkpt>
<trkpt lat="49.1336763" lon="2.6786335">
<ele>108.70</ele>
<time>2018-12-30T11:27:21Z</time>
</trkpt>
<trkpt lat="49.1337341" lon="2.6787195">
<ele>108.62</ele>
<time>2018-12-30T11:27:23Z</time>
</trkpt>
<trkpt lat="49.1338021" lon="2.6787936">
<ele>107.70</ele>
<time>2018-12-30T11:27:25Z</time>
</trkpt>
<trkpt lat="49.1338379" lon="2.6788378">
<ele>107.64</ele>
<time>2018-12-30T11:27:26Z</time>
</trkpt>
<trkpt lat="49.1338673" lon="2.6789491">
<ele>107.61</ele>
<time>2018-12-30T11:27:28Z</time>
</trkpt>
<trkpt lat="49.1338917" lon="2.6790556">
<ele>107.61</ele>
<time>2018-12-30T11:27:30Z</time>
</trkpt>
<trkpt lat="49.1339365" lon="2.6791562">
<ele>106.70</ele>
<time>2018-12-30T11:27:32Z</time>
</trkpt>
<trkpt lat="49.1340006" lon="2.6792257">
<ele>105.92</ele>
<time>2018-12-30T11:27:34Z</time>
</trkpt>
<trkpt lat="49.1340790" lon="2.6792456">
<ele>105.64</ele>
<time>2018-12-30T11:27:36Z</time>
</trkpt>
<trkpt lat="49.1341483" lon="2.6792591">
<ele>105.61</ele>
<time>2018-12-30T11:27:38Z</time>
</trkpt>
<trkpt lat="49.1342049" lon="2.6792319">
<ele>105.61</ele>
<time>2018-12-30T11:27:40Z</time>
</trkpt>
<trkpt lat="49.1342707" lon="2.6791835">
<ele>105.61</ele>
<time>2018-12-30T11:27:42Z</time>
</trkpt>
<trkpt lat="49.1343293" lon="2.6791376">
<ele>105.61</ele>
<time>2018-12-30T11:27:44Z</time>
</trkpt>
<trkpt lat="49.1343882" lon="2.6790940">
<ele>105.61</ele>
<time>2018-12-30T11:27:46Z</time>
</trkpt>
<trkpt lat="49.1344504" lon="2.6790665">
<ele>105.61</ele>
<time>2018-12-30T11:27:48Z</time>
</trkpt>
<trkpt lat="49.1345193" lon="2.6790191">
<ele>105.61</ele>
<time>2018-12-30T11:27:50Z</time>
</trkpt>
<trkpt lat="49.1345859" lon="2.6789697">
<ele>105.61</ele>
<time>2018-12-30T11:27:52Z</time>
</trkpt>
<trkpt lat="49.1346448" lon="2.6789120">
<ele>104.70</ele>
<time>2018-12-30T11:27:54Z</time>
</trkpt>
<trkpt lat="49.1347016" lon="2.6788713">
<ele>104.62</ele>
<time>2018-12-30T11:27:56Z</time>
</trkpt>
<trkpt lat="49.1347631" lon="2.6788343">
<ele>104.61</ele>
<time>2018-12-30T11:27:58Z</time>
</trkpt>
<trkpt lat="49.1348158" lon="2.6788112">
<ele>105.31</ele>
<time>2018-12-30T11:28:00Z</time>
</trkpt>
<trkpt lat="49.1348638" lon="2.6787806">
<ele>104.67</ele>
<time>2018-12-30T11:28:02Z</time>
</trkpt>
<trkpt lat="49.1349086" lon="2.6787501">
<ele>104.62</ele>
<time>2018-12-30T11:28:04Z</time>
</trkpt>
<trkpt lat="49.1349534" lon="2.6787276">
<ele>105.31</ele>
<time>2018-12-30T11:28:06Z</time>
</trkpt>
<trkpt lat="49.1350000" lon="2.6786989">
<ele>105.58</ele>
<time>2018-12-30T11:28:08Z</time>
</trkpt>
<trkpt lat="49.1350514" lon="2.6786495">
<ele>106.31</ele>
<time>2018-12-30T11:28:11Z</time>
</trkpt>
<trkpt lat="49.1351039" lon="2.6786088">
<ele>106.60</ele>
<time>2018-12-30T11:28:14Z</time>
</trkpt>
<trkpt lat="49.1351495" lon="2.6785884">
<ele>106.61</ele>
<time>2018-12-30T11:28:16Z</time>
</trkpt>
<trkpt lat="49.1352052" lon="2.6785588">
<ele>107.52</ele>
<time>2018-12-30T11:28:18Z</time>
</trkpt>
<trkpt lat="49.1352535" lon="2.6785201">
<ele>106.90</ele>
<time>2018-12-30T11:28:20Z</time>
</trkpt>
<trkpt lat="49.1353012" lon="2.6784801">
<ele>106.64</ele>
<time>2018-12-30T11:28:22Z</time>
</trkpt>
<trkpt lat="49.1353468" lon="2.6784427">
<ele>106.61</ele>
<time>2018-12-30T11:28:24Z</time>
</trkpt>
<trkpt lat="49.1354171" lon="2.6784552">
<ele>106.61</ele>
<time>2018-12-30T11:28:27Z</time>
</trkpt>
<trkpt lat="49.1354693" lon="2.6785292">
<ele>107.52</ele>
<time>2018-12-30T11:28:29Z</time>
</trkpt>
<trkpt lat="49.1355322" lon="2.6785986">
<ele>107.60</ele>
<time>2018-12-30T11:28:31Z</time>
</trkpt>
<trkpt lat="49.1356188" lon="2.6785749">
<ele>108.52</ele>
<time>2018-12-30T11:28:33Z</time>
</trkpt>
<trkpt lat="49.1356791" lon="2.6785309">
<ele>109.98</ele>
<time>2018-12-30T11:28:34Z</time>
</trkpt>
<trkpt lat="49.1357356" lon="2.6784869">
<ele>111.12</ele>
<time>2018-12-30T11:28:35Z</time>
</trkpt>
<trkpt lat="49.1357795" lon="2.6784602">
<ele>112.16</ele>
<time>2018-12-30T11:28:36Z</time>
</trkpt>
<trkpt lat="49.1358262" lon="2.6784479">
<ele>112.48</ele>
<time>2018-12-30T11:28:37Z</time>
</trkpt>
<trkpt lat="49.1358970" lon="2.6784774">
<ele>112.60</ele>
<time>2018-12-30T11:28:39Z</time>
</trkpt>
<trkpt lat="49.1359135" lon="2.6785836">
<ele>113.31</ele>
<time>2018-12-30T11:28:41Z</time>
</trkpt>
<trkpt lat="49.1359236" lon="2.6787101">
<ele>113.58</ele>
<time>2018-12-30T11:28:43Z</time>
</trkpt>
<trkpt lat="49.1359410" lon="2.6788213">
<ele>113.61</ele>
<time>2018-12-30T11:28:45Z</time>
</trkpt>
<trkpt lat="49.1359754" lon="2.6789355">
<ele>114.52</ele>
<time>2018-12-30T11:28:47Z</time>
</trkpt>
<trkpt lat="49.1360053" lon="2.6790334">
<ele>115.30</ele>
<time>2018-12-30T11:28:49Z</time>
</trkpt>
<trkpt lat="49.1360308" lon="2.6791402">
<ele>115.58</ele>
<time>2018-12-30T11:28:51Z</time>
</trkpt>
<trkpt lat="49.1360636" lon="2.6792551">
<ele>115.61</ele>
<time>2018-12-30T11:28:53Z</time>
</trkpt>
<trkpt lat="49.1360979" lon="2.6793524">
<ele>115.61</ele>
<time>2018-12-30T11:28:55Z</time>
</trkpt>
<trkpt lat="49.1361349" lon="2.6794501">
<ele>115.61</ele>
<time>2018-12-30T11:28:57Z</time>
</trkpt>
<trkpt lat="49.1361448" lon="2.6795569">
<ele>115.61</ele>
<time>2018-12-30T11:28:59Z</time>
</trkpt>
<trkpt lat="49.1361015" lon="2.6796266">
<ele>115.61</ele>
<time>2018-12-30T11:29:01Z</time>
</trkpt>
<trkpt lat="49.1360325" lon="2.6796670">
<ele>114.91</ele>
<time>2018-12-30T11:29:03Z</time>
</trkpt>
<trkpt lat="49.1359512" lon="2.6796314">
<ele>113.94</ele>
<time>2018-12-30T11:29:05Z</time>
</trkpt>
<trkpt lat="49.1359137" lon="2.6795918">
<ele>113.71</ele>
<time>2018-12-30T11:29:06Z</time>
</trkpt>
<trkpt lat="49.1358425" lon="2.6795604">
<ele>112.71</ele>
<time>2018-12-30T11:29:08Z</time>
</trkpt>
<trkpt lat="49.1357716" lon="2.6796335">
<ele>113.32</ele>
<time>2018-12-30T11:29:10Z</time>
</trkpt>
<trkpt lat="49.1357482" lon="2.6797403">
<ele>113.58</ele>
<time>2018-12-30T11:29:12Z</time>
</trkpt>
<trkpt lat="49.1357259" lon="2.6798711">
<ele>114.31</ele>
<time>2018-12-30T11:29:14Z</time>
</trkpt>
<trkpt lat="49.1357116" lon="2.6799562">
<ele>114.52</ele>
<time>2018-12-30T11:29:15Z</time>
</trkpt>
<trkpt lat="49.1356758" lon="2.6800261">
<ele>114.58</ele>
<time>2018-12-30T11:29:16Z</time>
</trkpt>
<trkpt lat="49.1356405" lon="2.6800969">
<ele>113.90</ele>
<time>2018-12-30T11:29:17Z</time>
</trkpt>
<trkpt lat="49.1356060" lon="2.6801638">
<ele>113.00</ele>
<time>2018-12-30T11:29:18Z</time>
</trkpt>
<trkpt lat="49.1355788" lon="2.6802299">
<ele>112.73</ele>
<time>2018-12-30T11:29:19Z</time>
</trkpt>
<trkpt lat="49.1355636" lon="2.6802998">
<ele>112.65</ele>
<time>2018-12-30T11:29:20Z</time>
</trkpt>
<trkpt lat="49.1355520" lon="2.6804276">
<ele>112.61</ele>
<time>2018-12-30T11:29:22Z</time>
</trkpt>
<trkpt lat="49.1355317" lon="2.6804965">
<ele>112.61</ele>
<time>2018-12-30T11:29:23Z</time>
</trkpt>
<trkpt lat="49.1354899" lon="2.6805693">
<ele>112.61</ele>
<time>2018-12-30T11:29:24Z</time>
</trkpt>
<trkpt lat="49.1354392" lon="2.6806310">
<ele>111.91</ele>
<time>2018-12-30T11:29:25Z</time>
</trkpt>
<trkpt lat="49.1353882" lon="2.6806697">
<ele>111.70</ele>
<time>2018-12-30T11:29:26Z</time>
</trkpt>
<trkpt lat="49.1353458" lon="2.6806998">
<ele>111.64</ele>
<time>2018-12-30T11:29:27Z</time>
</trkpt>
<trkpt lat="49.1353012" lon="2.6807430">
<ele>110.92</ele>
<time>2018-12-30T11:29:28Z</time>
</trkpt>
<trkpt lat="49.1352549" lon="2.6807855">
<ele>110.00</ele>
<time>2018-12-30T11:29:29Z</time>
</trkpt>
<trkpt lat="49.1352196" lon="2.6808309">
<ele>109.03</ele>
<time>2018-12-30T11:29:30Z</time>
</trkpt>
<trkpt lat="49.1351717" lon="2.6808848">
<ele>109.44</ele>
<time>2018-12-30T11:29:31Z</time>
</trkpt>
<trkpt lat="49.1351183" lon="2.6809358">
<ele>109.56</ele>
<time>2018-12-30T11:29:32Z</time>
</trkpt>
<trkpt lat="49.1350593" lon="2.6809812">
<ele>108.90</ele>
<time>2018-12-30T11:29:33Z</time>
</trkpt>
<trkpt lat="49.1350056" lon="2.6810070">
<ele>108.70</ele>
<time>2018-12-30T11:29:34Z</time>
</trkpt>
<trkpt lat="49.1349472" lon="2.6810236">
<ele>108.64</ele>
<time>2018-12-30T11:29:35Z</time>
</trkpt>
<trkpt lat="49.1348890" lon="2.6810360">
<ele>109.32</ele>
<time>2018-12-30T11:29:36Z</time>
</trkpt>
<trkpt lat="49.1348318" lon="2.6810443">
<ele>109.52</ele>
<time>2018-12-30T11:29:37Z</time>
</trkpt>
<trkpt lat="49.1347744" lon="2.6810485">
<ele>109.58</ele>
<time>2018-12-30T11:29:38Z</time>
</trkpt>
<trkpt lat="49.1347168" lon="2.6810556">
<ele>108.90</ele>
<time>2018-12-30T11:29:39Z</time>
</trkpt>
<trkpt lat="49.1346555" lon="2.6810557">
<ele>108.70</ele>
<time>2018-12-30T11:29:40Z</time>
</trkpt>
<trkpt lat="49.1345969" lon="2.6810584">
<ele>108.64</ele>
<time>2018-12-30T11:29:41Z</time>
</trkpt>
<trkpt lat="49.1345420" lon="2.6810537">
<ele>108.62</ele>
<time>2018-12-30T11:29:42Z</time>
</trkpt>
<trkpt lat="49.1344893" lon="2.6810590">
<ele>108.61</ele>
<time>2018-12-30T11:29:43Z</time>
</trkpt>
<trkpt lat="49.1344328" lon="2.6810639">
<ele>108.61</ele>
<time>2018-12-30T11:29:44Z</time>
</trkpt>
<trkpt lat="49.1343695" lon="2.6810807">
<ele>108.61</ele>
<time>2018-12-30T11:29:45Z</time>
</trkpt>
<trkpt lat="49.1343057" lon="2.6810745">
<ele>108.61</ele>
<time>2018-12-30T11:29:46Z</time>
</trkpt>
<trkpt lat="49.1342442" lon="2.6810661">
<ele>108.61</ele>
<time>2018-12-30T11:29:47Z</time>
</trkpt>
<trkpt lat="49.1341794" lon="2.6810665">
<ele>108.61</ele>
<time>2018-12-30T11:29:48Z</time>
</trkpt>
<trkpt lat="49.1341167" lon="2.6810731">
<ele>107.91</ele>
<time>2018-12-30T11:29:49Z</time>
</trkpt>
<trkpt lat="49.1340596" lon="2.6811076">
<ele>107.70</ele>
<time>2018-12-30T11:29:50Z</time>
</trkpt>
<trkpt lat="49.1340089" lon="2.6811502">
<ele>107.64</ele>
<time>2018-12-30T11:29:51Z</time>
</trkpt>
<trkpt lat="49.1339694" lon="2.6811866">
<ele>107.62</ele>
<time>2018-12-30T11:29:52Z</time>
</trkpt>
<trkpt lat="49.1339301" lon="2.6812424">
<ele>107.61</ele>
<time>2018-12-30T11:29:53Z</time>
</trkpt>
<trkpt lat="49.1338976" lon="2.6813006">
<ele>107.61</ele>
<time>2018-12-30T11:29:54Z</time>
</trkpt>
<trkpt lat="49.1338569" lon="2.6814068">
<ele>107.61</ele>
<time>2018-12-30T11:29:56Z</time>
</trkpt>
<trkpt lat="49.1338267" lon="2.6814591">
<ele>108.31</ele>
<time>2018-12-30T11:29:57Z</time>
</trkpt>
<trkpt lat="49.1337685" lon="2.6815234">
<ele>107.67</ele>
<time>2018-12-30T11:29:59Z</time>
</trkpt>
<trkpt lat="49.1337161" lon="2.6815921">
<ele>108.53</ele>
<time>2018-12-30T11:30:01Z</time>
</trkpt>
<trkpt lat="49.1336472" lon="2.6816378">
<ele>108.60</ele>
<time>2018-12-30T11:30:03Z</time>
</trkpt>
<trkpt lat="49.1335845" lon="2.6816494">
<ele>108.61</ele>
<time>2018-12-30T11:30:04Z</time>
</trkpt>
<trkpt lat="49.1335297" lon="2.6816675">
<ele>108.61</ele>
<time>2018-12-30T11:30:05Z</time>
</trkpt>
<trkpt lat="49.1334842" lon="2.6816883">
<ele>108.61</ele>
<time>2018-12-30T11:30:06Z</time>
</trkpt>
<trkpt lat="49.1334467" lon="2.6817335">
<ele>108.61</ele>
<time>2018-12-30T11:30:07Z</time>
</trkpt>
<trkpt lat="49.1334242" lon="2.6818535">
<ele>108.61</ele>
<time>2018-12-30T11:30:09Z</time>
</trkpt>
<trkpt lat="49.1334659" lon="2.6819800">
<ele>108.61</ele>
<time>2018-12-30T11:30:11Z</time>
</trkpt>
<trkpt lat="49.1335148" lon="2.6820969">
<ele>109.31</ele>
<time>2018-12-30T11:30:13Z</time>
</trkpt>
<trkpt lat="49.1335419" lon="2.6821559">
<ele>109.52</ele>
<time>2018-12-30T11:30:14Z</time>
</trkpt>
<trkpt lat="49.1335687" lon="2.6822147">
<ele>109.58</ele>
<time>2018-12-30T11:30:15Z</time>
</trkpt>
<trkpt lat="49.1335961" lon="2.6822810">
<ele>109.60</ele>
<time>2018-12-30T11:30:16Z</time>
</trkpt>
<trkpt lat="49.1336275" lon="2.6823338">
<ele>109.61</ele>
<time>2018-12-30T11:30:17Z</time>
</trkpt>
<trkpt lat="49.1336653" lon="2.6823861">
<ele>109.61</ele>
<time>2018-12-30T11:30:18Z</time>
</trkpt>
<trkpt lat="49.1337029" lon="2.6824382">
<ele>109.61</ele>
<time>2018-12-30T11:30:19Z</time>
</trkpt>
<trkpt lat="49.1337402" lon="2.6824942">
<ele>109.61</ele>
<time>2018-12-30T11:30:20Z</time>
</trkpt>
<trkpt lat="49.1337995" lon="2.6825915">
<ele>108.70</ele>
<time>2018-12-30T11:30:22Z</time>
</trkpt>
<trkpt lat="49.1337810" lon="2.6827079">
<ele>109.53</ele>
<time>2018-12-30T11:30:24Z</time>
</trkpt>
<trkpt lat="49.1337092" lon="2.6827582">
<ele>108.69</ele>
<time>2018-12-30T11:30:26Z</time>
</trkpt>
<trkpt lat="49.1336443" lon="2.6828203">
<ele>109.32</ele>
<time>2018-12-30T11:30:28Z</time>
</trkpt>
<trkpt lat="49.1335852" lon="2.6828916">
<ele>109.58</ele>
<time>2018-12-30T11:30:30Z</time>
</trkpt>
<trkpt lat="49.1335156" lon="2.6829599">
<ele>109.61</ele>
<time>2018-12-30T11:30:32Z</time>
</trkpt>
<trkpt lat="49.1334598" lon="2.6829945">
<ele>108.91</ele>
<time>2018-12-30T11:30:33Z</time>
</trkpt>
<trkpt lat="49.1334026" lon="2.6830314">
<ele>108.00</ele>
<time>2018-12-30T11:30:34Z</time>
</trkpt>
<trkpt lat="49.1333424" lon="2.6830651">
<ele>107.73</ele>
<time>2018-12-30T11:30:35Z</time>
</trkpt>
<trkpt lat="49.1332915" lon="2.6830848">
<ele>107.65</ele>
<time>2018-12-30T11:30:36Z</time>
</trkpt>
<trkpt lat="49.1332286" lon="2.6830888">
<ele>107.62</ele>
<time>2018-12-30T11:30:37Z</time>
</trkpt>
<trkpt lat="49.1331737" lon="2.6830858">
<ele>107.61</ele>
<time>2018-12-30T11:30:38Z</time>
</trkpt>
<trkpt lat="49.1331103" lon="2.6831768">
<ele>107.61</ele>
<time>2018-12-30T11:30:40Z</time>
</trkpt>
<trkpt lat="49.1330993" lon="2.6832563">
<ele>107.61</ele>
<time>2018-12-30T11:30:41Z</time>
</trkpt>
<trkpt lat="49.1330747" lon="2.6833360">
<ele>107.61</ele>
<time>2018-12-30T11:30:42Z</time>
</trkpt>
<trkpt lat="49.1330431" lon="2.6834155">
<ele>107.61</ele>
<time>2018-12-30T11:30:43Z</time>
</trkpt>
<trkpt lat="49.1330030" lon="2.6834868">
<ele>107.61</ele>
<time>2018-12-30T11:30:44Z</time>
</trkpt>
<trkpt lat="49.1329435" lon="2.6835242">
<ele>107.61</ele>
<time>2018-12-30T11:30:45Z</time>
</trkpt>
<trkpt lat="49.1328712" lon="2.6835479">
<ele>107.61</ele>
<time>2018-12-30T11:30:46Z</time>
</trkpt>
<trkpt lat="49.1328072" lon="2.6835762">
<ele>107.61</ele>
<time>2018-12-30T11:30:47Z</time>
</trkpt>
<trkpt lat="49.1327441" lon="2.6836041">
<ele>106.91</ele>
<time>2018-12-30T11:30:48Z</time>
</trkpt>
<trkpt lat="49.1326803" lon="2.6836181">
<ele>106.00</ele>
<time>2018-12-30T11:30:49Z</time>
</trkpt>
<trkpt lat="49.1326173" lon="2.6836299">
<ele>105.73</ele>
<time>2018-12-30T11:30:50Z</time>
</trkpt>
<trkpt lat="49.1325549" lon="2.6836406">
<ele>105.65</ele>
<time>2018-12-30T11:30:51Z</time>
</trkpt>
<trkpt lat="49.1324908" lon="2.6836653">
<ele>105.62</ele>
<time>2018-12-30T11:30:52Z</time>
</trkpt>
<trkpt lat="49.1324390" lon="2.6837087">
<ele>105.61</ele>
<time>2018-12-30T11:30:53Z</time>
</trkpt>
<trkpt lat="49.1323985" lon="2.6837659">
<ele>105.61</ele>
<time>2018-12-30T11:30:54Z</time>
</trkpt>
<trkpt lat="49.1323656" lon="2.6838139">
<ele>104.91</ele>
<time>2018-12-30T11:30:55Z</time>
</trkpt>
<trkpt lat="49.1323316" lon="2.6838681">
<ele>104.70</ele>
<time>2018-12-30T11:30:56Z</time>
</trkpt>
<trkpt lat="49.1323081" lon="2.6839317">
<ele>104.64</ele>
<time>2018-12-30T11:30:57Z</time>
</trkpt>
<trkpt lat="49.1322896" lon="2.6839970">
<ele>103.92</ele>
<time>2018-12-30T11:30:58Z</time>
</trkpt>
<trkpt lat="49.1322988" lon="2.6840659">
<ele>103.00</ele>
<time>2018-12-30T11:30:59Z</time>
</trkpt>
<trkpt lat="49.1323153" lon="2.6841492">
<ele>102.73</ele>
<time>2018-12-30T11:31:00Z</time>
</trkpt>
<trkpt lat="49.1323343" lon="2.6842446">
<ele>101.95</ele>
<time>2018-12-30T11:31:01Z</time>
</trkpt>
<trkpt lat="49.1323560" lon="2.6843575">
<ele>101.71</ele>
<time>2018-12-30T11:31:02Z</time>
</trkpt>
<trkpt lat="49.1323630" lon="2.6845016">
<ele>100.94</ele>
<time>2018-12-30T11:31:03Z</time>
</trkpt>
<trkpt lat="49.1323733" lon="2.6846470">
<ele>100.01</ele>
<time>2018-12-30T11:31:04Z</time>
</trkpt>
<trkpt lat="49.1324005" lon="2.6847505">
<ele>99.03</ele>
<time>2018-12-30T11:31:05Z</time>
</trkpt>
<trkpt lat="49.1324570" lon="2.6848166">
<ele>98.04</ele>
<time>2018-12-30T11:31:06Z</time>
</trkpt>
<trkpt lat="49.1325179" lon="2.6848739">
<ele>97.74</ele>
<time>2018-12-30T11:31:07Z</time>
</trkpt>
<trkpt lat="49.1325714" lon="2.6849294">
<ele>96.95</ele>
<time>2018-12-30T11:31:08Z</time>
</trkpt>
<trkpt lat="49.1326318" lon="2.6849772">
<ele>96.01</ele>
<time>2018-12-30T11:31:09Z</time>
</trkpt>
<trkpt lat="49.1326891" lon="2.6850306">
<ele>95.73</ele>
<time>2018-12-30T11:31:10Z</time>
</trkpt>
<trkpt lat="49.1327388" lon="2.6851136">
<ele>94.95</ele>
<time>2018-12-30T11:31:11Z</time>
</trkpt>
<trkpt lat="49.1327787" lon="2.6852187">
<ele>94.01</ele>
<time>2018-12-30T11:31:12Z</time>
</trkpt>
<trkpt lat="49.1327962" lon="2.6853181">
<ele>93.03</ele>
<time>2018-12-30T11:31:13Z</time>
</trkpt>
<trkpt lat="49.1328097" lon="2.6853865">
<ele>92.04</ele>
<time>2018-12-30T11:31:14Z</time>
</trkpt>
<trkpt lat="49.1328785" lon="2.6854290">
<ele>90.74</ele>
<time>2018-12-30T11:31:16Z</time>
</trkpt>
<trkpt lat="49.1329258" lon="2.6854313">
<ele>89.95</ele>
<time>2018-12-30T11:31:17Z</time>
</trkpt>
<trkpt lat="49.1329783" lon="2.6854401">
<ele>89.71</ele>
<time>2018-12-30T11:31:18Z</time>
</trkpt>
<trkpt lat="49.1330234" lon="2.6854493">
<ele>89.64</ele>
<time>2018-12-30T11:31:19Z</time>
</trkpt>
<trkpt lat="49.1331035" lon="2.6854871">
<ele>89.61</ele>
<time>2018-12-30T11:31:21Z</time>
</trkpt>
<trkpt lat="49.1331948" lon="2.6854949">
<ele>90.52</ele>
<time>2018-12-30T11:31:23Z</time>
</trkpt>
<trkpt lat="49.1332412" lon="2.6854961">
<ele>90.58</ele>
<time>2018-12-30T11:31:24Z</time>
</trkpt>
<trkpt lat="49.1333120" lon="2.6854908">
<ele>90.61</ele>
<time>2018-12-30T11:31:26Z</time>
</trkpt>
<trkpt lat="49.1333863" lon="2.6855097">
<ele>90.61</ele>
<time>2018-12-30T11:31:28Z</time>
</trkpt>
<trkpt lat="49.1334248" lon="2.6855538">
<ele>90.61</ele>
<time>2018-12-30T11:31:29Z</time>
</trkpt>
<trkpt lat="49.1334790" lon="2.6856019">
<ele>90.61</ele>
<time>2018-12-30T11:31:30Z</time>
</trkpt>
<trkpt lat="49.1335377" lon="2.6856474">
<ele>89.91</ele>
<time>2018-12-30T11:31:31Z</time>
</trkpt>
<trkpt lat="49.1335954" lon="2.6857057">
<ele>89.70</ele>
<time>2018-12-30T11:31:32Z</time>
</trkpt>
<trkpt lat="49.1336437" lon="2.6857593">
<ele>89.64</ele>
<time>2018-12-30T11:31:33Z</time>
</trkpt>
<trkpt lat="49.1336903" lon="2.6857989">
<ele>89.62</ele>
<time>2018-12-30T11:31:34Z</time>
</trkpt>
<trkpt lat="49.1337391" lon="2.6858328">
<ele>88.91</ele>
<time>2018-12-30T11:31:35Z</time>
</trkpt>
<trkpt lat="49.1337898" lon="2.6858650">
<ele>88.70</ele>
<time>2018-12-30T11:31:36Z</time>
</trkpt>
<trkpt lat="49.1338343" lon="2.6858892">
<ele>88.64</ele>
<time>2018-12-30T11:31:37Z</time>
</trkpt>
<trkpt lat="49.1338896" lon="2.6859071">
<ele>87.92</ele>
<time>2018-12-30T11:31:38Z</time>
</trkpt>
<trkpt lat="49.1339461" lon="2.6858994">
<ele>87.70</ele>
<time>2018-12-30T11:31:39Z</time>
</trkpt>
<trkpt lat="49.1340036" lon="2.6858701">
<ele>88.34</ele>
<time>2018-12-30T11:31:40Z</time>
</trkpt>
<trkpt lat="49.1340516" lon="2.6858567">
<ele>88.53</ele>
<time>2018-12-30T11:31:41Z</time>
</trkpt>
<trkpt lat="49.1341012" lon="2.6858777">
<ele>88.59</ele>
<time>2018-12-30T11:31:42Z</time>
</trkpt>
<trkpt lat="49.1341538" lon="2.6858915">
<ele>88.60</ele>
<time>2018-12-30T11:31:43Z</time>
</trkpt>
<trkpt lat="49.1342103" lon="2.6858738">
<ele>88.61</ele>
<time>2018-12-30T11:31:44Z</time>
</trkpt>
<trkpt lat="49.1342569" lon="2.6858336">
<ele>88.61</ele>
<time>2018-12-30T11:31:45Z</time>
</trkpt>
<trkpt lat="49.1342986" lon="2.6857940">
<ele>87.91</ele>
<time>2018-12-30T11:31:46Z</time>
</trkpt>
<trkpt lat="49.1343946" lon="2.6857712">
<ele>87.64</ele>
<time>2018-12-30T11:31:48Z</time>
</trkpt>
<trkpt lat="49.1344444" lon="2.6857835">
<ele>88.32</ele>
<time>2018-12-30T11:31:49Z</time>
</trkpt>
<trkpt lat="49.1344933" lon="2.6858073">
<ele>88.52</ele>
<time>2018-12-30T11:31:50Z</time>
</trkpt>
<trkpt lat="49.1345456" lon="2.6858447">
<ele>88.58</ele>
<time>2018-12-30T11:31:51Z</time>
</trkpt>
<trkpt lat="49.1345957" lon="2.6858889">
<ele>88.60</ele>
<time>2018-12-30T11:31:52Z</time>
</trkpt>
<trkpt lat="49.1346431" lon="2.6859313">
<ele>88.61</ele>
<time>2018-12-30T11:31:53Z</time>
</trkpt>
<trkpt lat="49.1346910" lon="2.6859649">
<ele>87.91</ele>
<time>2018-12-30T11:31:54Z</time>
</trkpt>
<trkpt lat="49.1347327" lon="2.6859925">
<ele>87.70</ele>
<time>2018-12-30T11:31:55Z</time>
</trkpt>
<trkpt lat="49.1348152" lon="2.6860322">
<ele>86.92</ele>
<time>2018-12-30T11:31:57Z</time>
</trkpt>
<trkpt lat="49.1348563" lon="2.6860675">
<ele>86.70</ele>
<time>2018-12-30T11:31:58Z</time>
</trkpt>
<trkpt lat="49.1349033" lon="2.6861118">
<ele>86.64</ele>
<time>2018-12-30T11:31:59Z</time>
</trkpt>
<trkpt lat="49.1349453" lon="2.6861608">
<ele>86.62</ele>
<time>2018-12-30T11:32:00Z</time>
</trkpt>
<trkpt lat="49.1349845" lon="2.6862176">
<ele>86.61</ele>
<time>2018-12-30T11:32:01Z</time>
</trkpt>
<trkpt lat="49.1350249" lon="2.6862803">
<ele>86.61</ele>
<time>2018-12-30T11:32:02Z</time>
</trkpt>
<trkpt lat="49.1350618" lon="2.6863379">
<ele>87.31</ele>
<time>2018-12-30T11:32:03Z</time>
</trkpt>
<trkpt lat="49.1351025" lon="2.6863906">
<ele>87.52</ele>
<time>2018-12-30T11:32:04Z</time>
</trkpt>
<trkpt lat="49.1351439" lon="2.6864440">
<ele>87.58</ele>
<time>2018-12-30T11:32:05Z</time>
</trkpt>
<trkpt lat="49.1351858" lon="2.6864902">
<ele>87.60</ele>
<time>2018-12-30T11:32:06Z</time>
</trkpt>
<trkpt lat="49.1352274" lon="2.6865316">
<ele>87.61</ele>
<time>2018-12-30T11:32:07Z</time>
</trkpt>
<trkpt lat="49.1352718" lon="2.6865792">
<ele>87.61</ele>
<time>2018-12-30T11:32:08Z</time>
</trkpt>
<trkpt lat="49.1353141" lon="2.6866240">
<ele>88.31</ele>
<time>2018-12-30T11:32:09Z</time>
</trkpt>
<trkpt lat="49.1353478" lon="2.6866710">
<ele>88.52</ele>
<time>2018-12-30T11:32:10Z</time>
</trkpt>
<trkpt lat="49.1353860" lon="2.6867214">
<ele>88.58</ele>
<time>2018-12-30T11:32:11Z</time>
</trkpt>
<trkpt lat="49.1354232" lon="2.6867806">
<ele>88.60</ele>
<time>2018-12-30T11:32:12Z</time>
</trkpt>
<trkpt lat="49.1354576" lon="2.6868441">
<ele>87.91</ele>
<time>2018-12-30T11:32:13Z</time>
</trkpt>
<trkpt lat="49.1354984" lon="2.6869034">
<ele>88.40</ele>
<time>2018-12-30T11:32:14Z</time>
</trkpt>
<trkpt lat="49.1355400" lon="2.6869543">
<ele>87.85</ele>
<time>2018-12-30T11:32:15Z</time>
</trkpt>
<trkpt lat="49.1355864" lon="2.6869994">
<ele>87.68</ele>
<time>2018-12-30T11:32:16Z</time>
</trkpt>
<trkpt lat="49.1356312" lon="2.6870280">
<ele>87.63</ele>
<time>2018-12-30T11:32:17Z</time>
</trkpt>
<trkpt lat="49.1357098" lon="2.6870431">
<ele>86.70</ele>
<time>2018-12-30T11:32:19Z</time>
</trkpt>
<trkpt lat="49.1357864" lon="2.6870586">
<ele>87.53</ele>
<time>2018-12-30T11:32:21Z</time>
</trkpt>
<trkpt lat="49.1358710" lon="2.6870578">
<ele>86.90</ele>
<time>2018-12-30T11:32:23Z</time>
</trkpt>
<trkpt lat="49.1359348" lon="2.6870644">
<ele>86.70</ele>
<time>2018-12-30T11:32:24Z</time>
</trkpt>
<trkpt lat="49.1359976" lon="2.6870857">
<ele>86.64</ele>
<time>2018-12-30T11:32:25Z</time>
</trkpt>
<trkpt lat="49.1360551" lon="2.6871204">
<ele>85.92</ele>
<time>2018-12-30T11:32:26Z</time>
</trkpt>
<trkpt lat="49.1361080" lon="2.6871502">
<ele>85.70</ele>
<time>2018-12-30T11:32:27Z</time>
</trkpt>
<trkpt lat="49.1361617" lon="2.6871811">
<ele>85.64</ele>
<time>2018-12-30T11:32:28Z</time>
</trkpt>
<trkpt lat="49.1362245" lon="2.6871733">
<ele>85.62</ele>
<time>2018-12-30T11:32:29Z</time>
</trkpt>
<trkpt lat="49.1362844" lon="2.6871768">
<ele>85.61</ele>
<time>2018-12-30T11:32:30Z</time>
</trkpt>
<trkpt lat="49.1363533" lon="2.6871797">
<ele>84.91</ele>
<time>2018-12-30T11:32:31Z</time>
</trkpt>
<trkpt lat="49.1364136" lon="2.6871575">
<ele>84.70</ele>
<time>2018-12-30T11:32:32Z</time>
</trkpt>
<trkpt lat="49.1364688" lon="2.6871215">
<ele>85.34</ele>
<time>2018-12-30T11:32:33Z</time>
</trkpt>
<trkpt lat="49.1365368" lon="2.6870916">
<ele>84.68</ele>
<time>2018-12-30T11:32:35Z</time>
</trkpt>
<trkpt lat="49.1365007" lon="2.6871376">
<ele>85.58</ele>
<time>2018-12-30T11:32:42Z</time>
</trkpt>
<trkpt lat="49.1364381" lon="2.6871706">
<ele>85.61</ele>
<time>2018-12-30T11:32:44Z</time>
</trkpt>
<trkpt lat="49.1363602" lon="2.6871867">
<ele>85.61</ele>
<time>2018-12-30T11:32:46Z</time>
</trkpt>
<trkpt lat="49.1362853" lon="2.6871937">
<ele>85.61</ele>
<time>2018-12-30T11:32:48Z</time>
</trkpt>
<trkpt lat="49.1362139" lon="2.6871970">
<ele>85.61</ele>
<time>2018-12-30T11:32:50Z</time>
</trkpt>
<trkpt lat="49.1361413" lon="2.6871769">
<ele>85.61</ele>
<time>2018-12-30T11:32:52Z</time>
</trkpt>
<trkpt lat="49.1360782" lon="2.6871524">
<ele>86.52</ele>
<time>2018-12-30T11:32:54Z</time>
</trkpt>
<trkpt lat="49.1360228" lon="2.6871206">
<ele>86.60</ele>
<time>2018-12-30T11:32:56Z</time>
</trkpt>
<trkpt lat="49.1360047" lon="2.6870336">
<ele>85.91</ele>
<time>2018-12-30T11:32:59Z</time>
</trkpt>
<trkpt lat="49.1360059" lon="2.6869607">
<ele>85.64</ele>
<time>2018-12-30T11:33:01Z</time>
</trkpt>
<trkpt lat="49.1360207" lon="2.6868754">
<ele>85.61</ele>
<time>2018-12-30T11:33:03Z</time>
</trkpt>
<trkpt lat="49.1360137" lon="2.6867842">
<ele>85.61</ele>
<time>2018-12-30T11:33:06Z</time>
</trkpt>
<trkpt lat="49.1360056" lon="2.6867162">
<ele>86.52</ele>
<time>2018-12-30T11:33:08Z</time>
</trkpt>
<trkpt lat="49.1359992" lon="2.6866358">
<ele>85.91</ele>
<time>2018-12-30T11:33:11Z</time>
</trkpt>
<trkpt lat="49.1360269" lon="2.6865683">
<ele>85.62</ele>
<time>2018-12-30T11:33:14Z</time>
</trkpt>
<trkpt lat="49.1360399" lon="2.6864885">
<ele>86.31</ele>
<time>2018-12-30T11:33:17Z</time>
</trkpt>
<trkpt lat="49.1360380" lon="2.6864183">
<ele>86.60</ele>
<time>2018-12-30T11:33:20Z</time>
</trkpt>
<trkpt lat="49.1360503" lon="2.6863358">
<ele>86.61</ele>
<time>2018-12-30T11:33:23Z</time>
</trkpt>
<trkpt lat="49.1360590" lon="2.6862420">
<ele>87.52</ele>
<time>2018-12-30T11:33:26Z</time>
</trkpt>
<trkpt lat="49.1360661" lon="2.6861457">
<ele>87.61</ele>
<time>2018-12-30T11:33:29Z</time>
</trkpt>
<trkpt lat="49.1360627" lon="2.6860587">
<ele>87.61</ele>
<time>2018-12-30T11:33:32Z</time>
</trkpt>
<trkpt lat="49.1360608" lon="2.6859893">
<ele>87.61</ele>
<time>2018-12-30T11:33:34Z</time>
</trkpt>
<trkpt lat="49.1360693" lon="2.6859167">
<ele>88.31</ele>
<time>2018-12-30T11:33:36Z</time>
</trkpt>
<trkpt lat="49.1360743" lon="2.6858230">
<ele>89.51</ele>
<time>2018-12-30T11:33:39Z</time>
</trkpt>
<trkpt lat="49.1360855" lon="2.6857445">
<ele>90.52</ele>
<time>2018-12-30T11:33:42Z</time>
</trkpt>
<trkpt lat="49.1360910" lon="2.6856528">
<ele>90.61</ele>
<time>2018-12-30T11:33:45Z</time>
</trkpt>
<trkpt lat="49.1360775" lon="2.6855729">
<ele>92.30</ele>
<time>2018-12-30T11:33:49Z</time>
</trkpt>
<trkpt lat="49.1360917" lon="2.6854772">
<ele>93.30</ele>
<time>2018-12-30T11:33:52Z</time>
</trkpt>
<trkpt lat="49.1361161" lon="2.6853922">
<ele>94.30</ele>
<time>2018-12-30T11:33:55Z</time>
</trkpt>
<trkpt lat="49.1361583" lon="2.6853274">
<ele>94.60</ele>
<time>2018-12-30T11:33:58Z</time>
</trkpt>
<trkpt lat="49.1361881" lon="2.6852652">
<ele>94.61</ele>
<time>2018-12-30T11:34:00Z</time>
</trkpt>
<trkpt lat="49.1362311" lon="2.6852026">
<ele>94.61</ele>
<time>2018-12-30T11:34:02Z</time>
</trkpt>
<trkpt lat="49.1362620" lon="2.6851514">
<ele>95.52</ele>
<time>2018-12-30T11:34:04Z</time>
</trkpt>
<trkpt lat="49.1362858" lon="2.6850850">
<ele>96.30</ele>
<time>2018-12-30T11:34:06Z</time>
</trkpt>
<trkpt lat="49.1363073" lon="2.6849797">
<ele>97.30</ele>
<time>2018-12-30T11:34:09Z</time>
</trkpt>
<trkpt lat="49.1363156" lon="2.6849068">
<ele>97.58</ele>
<time>2018-12-30T11:34:11Z</time>
</trkpt>
<trkpt lat="49.1363125" lon="2.6848054">
<ele>98.58</ele>
<time>2018-12-30T11:34:14Z</time>
</trkpt>
<trkpt lat="49.1363038" lon="2.6847190">
<ele>98.61</ele>
<time>2018-12-30T11:34:17Z</time>
</trkpt>
<trkpt lat="49.1362989" lon="2.6846308">
<ele>99.52</ele>
<time>2018-12-30T11:34:21Z</time>
</trkpt>
<trkpt lat="49.1362993" lon="2.6845440">
<ele>100.31</ele>
<time>2018-12-30T11:34:24Z</time>
</trkpt>
<trkpt lat="49.1363012" lon="2.6844387">
<ele>101.51</ele>
<time>2018-12-30T11:34:27Z</time>
</trkpt>
<trkpt lat="49.1362978" lon="2.6843587">
<ele>102.51</ele>
<time>2018-12-30T11:34:29Z</time>
</trkpt>
<trkpt lat="49.1362870" lon="2.6842788">
<ele>104.22</ele>
<time>2018-12-30T11:34:32Z</time>
</trkpt>
<trkpt lat="49.1362877" lon="2.6841742">
<ele>104.60</ele>
<time>2018-12-30T11:34:35Z</time>
</trkpt>
<trkpt lat="49.1362942" lon="2.6840960">
<ele>105.31</ele>
<time>2018-12-30T11:34:37Z</time>
</trkpt>
<trkpt lat="49.1363056" lon="2.6839986">
<ele>105.58</ele>
<time>2018-12-30T11:34:39Z</time>
</trkpt>
<trkpt lat="49.1363183" lon="2.6838808">
<ele>106.31</ele>
<time>2018-12-30T11:34:41Z</time>
</trkpt>
<trkpt lat="49.1363362" lon="2.6837829">
<ele>106.58</ele>
<time>2018-12-30T11:34:43Z</time>
</trkpt>
<trkpt lat="49.1363429" lon="2.6836901">
<ele>106.61</ele>
<time>2018-12-30T11:34:45Z</time>
</trkpt>
<trkpt lat="49.1363386" lon="2.6835950">
<ele>107.31</ele>
<time>2018-12-30T11:34:47Z</time>
</trkpt>
<trkpt lat="49.1363360" lon="2.6834873">
<ele>107.58</ele>
<time>2018-12-30T11:34:49Z</time>
</trkpt>
<trkpt lat="49.1363274" lon="2.6833798">
<ele>107.61</ele>
<time>2018-12-30T11:34:51Z</time>
</trkpt>
<trkpt lat="49.1363108" lon="2.6832694">
<ele>107.61</ele>
<time>2018-12-30T11:34:53Z</time>
</trkpt>
<trkpt lat="49.1363022" lon="2.6831632">
<ele>108.52</ele>
<time>2018-12-30T11:34:55Z</time>
</trkpt>
<trkpt lat="49.1363167" lon="2.6830566">
<ele>108.60</ele>
<time>2018-12-30T11:34:57Z</time>
</trkpt>
<trkpt lat="49.1363479" lon="2.6829913">
<ele>108.61</ele>
<time>2018-12-30T11:34:59Z</time>
</trkpt>
<trkpt lat="49.1363947" lon="2.6829286">
<ele>108.61</ele>
<time>2018-12-30T11:35:01Z</time>
</trkpt>
<trkpt lat="49.1364559" lon="2.6828948">
<ele>108.61</ele>
<time>2018-12-30T11:35:03Z</time>
</trkpt>
<trkpt lat="49.1365418" lon="2.6829125">
<ele>106.30</ele>
<time>2018-12-30T11:35:05Z</time>
</trkpt>
<trkpt lat="49.1365948" lon="2.6829145">
<ele>105.12</ele>
<time>2018-12-30T11:35:06Z</time>
</trkpt>
<trkpt lat="49.1366476" lon="2.6829238">
<ele>103.36</ele>
<time>2018-12-30T11:35:07Z</time>
</trkpt>
<trkpt lat="49.1367013" lon="2.6829018">
<ele>103.54</ele>
<time>2018-12-30T11:35:08Z</time>
</trkpt>
<trkpt lat="49.1367490" lon="2.6828687">
<ele>103.59</ele>
<time>2018-12-30T11:35:09Z</time>
</trkpt>
<trkpt lat="49.1367882" lon="2.6828140">
<ele>103.60</ele>
<time>2018-12-30T11:35:10Z</time>
</trkpt>
<trkpt lat="49.1368248" lon="2.6827096">
<ele>103.61</ele>
<time>2018-12-30T11:35:12Z</time>
</trkpt>
<trkpt lat="49.1368619" lon="2.6826132">
<ele>103.61</ele>
<time>2018-12-30T11:35:14Z</time>
</trkpt>
<trkpt lat="49.1369094" lon="2.6825177">
<ele>103.61</ele>
<time>2018-12-30T11:35:16Z</time>
</trkpt>
<trkpt lat="49.1369446" lon="2.6824305">
<ele>103.61</ele>
<time>2018-12-30T11:35:18Z</time>
</trkpt>
<trkpt lat="49.1369748" lon="2.6823477">
<ele>103.61</ele>
<time>2018-12-30T11:35:20Z</time>
</trkpt>
<trkpt lat="49.1370041" lon="2.6822455">
<ele>102.91</ele>
<time>2018-12-30T11:35:22Z</time>
</trkpt>
<trkpt lat="49.1370186" lon="2.6821405">
<ele>102.64</ele>
<time>2018-12-30T11:35:24Z</time>
</trkpt>
<trkpt lat="49.1370274" lon="2.6820537">
<ele>102.61</ele>
<time>2018-12-30T11:35:26Z</time>
</trkpt>
<trkpt lat="49.1370294" lon="2.6819771">
<ele>102.61</ele>
<time>2018-12-30T11:35:28Z</time>
</trkpt>
<trkpt lat="49.1370383" lon="2.6818784">
<ele>102.61</ele>
<time>2018-12-30T11:35:30Z</time>
</trkpt>
<trkpt lat="49.1370469" lon="2.6817993">
<ele>102.61</ele>
<time>2018-12-30T11:35:32Z</time>
</trkpt>
<trkpt lat="49.1370652" lon="2.6816996">
<ele>102.61</ele>
<time>2018-12-30T11:35:34Z</time>
</trkpt>
<trkpt lat="49.1370987" lon="2.6816036">
<ele>102.61</ele>
<time>2018-12-30T11:35:36Z</time>
</trkpt>
<trkpt lat="49.1371202" lon="2.6815186">
<ele>103.31</ele>
<time>2018-12-30T11:35:38Z</time>
</trkpt>
<trkpt lat="49.1371560" lon="2.6814429">
<ele>103.60</ele>
<time>2018-12-30T11:35:41Z</time>
</trkpt>
<trkpt lat="49.1371851" lon="2.6813604">
<ele>103.61</ele>
<time>2018-12-30T11:35:44Z</time>
</trkpt>
<trkpt lat="49.1372193" lon="2.6812795">
<ele>103.61</ele>
<time>2018-12-30T11:35:46Z</time>
</trkpt>
<trkpt lat="49.1372439" lon="2.6811801">
<ele>103.61</ele>
<time>2018-12-30T11:35:48Z</time>
</trkpt>
<trkpt lat="49.1372686" lon="2.6811089">
<ele>103.61</ele>
<time>2018-12-30T11:35:50Z</time>
</trkpt>
<trkpt lat="49.1372773" lon="2.6810302">
<ele>103.61</ele>
<time>2018-12-30T11:35:52Z</time>
</trkpt>
<trkpt lat="49.1372942" lon="2.6809573">
<ele>103.61</ele>
<time>2018-12-30T11:35:54Z</time>
</trkpt>
<trkpt lat="49.1373262" lon="2.6808967">
<ele>102.91</ele>
<time>2018-12-30T11:35:56Z</time>
</trkpt>
<trkpt lat="49.1373660" lon="2.6809295">
<ele>103.53</ele>
<time>2018-12-30T11:35:59Z</time>
</trkpt>
<trkpt lat="49.1374010" lon="2.6809897">
<ele>103.60</ele>
<time>2018-12-30T11:36:01Z</time>
</trkpt>
<trkpt lat="49.1374382" lon="2.6810849">
<ele>103.61</ele>
<time>2018-12-30T11:36:03Z</time>
</trkpt>
<trkpt lat="49.1374776" lon="2.6811251">
<ele>103.61</ele>
<time>2018-12-30T11:36:04Z</time>
</trkpt>
<trkpt lat="49.1375460" lon="2.6811552">
<ele>102.91</ele>
<time>2018-12-30T11:36:05Z</time>
</trkpt>
<trkpt lat="49.1376061" lon="2.6811938">
<ele>102.70</ele>
<time>2018-12-30T11:36:06Z</time>
</trkpt>
<trkpt lat="49.1376587" lon="2.6812314">
<ele>101.94</ele>
<time>2018-12-30T11:36:07Z</time>
</trkpt>
<trkpt lat="49.1377115" lon="2.6812554">
<ele>101.71</ele>
<time>2018-12-30T11:36:08Z</time>
</trkpt>
<trkpt lat="49.1377705" lon="2.6812641">
<ele>101.64</ele>
<time>2018-12-30T11:36:09Z</time>
</trkpt>
<trkpt lat="49.1378364" lon="2.6812671">
<ele>101.62</ele>
<time>2018-12-30T11:36:10Z</time>
</trkpt>
<trkpt lat="49.1378959" lon="2.6812623">
<ele>100.91</ele>
<time>2018-12-30T11:36:11Z</time>
</trkpt>
<trkpt lat="49.1379614" lon="2.6812476">
<ele>100.70</ele>
<time>2018-12-30T11:36:12Z</time>
</trkpt>
<trkpt lat="49.1380255" lon="2.6812304">
<ele>99.94</ele>
<time>2018-12-30T11:36:13Z</time>
</trkpt>
<trkpt lat="49.1380807" lon="2.6811911">
<ele>99.01</ele>
<time>2018-12-30T11:36:14Z</time>
</trkpt>
<trkpt lat="49.1381314" lon="2.6811298">
<ele>98.73</ele>
<time>2018-12-30T11:36:15Z</time>
</trkpt>
<trkpt lat="49.1381822" lon="2.6810702">
<ele>98.65</ele>
<time>2018-12-30T11:36:16Z</time>
</trkpt>
<trkpt lat="49.1382316" lon="2.6810342">
<ele>98.62</ele>
<time>2018-12-30T11:36:17Z</time>
</trkpt>
<trkpt lat="49.1382916" lon="2.6810148">
<ele>98.61</ele>
<time>2018-12-30T11:36:18Z</time>
</trkpt>
<trkpt lat="49.1383670" lon="2.6810302">
<ele>97.91</ele>
<time>2018-12-30T11:36:19Z</time>
</trkpt>
<trkpt lat="49.1384392" lon="2.6810790">
<ele>97.00</ele>
<time>2018-12-30T11:36:20Z</time>
</trkpt>
<trkpt lat="49.1385149" lon="2.6811347">
<ele>96.73</ele>
<time>2018-12-30T11:36:21Z</time>
</trkpt>
<trkpt lat="49.1385753" lon="2.6812236">
<ele>95.95</ele>
<time>2018-12-30T11:36:22Z</time>
</trkpt>
<trkpt lat="49.1386081" lon="2.6813458">
<ele>95.01</ele>
<time>2018-12-30T11:36:23Z</time>
</trkpt>
<trkpt lat="49.1386265" lon="2.6814711">
<ele>94.73</ele>
<time>2018-12-30T11:36:24Z</time>
</trkpt>
<trkpt lat="49.1386364" lon="2.6815921">
<ele>94.65</ele>
<time>2018-12-30T11:36:25Z</time>
</trkpt>
<trkpt lat="49.1386527" lon="2.6817102">
<ele>93.92</ele>
<time>2018-12-30T11:36:26Z</time>
</trkpt>
<trkpt lat="49.1386814" lon="2.6818110">
<ele>93.70</ele>
<time>2018-12-30T11:36:27Z</time>
</trkpt>
<trkpt lat="49.1387278" lon="2.6819078">
<ele>93.64</ele>
<time>2018-12-30T11:36:28Z</time>
</trkpt>
<trkpt lat="49.1387797" lon="2.6820025">
<ele>92.92</ele>
<time>2018-12-30T11:36:29Z</time>
</trkpt>
<trkpt lat="49.1388238" lon="2.6820958">
<ele>92.00</ele>
<time>2018-12-30T11:36:30Z</time>
</trkpt>
<trkpt lat="49.1388539" lon="2.6822084">
<ele>91.73</ele>
<time>2018-12-30T11:36:31Z</time>
</trkpt>
<trkpt lat="49.1388690" lon="2.6823213">
<ele>90.95</ele>
<time>2018-12-30T11:36:32Z</time>
</trkpt>
<trkpt lat="49.1388827" lon="2.6824238">
<ele>90.71</ele>
<time>2018-12-30T11:36:33Z</time>
</trkpt>
<trkpt lat="49.1388985" lon="2.6825253">
<ele>89.94</ele>
<time>2018-12-30T11:36:34Z</time>
</trkpt>
<trkpt lat="49.1389181" lon="2.6826332">
<ele>89.01</ele>
<time>2018-12-30T11:36:35Z</time>
</trkpt>
<trkpt lat="49.1389384" lon="2.6827263">
<ele>88.73</ele>
<time>2018-12-30T11:36:36Z</time>
</trkpt>
<trkpt lat="49.1389555" lon="2.6828162">
<ele>87.95</ele>
<time>2018-12-30T11:36:37Z</time>
</trkpt>
<trkpt lat="49.1389687" lon="2.6829039">
<ele>87.71</ele>
<time>2018-12-30T11:36:38Z</time>
</trkpt>
<trkpt lat="49.1389791" lon="2.6829838">
<ele>87.64</ele>
<time>2018-12-30T11:36:39Z</time>
</trkpt>
<trkpt lat="49.1389909" lon="2.6830612">
<ele>88.32</ele>
<time>2018-12-30T11:36:40Z</time>
</trkpt>
<trkpt lat="49.1390000" lon="2.6831703">
<ele>87.67</ele>
<time>2018-12-30T11:36:42Z</time>
</trkpt>
<trkpt lat="49.1390259" lon="2.6832269">
<ele>87.64</ele>
<time>2018-12-30T11:38:47Z</time>
</trkpt>
<trkpt lat="49.1390373" lon="2.6833347">
<ele>87.61</ele>
<time>2018-12-30T11:38:50Z</time>
</trkpt>
<trkpt lat="49.1390458" lon="2.6834226">
<ele>87.61</ele>
<time>2018-12-30T11:38:52Z</time>
</trkpt>
<trkpt lat="49.1390539" lon="2.6835395">
<ele>87.61</ele>
<time>2018-12-30T11:38:54Z</time>
</trkpt>
<trkpt lat="49.1390625" lon="2.6836723">
<ele>86.00</ele>
<time>2018-12-30T11:38:56Z</time>
</trkpt>
<trkpt lat="49.1390744" lon="2.6837996">
<ele>84.04</ele>
<time>2018-12-30T11:38:58Z</time>
</trkpt>
<trkpt lat="49.1390815" lon="2.6838736">
<ele>83.04</ele>
<time>2018-12-30T11:38:59Z</time>
</trkpt>
<trkpt lat="49.1390870" lon="2.6839519">
<ele>82.74</ele>
<time>2018-12-30T11:39:00Z</time>
</trkpt>
<trkpt lat="49.1390916" lon="2.6840237">
<ele>81.95</ele>
<time>2018-12-30T11:39:01Z</time>
</trkpt>
<trkpt lat="49.1390965" lon="2.6840992">
<ele>81.71</ele>
<time>2018-12-30T11:39:02Z</time>
</trkpt>
<trkpt lat="49.1390987" lon="2.6841744">
<ele>81.64</ele>
<time>2018-12-30T11:39:03Z</time>
</trkpt>
<trkpt lat="49.1391051" lon="2.6842632">
<ele>80.70</ele>
<time>2018-12-30T11:39:05Z</time>
</trkpt>
<trkpt lat="49.1391462" lon="2.6842217">
<ele>79.70</ele>
<time>2018-12-30T11:39:08Z</time>
</trkpt>
<trkpt lat="49.1391878" lon="2.6841770">
<ele>79.62</ele>
<time>2018-12-30T11:39:10Z</time>
</trkpt>
<trkpt lat="49.1392230" lon="2.6841343">
<ele>79.61</ele>
<time>2018-12-30T11:39:12Z</time>
</trkpt>
<trkpt lat="49.1392692" lon="2.6840446">
<ele>79.61</ele>
<time>2018-12-30T11:39:15Z</time>
</trkpt>
<trkpt lat="49.1393046" lon="2.6839456">
<ele>79.61</ele>
<time>2018-12-30T11:39:17Z</time>
</trkpt>
<trkpt lat="49.1393496" lon="2.6838214">
<ele>79.61</ele>
<time>2018-12-30T11:39:19Z</time>
</trkpt>
<trkpt lat="49.1393469" lon="2.6837295">
<ele>79.61</ele>
<time>2018-12-30T11:39:21Z</time>
</trkpt>
<trkpt lat="49.1393517" lon="2.6836116">
<ele>79.61</ele>
<time>2018-12-30T11:39:23Z</time>
</trkpt>
<trkpt lat="49.1393792" lon="2.6834677">
<ele>79.61</ele>
<time>2018-12-30T11:39:25Z</time>
</trkpt>
<trkpt lat="49.1393920" lon="2.6833571">
<ele>79.61</ele>
<time>2018-12-30T11:39:27Z</time>
</trkpt>
<trkpt lat="49.1394123" lon="2.6832454">
<ele>79.61</ele>
<time>2018-12-30T11:39:29Z</time>
</trkpt>
<trkpt lat="49.1394475" lon="2.6831553">
<ele>79.61</ele>
<time>2018-12-30T11:39:31Z</time>
</trkpt>
<trkpt lat="49.1394737" lon="2.6830511">
<ele>80.52</ele>
<time>2018-12-30T11:39:33Z</time>
</trkpt>
<trkpt lat="49.1394924" lon="2.6829398">
<ele>80.60</ele>
<time>2018-12-30T11:39:35Z</time>
</trkpt>
<trkpt lat="49.1395275" lon="2.6828639">
<ele>81.52</ele>
<time>2018-12-30T11:39:37Z</time>
</trkpt>
<trkpt lat="49.1395685" lon="2.6827893">
<ele>81.60</ele>
<time>2018-12-30T11:39:39Z</time>
</trkpt>
<trkpt lat="49.1396021" lon="2.6827206">
<ele>82.52</ele>
<time>2018-12-30T11:39:41Z</time>
</trkpt>
<trkpt lat="49.1396480" lon="2.6826655">
<ele>82.60</ele>
<time>2018-12-30T11:39:43Z</time>
</trkpt>
<trkpt lat="49.1396929" lon="2.6826165">
<ele>82.61</ele>
<time>2018-12-30T11:39:45Z</time>
</trkpt>
<trkpt lat="49.1397160" lon="2.6825186">
<ele>83.52</ele>
<time>2018-12-30T11:39:48Z</time>
</trkpt>
<trkpt lat="49.1397587" lon="2.6824916">
<ele>83.60</ele>
<time>2018-12-30T11:39:50Z</time>
</trkpt>
<trkpt lat="49.1398033" lon="2.6824570">
<ele>83.61</ele>
<time>2018-12-30T11:39:52Z</time>
</trkpt>
<trkpt lat="49.1398509" lon="2.6824093">
<ele>83.61</ele>
<time>2018-12-30T11:39:54Z</time>
</trkpt>
<trkpt lat="49.1398340" lon="2.6823335">
<ele>84.58</ele>
<time>2018-12-30T11:39:58Z</time>
</trkpt>
<trkpt lat="49.1397874" lon="2.6822929">
<ele>85.58</ele>
<time>2018-12-30T11:40:01Z</time>
</trkpt>
<trkpt lat="49.1397452" lon="2.6822374">
<ele>86.52</ele>
<time>2018-12-30T11:40:04Z</time>
</trkpt>
<trkpt lat="49.1397022" lon="2.6822030">
<ele>87.51</ele>
<time>2018-12-30T11:40:06Z</time>
</trkpt>
<trkpt lat="49.1396465" lon="2.6821428">
<ele>88.52</ele>
<time>2018-12-30T11:40:09Z</time>
</trkpt>
<trkpt lat="49.1396038" lon="2.6820966">
<ele>89.30</ele>
<time>2018-12-30T11:40:11Z</time>
</trkpt>
<trkpt lat="49.1395738" lon="2.6820033">
<ele>89.60</ele>
<time>2018-12-30T11:40:14Z</time>
</trkpt>
<trkpt lat="49.1395340" lon="2.6819220">
<ele>89.61</ele>
<time>2018-12-30T11:40:16Z</time>
</trkpt>
<trkpt lat="49.1394877" lon="2.6818317">
<ele>89.61</ele>
<time>2018-12-30T11:40:18Z</time>
</trkpt>
<trkpt lat="49.1394538" lon="2.6817478">
<ele>89.61</ele>
<time>2018-12-30T11:40:20Z</time>
</trkpt>
<trkpt lat="49.1394194" lon="2.6816805">
<ele>89.61</ele>
<time>2018-12-30T11:40:22Z</time>
</trkpt>
<trkpt lat="49.1393798" lon="2.6816230">
<ele>89.61</ele>
<time>2018-12-30T11:40:24Z</time>
</trkpt>
<trkpt lat="49.1393508" lon="2.6815681">
<ele>89.61</ele>
<time>2018-12-30T11:40:26Z</time>
</trkpt>
<trkpt lat="49.1393252" lon="2.6815059">
<ele>89.82</ele>
<time>2018-12-30T11:40:28Z</time>
</trkpt>
<trkpt lat="49.1393128" lon="2.6814251">
<ele>90.54</ele>
<time>2018-12-30T11:40:30Z</time>
</trkpt>
<trkpt lat="49.1393061" lon="2.6813563">
<ele>90.60</ele>
<time>2018-12-30T11:40:32Z</time>
</trkpt>
<trkpt lat="49.1393135" lon="2.6812804">
<ele>91.31</ele>
<time>2018-12-30T11:40:34Z</time>
</trkpt>
<trkpt lat="49.1393112" lon="2.6812104">
<ele>93.21</ele>
<time>2018-12-30T11:40:37Z</time>
</trkpt>
<trkpt lat="49.1393278" lon="2.6811267">
<ele>95.22</ele>
<time>2018-12-30T11:40:41Z</time>
</trkpt>
<trkpt lat="49.1393488" lon="2.6810630">
<ele>97.40</ele>
<time>2018-12-30T11:40:47Z</time>
</trkpt>
<trkpt lat="49.1393962" lon="2.6810162">
<ele>100.91</ele>
<time>2018-12-30T11:41:03Z</time>
</trkpt>
<trkpt lat="49.1394425" lon="2.6810626">
<ele>101.52</ele>
<time>2018-12-30T11:41:37Z</time>
</trkpt>
<trkpt lat="49.1394629" lon="2.6811424">
<ele>102.31</ele>
<time>2018-12-30T11:41:40Z</time>
</trkpt>
<trkpt lat="49.1395053" lon="2.6812091">
<ele>101.63</ele>
<time>2018-12-30T11:41:43Z</time>
</trkpt>
<trkpt lat="49.1395625" lon="2.6812728">
<ele>101.67</ele>
<time>2018-12-30T11:41:46Z</time>
</trkpt>
<trkpt lat="49.1396012" lon="2.6813506">
<ele>101.62</ele>
<time>2018-12-30T11:41:48Z</time>
</trkpt>
<trkpt lat="49.1396439" lon="2.6814183">
<ele>101.61</ele>
<time>2018-12-30T11:41:50Z</time>
</trkpt>
<trkpt lat="49.1396888" lon="2.6814658">
<ele>101.61</ele>
<time>2018-12-30T11:41:52Z</time>
</trkpt>
<trkpt lat="49.1397486" lon="2.6815069">
<ele>101.61</ele>
<time>2018-12-30T11:41:55Z</time>
</trkpt>
<trkpt lat="49.1397985" lon="2.6815349">
<ele>101.61</ele>
<time>2018-12-30T11:41:57Z</time>
</trkpt>
<trkpt lat="49.1398580" lon="2.6815779">
<ele>100.91</ele>
<time>2018-12-30T11:41:59Z</time>
</trkpt>
<trkpt lat="49.1399190" lon="2.6816337">
<ele>100.64</ele>
<time>2018-12-30T11:42:01Z</time>
</trkpt>
<trkpt lat="49.1399731" lon="2.6816360">
<ele>99.91</ele>
<time>2018-12-30T11:42:03Z</time>
</trkpt>
<trkpt lat="49.1400350" lon="2.6816304">
<ele>99.64</ele>
<time>2018-12-30T11:42:05Z</time>
</trkpt>
<trkpt lat="49.1400992" lon="2.6815775">
<ele>99.61</ele>
<time>2018-12-30T11:42:07Z</time>
</trkpt>
<trkpt lat="49.1401555" lon="2.6814882">
<ele>100.52</ele>
<time>2018-12-30T11:42:09Z</time>
</trkpt>
<trkpt lat="49.1401998" lon="2.6814118">
<ele>101.51</ele>
<time>2018-12-30T11:42:11Z</time>
</trkpt>
<trkpt lat="49.1402137" lon="2.6813129">
<ele>101.60</ele>
<time>2018-12-30T11:42:13Z</time>
</trkpt>
<trkpt lat="49.1402486" lon="2.6812578">
<ele>101.61</ele>
<time>2018-12-30T11:42:14Z</time>
</trkpt>
<trkpt lat="49.1403094" lon="2.6811793">
<ele>102.52</ele>
<time>2018-12-30T11:42:16Z</time>
</trkpt>
<trkpt lat="49.1403749" lon="2.6811238">
<ele>102.60</ele>
<time>2018-12-30T11:42:18Z</time>
</trkpt>
<trkpt lat="49.1404388" lon="2.6810224">
<ele>102.61</ele>
<time>2018-12-30T11:42:20Z</time>
</trkpt>
<trkpt lat="49.1404693" lon="2.6809551">
<ele>103.31</ele>
<time>2018-12-30T11:42:21Z</time>
</trkpt>
<trkpt lat="49.1404841" lon="2.6808884">
<ele>104.22</ele>
<time>2018-12-30T11:42:22Z</time>
</trkpt>
<trkpt lat="49.1404979" lon="2.6808144">
<ele>104.49</ele>
<time>2018-12-30T11:42:23Z</time>
</trkpt>
<trkpt lat="49.1405096" lon="2.6807464">
<ele>105.28</ele>
<time>2018-12-30T11:42:24Z</time>
</trkpt>
<trkpt lat="49.1405385" lon="2.6806374">
<ele>104.67</ele>
<time>2018-12-30T11:42:26Z</time>
</trkpt>
<trkpt lat="49.1405440" lon="2.6805317">
<ele>103.71</ele>
<time>2018-12-30T11:42:28Z</time>
</trkpt>
<trkpt lat="49.1405342" lon="2.6804321">
<ele>103.62</ele>
<time>2018-12-30T11:42:30Z</time>
</trkpt>
<trkpt lat="49.1405234" lon="2.6803389">
<ele>103.61</ele>
<time>2018-12-30T11:42:32Z</time>
</trkpt>
<trkpt lat="49.1405341" lon="2.6802234">
<ele>103.61</ele>
<time>2018-12-30T11:42:34Z</time>
</trkpt>
<trkpt lat="49.1405400" lon="2.6801242">
<ele>103.61</ele>
<time>2018-12-30T11:42:35Z</time>
</trkpt>
<trkpt lat="49.1405621" lon="2.6800401">
<ele>103.61</ele>
<time>2018-12-30T11:42:36Z</time>
</trkpt>
<trkpt lat="49.1405768" lon="2.6799540">
<ele>103.61</ele>
<time>2018-12-30T11:42:37Z</time>
</trkpt>
<trkpt lat="49.1405877" lon="2.6798830">
<ele>102.91</ele>
<time>2018-12-30T11:42:38Z</time>
</trkpt>
<trkpt lat="49.1406120" lon="2.6798128">
<ele>102.70</ele>
<time>2018-12-30T11:42:39Z</time>
</trkpt>
<trkpt lat="49.1406435" lon="2.6797571">
<ele>102.64</ele>
<time>2018-12-30T11:42:40Z</time>
</trkpt>
<trkpt lat="49.1406583" lon="2.6796810">
<ele>103.32</ele>
<time>2018-12-30T11:42:41Z</time>
</trkpt>
<trkpt lat="49.1406616" lon="2.6796101">
<ele>103.52</ele>
<time>2018-12-30T11:42:42Z</time>
</trkpt>
<trkpt lat="49.1406551" lon="2.6795400">
<ele>103.58</ele>
<time>2018-12-30T11:42:43Z</time>
</trkpt>
<trkpt lat="49.1406521" lon="2.6794706">
<ele>103.60</ele>
<time>2018-12-30T11:42:44Z</time>
</trkpt>
<trkpt lat="49.1406613" lon="2.6794004">
<ele>103.61</ele>
<time>2018-12-30T11:42:45Z</time>
</trkpt>
<trkpt lat="49.1406480" lon="2.6792702">
<ele>103.61</ele>
<time>2018-12-30T11:42:47Z</time>
</trkpt>
<trkpt lat="49.1406101" lon="2.6791827">
<ele>104.52</ele>
<time>2018-12-30T11:42:49Z</time>
</trkpt>
<trkpt lat="49.1405756" lon="2.6790956">
<ele>104.60</ele>
<time>2018-12-30T11:42:51Z</time>
</trkpt>
<trkpt lat="49.1405559" lon="2.6789992">
<ele>104.61</ele>
<time>2018-12-30T11:42:53Z</time>
</trkpt>
<trkpt lat="49.1405360" lon="2.6788989">
<ele>104.61</ele>
<time>2018-12-30T11:42:55Z</time>
</trkpt>
<trkpt lat="49.1404979" lon="2.6788214">
<ele>104.61</ele>
<time>2018-12-30T11:42:57Z</time>
</trkpt>
<trkpt lat="49.1404494" lon="2.6787619">
<ele>104.40</ele>
<time>2018-12-30T11:42:59Z</time>
</trkpt>
<trkpt lat="49.1404274" lon="2.6786726">
<ele>104.59</ele>
<time>2018-12-30T11:43:01Z</time>
</trkpt>
<trkpt lat="49.1404257" lon="2.6785826">
<ele>104.61</ele>
<time>2018-12-30T11:43:03Z</time>
</trkpt>
<trkpt lat="49.1404108" lon="2.6784952">
<ele>104.61</ele>
<time>2018-12-30T11:43:05Z</time>
</trkpt>
<trkpt lat="49.1404156" lon="2.6784042">
<ele>105.52</ele>
<time>2018-12-30T11:43:07Z</time>
</trkpt>
<trkpt lat="49.1404121" lon="2.6783086">
<ele>105.60</ele>
<time>2018-12-30T11:43:09Z</time>
</trkpt>
<trkpt lat="49.1404052" lon="2.6781928">
<ele>105.61</ele>
<time>2018-12-30T11:43:11Z</time>
</trkpt>
<trkpt lat="49.1403933" lon="2.6780741">
<ele>105.61</ele>
<time>2018-12-30T11:43:13Z</time>
</trkpt>
<trkpt lat="49.1403935" lon="2.6779996">
<ele>104.91</ele>
<time>2018-12-30T11:43:14Z</time>
</trkpt>
<trkpt lat="49.1404072" lon="2.6779002">
<ele>104.70</ele>
<time>2018-12-30T11:43:15Z</time>
</trkpt>
<trkpt lat="49.1404304" lon="2.6778280">
<ele>104.64</ele>
<time>2018-12-30T11:43:16Z</time>
</trkpt>
<trkpt lat="49.1404699" lon="2.6777374">
<ele>104.61</ele>
<time>2018-12-30T11:43:18Z</time>
</trkpt>
<trkpt lat="49.1405043" lon="2.6776882">
<ele>105.58</ele>
<time>2018-12-30T11:43:21Z</time>
</trkpt>
<trkpt lat="49.1405319" lon="2.6776291">
<ele>104.70</ele>
<time>2018-12-30T11:43:39Z</time>
</trkpt>
<trkpt lat="49.1405689" lon="2.6775839">
<ele>105.31</ele>
<time>2018-12-30T11:43:45Z</time>
</trkpt>
<trkpt lat="49.1405804" lon="2.6774914">
<ele>105.59</ele>
<time>2018-12-30T11:43:58Z</time>
</trkpt>
<trkpt lat="49.1406058" lon="2.6774106">
<ele>105.61</ele>
<time>2018-12-30T11:44:01Z</time>
</trkpt>
<trkpt lat="49.1406505" lon="2.6773400">
<ele>105.61</ele>
<time>2018-12-30T11:44:04Z</time>
</trkpt>
<trkpt lat="49.1407167" lon="2.6773976">
<ele>105.61</ele>
<time>2018-12-30T11:44:07Z</time>
</trkpt>
<trkpt lat="49.1407431" lon="2.6774929">
<ele>105.61</ele>
<time>2018-12-30T11:44:09Z</time>
</trkpt>
<trkpt lat="49.1407635" lon="2.6775815">
<ele>105.61</ele>
<time>2018-12-30T11:44:11Z</time>
</trkpt>
<trkpt lat="49.1407925" lon="2.6776534">
<ele>105.61</ele>
<time>2018-12-30T11:44:13Z</time>
</trkpt>
<trkpt lat="49.1407967" lon="2.6777441">
<ele>104.70</ele>
<time>2018-12-30T11:44:15Z</time>
</trkpt>
<trkpt lat="49.1407721" lon="2.6778659">
<ele>104.62</ele>
<time>2018-12-30T11:44:17Z</time>
</trkpt>
<trkpt lat="49.1407508" lon="2.6779279">
<ele>103.91</ele>
<time>2018-12-30T11:44:18Z</time>
</trkpt>
<trkpt lat="49.1407336" lon="2.6779962">
<ele>103.00</ele>
<time>2018-12-30T11:44:19Z</time>
</trkpt>
<trkpt lat="49.1407285" lon="2.6780824">
<ele>102.73</ele>
<time>2018-12-30T11:44:20Z</time>
</trkpt>
<trkpt lat="49.1407276" lon="2.6781838">
<ele>101.95</ele>
<time>2018-12-30T11:44:21Z</time>
</trkpt>
<trkpt lat="49.1407448" lon="2.6782875">
<ele>101.71</ele>
<time>2018-12-30T11:44:22Z</time>
</trkpt>
<trkpt lat="49.1407674" lon="2.6783715">
<ele>101.64</ele>
<time>2018-12-30T11:44:23Z</time>
</trkpt>
<trkpt lat="49.1407846" lon="2.6784460">
<ele>101.61</ele>
<time>2018-12-30T11:44:25Z</time>
</trkpt>
<trkpt lat="49.1408058" lon="2.6785444">
<ele>103.28</ele>
<time>2018-12-30T11:44:28Z</time>
</trkpt>
<trkpt lat="49.1408176" lon="2.6786344">
<ele>103.60</ele>
<time>2018-12-30T11:44:31Z</time>
</trkpt>
<trkpt lat="49.1408336" lon="2.6787089">
<ele>103.61</ele>
<time>2018-12-30T11:44:34Z</time>
</trkpt>
<trkpt lat="49.1408394" lon="2.6787781">
<ele>102.31</ele>
<time>2018-12-30T11:46:23Z</time>
</trkpt>
<trkpt lat="49.1408288" lon="2.6788599">
<ele>102.60</ele>
<time>2018-12-30T11:46:26Z</time>
</trkpt>
<trkpt lat="49.1408145" lon="2.6789560">
<ele>103.52</ele>
<time>2018-12-30T11:46:29Z</time>
</trkpt>
<trkpt lat="49.1408151" lon="2.6790445">
<ele>103.60</ele>
<time>2018-12-30T11:46:31Z</time>
</trkpt>
<trkpt lat="49.1407992" lon="2.6791220">
<ele>103.61</ele>
<time>2018-12-30T11:46:33Z</time>
</trkpt>
<trkpt lat="49.1407866" lon="2.6791953">
<ele>103.61</ele>
<time>2018-12-30T11:46:35Z</time>
</trkpt>
<trkpt lat="49.1407818" lon="2.6792682">
<ele>104.31</ele>
<time>2018-12-30T11:46:37Z</time>
</trkpt>
<trkpt lat="49.1407829" lon="2.6793722">
<ele>104.58</ele>
<time>2018-12-30T11:46:39Z</time>
</trkpt>
<trkpt lat="49.1407795" lon="2.6794422">
<ele>104.60</ele>
<time>2018-12-30T11:46:40Z</time>
</trkpt>
<trkpt lat="49.1407841" lon="2.6795784">
<ele>103.91</ele>
<time>2018-12-30T11:46:42Z</time>
</trkpt>
<trkpt lat="49.1407920" lon="2.6796717">
<ele>104.55</ele>
<time>2018-12-30T11:46:44Z</time>
</trkpt>
<trkpt lat="49.1407955" lon="2.6797529">
<ele>104.61</ele>
<time>2018-12-30T11:46:46Z</time>
</trkpt>
<trkpt lat="49.1407904" lon="2.6798213">
<ele>104.40</ele>
<time>2018-12-30T11:46:48Z</time>
</trkpt>
<trkpt lat="49.1407971" lon="2.6798909">
<ele>104.59</ele>
<time>2018-12-30T11:46:50Z</time>
</trkpt>
<trkpt lat="49.1408008" lon="2.6799791">
<ele>103.70</ele>
<time>2018-12-30T11:46:52Z</time>
</trkpt>
<trkpt lat="49.1408074" lon="2.6800695">
<ele>103.62</ele>
<time>2018-12-30T11:46:54Z</time>
</trkpt>
<trkpt lat="49.1408239" lon="2.6801596">
<ele>104.52</ele>
<time>2018-12-30T11:46:56Z</time>
</trkpt>
<trkpt lat="49.1408470" lon="2.6802452">
<ele>104.60</ele>
<time>2018-12-30T11:46:58Z</time>
</trkpt>
<trkpt lat="49.1408611" lon="2.6803379">
<ele>103.70</ele>
<time>2018-12-30T11:47:00Z</time>
</trkpt>
<trkpt lat="49.1408705" lon="2.6804145">
<ele>103.64</ele>
<time>2018-12-30T11:47:01Z</time>
</trkpt>
<trkpt lat="49.1408944" lon="2.6805117">
<ele>102.92</ele>
<time>2018-12-30T11:47:02Z</time>
</trkpt>
<trkpt lat="49.1409226" lon="2.6805827">
<ele>102.70</ele>
<time>2018-12-30T11:47:03Z</time>
</trkpt>
<trkpt lat="49.1409879" lon="2.6806738">
<ele>102.62</ele>
<time>2018-12-30T11:47:05Z</time>
</trkpt>
<trkpt lat="49.1410210" lon="2.6807208">
<ele>102.61</ele>
<time>2018-12-30T11:47:07Z</time>
</trkpt>
<trkpt lat="49.1410360" lon="2.6808152">
<ele>102.61</ele>
<time>2018-12-30T11:47:10Z</time>
</trkpt>
<trkpt lat="49.1410270" lon="2.6809155">
<ele>102.61</ele>
<time>2018-12-30T11:47:12Z</time>
</trkpt>
<trkpt lat="49.1410006" lon="2.6810083">
<ele>102.61</ele>
<time>2018-12-30T11:47:14Z</time>
</trkpt>
<trkpt lat="49.1409957" lon="2.6811012">
<ele>102.61</ele>
<time>2018-12-30T11:47:16Z</time>
</trkpt>
<trkpt lat="49.1410261" lon="2.6811645">
<ele>102.61</ele>
<time>2018-12-30T11:47:18Z</time>
</trkpt>
<trkpt lat="49.1410580" lon="2.6812314">
<ele>102.61</ele>
<time>2018-12-30T11:47:20Z</time>
</trkpt>
<trkpt lat="49.1410892" lon="2.6813251">
<ele>101.70</ele>
<time>2018-12-30T11:47:22Z</time>
</trkpt>
<trkpt lat="49.1410974" lon="2.6813979">
<ele>101.64</ele>
<time>2018-12-30T11:47:23Z</time>
</trkpt>
<trkpt lat="49.1410990" lon="2.6814852">
<ele>100.92</ele>
<time>2018-12-30T11:47:24Z</time>
</trkpt>
<trkpt lat="49.1410699" lon="2.6815713">
<ele>100.00</ele>
<time>2018-12-30T11:47:25Z</time>
</trkpt>
<trkpt lat="49.1410187" lon="2.6816447">
<ele>99.73</ele>
<time>2018-12-30T11:47:26Z</time>
</trkpt>
<trkpt lat="49.1409851" lon="2.6817026">
<ele>98.95</ele>
<time>2018-12-30T11:47:27Z</time>
</trkpt>
<trkpt lat="49.1409431" lon="2.6817727">
<ele>98.64</ele>
<time>2018-12-30T11:47:29Z</time>
</trkpt>
<trkpt lat="49.1408948" lon="2.6818059">
<ele>99.58</ele>
<time>2018-12-30T11:47:32Z</time>
</trkpt>
<trkpt lat="49.1408463" lon="2.6817963">
<ele>99.61</ele>
<time>2018-12-30T11:47:35Z</time>
</trkpt>
<trkpt lat="49.1407845" lon="2.6818342">
<ele>99.61</ele>
<time>2018-12-30T11:47:38Z</time>
</trkpt>
<trkpt lat="49.1407366" lon="2.6818359">
<ele>99.61</ele>
<time>2018-12-30T11:47:40Z</time>
</trkpt>
<trkpt lat="49.1406885" lon="2.6818343">
<ele>100.52</ele>
<time>2018-12-30T11:47:42Z</time>
</trkpt>
<trkpt lat="49.1406302" lon="2.6818286">
<ele>101.58</ele>
<time>2018-12-30T11:47:45Z</time>
</trkpt>
<trkpt lat="49.1405846" lon="2.6818193">
<ele>102.31</ele>
<time>2018-12-30T11:47:48Z</time>
</trkpt>
<trkpt lat="49.1406324" lon="2.6818025">
<ele>100.91</ele>
<time>2018-12-30T11:48:08Z</time>
</trkpt>
<trkpt lat="49.1406937" lon="2.6818159">
<ele>100.62</ele>
<time>2018-12-30T11:48:11Z</time>
</trkpt>
<trkpt lat="49.1407457" lon="2.6818503">
<ele>100.61</ele>
<time>2018-12-30T11:48:13Z</time>
</trkpt>
<trkpt lat="49.1407953" lon="2.6819087">
<ele>100.61</ele>
<time>2018-12-30T11:48:15Z</time>
</trkpt>
<trkpt lat="49.1408276" lon="2.6819786">
<ele>100.61</ele>
<time>2018-12-30T11:48:17Z</time>
</trkpt>
<trkpt lat="49.1408498" lon="2.6820588">
<ele>99.70</ele>
<time>2018-12-30T11:48:19Z</time>
</trkpt>
<trkpt lat="49.1408706" lon="2.6821345">
<ele>98.71</ele>
<time>2018-12-30T11:48:21Z</time>
</trkpt>
<trkpt lat="49.1409306" lon="2.6821426">
<ele>98.40</ele>
<time>2018-12-30T11:48:24Z</time>
</trkpt>
<trkpt lat="49.1409665" lon="2.6820918">
<ele>97.68</ele>
<time>2018-12-30T11:48:26Z</time>
</trkpt>
<trkpt lat="49.1410176" lon="2.6820333">
<ele>97.62</ele>
<time>2018-12-30T11:48:28Z</time>
</trkpt>
<trkpt lat="49.1410625" lon="2.6819499">
<ele>96.91</ele>
<time>2018-12-30T11:48:30Z</time>
</trkpt>
<trkpt lat="49.1410977" lon="2.6818279">
<ele>96.64</ele>
<time>2018-12-30T11:48:32Z</time>
</trkpt>
<trkpt lat="49.1411492" lon="2.6818895">
<ele>96.61</ele>
<time>2018-12-30T11:48:41Z</time>
</trkpt>
<trkpt lat="49.1411854" lon="2.6819436">
<ele>95.70</ele>
<time>2018-12-30T11:48:43Z</time>
</trkpt>
<trkpt lat="49.1412285" lon="2.6819844">
<ele>94.71</ele>
<time>2018-12-30T11:48:45Z</time>
</trkpt>
<trkpt lat="49.1412761" lon="2.6820316">
<ele>93.71</ele>
<time>2018-12-30T11:48:47Z</time>
</trkpt>
<trkpt lat="49.1413412" lon="2.6820901">
<ele>92.71</ele>
<time>2018-12-30T11:48:49Z</time>
</trkpt>
<trkpt lat="49.1414124" lon="2.6821838">
<ele>91.71</ele>
<time>2018-12-30T11:48:51Z</time>
</trkpt>
<trkpt lat="49.1414665" lon="2.6823198">
<ele>90.92</ele>
<time>2018-12-30T11:48:53Z</time>
</trkpt>
<trkpt lat="49.1414965" lon="2.6824016">
<ele>90.00</ele>
<time>2018-12-30T11:48:54Z</time>
</trkpt>
<trkpt lat="49.1415342" lon="2.6824772">
<ele>89.03</ele>
<time>2018-12-30T11:48:55Z</time>
</trkpt>
<trkpt lat="49.1415635" lon="2.6825430">
<ele>88.74</ele>
<time>2018-12-30T11:48:56Z</time>
</trkpt>
<trkpt lat="49.1415907" lon="2.6826106">
<ele>89.35</ele>
<time>2018-12-30T11:48:57Z</time>
</trkpt>
<trkpt lat="49.1416319" lon="2.6827189">
<ele>88.68</ele>
<time>2018-12-30T11:48:59Z</time>
</trkpt>
<trkpt lat="49.1416750" lon="2.6828142">
<ele>87.92</ele>
<time>2018-12-30T11:49:01Z</time>
</trkpt>
<trkpt lat="49.1417138" lon="2.6829054">
<ele>86.94</ele>
<time>2018-12-30T11:49:03Z</time>
</trkpt>
<trkpt lat="49.1417081" lon="2.6829823">
<ele>86.64</ele>
<time>2018-12-30T11:49:05Z</time>
</trkpt>
<trkpt lat="49.1416831" lon="2.6830609">
<ele>86.61</ele>
<time>2018-12-30T11:49:07Z</time>
</trkpt>
<trkpt lat="49.1416396" lon="2.6831266">
<ele>86.61</ele>
<time>2018-12-30T11:49:09Z</time>
</trkpt>
<trkpt lat="49.1415872" lon="2.6831729">
<ele>85.70</ele>
<time>2018-12-30T11:49:11Z</time>
</trkpt>
<trkpt lat="49.1415394" lon="2.6832101">
<ele>85.62</ele>
<time>2018-12-30T11:49:13Z</time>
</trkpt>
<trkpt lat="49.1414845" lon="2.6832232">
<ele>85.61</ele>
<time>2018-12-30T11:49:15Z</time>
</trkpt>
<trkpt lat="49.1414588" lon="2.6832950">
<ele>85.61</ele>
<time>2018-12-30T11:49:17Z</time>
</trkpt>
<trkpt lat="49.1414344" lon="2.6833733">
<ele>84.91</ele>
<time>2018-12-30T11:49:19Z</time>
</trkpt>
<trkpt lat="49.1414170" lon="2.6834500">
<ele>84.64</ele>
<time>2018-12-30T11:49:21Z</time>
</trkpt>
<trkpt lat="49.1413956" lon="2.6835386">
<ele>84.61</ele>
<time>2018-12-30T11:49:23Z</time>
</trkpt>
<trkpt lat="49.1413656" lon="2.6836176">
<ele>84.61</ele>
<time>2018-12-30T11:49:25Z</time>
</trkpt>
<trkpt lat="49.1413259" lon="2.6836918">
<ele>84.61</ele>
<time>2018-12-30T11:49:27Z</time>
</trkpt>
<trkpt lat="49.1412878" lon="2.6837515">
<ele>84.61</ele>
<time>2018-12-30T11:49:29Z</time>
</trkpt>
<trkpt lat="49.1412513" lon="2.6837999">
<ele>84.61</ele>
<time>2018-12-30T11:49:31Z</time>
</trkpt>
<trkpt lat="49.1412013" lon="2.6838577">
<ele>84.61</ele>
<time>2018-12-30T11:49:33Z</time>
</trkpt>
<trkpt lat="49.1411533" lon="2.6838959">
<ele>83.91</ele>
<time>2018-12-30T11:49:35Z</time>
</trkpt>
<trkpt lat="49.1411117" lon="2.6839517">
<ele>83.64</ele>
<time>2018-12-30T11:49:37Z</time>
</trkpt>
<trkpt lat="49.1410499" lon="2.6840122">
<ele>83.61</ele>
<time>2018-12-30T11:49:39Z</time>
</trkpt>
<trkpt lat="49.1410013" lon="2.6840711">
<ele>83.61</ele>
<time>2018-12-30T11:49:41Z</time>
</trkpt>
<trkpt lat="49.1409702" lon="2.6841637">
<ele>82.70</ele>
<time>2018-12-30T11:49:43Z</time>
</trkpt>
<trkpt lat="49.1409167" lon="2.6842156">
<ele>82.62</ele>
<time>2018-12-30T11:49:45Z</time>
</trkpt>
<trkpt lat="49.1408746" lon="2.6842659">
<ele>82.61</ele>
<time>2018-12-30T11:49:47Z</time>
</trkpt>
<trkpt lat="49.1408391" lon="2.6843316">
<ele>81.91</ele>
<time>2018-12-30T11:49:49Z</time>
</trkpt>
<trkpt lat="49.1408023" lon="2.6843867">
<ele>81.64</ele>
<time>2018-12-30T11:49:51Z</time>
</trkpt>
<trkpt lat="49.1407411" lon="2.6844499">
<ele>81.61</ele>
<time>2018-12-30T11:49:54Z</time>
</trkpt>
<trkpt lat="49.1406940" lon="2.6844916">
<ele>82.52</ele>
<time>2018-12-30T11:49:56Z</time>
</trkpt>
<trkpt lat="49.1406436" lon="2.6845285">
<ele>81.69</ele>
<time>2018-12-30T11:49:58Z</time>
</trkpt>
<trkpt lat="49.1406015" lon="2.6845751">
<ele>81.62</ele>
<time>2018-12-30T11:50:00Z</time>
</trkpt>
<trkpt lat="49.1405713" lon="2.6846403">
<ele>81.61</ele>
<time>2018-12-30T11:50:02Z</time>
</trkpt>
<trkpt lat="49.1405481" lon="2.6847064">
<ele>81.61</ele>
<time>2018-12-30T11:50:04Z</time>
</trkpt>
<trkpt lat="49.1405210" lon="2.6847863">
<ele>81.61</ele>
<time>2018-12-30T11:50:07Z</time>
</trkpt>
<trkpt lat="49.1404596" lon="2.6848372">
<ele>81.61</ele>
<time>2018-12-30T11:50:10Z</time>
</trkpt>
<trkpt lat="49.1404096" lon="2.6848711">
<ele>81.61</ele>
<time>2018-12-30T11:50:12Z</time>
</trkpt>
<trkpt lat="49.1403498" lon="2.6849105">
<ele>81.61</ele>
<time>2018-12-30T11:50:15Z</time>
</trkpt>
<trkpt lat="49.1403167" lon="2.6849600">
<ele>82.52</ele>
<time>2018-12-30T11:50:17Z</time>
</trkpt>
<trkpt lat="49.1402940" lon="2.6850216">
<ele>82.61</ele>
<time>2018-12-30T11:50:20Z</time>
</trkpt>
<trkpt lat="49.1403471" lon="2.6849568">
<ele>81.61</ele>
<time>2018-12-30T11:50:32Z</time>
</trkpt>
<trkpt lat="49.1403512" lon="2.6848794">
<ele>81.61</ele>
<time>2018-12-30T11:50:34Z</time>
</trkpt>
<trkpt lat="49.1403351" lon="2.6847998">
<ele>80.91</ele>
<time>2018-12-30T11:50:37Z</time>
</trkpt>
<trkpt lat="49.1403507" lon="2.6848714">
<ele>83.58</ele>
<time>2018-12-30T11:51:03Z</time>
</trkpt>
<trkpt lat="49.1403469" lon="2.6849442">
<ele>83.61</ele>
<time>2018-12-30T11:51:05Z</time>
</trkpt>
<trkpt lat="49.1403241" lon="2.6850377">
<ele>83.55</ele>
<time>2018-12-30T11:51:08Z</time>
</trkpt>
<trkpt lat="49.1402798" lon="2.6850988">
<ele>82.91</ele>
<time>2018-12-30T11:51:11Z</time>
</trkpt>
<trkpt lat="49.1402378" lon="2.6851533">
<ele>82.85</ele>
<time>2018-12-30T11:51:13Z</time>
</trkpt>
<trkpt lat="49.1401905" lon="2.6852137">
<ele>82.63</ele>
<time>2018-12-30T11:51:15Z</time>
</trkpt>
<trkpt lat="49.1401293" lon="2.6852770">
<ele>82.61</ele>
<time>2018-12-30T11:51:17Z</time>
</trkpt>
<trkpt lat="49.1400713" lon="2.6853250">
<ele>81.70</ele>
<time>2018-12-30T11:51:19Z</time>
</trkpt>
<trkpt lat="49.1400235" lon="2.6853816">
<ele>81.62</ele>
<time>2018-12-30T11:51:21Z</time>
</trkpt>
<trkpt lat="49.1399703" lon="2.6854464">
<ele>81.61</ele>
<time>2018-12-30T11:51:23Z</time>
</trkpt>
<trkpt lat="49.1399170" lon="2.6854880">
<ele>81.61</ele>
<time>2018-12-30T11:51:25Z</time>
</trkpt>
<trkpt lat="49.1398783" lon="2.6855253">
<ele>81.61</ele>
<time>2018-12-30T11:51:27Z</time>
</trkpt>
<trkpt lat="49.1398255" lon="2.6855517">
<ele>80.64</ele>
<time>2018-12-30T11:51:30Z</time>
</trkpt>
<trkpt lat="49.1397790" lon="2.6855748">
<ele>79.70</ele>
<time>2018-12-30T11:51:32Z</time>
</trkpt>
<trkpt lat="49.1397302" lon="2.6856287">
<ele>79.61</ele>
<time>2018-12-30T11:51:35Z</time>
</trkpt>
<trkpt lat="49.1396977" lon="2.6857051">
<ele>80.31</ele>
<time>2018-12-30T11:51:38Z</time>
</trkpt>
<trkpt lat="49.1396711" lon="2.6857758">
<ele>79.69</ele>
<time>2018-12-30T11:51:41Z</time>
</trkpt>
<trkpt lat="49.1396274" lon="2.6858489">
<ele>81.50</ele>
<time>2018-12-30T11:51:44Z</time>
</trkpt>
<trkpt lat="49.1395833" lon="2.6859173">
<ele>80.70</ele>
<time>2018-12-30T11:51:47Z</time>
</trkpt>
<trkpt lat="49.1395402" lon="2.6859520">
<ele>80.62</ele>
<time>2018-12-30T11:51:49Z</time>
</trkpt>
<trkpt lat="49.1394857" lon="2.6859542">
<ele>80.61</ele>
<time>2018-12-30T11:51:51Z</time>
</trkpt>
<trkpt lat="49.1394278" lon="2.6859489">
<ele>79.91</ele>
<time>2018-12-30T11:51:53Z</time>
</trkpt>
<trkpt lat="49.1393803" lon="2.6859587">
<ele>79.64</ele>
<time>2018-12-30T11:51:55Z</time>
</trkpt>
<trkpt lat="49.1393256" lon="2.6859979">
<ele>78.70</ele>
<time>2018-12-30T11:51:58Z</time>
</trkpt>
<trkpt lat="49.1392639" lon="2.6860167">
<ele>79.59</ele>
<time>2018-12-30T11:52:01Z</time>
</trkpt>
<trkpt lat="49.1392969" lon="2.6859307">
<ele>79.58</ele>
<time>2018-12-30T11:52:40Z</time>
</trkpt>
<trkpt lat="49.1392989" lon="2.6858514">
<ele>78.70</ele>
<time>2018-12-30T11:52:42Z</time>
</trkpt>
<trkpt lat="49.1392938" lon="2.6857755">
<ele>78.62</ele>
<time>2018-12-30T11:52:44Z</time>
</trkpt>
<trkpt lat="49.1392890" lon="2.6857008">
<ele>78.61</ele>
<time>2018-12-30T11:52:46Z</time>
</trkpt>
<trkpt lat="49.1392816" lon="2.6856315">
<ele>78.61</ele>
<time>2018-12-30T11:52:48Z</time>
</trkpt>
<trkpt lat="49.1392754" lon="2.6855618">
<ele>79.31</ele>
<time>2018-12-30T11:52:50Z</time>
</trkpt>
<trkpt lat="49.1392642" lon="2.6854788">
<ele>78.67</ele>
<time>2018-12-30T11:52:52Z</time>
</trkpt>
<trkpt lat="49.1392554" lon="2.6853997">
<ele>78.62</ele>
<time>2018-12-30T11:52:54Z</time>
</trkpt>
<trkpt lat="49.1392421" lon="2.6853093">
<ele>78.61</ele>
<time>2018-12-30T11:52:56Z</time>
</trkpt>
<trkpt lat="49.1392242" lon="2.6852009">
<ele>78.61</ele>
<time>2018-12-30T11:52:58Z</time>
</trkpt>
<trkpt lat="49.1392033" lon="2.6851340">
<ele>77.91</ele>
<time>2018-12-30T11:52:59Z</time>
</trkpt>
<trkpt lat="49.1391891" lon="2.6850658">
<ele>77.70</ele>
<time>2018-12-30T11:53:00Z</time>
</trkpt>
<trkpt lat="49.1391749" lon="2.6849961">
<ele>77.64</ele>
<time>2018-12-30T11:53:01Z</time>
</trkpt>
<trkpt lat="49.1391598" lon="2.6849253">
<ele>77.62</ele>
<time>2018-12-30T11:53:02Z</time>
</trkpt>
<trkpt lat="49.1391487" lon="2.6848501">
<ele>77.61</ele>
<time>2018-12-30T11:53:03Z</time>
</trkpt>
<trkpt lat="49.1391416" lon="2.6847761">
<ele>77.61</ele>
<time>2018-12-30T11:53:04Z</time>
</trkpt>
<trkpt lat="49.1391344" lon="2.6846521">
<ele>76.91</ele>
<time>2018-12-30T11:53:06Z</time>
</trkpt>
<trkpt lat="49.1391192" lon="2.6845355">
<ele>76.64</ele>
<time>2018-12-30T11:53:08Z</time>
</trkpt>
<trkpt lat="49.1391045" lon="2.6844275">
<ele>76.61</ele>
<time>2018-12-30T11:53:10Z</time>
</trkpt>
<trkpt lat="49.1391001" lon="2.6843462">
<ele>76.61</ele>
<time>2018-12-30T11:53:12Z</time>
</trkpt>
<trkpt lat="49.1391063" lon="2.6842742">
<ele>76.61</ele>
<time>2018-12-30T11:53:15Z</time>
</trkpt>
<trkpt lat="49.1390908" lon="2.6842026">
<ele>78.60</ele>
<time>2018-12-30T11:54:21Z</time>
</trkpt>
<trkpt lat="49.1390836" lon="2.6841278">
<ele>78.61</ele>
<time>2018-12-30T11:54:25Z</time>
</trkpt>
<trkpt lat="49.1390749" lon="2.6840239">
<ele>77.91</ele>
<time>2018-12-30T11:54:28Z</time>
</trkpt>
<trkpt lat="49.1390643" lon="2.6839438">
<ele>76.73</ele>
<time>2018-12-30T11:54:30Z</time>
</trkpt>
<trkpt lat="49.1390605" lon="2.6838480">
<ele>75.92</ele>
<time>2018-12-30T11:54:32Z</time>
</trkpt>
<trkpt lat="49.1390501" lon="2.6837502">
<ele>75.64</ele>
<time>2018-12-30T11:54:34Z</time>
</trkpt>
<trkpt lat="49.1390397" lon="2.6836465">
<ele>74.91</ele>
<time>2018-12-30T11:54:36Z</time>
</trkpt>
<trkpt lat="49.1390251" lon="2.6835251">
<ele>74.64</ele>
<time>2018-12-30T11:54:38Z</time>
</trkpt>
<trkpt lat="49.1390057" lon="2.6834076">
<ele>73.70</ele>
<time>2018-12-30T11:54:40Z</time>
</trkpt>
<trkpt lat="49.1389951" lon="2.6832903">
<ele>74.32</ele>
<time>2018-12-30T11:54:42Z</time>
</trkpt>
<trkpt lat="49.1389851" lon="2.6831834">
<ele>74.58</ele>
<time>2018-12-30T11:54:44Z</time>
</trkpt>
<trkpt lat="49.1389748" lon="2.6830685">
<ele>74.61</ele>
<time>2018-12-30T11:54:46Z</time>
</trkpt>
<trkpt lat="49.1389610" lon="2.6829579">
<ele>74.61</ele>
<time>2018-12-30T11:54:48Z</time>
</trkpt>
<trkpt lat="49.1389511" lon="2.6828537">
<ele>74.61</ele>
<time>2018-12-30T11:54:50Z</time>
</trkpt>
<trkpt lat="49.1389354" lon="2.6827533">
<ele>75.52</ele>
<time>2018-12-30T11:54:52Z</time>
</trkpt>
<trkpt lat="49.1389102" lon="2.6826502">
<ele>75.60</ele>
<time>2018-12-30T11:54:54Z</time>
</trkpt>
<trkpt lat="49.1388881" lon="2.6825533">
<ele>75.61</ele>
<time>2018-12-30T11:54:56Z</time>
</trkpt>
<trkpt lat="49.1388674" lon="2.6824504">
<ele>75.61</ele>
<time>2018-12-30T11:54:58Z</time>
</trkpt>
<trkpt lat="49.1388498" lon="2.6823470">
<ele>75.61</ele>
<time>2018-12-30T11:55:00Z</time>
</trkpt>
<trkpt lat="49.1388340" lon="2.6822477">
<ele>77.22</ele>
<time>2018-12-30T11:55:02Z</time>
</trkpt>
<trkpt lat="49.1388104" lon="2.6821488">
<ele>77.58</ele>
<time>2018-12-30T11:55:04Z</time>
</trkpt>
<trkpt lat="49.1387854" lon="2.6820594">
<ele>77.61</ele>
<time>2018-12-30T11:55:06Z</time>
</trkpt>
<trkpt lat="49.1387620" lon="2.6819764">
<ele>78.52</ele>
<time>2018-12-30T11:55:08Z</time>
</trkpt>
<trkpt lat="49.1387387" lon="2.6818902">
<ele>80.22</ele>
<time>2018-12-30T11:55:11Z</time>
</trkpt>
<trkpt lat="49.1386945" lon="2.6818398">
<ele>80.58</ele>
<time>2018-12-30T11:55:13Z</time>
</trkpt>
<trkpt lat="49.1386598" lon="2.6817509">
<ele>81.52</ele>
<time>2018-12-30T11:55:15Z</time>
</trkpt>
<trkpt lat="49.1386425" lon="2.6816722">
<ele>81.60</ele>
<time>2018-12-30T11:55:17Z</time>
</trkpt>
<trkpt lat="49.1386387" lon="2.6815965">
<ele>82.31</ele>
<time>2018-12-30T11:55:19Z</time>
</trkpt>
<trkpt lat="49.1386360" lon="2.6815026">
<ele>82.58</ele>
<time>2018-12-30T11:55:21Z</time>
</trkpt>
<trkpt lat="49.1386280" lon="2.6813930">
<ele>83.31</ele>
<time>2018-12-30T11:55:23Z</time>
</trkpt>
<trkpt lat="49.1386131" lon="2.6813027">
<ele>84.49</ele>
<time>2018-12-30T11:55:25Z</time>
</trkpt>
<trkpt lat="49.1385991" lon="2.6812346">
<ele>85.30</ele>
<time>2018-12-30T11:55:27Z</time>
</trkpt>
<trkpt lat="49.1385711" lon="2.6811791">
<ele>86.49</ele>
<time>2018-12-30T11:55:29Z</time>
</trkpt>
<trkpt lat="49.1385304" lon="2.6811428">
<ele>87.51</ele>
<time>2018-12-30T11:55:31Z</time>
</trkpt>
<trkpt lat="49.1384877" lon="2.6810970">
<ele>87.60</ele>
<time>2018-12-30T11:55:33Z</time>
</trkpt>
<trkpt lat="49.1384508" lon="2.6810560">
<ele>88.52</ele>
<time>2018-12-30T11:55:35Z</time>
</trkpt>
<trkpt lat="49.1383955" lon="2.6810247">
<ele>89.52</ele>
<time>2018-12-30T11:55:38Z</time>
</trkpt>
<trkpt lat="49.1383506" lon="2.6810288">
<ele>90.30</ele>
<time>2018-12-30T11:55:40Z</time>
</trkpt>
<trkpt lat="49.1383025" lon="2.6810435">
<ele>91.28</ele>
<time>2018-12-30T11:55:42Z</time>
</trkpt>
<trkpt lat="49.1382458" lon="2.6810688">
<ele>91.61</ele>
<time>2018-12-30T11:55:46Z</time>
</trkpt>
<trkpt lat="49.1382105" lon="2.6811183">
<ele>91.82</ele>
<time>2018-12-30T11:55:49Z</time>
</trkpt>
<trkpt lat="49.1381683" lon="2.6811779">
<ele>92.32</ele>
<time>2018-12-30T11:55:52Z</time>
</trkpt>
<trkpt lat="49.1381287" lon="2.6812109">
<ele>93.28</ele>
<time>2018-12-30T11:55:54Z</time>
</trkpt>
<trkpt lat="49.1380710" lon="2.6812439">
<ele>94.51</ele>
<time>2018-12-30T11:55:57Z</time>
</trkpt>
<trkpt lat="49.1380096" lon="2.6812593">
<ele>94.61</ele>
<time>2018-12-30T11:56:00Z</time>
</trkpt>
<trkpt lat="49.1379459" lon="2.6812704">
<ele>96.28</ele>
<time>2018-12-30T11:56:03Z</time>
</trkpt>
<trkpt lat="49.1378881" lon="2.6812678">
<ele>97.51</ele>
<time>2018-12-30T11:56:06Z</time>
</trkpt>
<trkpt lat="49.1378387" lon="2.6812688">
<ele>97.61</ele>
<time>2018-12-30T11:56:09Z</time>
</trkpt>
<trkpt lat="49.1377904" lon="2.6812530">
<ele>98.58</ele>
<time>2018-12-30T11:56:12Z</time>
</trkpt>
<trkpt lat="49.1377429" lon="2.6812371">
<ele>98.61</ele>
<time>2018-12-30T11:56:15Z</time>
</trkpt>
<trkpt lat="49.1376947" lon="2.6812175">
<ele>99.31</ele>
<time>2018-12-30T11:56:18Z</time>
</trkpt>
<trkpt lat="49.1376487" lon="2.6811980">
<ele>99.58</ele>
<time>2018-12-30T11:56:20Z</time>
</trkpt>
<trkpt lat="49.1376037" lon="2.6811828">
<ele>99.61</ele>
<time>2018-12-30T11:56:22Z</time>
</trkpt>
<trkpt lat="49.1375628" lon="2.6811483">
<ele>98.91</ele>
<time>2018-12-30T11:56:24Z</time>
</trkpt>
<trkpt lat="49.1375193" lon="2.6811075">
<ele>98.64</ele>
<time>2018-12-30T11:56:26Z</time>
</trkpt>
<trkpt lat="49.1374889" lon="2.6810498">
<ele>98.61</ele>
<time>2018-12-30T11:56:28Z</time>
</trkpt>
<trkpt lat="49.1374714" lon="2.6809828">
<ele>99.31</ele>
<time>2018-12-30T11:56:30Z</time>
</trkpt>
<trkpt lat="49.1374624" lon="2.6809117">
<ele>100.28</ele>
<time>2018-12-30T11:56:32Z</time>
</trkpt>
<trkpt lat="49.1374465" lon="2.6808196">
<ele>99.69</ele>
<time>2018-12-30T11:56:35Z</time>
</trkpt>
<trkpt lat="49.1374369" lon="2.6807447">
<ele>100.60</ele>
<time>2018-12-30T11:56:39Z</time>
</trkpt>
<trkpt lat="49.1374383" lon="2.6806569">
<ele>101.31</ele>
<time>2018-12-30T11:56:44Z</time>
</trkpt>
<trkpt lat="49.1374354" lon="2.6805834">
<ele>102.30</ele>
<time>2018-12-30T11:56:47Z</time>
</trkpt>
<trkpt lat="49.1374144" lon="2.6806705">
<ele>101.61</ele>
<time>2018-12-30T11:56:56Z</time>
</trkpt>
<trkpt lat="49.1373699" lon="2.6806403">
<ele>101.53</ele>
<time>2018-12-30T11:57:00Z</time>
</trkpt>
<trkpt lat="49.1373279" lon="2.6805679">
<ele>103.28</ele>
<time>2018-12-30T11:57:03Z</time>
</trkpt>
<trkpt lat="49.1372867" lon="2.6805049">
<ele>104.49</ele>
<time>2018-12-30T11:57:05Z</time>
</trkpt>
<trkpt lat="49.1372487" lon="2.6804591">
<ele>105.51</ele>
<time>2018-12-30T11:57:07Z</time>
</trkpt>
<trkpt lat="49.1372025" lon="2.6804103">
<ele>105.60</ele>
<time>2018-12-30T11:57:09Z</time>
</trkpt>
<trkpt lat="49.1371541" lon="2.6803605">
<ele>105.61</ele>
<time>2018-12-30T11:57:11Z</time>
</trkpt>
<trkpt lat="49.1370978" lon="2.6803084">
<ele>105.61</ele>
<time>2018-12-30T11:57:13Z</time>
</trkpt>
<trkpt lat="49.1370355" lon="2.6802634">
<ele>105.61</ele>
<time>2018-12-30T11:57:15Z</time>
</trkpt>
<trkpt lat="49.1369762" lon="2.6802391">
<ele>105.61</ele>
<time>2018-12-30T11:57:17Z</time>
</trkpt>
<trkpt lat="49.1369102" lon="2.6802080">
<ele>105.61</ele>
<time>2018-12-30T11:57:19Z</time>
</trkpt>
<trkpt lat="49.1368428" lon="2.6801707">
<ele>106.52</ele>
<time>2018-12-30T11:57:21Z</time>
</trkpt>
<trkpt lat="49.1367709" lon="2.6801520">
<ele>106.60</ele>
<time>2018-12-30T11:57:23Z</time>
</trkpt>
<trkpt lat="49.1367061" lon="2.6801361">
<ele>106.61</ele>
<time>2018-12-30T11:57:25Z</time>
</trkpt>
<trkpt lat="49.1366367" lon="2.6800913">
<ele>106.61</ele>
<time>2018-12-30T11:57:27Z</time>
</trkpt>
<trkpt lat="49.1365684" lon="2.6800295">
<ele>106.61</ele>
<time>2018-12-30T11:57:29Z</time>
</trkpt>
<trkpt lat="49.1365090" lon="2.6799652">
<ele>106.61</ele>
<time>2018-12-30T11:57:31Z</time>
</trkpt>
<trkpt lat="49.1364531" lon="2.6799000">
<ele>106.61</ele>
<time>2018-12-30T11:57:33Z</time>
</trkpt>
<trkpt lat="49.1364001" lon="2.6798120">
<ele>106.61</ele>
<time>2018-12-30T11:57:35Z</time>
</trkpt>
<trkpt lat="49.1363320" lon="2.6797260">
<ele>108.01</ele>
<time>2018-12-30T11:57:37Z</time>
</trkpt>
<trkpt lat="49.1362699" lon="2.6796345">
<ele>109.26</ele>
<time>2018-12-30T11:57:39Z</time>
</trkpt>
<trkpt lat="49.1362097" lon="2.6795638">
<ele>108.67</ele>
<time>2018-12-30T11:57:41Z</time>
</trkpt>
<trkpt lat="49.1361571" lon="2.6794750">
<ele>108.62</ele>
<time>2018-12-30T11:57:43Z</time>
</trkpt>
<trkpt lat="49.1361174" lon="2.6793989">
<ele>108.61</ele>
<time>2018-12-30T11:57:45Z</time>
</trkpt>
<trkpt lat="49.1360888" lon="2.6793095">
<ele>108.61</ele>
<time>2018-12-30T11:57:48Z</time>
</trkpt>
<trkpt lat="49.1360702" lon="2.6792407">
<ele>108.61</ele>
<time>2018-12-30T11:57:50Z</time>
</trkpt>
<trkpt lat="49.1360472" lon="2.6791592">
<ele>108.61</ele>
<time>2018-12-30T11:57:52Z</time>
</trkpt>
<trkpt lat="49.1360548" lon="2.6790842">
<ele>108.61</ele>
<time>2018-12-30T11:57:54Z</time>
</trkpt>
<trkpt lat="49.1360986" lon="2.6790148">
<ele>108.61</ele>
<time>2018-12-30T11:57:56Z</time>
</trkpt>
<trkpt lat="49.1361537" lon="2.6789578">
<ele>108.61</ele>
<time>2018-12-30T11:57:58Z</time>
</trkpt>
<trkpt lat="49.1362165" lon="2.6789096">
<ele>109.52</ele>
<time>2018-12-30T11:58:00Z</time>
</trkpt>
<trkpt lat="49.1362904" lon="2.6788550">
<ele>109.60</ele>
<time>2018-12-30T11:58:02Z</time>
</trkpt>
<trkpt lat="49.1363348" lon="2.6787993">
<ele>108.91</ele>
<time>2018-12-30T11:58:03Z</time>
</trkpt>
<trkpt lat="49.1364128" lon="2.6787304">
<ele>108.64</ele>
<time>2018-12-30T11:58:05Z</time>
</trkpt>
<trkpt lat="49.1364548" lon="2.6786971">
<ele>109.32</ele>
<time>2018-12-30T11:58:06Z</time>
</trkpt>
<trkpt lat="49.1365005" lon="2.6786689">
<ele>108.82</ele>
<time>2018-12-30T11:58:07Z</time>
</trkpt>
<trkpt lat="49.1365795" lon="2.6786097">
<ele>108.63</ele>
<time>2018-12-30T11:58:09Z</time>
</trkpt>
<trkpt lat="49.1366507" lon="2.6785408">
<ele>109.31</ele>
<time>2018-12-30T11:58:11Z</time>
</trkpt>
<trkpt lat="49.1367345" lon="2.6785077">
<ele>108.67</ele>
<time>2018-12-30T11:58:13Z</time>
</trkpt>
<trkpt lat="49.1368152" lon="2.6784420">
<ele>107.71</ele>
<time>2018-12-30T11:58:15Z</time>
</trkpt>
<trkpt lat="49.1368956" lon="2.6783729">
<ele>107.83</ele>
<time>2018-12-30T11:58:17Z</time>
</trkpt>
<trkpt lat="49.1369764" lon="2.6783102">
<ele>108.33</ele>
<time>2018-12-30T11:58:19Z</time>
</trkpt>
<trkpt lat="49.1370549" lon="2.6782492">
<ele>108.59</ele>
<time>2018-12-30T11:58:21Z</time>
</trkpt>
<trkpt lat="49.1370987" lon="2.6782189">
<ele>108.60</ele>
<time>2018-12-30T11:58:22Z</time>
</trkpt>
<trkpt lat="49.1371442" lon="2.6781858">
<ele>108.61</ele>
<time>2018-12-30T11:58:23Z</time>
</trkpt>
<trkpt lat="49.1371942" lon="2.6781487">
<ele>108.61</ele>
<time>2018-12-30T11:58:24Z</time>
</trkpt>
<trkpt lat="49.1372468" lon="2.6781163">
<ele>108.61</ele>
<time>2018-12-30T11:58:25Z</time>
</trkpt>
<trkpt lat="49.1373038" lon="2.6780834">
<ele>108.61</ele>
<time>2018-12-30T11:58:26Z</time>
</trkpt>
<trkpt lat="49.1373621" lon="2.6780488">
<ele>108.61</ele>
<time>2018-12-30T11:58:27Z</time>
</trkpt>
<trkpt lat="49.1374211" lon="2.6780071">
<ele>108.61</ele>
<time>2018-12-30T11:58:28Z</time>
</trkpt>
<trkpt lat="49.1374699" lon="2.6779591">
<ele>108.61</ele>
<time>2018-12-30T11:58:29Z</time>
</trkpt>
<trkpt lat="49.1375224" lon="2.6779179">
<ele>108.61</ele>
<time>2018-12-30T11:58:30Z</time>
</trkpt>
<trkpt lat="49.1375741" lon="2.6778820">
<ele>108.61</ele>
<time>2018-12-30T11:58:31Z</time>
</trkpt>
<trkpt lat="49.1376311" lon="2.6778521">
<ele>108.61</ele>
<time>2018-12-30T11:58:32Z</time>
</trkpt>
<trkpt lat="49.1376836" lon="2.6778209">
<ele>108.61</ele>
<time>2018-12-30T11:58:33Z</time>
</trkpt>
<trkpt lat="49.1377411" lon="2.6777902">
<ele>108.61</ele>
<time>2018-12-30T11:58:34Z</time>
</trkpt>
<trkpt lat="49.1377927" lon="2.6777576">
<ele>108.61</ele>
<time>2018-12-30T11:58:35Z</time>
</trkpt>
<trkpt lat="49.1378429" lon="2.6777275">
<ele>108.61</ele>
<time>2018-12-30T11:58:36Z</time>
</trkpt>
<trkpt lat="49.1378868" lon="2.6776975">
<ele>108.61</ele>
<time>2018-12-30T11:58:37Z</time>
</trkpt>
<trkpt lat="49.1379241" lon="2.6776506">
<ele>108.61</ele>
<time>2018-12-30T11:58:38Z</time>
</trkpt>
<trkpt lat="49.1379944" lon="2.6775829">
<ele>108.40</ele>
<time>2018-12-30T11:58:40Z</time>
</trkpt>
<trkpt lat="49.1380410" lon="2.6775601">
<ele>108.55</ele>
<time>2018-12-30T11:58:41Z</time>
</trkpt>
<trkpt lat="49.1380859" lon="2.6775302">
<ele>108.59</ele>
<time>2018-12-30T11:58:42Z</time>
</trkpt>
<trkpt lat="49.1381634" lon="2.6774710">
<ele>109.31</ele>
<time>2018-12-30T11:58:44Z</time>
</trkpt>
<trkpt lat="49.1382056" lon="2.6774352">
<ele>110.22</ele>
<time>2018-12-30T11:58:45Z</time>
</trkpt>
<trkpt lat="49.1382517" lon="2.6773966">
<ele>110.49</ele>
<time>2018-12-30T11:58:46Z</time>
</trkpt>
<trkpt lat="49.1383224" lon="2.6773336">
<ele>109.69</ele>
<time>2018-12-30T11:58:48Z</time>
</trkpt>
<trkpt lat="49.1383875" lon="2.6772903">
<ele>109.62</ele>
<time>2018-12-30T11:58:50Z</time>
</trkpt>
<trkpt lat="49.1384491" lon="2.6772434">
<ele>109.61</ele>
<time>2018-12-30T11:58:52Z</time>
</trkpt>
<trkpt lat="49.1385162" lon="2.6771946">
<ele>110.52</ele>
<time>2018-12-30T11:58:54Z</time>
</trkpt>
<trkpt lat="49.1385812" lon="2.6771524">
<ele>111.30</ele>
<time>2018-12-30T11:58:56Z</time>
</trkpt>
<trkpt lat="49.1386393" lon="2.6771126">
<ele>111.58</ele>
<time>2018-12-30T11:58:58Z</time>
</trkpt>
<trkpt lat="49.1387047" lon="2.6770696">
<ele>112.52</ele>
<time>2018-12-30T11:59:00Z</time>
</trkpt>
<trkpt lat="49.1387702" lon="2.6770129">
<ele>112.60</ele>
<time>2018-12-30T11:59:02Z</time>
</trkpt>
<trkpt lat="49.1388326" lon="2.6769696">
<ele>112.61</ele>
<time>2018-12-30T11:59:04Z</time>
</trkpt>
<trkpt lat="49.1388843" lon="2.6769123">
<ele>112.61</ele>
<time>2018-12-30T11:59:06Z</time>
</trkpt>
<trkpt lat="49.1389432" lon="2.6768201">
<ele>112.61</ele>
<time>2018-12-30T11:59:08Z</time>
</trkpt>
<trkpt lat="49.1390024" lon="2.6767417">
<ele>112.61</ele>
<time>2018-12-30T11:59:10Z</time>
</trkpt>
<trkpt lat="49.1390685" lon="2.6766583">
<ele>112.61</ele>
<time>2018-12-30T11:59:12Z</time>
</trkpt>
<trkpt lat="49.1391050" lon="2.6766129">
<ele>112.61</ele>
<time>2018-12-30T11:59:13Z</time>
</trkpt>
<trkpt lat="49.1391339" lon="2.6765485">
<ele>112.61</ele>
<time>2018-12-30T11:59:14Z</time>
</trkpt>
<trkpt lat="49.1391670" lon="2.6764979">
<ele>112.61</ele>
<time>2018-12-30T11:59:15Z</time>
</trkpt>
<trkpt lat="49.1392052" lon="2.6764408">
<ele>112.61</ele>
<time>2018-12-30T11:59:16Z</time>
</trkpt>
<trkpt lat="49.1392388" lon="2.6763880">
<ele>113.31</ele>
<time>2018-12-30T11:59:17Z</time>
</trkpt>
<trkpt lat="49.1392716" lon="2.6763389">
<ele>112.82</ele>
<time>2018-12-30T11:59:18Z</time>
</trkpt>
<trkpt lat="49.1393038" lon="2.6762821">
<ele>113.37</ele>
<time>2018-12-30T11:59:19Z</time>
</trkpt>
<trkpt lat="49.1393411" lon="2.6762338">
<ele>112.84</ele>
<time>2018-12-30T11:59:20Z</time>
</trkpt>
<trkpt lat="49.1393996" lon="2.6761471">
<ele>112.63</ele>
<time>2018-12-30T11:59:22Z</time>
</trkpt>
<trkpt lat="49.1394317" lon="2.6760963">
<ele>112.62</ele>
<time>2018-12-30T11:59:23Z</time>
</trkpt>
<trkpt lat="49.1394606" lon="2.6760361">
<ele>112.61</ele>
<time>2018-12-30T11:59:24Z</time>
</trkpt>
<trkpt lat="49.1394924" lon="2.6759793">
<ele>112.61</ele>
<time>2018-12-30T11:59:25Z</time>
</trkpt>
<trkpt lat="49.1395244" lon="2.6759236">
<ele>112.61</ele>
<time>2018-12-30T11:59:26Z</time>
</trkpt>
<trkpt lat="49.1395571" lon="2.6758675">
<ele>112.61</ele>
<time>2018-12-30T11:59:27Z</time>
</trkpt>
<trkpt lat="49.1395932" lon="2.6758153">
<ele>112.61</ele>
<time>2018-12-30T11:59:28Z</time>
</trkpt>
<trkpt lat="49.1396318" lon="2.6757695">
<ele>112.61</ele>
<time>2018-12-30T11:59:29Z</time>
</trkpt>
<trkpt lat="49.1396679" lon="2.6757166">
<ele>112.61</ele>
<time>2018-12-30T11:59:30Z</time>
</trkpt>
<trkpt lat="49.1397033" lon="2.6756555">
<ele>113.31</ele>
<time>2018-12-30T11:59:31Z</time>
</trkpt>
<trkpt lat="49.1397317" lon="2.6755991">
<ele>112.82</ele>
<time>2018-12-30T11:59:32Z</time>
</trkpt>
<trkpt lat="49.1397888" lon="2.6754914">
<ele>112.63</ele>
<time>2018-12-30T11:59:34Z</time>
</trkpt>
<trkpt lat="49.1398540" lon="2.6753921">
<ele>111.91</ele>
<time>2018-12-30T11:59:36Z</time>
</trkpt>
<trkpt lat="49.1398896" lon="2.6753441">
<ele>112.40</ele>
<time>2018-12-30T11:59:37Z</time>
</trkpt>
<trkpt lat="49.1399261" lon="2.6753000">
<ele>112.55</ele>
<time>2018-12-30T11:59:38Z</time>
</trkpt>
<trkpt lat="49.1399683" lon="2.6752483">
<ele>112.59</ele>
<time>2018-12-30T11:59:39Z</time>
</trkpt>
<trkpt lat="49.1400045" lon="2.6752007">
<ele>112.61</ele>
<time>2018-12-30T11:59:40Z</time>
</trkpt>
<trkpt lat="49.1400385" lon="2.6751447">
<ele>112.61</ele>
<time>2018-12-30T11:59:41Z</time>
</trkpt>
<trkpt lat="49.1400750" lon="2.6750883">
<ele>112.61</ele>
<time>2018-12-30T11:59:42Z</time>
</trkpt>
<trkpt lat="49.1401100" lon="2.6750347">
<ele>112.61</ele>
<time>2018-12-30T11:59:43Z</time>
</trkpt>
<trkpt lat="49.1401443" lon="2.6749838">
<ele>112.61</ele>
<time>2018-12-30T11:59:44Z</time>
</trkpt>
<trkpt lat="49.1402140" lon="2.6749120">
<ele>113.31</ele>
<time>2018-12-30T11:59:46Z</time>
</trkpt>
<trkpt lat="49.1402641" lon="2.6749042">
<ele>113.58</ele>
<time>2018-12-30T11:59:48Z</time>
</trkpt>
<trkpt lat="49.1402714" lon="2.6748362">
<ele>113.61</ele>
<time>2018-12-30T11:59:51Z</time>
</trkpt>
<trkpt lat="49.1402931" lon="2.6747707">
<ele>113.61</ele>
<time>2018-12-30T11:59:53Z</time>
</trkpt>
<trkpt lat="49.1403359" lon="2.6747129">
<ele>113.61</ele>
<time>2018-12-30T11:59:55Z</time>
</trkpt>
<trkpt lat="49.1403852" lon="2.6746325">
<ele>113.61</ele>
<time>2018-12-30T11:59:57Z</time>
</trkpt>
<trkpt lat="49.1404182" lon="2.6745857">
<ele>113.61</ele>
<time>2018-12-30T11:59:58Z</time>
</trkpt>
<trkpt lat="49.1404618" lon="2.6745416">
<ele>112.91</ele>
<time>2018-12-30T11:59:59Z</time>
</trkpt>
<trkpt lat="49.1405061" lon="2.6745045">
<ele>112.00</ele>
<time>2018-12-30T12:00:00Z</time>
</trkpt>
<trkpt lat="49.1405393" lon="2.6744495">
<ele>111.73</ele>
<time>2018-12-30T12:00:01Z</time>
</trkpt>
<trkpt lat="49.1405640" lon="2.6743848">
<ele>111.65</ele>
<time>2018-12-30T12:00:02Z</time>
</trkpt>
<trkpt lat="49.1406148" lon="2.6742722">
<ele>111.61</ele>
<time>2018-12-30T12:00:04Z</time>
</trkpt>
<trkpt lat="49.1406716" lon="2.6741892">
<ele>111.61</ele>
<time>2018-12-30T12:00:06Z</time>
</trkpt>
<trkpt lat="49.1407064" lon="2.6740818">
<ele>111.61</ele>
<time>2018-12-30T12:00:08Z</time>
</trkpt>
<trkpt lat="49.1407225" lon="2.6740077">
<ele>111.61</ele>
<time>2018-12-30T12:00:09Z</time>
</trkpt>
<trkpt lat="49.1407424" lon="2.6739297">
<ele>111.61</ele>
<time>2018-12-30T12:00:10Z</time>
</trkpt>
<trkpt lat="49.1407645" lon="2.6738531">
<ele>110.91</ele>
<time>2018-12-30T12:00:11Z</time>
</trkpt>
<trkpt lat="49.1407952" lon="2.6737998">
<ele>110.70</ele>
<time>2018-12-30T12:00:12Z</time>
</trkpt>
<trkpt lat="49.1408710" lon="2.6737411">
<ele>111.32</ele>
<time>2018-12-30T12:00:14Z</time>
</trkpt>
<trkpt lat="49.1409420" lon="2.6736894">
<ele>111.58</ele>
<time>2018-12-30T12:00:16Z</time>
</trkpt>
<trkpt lat="49.1409963" lon="2.6736396">
<ele>111.61</ele>
<time>2018-12-30T12:00:18Z</time>
</trkpt>
<trkpt lat="49.1410418" lon="2.6735996">
<ele>111.61</ele>
<time>2018-12-30T12:00:20Z</time>
</trkpt>
<trkpt lat="49.1410849" lon="2.6735478">
<ele>111.61</ele>
<time>2018-12-30T12:00:22Z</time>
</trkpt>
<trkpt lat="49.1411298" lon="2.6734850">
<ele>111.61</ele>
<time>2018-12-30T12:00:24Z</time>
</trkpt>
<trkpt lat="49.1411774" lon="2.6734130">
<ele>111.82</ele>
<time>2018-12-30T12:00:26Z</time>
</trkpt>
<trkpt lat="49.1412113" lon="2.6733440">
<ele>111.63</ele>
<time>2018-12-30T12:00:28Z</time>
</trkpt>
<trkpt lat="49.1412513" lon="2.6732803">
<ele>111.61</ele>
<time>2018-12-30T12:00:30Z</time>
</trkpt>
<trkpt lat="49.1412942" lon="2.6732267">
<ele>112.52</ele>
<time>2018-12-30T12:00:32Z</time>
</trkpt>
<trkpt lat="49.1413389" lon="2.6731725">
<ele>112.60</ele>
<time>2018-12-30T12:00:34Z</time>
</trkpt>
<trkpt lat="49.1413715" lon="2.6731170">
<ele>112.61</ele>
<time>2018-12-30T12:00:36Z</time>
</trkpt>
<trkpt lat="49.1414039" lon="2.6730639">
<ele>112.61</ele>
<time>2018-12-30T12:00:38Z</time>
</trkpt>
<trkpt lat="49.1414428" lon="2.6730154">
<ele>112.61</ele>
<time>2018-12-30T12:00:40Z</time>
</trkpt>
<trkpt lat="49.1414878" lon="2.6729508">
<ele>113.31</ele>
<time>2018-12-30T12:00:43Z</time>
</trkpt>
<trkpt lat="49.1415313" lon="2.6728794">
<ele>113.60</ele>
<time>2018-12-30T12:00:46Z</time>
</trkpt>
<trkpt lat="49.1415627" lon="2.6728267">
<ele>114.31</ele>
<time>2018-12-30T12:00:48Z</time>
</trkpt>
<trkpt lat="49.1415989" lon="2.6727743">
<ele>113.67</ele>
<time>2018-12-30T12:00:50Z</time>
</trkpt>
<trkpt lat="49.1416323" lon="2.6727199">
<ele>113.62</ele>
<time>2018-12-30T12:00:52Z</time>
</trkpt>
<trkpt lat="49.1416614" lon="2.6726572">
<ele>113.61</ele>
<time>2018-12-30T12:00:54Z</time>
</trkpt>
<trkpt lat="49.1416910" lon="2.6725940">
<ele>113.61</ele>
<time>2018-12-30T12:00:56Z</time>
</trkpt>
<trkpt lat="49.1417226" lon="2.6725334">
<ele>113.40</ele>
<time>2018-12-30T12:00:58Z</time>
</trkpt>
<trkpt lat="49.1417721" lon="2.6724726">
<ele>112.84</ele>
<time>2018-12-30T12:01:01Z</time>
</trkpt>
<trkpt lat="49.1418209" lon="2.6724097">
<ele>112.62</ele>
<time>2018-12-30T12:01:04Z</time>
</trkpt>
<trkpt lat="49.1418535" lon="2.6723607">
<ele>112.61</ele>
<time>2018-12-30T12:01:06Z</time>
</trkpt>
<trkpt lat="49.1418961" lon="2.6723053">
<ele>113.31</ele>
<time>2018-12-30T12:01:09Z</time>
</trkpt>
<trkpt lat="49.1419340" lon="2.6722221">
<ele>113.60</ele>
<time>2018-12-30T12:01:12Z</time>
</trkpt>
<trkpt lat="49.1419811" lon="2.6721502">
<ele>114.58</ele>
<time>2018-12-30T12:01:15Z</time>
</trkpt>
<trkpt lat="49.1420122" lon="2.6720896">
<ele>113.70</ele>
<time>2018-12-30T12:01:17Z</time>
</trkpt>
<trkpt lat="49.1420423" lon="2.6720284">
<ele>113.62</ele>
<time>2018-12-30T12:01:19Z</time>
</trkpt>
<trkpt lat="49.1420725" lon="2.6719738">
<ele>113.61</ele>
<time>2018-12-30T12:01:21Z</time>
</trkpt>
<trkpt lat="49.1421050" lon="2.6719192">
<ele>113.61</ele>
<time>2018-12-30T12:01:23Z</time>
</trkpt>
<trkpt lat="49.1421571" lon="2.6718562">
<ele>114.52</ele>
<time>2018-12-30T12:01:26Z</time>
</trkpt>
<trkpt lat="49.1421924" lon="2.6717985">
<ele>113.90</ele>
<time>2018-12-30T12:01:28Z</time>
</trkpt>
<trkpt lat="49.1422432" lon="2.6717396">
<ele>114.55</ele>
<time>2018-12-30T12:01:30Z</time>
</trkpt>
<trkpt lat="49.1423073" lon="2.6716597">
<ele>114.61</ele>
<time>2018-12-30T12:01:32Z</time>
</trkpt>
<trkpt lat="49.1423694" lon="2.6715402">
<ele>114.61</ele>
<time>2018-12-30T12:01:34Z</time>
</trkpt>
<trkpt lat="49.1424017" lon="2.6714810">
<ele>114.61</ele>
<time>2018-12-30T12:01:35Z</time>
</trkpt>
<trkpt lat="49.1424733" lon="2.6713832">
<ele>113.70</ele>
<time>2018-12-30T12:01:37Z</time>
</trkpt>
<trkpt lat="49.1425129" lon="2.6713301">
<ele>112.94</ele>
<time>2018-12-30T12:01:38Z</time>
</trkpt>
<trkpt lat="49.1425578" lon="2.6712769">
<ele>113.41</ele>
<time>2018-12-30T12:01:39Z</time>
</trkpt>
<trkpt lat="49.1426009" lon="2.6712161">
<ele>113.55</ele>
<time>2018-12-30T12:01:40Z</time>
</trkpt>
<trkpt lat="49.1426383" lon="2.6711586">
<ele>113.59</ele>
<time>2018-12-30T12:01:41Z</time>
</trkpt>
<trkpt lat="49.1426757" lon="2.6711013">
<ele>113.61</ele>
<time>2018-12-30T12:01:42Z</time>
</trkpt>
<trkpt lat="49.1427080" lon="2.6710317">
<ele>113.61</ele>
<time>2018-12-30T12:01:43Z</time>
</trkpt>
<trkpt lat="49.1427406" lon="2.6709601">
<ele>113.61</ele>
<time>2018-12-30T12:01:44Z</time>
</trkpt>
<trkpt lat="49.1427770" lon="2.6708917">
<ele>113.61</ele>
<time>2018-12-30T12:01:45Z</time>
</trkpt>
<trkpt lat="49.1428223" lon="2.6708287">
<ele>113.61</ele>
<time>2018-12-30T12:01:46Z</time>
</trkpt>
<trkpt lat="49.1428669" lon="2.6707582">
<ele>114.31</ele>
<time>2018-12-30T12:01:47Z</time>
</trkpt>
<trkpt lat="49.1429126" lon="2.6706913">
<ele>114.52</ele>
<time>2018-12-30T12:01:48Z</time>
</trkpt>
<trkpt lat="49.1429562" lon="2.6706238">
<ele>115.28</ele>
<time>2018-12-30T12:01:49Z</time>
</trkpt>
<trkpt lat="49.1429973" lon="2.6705598">
<ele>115.51</ele>
<time>2018-12-30T12:01:50Z</time>
</trkpt>
<trkpt lat="49.1430385" lon="2.6704934">
<ele>115.58</ele>
<time>2018-12-30T12:01:51Z</time>
</trkpt>
<trkpt lat="49.1430783" lon="2.6704335">
<ele>116.30</ele>
<time>2018-12-30T12:01:52Z</time>
</trkpt>
<trkpt lat="49.1431171" lon="2.6703763">
<ele>116.52</ele>
<time>2018-12-30T12:01:53Z</time>
</trkpt>
<trkpt lat="49.1431543" lon="2.6703252">
<ele>116.58</ele>
<time>2018-12-30T12:01:54Z</time>
</trkpt>
<trkpt lat="49.1431867" lon="2.6702695">
<ele>116.60</ele>
<time>2018-12-30T12:01:55Z</time>
</trkpt>
<trkpt lat="49.1432229" lon="2.6702154">
<ele>116.61</ele>
<time>2018-12-30T12:01:56Z</time>
</trkpt>
<trkpt lat="49.1432593" lon="2.6701561">
<ele>116.61</ele>
<time>2018-12-30T12:01:57Z</time>
</trkpt>
<trkpt lat="49.1432974" lon="2.6700917">
<ele>116.61</ele>
<time>2018-12-30T12:01:58Z</time>
</trkpt>
<trkpt lat="49.1433359" lon="2.6700214">
<ele>115.91</ele>
<time>2018-12-30T12:01:59Z</time>
</trkpt>
<trkpt lat="49.1433808" lon="2.6699480">
<ele>115.70</ele>
<time>2018-12-30T12:02:00Z</time>
</trkpt>
<trkpt lat="49.1434237" lon="2.6698768">
<ele>115.64</ele>
<time>2018-12-30T12:02:01Z</time>
</trkpt>
<trkpt lat="49.1434665" lon="2.6698061">
<ele>115.62</ele>
<time>2018-12-30T12:02:02Z</time>
</trkpt>
<trkpt lat="49.1435083" lon="2.6697349">
<ele>115.61</ele>
<time>2018-12-30T12:02:03Z</time>
</trkpt>
<trkpt lat="49.1435498" lon="2.6696728">
<ele>115.61</ele>
<time>2018-12-30T12:02:04Z</time>
</trkpt>
<trkpt lat="49.1435856" lon="2.6696121">
<ele>115.61</ele>
<time>2018-12-30T12:02:05Z</time>
</trkpt>
<trkpt lat="49.1436210" lon="2.6695556">
<ele>115.61</ele>
<time>2018-12-30T12:02:06Z</time>
</trkpt>
<trkpt lat="49.1436610" lon="2.6695019">
<ele>116.31</ele>
<time>2018-12-30T12:02:07Z</time>
</trkpt>
<trkpt lat="49.1437100" lon="2.6694708">
<ele>116.52</ele>
<time>2018-12-30T12:02:08Z</time>
</trkpt>
<trkpt lat="49.1437875" lon="2.6694855">
<ele>116.60</ele>
<time>2018-12-30T12:02:10Z</time>
</trkpt>
<trkpt lat="49.1438539" lon="2.6695466">
<ele>116.61</ele>
<time>2018-12-30T12:02:12Z</time>
</trkpt>
<trkpt lat="49.1438977" lon="2.6696118">
<ele>116.61</ele>
<time>2018-12-30T12:02:13Z</time>
</trkpt>
<trkpt lat="49.1439323" lon="2.6696588">
<ele>116.61</ele>
<time>2018-12-30T12:02:14Z</time>
</trkpt>
<trkpt lat="49.1439661" lon="2.6697136">
<ele>116.61</ele>
<time>2018-12-30T12:02:15Z</time>
</trkpt>
<trkpt lat="49.1439993" lon="2.6697651">
<ele>116.61</ele>
<time>2018-12-30T12:02:16Z</time>
</trkpt>
<trkpt lat="49.1440351" lon="2.6698215">
<ele>116.61</ele>
<time>2018-12-30T12:02:17Z</time>
</trkpt>
<trkpt lat="49.1440842" lon="2.6698734">
<ele>117.31</ele>
<time>2018-12-30T12:02:18Z</time>
</trkpt>
<trkpt lat="49.1441315" lon="2.6699133">
<ele>116.82</ele>
<time>2018-12-30T12:02:19Z</time>
</trkpt>
<trkpt lat="49.1441780" lon="2.6699403">
<ele>116.67</ele>
<time>2018-12-30T12:02:20Z</time>
</trkpt>
<trkpt lat="49.1442406" lon="2.6699353">
<ele>117.53</ele>
<time>2018-12-30T12:02:22Z</time>
</trkpt>
<trkpt lat="49.1442671" lon="2.6699944">
<ele>117.61</ele>
<time>2018-12-30T12:02:25Z</time>
</trkpt>
<trkpt lat="49.1442542" lon="2.6700649">
<ele>117.61</ele>
<time>2018-12-30T12:02:27Z</time>
</trkpt>
<trkpt lat="49.1442941" lon="2.6701055">
<ele>116.91</ele>
<time>2018-12-30T12:02:29Z</time>
</trkpt>
<trkpt lat="49.1443532" lon="2.6701589">
<ele>116.64</ele>
<time>2018-12-30T12:02:31Z</time>
</trkpt>
<trkpt lat="49.1444041" lon="2.6702204">
<ele>116.61</ele>
<time>2018-12-30T12:02:33Z</time>
</trkpt>
<trkpt lat="49.1444224" lon="2.6702990">
<ele>116.61</ele>
<time>2018-12-30T12:02:35Z</time>
</trkpt>
<trkpt lat="49.1444539" lon="2.6703715">
<ele>116.61</ele>
<time>2018-12-30T12:02:37Z</time>
</trkpt>
<trkpt lat="49.1444699" lon="2.6704516">
<ele>116.82</ele>
<time>2018-12-30T12:02:39Z</time>
</trkpt>
<trkpt lat="49.1445294" lon="2.6704857">
<ele>116.62</ele>
<time>2018-12-30T12:02:42Z</time>
</trkpt>
<trkpt lat="49.1445948" lon="2.6705215">
<ele>115.91</ele>
<time>2018-12-30T12:02:44Z</time>
</trkpt>
<trkpt lat="49.1446603" lon="2.6705671">
<ele>115.64</ele>
<time>2018-12-30T12:02:46Z</time>
</trkpt>
<trkpt lat="49.1447153" lon="2.6706317">
<ele>115.61</ele>
<time>2018-12-30T12:02:48Z</time>
</trkpt>
<trkpt lat="49.1447945" lon="2.6707411">
<ele>114.70</ele>
<time>2018-12-30T12:02:50Z</time>
</trkpt>
<trkpt lat="49.1448262" lon="2.6707960">
<ele>115.34</ele>
<time>2018-12-30T12:02:51Z</time>
</trkpt>
<trkpt lat="49.1448882" lon="2.6708703">
<ele>115.59</ele>
<time>2018-12-30T12:02:53Z</time>
</trkpt>
<trkpt lat="49.1449550" lon="2.6709589">
<ele>115.82</ele>
<time>2018-12-30T12:02:55Z</time>
</trkpt>
<trkpt lat="49.1449981" lon="2.6710036">
<ele>114.97</ele>
<time>2018-12-30T12:02:56Z</time>
</trkpt>
<trkpt lat="49.1450390" lon="2.6710519">
<ele>114.02</ele>
<time>2018-12-30T12:02:57Z</time>
</trkpt>
<trkpt lat="49.1450824" lon="2.6710910">
<ele>113.03</ele>
<time>2018-12-30T12:02:58Z</time>
</trkpt>
<trkpt lat="49.1451216" lon="2.6711442">
<ele>112.04</ele>
<time>2018-12-30T12:02:59Z</time>
</trkpt>
<trkpt lat="49.1451589" lon="2.6711939">
<ele>111.74</ele>
<time>2018-12-30T12:03:00Z</time>
</trkpt>
<trkpt lat="49.1452076" lon="2.6712448">
<ele>110.95</ele>
<time>2018-12-30T12:03:01Z</time>
</trkpt>
<trkpt lat="49.1452453" lon="2.6712990">
<ele>110.01</ele>
<time>2018-12-30T12:03:02Z</time>
</trkpt>
<trkpt lat="49.1452970" lon="2.6713514">
<ele>109.65</ele>
<time>2018-12-30T12:03:04Z</time>
</trkpt>
<trkpt lat="49.1453362" lon="2.6713859">
<ele>109.61</ele>
<time>2018-12-30T12:03:06Z</time>
</trkpt>
<trkpt lat="49.1453924" lon="2.6714245">
<ele>109.61</ele>
<time>2018-12-30T12:03:09Z</time>
</trkpt>
<trkpt lat="49.1454500" lon="2.6714417">
<ele>107.94</ele>
<time>2018-12-30T12:03:12Z</time>
</trkpt>
<trkpt lat="49.1455079" lon="2.6714484">
<ele>107.64</ele>
<time>2018-12-30T12:03:14Z</time>
</trkpt>
<trkpt lat="49.1455622" lon="2.6714544">
<ele>106.70</ele>
<time>2018-12-30T12:03:16Z</time>
</trkpt>
<trkpt lat="49.1456607" lon="2.6714394">
<ele>105.92</ele>
<time>2018-12-30T12:03:18Z</time>
</trkpt>
<trkpt lat="49.1457426" lon="2.6714141">
<ele>105.70</ele>
<time>2018-12-30T12:03:19Z</time>
</trkpt>
<trkpt lat="49.1457945" lon="2.6713960">
<ele>105.64</ele>
<time>2018-12-30T12:03:20Z</time>
</trkpt>
<trkpt lat="49.1458427" lon="2.6713679">
<ele>104.92</ele>
<time>2018-12-30T12:03:21Z</time>
</trkpt>
<trkpt lat="49.1458895" lon="2.6713395">
<ele>104.70</ele>
<time>2018-12-30T12:03:22Z</time>
</trkpt>
<trkpt lat="49.1459468" lon="2.6713240">
<ele>104.64</ele>
<time>2018-12-30T12:03:23Z</time>
</trkpt>
<trkpt lat="49.1460211" lon="2.6712823">
<ele>103.70</ele>
<time>2018-12-30T12:03:25Z</time>
</trkpt>
<trkpt lat="49.1460917" lon="2.6712292">
<ele>103.62</ele>
<time>2018-12-30T12:03:27Z</time>
</trkpt>
<trkpt lat="49.1461715" lon="2.6711742">
<ele>102.70</ele>
<time>2018-12-30T12:03:29Z</time>
</trkpt>
<trkpt lat="49.1462475" lon="2.6711195">
<ele>101.92</ele>
<time>2018-12-30T12:03:31Z</time>
</trkpt>
<trkpt lat="49.1463056" lon="2.6710536">
<ele>100.94</ele>
<time>2018-12-30T12:03:33Z</time>
</trkpt>
<trkpt lat="49.1462623" lon="2.6709796">
<ele>99.70</ele>
<time>2018-12-30T12:03:38Z</time>
</trkpt>
<trkpt lat="49.1462322" lon="2.6709072">
<ele>98.92</ele>
<time>2018-12-30T12:03:40Z</time>
</trkpt>
<trkpt lat="49.1462131" lon="2.6708144">
<ele>97.94</ele>
<time>2018-12-30T12:03:42Z</time>
</trkpt>
<trkpt lat="49.1461801" lon="2.6707385">
<ele>97.64</ele>
<time>2018-12-30T12:03:44Z</time>
</trkpt>
<trkpt lat="49.1461548" lon="2.6706707">
<ele>96.70</ele>
<time>2018-12-30T12:03:46Z</time>
</trkpt>
<trkpt lat="49.1461025" lon="2.6706007">
<ele>94.94</ele>
<time>2018-12-30T12:03:49Z</time>
</trkpt>
<trkpt lat="49.1460657" lon="2.6705565">
<ele>94.64</ele>
<time>2018-12-30T12:03:51Z</time>
</trkpt>
<trkpt lat="49.1460198" lon="2.6705174">
<ele>94.61</ele>
<time>2018-12-30T12:03:54Z</time>
</trkpt>
<trkpt lat="49.1459946" lon="2.6704526">
<ele>94.61</ele>
<time>2018-12-30T12:03:57Z</time>
</trkpt>
<trkpt lat="49.1459498" lon="2.6703782">
<ele>93.91</ele>
<time>2018-12-30T12:04:00Z</time>
</trkpt>
<trkpt lat="49.1459202" lon="2.6703174">
<ele>93.64</ele>
<time>2018-12-30T12:04:02Z</time>
</trkpt>
<trkpt lat="49.1458706" lon="2.6702699">
<ele>92.70</ele>
<time>2018-12-30T12:04:05Z</time>
</trkpt>
<trkpt lat="49.1458243" lon="2.6702283">
<ele>92.61</ele>
<time>2018-12-30T12:04:08Z</time>
</trkpt>
<trkpt lat="49.1457789" lon="2.6701796">
<ele>93.52</ele>
<time>2018-12-30T12:04:11Z</time>
</trkpt>
<trkpt lat="49.1457393" lon="2.6701263">
<ele>93.61</ele>
<time>2018-12-30T12:04:14Z</time>
</trkpt>
<trkpt lat="49.1457042" lon="2.6700729">
<ele>94.58</ele>
<time>2018-12-30T12:04:17Z</time>
</trkpt>
<trkpt lat="49.1456834" lon="2.6699931">
<ele>94.61</ele>
<time>2018-12-30T12:04:20Z</time>
</trkpt>
<trkpt lat="49.1456421" lon="2.6699455">
<ele>95.52</ele>
<time>2018-12-30T12:04:23Z</time>
</trkpt>
<trkpt lat="49.1456009" lon="2.6698983">
<ele>95.61</ele>
<time>2018-12-30T12:04:26Z</time>
</trkpt>
<trkpt lat="49.1455698" lon="2.6698304">
<ele>95.67</ele>
<time>2018-12-30T12:04:29Z</time>
</trkpt>
<trkpt lat="49.1455121" lon="2.6697814">
<ele>95.61</ele>
<time>2018-12-30T12:04:32Z</time>
</trkpt>
<trkpt lat="49.1454600" lon="2.6697576">
<ele>96.52</ele>
<time>2018-12-30T12:04:34Z</time>
</trkpt>
<trkpt lat="49.1454120" lon="2.6697209">
<ele>96.60</ele>
<time>2018-12-30T12:04:36Z</time>
</trkpt>
<trkpt lat="49.1453682" lon="2.6696629">
<ele>97.52</ele>
<time>2018-12-30T12:04:39Z</time>
</trkpt>
<trkpt lat="49.1453313" lon="2.6696035">
<ele>100.19</ele>
<time>2018-12-30T12:04:42Z</time>
</trkpt>
<trkpt lat="49.1452898" lon="2.6695602">
<ele>101.51</ele>
<time>2018-12-30T12:04:45Z</time>
</trkpt>
<trkpt lat="49.1452477" lon="2.6695264">
<ele>103.28</ele>
<time>2018-12-30T12:04:48Z</time>
</trkpt>
<trkpt lat="49.1452064" lon="2.6694858">
<ele>104.58</ele>
<time>2018-12-30T12:04:52Z</time>
</trkpt>
<trkpt lat="49.1452242" lon="2.6694192">
<ele>103.31</ele>
<time>2018-12-30T12:05:03Z</time>
</trkpt>
<trkpt lat="49.1451891" lon="2.6693480">
<ele>103.61</ele>
<time>2018-12-30T12:06:48Z</time>
</trkpt>
<trkpt lat="49.1451555" lon="2.6692988">
<ele>103.61</ele>
<time>2018-12-30T12:06:51Z</time>
</trkpt>
<trkpt lat="49.1451117" lon="2.6692519">
<ele>103.82</ele>
<time>2018-12-30T12:06:54Z</time>
</trkpt>
<trkpt lat="49.1450685" lon="2.6692331">
<ele>104.54</ele>
<time>2018-12-30T12:06:56Z</time>
</trkpt>
<trkpt lat="49.1450250" lon="2.6692047">
<ele>105.30</ele>
<time>2018-12-30T12:06:58Z</time>
</trkpt>
<trkpt lat="49.1449775" lon="2.6691802">
<ele>105.58</ele>
<time>2018-12-30T12:07:00Z</time>
</trkpt>
<trkpt lat="49.1449343" lon="2.6691135">
<ele>105.61</ele>
<time>2018-12-30T12:07:03Z</time>
</trkpt>
<trkpt lat="49.1448766" lon="2.6690634">
<ele>105.61</ele>
<time>2018-12-30T12:07:06Z</time>
</trkpt>
<trkpt lat="49.1448449" lon="2.6690120">
<ele>105.61</ele>
<time>2018-12-30T12:07:08Z</time>
</trkpt>
<trkpt lat="49.1448136" lon="2.6689514">
<ele>106.31</ele>
<time>2018-12-30T12:07:10Z</time>
</trkpt>
<trkpt lat="49.1447772" lon="2.6689064">
<ele>105.88</ele>
<time>2018-12-30T12:07:12Z</time>
</trkpt>
<trkpt lat="49.1447227" lon="2.6688686">
<ele>108.30</ele>
<time>2018-12-30T12:07:17Z</time>
</trkpt>
<trkpt lat="49.1446758" lon="2.6688183">
<ele>109.51</ele>
<time>2018-12-30T12:07:20Z</time>
</trkpt>
<trkpt lat="49.1446558" lon="2.6687230">
<ele>109.61</ele>
<time>2018-12-30T12:07:23Z</time>
</trkpt>
<trkpt lat="49.1446419" lon="2.6686489">
<ele>109.61</ele>
<time>2018-12-30T12:07:25Z</time>
</trkpt>
<trkpt lat="49.1446274" lon="2.6685525">
<ele>109.61</ele>
<time>2018-12-30T12:07:27Z</time>
</trkpt>
<trkpt lat="49.1446150" lon="2.6684639">
<ele>110.52</ele>
<time>2018-12-30T12:07:29Z</time>
</trkpt>
<trkpt lat="49.1446092" lon="2.6683867">
<ele>111.30</ele>
<time>2018-12-30T12:07:31Z</time>
</trkpt>
<trkpt lat="49.1446430" lon="2.6683402">
<ele>111.58</ele>
<time>2018-12-30T12:07:33Z</time>
</trkpt>
<trkpt lat="49.1446884" lon="2.6682893">
<ele>111.61</ele>
<time>2018-12-30T12:07:35Z</time>
</trkpt>
<trkpt lat="49.1447256" lon="2.6682467">
<ele>111.61</ele>
<time>2018-12-30T12:07:37Z</time>
</trkpt>
<trkpt lat="49.1447760" lon="2.6682213">
<ele>110.91</ele>
<time>2018-12-30T12:07:39Z</time>
</trkpt>
<trkpt lat="49.1448064" lon="2.6681490">
<ele>110.62</ele>
<time>2018-12-30T12:07:42Z</time>
</trkpt>
<trkpt lat="49.1447993" lon="2.6680773">
<ele>110.61</ele>
<time>2018-12-30T12:07:44Z</time>
</trkpt>
<trkpt lat="49.1448130" lon="2.6679946">
<ele>110.61</ele>
<time>2018-12-30T12:07:46Z</time>
</trkpt>
<trkpt lat="49.1448231" lon="2.6679172">
<ele>110.61</ele>
<time>2018-12-30T12:07:48Z</time>
</trkpt>
<trkpt lat="49.1448433" lon="2.6678392">
<ele>111.31</ele>
<time>2018-12-30T12:07:50Z</time>
</trkpt>
<trkpt lat="49.1448797" lon="2.6677586">
<ele>111.58</ele>
<time>2018-12-30T12:07:52Z</time>
</trkpt>
<trkpt lat="49.1449475" lon="2.6676753">
<ele>112.31</ele>
<time>2018-12-30T12:07:54Z</time>
</trkpt>
<trkpt lat="49.1449921" lon="2.6676328">
<ele>111.82</ele>
<time>2018-12-30T12:07:55Z</time>
</trkpt>
<trkpt lat="49.1450310" lon="2.6675849">
<ele>111.67</ele>
<time>2018-12-30T12:07:56Z</time>
</trkpt>
<trkpt lat="49.1450963" lon="2.6675197">
<ele>111.62</ele>
<time>2018-12-30T12:07:58Z</time>
</trkpt>
<trkpt lat="49.1451421" lon="2.6674531">
<ele>112.31</ele>
<time>2018-12-30T12:08:00Z</time>
</trkpt>
<trkpt lat="49.1451774" lon="2.6673663">
<ele>112.58</ele>
<time>2018-12-30T12:08:02Z</time>
</trkpt>
<trkpt lat="49.1452247" lon="2.6672760">
<ele>112.61</ele>
<time>2018-12-30T12:08:04Z</time>
</trkpt>
<trkpt lat="49.1452850" lon="2.6671995">
<ele>112.61</ele>
<time>2018-12-30T12:08:06Z</time>
</trkpt>
<trkpt lat="49.1453534" lon="2.6671622">
<ele>112.61</ele>
<time>2018-12-30T12:08:08Z</time>
</trkpt>
<trkpt lat="49.1454275" lon="2.6671177">
<ele>113.52</ele>
<time>2018-12-30T12:08:10Z</time>
</trkpt>
<trkpt lat="49.1454820" lon="2.6670488">
<ele>113.81</ele>
<time>2018-12-30T12:08:12Z</time>
</trkpt>
<trkpt lat="49.1455277" lon="2.6670132">
<ele>112.97</ele>
<time>2018-12-30T12:08:13Z</time>
</trkpt>
<trkpt lat="49.1456062" lon="2.6669776">
<ele>112.64</ele>
<time>2018-12-30T12:08:15Z</time>
</trkpt>
<trkpt lat="49.1456800" lon="2.6669373">
<ele>112.61</ele>
<time>2018-12-30T12:08:17Z</time>
</trkpt>
<trkpt lat="49.1457093" lon="2.6668474">
<ele>112.61</ele>
<time>2018-12-30T12:08:19Z</time>
</trkpt>
<trkpt lat="49.1457214" lon="2.6667640">
<ele>112.61</ele>
<time>2018-12-30T12:08:21Z</time>
</trkpt>
<trkpt lat="49.1457385" lon="2.6666673">
<ele>113.31</ele>
<time>2018-12-30T12:08:23Z</time>
</trkpt>
<trkpt lat="49.1457668" lon="2.6665686">
<ele>112.88</ele>
<time>2018-12-30T12:08:25Z</time>
</trkpt>
<trkpt lat="49.1458062" lon="2.6664426">
<ele>112.64</ele>
<time>2018-12-30T12:08:27Z</time>
</trkpt>
<trkpt lat="49.1458326" lon="2.6663589">
<ele>112.62</ele>
<time>2018-12-30T12:08:28Z</time>
</trkpt>
<trkpt lat="49.1458600" lon="2.6662812">
<ele>112.61</ele>
<time>2018-12-30T12:08:29Z</time>
</trkpt>
<trkpt lat="49.1458748" lon="2.6662100">
<ele>112.61</ele>
<time>2018-12-30T12:08:30Z</time>
</trkpt>
<trkpt lat="49.1459109" lon="2.6661410">
<ele>111.70</ele>
<time>2018-12-30T12:08:33Z</time>
</trkpt>
<trkpt lat="49.1459624" lon="2.6661175">
<ele>111.62</ele>
<time>2018-12-30T12:08:35Z</time>
</trkpt>
<trkpt lat="49.1460217" lon="2.6660725">
<ele>111.61</ele>
<time>2018-12-30T12:08:37Z</time>
</trkpt>
<trkpt lat="49.1460654" lon="2.6660134">
<ele>111.61</ele>
<time>2018-12-30T12:08:39Z</time>
</trkpt>
<trkpt lat="49.1460924" lon="2.6659568">
<ele>111.61</ele>
<time>2018-12-30T12:08:41Z</time>
</trkpt>
<trkpt lat="49.1461361" lon="2.6658681">
<ele>110.70</ele>
<time>2018-12-30T12:08:43Z</time>
</trkpt>
<trkpt lat="49.1461687" lon="2.6657909">
<ele>110.64</ele>
<time>2018-12-30T12:08:44Z</time>
</trkpt>
<trkpt lat="49.1461964" lon="2.6657330">
<ele>109.92</ele>
<time>2018-12-30T12:08:45Z</time>
</trkpt>
<trkpt lat="49.1462322" lon="2.6656848">
<ele>109.00</ele>
<time>2018-12-30T12:08:46Z</time>
</trkpt>
<trkpt lat="49.1463225" lon="2.6656557">
<ele>107.04</ele>
<time>2018-12-30T12:08:48Z</time>
</trkpt>
<trkpt lat="49.1463648" lon="2.6656268">
<ele>105.34</ele>
<time>2018-12-30T12:08:49Z</time>
</trkpt>
<trkpt lat="49.1464076" lon="2.6655708">
<ele>104.83</ele>
<time>2018-12-30T12:08:50Z</time>
</trkpt>
<trkpt lat="49.1464439" lon="2.6655173">
<ele>103.98</ele>
<time>2018-12-30T12:08:51Z</time>
</trkpt>
<trkpt lat="49.1464860" lon="2.6653890">
<ele>102.94</ele>
<time>2018-12-30T12:08:53Z</time>
</trkpt>
<trkpt lat="49.1465018" lon="2.6653215">
<ele>102.71</ele>
<time>2018-12-30T12:08:54Z</time>
</trkpt>
<trkpt lat="49.1465391" lon="2.6652382">
<ele>101.71</ele>
<time>2018-12-30T12:08:56Z</time>
</trkpt>
<trkpt lat="49.1465834" lon="2.6651634">
<ele>101.62</ele>
<time>2018-12-30T12:08:58Z</time>
</trkpt>
<trkpt lat="49.1465654" lon="2.6650907">
<ele>101.61</ele>
<time>2018-12-30T12:09:00Z</time>
</trkpt>
<trkpt lat="49.1465690" lon="2.6649931">
<ele>100.64</ele>
<time>2018-12-30T12:09:03Z</time>
</trkpt>
<trkpt lat="49.1466102" lon="2.6649395">
<ele>100.69</ele>
<time>2018-12-30T12:09:11Z</time>
</trkpt>
<trkpt lat="49.1466513" lon="2.6648987">
<ele>99.92</ele>
<time>2018-12-30T12:09:13Z</time>
</trkpt>
<trkpt lat="49.1467200" lon="2.6648372">
<ele>99.64</ele>
<time>2018-12-30T12:09:15Z</time>
</trkpt>
<trkpt lat="49.1467603" lon="2.6647592">
<ele>98.92</ele>
<time>2018-12-30T12:09:16Z</time>
</trkpt>
<trkpt lat="49.1467956" lon="2.6646705">
<ele>98.70</ele>
<time>2018-12-30T12:09:17Z</time>
</trkpt>
<trkpt lat="49.1468576" lon="2.6645737">
<ele>97.94</ele>
<time>2018-12-30T12:09:18Z</time>
</trkpt>
<trkpt lat="49.1469159" lon="2.6644743">
<ele>97.71</ele>
<time>2018-12-30T12:09:19Z</time>
</trkpt>
<trkpt lat="49.1469839" lon="2.6643724">
<ele>97.64</ele>
<time>2018-12-30T12:09:20Z</time>
</trkpt>
<trkpt lat="49.1470537" lon="2.6642691">
<ele>96.92</ele>
<time>2018-12-30T12:09:21Z</time>
</trkpt>
<trkpt lat="49.1471238" lon="2.6641711">
<ele>96.70</ele>
<time>2018-12-30T12:09:22Z</time>
</trkpt>
<trkpt lat="49.1471811" lon="2.6640943">
<ele>96.64</ele>
<time>2018-12-30T12:09:23Z</time>
</trkpt>
<trkpt lat="49.1472312" lon="2.6640179">
<ele>95.92</ele>
<time>2018-12-30T12:09:24Z</time>
</trkpt>
<trkpt lat="49.1472724" lon="2.6639417">
<ele>95.70</ele>
<time>2018-12-30T12:09:25Z</time>
</trkpt>
<trkpt lat="49.1473200" lon="2.6638586">
<ele>94.94</ele>
<time>2018-12-30T12:09:26Z</time>
</trkpt>
<trkpt lat="49.1473686" lon="2.6637809">
<ele>94.71</ele>
<time>2018-12-30T12:09:27Z</time>
</trkpt>
<trkpt lat="49.1474227" lon="2.6637009">
<ele>93.94</ele>
<time>2018-12-30T12:09:28Z</time>
</trkpt>
<trkpt lat="49.1474738" lon="2.6636161">
<ele>93.71</ele>
<time>2018-12-30T12:09:29Z</time>
</trkpt>
<trkpt lat="49.1475267" lon="2.6635301">
<ele>92.94</ele>
<time>2018-12-30T12:09:30Z</time>
</trkpt>
<trkpt lat="49.1475803" lon="2.6634427">
<ele>92.01</ele>
<time>2018-12-30T12:09:31Z</time>
</trkpt>
<trkpt lat="49.1476265" lon="2.6633606">
<ele>91.03</ele>
<time>2018-12-30T12:09:32Z</time>
</trkpt>
<trkpt lat="49.1476735" lon="2.6632822">
<ele>89.34</ele>
<time>2018-12-30T12:09:33Z</time>
</trkpt>
<trkpt lat="49.1477211" lon="2.6632063">
<ele>88.83</ele>
<time>2018-12-30T12:09:34Z</time>
</trkpt>
<trkpt lat="49.1477678" lon="2.6631360">
<ele>87.98</ele>
<time>2018-12-30T12:09:35Z</time>
</trkpt>
<trkpt lat="49.1478140" lon="2.6630726">
<ele>87.72</ele>
<time>2018-12-30T12:09:36Z</time>
</trkpt>
<trkpt lat="49.1478556" lon="2.6630080">
<ele>87.64</ele>
<time>2018-12-30T12:09:37Z</time>
</trkpt>
<trkpt lat="49.1478935" lon="2.6629546">
<ele>87.62</ele>
<time>2018-12-30T12:09:38Z</time>
</trkpt>
<trkpt lat="49.1479328" lon="2.6628969">
<ele>86.91</ele>
<time>2018-12-30T12:09:39Z</time>
</trkpt>
<trkpt lat="49.1479744" lon="2.6628392">
<ele>86.70</ele>
<time>2018-12-30T12:09:40Z</time>
</trkpt>
<trkpt lat="49.1480148" lon="2.6627832">
<ele>86.64</ele>
<time>2018-12-30T12:09:41Z</time>
</trkpt>
<trkpt lat="49.1480519" lon="2.6627235">
<ele>86.62</ele>
<time>2018-12-30T12:09:42Z</time>
</trkpt>
<trkpt lat="49.1480932" lon="2.6626677">
<ele>85.91</ele>
<time>2018-12-30T12:09:43Z</time>
</trkpt>
<trkpt lat="49.1481341" lon="2.6626119">
<ele>85.70</ele>
<time>2018-12-30T12:09:44Z</time>
</trkpt>
<trkpt lat="49.1481735" lon="2.6625563">
<ele>84.94</ele>
<time>2018-12-30T12:09:45Z</time>
</trkpt>
<trkpt lat="49.1482136" lon="2.6624981">
<ele>84.71</ele>
<time>2018-12-30T12:09:46Z</time>
</trkpt>
<trkpt lat="49.1482526" lon="2.6624453">
<ele>84.64</ele>
<time>2018-12-30T12:09:47Z</time>
</trkpt>
<trkpt lat="49.1482892" lon="2.6623858">
<ele>83.92</ele>
<time>2018-12-30T12:09:48Z</time>
</trkpt>
<trkpt lat="49.1483263" lon="2.6623277">
<ele>83.70</ele>
<time>2018-12-30T12:09:49Z</time>
</trkpt>
<trkpt lat="49.1483641" lon="2.6622591">
<ele>83.64</ele>
<time>2018-12-30T12:09:50Z</time>
</trkpt>
<trkpt lat="49.1483984" lon="2.6621973">
<ele>82.92</ele>
<time>2018-12-30T12:09:51Z</time>
</trkpt>
<trkpt lat="49.1484368" lon="2.6621375">
<ele>82.70</ele>
<time>2018-12-30T12:09:52Z</time>
</trkpt>
<trkpt lat="49.1484735" lon="2.6620746">
<ele>82.64</ele>
<time>2018-12-30T12:09:53Z</time>
</trkpt>
<trkpt lat="49.1485115" lon="2.6620151">
<ele>81.92</ele>
<time>2018-12-30T12:09:54Z</time>
</trkpt>
<trkpt lat="49.1485458" lon="2.6619557">
<ele>81.70</ele>
<time>2018-12-30T12:09:55Z</time>
</trkpt>
<trkpt lat="49.1485808" lon="2.6619027">
<ele>81.64</ele>
<time>2018-12-30T12:09:56Z</time>
</trkpt>
<trkpt lat="49.1486280" lon="2.6618220">
<ele>80.91</ele>
<time>2018-12-30T12:09:58Z</time>
</trkpt>
<trkpt lat="49.1486751" lon="2.6617716">
<ele>79.73</ele>
<time>2018-12-30T12:10:00Z</time>
</trkpt>
<trkpt lat="49.1487238" lon="2.6617440">
<ele>79.61</ele>
<time>2018-12-30T12:10:55Z</time>
</trkpt>
<trkpt lat="49.1487645" lon="2.6616892">
<ele>78.62</ele>
<time>2018-12-30T12:10:59Z</time>
</trkpt>
<trkpt lat="49.1488065" lon="2.6616232">
<ele>77.70</ele>
<time>2018-12-30T12:11:01Z</time>
</trkpt>
<trkpt lat="49.1488552" lon="2.6615613">
<ele>77.62</ele>
<time>2018-12-30T12:11:03Z</time>
</trkpt>
<trkpt lat="49.1489018" lon="2.6615221">
<ele>77.61</ele>
<time>2018-12-30T12:11:05Z</time>
</trkpt>
<trkpt lat="49.1489537" lon="2.6614862">
<ele>77.61</ele>
<time>2018-12-30T12:11:07Z</time>
</trkpt>
<trkpt lat="49.1490127" lon="2.6614365">
<ele>77.61</ele>
<time>2018-12-30T12:11:09Z</time>
</trkpt>
<trkpt lat="49.1490768" lon="2.6613838">
<ele>77.61</ele>
<time>2018-12-30T12:11:11Z</time>
</trkpt>
<trkpt lat="49.1491495" lon="2.6613445">
<ele>77.61</ele>
<time>2018-12-30T12:11:13Z</time>
</trkpt>
<trkpt lat="49.1492008" lon="2.6613187">
<ele>77.61</ele>
<time>2018-12-30T12:11:14Z</time>
</trkpt>
<trkpt lat="49.1492426" lon="2.6612869">
<ele>76.91</ele>
<time>2018-12-30T12:11:15Z</time>
</trkpt>
<trkpt lat="49.1492857" lon="2.6612652">
<ele>76.00</ele>
<time>2018-12-30T12:11:16Z</time>
</trkpt>
<trkpt lat="49.1493679" lon="2.6612159">
<ele>74.95</ele>
<time>2018-12-30T12:11:18Z</time>
</trkpt>
<trkpt lat="49.1494200" lon="2.6611704">
<ele>74.01</ele>
<time>2018-12-30T12:11:19Z</time>
</trkpt>
<trkpt lat="49.1494719" lon="2.6611315">
<ele>73.73</ele>
<time>2018-12-30T12:11:20Z</time>
</trkpt>
<trkpt lat="49.1495148" lon="2.6610920">
<ele>72.95</ele>
<time>2018-12-30T12:11:21Z</time>
</trkpt>
<trkpt lat="49.1495642" lon="2.6610560">
<ele>73.41</ele>
<time>2018-12-30T12:11:22Z</time>
</trkpt>
<trkpt lat="49.1496097" lon="2.6610174">
<ele>73.55</ele>
<time>2018-12-30T12:11:23Z</time>
</trkpt>
<trkpt lat="49.1496506" lon="2.6609882">
<ele>73.59</ele>
<time>2018-12-30T12:11:24Z</time>
</trkpt>
<trkpt lat="49.1497161" lon="2.6609399">
<ele>73.61</ele>
<time>2018-12-30T12:11:26Z</time>
</trkpt>
<trkpt lat="49.1497699" lon="2.6609053">
<ele>73.61</ele>
<time>2018-12-30T12:11:28Z</time>
</trkpt>
<trkpt lat="49.1498241" lon="2.6608607">
<ele>73.61</ele>
<time>2018-12-30T12:11:30Z</time>
</trkpt>
<trkpt lat="49.1498814" lon="2.6608150">
<ele>73.61</ele>
<time>2018-12-30T12:11:32Z</time>
</trkpt>
<trkpt lat="49.1499442" lon="2.6607662">
<ele>73.61</ele>
<time>2018-12-30T12:11:34Z</time>
</trkpt>
<trkpt lat="49.1500179" lon="2.6607014">
<ele>73.61</ele>
<time>2018-12-30T12:11:36Z</time>
</trkpt>
<trkpt lat="49.1500637" lon="2.6606724">
<ele>73.61</ele>
<time>2018-12-30T12:11:37Z</time>
</trkpt>
<trkpt lat="49.1501086" lon="2.6606427">
<ele>72.91</ele>
<time>2018-12-30T12:11:38Z</time>
</trkpt>
<trkpt lat="49.1501539" lon="2.6606080">
<ele>73.40</ele>
<time>2018-12-30T12:11:39Z</time>
</trkpt>
<trkpt lat="49.1501956" lon="2.6605723">
<ele>72.85</ele>
<time>2018-12-30T12:11:40Z</time>
</trkpt>
<trkpt lat="49.1502404" lon="2.6605302">
<ele>72.68</ele>
<time>2018-12-30T12:11:41Z</time>
</trkpt>
<trkpt lat="49.1503156" lon="2.6604628">
<ele>71.92</ele>
<time>2018-12-30T12:11:43Z</time>
</trkpt>
<trkpt lat="49.1503604" lon="2.6604274">
<ele>71.70</ele>
<time>2018-12-30T12:11:44Z</time>
</trkpt>
<trkpt lat="49.1504050" lon="2.6603944">
<ele>71.64</ele>
<time>2018-12-30T12:11:45Z</time>
</trkpt>
<trkpt lat="49.1504829" lon="2.6603275">
<ele>71.61</ele>
<time>2018-12-30T12:11:47Z</time>
</trkpt>
<trkpt lat="49.1505234" lon="2.6602930">
<ele>71.61</ele>
<time>2018-12-30T12:11:48Z</time>
</trkpt>
<trkpt lat="49.1505658" lon="2.6602594">
<ele>71.61</ele>
<time>2018-12-30T12:11:49Z</time>
</trkpt>
<trkpt lat="49.1506125" lon="2.6602195">
<ele>72.31</ele>
<time>2018-12-30T12:11:50Z</time>
</trkpt>
<trkpt lat="49.1506584" lon="2.6601863">
<ele>72.52</ele>
<time>2018-12-30T12:11:51Z</time>
</trkpt>
<trkpt lat="49.1507014" lon="2.6601561">
<ele>72.58</ele>
<time>2018-12-30T12:11:52Z</time>
</trkpt>
<trkpt lat="49.1507549" lon="2.6601164">
<ele>72.60</ele>
<time>2018-12-30T12:11:53Z</time>
</trkpt>
<trkpt lat="49.1508009" lon="2.6600763">
<ele>72.61</ele>
<time>2018-12-30T12:11:54Z</time>
</trkpt>
<trkpt lat="49.1508448" lon="2.6600446">
<ele>72.61</ele>
<time>2018-12-30T12:11:55Z</time>
</trkpt>
<trkpt lat="49.1508906" lon="2.6600106">
<ele>72.61</ele>
<time>2018-12-30T12:11:56Z</time>
</trkpt>
<trkpt lat="49.1509317" lon="2.6599784">
<ele>71.91</ele>
<time>2018-12-30T12:11:57Z</time>
</trkpt>
<trkpt lat="49.1510034" lon="2.6599186">
<ele>72.55</ele>
<time>2018-12-30T12:11:59Z</time>
</trkpt>
<trkpt lat="49.1510605" lon="2.6598912">
<ele>72.61</ele>
<time>2018-12-30T12:12:01Z</time>
</trkpt>
<trkpt lat="49.1511047" lon="2.6598632">
<ele>73.61</ele>
<time>2018-12-30T12:12:24Z</time>
</trkpt>
<trkpt lat="49.1511596" lon="2.6598114">
<ele>73.61</ele>
<time>2018-12-30T12:12:26Z</time>
</trkpt>
<trkpt lat="49.1512264" lon="2.6597480">
<ele>73.61</ele>
<time>2018-12-30T12:12:28Z</time>
</trkpt>
<trkpt lat="49.1512710" lon="2.6597148">
<ele>74.31</ele>
<time>2018-12-30T12:12:29Z</time>
</trkpt>
<trkpt lat="49.1513131" lon="2.6596786">
<ele>73.82</ele>
<time>2018-12-30T12:12:30Z</time>
</trkpt>
<trkpt lat="49.1513561" lon="2.6596486">
<ele>73.67</ele>
<time>2018-12-30T12:12:31Z</time>
</trkpt>
<trkpt lat="49.1513985" lon="2.6596069">
<ele>73.63</ele>
<time>2018-12-30T12:12:32Z</time>
</trkpt>
<trkpt lat="49.1514449" lon="2.6595723">
<ele>73.62</ele>
<time>2018-12-30T12:12:33Z</time>
</trkpt>
<trkpt lat="49.1514897" lon="2.6595409">
<ele>73.61</ele>
<time>2018-12-30T12:12:34Z</time>
</trkpt>
<trkpt lat="49.1515305" lon="2.6595106">
<ele>73.61</ele>
<time>2018-12-30T12:12:35Z</time>
</trkpt>
<trkpt lat="49.1515783" lon="2.6594702">
<ele>73.61</ele>
<time>2018-12-30T12:12:36Z</time>
</trkpt>
<trkpt lat="49.1516322" lon="2.6594329">
<ele>73.61</ele>
<time>2018-12-30T12:12:37Z</time>
</trkpt>
<trkpt lat="49.1516756" lon="2.6594009">
<ele>73.61</ele>
<time>2018-12-30T12:12:38Z</time>
</trkpt>
<trkpt lat="49.1517524" lon="2.6593318">
<ele>74.31</ele>
<time>2018-12-30T12:12:40Z</time>
</trkpt>
<trkpt lat="49.1517946" lon="2.6593052">
<ele>74.52</ele>
<time>2018-12-30T12:12:41Z</time>
</trkpt>
<trkpt lat="49.1518575" lon="2.6592757">
<ele>75.51</ele>
<time>2018-12-30T12:12:43Z</time>
</trkpt>
<trkpt lat="49.1519150" lon="2.6592435">
<ele>75.60</ele>
<time>2018-12-30T12:12:45Z</time>
</trkpt>
<trkpt lat="49.1519803" lon="2.6591817">
<ele>74.91</ele>
<time>2018-12-30T12:12:47Z</time>
</trkpt>
<trkpt lat="49.1520391" lon="2.6591056">
<ele>74.64</ele>
<time>2018-12-30T12:12:49Z</time>
</trkpt>
<trkpt lat="49.1520894" lon="2.6590188">
<ele>73.91</ele>
<time>2018-12-30T12:12:51Z</time>
</trkpt>
<trkpt lat="49.1521634" lon="2.6589703">
<ele>74.34</ele>
<time>2018-12-30T12:12:53Z</time>
</trkpt>
<trkpt lat="49.1522467" lon="2.6589096">
<ele>74.38</ele>
<time>2018-12-30T12:12:55Z</time>
</trkpt>
<trkpt lat="49.1522883" lon="2.6588733">
<ele>74.54</ele>
<time>2018-12-30T12:12:56Z</time>
</trkpt>
<trkpt lat="49.1523621" lon="2.6587971">
<ele>74.60</ele>
<time>2018-12-30T12:12:58Z</time>
</trkpt>
<trkpt lat="49.1524014" lon="2.6587561">
<ele>74.61</ele>
<time>2018-12-30T12:12:59Z</time>
</trkpt>
<trkpt lat="49.1524442" lon="2.6587185">
<ele>73.91</ele>
<time>2018-12-30T12:13:00Z</time>
</trkpt>
<trkpt lat="49.1524849" lon="2.6586761">
<ele>73.00</ele>
<time>2018-12-30T12:13:01Z</time>
</trkpt>
<trkpt lat="49.1525320" lon="2.6586350">
<ele>72.73</ele>
<time>2018-12-30T12:13:02Z</time>
</trkpt>
<trkpt lat="49.1525780" lon="2.6585896">
<ele>72.65</ele>
<time>2018-12-30T12:13:03Z</time>
</trkpt>
<trkpt lat="49.1526393" lon="2.6585468">
<ele>72.62</ele>
<time>2018-12-30T12:13:04Z</time>
</trkpt>
<trkpt lat="49.1526961" lon="2.6585057">
<ele>72.61</ele>
<time>2018-12-30T12:13:05Z</time>
</trkpt>
<trkpt lat="49.1527524" lon="2.6584669">
<ele>71.91</ele>
<time>2018-12-30T12:13:06Z</time>
</trkpt>
<trkpt lat="49.1528081" lon="2.6584352">
<ele>71.70</ele>
<time>2018-12-30T12:13:07Z</time>
</trkpt>
<trkpt lat="49.1528621" lon="2.6584089">
<ele>71.64</ele>
<time>2018-12-30T12:13:08Z</time>
</trkpt>
<trkpt lat="49.1529112" lon="2.6583794">
<ele>71.62</ele>
<time>2018-12-30T12:13:09Z</time>
</trkpt>
<trkpt lat="49.1529630" lon="2.6583441">
<ele>71.61</ele>
<time>2018-12-30T12:13:10Z</time>
</trkpt>
<trkpt lat="49.1530074" lon="2.6583146">
<ele>70.91</ele>
<time>2018-12-30T12:13:11Z</time>
</trkpt>
<trkpt lat="49.1530539" lon="2.6582842">
<ele>70.70</ele>
<time>2018-12-30T12:13:12Z</time>
</trkpt>
<trkpt lat="49.1531016" lon="2.6582529">
<ele>70.64</ele>
<time>2018-12-30T12:13:13Z</time>
</trkpt>
<trkpt lat="49.1531471" lon="2.6582249">
<ele>70.62</ele>
<time>2018-12-30T12:13:14Z</time>
</trkpt>
<trkpt lat="49.1531909" lon="2.6581916">
<ele>70.61</ele>
<time>2018-12-30T12:13:15Z</time>
</trkpt>
<trkpt lat="49.1532379" lon="2.6581587">
<ele>70.61</ele>
<time>2018-12-30T12:13:16Z</time>
</trkpt>
<trkpt lat="49.1532836" lon="2.6581286">
<ele>70.61</ele>
<time>2018-12-30T12:13:17Z</time>
</trkpt>
<trkpt lat="49.1533310" lon="2.6580955">
<ele>69.91</ele>
<time>2018-12-30T12:13:18Z</time>
</trkpt>
<trkpt lat="49.1534210" lon="2.6580537">
<ele>70.55</ele>
<time>2018-12-30T12:13:20Z</time>
</trkpt>
<trkpt lat="49.1534661" lon="2.6580352">
<ele>70.59</ele>
<time>2018-12-30T12:13:21Z</time>
</trkpt>
<trkpt lat="49.1535125" lon="2.6580178">
<ele>70.61</ele>
<time>2018-12-30T12:13:22Z</time>
</trkpt>
<trkpt lat="49.1535578" lon="2.6580018">
<ele>70.61</ele>
<time>2018-12-30T12:13:23Z</time>
</trkpt>
<trkpt lat="49.1536071" lon="2.6579823">
<ele>70.61</ele>
<time>2018-12-30T12:13:24Z</time>
</trkpt>
<trkpt lat="49.1536601" lon="2.6579581">
<ele>70.61</ele>
<time>2018-12-30T12:13:25Z</time>
</trkpt>
<trkpt lat="49.1537123" lon="2.6579423">
<ele>70.61</ele>
<time>2018-12-30T12:13:26Z</time>
</trkpt>
<trkpt lat="49.1537615" lon="2.6579265">
<ele>70.61</ele>
<time>2018-12-30T12:13:27Z</time>
</trkpt>
<trkpt lat="49.1538479" lon="2.6579073">
<ele>69.70</ele>
<time>2018-12-30T12:13:29Z</time>
</trkpt>
<trkpt lat="49.1538953" lon="2.6578918">
<ele>69.64</ele>
<time>2018-12-30T12:13:30Z</time>
</trkpt>
<trkpt lat="49.1539850" lon="2.6578603">
<ele>69.61</ele>
<time>2018-12-30T12:13:32Z</time>
</trkpt>
<trkpt lat="49.1540695" lon="2.6578368">
<ele>69.61</ele>
<time>2018-12-30T12:13:34Z</time>
</trkpt>
<trkpt lat="49.1541132" lon="2.6578147">
<ele>69.61</ele>
<time>2018-12-30T12:13:35Z</time>
</trkpt>
<trkpt lat="49.1541568" lon="2.6577892">
<ele>69.61</ele>
<time>2018-12-30T12:13:36Z</time>
</trkpt>
<trkpt lat="49.1542452" lon="2.6577595">
<ele>69.61</ele>
<time>2018-12-30T12:13:38Z</time>
</trkpt>
<trkpt lat="49.1542958" lon="2.6577439">
<ele>69.61</ele>
<time>2018-12-30T12:13:39Z</time>
</trkpt>
<trkpt lat="49.1543451" lon="2.6577304">
<ele>70.31</ele>
<time>2018-12-30T12:13:40Z</time>
</trkpt>
<trkpt lat="49.1543972" lon="2.6577201">
<ele>69.82</ele>
<time>2018-12-30T12:13:41Z</time>
</trkpt>
<trkpt lat="49.1544461" lon="2.6577058">
<ele>70.37</ele>
<time>2018-12-30T12:13:42Z</time>
</trkpt>
<trkpt lat="49.1544971" lon="2.6576857">
<ele>70.54</ele>
<time>2018-12-30T12:13:43Z</time>
</trkpt>
<trkpt lat="49.1545472" lon="2.6576689">
<ele>69.89</ele>
<time>2018-12-30T12:13:44Z</time>
</trkpt>
<trkpt lat="49.1545992" lon="2.6576561">
<ele>69.69</ele>
<time>2018-12-30T12:13:45Z</time>
</trkpt>
<trkpt lat="49.1546551" lon="2.6576403">
<ele>70.34</ele>
<time>2018-12-30T12:13:46Z</time>
</trkpt>
<trkpt lat="49.1547024" lon="2.6576196">
<ele>70.53</ele>
<time>2018-12-30T12:13:47Z</time>
</trkpt>
<trkpt lat="49.1547528" lon="2.6576026">
<ele>70.59</ele>
<time>2018-12-30T12:13:48Z</time>
</trkpt>
<trkpt lat="49.1547996" lon="2.6575903">
<ele>70.60</ele>
<time>2018-12-30T12:13:49Z</time>
</trkpt>
<trkpt lat="49.1548473" lon="2.6575792">
<ele>70.61</ele>
<time>2018-12-30T12:13:50Z</time>
</trkpt>
<trkpt lat="49.1549000" lon="2.6575619">
<ele>70.61</ele>
<time>2018-12-30T12:13:51Z</time>
</trkpt>
<trkpt lat="49.1549553" lon="2.6575433">
<ele>70.61</ele>
<time>2018-12-30T12:13:52Z</time>
</trkpt>
<trkpt lat="49.1550069" lon="2.6575246">
<ele>70.61</ele>
<time>2018-12-30T12:13:53Z</time>
</trkpt>
<trkpt lat="49.1550568" lon="2.6575101">
<ele>70.61</ele>
<time>2018-12-30T12:13:54Z</time>
</trkpt>
<trkpt lat="49.1551053" lon="2.6574997">
<ele>70.61</ele>
<time>2018-12-30T12:13:55Z</time>
</trkpt>
<trkpt lat="49.1551540" lon="2.6574918">
<ele>70.61</ele>
<time>2018-12-30T12:13:56Z</time>
</trkpt>
<trkpt lat="49.1552067" lon="2.6574795">
<ele>70.61</ele>
<time>2018-12-30T12:13:57Z</time>
</trkpt>
<trkpt lat="49.1552587" lon="2.6574623">
<ele>70.61</ele>
<time>2018-12-30T12:13:58Z</time>
</trkpt>
<trkpt lat="49.1553075" lon="2.6574469">
<ele>70.61</ele>
<time>2018-12-30T12:13:59Z</time>
</trkpt>
<trkpt lat="49.1553565" lon="2.6574252">
<ele>70.61</ele>
<time>2018-12-30T12:14:00Z</time>
</trkpt>
<trkpt lat="49.1554032" lon="2.6574032">
<ele>70.61</ele>
<time>2018-12-30T12:14:01Z</time>
</trkpt>
<trkpt lat="49.1554498" lon="2.6573840">
<ele>70.61</ele>
<time>2018-12-30T12:14:02Z</time>
</trkpt>
<trkpt lat="49.1554954" lon="2.6573643">
<ele>70.61</ele>
<time>2018-12-30T12:14:03Z</time>
</trkpt>
<trkpt lat="49.1555391" lon="2.6573374">
<ele>70.61</ele>
<time>2018-12-30T12:14:04Z</time>
</trkpt>
<trkpt lat="49.1555828" lon="2.6573164">
<ele>70.61</ele>
<time>2018-12-30T12:14:05Z</time>
</trkpt>
<trkpt lat="49.1556287" lon="2.6572963">
<ele>70.61</ele>
<time>2018-12-30T12:14:06Z</time>
</trkpt>
<trkpt lat="49.1556724" lon="2.6572741">
<ele>70.61</ele>
<time>2018-12-30T12:14:07Z</time>
</trkpt>
<trkpt lat="49.1557181" lon="2.6572493">
<ele>71.31</ele>
<time>2018-12-30T12:14:08Z</time>
</trkpt>
<trkpt lat="49.1557614" lon="2.6572287">
<ele>71.52</ele>
<time>2018-12-30T12:14:09Z</time>
</trkpt>
<trkpt lat="49.1558480" lon="2.6571760">
<ele>71.60</ele>
<time>2018-12-30T12:14:11Z</time>
</trkpt>
<trkpt lat="49.1558924" lon="2.6571448">
<ele>71.61</ele>
<time>2018-12-30T12:14:12Z</time>
</trkpt>
<trkpt lat="49.1559709" lon="2.6570864">
<ele>71.61</ele>
<time>2018-12-30T12:14:14Z</time>
</trkpt>
<trkpt lat="49.1560455" lon="2.6570371">
<ele>71.61</ele>
<time>2018-12-30T12:14:16Z</time>
</trkpt>
<trkpt lat="49.1561111" lon="2.6570134">
<ele>71.61</ele>
<time>2018-12-30T12:14:18Z</time>
</trkpt>
<trkpt lat="49.1561729" lon="2.6569952">
<ele>71.61</ele>
<time>2018-12-30T12:14:20Z</time>
</trkpt>
<trkpt lat="49.1562340" lon="2.6569698">
<ele>71.61</ele>
<time>2018-12-30T12:14:22Z</time>
</trkpt>
<trkpt lat="49.1563114" lon="2.6569458">
<ele>71.61</ele>
<time>2018-12-30T12:14:24Z</time>
</trkpt>
<trkpt lat="49.1563856" lon="2.6569139">
<ele>72.31</ele>
<time>2018-12-30T12:14:26Z</time>
</trkpt>
<trkpt lat="49.1564624" lon="2.6568865">
<ele>71.67</ele>
<time>2018-12-30T12:14:28Z</time>
</trkpt>
<trkpt lat="49.1565288" lon="2.6568609">
<ele>72.32</ele>
<time>2018-12-30T12:14:30Z</time>
</trkpt>
<trkpt lat="49.1565904" lon="2.6568191">
<ele>72.58</ele>
<time>2018-12-30T12:14:32Z</time>
</trkpt>
<trkpt lat="49.1566567" lon="2.6567813">
<ele>72.61</ele>
<time>2018-12-30T12:14:34Z</time>
</trkpt>
<trkpt lat="49.1567248" lon="2.6567380">
<ele>72.61</ele>
<time>2018-12-30T12:14:36Z</time>
</trkpt>
<trkpt lat="49.1567648" lon="2.6567058">
<ele>72.61</ele>
<time>2018-12-30T12:14:37Z</time>
</trkpt>
<trkpt lat="49.1568062" lon="2.6566543">
<ele>72.61</ele>
<time>2018-12-30T12:14:38Z</time>
</trkpt>
<trkpt lat="49.1568749" lon="2.6565942">
<ele>72.61</ele>
<time>2018-12-30T12:14:40Z</time>
</trkpt>
<trkpt lat="49.1569408" lon="2.6565440">
<ele>72.61</ele>
<time>2018-12-30T12:14:42Z</time>
</trkpt>
<trkpt lat="49.1570059" lon="2.6565016">
<ele>73.52</ele>
<time>2018-12-30T12:14:44Z</time>
</trkpt>
<trkpt lat="49.1570794" lon="2.6564531">
<ele>73.60</ele>
<time>2018-12-30T12:14:46Z</time>
</trkpt>
<trkpt lat="49.1571486" lon="2.6564149">
<ele>74.52</ele>
<time>2018-12-30T12:14:48Z</time>
</trkpt>
<trkpt lat="49.1572068" lon="2.6563798">
<ele>74.60</ele>
<time>2018-12-30T12:14:50Z</time>
</trkpt>
<trkpt lat="49.1572678" lon="2.6563560">
<ele>74.61</ele>
<time>2018-12-30T12:14:52Z</time>
</trkpt>
<trkpt lat="49.1573293" lon="2.6563388">
<ele>75.31</ele>
<time>2018-12-30T12:14:54Z</time>
</trkpt>
<trkpt lat="49.1573889" lon="2.6563254">
<ele>75.58</ele>
<time>2018-12-30T12:14:56Z</time>
</trkpt>
<trkpt lat="49.1574362" lon="2.6563157">
<ele>75.61</ele>
<time>2018-12-30T12:14:58Z</time>
</trkpt>
<trkpt lat="49.1574978" lon="2.6563060">
<ele>75.61</ele>
<time>2018-12-30T12:15:00Z</time>
</trkpt>
<trkpt lat="49.1575575" lon="2.6562797">
<ele>76.52</ele>
<time>2018-12-30T12:15:02Z</time>
</trkpt>
<trkpt lat="49.1576269" lon="2.6562477">
<ele>76.60</ele>
<time>2018-12-30T12:15:04Z</time>
</trkpt>
<trkpt lat="49.1576914" lon="2.6562231">
<ele>76.61</ele>
<time>2018-12-30T12:15:06Z</time>
</trkpt>
<trkpt lat="49.1577550" lon="2.6561986">
<ele>76.61</ele>
<time>2018-12-30T12:15:08Z</time>
</trkpt>
<trkpt lat="49.1578190" lon="2.6561706">
<ele>77.52</ele>
<time>2018-12-30T12:15:10Z</time>
</trkpt>
<trkpt lat="49.1578875" lon="2.6561451">
<ele>77.60</ele>
<time>2018-12-30T12:15:12Z</time>
</trkpt>
<trkpt lat="49.1579527" lon="2.6561205">
<ele>77.61</ele>
<time>2018-12-30T12:15:14Z</time>
</trkpt>
<trkpt lat="49.1580056" lon="2.6560985">
<ele>78.52</ele>
<time>2018-12-30T12:15:16Z</time>
</trkpt>
<trkpt lat="49.1580659" lon="2.6560532">
<ele>78.60</ele>
<time>2018-12-30T12:15:18Z</time>
</trkpt>
<trkpt lat="49.1581323" lon="2.6560159">
<ele>77.70</ele>
<time>2018-12-30T12:15:20Z</time>
</trkpt>
<trkpt lat="49.1582080" lon="2.6559617">
<ele>77.62</ele>
<time>2018-12-30T12:15:22Z</time>
</trkpt>
<trkpt lat="49.1582861" lon="2.6559079">
<ele>77.61</ele>
<time>2018-12-30T12:15:24Z</time>
</trkpt>
<trkpt lat="49.1583270" lon="2.6558752">
<ele>78.31</ele>
<time>2018-12-30T12:15:25Z</time>
</trkpt>
<trkpt lat="49.1583901" lon="2.6558027">
<ele>78.58</ele>
<time>2018-12-30T12:15:27Z</time>
</trkpt>
<trkpt lat="49.1584516" lon="2.6557452">
<ele>78.61</ele>
<time>2018-12-30T12:15:29Z</time>
</trkpt>
<trkpt lat="49.1585122" lon="2.6556907">
<ele>78.61</ele>
<time>2018-12-30T12:15:31Z</time>
</trkpt>
<trkpt lat="49.1585850" lon="2.6556862">
<ele>78.61</ele>
<time>2018-12-30T12:15:33Z</time>
</trkpt>
<trkpt lat="49.1586364" lon="2.6557289">
<ele>78.61</ele>
<time>2018-12-30T12:15:35Z</time>
</trkpt>
<trkpt lat="49.1586750" lon="2.6557645">
<ele>78.61</ele>
<time>2018-12-30T12:15:37Z</time>
</trkpt>
<trkpt lat="49.1587046" lon="2.6558297">
<ele>76.79</ele>
<time>2018-12-30T12:15:40Z</time>
</trkpt>
<trkpt lat="49.1587195" lon="2.6559108">
<ele>75.62</ele>
<time>2018-12-30T12:17:18Z</time>
</trkpt>
<trkpt lat="49.1587253" lon="2.6559836">
<ele>74.91</ele>
<time>2018-12-30T12:17:20Z</time>
</trkpt>
<trkpt lat="49.1587460" lon="2.6560759">
<ele>74.64</ele>
<time>2018-12-30T12:17:22Z</time>
</trkpt>
<trkpt lat="49.1587728" lon="2.6561766">
<ele>74.61</ele>
<time>2018-12-30T12:17:24Z</time>
</trkpt>
<trkpt lat="49.1587979" lon="2.6563065">
<ele>75.31</ele>
<time>2018-12-30T12:17:26Z</time>
</trkpt>
<trkpt lat="49.1588152" lon="2.6564338">
<ele>76.49</ele>
<time>2018-12-30T12:17:28Z</time>
</trkpt>
<trkpt lat="49.1588489" lon="2.6565573">
<ele>76.60</ele>
<time>2018-12-30T12:17:30Z</time>
</trkpt>
<trkpt lat="49.1588662" lon="2.6566678">
<ele>76.61</ele>
<time>2018-12-30T12:17:32Z</time>
</trkpt>
<trkpt lat="49.1588979" lon="2.6567529">
<ele>76.61</ele>
<time>2018-12-30T12:17:34Z</time>
</trkpt>
<trkpt lat="49.1589256" lon="2.6568413">
<ele>76.61</ele>
<time>2018-12-30T12:17:36Z</time>
</trkpt>
<trkpt lat="49.1589588" lon="2.6569613">
<ele>75.70</ele>
<time>2018-12-30T12:17:38Z</time>
</trkpt>
<trkpt lat="49.1589715" lon="2.6570316">
<ele>75.64</ele>
<time>2018-12-30T12:17:39Z</time>
</trkpt>
<trkpt lat="49.1589882" lon="2.6571432">
<ele>74.70</ele>
<time>2018-12-30T12:17:41Z</time>
</trkpt>
<trkpt lat="49.1590022" lon="2.6572470">
<ele>74.62</ele>
<time>2018-12-30T12:17:43Z</time>
</trkpt>
<trkpt lat="49.1590180" lon="2.6573560">
<ele>74.61</ele>
<time>2018-12-30T12:17:45Z</time>
</trkpt>
<trkpt lat="49.1590319" lon="2.6574768">
<ele>73.70</ele>
<time>2018-12-30T12:17:47Z</time>
</trkpt>
<trkpt lat="49.1590551" lon="2.6576040">
<ele>73.62</ele>
<time>2018-12-30T12:17:49Z</time>
</trkpt>
<trkpt lat="49.1590949" lon="2.6577023">
<ele>72.70</ele>
<time>2018-12-30T12:17:51Z</time>
</trkpt>
<trkpt lat="49.1591289" lon="2.6578069">
<ele>72.62</ele>
<time>2018-12-30T12:17:53Z</time>
</trkpt>
<trkpt lat="49.1591535" lon="2.6579278">
<ele>71.91</ele>
<time>2018-12-30T12:17:55Z</time>
</trkpt>
<trkpt lat="49.1591872" lon="2.6580340">
<ele>71.64</ele>
<time>2018-12-30T12:17:57Z</time>
</trkpt>
<trkpt lat="49.1592011" lon="2.6581276">
<ele>71.61</ele>
<time>2018-12-30T12:17:59Z</time>
</trkpt>
<trkpt lat="49.1592159" lon="2.6582241">
<ele>71.61</ele>
<time>2018-12-30T12:18:01Z</time>
</trkpt>
<trkpt lat="49.1592341" lon="2.6583245">
<ele>71.61</ele>
<time>2018-12-30T12:18:03Z</time>
</trkpt>
<trkpt lat="49.1592524" lon="2.6584418">
<ele>70.70</ele>
<time>2018-12-30T12:18:05Z</time>
</trkpt>
<trkpt lat="49.1592719" lon="2.6585069">
<ele>70.64</ele>
<time>2018-12-30T12:18:06Z</time>
</trkpt>
<trkpt lat="49.1592921" lon="2.6585767">
<ele>70.62</ele>
<time>2018-12-30T12:18:07Z</time>
</trkpt>
<trkpt lat="49.1593107" lon="2.6586447">
<ele>70.61</ele>
<time>2018-12-30T12:18:08Z</time>
</trkpt>
<trkpt lat="49.1593275" lon="2.6587137">
<ele>70.61</ele>
<time>2018-12-30T12:18:09Z</time>
</trkpt>
<trkpt lat="49.1593411" lon="2.6587822">
<ele>71.31</ele>
<time>2018-12-30T12:18:10Z</time>
</trkpt>
<trkpt lat="49.1593550" lon="2.6589125">
<ele>71.58</ele>
<time>2018-12-30T12:18:12Z</time>
</trkpt>
<trkpt lat="49.1593782" lon="2.6590325">
<ele>71.61</ele>
<time>2018-12-30T12:18:14Z</time>
</trkpt>
<trkpt lat="49.1594141" lon="2.6591493">
<ele>71.61</ele>
<time>2018-12-30T12:18:16Z</time>
</trkpt>
<trkpt lat="49.1594444" lon="2.6592647">
<ele>70.70</ele>
<time>2018-12-30T12:18:18Z</time>
</trkpt>
<trkpt lat="49.1594647" lon="2.6593703">
<ele>69.92</ele>
<time>2018-12-30T12:18:20Z</time>
</trkpt>
<trkpt lat="49.1594959" lon="2.6594843">
<ele>69.64</ele>
<time>2018-12-30T12:18:22Z</time>
</trkpt>
<trkpt lat="49.1595096" lon="2.6595515">
<ele>69.62</ele>
<time>2018-12-30T12:18:23Z</time>
</trkpt>
<trkpt lat="49.1595187" lon="2.6596242">
<ele>69.61</ele>
<time>2018-12-30T12:18:24Z</time>
</trkpt>
<trkpt lat="49.1595288" lon="2.6596967">
<ele>69.61</ele>
<time>2018-12-30T12:18:25Z</time>
</trkpt>
<trkpt lat="49.1595488" lon="2.6597678">
<ele>69.61</ele>
<time>2018-12-30T12:18:26Z</time>
</trkpt>
<trkpt lat="49.1595657" lon="2.6598429">
<ele>68.91</ele>
<time>2018-12-30T12:18:27Z</time>
</trkpt>
<trkpt lat="49.1595783" lon="2.6599180">
<ele>68.70</ele>
<time>2018-12-30T12:18:28Z</time>
</trkpt>
<trkpt lat="49.1595914" lon="2.6599854">
<ele>67.94</ele>
<time>2018-12-30T12:18:29Z</time>
</trkpt>
<trkpt lat="49.1596089" lon="2.6600654">
<ele>67.71</ele>
<time>2018-12-30T12:18:30Z</time>
</trkpt>
<trkpt lat="49.1596218" lon="2.6601465">
<ele>66.94</ele>
<time>2018-12-30T12:18:31Z</time>
</trkpt>
<trkpt lat="49.1596336" lon="2.6602218">
<ele>66.71</ele>
<time>2018-12-30T12:18:32Z</time>
</trkpt>
<trkpt lat="49.1596526" lon="2.6602990">
<ele>66.64</ele>
<time>2018-12-30T12:18:33Z</time>
</trkpt>
<trkpt lat="49.1596678" lon="2.6603767">
<ele>66.62</ele>
<time>2018-12-30T12:18:34Z</time>
</trkpt>
<trkpt lat="49.1596813" lon="2.6604516">
<ele>66.61</ele>
<time>2018-12-30T12:18:35Z</time>
</trkpt>
<trkpt lat="49.1596978" lon="2.6605277">
<ele>66.61</ele>
<time>2018-12-30T12:18:36Z</time>
</trkpt>
<trkpt lat="49.1597134" lon="2.6605996">
<ele>66.61</ele>
<time>2018-12-30T12:18:37Z</time>
</trkpt>
<trkpt lat="49.1597479" lon="2.6607274">
<ele>66.61</ele>
<time>2018-12-30T12:18:39Z</time>
</trkpt>
<trkpt lat="49.1597614" lon="2.6607945">
<ele>66.61</ele>
<time>2018-12-30T12:18:40Z</time>
</trkpt>
<trkpt lat="49.1597766" lon="2.6608613">
<ele>66.61</ele>
<time>2018-12-30T12:18:41Z</time>
</trkpt>
<trkpt lat="49.1598020" lon="2.6609923">
<ele>66.61</ele>
<time>2018-12-30T12:18:43Z</time>
</trkpt>
<trkpt lat="49.1598254" lon="2.6611224">
<ele>66.61</ele>
<time>2018-12-30T12:18:45Z</time>
</trkpt>
<trkpt lat="49.1598593" lon="2.6612458">
<ele>66.61</ele>
<time>2018-12-30T12:18:47Z</time>
</trkpt>
<trkpt lat="49.1598915" lon="2.6613576">
<ele>67.52</ele>
<time>2018-12-30T12:18:49Z</time>
</trkpt>
<trkpt lat="49.1599219" lon="2.6614738">
<ele>67.60</ele>
<time>2018-12-30T12:18:51Z</time>
</trkpt>
<trkpt lat="49.1599497" lon="2.6615910">
<ele>67.61</ele>
<time>2018-12-30T12:18:53Z</time>
</trkpt>
<trkpt lat="49.1599729" lon="2.6617056">
<ele>67.61</ele>
<time>2018-12-30T12:18:55Z</time>
</trkpt>
<trkpt lat="49.1599898" lon="2.6618241">
<ele>67.61</ele>
<time>2018-12-30T12:18:57Z</time>
</trkpt>
<trkpt lat="49.1600030" lon="2.6619403">
<ele>66.70</ele>
<time>2018-12-30T12:18:59Z</time>
</trkpt>
<trkpt lat="49.1600231" lon="2.6620630">
<ele>66.62</ele>
<time>2018-12-30T12:19:01Z</time>
</trkpt>
<trkpt lat="49.1600458" lon="2.6621602">
<ele>67.31</ele>
<time>2018-12-30T12:19:03Z</time>
</trkpt>
<trkpt lat="49.1600685" lon="2.6622365">
<ele>67.58</ele>
<time>2018-12-30T12:19:05Z</time>
</trkpt>
<trkpt lat="49.1600910" lon="2.6623114">
<ele>67.61</ele>
<time>2018-12-30T12:19:07Z</time>
</trkpt>
<trkpt lat="49.1601197" lon="2.6624031">
<ele>67.61</ele>
<time>2018-12-30T12:19:09Z</time>
</trkpt>
<trkpt lat="49.1601481" lon="2.6625042">
<ele>67.61</ele>
<time>2018-12-30T12:19:11Z</time>
</trkpt>
<trkpt lat="49.1601486" lon="2.6625770">
<ele>67.61</ele>
<time>2018-12-30T12:19:12Z</time>
</trkpt>
<trkpt lat="49.1601509" lon="2.6626983">
<ele>68.52</ele>
<time>2018-12-30T12:19:14Z</time>
</trkpt>
<trkpt lat="49.1601582" lon="2.6628224">
<ele>68.60</ele>
<time>2018-12-30T12:19:16Z</time>
</trkpt>
<trkpt lat="49.1601737" lon="2.6629416">
<ele>68.61</ele>
<time>2018-12-30T12:19:18Z</time>
</trkpt>
<trkpt lat="49.1602183" lon="2.6630092">
<ele>68.61</ele>
<time>2018-12-30T12:19:20Z</time>
</trkpt>
<trkpt lat="49.1602509" lon="2.6630944">
<ele>68.61</ele>
<time>2018-12-30T12:19:22Z</time>
</trkpt>
<trkpt lat="49.1602767" lon="2.6631934">
<ele>68.61</ele>
<time>2018-12-30T12:19:24Z</time>
</trkpt>
<trkpt lat="49.1602914" lon="2.6632933">
<ele>68.61</ele>
<time>2018-12-30T12:19:26Z</time>
</trkpt>
<trkpt lat="49.1603159" lon="2.6634104">
<ele>68.61</ele>
<time>2018-12-30T12:19:28Z</time>
</trkpt>
<trkpt lat="49.1603330" lon="2.6634771">
<ele>68.61</ele>
<time>2018-12-30T12:19:29Z</time>
</trkpt>
<trkpt lat="49.1603495" lon="2.6635601">
<ele>68.61</ele>
<time>2018-12-30T12:19:30Z</time>
</trkpt>
<trkpt lat="49.1603729" lon="2.6636347">
<ele>69.31</ele>
<time>2018-12-30T12:19:31Z</time>
</trkpt>
<trkpt lat="49.1603827" lon="2.6637075">
<ele>69.52</ele>
<time>2018-12-30T12:19:32Z</time>
</trkpt>
<trkpt lat="49.1604067" lon="2.6638267">
<ele>69.60</ele>
<time>2018-12-30T12:19:34Z</time>
</trkpt>
<trkpt lat="49.1604337" lon="2.6639508">
<ele>69.61</ele>
<time>2018-12-30T12:19:36Z</time>
</trkpt>
<trkpt lat="49.1604589" lon="2.6640626">
<ele>70.52</ele>
<time>2018-12-30T12:19:38Z</time>
</trkpt>
<trkpt lat="49.1604764" lon="2.6641297">
<ele>70.58</ele>
<time>2018-12-30T12:19:39Z</time>
</trkpt>
<trkpt lat="49.1605013" lon="2.6642520">
<ele>70.61</ele>
<time>2018-12-30T12:19:41Z</time>
</trkpt>
<trkpt lat="49.1605163" lon="2.6643222">
<ele>70.61</ele>
<time>2018-12-30T12:19:42Z</time>
</trkpt>
<trkpt lat="49.1605363" lon="2.6643910">
<ele>69.91</ele>
<time>2018-12-30T12:19:43Z</time>
</trkpt>
<trkpt lat="49.1605548" lon="2.6644618">
<ele>69.00</ele>
<time>2018-12-30T12:19:44Z</time>
</trkpt>
<trkpt lat="49.1605700" lon="2.6645308">
<ele>68.73</ele>
<time>2018-12-30T12:19:45Z</time>
</trkpt>
<trkpt lat="49.1605975" lon="2.6646501">
<ele>68.62</ele>
<time>2018-12-30T12:19:47Z</time>
</trkpt>
<trkpt lat="49.1606269" lon="2.6647496">
<ele>68.61</ele>
<time>2018-12-30T12:19:49Z</time>
</trkpt>
<trkpt lat="49.1606475" lon="2.6648621">
<ele>69.52</ele>
<time>2018-12-30T12:19:51Z</time>
</trkpt>
<trkpt lat="49.1606633" lon="2.6649765">
<ele>69.60</ele>
<time>2018-12-30T12:19:53Z</time>
</trkpt>
<trkpt lat="49.1606863" lon="2.6650737">
<ele>68.70</ele>
<time>2018-12-30T12:19:55Z</time>
</trkpt>
<trkpt lat="49.1607140" lon="2.6651517">
<ele>69.32</ele>
<time>2018-12-30T12:19:57Z</time>
</trkpt>
<trkpt lat="49.1607468" lon="2.6652300">
<ele>69.37</ele>
<time>2018-12-30T12:19:59Z</time>
</trkpt>
<trkpt lat="49.1607624" lon="2.6653140">
<ele>69.60</ele>
<time>2018-12-30T12:20:02Z</time>
</trkpt>
<trkpt lat="49.1607689" lon="2.6653896">
<ele>69.61</ele>
<time>2018-12-30T12:20:04Z</time>
</trkpt>
<trkpt lat="49.1607647" lon="2.6654779">
<ele>69.61</ele>
<time>2018-12-30T12:20:06Z</time>
</trkpt>
<trkpt lat="49.1607515" lon="2.6655831">
<ele>69.61</ele>
<time>2018-12-30T12:20:09Z</time>
</trkpt>
<trkpt lat="49.1607098" lon="2.6656486">
<ele>70.58</ele>
<time>2018-12-30T12:20:13Z</time>
</trkpt>
<trkpt lat="49.1606536" lon="2.6656520">
<ele>69.64</ele>
<time>2018-12-30T12:20:16Z</time>
</trkpt>
<trkpt lat="49.1605834" lon="2.6656773">
<ele>69.61</ele>
<time>2018-12-30T12:20:19Z</time>
</trkpt>
<trkpt lat="49.1605145" lon="2.6657036">
<ele>69.61</ele>
<time>2018-12-30T12:20:21Z</time>
</trkpt>
<trkpt lat="49.1604321" lon="2.6657327">
<ele>69.61</ele>
<time>2018-12-30T12:20:23Z</time>
</trkpt>
<trkpt lat="49.1603510" lon="2.6657830">
<ele>70.52</ele>
<time>2018-12-30T12:20:25Z</time>
</trkpt>
<trkpt lat="49.1602750" lon="2.6658351">
<ele>70.60</ele>
<time>2018-12-30T12:20:27Z</time>
</trkpt>
<trkpt lat="49.1601872" lon="2.6658433">
<ele>70.61</ele>
<time>2018-12-30T12:20:29Z</time>
</trkpt>
<trkpt lat="49.1601069" lon="2.6658011">
<ele>70.61</ele>
<time>2018-12-30T12:20:31Z</time>
</trkpt>
<trkpt lat="49.1600233" lon="2.6657832">
<ele>69.70</ele>
<time>2018-12-30T12:20:33Z</time>
</trkpt>
<trkpt lat="49.1599522" lon="2.6658243">
<ele>69.62</ele>
<time>2018-12-30T12:20:35Z</time>
</trkpt>
<trkpt lat="49.1598987" lon="2.6659099">
<ele>70.52</ele>
<time>2018-12-30T12:20:37Z</time>
</trkpt>
<trkpt lat="49.1598626" lon="2.6660133">
<ele>70.60</ele>
<time>2018-12-30T12:20:39Z</time>
</trkpt>
<trkpt lat="49.1598285" lon="2.6661251">
<ele>71.31</ele>
<time>2018-12-30T12:20:41Z</time>
</trkpt>
<trkpt lat="49.1597784" lon="2.6662200">
<ele>71.58</ele>
<time>2018-12-30T12:20:43Z</time>
</trkpt>
<trkpt lat="49.1597163" lon="2.6663038">
<ele>71.61</ele>
<time>2018-12-30T12:20:45Z</time>
</trkpt>
<trkpt lat="49.1596524" lon="2.6663860">
<ele>71.61</ele>
<time>2018-12-30T12:20:47Z</time>
</trkpt>
<trkpt lat="49.1595939" lon="2.6664629">
<ele>71.40</ele>
<time>2018-12-30T12:20:49Z</time>
</trkpt>
<trkpt lat="49.1595376" lon="2.6665360">
<ele>71.59</ele>
<time>2018-12-30T12:20:51Z</time>
</trkpt>
<trkpt lat="49.1594700" lon="2.6665942">
<ele>71.61</ele>
<time>2018-12-30T12:20:53Z</time>
</trkpt>
<trkpt lat="49.1594114" lon="2.6666217">
<ele>71.61</ele>
<time>2018-12-30T12:20:55Z</time>
</trkpt>
<trkpt lat="49.1593567" lon="2.6666511">
<ele>71.61</ele>
<time>2018-12-30T12:20:58Z</time>
</trkpt>
<trkpt lat="49.1592920" lon="2.6666572">
<ele>71.61</ele>
<time>2018-12-30T12:21:01Z</time>
</trkpt>
<trkpt lat="49.1592403" lon="2.6666618">
<ele>71.61</ele>
<time>2018-12-30T12:21:03Z</time>
</trkpt>
<trkpt lat="49.1591866" lon="2.6666415">
<ele>72.31</ele>
<time>2018-12-30T12:21:06Z</time>
</trkpt>
<trkpt lat="49.1591282" lon="2.6666271">
<ele>71.88</ele>
<time>2018-12-30T12:21:08Z</time>
</trkpt>
<trkpt lat="49.1590481" lon="2.6666116">
<ele>71.64</ele>
<time>2018-12-30T12:21:10Z</time>
</trkpt>
<trkpt lat="49.1589716" lon="2.6665954">
<ele>71.61</ele>
<time>2018-12-30T12:21:12Z</time>
</trkpt>
<trkpt lat="49.1588908" lon="2.6665791">
<ele>72.31</ele>
<time>2018-12-30T12:21:14Z</time>
</trkpt>
<trkpt lat="49.1588227" lon="2.6665704">
<ele>72.58</ele>
<time>2018-12-30T12:21:16Z</time>
</trkpt>
<trkpt lat="49.1587556" lon="2.6665772">
<ele>72.61</ele>
<time>2018-12-30T12:21:18Z</time>
</trkpt>
<trkpt lat="49.1586992" lon="2.6665974">
<ele>72.61</ele>
<time>2018-12-30T12:21:20Z</time>
</trkpt>
<trkpt lat="49.1586378" lon="2.6666133">
<ele>72.61</ele>
<time>2018-12-30T12:21:22Z</time>
</trkpt>
<trkpt lat="49.1585899" lon="2.6666261">
<ele>72.61</ele>
<time>2018-12-30T12:21:24Z</time>
</trkpt>
<trkpt lat="49.1585390" lon="2.6666357">
<ele>73.52</ele>
<time>2018-12-30T12:21:26Z</time>
</trkpt>
<trkpt lat="49.1584827" lon="2.6666509">
<ele>73.60</ele>
<time>2018-12-30T12:21:28Z</time>
</trkpt>
<trkpt lat="49.1584318" lon="2.6666913">
<ele>74.52</ele>
<time>2018-12-30T12:21:30Z</time>
</trkpt>
<trkpt lat="49.1583752" lon="2.6667364">
<ele>74.60</ele>
<time>2018-12-30T12:21:32Z</time>
</trkpt>
<trkpt lat="49.1583158" lon="2.6667825">
<ele>74.61</ele>
<time>2018-12-30T12:21:34Z</time>
</trkpt>
<trkpt lat="49.1582498" lon="2.6668494">
<ele>74.61</ele>
<time>2018-12-30T12:21:36Z</time>
</trkpt>
<trkpt lat="49.1582087" lon="2.6669306">
<ele>75.31</ele>
<time>2018-12-30T12:21:38Z</time>
</trkpt>
<trkpt lat="49.1581703" lon="2.6670251">
<ele>74.67</ele>
<time>2018-12-30T12:21:40Z</time>
</trkpt>
<trkpt lat="49.1581241" lon="2.6671130">
<ele>74.62</ele>
<time>2018-12-30T12:21:42Z</time>
</trkpt>
<trkpt lat="49.1580685" lon="2.6671935">
<ele>74.61</ele>
<time>2018-12-30T12:21:44Z</time>
</trkpt>
<trkpt lat="49.1580097" lon="2.6672680">
<ele>75.31</ele>
<time>2018-12-30T12:21:46Z</time>
</trkpt>
<trkpt lat="49.1579476" lon="2.6673329">
<ele>75.58</ele>
<time>2018-12-30T12:21:48Z</time>
</trkpt>
<trkpt lat="49.1578778" lon="2.6673782">
<ele>75.61</ele>
<time>2018-12-30T12:21:50Z</time>
</trkpt>
<trkpt lat="49.1578033" lon="2.6674062">
<ele>75.61</ele>
<time>2018-12-30T12:21:52Z</time>
</trkpt>
<trkpt lat="49.1577326" lon="2.6674424">
<ele>75.61</ele>
<time>2018-12-30T12:21:54Z</time>
</trkpt>
<trkpt lat="49.1576690" lon="2.6674937">
<ele>74.91</ele>
<time>2018-12-30T12:21:56Z</time>
</trkpt>
<trkpt lat="49.1576079" lon="2.6675491">
<ele>74.64</ele>
<time>2018-12-30T12:21:58Z</time>
</trkpt>
<trkpt lat="49.1575564" lon="2.6676102">
<ele>74.61</ele>
<time>2018-12-30T12:22:00Z</time>
</trkpt>
<trkpt lat="49.1575199" lon="2.6676790">
<ele>74.61</ele>
<time>2018-12-30T12:22:02Z</time>
</trkpt>
<trkpt lat="49.1574878" lon="2.6677654">
<ele>74.61</ele>
<time>2018-12-30T12:22:04Z</time>
</trkpt>
<trkpt lat="49.1574676" lon="2.6678638">
<ele>73.91</ele>
<time>2018-12-30T12:22:06Z</time>
</trkpt>
<trkpt lat="49.1574461" lon="2.6679549">
<ele>74.55</ele>
<time>2018-12-30T12:22:08Z</time>
</trkpt>
<trkpt lat="49.1574248" lon="2.6680357">
<ele>74.61</ele>
<time>2018-12-30T12:22:10Z</time>
</trkpt>
<trkpt lat="49.1574038" lon="2.6680998">
<ele>73.91</ele>
<time>2018-12-30T12:22:13Z</time>
</trkpt>
<trkpt lat="49.1574290" lon="2.6681585">
<ele>73.62</ele>
<time>2018-12-30T12:22:16Z</time>
</trkpt>
<trkpt lat="49.1574737" lon="2.6682036">
<ele>73.61</ele>
<time>2018-12-30T12:22:19Z</time>
</trkpt>
<trkpt lat="49.1575142" lon="2.6682878">
<ele>73.61</ele>
<time>2018-12-30T12:22:22Z</time>
</trkpt>
<trkpt lat="49.1575501" lon="2.6683509">
<ele>72.91</ele>
<time>2018-12-30T12:22:24Z</time>
</trkpt>
<trkpt lat="49.1575725" lon="2.6684399">
<ele>72.64</ele>
<time>2018-12-30T12:22:26Z</time>
</trkpt>
<trkpt lat="49.1575920" lon="2.6685359">
<ele>72.61</ele>
<time>2018-12-30T12:22:28Z</time>
</trkpt>
<trkpt lat="49.1575953" lon="2.6686214">
<ele>72.61</ele>
<time>2018-12-30T12:22:30Z</time>
</trkpt>
<trkpt lat="49.1576134" lon="2.6687071">
<ele>71.91</ele>
<time>2018-12-30T12:22:32Z</time>
</trkpt>
<trkpt lat="49.1576418" lon="2.6688055">
<ele>71.64</ele>
<time>2018-12-30T12:22:34Z</time>
</trkpt>
<trkpt lat="49.1576761" lon="2.6689080">
<ele>70.91</ele>
<time>2018-12-30T12:22:36Z</time>
</trkpt>
<trkpt lat="49.1577272" lon="2.6689846">
<ele>70.64</ele>
<time>2018-12-30T12:22:38Z</time>
</trkpt>
<trkpt lat="49.1577931" lon="2.6690431">
<ele>69.70</ele>
<time>2018-12-30T12:22:40Z</time>
</trkpt>
<trkpt lat="49.1578600" lon="2.6690970">
<ele>69.62</ele>
<time>2018-12-30T12:22:42Z</time>
</trkpt>
<trkpt lat="49.1579333" lon="2.6691312">
<ele>69.61</ele>
<time>2018-12-30T12:22:44Z</time>
</trkpt>
<trkpt lat="49.1580165" lon="2.6691469">
<ele>69.61</ele>
<time>2018-12-30T12:22:46Z</time>
</trkpt>
<trkpt lat="49.1581006" lon="2.6691833">
<ele>70.52</ele>
<time>2018-12-30T12:22:48Z</time>
</trkpt>
<trkpt lat="49.1581719" lon="2.6692087">
<ele>70.60</ele>
<time>2018-12-30T12:22:50Z</time>
</trkpt>
<trkpt lat="49.1582535" lon="2.6692338">
<ele>70.61</ele>
<time>2018-12-30T12:22:52Z</time>
</trkpt>
<trkpt lat="49.1583236" lon="2.6692597">
<ele>69.70</ele>
<time>2018-12-30T12:22:54Z</time>
</trkpt>
<trkpt lat="49.1584041" lon="2.6692726">
<ele>69.62</ele>
<time>2018-12-30T12:22:56Z</time>
</trkpt>
<trkpt lat="49.1584547" lon="2.6692556">
<ele>71.01</ele>
<time>2018-12-30T12:22:57Z</time>
</trkpt>
<trkpt lat="49.1585068" lon="2.6692404">
<ele>71.43</ele>
<time>2018-12-30T12:22:58Z</time>
</trkpt>
<trkpt lat="49.1585545" lon="2.6692335">
<ele>72.26</ele>
<time>2018-12-30T12:22:59Z</time>
</trkpt>
<trkpt lat="49.1585999" lon="2.6692333">
<ele>73.20</ele>
<time>2018-12-30T12:23:00Z</time>
</trkpt>
<trkpt lat="49.1586499" lon="2.6692401">
<ele>73.49</ele>
<time>2018-12-30T12:23:01Z</time>
</trkpt>
<trkpt lat="49.1586990" lon="2.6692498">
<ele>73.57</ele>
<time>2018-12-30T12:23:02Z</time>
</trkpt>
<trkpt lat="49.1587518" lon="2.6692645">
<ele>73.60</ele>
<time>2018-12-30T12:23:03Z</time>
</trkpt>
<trkpt lat="49.1587990" lon="2.6692807">
<ele>72.91</ele>
<time>2018-12-30T12:23:04Z</time>
</trkpt>
<trkpt lat="49.1588719" lon="2.6692995">
<ele>72.64</ele>
<time>2018-12-30T12:23:06Z</time>
</trkpt>
<trkpt lat="49.1589211" lon="2.6693650">
<ele>72.61</ele>
<time>2018-12-30T12:23:08Z</time>
</trkpt>
<trkpt lat="49.1589257" lon="2.6694852">
<ele>72.61</ele>
<time>2018-12-30T12:23:10Z</time>
</trkpt>
<trkpt lat="49.1589065" lon="2.6696020">
<ele>72.61</ele>
<time>2018-12-30T12:23:12Z</time>
</trkpt>
<trkpt lat="49.1588919" lon="2.6697151">
<ele>72.61</ele>
<time>2018-12-30T12:23:14Z</time>
</trkpt>
<trkpt lat="49.1588572" lon="2.6698331">
<ele>72.61</ele>
<time>2018-12-30T12:23:16Z</time>
</trkpt>
<trkpt lat="49.1588404" lon="2.6699084">
<ele>72.61</ele>
<time>2018-12-30T12:23:17Z</time>
</trkpt>
<trkpt lat="49.1588195" lon="2.6700325">
<ele>72.61</ele>
<time>2018-12-30T12:23:19Z</time>
</trkpt>
<trkpt lat="49.1588053" lon="2.6701449">
<ele>72.61</ele>
<time>2018-12-30T12:23:21Z</time>
</trkpt>
<trkpt lat="49.1587857" lon="2.6702749">
<ele>73.52</ele>
<time>2018-12-30T12:23:23Z</time>
</trkpt>
<trkpt lat="49.1587770" lon="2.6704044">
<ele>73.60</ele>
<time>2018-12-30T12:23:25Z</time>
</trkpt>
<trkpt lat="49.1587655" lon="2.6705245">
<ele>72.91</ele>
<time>2018-12-30T12:23:27Z</time>
</trkpt>
<trkpt lat="49.1587378" lon="2.6706428">
<ele>72.64</ele>
<time>2018-12-30T12:23:29Z</time>
</trkpt>
<trkpt lat="49.1587222" lon="2.6707716">
<ele>72.61</ele>
<time>2018-12-30T12:23:31Z</time>
</trkpt>
<trkpt lat="49.1587035" lon="2.6708947">
<ele>72.61</ele>
<time>2018-12-30T12:23:33Z</time>
</trkpt>
<trkpt lat="49.1586860" lon="2.6710080">
<ele>72.61</ele>
<time>2018-12-30T12:23:35Z</time>
</trkpt>
<trkpt lat="49.1586688" lon="2.6711136">
<ele>72.61</ele>
<time>2018-12-30T12:23:37Z</time>
</trkpt>
<trkpt lat="49.1586538" lon="2.6712423">
<ele>72.61</ele>
<time>2018-12-30T12:23:39Z</time>
</trkpt>
<trkpt lat="49.1586367" lon="2.6713778">
<ele>73.52</ele>
<time>2018-12-30T12:23:41Z</time>
</trkpt>
<trkpt lat="49.1586061" lon="2.6714851">
<ele>73.60</ele>
<time>2018-12-30T12:23:43Z</time>
</trkpt>
<trkpt lat="49.1585798" lon="2.6715861">
<ele>72.70</ele>
<time>2018-12-30T12:23:45Z</time>
</trkpt>
<trkpt lat="49.1585627" lon="2.6716837">
<ele>73.32</ele>
<time>2018-12-30T12:23:47Z</time>
</trkpt>
<trkpt lat="49.1585411" lon="2.6717991">
<ele>73.58</ele>
<time>2018-12-30T12:23:49Z</time>
</trkpt>
<trkpt lat="49.1585232" lon="2.6719155">
<ele>74.52</ele>
<time>2018-12-30T12:23:51Z</time>
</trkpt>
<trkpt lat="49.1585059" lon="2.6720309">
<ele>74.60</ele>
<time>2018-12-30T12:23:53Z</time>
</trkpt>
<trkpt lat="49.1584887" lon="2.6721549">
<ele>74.61</ele>
<time>2018-12-30T12:23:55Z</time>
</trkpt>
<trkpt lat="49.1584708" lon="2.6722725">
<ele>74.61</ele>
<time>2018-12-30T12:23:57Z</time>
</trkpt>
<trkpt lat="49.1584600" lon="2.6723446">
<ele>74.61</ele>
<time>2018-12-30T12:23:58Z</time>
</trkpt>
<trkpt lat="49.1584388" lon="2.6724574">
<ele>74.61</ele>
<time>2018-12-30T12:24:00Z</time>
</trkpt>
<trkpt lat="49.1584138" lon="2.6725515">
<ele>74.61</ele>
<time>2018-12-30T12:24:02Z</time>
</trkpt>
<trkpt lat="49.1583894" lon="2.6726578">
<ele>74.61</ele>
<time>2018-12-30T12:24:04Z</time>
</trkpt>
<trkpt lat="49.1583822" lon="2.6727704">
<ele>74.61</ele>
<time>2018-12-30T12:24:06Z</time>
</trkpt>
<trkpt lat="49.1583659" lon="2.6729008">
<ele>74.61</ele>
<time>2018-12-30T12:24:08Z</time>
</trkpt>
<trkpt lat="49.1583566" lon="2.6729784">
<ele>75.31</ele>
<time>2018-12-30T12:24:09Z</time>
</trkpt>
<trkpt lat="49.1583498" lon="2.6730639">
<ele>75.52</ele>
<time>2018-12-30T12:24:10Z</time>
</trkpt>
<trkpt lat="49.1583429" lon="2.6731881">
<ele>74.90</ele>
<time>2018-12-30T12:24:12Z</time>
</trkpt>
<trkpt lat="49.1583329" lon="2.6733120">
<ele>74.64</ele>
<time>2018-12-30T12:24:14Z</time>
</trkpt>
<trkpt lat="49.1583260" lon="2.6733868">
<ele>74.62</ele>
<time>2018-12-30T12:24:15Z</time>
</trkpt>
<trkpt lat="49.1583115" lon="2.6734634">
<ele>73.91</ele>
<time>2018-12-30T12:24:16Z</time>
</trkpt>
<trkpt lat="49.1582946" lon="2.6735357">
<ele>74.40</ele>
<time>2018-12-30T12:24:17Z</time>
</trkpt>
<trkpt lat="49.1582788" lon="2.6736125">
<ele>74.55</ele>
<time>2018-12-30T12:24:18Z</time>
</trkpt>
<trkpt lat="49.1582646" lon="2.6736856">
<ele>74.59</ele>
<time>2018-12-30T12:24:19Z</time>
</trkpt>
<trkpt lat="49.1582510" lon="2.6737629">
<ele>74.61</ele>
<time>2018-12-30T12:24:20Z</time>
</trkpt>
<trkpt lat="49.1582234" lon="2.6738985">
<ele>74.61</ele>
<time>2018-12-30T12:24:22Z</time>
</trkpt>
<trkpt lat="49.1582071" lon="2.6739707">
<ele>74.61</ele>
<time>2018-12-30T12:24:23Z</time>
</trkpt>
<trkpt lat="49.1581966" lon="2.6740377">
<ele>74.61</ele>
<time>2018-12-30T12:24:24Z</time>
</trkpt>
<trkpt lat="49.1581840" lon="2.6741609">
<ele>74.61</ele>
<time>2018-12-30T12:24:26Z</time>
</trkpt>
<trkpt lat="49.1581691" lon="2.6742883">
<ele>75.31</ele>
<time>2018-12-30T12:24:28Z</time>
</trkpt>
<trkpt lat="49.1581475" lon="2.6743983">
<ele>75.58</ele>
<time>2018-12-30T12:24:30Z</time>
</trkpt>
<trkpt lat="49.1581313" lon="2.6744902">
<ele>75.61</ele>
<time>2018-12-30T12:24:32Z</time>
</trkpt>
<trkpt lat="49.1581206" lon="2.6745967">
<ele>75.61</ele>
<time>2018-12-30T12:24:34Z</time>
</trkpt>
<trkpt lat="49.1581089" lon="2.6747003">
<ele>75.61</ele>
<time>2018-12-30T12:24:36Z</time>
</trkpt>
<trkpt lat="49.1580913" lon="2.6747922">
<ele>75.61</ele>
<time>2018-12-30T12:24:38Z</time>
</trkpt>
<trkpt lat="49.1580596" lon="2.6748910">
<ele>75.40</ele>
<time>2018-12-30T12:24:40Z</time>
</trkpt>
<trkpt lat="49.1580063" lon="2.6749789">
<ele>75.59</ele>
<time>2018-12-30T12:24:42Z</time>
</trkpt>
<trkpt lat="49.1579459" lon="2.6750328">
<ele>75.61</ele>
<time>2018-12-30T12:24:44Z</time>
</trkpt>
<trkpt lat="49.1578584" lon="2.6750981">
<ele>75.61</ele>
<time>2018-12-30T12:24:46Z</time>
</trkpt>
<trkpt lat="49.1578158" lon="2.6751332">
<ele>75.61</ele>
<time>2018-12-30T12:24:47Z</time>
</trkpt>
<trkpt lat="49.1577693" lon="2.6751538">
<ele>75.61</ele>
<time>2018-12-30T12:24:48Z</time>
</trkpt>
<trkpt lat="49.1576946" lon="2.6751785">
<ele>76.31</ele>
<time>2018-12-30T12:24:50Z</time>
</trkpt>
<trkpt lat="49.1576251" lon="2.6751923">
<ele>76.58</ele>
<time>2018-12-30T12:24:52Z</time>
</trkpt>
<trkpt lat="49.1575517" lon="2.6752152">
<ele>76.61</ele>
<time>2018-12-30T12:24:54Z</time>
</trkpt>
<trkpt lat="49.1574737" lon="2.6752234">
<ele>76.61</ele>
<time>2018-12-30T12:24:56Z</time>
</trkpt>
<trkpt lat="49.1574005" lon="2.6752376">
<ele>76.61</ele>
<time>2018-12-30T12:24:58Z</time>
</trkpt>
<trkpt lat="49.1573231" lon="2.6752625">
<ele>76.61</ele>
<time>2018-12-30T12:25:00Z</time>
</trkpt>
<trkpt lat="49.1572358" lon="2.6752900">
<ele>77.31</ele>
<time>2018-12-30T12:25:02Z</time>
</trkpt>
<trkpt lat="49.1571621" lon="2.6753054">
<ele>77.58</ele>
<time>2018-12-30T12:25:04Z</time>
</trkpt>
<trkpt lat="49.1570922" lon="2.6753325">
<ele>77.61</ele>
<time>2018-12-30T12:25:06Z</time>
</trkpt>
<trkpt lat="49.1570022" lon="2.6753654">
<ele>77.61</ele>
<time>2018-12-30T12:25:08Z</time>
</trkpt>
<trkpt lat="49.1569553" lon="2.6753750">
<ele>76.91</ele>
<time>2018-12-30T12:25:09Z</time>
</trkpt>
<trkpt lat="49.1569076" lon="2.6753944">
<ele>76.00</ele>
<time>2018-12-30T12:25:10Z</time>
</trkpt>
<trkpt lat="49.1568315" lon="2.6753964">
<ele>74.95</ele>
<time>2018-12-30T12:25:12Z</time>
</trkpt>
<trkpt lat="49.1567577" lon="2.6754013">
<ele>74.64</ele>
<time>2018-12-30T12:25:14Z</time>
</trkpt>
<trkpt lat="49.1566854" lon="2.6754193">
<ele>74.61</ele>
<time>2018-12-30T12:25:16Z</time>
</trkpt>
<trkpt lat="49.1566153" lon="2.6754453">
<ele>74.61</ele>
<time>2018-12-30T12:25:18Z</time>
</trkpt>
<trkpt lat="49.1565430" lon="2.6754680">
<ele>74.61</ele>
<time>2018-12-30T12:25:20Z</time>
</trkpt>
<trkpt lat="49.1564638" lon="2.6754887">
<ele>73.70</ele>
<time>2018-12-30T12:25:22Z</time>
</trkpt>
<trkpt lat="49.1563852" lon="2.6755187">
<ele>73.62</ele>
<time>2018-12-30T12:25:24Z</time>
</trkpt>
<trkpt lat="49.1563145" lon="2.6755467">
<ele>72.91</ele>
<time>2018-12-30T12:25:26Z</time>
</trkpt>
<trkpt lat="49.1562499" lon="2.6755913">
<ele>72.64</ele>
<time>2018-12-30T12:25:28Z</time>
</trkpt>
<trkpt lat="49.1561563" lon="2.6756276">
<ele>72.61</ele>
<time>2018-12-30T12:25:30Z</time>
</trkpt>
<trkpt lat="49.1561040" lon="2.6756506">
<ele>71.91</ele>
<time>2018-12-30T12:25:31Z</time>
</trkpt>
<trkpt lat="49.1560335" lon="2.6756676">
<ele>70.94</ele>
<time>2018-12-30T12:25:33Z</time>
</trkpt>
<trkpt lat="49.1559638" lon="2.6756795">
<ele>70.64</ele>
<time>2018-12-30T12:25:35Z</time>
</trkpt>
<trkpt lat="49.1559055" lon="2.6756857">
<ele>70.61</ele>
<time>2018-12-30T12:25:37Z</time>
</trkpt>
<trkpt lat="49.1558474" lon="2.6756930">
<ele>70.61</ele>
<time>2018-12-30T12:25:39Z</time>
</trkpt>
<trkpt lat="49.1557768" lon="2.6757071">
<ele>70.61</ele>
<time>2018-12-30T12:25:41Z</time>
</trkpt>
<trkpt lat="49.1557117" lon="2.6757294">
<ele>71.52</ele>
<time>2018-12-30T12:25:43Z</time>
</trkpt>
<trkpt lat="49.1556540" lon="2.6757456">
<ele>70.90</ele>
<time>2018-12-30T12:25:45Z</time>
</trkpt>
<trkpt lat="49.1556031" lon="2.6757422">
<ele>70.64</ele>
<time>2018-12-30T12:25:47Z</time>
</trkpt>
<trkpt lat="49.1555603" lon="2.6757659">
<ele>70.61</ele>
<time>2018-12-30T12:25:49Z</time>
</trkpt>
<trkpt lat="49.1555201" lon="2.6757994">
<ele>71.52</ele>
<time>2018-12-30T12:25:51Z</time>
</trkpt>
<trkpt lat="49.1554733" lon="2.6758352">
<ele>71.61</ele>
<time>2018-12-30T12:25:54Z</time>
</trkpt>
<trkpt lat="49.1554251" lon="2.6758410">
<ele>69.61</ele>
<time>2018-12-30T12:26:43Z</time>
</trkpt>
<trkpt lat="49.1553642" lon="2.6758591">
<ele>70.31</ele>
<time>2018-12-30T12:26:45Z</time>
</trkpt>
<trkpt lat="49.1552997" lon="2.6759098">
<ele>70.58</ele>
<time>2018-12-30T12:26:47Z</time>
</trkpt>
<trkpt lat="49.1552481" lon="2.6759948">
<ele>70.61</ele>
<time>2018-12-30T12:26:49Z</time>
</trkpt>
<trkpt lat="49.1552207" lon="2.6760839">
<ele>70.61</ele>
<time>2018-12-30T12:26:51Z</time>
</trkpt>
<trkpt lat="49.1551890" lon="2.6761803">
<ele>69.91</ele>
<time>2018-12-30T12:26:53Z</time>
</trkpt>
<trkpt lat="49.1551262" lon="2.6762576">
<ele>70.34</ele>
<time>2018-12-30T12:26:55Z</time>
</trkpt>
<trkpt lat="49.1550674" lon="2.6763179">
<ele>69.89</ele>
<time>2018-12-30T12:26:57Z</time>
</trkpt>
<trkpt lat="49.1550042" lon="2.6763514">
<ele>70.34</ele>
<time>2018-12-30T12:26:59Z</time>
</trkpt>
<trkpt lat="49.1549405" lon="2.6763759">
<ele>70.59</ele>
<time>2018-12-30T12:27:01Z</time>
</trkpt>
<trkpt lat="49.1548842" lon="2.6763916">
<ele>70.61</ele>
<time>2018-12-30T12:27:03Z</time>
</trkpt>
<trkpt lat="49.1548257" lon="2.6764049">
<ele>70.61</ele>
<time>2018-12-30T12:27:05Z</time>
</trkpt>
<trkpt lat="49.1547659" lon="2.6764077">
<ele>70.61</ele>
<time>2018-12-30T12:27:07Z</time>
</trkpt>
<trkpt lat="49.1546872" lon="2.6764216">
<ele>70.61</ele>
<time>2018-12-30T12:27:10Z</time>
</trkpt>
<trkpt lat="49.1546328" lon="2.6764228">
<ele>70.61</ele>
<time>2018-12-30T12:27:14Z</time>
</trkpt>
<trkpt lat="49.1546160" lon="2.6764996">
<ele>69.61</ele>
<time>2018-12-30T12:27:41Z</time>
</trkpt>
<trkpt lat="49.1546522" lon="2.6765585">
<ele>68.91</ele>
<time>2018-12-30T12:27:43Z</time>
</trkpt>
<trkpt lat="49.1547105" lon="2.6766113">
<ele>68.62</ele>
<time>2018-12-30T12:27:46Z</time>
</trkpt>
<trkpt lat="49.1547353" lon="2.6766836">
<ele>68.61</ele>
<time>2018-12-30T12:27:48Z</time>
</trkpt>
<trkpt lat="49.1547706" lon="2.6767671">
<ele>68.61</ele>
<time>2018-12-30T12:27:50Z</time>
</trkpt>
<trkpt lat="49.1548088" lon="2.6768552">
<ele>67.70</ele>
<time>2018-12-30T12:27:52Z</time>
</trkpt>
<trkpt lat="49.1548440" lon="2.6769471">
<ele>67.62</ele>
<time>2018-12-30T12:27:54Z</time>
</trkpt>
<trkpt lat="49.1548839" lon="2.6770379">
<ele>67.61</ele>
<time>2018-12-30T12:27:56Z</time>
</trkpt>
<trkpt lat="49.1549212" lon="2.6771506">
<ele>67.61</ele>
<time>2018-12-30T12:27:58Z</time>
</trkpt>
<trkpt lat="49.1549436" lon="2.6772128">
<ele>67.61</ele>
<time>2018-12-30T12:27:59Z</time>
</trkpt>
<trkpt lat="49.1549667" lon="2.6772753">
<ele>67.61</ele>
<time>2018-12-30T12:28:00Z</time>
</trkpt>
<trkpt lat="49.1549900" lon="2.6773403">
<ele>67.61</ele>
<time>2018-12-30T12:28:01Z</time>
</trkpt>
<trkpt lat="49.1550150" lon="2.6774065">
<ele>67.61</ele>
<time>2018-12-30T12:28:02Z</time>
</trkpt>
<trkpt lat="49.1550441" lon="2.6774716">
<ele>67.61</ele>
<time>2018-12-30T12:28:03Z</time>
</trkpt>
<trkpt lat="49.1550723" lon="2.6775401">
<ele>67.61</ele>
<time>2018-12-30T12:28:04Z</time>
</trkpt>
<trkpt lat="49.1550991" lon="2.6776096">
<ele>67.61</ele>
<time>2018-12-30T12:28:05Z</time>
</trkpt>
<trkpt lat="49.1551252" lon="2.6776810">
<ele>67.61</ele>
<time>2018-12-30T12:28:06Z</time>
</trkpt>
<trkpt lat="49.1551537" lon="2.6777545">
<ele>67.61</ele>
<time>2018-12-30T12:28:07Z</time>
</trkpt>
<trkpt lat="49.1551866" lon="2.6778260">
<ele>67.61</ele>
<time>2018-12-30T12:28:08Z</time>
</trkpt>
<trkpt lat="49.1552196" lon="2.6779037">
<ele>67.61</ele>
<time>2018-12-30T12:28:09Z</time>
</trkpt>
<trkpt lat="49.1552516" lon="2.6779814">
<ele>67.61</ele>
<time>2018-12-30T12:28:10Z</time>
</trkpt>
<trkpt lat="49.1552815" lon="2.6780585">
<ele>67.61</ele>
<time>2018-12-30T12:28:11Z</time>
</trkpt>
<trkpt lat="49.1553137" lon="2.6781424">
<ele>67.61</ele>
<time>2018-12-30T12:28:12Z</time>
</trkpt>
<trkpt lat="49.1553464" lon="2.6782225">
<ele>67.61</ele>
<time>2018-12-30T12:28:13Z</time>
</trkpt>
<trkpt lat="49.1553808" lon="2.6783089">
<ele>67.61</ele>
<time>2018-12-30T12:28:14Z</time>
</trkpt>
<trkpt lat="49.1554166" lon="2.6783943">
<ele>67.61</ele>
<time>2018-12-30T12:28:15Z</time>
</trkpt>
<trkpt lat="49.1554496" lon="2.6784794">
<ele>67.61</ele>
<time>2018-12-30T12:28:16Z</time>
</trkpt>
<trkpt lat="49.1554808" lon="2.6785615">
<ele>67.61</ele>
<time>2018-12-30T12:28:17Z</time>
</trkpt>
<trkpt lat="49.1555102" lon="2.6786445">
<ele>67.61</ele>
<time>2018-12-30T12:28:18Z</time>
</trkpt>
<trkpt lat="49.1555396" lon="2.6787250">
<ele>67.61</ele>
<time>2018-12-30T12:28:19Z</time>
</trkpt>
<trkpt lat="49.1555726" lon="2.6788071">
<ele>67.61</ele>
<time>2018-12-30T12:28:20Z</time>
</trkpt>
<trkpt lat="49.1556045" lon="2.6788905">
<ele>67.61</ele>
<time>2018-12-30T12:28:21Z</time>
</trkpt>
<trkpt lat="49.1556335" lon="2.6789761">
<ele>67.61</ele>
<time>2018-12-30T12:28:22Z</time>
</trkpt>
<trkpt lat="49.1556673" lon="2.6790603">
<ele>67.61</ele>
<time>2018-12-30T12:28:23Z</time>
</trkpt>
<trkpt lat="49.1557021" lon="2.6791488">
<ele>66.91</ele>
<time>2018-12-30T12:28:24Z</time>
</trkpt>
<trkpt lat="49.1557362" lon="2.6792358">
<ele>66.70</ele>
<time>2018-12-30T12:28:25Z</time>
</trkpt>
<trkpt lat="49.1557702" lon="2.6793203">
<ele>66.64</ele>
<time>2018-12-30T12:28:26Z</time>
</trkpt>
<trkpt lat="49.1558027" lon="2.6794064">
<ele>66.62</ele>
<time>2018-12-30T12:28:27Z</time>
</trkpt>
<trkpt lat="49.1558348" lon="2.6794935">
<ele>66.61</ele>
<time>2018-12-30T12:28:28Z</time>
</trkpt>
<trkpt lat="49.1558670" lon="2.6795804">
<ele>66.61</ele>
<time>2018-12-30T12:28:29Z</time>
</trkpt>
<trkpt lat="49.1559003" lon="2.6796656">
<ele>66.61</ele>
<time>2018-12-30T12:28:30Z</time>
</trkpt>
<trkpt lat="49.1559348" lon="2.6797501">
<ele>66.61</ele>
<time>2018-12-30T12:28:31Z</time>
</trkpt>
<trkpt lat="49.1559701" lon="2.6798342">
<ele>66.61</ele>
<time>2018-12-30T12:28:32Z</time>
</trkpt>
<trkpt lat="49.1560040" lon="2.6799189">
<ele>66.61</ele>
<time>2018-12-30T12:28:33Z</time>
</trkpt>
<trkpt lat="49.1560342" lon="2.6800026">
<ele>66.61</ele>
<time>2018-12-30T12:28:34Z</time>
</trkpt>
<trkpt lat="49.1560668" lon="2.6800908">
<ele>66.61</ele>
<time>2018-12-30T12:28:35Z</time>
</trkpt>
<trkpt lat="49.1560987" lon="2.6801796">
<ele>66.61</ele>
<time>2018-12-30T12:28:36Z</time>
</trkpt>
<trkpt lat="49.1561311" lon="2.6802684">
<ele>66.61</ele>
<time>2018-12-30T12:28:37Z</time>
</trkpt>
<trkpt lat="49.1561656" lon="2.6803591">
<ele>66.61</ele>
<time>2018-12-30T12:28:38Z</time>
</trkpt>
<trkpt lat="49.1561998" lon="2.6804459">
<ele>66.61</ele>
<time>2018-12-30T12:28:39Z</time>
</trkpt>
<trkpt lat="49.1562329" lon="2.6805373">
<ele>66.61</ele>
<time>2018-12-30T12:28:40Z</time>
</trkpt>
<trkpt lat="49.1562685" lon="2.6806277">
<ele>66.61</ele>
<time>2018-12-30T12:28:41Z</time>
</trkpt>
<trkpt lat="49.1563050" lon="2.6807189">
<ele>66.61</ele>
<time>2018-12-30T12:28:42Z</time>
</trkpt>
<trkpt lat="49.1563402" lon="2.6808085">
<ele>66.61</ele>
<time>2018-12-30T12:28:43Z</time>
</trkpt>
<trkpt lat="49.1563769" lon="2.6809009">
<ele>66.61</ele>
<time>2018-12-30T12:28:44Z</time>
</trkpt>
<trkpt lat="49.1564139" lon="2.6809959">
<ele>66.61</ele>
<time>2018-12-30T12:28:45Z</time>
</trkpt>
<trkpt lat="49.1564489" lon="2.6810929">
<ele>66.61</ele>
<time>2018-12-30T12:28:46Z</time>
</trkpt>
<trkpt lat="49.1564818" lon="2.6811877">
<ele>66.61</ele>
<time>2018-12-30T12:28:47Z</time>
</trkpt>
<trkpt lat="49.1565178" lon="2.6812827">
<ele>66.61</ele>
<time>2018-12-30T12:28:48Z</time>
</trkpt>
<trkpt lat="49.1565541" lon="2.6813712">
<ele>66.61</ele>
<time>2018-12-30T12:28:49Z</time>
</trkpt>
<trkpt lat="49.1565902" lon="2.6814606">
<ele>66.61</ele>
<time>2018-12-30T12:28:50Z</time>
</trkpt>
<trkpt lat="49.1566234" lon="2.6815522">
<ele>66.61</ele>
<time>2018-12-30T12:28:51Z</time>
</trkpt>
<trkpt lat="49.1566585" lon="2.6816436">
<ele>66.61</ele>
<time>2018-12-30T12:28:52Z</time>
</trkpt>
<trkpt lat="49.1566919" lon="2.6817331">
<ele>66.61</ele>
<time>2018-12-30T12:28:53Z</time>
</trkpt>
<trkpt lat="49.1567243" lon="2.6818258">
<ele>66.61</ele>
<time>2018-12-30T12:28:54Z</time>
</trkpt>
<trkpt lat="49.1567582" lon="2.6819200">
<ele>66.61</ele>
<time>2018-12-30T12:28:55Z</time>
</trkpt>
<trkpt lat="49.1567901" lon="2.6820154">
<ele>66.61</ele>
<time>2018-12-30T12:28:56Z</time>
</trkpt>
<trkpt lat="49.1568227" lon="2.6821073">
<ele>66.61</ele>
<time>2018-12-30T12:28:57Z</time>
</trkpt>
<trkpt lat="49.1568525" lon="2.6822042">
<ele>66.61</ele>
<time>2018-12-30T12:28:58Z</time>
</trkpt>
<trkpt lat="49.1568789" lon="2.6823098">
<ele>65.91</ele>
<time>2018-12-30T12:28:59Z</time>
</trkpt>
<trkpt lat="49.1569030" lon="2.6824156">
<ele>65.70</ele>
<time>2018-12-30T12:29:00Z</time>
</trkpt>
<trkpt lat="49.1569217" lon="2.6825243">
<ele>65.64</ele>
<time>2018-12-30T12:29:01Z</time>
</trkpt>
<trkpt lat="49.1569346" lon="2.6826355">
<ele>65.62</ele>
<time>2018-12-30T12:29:02Z</time>
</trkpt>
<trkpt lat="49.1569414" lon="2.6827504">
<ele>64.91</ele>
<time>2018-12-30T12:29:03Z</time>
</trkpt>
<trkpt lat="49.1569512" lon="2.6828632">
<ele>64.70</ele>
<time>2018-12-30T12:29:04Z</time>
</trkpt>
<trkpt lat="49.1569571" lon="2.6829755">
<ele>64.64</ele>
<time>2018-12-30T12:29:05Z</time>
</trkpt>
<trkpt lat="49.1569628" lon="2.6830894">
<ele>64.62</ele>
<time>2018-12-30T12:29:06Z</time>
</trkpt>
<trkpt lat="49.1569694" lon="2.6831998">
<ele>64.61</ele>
<time>2018-12-30T12:29:07Z</time>
</trkpt>
<trkpt lat="49.1569762" lon="2.6833148">
<ele>64.61</ele>
<time>2018-12-30T12:29:08Z</time>
</trkpt>
<trkpt lat="49.1569799" lon="2.6834254">
<ele>64.61</ele>
<time>2018-12-30T12:29:09Z</time>
</trkpt>
<trkpt lat="49.1569812" lon="2.6835361">
<ele>64.61</ele>
<time>2018-12-30T12:29:10Z</time>
</trkpt>
<trkpt lat="49.1569853" lon="2.6836432">
<ele>64.61</ele>
<time>2018-12-30T12:29:11Z</time>
</trkpt>
<trkpt lat="49.1569869" lon="2.6837525">
<ele>64.61</ele>
<time>2018-12-30T12:29:12Z</time>
</trkpt>
<trkpt lat="49.1569918" lon="2.6838620">
<ele>64.61</ele>
<time>2018-12-30T12:29:13Z</time>
</trkpt>
<trkpt lat="49.1569960" lon="2.6839694">
<ele>64.61</ele>
<time>2018-12-30T12:29:14Z</time>
</trkpt>
<trkpt lat="49.1569983" lon="2.6840755">
<ele>64.61</ele>
<time>2018-12-30T12:29:15Z</time>
</trkpt>
<trkpt lat="49.1569978" lon="2.6841826">
<ele>64.61</ele>
<time>2018-12-30T12:29:16Z</time>
</trkpt>
<trkpt lat="49.1569897" lon="2.6842878">
<ele>64.61</ele>
<time>2018-12-30T12:29:17Z</time>
</trkpt>
<trkpt lat="49.1569789" lon="2.6843871">
<ele>64.61</ele>
<time>2018-12-30T12:29:18Z</time>
</trkpt>
<trkpt lat="49.1569660" lon="2.6844868">
<ele>64.61</ele>
<time>2018-12-30T12:29:19Z</time>
</trkpt>
<trkpt lat="49.1569497" lon="2.6845848">
<ele>64.61</ele>
<time>2018-12-30T12:29:20Z</time>
</trkpt>
<trkpt lat="49.1569346" lon="2.6846744">
<ele>65.31</ele>
<time>2018-12-30T12:29:21Z</time>
</trkpt>
<trkpt lat="49.1569177" lon="2.6847574">
<ele>65.52</ele>
<time>2018-12-30T12:29:22Z</time>
</trkpt>
<trkpt lat="49.1568953" lon="2.6848345">
<ele>65.58</ele>
<time>2018-12-30T12:29:23Z</time>
</trkpt>
<trkpt lat="49.1568676" lon="2.6849180">
<ele>65.60</ele>
<time>2018-12-30T12:29:24Z</time>
</trkpt>
<trkpt lat="49.1568388" lon="2.6850044">
<ele>65.61</ele>
<time>2018-12-30T12:29:25Z</time>
</trkpt>
<trkpt lat="49.1568107" lon="2.6850936">
<ele>65.61</ele>
<time>2018-12-30T12:29:26Z</time>
</trkpt>
<trkpt lat="49.1567849" lon="2.6851908">
<ele>64.91</ele>
<time>2018-12-30T12:29:27Z</time>
</trkpt>
<trkpt lat="49.1567582" lon="2.6852843">
<ele>64.70</ele>
<time>2018-12-30T12:29:28Z</time>
</trkpt>
<trkpt lat="49.1567282" lon="2.6853770">
<ele>64.64</ele>
<time>2018-12-30T12:29:29Z</time>
</trkpt>
<trkpt lat="49.1566996" lon="2.6854610">
<ele>64.62</ele>
<time>2018-12-30T12:29:30Z</time>
</trkpt>
<trkpt lat="49.1566746" lon="2.6855510">
<ele>64.61</ele>
<time>2018-12-30T12:29:31Z</time>
</trkpt>
<trkpt lat="49.1566491" lon="2.6856344">
<ele>64.61</ele>
<time>2018-12-30T12:29:32Z</time>
</trkpt>
<trkpt lat="49.1566262" lon="2.6857184">
<ele>64.61</ele>
<time>2018-12-30T12:29:33Z</time>
</trkpt>
<trkpt lat="49.1566022" lon="2.6858040">
<ele>63.91</ele>
<time>2018-12-30T12:29:34Z</time>
</trkpt>
<trkpt lat="49.1565732" lon="2.6858903">
<ele>63.70</ele>
<time>2018-12-30T12:29:35Z</time>
</trkpt>
<trkpt lat="49.1565450" lon="2.6859768">
<ele>63.64</ele>
<time>2018-12-30T12:29:36Z</time>
</trkpt>
<trkpt lat="49.1565198" lon="2.6860654">
<ele>63.62</ele>
<time>2018-12-30T12:29:37Z</time>
</trkpt>
<trkpt lat="49.1564921" lon="2.6861571">
<ele>63.61</ele>
<time>2018-12-30T12:29:38Z</time>
</trkpt>
<trkpt lat="49.1564663" lon="2.6862478">
<ele>63.61</ele>
<time>2018-12-30T12:29:39Z</time>
</trkpt>
<trkpt lat="49.1564430" lon="2.6863327">
<ele>63.61</ele>
<time>2018-12-30T12:29:40Z</time>
</trkpt>
<trkpt lat="49.1564169" lon="2.6864248">
<ele>63.61</ele>
<time>2018-12-30T12:29:41Z</time>
</trkpt>
<trkpt lat="49.1563891" lon="2.6865122">
<ele>63.61</ele>
<time>2018-12-30T12:29:42Z</time>
</trkpt>
<trkpt lat="49.1563635" lon="2.6865967">
<ele>63.61</ele>
<time>2018-12-30T12:29:43Z</time>
</trkpt>
<trkpt lat="49.1563379" lon="2.6866793">
<ele>63.61</ele>
<time>2018-12-30T12:29:44Z</time>
</trkpt>
<trkpt lat="49.1563151" lon="2.6867666">
<ele>63.61</ele>
<time>2018-12-30T12:29:45Z</time>
</trkpt>
<trkpt lat="49.1562879" lon="2.6868498">
<ele>63.61</ele>
<time>2018-12-30T12:29:46Z</time>
</trkpt>
<trkpt lat="49.1562624" lon="2.6869335">
<ele>63.61</ele>
<time>2018-12-30T12:29:47Z</time>
</trkpt>
<trkpt lat="49.1562413" lon="2.6870168">
<ele>63.61</ele>
<time>2018-12-30T12:29:48Z</time>
</trkpt>
<trkpt lat="49.1562175" lon="2.6870998">
<ele>63.61</ele>
<time>2018-12-30T12:29:49Z</time>
</trkpt>
<trkpt lat="49.1561921" lon="2.6871812">
<ele>63.61</ele>
<time>2018-12-30T12:29:50Z</time>
</trkpt>
<trkpt lat="49.1561652" lon="2.6872635">
<ele>63.61</ele>
<time>2018-12-30T12:29:51Z</time>
</trkpt>
<trkpt lat="49.1561388" lon="2.6873437">
<ele>63.61</ele>
<time>2018-12-30T12:29:52Z</time>
</trkpt>
<trkpt lat="49.1561083" lon="2.6874296">
<ele>63.61</ele>
<time>2018-12-30T12:29:53Z</time>
</trkpt>
<trkpt lat="49.1560860" lon="2.6875154">
<ele>63.61</ele>
<time>2018-12-30T12:29:54Z</time>
</trkpt>
<trkpt lat="49.1560648" lon="2.6875998">
<ele>63.61</ele>
<time>2018-12-30T12:29:55Z</time>
</trkpt>
<trkpt lat="49.1560428" lon="2.6876857">
<ele>63.61</ele>
<time>2018-12-30T12:29:56Z</time>
</trkpt>
<trkpt lat="49.1560198" lon="2.6877711">
<ele>63.61</ele>
<time>2018-12-30T12:29:57Z</time>
</trkpt>
<trkpt lat="49.1559986" lon="2.6878605">
<ele>63.61</ele>
<time>2018-12-30T12:29:58Z</time>
</trkpt>
<trkpt lat="49.1559734" lon="2.6879464">
<ele>63.61</ele>
<time>2018-12-30T12:29:59Z</time>
</trkpt>
<trkpt lat="49.1559488" lon="2.6880330">
<ele>63.61</ele>
<time>2018-12-30T12:30:00Z</time>
</trkpt>
<trkpt lat="49.1559220" lon="2.6881156">
<ele>63.61</ele>
<time>2018-12-30T12:30:01Z</time>
</trkpt>
<trkpt lat="49.1558931" lon="2.6881979">
<ele>63.61</ele>
<time>2018-12-30T12:30:02Z</time>
</trkpt>
<trkpt lat="49.1558634" lon="2.6882752">
<ele>63.61</ele>
<time>2018-12-30T12:30:03Z</time>
</trkpt>
<trkpt lat="49.1558386" lon="2.6883575">
<ele>63.61</ele>
<time>2018-12-30T12:30:04Z</time>
</trkpt>
<trkpt lat="49.1558133" lon="2.6884363">
<ele>63.61</ele>
<time>2018-12-30T12:30:05Z</time>
</trkpt>
<trkpt lat="49.1557912" lon="2.6885150">
<ele>64.31</ele>
<time>2018-12-30T12:30:06Z</time>
</trkpt>
<trkpt lat="49.1557747" lon="2.6885990">
<ele>64.52</ele>
<time>2018-12-30T12:30:07Z</time>
</trkpt>
<trkpt lat="49.1557642" lon="2.6886783">
<ele>64.58</ele>
<time>2018-12-30T12:30:08Z</time>
</trkpt>
<trkpt lat="49.1557577" lon="2.6887573">
<ele>64.60</ele>
<time>2018-12-30T12:30:09Z</time>
</trkpt>
<trkpt lat="49.1557602" lon="2.6888327">
<ele>64.61</ele>
<time>2018-12-30T12:30:10Z</time>
</trkpt>
<trkpt lat="49.1557704" lon="2.6889008">
<ele>64.61</ele>
<time>2018-12-30T12:30:11Z</time>
</trkpt>
<trkpt lat="49.1557911" lon="2.6889704">
<ele>64.61</ele>
<time>2018-12-30T12:30:12Z</time>
</trkpt>
<trkpt lat="49.1558156" lon="2.6890378">
<ele>64.61</ele>
<time>2018-12-30T12:30:13Z</time>
</trkpt>
<trkpt lat="49.1558427" lon="2.6891056">
<ele>64.61</ele>
<time>2018-12-30T12:30:14Z</time>
</trkpt>
<trkpt lat="49.1558766" lon="2.6891669">
<ele>64.61</ele>
<time>2018-12-30T12:30:15Z</time>
</trkpt>
<trkpt lat="49.1559159" lon="2.6892248">
<ele>64.61</ele>
<time>2018-12-30T12:30:16Z</time>
</trkpt>
<trkpt lat="49.1559561" lon="2.6892795">
<ele>64.61</ele>
<time>2018-12-30T12:30:17Z</time>
</trkpt>
<trkpt lat="49.1559944" lon="2.6893356">
<ele>64.61</ele>
<time>2018-12-30T12:30:18Z</time>
</trkpt>
<trkpt lat="49.1560352" lon="2.6893893">
<ele>64.61</ele>
<time>2018-12-30T12:30:19Z</time>
</trkpt>
<trkpt lat="49.1560788" lon="2.6894412">
<ele>64.61</ele>
<time>2018-12-30T12:30:20Z</time>
</trkpt>
<trkpt lat="49.1561252" lon="2.6894946">
<ele>64.61</ele>
<time>2018-12-30T12:30:21Z</time>
</trkpt>
<trkpt lat="49.1561766" lon="2.6895457">
<ele>64.61</ele>
<time>2018-12-30T12:30:22Z</time>
</trkpt>
<trkpt lat="49.1562298" lon="2.6895853">
<ele>64.61</ele>
<time>2018-12-30T12:30:23Z</time>
</trkpt>
<trkpt lat="49.1562856" lon="2.6896234">
<ele>65.31</ele>
<time>2018-12-30T12:30:24Z</time>
</trkpt>
<trkpt lat="49.1563387" lon="2.6896602">
<ele>65.52</ele>
<time>2018-12-30T12:30:25Z</time>
</trkpt>
<trkpt lat="49.1563881" lon="2.6896921">
<ele>65.58</ele>
<time>2018-12-30T12:30:26Z</time>
</trkpt>
<trkpt lat="49.1564370" lon="2.6897197">
<ele>65.60</ele>
<time>2018-12-30T12:30:27Z</time>
</trkpt>
<trkpt lat="49.1564892" lon="2.6897447">
<ele>64.91</ele>
<time>2018-12-30T12:30:28Z</time>
</trkpt>
<trkpt lat="49.1565430" lon="2.6897736">
<ele>64.70</ele>
<time>2018-12-30T12:30:29Z</time>
</trkpt>
<trkpt lat="49.1565935" lon="2.6898009">
<ele>64.64</ele>
<time>2018-12-30T12:30:30Z</time>
</trkpt>
<trkpt lat="49.1566451" lon="2.6898302">
<ele>65.32</ele>
<time>2018-12-30T12:30:31Z</time>
</trkpt>
<trkpt lat="49.1566992" lon="2.6898560">
<ele>65.52</ele>
<time>2018-12-30T12:30:32Z</time>
</trkpt>
<trkpt lat="49.1567572" lon="2.6898801">
<ele>65.58</ele>
<time>2018-12-30T12:30:33Z</time>
</trkpt>
<trkpt lat="49.1568168" lon="2.6899089">
<ele>65.60</ele>
<time>2018-12-30T12:30:34Z</time>
</trkpt>
<trkpt lat="49.1568735" lon="2.6899336">
<ele>65.61</ele>
<time>2018-12-30T12:30:35Z</time>
</trkpt>
<trkpt lat="49.1569282" lon="2.6899611">
<ele>65.61</ele>
<time>2018-12-30T12:30:36Z</time>
</trkpt>
<trkpt lat="49.1569851" lon="2.6899849">
<ele>65.61</ele>
<time>2018-12-30T12:30:37Z</time>
</trkpt>
<trkpt lat="49.1570421" lon="2.6900093">
<ele>65.61</ele>
<time>2018-12-30T12:30:38Z</time>
</trkpt>
<trkpt lat="49.1571019" lon="2.6900322">
<ele>66.31</ele>
<time>2018-12-30T12:30:39Z</time>
</trkpt>
<trkpt lat="49.1571599" lon="2.6900626">
<ele>66.52</ele>
<time>2018-12-30T12:30:40Z</time>
</trkpt>
<trkpt lat="49.1572159" lon="2.6900937">
<ele>66.58</ele>
<time>2018-12-30T12:30:41Z</time>
</trkpt>
<trkpt lat="49.1572780" lon="2.6901211">
<ele>66.60</ele>
<time>2018-12-30T12:30:42Z</time>
</trkpt>
<trkpt lat="49.1573361" lon="2.6901488">
<ele>66.61</ele>
<time>2018-12-30T12:30:43Z</time>
</trkpt>
<trkpt lat="49.1573968" lon="2.6901770">
<ele>66.61</ele>
<time>2018-12-30T12:30:44Z</time>
</trkpt>
<trkpt lat="49.1574558" lon="2.6902076">
<ele>66.61</ele>
<time>2018-12-30T12:30:45Z</time>
</trkpt>
<trkpt lat="49.1575155" lon="2.6902333">
<ele>66.61</ele>
<time>2018-12-30T12:30:46Z</time>
</trkpt>
<trkpt lat="49.1575741" lon="2.6902583">
<ele>66.61</ele>
<time>2018-12-30T12:30:47Z</time>
</trkpt>
<trkpt lat="49.1576334" lon="2.6902836">
<ele>66.61</ele>
<time>2018-12-30T12:30:48Z</time>
</trkpt>
<trkpt lat="49.1576928" lon="2.6903111">
<ele>66.61</ele>
<time>2018-12-30T12:30:49Z</time>
</trkpt>
<trkpt lat="49.1577512" lon="2.6903409">
<ele>66.61</ele>
<time>2018-12-30T12:30:50Z</time>
</trkpt>
<trkpt lat="49.1578097" lon="2.6903753">
<ele>66.61</ele>
<time>2018-12-30T12:30:51Z</time>
</trkpt>
<trkpt lat="49.1578704" lon="2.6904099">
<ele>66.61</ele>
<time>2018-12-30T12:30:52Z</time>
</trkpt>
<trkpt lat="49.1579271" lon="2.6904467">
<ele>66.61</ele>
<time>2018-12-30T12:30:53Z</time>
</trkpt>
<trkpt lat="49.1579831" lon="2.6904833">
<ele>66.61</ele>
<time>2018-12-30T12:30:54Z</time>
</trkpt>
<trkpt lat="49.1580419" lon="2.6905182">
<ele>67.31</ele>
<time>2018-12-30T12:30:55Z</time>
</trkpt>
<trkpt lat="49.1581019" lon="2.6905567">
<ele>67.52</ele>
<time>2018-12-30T12:30:56Z</time>
</trkpt>
<trkpt lat="49.1581604" lon="2.6905971">
<ele>67.58</ele>
<time>2018-12-30T12:30:57Z</time>
</trkpt>
<trkpt lat="49.1582157" lon="2.6906358">
<ele>67.60</ele>
<time>2018-12-30T12:30:58Z</time>
</trkpt>
<trkpt lat="49.1582689" lon="2.6906764">
<ele>67.61</ele>
<time>2018-12-30T12:30:59Z</time>
</trkpt>
<trkpt lat="49.1583207" lon="2.6907149">
<ele>67.61</ele>
<time>2018-12-30T12:31:00Z</time>
</trkpt>
<trkpt lat="49.1583730" lon="2.6907511">
<ele>67.61</ele>
<time>2018-12-30T12:31:01Z</time>
</trkpt>
<trkpt lat="49.1584212" lon="2.6907871">
<ele>66.91</ele>
<time>2018-12-30T12:31:02Z</time>
</trkpt>
<trkpt lat="49.1584649" lon="2.6908247">
<ele>66.70</ele>
<time>2018-12-30T12:31:03Z</time>
</trkpt>
<trkpt lat="49.1584930" lon="2.6909386">
<ele>67.32</ele>
<time>2018-12-30T12:31:05Z</time>
</trkpt>
<trkpt lat="49.1584930" lon="2.6910644">
<ele>66.67</ele>
<time>2018-12-30T12:31:07Z</time>
</trkpt>
<trkpt lat="49.1584981" lon="2.6911947">
<ele>67.32</ele>
<time>2018-12-30T12:31:09Z</time>
</trkpt>
<trkpt lat="49.1585098" lon="2.6913284">
<ele>67.58</ele>
<time>2018-12-30T12:31:11Z</time>
</trkpt>
<trkpt lat="49.1585188" lon="2.6913961">
<ele>67.60</ele>
<time>2018-12-30T12:31:12Z</time>
</trkpt>
<trkpt lat="49.1585430" lon="2.6915271">
<ele>67.61</ele>
<time>2018-12-30T12:31:14Z</time>
</trkpt>
<trkpt lat="49.1585612" lon="2.6916575">
<ele>68.52</ele>
<time>2018-12-30T12:31:16Z</time>
</trkpt>
<trkpt lat="49.1585689" lon="2.6917255">
<ele>68.58</ele>
<time>2018-12-30T12:31:17Z</time>
</trkpt>
<trkpt lat="49.1585808" lon="2.6918530">
<ele>68.61</ele>
<time>2018-12-30T12:31:19Z</time>
</trkpt>
<trkpt lat="49.1585948" lon="2.6919888">
<ele>68.61</ele>
<time>2018-12-30T12:31:21Z</time>
</trkpt>
<trkpt lat="49.1586044" lon="2.6920586">
<ele>68.61</ele>
<time>2018-12-30T12:31:22Z</time>
</trkpt>
<trkpt lat="49.1586162" lon="2.6921295">
<ele>68.61</ele>
<time>2018-12-30T12:31:23Z</time>
</trkpt>
<trkpt lat="49.1586323" lon="2.6922672">
<ele>69.31</ele>
<time>2018-12-30T12:31:25Z</time>
</trkpt>
<trkpt lat="49.1586409" lon="2.6923401">
<ele>68.82</ele>
<time>2018-12-30T12:31:26Z</time>
</trkpt>
<trkpt lat="49.1586463" lon="2.6924125">
<ele>69.37</ele>
<time>2018-12-30T12:31:27Z</time>
</trkpt>
<trkpt lat="49.1586541" lon="2.6924864">
<ele>69.54</ele>
<time>2018-12-30T12:31:28Z</time>
</trkpt>
<trkpt lat="49.1586571" lon="2.6925587">
<ele>69.59</ele>
<time>2018-12-30T12:31:29Z</time>
</trkpt>
<trkpt lat="49.1586649" lon="2.6926342">
<ele>69.60</ele>
<time>2018-12-30T12:31:30Z</time>
</trkpt>
<trkpt lat="49.1586734" lon="2.6927115">
<ele>69.61</ele>
<time>2018-12-30T12:31:31Z</time>
</trkpt>
<trkpt lat="49.1586842" lon="2.6927846">
<ele>69.61</ele>
<time>2018-12-30T12:31:32Z</time>
</trkpt>
<trkpt lat="49.1586930" lon="2.6928659">
<ele>69.61</ele>
<time>2018-12-30T12:31:33Z</time>
</trkpt>
<trkpt lat="49.1586990" lon="2.6929441">
<ele>69.61</ele>
<time>2018-12-30T12:31:34Z</time>
</trkpt>
<trkpt lat="49.1587075" lon="2.6930222">
<ele>69.61</ele>
<time>2018-12-30T12:31:35Z</time>
</trkpt>
<trkpt lat="49.1587170" lon="2.6930976">
<ele>69.61</ele>
<time>2018-12-30T12:31:36Z</time>
</trkpt>
<trkpt lat="49.1587204" lon="2.6931704">
<ele>69.61</ele>
<time>2018-12-30T12:31:37Z</time>
</trkpt>
<trkpt lat="49.1587310" lon="2.6932469">
<ele>69.61</ele>
<time>2018-12-30T12:31:38Z</time>
</trkpt>
<trkpt lat="49.1587405" lon="2.6933233">
<ele>69.61</ele>
<time>2018-12-30T12:31:39Z</time>
</trkpt>
<trkpt lat="49.1587523" lon="2.6934000">
<ele>69.61</ele>
<time>2018-12-30T12:31:40Z</time>
</trkpt>
<trkpt lat="49.1587619" lon="2.6934767">
<ele>69.61</ele>
<time>2018-12-30T12:31:41Z</time>
</trkpt>
<trkpt lat="49.1587734" lon="2.6935545">
<ele>69.61</ele>
<time>2018-12-30T12:31:42Z</time>
</trkpt>
<trkpt lat="49.1587837" lon="2.6936363">
<ele>69.61</ele>
<time>2018-12-30T12:31:43Z</time>
</trkpt>
<trkpt lat="49.1587895" lon="2.6937168">
<ele>69.61</ele>
<time>2018-12-30T12:31:44Z</time>
</trkpt>
<trkpt lat="49.1587975" lon="2.6937954">
<ele>70.31</ele>
<time>2018-12-30T12:31:45Z</time>
</trkpt>
<trkpt lat="49.1588050" lon="2.6938743">
<ele>70.52</ele>
<time>2018-12-30T12:31:46Z</time>
</trkpt>
<trkpt lat="49.1588122" lon="2.6939537">
<ele>70.58</ele>
<time>2018-12-30T12:31:47Z</time>
</trkpt>
<trkpt lat="49.1588222" lon="2.6940323">
<ele>70.60</ele>
<time>2018-12-30T12:31:48Z</time>
</trkpt>
<trkpt lat="49.1588321" lon="2.6941093">
<ele>70.61</ele>
<time>2018-12-30T12:31:49Z</time>
</trkpt>
<trkpt lat="49.1588401" lon="2.6941883">
<ele>70.61</ele>
<time>2018-12-30T12:31:50Z</time>
</trkpt>
<trkpt lat="49.1588492" lon="2.6942681">
<ele>70.61</ele>
<time>2018-12-30T12:31:51Z</time>
</trkpt>
<trkpt lat="49.1588565" lon="2.6943434">
<ele>70.61</ele>
<time>2018-12-30T12:31:52Z</time>
</trkpt>
<trkpt lat="49.1588656" lon="2.6944146">
<ele>71.31</ele>
<time>2018-12-30T12:31:53Z</time>
</trkpt>
<trkpt lat="49.1588768" lon="2.6944905">
<ele>71.52</ele>
<time>2018-12-30T12:31:54Z</time>
</trkpt>
<trkpt lat="49.1588846" lon="2.6945621">
<ele>71.58</ele>
<time>2018-12-30T12:31:55Z</time>
</trkpt>
<trkpt lat="49.1588913" lon="2.6946348">
<ele>71.60</ele>
<time>2018-12-30T12:31:56Z</time>
</trkpt>
<trkpt lat="49.1589007" lon="2.6947040">
<ele>71.61</ele>
<time>2018-12-30T12:31:57Z</time>
</trkpt>
<trkpt lat="49.1589113" lon="2.6947783">
<ele>71.61</ele>
<time>2018-12-30T12:31:58Z</time>
</trkpt>
<trkpt lat="49.1589190" lon="2.6948555">
<ele>71.61</ele>
<time>2018-12-30T12:31:59Z</time>
</trkpt>
<trkpt lat="49.1589249" lon="2.6949296">
<ele>71.61</ele>
<time>2018-12-30T12:32:00Z</time>
</trkpt>
<trkpt lat="49.1589338" lon="2.6950037">
<ele>71.61</ele>
<time>2018-12-30T12:32:01Z</time>
</trkpt>
<trkpt lat="49.1589457" lon="2.6950757">
<ele>71.61</ele>
<time>2018-12-30T12:32:02Z</time>
</trkpt>
<trkpt lat="49.1589539" lon="2.6951552">
<ele>71.61</ele>
<time>2018-12-30T12:32:03Z</time>
</trkpt>
<trkpt lat="49.1589616" lon="2.6952274">
<ele>71.61</ele>
<time>2018-12-30T12:32:04Z</time>
</trkpt>
<trkpt lat="49.1589634" lon="2.6953002">
<ele>71.61</ele>
<time>2018-12-30T12:32:05Z</time>
</trkpt>
<trkpt lat="49.1589631" lon="2.6954392">
<ele>71.61</ele>
<time>2018-12-30T12:32:07Z</time>
</trkpt>
<trkpt lat="49.1589688" lon="2.6955139">
<ele>71.61</ele>
<time>2018-12-30T12:32:08Z</time>
</trkpt>
<trkpt lat="49.1589789" lon="2.6955813">
<ele>72.31</ele>
<time>2018-12-30T12:32:09Z</time>
</trkpt>
<trkpt lat="49.1590025" lon="2.6957044">
<ele>72.58</ele>
<time>2018-12-30T12:32:11Z</time>
</trkpt>
<trkpt lat="49.1590220" lon="2.6958228">
<ele>71.70</ele>
<time>2018-12-30T12:32:13Z</time>
</trkpt>
<trkpt lat="49.1590256" lon="2.6959553">
<ele>71.62</ele>
<time>2018-12-30T12:32:15Z</time>
</trkpt>
<trkpt lat="49.1590286" lon="2.6960797">
<ele>71.61</ele>
<time>2018-12-30T12:32:17Z</time>
</trkpt>
<trkpt lat="49.1590404" lon="2.6961995">
<ele>71.61</ele>
<time>2018-12-30T12:32:19Z</time>
</trkpt>
<trkpt lat="49.1590444" lon="2.6963201">
<ele>71.61</ele>
<time>2018-12-30T12:32:21Z</time>
</trkpt>
<trkpt lat="49.1590464" lon="2.6964326">
<ele>72.52</ele>
<time>2018-12-30T12:32:23Z</time>
</trkpt>
<trkpt lat="49.1590579" lon="2.6965433">
<ele>71.69</ele>
<time>2018-12-30T12:32:25Z</time>
</trkpt>
<trkpt lat="49.1590863" lon="2.6966515">
<ele>71.62</ele>
<time>2018-12-30T12:32:27Z</time>
</trkpt>
<trkpt lat="49.1591229" lon="2.6967580">
<ele>72.52</ele>
<time>2018-12-30T12:32:29Z</time>
</trkpt>
<trkpt lat="49.1591298" lon="2.6968801">
<ele>72.60</ele>
<time>2018-12-30T12:32:31Z</time>
</trkpt>
<trkpt lat="49.1591311" lon="2.6969983">
<ele>73.52</ele>
<time>2018-12-30T12:32:33Z</time>
</trkpt>
<trkpt lat="49.1591478" lon="2.6971158">
<ele>73.60</ele>
<time>2018-12-30T12:32:35Z</time>
</trkpt>
<trkpt lat="49.1591718" lon="2.6972317">
<ele>74.52</ele>
<time>2018-12-30T12:32:37Z</time>
</trkpt>
<trkpt lat="49.1592021" lon="2.6973659">
<ele>74.60</ele>
<time>2018-12-30T12:32:39Z</time>
</trkpt>
<trkpt lat="49.1592244" lon="2.6974994">
<ele>74.61</ele>
<time>2018-12-30T12:32:41Z</time>
</trkpt>
<trkpt lat="49.1592358" lon="2.6975715">
<ele>74.61</ele>
<time>2018-12-30T12:32:42Z</time>
</trkpt>
<trkpt lat="49.1592456" lon="2.6976403">
<ele>75.31</ele>
<time>2018-12-30T12:32:43Z</time>
</trkpt>
<trkpt lat="49.1592557" lon="2.6977113">
<ele>75.52</ele>
<time>2018-12-30T12:32:44Z</time>
</trkpt>
<trkpt lat="49.1592680" lon="2.6977922">
<ele>75.58</ele>
<time>2018-12-30T12:32:45Z</time>
</trkpt>
<trkpt lat="49.1592792" lon="2.6978672">
<ele>75.60</ele>
<time>2018-12-30T12:32:46Z</time>
</trkpt>
<trkpt lat="49.1592922" lon="2.6979416">
<ele>75.61</ele>
<time>2018-12-30T12:32:47Z</time>
</trkpt>
<trkpt lat="49.1593007" lon="2.6980150">
<ele>75.61</ele>
<time>2018-12-30T12:32:48Z</time>
</trkpt>
<trkpt lat="49.1593097" lon="2.6981003">
<ele>75.61</ele>
<time>2018-12-30T12:32:49Z</time>
</trkpt>
<trkpt lat="49.1593204" lon="2.6981752">
<ele>75.61</ele>
<time>2018-12-30T12:32:50Z</time>
</trkpt>
<trkpt lat="49.1593270" lon="2.6982545">
<ele>74.91</ele>
<time>2018-12-30T12:32:51Z</time>
</trkpt>
<trkpt lat="49.1593337" lon="2.6983342">
<ele>74.70</ele>
<time>2018-12-30T12:32:52Z</time>
</trkpt>
<trkpt lat="49.1593399" lon="2.6984023">
<ele>74.64</ele>
<time>2018-12-30T12:32:53Z</time>
</trkpt>
<trkpt lat="49.1593480" lon="2.6984761">
<ele>74.62</ele>
<time>2018-12-30T12:32:54Z</time>
</trkpt>
<trkpt lat="49.1593573" lon="2.6985481">
<ele>74.61</ele>
<time>2018-12-30T12:32:55Z</time>
</trkpt>
<trkpt lat="49.1593684" lon="2.6986256">
<ele>74.61</ele>
<time>2018-12-30T12:32:56Z</time>
</trkpt>
<trkpt lat="49.1593732" lon="2.6986989">
<ele>74.61</ele>
<time>2018-12-30T12:32:57Z</time>
</trkpt>
<trkpt lat="49.1593898" lon="2.6988259">
<ele>74.61</ele>
<time>2018-12-30T12:32:59Z</time>
</trkpt>
<trkpt lat="49.1594188" lon="2.6989295">
<ele>74.61</ele>
<time>2018-12-30T12:33:01Z</time>
</trkpt>
<trkpt lat="49.1594446" lon="2.6990561">
<ele>74.61</ele>
<time>2018-12-30T12:33:03Z</time>
</trkpt>
<trkpt lat="49.1594505" lon="2.6991285">
<ele>74.61</ele>
<time>2018-12-30T12:33:04Z</time>
</trkpt>
<trkpt lat="49.1594482" lon="2.6991983">
<ele>74.61</ele>
<time>2018-12-30T12:33:05Z</time>
</trkpt>
<trkpt lat="49.1594100" lon="2.6993121">
<ele>74.61</ele>
<time>2018-12-30T12:33:07Z</time>
</trkpt>
<trkpt lat="49.1593772" lon="2.6993758">
<ele>73.91</ele>
<time>2018-12-30T12:33:08Z</time>
</trkpt>
<trkpt lat="49.1593485" lon="2.6994376">
<ele>73.70</ele>
<time>2018-12-30T12:33:09Z</time>
</trkpt>
<trkpt lat="49.1592818" lon="2.6995266">
<ele>73.62</ele>
<time>2018-12-30T12:33:11Z</time>
</trkpt>
<trkpt lat="49.1592364" lon="2.6995700">
<ele>73.61</ele>
<time>2018-12-30T12:33:13Z</time>
</trkpt>
<trkpt lat="49.1592055" lon="2.6996572">
<ele>73.61</ele>
<time>2018-12-30T12:33:50Z</time>
</trkpt>
<trkpt lat="49.1591792" lon="2.6997404">
<ele>73.61</ele>
<time>2018-12-30T12:33:52Z</time>
</trkpt>
<trkpt lat="49.1591464" lon="2.6998215">
<ele>73.61</ele>
<time>2018-12-30T12:33:54Z</time>
</trkpt>
<trkpt lat="49.1590941" lon="2.6999199">
<ele>73.61</ele>
<time>2018-12-30T12:33:56Z</time>
</trkpt>
<trkpt lat="49.1590421" lon="2.7000273">
<ele>73.61</ele>
<time>2018-12-30T12:33:58Z</time>
</trkpt>
<trkpt lat="49.1590156" lon="2.7000869">
<ele>74.31</ele>
<time>2018-12-30T12:33:59Z</time>
</trkpt>
<trkpt lat="49.1589914" lon="2.7001474">
<ele>73.82</ele>
<time>2018-12-30T12:34:00Z</time>
</trkpt>
<trkpt lat="49.1589675" lon="2.7002100">
<ele>73.67</ele>
<time>2018-12-30T12:34:01Z</time>
</trkpt>
<trkpt lat="49.1589398" lon="2.7002674">
<ele>73.63</ele>
<time>2018-12-30T12:34:02Z</time>
</trkpt>
<trkpt lat="49.1589089" lon="2.7003273">
<ele>73.62</ele>
<time>2018-12-30T12:34:03Z</time>
</trkpt>
<trkpt lat="49.1588816" lon="2.7003899">
<ele>73.61</ele>
<time>2018-12-30T12:34:04Z</time>
</trkpt>
<trkpt lat="49.1588514" lon="2.7004549">
<ele>73.61</ele>
<time>2018-12-30T12:34:05Z</time>
</trkpt>
<trkpt lat="49.1588243" lon="2.7005148">
<ele>73.61</ele>
<time>2018-12-30T12:34:06Z</time>
</trkpt>
<trkpt lat="49.1587952" lon="2.7005797">
<ele>73.61</ele>
<time>2018-12-30T12:34:07Z</time>
</trkpt>
<trkpt lat="49.1587645" lon="2.7006464">
<ele>73.61</ele>
<time>2018-12-30T12:34:08Z</time>
</trkpt>
<trkpt lat="49.1587325" lon="2.7007081">
<ele>72.91</ele>
<time>2018-12-30T12:34:09Z</time>
</trkpt>
<trkpt lat="49.1587055" lon="2.7007744">
<ele>72.70</ele>
<time>2018-12-30T12:34:10Z</time>
</trkpt>
<trkpt lat="49.1586844" lon="2.7008459">
<ele>72.64</ele>
<time>2018-12-30T12:34:11Z</time>
</trkpt>
<trkpt lat="49.1586633" lon="2.7009146">
<ele>73.32</ele>
<time>2018-12-30T12:34:12Z</time>
</trkpt>
<trkpt lat="49.1586424" lon="2.7009825">
<ele>73.52</ele>
<time>2018-12-30T12:34:13Z</time>
</trkpt>
<trkpt lat="49.1586209" lon="2.7010495">
<ele>73.58</ele>
<time>2018-12-30T12:34:14Z</time>
</trkpt>
<trkpt lat="49.1585956" lon="2.7011152">
<ele>73.60</ele>
<time>2018-12-30T12:34:15Z</time>
</trkpt>
<trkpt lat="49.1585735" lon="2.7011778">
<ele>73.61</ele>
<time>2018-12-30T12:34:16Z</time>
</trkpt>
<trkpt lat="49.1585519" lon="2.7012405">
<ele>73.61</ele>
<time>2018-12-30T12:34:17Z</time>
</trkpt>
<trkpt lat="49.1585301" lon="2.7013039">
<ele>73.61</ele>
<time>2018-12-30T12:34:18Z</time>
</trkpt>
<trkpt lat="49.1585067" lon="2.7013648">
<ele>73.61</ele>
<time>2018-12-30T12:34:19Z</time>
</trkpt>
<trkpt lat="49.1584842" lon="2.7014252">
<ele>73.61</ele>
<time>2018-12-30T12:34:20Z</time>
</trkpt>
<trkpt lat="49.1584630" lon="2.7014871">
<ele>74.31</ele>
<time>2018-12-30T12:34:21Z</time>
</trkpt>
<trkpt lat="49.1584388" lon="2.7015463">
<ele>74.52</ele>
<time>2018-12-30T12:34:22Z</time>
</trkpt>
<trkpt lat="49.1584093" lon="2.7016037">
<ele>74.58</ele>
<time>2018-12-30T12:34:23Z</time>
</trkpt>
<trkpt lat="49.1583816" lon="2.7016694">
<ele>74.60</ele>
<time>2018-12-30T12:34:24Z</time>
</trkpt>
<trkpt lat="49.1583586" lon="2.7017372">
<ele>74.61</ele>
<time>2018-12-30T12:34:25Z</time>
</trkpt>
<trkpt lat="49.1583322" lon="2.7018023">
<ele>74.61</ele>
<time>2018-12-30T12:34:26Z</time>
</trkpt>
<trkpt lat="49.1583080" lon="2.7018648">
<ele>75.31</ele>
<time>2018-12-30T12:34:27Z</time>
</trkpt>
<trkpt lat="49.1582850" lon="2.7019290">
<ele>75.52</ele>
<time>2018-12-30T12:34:28Z</time>
</trkpt>
<trkpt lat="49.1582628" lon="2.7019973">
<ele>74.88</ele>
<time>2018-12-30T12:34:29Z</time>
</trkpt>
<trkpt lat="49.1582362" lon="2.7020643">
<ele>74.69</ele>
<time>2018-12-30T12:34:30Z</time>
</trkpt>
<trkpt lat="49.1582097" lon="2.7021329">
<ele>74.64</ele>
<time>2018-12-30T12:34:31Z</time>
</trkpt>
<trkpt lat="49.1581846" lon="2.7022013">
<ele>75.32</ele>
<time>2018-12-30T12:34:32Z</time>
</trkpt>
<trkpt lat="49.1581576" lon="2.7022688">
<ele>75.52</ele>
<time>2018-12-30T12:34:33Z</time>
</trkpt>
<trkpt lat="49.1581335" lon="2.7023387">
<ele>75.58</ele>
<time>2018-12-30T12:34:34Z</time>
</trkpt>
<trkpt lat="49.1581071" lon="2.7024108">
<ele>74.90</ele>
<time>2018-12-30T12:34:35Z</time>
</trkpt>
<trkpt lat="49.1580809" lon="2.7024815">
<ele>74.70</ele>
<time>2018-12-30T12:34:36Z</time>
</trkpt>
<trkpt lat="49.1580555" lon="2.7025521">
<ele>74.64</ele>
<time>2018-12-30T12:34:37Z</time>
</trkpt>
<trkpt lat="49.1580281" lon="2.7026215">
<ele>74.62</ele>
<time>2018-12-30T12:34:38Z</time>
</trkpt>
<trkpt lat="49.1580032" lon="2.7026885">
<ele>74.61</ele>
<time>2018-12-30T12:34:39Z</time>
</trkpt>
<trkpt lat="49.1579765" lon="2.7027518">
<ele>74.61</ele>
<time>2018-12-30T12:34:40Z</time>
</trkpt>
<trkpt lat="49.1579519" lon="2.7028153">
<ele>74.61</ele>
<time>2018-12-30T12:34:41Z</time>
</trkpt>
<trkpt lat="49.1579307" lon="2.7028775">
<ele>74.61</ele>
<time>2018-12-30T12:34:42Z</time>
</trkpt>
<trkpt lat="49.1579070" lon="2.7029386">
<ele>74.61</ele>
<time>2018-12-30T12:34:43Z</time>
</trkpt>
<trkpt lat="49.1578809" lon="2.7030020">
<ele>74.61</ele>
<time>2018-12-30T12:34:44Z</time>
</trkpt>
<trkpt lat="49.1578568" lon="2.7030677">
<ele>74.61</ele>
<time>2018-12-30T12:34:45Z</time>
</trkpt>
<trkpt lat="49.1578352" lon="2.7031330">
<ele>74.61</ele>
<time>2018-12-30T12:34:46Z</time>
</trkpt>
<trkpt lat="49.1578117" lon="2.7031957">
<ele>75.31</ele>
<time>2018-12-30T12:34:47Z</time>
</trkpt>
<trkpt lat="49.1577867" lon="2.7032561">
<ele>75.52</ele>
<time>2018-12-30T12:34:48Z</time>
</trkpt>
<trkpt lat="49.1577616" lon="2.7033173">
<ele>75.58</ele>
<time>2018-12-30T12:34:49Z</time>
</trkpt>
<trkpt lat="49.1577374" lon="2.7033799">
<ele>75.60</ele>
<time>2018-12-30T12:34:50Z</time>
</trkpt>
<trkpt lat="49.1577135" lon="2.7034452">
<ele>75.61</ele>
<time>2018-12-30T12:34:51Z</time>
</trkpt>
<trkpt lat="49.1576948" lon="2.7035101">
<ele>75.61</ele>
<time>2018-12-30T12:34:52Z</time>
</trkpt>
<trkpt lat="49.1576770" lon="2.7035759">
<ele>75.61</ele>
<time>2018-12-30T12:34:53Z</time>
</trkpt>
<trkpt lat="49.1576603" lon="2.7036442">
<ele>75.61</ele>
<time>2018-12-30T12:34:54Z</time>
</trkpt>
<trkpt lat="49.1576502" lon="2.7037193">
<ele>75.61</ele>
<time>2018-12-30T12:34:55Z</time>
</trkpt>
<trkpt lat="49.1576484" lon="2.7037965">
<ele>75.61</ele>
<time>2018-12-30T12:34:56Z</time>
</trkpt>
<trkpt lat="49.1576516" lon="2.7038714">
<ele>75.61</ele>
<time>2018-12-30T12:34:57Z</time>
</trkpt>
<trkpt lat="49.1576581" lon="2.7039424">
<ele>75.61</ele>
<time>2018-12-30T12:34:58Z</time>
</trkpt>
<trkpt lat="49.1576656" lon="2.7040139">
<ele>75.61</ele>
<time>2018-12-30T12:34:59Z</time>
</trkpt>
<trkpt lat="49.1576668" lon="2.7040842">
<ele>74.91</ele>
<time>2018-12-30T12:35:00Z</time>
</trkpt>
<trkpt lat="49.1576414" lon="2.7042139">
<ele>74.64</ele>
<time>2018-12-30T12:35:02Z</time>
</trkpt>
<trkpt lat="49.1576106" lon="2.7042762">
<ele>74.62</ele>
<time>2018-12-30T12:35:03Z</time>
</trkpt>
<trkpt lat="49.1575805" lon="2.7043379">
<ele>74.61</ele>
<time>2018-12-30T12:35:04Z</time>
</trkpt>
<trkpt lat="49.1575503" lon="2.7043968">
<ele>74.61</ele>
<time>2018-12-30T12:35:05Z</time>
</trkpt>
<trkpt lat="49.1575220" lon="2.7044576">
<ele>75.31</ele>
<time>2018-12-30T12:35:06Z</time>
</trkpt>
<trkpt lat="49.1574894" lon="2.7045111">
<ele>75.52</ele>
<time>2018-12-30T12:35:07Z</time>
</trkpt>
<trkpt lat="49.1574554" lon="2.7045630">
<ele>75.58</ele>
<time>2018-12-30T12:35:08Z</time>
</trkpt>
<trkpt lat="49.1574173" lon="2.7046184">
<ele>75.60</ele>
<time>2018-12-30T12:35:09Z</time>
</trkpt>
<trkpt lat="49.1573810" lon="2.7046715">
<ele>75.61</ele>
<time>2018-12-30T12:35:10Z</time>
</trkpt>
<trkpt lat="49.1573433" lon="2.7047224">
<ele>75.61</ele>
<time>2018-12-30T12:35:11Z</time>
</trkpt>
<trkpt lat="49.1573068" lon="2.7047786">
<ele>75.61</ele>
<time>2018-12-30T12:35:12Z</time>
</trkpt>
<trkpt lat="49.1572666" lon="2.7048311">
<ele>75.61</ele>
<time>2018-12-30T12:35:13Z</time>
</trkpt>
<trkpt lat="49.1572344" lon="2.7048902">
<ele>75.61</ele>
<time>2018-12-30T12:35:14Z</time>
</trkpt>
<trkpt lat="49.1571985" lon="2.7049453">
<ele>75.61</ele>
<time>2018-12-30T12:35:15Z</time>
</trkpt>
<trkpt lat="49.1571613" lon="2.7049986">
<ele>75.61</ele>
<time>2018-12-30T12:35:16Z</time>
</trkpt>
<trkpt lat="49.1571246" lon="2.7050566">
<ele>75.61</ele>
<time>2018-12-30T12:35:17Z</time>
</trkpt>
<trkpt lat="49.1570885" lon="2.7051115">
<ele>75.61</ele>
<time>2018-12-30T12:35:18Z</time>
</trkpt>
<trkpt lat="49.1570511" lon="2.7051764">
<ele>75.61</ele>
<time>2018-12-30T12:35:19Z</time>
</trkpt>
<trkpt lat="49.1570140" lon="2.7052324">
<ele>75.61</ele>
<time>2018-12-30T12:35:20Z</time>
</trkpt>
<trkpt lat="49.1569768" lon="2.7052872">
<ele>76.31</ele>
<time>2018-12-30T12:35:21Z</time>
</trkpt>
<trkpt lat="49.1569418" lon="2.7053450">
<ele>76.52</ele>
<time>2018-12-30T12:35:22Z</time>
</trkpt>
<trkpt lat="49.1569028" lon="2.7054017">
<ele>76.58</ele>
<time>2018-12-30T12:35:23Z</time>
</trkpt>
<trkpt lat="49.1568630" lon="2.7054558">
<ele>75.90</ele>
<time>2018-12-30T12:35:24Z</time>
</trkpt>
<trkpt lat="49.1568272" lon="2.7055188">
<ele>75.70</ele>
<time>2018-12-30T12:35:25Z</time>
</trkpt>
<trkpt lat="49.1567950" lon="2.7055830">
<ele>76.34</ele>
<time>2018-12-30T12:35:26Z</time>
</trkpt>
<trkpt lat="49.1567569" lon="2.7056405">
<ele>76.53</ele>
<time>2018-12-30T12:35:27Z</time>
</trkpt>
<trkpt lat="49.1567173" lon="2.7056910">
<ele>75.89</ele>
<time>2018-12-30T12:35:28Z</time>
</trkpt>
<trkpt lat="49.1566768" lon="2.7057402">
<ele>75.69</ele>
<time>2018-12-30T12:35:29Z</time>
</trkpt>
<trkpt lat="49.1566360" lon="2.7057929">
<ele>75.64</ele>
<time>2018-12-30T12:35:30Z</time>
</trkpt>
<trkpt lat="49.1565955" lon="2.7058495">
<ele>75.62</ele>
<time>2018-12-30T12:35:31Z</time>
</trkpt>
<trkpt lat="49.1565556" lon="2.7059069">
<ele>75.61</ele>
<time>2018-12-30T12:35:32Z</time>
</trkpt>
<trkpt lat="49.1565199" lon="2.7059611">
<ele>75.61</ele>
<time>2018-12-30T12:35:33Z</time>
</trkpt>
<trkpt lat="49.1564800" lon="2.7060199">
<ele>75.61</ele>
<time>2018-12-30T12:35:34Z</time>
</trkpt>
<trkpt lat="49.1564426" lon="2.7060709">
<ele>75.61</ele>
<time>2018-12-30T12:35:35Z</time>
</trkpt>
<trkpt lat="49.1564094" lon="2.7061259">
<ele>75.61</ele>
<time>2018-12-30T12:35:36Z</time>
</trkpt>
<trkpt lat="49.1563733" lon="2.7061751">
<ele>75.61</ele>
<time>2018-12-30T12:35:37Z</time>
</trkpt>
<trkpt lat="49.1563357" lon="2.7062241">
<ele>75.61</ele>
<time>2018-12-30T12:35:38Z</time>
</trkpt>
<trkpt lat="49.1562967" lon="2.7062745">
<ele>75.61</ele>
<time>2018-12-30T12:35:39Z</time>
</trkpt>
<trkpt lat="49.1562600" lon="2.7063195">
<ele>75.61</ele>
<time>2018-12-30T12:35:40Z</time>
</trkpt>
<trkpt lat="49.1562246" lon="2.7063656">
<ele>75.61</ele>
<time>2018-12-30T12:35:41Z</time>
</trkpt>
<trkpt lat="49.1561575" lon="2.7064545">
<ele>75.61</ele>
<time>2018-12-30T12:35:43Z</time>
</trkpt>
<trkpt lat="49.1561210" lon="2.7064978">
<ele>75.61</ele>
<time>2018-12-30T12:35:44Z</time>
</trkpt>
<trkpt lat="49.1560830" lon="2.7065356">
<ele>75.61</ele>
<time>2018-12-30T12:35:45Z</time>
</trkpt>
<trkpt lat="49.1560160" lon="2.7066210">
<ele>75.61</ele>
<time>2018-12-30T12:35:47Z</time>
</trkpt>
<trkpt lat="49.1559522" lon="2.7066940">
<ele>76.31</ele>
<time>2018-12-30T12:35:49Z</time>
</trkpt>
<trkpt lat="49.1559064" lon="2.7067821">
<ele>76.58</ele>
<time>2018-12-30T12:35:51Z</time>
</trkpt>
<trkpt lat="49.1558780" lon="2.7068611">
<ele>76.61</ele>
<time>2018-12-30T12:35:53Z</time>
</trkpt>
<trkpt lat="49.1558340" lon="2.7068296">
<ele>76.61</ele>
<time>2018-12-30T12:35:57Z</time>
</trkpt>
<trkpt lat="49.1558592" lon="2.7067525">
<ele>76.61</ele>
<time>2018-12-30T12:36:00Z</time>
</trkpt>
<trkpt lat="49.1559071" lon="2.7067444">
<ele>76.61</ele>
<time>2018-12-30T12:36:02Z</time>
</trkpt>
<trkpt lat="49.1558681" lon="2.7067969">
<ele>74.63</ele>
<time>2018-12-30T12:36:30Z</time>
</trkpt>
<trkpt lat="49.1558161" lon="2.7068338">
<ele>73.91</ele>
<time>2018-12-30T12:37:40Z</time>
</trkpt>
<trkpt lat="49.1557714" lon="2.7069008">
<ele>75.29</ele>
<time>2018-12-30T12:37:43Z</time>
</trkpt>
<trkpt lat="49.1557216" lon="2.7069520">
<ele>76.49</ele>
<time>2018-12-30T12:37:45Z</time>
</trkpt>
<trkpt lat="49.1556569" lon="2.7070249">
<ele>77.51</ele>
<time>2018-12-30T12:37:47Z</time>
</trkpt>
<trkpt lat="49.1555878" lon="2.7071108">
<ele>76.90</ele>
<time>2018-12-30T12:37:49Z</time>
</trkpt>
<trkpt lat="49.1555484" lon="2.7071591">
<ele>76.70</ele>
<time>2018-12-30T12:37:50Z</time>
</trkpt>
<trkpt lat="49.1555151" lon="2.7072077">
<ele>77.34</ele>
<time>2018-12-30T12:37:51Z</time>
</trkpt>
<trkpt lat="49.1554813" lon="2.7072531">
<ele>77.53</ele>
<time>2018-12-30T12:37:52Z</time>
</trkpt>
<trkpt lat="49.1554461" lon="2.7072971">
<ele>77.59</ele>
<time>2018-12-30T12:37:53Z</time>
</trkpt>
<trkpt lat="49.1554100" lon="2.7073426">
<ele>77.60</ele>
<time>2018-12-30T12:37:54Z</time>
</trkpt>
<trkpt lat="49.1553782" lon="2.7074035">
<ele>77.61</ele>
<time>2018-12-30T12:37:55Z</time>
</trkpt>
<trkpt lat="49.1553449" lon="2.7074614">
<ele>77.61</ele>
<time>2018-12-30T12:37:56Z</time>
</trkpt>
<trkpt lat="49.1553106" lon="2.7075230">
<ele>77.61</ele>
<time>2018-12-30T12:37:57Z</time>
</trkpt>
<trkpt lat="49.1552831" lon="2.7075857">
<ele>78.31</ele>
<time>2018-12-30T12:37:58Z</time>
</trkpt>
<trkpt lat="49.1552552" lon="2.7076483">
<ele>77.82</ele>
<time>2018-12-30T12:37:59Z</time>
</trkpt>
<trkpt lat="49.1551912" lon="2.7077612">
<ele>78.54</ele>
<time>2018-12-30T12:38:01Z</time>
</trkpt>
<trkpt lat="49.1551557" lon="2.7078246">
<ele>78.59</ele>
<time>2018-12-30T12:38:02Z</time>
</trkpt>
<trkpt lat="49.1551244" lon="2.7078913">
<ele>78.60</ele>
<time>2018-12-30T12:38:03Z</time>
</trkpt>
<trkpt lat="49.1550903" lon="2.7079541">
<ele>78.61</ele>
<time>2018-12-30T12:38:04Z</time>
</trkpt>
<trkpt lat="49.1550599" lon="2.7080174">
<ele>78.61</ele>
<time>2018-12-30T12:38:05Z</time>
</trkpt>
<trkpt lat="49.1550324" lon="2.7080835">
<ele>77.91</ele>
<time>2018-12-30T12:38:06Z</time>
</trkpt>
<trkpt lat="49.1550012" lon="2.7081437">
<ele>77.70</ele>
<time>2018-12-30T12:38:07Z</time>
</trkpt>
<trkpt lat="49.1549708" lon="2.7082042">
<ele>77.64</ele>
<time>2018-12-30T12:38:08Z</time>
</trkpt>
<trkpt lat="49.1549361" lon="2.7082606">
<ele>77.62</ele>
<time>2018-12-30T12:38:09Z</time>
</trkpt>
<trkpt lat="49.1549001" lon="2.7083225">
<ele>77.61</ele>
<time>2018-12-30T12:38:10Z</time>
</trkpt>
<trkpt lat="49.1548650" lon="2.7083855">
<ele>77.61</ele>
<time>2018-12-30T12:38:11Z</time>
</trkpt>
<trkpt lat="49.1548372" lon="2.7084497">
<ele>77.61</ele>
<time>2018-12-30T12:38:12Z</time>
</trkpt>
<trkpt lat="49.1548011" lon="2.7085090">
<ele>77.61</ele>
<time>2018-12-30T12:38:13Z</time>
</trkpt>
<trkpt lat="49.1547635" lon="2.7085684">
<ele>77.61</ele>
<time>2018-12-30T12:38:14Z</time>
</trkpt>
<trkpt lat="49.1547297" lon="2.7086325">
<ele>77.61</ele>
<time>2018-12-30T12:38:15Z</time>
</trkpt>
<trkpt lat="49.1546988" lon="2.7086926">
<ele>77.61</ele>
<time>2018-12-30T12:38:16Z</time>
</trkpt>
<trkpt lat="49.1546693" lon="2.7087594">
<ele>77.61</ele>
<time>2018-12-30T12:38:17Z</time>
</trkpt>
<trkpt lat="49.1546398" lon="2.7088221">
<ele>76.91</ele>
<time>2018-12-30T12:38:18Z</time>
</trkpt>
<trkpt lat="49.1546053" lon="2.7088848">
<ele>76.70</ele>
<time>2018-12-30T12:38:19Z</time>
</trkpt>
<trkpt lat="49.1545758" lon="2.7089460">
<ele>76.64</ele>
<time>2018-12-30T12:38:20Z</time>
</trkpt>
<trkpt lat="49.1545464" lon="2.7090030">
<ele>75.92</ele>
<time>2018-12-30T12:38:21Z</time>
</trkpt>
<trkpt lat="49.1545191" lon="2.7090607">
<ele>76.40</ele>
<time>2018-12-30T12:38:22Z</time>
</trkpt>
<trkpt lat="49.1544888" lon="2.7091195">
<ele>76.55</ele>
<time>2018-12-30T12:38:23Z</time>
</trkpt>
<trkpt lat="49.1544621" lon="2.7091808">
<ele>76.59</ele>
<time>2018-12-30T12:38:24Z</time>
</trkpt>
<trkpt lat="49.1544398" lon="2.7092474">
<ele>76.61</ele>
<time>2018-12-30T12:38:25Z</time>
</trkpt>
<trkpt lat="49.1544210" lon="2.7093159">
<ele>75.91</ele>
<time>2018-12-30T12:38:26Z</time>
</trkpt>
<trkpt lat="49.1544064" lon="2.7093826">
<ele>76.40</ele>
<time>2018-12-30T12:38:27Z</time>
</trkpt>
<trkpt lat="49.1543968" lon="2.7094525">
<ele>75.85</ele>
<time>2018-12-30T12:38:28Z</time>
</trkpt>
<trkpt lat="49.1543730" lon="2.7095799">
<ele>75.63</ele>
<time>2018-12-30T12:38:30Z</time>
</trkpt>
<trkpt lat="49.1543347" lon="2.7096913">
<ele>76.52</ele>
<time>2018-12-30T12:38:32Z</time>
</trkpt>
<trkpt lat="49.1542873" lon="2.7098183">
<ele>75.90</ele>
<time>2018-12-30T12:38:34Z</time>
</trkpt>
<trkpt lat="49.1542675" lon="2.7098894">
<ele>75.70</ele>
<time>2018-12-30T12:38:35Z</time>
</trkpt>
<trkpt lat="49.1542482" lon="2.7099576">
<ele>75.64</ele>
<time>2018-12-30T12:38:36Z</time>
</trkpt>
<trkpt lat="49.1542271" lon="2.7100247">
<ele>75.62</ele>
<time>2018-12-30T12:38:37Z</time>
</trkpt>
<trkpt lat="49.1542067" lon="2.7100969">
<ele>76.31</ele>
<time>2018-12-30T12:38:38Z</time>
</trkpt>
<trkpt lat="49.1541858" lon="2.7101607">
<ele>76.52</ele>
<time>2018-12-30T12:38:39Z</time>
</trkpt>
<trkpt lat="49.1541626" lon="2.7102204">
<ele>76.58</ele>
<time>2018-12-30T12:38:40Z</time>
</trkpt>
<trkpt lat="49.1541169" lon="2.7103301">
<ele>77.52</ele>
<time>2018-12-30T12:38:42Z</time>
</trkpt>
<trkpt lat="49.1540632" lon="2.7104292">
<ele>77.60</ele>
<time>2018-12-30T12:38:44Z</time>
</trkpt>
<trkpt lat="49.1540266" lon="2.7105457">
<ele>77.61</ele>
<time>2018-12-30T12:38:46Z</time>
</trkpt>
<trkpt lat="49.1539828" lon="2.7106484">
<ele>77.61</ele>
<time>2018-12-30T12:38:48Z</time>
</trkpt>
<trkpt lat="49.1539563" lon="2.7107052">
<ele>77.61</ele>
<time>2018-12-30T12:38:49Z</time>
</trkpt>
<trkpt lat="49.1538923" lon="2.7107729">
<ele>76.91</ele>
<time>2018-12-30T12:38:51Z</time>
</trkpt>
<trkpt lat="49.1538170" lon="2.7108232">
<ele>77.55</ele>
<time>2018-12-30T12:38:53Z</time>
</trkpt>
<trkpt lat="49.1537742" lon="2.7108460">
<ele>77.59</ele>
<time>2018-12-30T12:38:54Z</time>
</trkpt>
<trkpt lat="49.1536953" lon="2.7108928">
<ele>77.61</ele>
<time>2018-12-30T12:38:56Z</time>
</trkpt>
<trkpt lat="49.1536517" lon="2.7109156">
<ele>77.61</ele>
<time>2018-12-30T12:38:57Z</time>
</trkpt>
<trkpt lat="49.1536000" lon="2.7109422">
<ele>78.31</ele>
<time>2018-12-30T12:38:58Z</time>
</trkpt>
<trkpt lat="49.1535578" lon="2.7109750">
<ele>78.52</ele>
<time>2018-12-30T12:38:59Z</time>
</trkpt>
<trkpt lat="49.1534785" lon="2.7110343">
<ele>79.51</ele>
<time>2018-12-30T12:39:01Z</time>
</trkpt>
<trkpt lat="49.1533967" lon="2.7110993">
<ele>79.60</ele>
<time>2018-12-30T12:39:03Z</time>
</trkpt>
<trkpt lat="49.1533604" lon="2.7111449">
<ele>79.61</ele>
<time>2018-12-30T12:39:04Z</time>
</trkpt>
<trkpt lat="49.1533006" lon="2.7112174">
<ele>80.31</ele>
<time>2018-12-30T12:39:06Z</time>
</trkpt>
<trkpt lat="49.1532398" lon="2.7112935">
<ele>80.58</ele>
<time>2018-12-30T12:39:08Z</time>
</trkpt>
<trkpt lat="49.1531736" lon="2.7113858">
<ele>79.70</ele>
<time>2018-12-30T12:39:10Z</time>
</trkpt>
<trkpt lat="49.1531391" lon="2.7114355">
<ele>79.64</ele>
<time>2018-12-30T12:39:11Z</time>
</trkpt>
<trkpt lat="49.1531036" lon="2.7114864">
<ele>79.62</ele>
<time>2018-12-30T12:39:12Z</time>
</trkpt>
<trkpt lat="49.1530623" lon="2.7115288">
<ele>79.61</ele>
<time>2018-12-30T12:39:13Z</time>
</trkpt>
<trkpt lat="49.1530237" lon="2.7115702">
<ele>80.31</ele>
<time>2018-12-30T12:39:14Z</time>
</trkpt>
<trkpt lat="49.1529838" lon="2.7116088">
<ele>80.52</ele>
<time>2018-12-30T12:39:15Z</time>
</trkpt>
<trkpt lat="49.1529418" lon="2.7116494">
<ele>80.58</ele>
<time>2018-12-30T12:39:16Z</time>
</trkpt>
<trkpt lat="49.1528974" lon="2.7116895">
<ele>81.30</ele>
<time>2018-12-30T12:39:17Z</time>
</trkpt>
<trkpt lat="49.1528543" lon="2.7117302">
<ele>81.52</ele>
<time>2018-12-30T12:39:18Z</time>
</trkpt>
<trkpt lat="49.1528113" lon="2.7117634">
<ele>81.58</ele>
<time>2018-12-30T12:39:19Z</time>
</trkpt>
<trkpt lat="49.1527673" lon="2.7117984">
<ele>81.60</ele>
<time>2018-12-30T12:39:20Z</time>
</trkpt>
<trkpt lat="49.1527195" lon="2.7118344">
<ele>81.61</ele>
<time>2018-12-30T12:39:21Z</time>
</trkpt>
<trkpt lat="49.1526714" lon="2.7118574">
<ele>81.61</ele>
<time>2018-12-30T12:39:22Z</time>
</trkpt>
<trkpt lat="49.1526222" lon="2.7118706">
<ele>81.61</ele>
<time>2018-12-30T12:39:23Z</time>
</trkpt>
<trkpt lat="49.1525744" lon="2.7118866">
<ele>81.61</ele>
<time>2018-12-30T12:39:24Z</time>
</trkpt>
<trkpt lat="49.1525218" lon="2.7119156">
<ele>80.91</ele>
<time>2018-12-30T12:39:25Z</time>
</trkpt>
<trkpt lat="49.1524688" lon="2.7119424">
<ele>80.70</ele>
<time>2018-12-30T12:39:26Z</time>
</trkpt>
<trkpt lat="49.1524219" lon="2.7119745">
<ele>80.64</ele>
<time>2018-12-30T12:39:27Z</time>
</trkpt>
<trkpt lat="49.1523743" lon="2.7120195">
<ele>79.92</ele>
<time>2018-12-30T12:39:28Z</time>
</trkpt>
<trkpt lat="49.1523317" lon="2.7120535">
<ele>80.40</ele>
<time>2018-12-30T12:39:29Z</time>
</trkpt>
<trkpt lat="49.1522898" lon="2.7120904">
<ele>79.85</ele>
<time>2018-12-30T12:39:30Z</time>
</trkpt>
<trkpt lat="49.1522483" lon="2.7121249">
<ele>79.68</ele>
<time>2018-12-30T12:39:31Z</time>
</trkpt>
<trkpt lat="49.1522079" lon="2.7121559">
<ele>79.63</ele>
<time>2018-12-30T12:39:32Z</time>
</trkpt>
<trkpt lat="49.1521629" lon="2.7121892">
<ele>80.32</ele>
<time>2018-12-30T12:39:33Z</time>
</trkpt>
<trkpt lat="49.1521187" lon="2.7122222">
<ele>80.52</ele>
<time>2018-12-30T12:39:34Z</time>
</trkpt>
<trkpt lat="49.1520778" lon="2.7122541">
<ele>80.58</ele>
<time>2018-12-30T12:39:35Z</time>
</trkpt>
<trkpt lat="49.1520002" lon="2.7123070">
<ele>80.61</ele>
<time>2018-12-30T12:39:37Z</time>
</trkpt>
<trkpt lat="49.1519563" lon="2.7123425">
<ele>80.61</ele>
<time>2018-12-30T12:39:38Z</time>
</trkpt>
<trkpt lat="49.1518788" lon="2.7123971">
<ele>81.31</ele>
<time>2018-12-30T12:39:40Z</time>
</trkpt>
<trkpt lat="49.1517962" lon="2.7124252">
<ele>81.58</ele>
<time>2018-12-30T12:39:42Z</time>
</trkpt>
<trkpt lat="49.1517207" lon="2.7124435">
<ele>83.22</ele>
<time>2018-12-30T12:39:44Z</time>
</trkpt>
<trkpt lat="49.1516519" lon="2.7124349">
<ele>83.58</ele>
<time>2018-12-30T12:39:46Z</time>
</trkpt>
<trkpt lat="49.1515682" lon="2.7124219">
<ele>83.61</ele>
<time>2018-12-30T12:39:48Z</time>
</trkpt>
<trkpt lat="49.1514781" lon="2.7124285">
<ele>83.61</ele>
<time>2018-12-30T12:39:50Z</time>
</trkpt>
<trkpt lat="49.1514294" lon="2.7124524">
<ele>83.61</ele>
<time>2018-12-30T12:39:51Z</time>
</trkpt>
<trkpt lat="49.1513754" lon="2.7124692">
<ele>82.91</ele>
<time>2018-12-30T12:39:52Z</time>
</trkpt>
<trkpt lat="49.1513209" lon="2.7124944">
<ele>82.70</ele>
<time>2018-12-30T12:39:53Z</time>
</trkpt>
<trkpt lat="49.1512689" lon="2.7125223">
<ele>82.64</ele>
<time>2018-12-30T12:39:54Z</time>
</trkpt>
<trkpt lat="49.1512231" lon="2.7125477">
<ele>83.32</ele>
<time>2018-12-30T12:39:55Z</time>
</trkpt>
<trkpt lat="49.1511785" lon="2.7125699">
<ele>83.52</ele>
<time>2018-12-30T12:39:56Z</time>
</trkpt>
<trkpt lat="49.1510998" lon="2.7126175">
<ele>83.39</ele>
<time>2018-12-30T12:39:58Z</time>
</trkpt>
<trkpt lat="49.1510570" lon="2.7126490">
<ele>83.55</ele>
<time>2018-12-30T12:39:59Z</time>
</trkpt>
<trkpt lat="49.1510116" lon="2.7126813">
<ele>82.89</ele>
<time>2018-12-30T12:40:00Z</time>
</trkpt>
<trkpt lat="49.1509689" lon="2.7127134">
<ele>82.70</ele>
<time>2018-12-30T12:40:01Z</time>
</trkpt>
<trkpt lat="49.1509262" lon="2.7127590">
<ele>82.64</ele>
<time>2018-12-30T12:40:02Z</time>
</trkpt>
<trkpt lat="49.1508872" lon="2.7128129">
<ele>83.32</ele>
<time>2018-12-30T12:40:03Z</time>
</trkpt>
<trkpt lat="49.1508477" lon="2.7128500">
<ele>83.52</ele>
<time>2018-12-30T12:40:04Z</time>
</trkpt>
<trkpt lat="49.1507740" lon="2.7129361">
<ele>84.51</ele>
<time>2018-12-30T12:40:06Z</time>
</trkpt>
<trkpt lat="49.1507373" lon="2.7129832">
<ele>84.58</ele>
<time>2018-12-30T12:40:07Z</time>
</trkpt>
<trkpt lat="49.1507015" lon="2.7130363">
<ele>84.60</ele>
<time>2018-12-30T12:40:08Z</time>
</trkpt>
<trkpt lat="49.1506645" lon="2.7130989">
<ele>84.61</ele>
<time>2018-12-30T12:40:09Z</time>
</trkpt>
<trkpt lat="49.1506291" lon="2.7131626">
<ele>84.61</ele>
<time>2018-12-30T12:40:10Z</time>
</trkpt>
<trkpt lat="49.1506030" lon="2.7132314">
<ele>84.61</ele>
<time>2018-12-30T12:40:11Z</time>
</trkpt>
<trkpt lat="49.1505777" lon="2.7133001">
<ele>84.61</ele>
<time>2018-12-30T12:40:12Z</time>
</trkpt>
<trkpt lat="49.1505475" lon="2.7133709">
<ele>84.61</ele>
<time>2018-12-30T12:40:13Z</time>
</trkpt>
<trkpt lat="49.1505158" lon="2.7134368">
<ele>84.61</ele>
<time>2018-12-30T12:40:14Z</time>
</trkpt>
<trkpt lat="49.1504812" lon="2.7135034">
<ele>84.61</ele>
<time>2018-12-30T12:40:15Z</time>
</trkpt>
<trkpt lat="49.1504528" lon="2.7135690">
<ele>84.61</ele>
<time>2018-12-30T12:40:16Z</time>
</trkpt>
<trkpt lat="49.1504131" lon="2.7136193">
<ele>84.61</ele>
<time>2018-12-30T12:40:17Z</time>
</trkpt>
<trkpt lat="49.1503697" lon="2.7136740">
<ele>84.61</ele>
<time>2018-12-30T12:40:18Z</time>
</trkpt>
<trkpt lat="49.1503308" lon="2.7137137">
<ele>84.61</ele>
<time>2018-12-30T12:40:19Z</time>
</trkpt>
<trkpt lat="49.1502841" lon="2.7137577">
<ele>84.61</ele>
<time>2018-12-30T12:40:20Z</time>
</trkpt>
<trkpt lat="49.1502465" lon="2.7137988">
<ele>84.61</ele>
<time>2018-12-30T12:40:21Z</time>
</trkpt>
<trkpt lat="49.1502113" lon="2.7138416">
<ele>85.31</ele>
<time>2018-12-30T12:40:22Z</time>
</trkpt>
<trkpt lat="49.1501491" lon="2.7139479">
<ele>84.67</ele>
<time>2018-12-30T12:40:24Z</time>
</trkpt>
<trkpt lat="49.1501176" lon="2.7140052">
<ele>84.63</ele>
<time>2018-12-30T12:40:25Z</time>
</trkpt>
<trkpt lat="49.1500817" lon="2.7140477">
<ele>85.32</ele>
<time>2018-12-30T12:40:26Z</time>
</trkpt>
<trkpt lat="49.1500413" lon="2.7141385">
<ele>86.28</ele>
<time>2018-12-30T12:40:28Z</time>
</trkpt>
<trkpt lat="49.1500049" lon="2.7142372">
<ele>86.58</ele>
<time>2018-12-30T12:40:30Z</time>
</trkpt>
<trkpt lat="49.1499774" lon="2.7142940">
<ele>87.30</ele>
<time>2018-12-30T12:40:31Z</time>
</trkpt>
<trkpt lat="49.1499369" lon="2.7144134">
<ele>87.58</ele>
<time>2018-12-30T12:40:33Z</time>
</trkpt>
<trkpt lat="49.1499257" lon="2.7145332">
<ele>87.61</ele>
<time>2018-12-30T12:40:35Z</time>
</trkpt>
<trkpt lat="49.1499009" lon="2.7146394">
<ele>87.61</ele>
<time>2018-12-30T12:40:37Z</time>
</trkpt>
<trkpt lat="49.1498718" lon="2.7147373">
<ele>87.61</ele>
<time>2018-12-30T12:40:39Z</time>
</trkpt>
<trkpt lat="49.1498339" lon="2.7148325">
<ele>88.31</ele>
<time>2018-12-30T12:40:41Z</time>
</trkpt>
<trkpt lat="49.1498029" lon="2.7149309">
<ele>88.58</ele>
<time>2018-12-30T12:40:43Z</time>
</trkpt>
<trkpt lat="49.1497725" lon="2.7150131">
<ele>88.61</ele>
<time>2018-12-30T12:40:45Z</time>
</trkpt>
<trkpt lat="49.1497384" lon="2.7150812">
<ele>89.31</ele>
<time>2018-12-30T12:40:47Z</time>
</trkpt>
<trkpt lat="49.1497007" lon="2.7151460">
<ele>90.30</ele>
<time>2018-12-30T12:40:50Z</time>
</trkpt>
<trkpt lat="49.1497568" lon="2.7151926">
<ele>89.70</ele>
<time>2018-12-30T12:41:03Z</time>
</trkpt>
<trkpt lat="49.1498023" lon="2.7152451">
<ele>89.62</ele>
<time>2018-12-30T12:41:05Z</time>
</trkpt>
<trkpt lat="49.1498517" lon="2.7153103">
<ele>89.61</ele>
<time>2018-12-30T12:41:07Z</time>
</trkpt>
<trkpt lat="49.1498913" lon="2.7153755">
<ele>89.61</ele>
<time>2018-12-30T12:41:09Z</time>
</trkpt>
<trkpt lat="49.1499051" lon="2.7154446">
<ele>89.61</ele>
<time>2018-12-30T12:41:11Z</time>
</trkpt>
<trkpt lat="49.1499026" lon="2.7155578">
<ele>89.61</ele>
<time>2018-12-30T12:41:14Z</time>
</trkpt>
<trkpt lat="49.1498905" lon="2.7156423">
<ele>90.52</ele>
<time>2018-12-30T12:41:16Z</time>
</trkpt>
<trkpt lat="49.1498823" lon="2.7157265">
<ele>90.60</ele>
<time>2018-12-30T12:41:18Z</time>
</trkpt>
<trkpt lat="49.1498640" lon="2.7158110">
<ele>90.61</ele>
<time>2018-12-30T12:41:20Z</time>
</trkpt>
<trkpt lat="49.1498407" lon="2.7158795">
<ele>91.52</ele>
<time>2018-12-30T12:41:22Z</time>
</trkpt>
<trkpt lat="49.1498189" lon="2.7159545">
<ele>91.60</ele>
<time>2018-12-30T12:41:24Z</time>
</trkpt>
<trkpt lat="49.1497993" lon="2.7160230">
<ele>91.82</ele>
<time>2018-12-30T12:41:26Z</time>
</trkpt>
<trkpt lat="49.1497821" lon="2.7160970">
<ele>91.63</ele>
<time>2018-12-30T12:41:28Z</time>
</trkpt>
<trkpt lat="49.1497600" lon="2.7161798">
<ele>91.61</ele>
<time>2018-12-30T12:41:30Z</time>
</trkpt>
<trkpt lat="49.1497396" lon="2.7162631">
<ele>92.31</ele>
<time>2018-12-30T12:41:32Z</time>
</trkpt>
<trkpt lat="49.1497144" lon="2.7163462">
<ele>93.28</ele>
<time>2018-12-30T12:41:34Z</time>
</trkpt>
<trkpt lat="49.1497018" lon="2.7164427">
<ele>93.58</ele>
<time>2018-12-30T12:41:36Z</time>
</trkpt>
<trkpt lat="49.1496942" lon="2.7165423">
<ele>93.61</ele>
<time>2018-12-30T12:41:38Z</time>
</trkpt>
<trkpt lat="49.1496858" lon="2.7166334">
<ele>94.31</ele>
<time>2018-12-30T12:41:40Z</time>
</trkpt>
<trkpt lat="49.1496810" lon="2.7167176">
<ele>94.58</ele>
<time>2018-12-30T12:41:42Z</time>
</trkpt>
<trkpt lat="49.1496788" lon="2.7167900">
<ele>95.52</ele>
<time>2018-12-30T12:41:44Z</time>
</trkpt>
<trkpt lat="49.1496763" lon="2.7168773">
<ele>97.21</ele>
<time>2018-12-30T12:42:09Z</time>
</trkpt>
<trkpt lat="49.1496682" lon="2.7169668">
<ele>98.51</ele>
<time>2018-12-30T12:42:12Z</time>
</trkpt>
<trkpt lat="49.1496667" lon="2.7170469">
<ele>98.60</ele>
<time>2018-12-30T12:42:14Z</time>
</trkpt>
<trkpt lat="49.1496669" lon="2.7171228">
<ele>98.61</ele>
<time>2018-12-30T12:42:16Z</time>
</trkpt>
<trkpt lat="49.1496710" lon="2.7172338">
<ele>98.88</ele>
<time>2018-12-30T12:42:19Z</time>
</trkpt>
<trkpt lat="49.1496678" lon="2.7173251">
<ele>99.53</ele>
<time>2018-12-30T12:42:22Z</time>
</trkpt>
<trkpt lat="49.1496475" lon="2.7174138">
<ele>101.49</ele>
<time>2018-12-30T12:42:25Z</time>
</trkpt>
<trkpt lat="49.1496235" lon="2.7174728">
<ele>102.30</ele>
<time>2018-12-30T12:42:27Z</time>
</trkpt>
<trkpt lat="49.1495988" lon="2.7175334">
<ele>103.28</ele>
<time>2018-12-30T12:42:29Z</time>
</trkpt>
<trkpt lat="49.1495784" lon="2.7175998">
<ele>104.28</ele>
<time>2018-12-30T12:42:31Z</time>
</trkpt>
<trkpt lat="49.1495528" lon="2.7176618">
<ele>104.58</ele>
<time>2018-12-30T12:42:33Z</time>
</trkpt>
<trkpt lat="49.1495094" lon="2.7177193">
<ele>105.52</ele>
<time>2018-12-30T12:42:36Z</time>
</trkpt>
<trkpt lat="49.1494588" lon="2.7177414">
<ele>106.52</ele>
<time>2018-12-30T12:42:39Z</time>
</trkpt>
<trkpt lat="49.1494105" lon="2.7177880">
<ele>106.61</ele>
<time>2018-12-30T12:42:42Z</time>
</trkpt>
<trkpt lat="49.1493746" lon="2.7178490">
<ele>107.52</ele>
<time>2018-12-30T12:42:45Z</time>
</trkpt>
<trkpt lat="49.1493200" lon="2.7178754">
<ele>107.61</ele>
<time>2018-12-30T12:42:48Z</time>
</trkpt>
<trkpt lat="49.1492716" lon="2.7179017">
<ele>108.52</ele>
<time>2018-12-30T12:42:50Z</time>
</trkpt>
<trkpt lat="49.1492386" lon="2.7179645">
<ele>109.58</ele>
<time>2018-12-30T12:42:53Z</time>
</trkpt>
<trkpt lat="49.1492379" lon="2.7180506">
<ele>111.28</ele>
<time>2018-12-30T12:42:57Z</time>
</trkpt>
<trkpt lat="49.1492375" lon="2.7181403">
<ele>111.61</ele>
<time>2018-12-30T12:43:01Z</time>
</trkpt>
<trkpt lat="49.1492478" lon="2.7182073">
<ele>112.52</ele>
<time>2018-12-30T12:43:03Z</time>
</trkpt>
<trkpt lat="49.1492553" lon="2.7182866">
<ele>112.61</ele>
<time>2018-12-30T12:43:06Z</time>
</trkpt>
<trkpt lat="49.1492509" lon="2.7183720">
<ele>113.52</ele>
<time>2018-12-30T12:43:09Z</time>
</trkpt>
<trkpt lat="49.1492359" lon="2.7184415">
<ele>113.61</ele>
<time>2018-12-30T12:43:12Z</time>
</trkpt>
<trkpt lat="49.1491868" lon="2.7185016">
<ele>114.52</ele>
<time>2018-12-30T12:43:15Z</time>
</trkpt>
<trkpt lat="49.1491262" lon="2.7185404">
<ele>115.58</ele>
<time>2018-12-30T12:43:18Z</time>
</trkpt>
<trkpt lat="49.1490650" lon="2.7185579">
<ele>116.31</ele>
<time>2018-12-30T12:43:20Z</time>
</trkpt>
<trkpt lat="49.1490199" lon="2.7185588">
<ele>117.28</ele>
<time>2018-12-30T12:43:22Z</time>
</trkpt>
<trkpt lat="49.1489764" lon="2.7184939">
<ele>117.60</ele>
<time>2018-12-30T12:43:25Z</time>
</trkpt>
<trkpt lat="49.1489506" lon="2.7184316">
<ele>117.82</ele>
<time>2018-12-30T12:43:28Z</time>
</trkpt>
<trkpt lat="49.1489173" lon="2.7183724">
<ele>117.63</ele>
<time>2018-12-30T12:43:30Z</time>
</trkpt>
<trkpt lat="49.1488733" lon="2.7183080">
<ele>116.91</ele>
<time>2018-12-30T12:43:32Z</time>
</trkpt>
<trkpt lat="49.1488347" lon="2.7182369">
<ele>116.64</ele>
<time>2018-12-30T12:43:34Z</time>
</trkpt>
<trkpt lat="49.1487936" lon="2.7181735">
<ele>115.91</ele>
<time>2018-12-30T12:43:36Z</time>
</trkpt>
<trkpt lat="49.1487573" lon="2.7181086">
<ele>115.64</ele>
<time>2018-12-30T12:43:38Z</time>
</trkpt>
<trkpt lat="49.1487220" lon="2.7180427">
<ele>115.61</ele>
<time>2018-12-30T12:43:40Z</time>
</trkpt>
<trkpt lat="49.1486838" lon="2.7179749">
<ele>116.31</ele>
<time>2018-12-30T12:43:42Z</time>
</trkpt>
<trkpt lat="49.1486487" lon="2.7179098">
<ele>116.58</ele>
<time>2018-12-30T12:43:44Z</time>
</trkpt>
<trkpt lat="49.1486231" lon="2.7178375">
<ele>116.61</ele>
<time>2018-12-30T12:43:47Z</time>
</trkpt>
<trkpt lat="49.1485855" lon="2.7177912">
<ele>117.52</ele>
<time>2018-12-30T12:43:49Z</time>
</trkpt>
<trkpt lat="49.1485585" lon="2.7177200">
<ele>117.60</ele>
<time>2018-12-30T12:43:51Z</time>
</trkpt>
<trkpt lat="49.1485309" lon="2.7176392">
<ele>116.91</ele>
<time>2018-12-30T12:43:53Z</time>
</trkpt>
<trkpt lat="49.1484931" lon="2.7175630">
<ele>116.64</ele>
<time>2018-12-30T12:43:55Z</time>
</trkpt>
<trkpt lat="49.1484407" lon="2.7175113">
<ele>117.31</ele>
<time>2018-12-30T12:43:57Z</time>
</trkpt>
<trkpt lat="49.1483824" lon="2.7174687">
<ele>117.58</ele>
<time>2018-12-30T12:43:59Z</time>
</trkpt>
<trkpt lat="49.1483248" lon="2.7174344">
<ele>117.61</ele>
<time>2018-12-30T12:44:01Z</time>
</trkpt>
<trkpt lat="49.1482626" lon="2.7174314">
<ele>117.61</ele>
<time>2018-12-30T12:44:03Z</time>
</trkpt>
<trkpt lat="49.1482044" lon="2.7174456">
<ele>117.61</ele>
<time>2018-12-30T12:44:05Z</time>
</trkpt>
<trkpt lat="49.1481416" lon="2.7174704">
<ele>116.70</ele>
<time>2018-12-30T12:44:07Z</time>
</trkpt>
<trkpt lat="49.1480841" lon="2.7175207">
<ele>117.53</ele>
<time>2018-12-30T12:44:09Z</time>
</trkpt>
<trkpt lat="49.1480287" lon="2.7175734">
<ele>117.60</ele>
<time>2018-12-30T12:44:11Z</time>
</trkpt>
<trkpt lat="49.1479712" lon="2.7176093">
<ele>118.31</ele>
<time>2018-12-30T12:44:13Z</time>
</trkpt>
<trkpt lat="49.1479235" lon="2.7176143">
<ele>118.58</ele>
<time>2018-12-30T12:44:15Z</time>
</trkpt>
<trkpt lat="49.1478783" lon="2.7175850">
<ele>117.61</ele>
<time>2018-12-30T12:44:34Z</time>
</trkpt>
<trkpt lat="49.1478515" lon="2.7175038">
<ele>117.61</ele>
<time>2018-12-30T12:44:36Z</time>
</trkpt>
<trkpt lat="49.1478111" lon="2.7174381">
<ele>116.91</ele>
<time>2018-12-30T12:44:37Z</time>
</trkpt>
<trkpt lat="49.1477713" lon="2.7173819">
<ele>116.70</ele>
<time>2018-12-30T12:44:38Z</time>
</trkpt>
<trkpt lat="49.1477337" lon="2.7173325">
<ele>115.94</ele>
<time>2018-12-30T12:44:39Z</time>
</trkpt>
<trkpt lat="49.1476857" lon="2.7172892">
<ele>115.71</ele>
<time>2018-12-30T12:44:40Z</time>
</trkpt>
<trkpt lat="49.1476352" lon="2.7172506">
<ele>115.64</ele>
<time>2018-12-30T12:44:41Z</time>
</trkpt>
<trkpt lat="49.1475884" lon="2.7172020">
<ele>115.62</ele>
<time>2018-12-30T12:44:42Z</time>
</trkpt>
<trkpt lat="49.1475415" lon="2.7171510">
<ele>115.61</ele>
<time>2018-12-30T12:44:43Z</time>
</trkpt>
<trkpt lat="49.1475041" lon="2.7171052">
<ele>115.61</ele>
<time>2018-12-30T12:44:44Z</time>
</trkpt>
<trkpt lat="49.1474681" lon="2.7170601">
<ele>115.61</ele>
<time>2018-12-30T12:44:45Z</time>
</trkpt>
<trkpt lat="49.1474265" lon="2.7170029">
<ele>116.31</ele>
<time>2018-12-30T12:44:47Z</time>
</trkpt>
<trkpt lat="49.1473946" lon="2.7169541">
<ele>116.58</ele>
<time>2018-12-30T12:44:49Z</time>
</trkpt>
<trkpt lat="49.1473425" lon="2.7168827">
<ele>116.61</ele>
<time>2018-12-30T12:44:52Z</time>
</trkpt>
<trkpt lat="49.1472840" lon="2.7168425">
<ele>117.58</ele>
<time>2018-12-30T12:44:55Z</time>
</trkpt>
<trkpt lat="49.1472225" lon="2.7168257">
<ele>117.61</ele>
<time>2018-12-30T12:44:57Z</time>
</trkpt>
<trkpt lat="49.1471622" lon="2.7168065">
<ele>117.61</ele>
<time>2018-12-30T12:44:59Z</time>
</trkpt>
<trkpt lat="49.1471101" lon="2.7167981">
<ele>116.70</ele>
<time>2018-12-30T12:45:01Z</time>
</trkpt>
<trkpt lat="49.1470589" lon="2.7167924">
<ele>117.53</ele>
<time>2018-12-30T12:45:03Z</time>
</trkpt>
<trkpt lat="49.1470070" lon="2.7167922">
<ele>117.60</ele>
<time>2018-12-30T12:45:05Z</time>
</trkpt>
<trkpt lat="49.1469391" lon="2.7167814">
<ele>118.52</ele>
<time>2018-12-30T12:45:07Z</time>
</trkpt>
<trkpt lat="49.1468747" lon="2.7167401">
<ele>119.30</ele>
<time>2018-12-30T12:45:09Z</time>
</trkpt>
<trkpt lat="49.1468300" lon="2.7166668">
<ele>119.58</ele>
<time>2018-12-30T12:45:11Z</time>
</trkpt>
<trkpt lat="49.1468142" lon="2.7165760">
<ele>118.91</ele>
<time>2018-12-30T12:45:13Z</time>
</trkpt>
<trkpt lat="49.1467997" lon="2.7164721">
<ele>118.64</ele>
<time>2018-12-30T12:45:15Z</time>
</trkpt>
<trkpt lat="49.1467829" lon="2.7163378">
<ele>118.61</ele>
<time>2018-12-30T12:45:17Z</time>
</trkpt>
<trkpt lat="49.1467590" lon="2.7162588">
<ele>118.61</ele>
<time>2018-12-30T12:45:18Z</time>
</trkpt>
<trkpt lat="49.1467117" lon="2.7161623">
<ele>118.61</ele>
<time>2018-12-30T12:45:20Z</time>
</trkpt>
<trkpt lat="49.1466515" lon="2.7160791">
<ele>117.70</ele>
<time>2018-12-30T12:45:22Z</time>
</trkpt>
<trkpt lat="49.1465878" lon="2.7159968">
<ele>116.71</ele>
<time>2018-12-30T12:45:24Z</time>
</trkpt>
<trkpt lat="49.1465358" lon="2.7159016">
<ele>116.62</ele>
<time>2018-12-30T12:45:26Z</time>
</trkpt>
<trkpt lat="49.1464775" lon="2.7158402">
<ele>115.70</ele>
<time>2018-12-30T12:45:28Z</time>
</trkpt>
<trkpt lat="49.1464096" lon="2.7157931">
<ele>114.71</ele>
<time>2018-12-30T12:45:30Z</time>
</trkpt>
<trkpt lat="49.1463530" lon="2.7157533">
<ele>113.94</ele>
<time>2018-12-30T12:45:31Z</time>
</trkpt>
<trkpt lat="49.1462992" lon="2.7157278">
<ele>113.71</ele>
<time>2018-12-30T12:45:32Z</time>
</trkpt>
<trkpt lat="49.1462542" lon="2.7157174">
<ele>113.64</ele>
<time>2018-12-30T12:45:33Z</time>
</trkpt>
<trkpt lat="49.1462070" lon="2.7157132">
<ele>112.91</ele>
<time>2018-12-30T12:45:36Z</time>
</trkpt>
<trkpt lat="49.1461573" lon="2.7156775">
<ele>112.61</ele>
<time>2018-12-30T12:45:40Z</time>
</trkpt>
<trkpt lat="49.1461094" lon="2.7156592">
<ele>112.61</ele>
<time>2018-12-30T12:45:43Z</time>
</trkpt>
<trkpt lat="49.1460597" lon="2.7156988">
<ele>112.61</ele>
<time>2018-12-30T12:45:46Z</time>
</trkpt>
<trkpt lat="49.1460092" lon="2.7157370">
<ele>113.31</ele>
<time>2018-12-30T12:45:49Z</time>
</trkpt>
<trkpt lat="49.1459844" lon="2.7157964">
<ele>113.58</ele>
<time>2018-12-30T12:45:51Z</time>
</trkpt>
<trkpt lat="49.1459484" lon="2.7158830">
<ele>114.52</ele>
<time>2018-12-30T12:45:53Z</time>
</trkpt>
<trkpt lat="49.1458989" lon="2.7159956">
<ele>115.30</ele>
<time>2018-12-30T12:45:55Z</time>
</trkpt>
<trkpt lat="49.1458779" lon="2.7160657">
<ele>114.82</ele>
<time>2018-12-30T12:45:56Z</time>
</trkpt>
<trkpt lat="49.1458592" lon="2.7161315">
<ele>115.37</ele>
<time>2018-12-30T12:45:57Z</time>
</trkpt>
<trkpt lat="49.1458419" lon="2.7162048">
<ele>115.59</ele>
<time>2018-12-30T12:45:59Z</time>
</trkpt>
<trkpt lat="49.1458341" lon="2.7162738">
<ele>115.61</ele>
<time>2018-12-30T12:46:04Z</time>
</trkpt>
<trkpt lat="49.1458139" lon="2.7163551">
<ele>114.61</ele>
<time>2018-12-30T12:49:31Z</time>
</trkpt>
<trkpt lat="49.1457789" lon="2.7164219">
<ele>114.61</ele>
<time>2018-12-30T12:49:34Z</time>
</trkpt>
<trkpt lat="49.1457496" lon="2.7164906">
<ele>115.52</ele>
<time>2018-12-30T12:49:36Z</time>
</trkpt>
<trkpt lat="49.1457081" lon="2.7165705">
<ele>115.60</ele>
<time>2018-12-30T12:49:38Z</time>
</trkpt>
<trkpt lat="49.1456745" lon="2.7166533">
<ele>115.61</ele>
<time>2018-12-30T12:49:40Z</time>
</trkpt>
<trkpt lat="49.1456439" lon="2.7167260">
<ele>115.61</ele>
<time>2018-12-30T12:49:42Z</time>
</trkpt>
<trkpt lat="49.1456174" lon="2.7167955">
<ele>115.61</ele>
<time>2018-12-30T12:49:44Z</time>
</trkpt>
<trkpt lat="49.1455960" lon="2.7168761">
<ele>115.61</ele>
<time>2018-12-30T12:49:46Z</time>
</trkpt>
<trkpt lat="49.1455699" lon="2.7169582">
<ele>116.52</ele>
<time>2018-12-30T12:49:48Z</time>
</trkpt>
<trkpt lat="49.1455410" lon="2.7170346">
<ele>117.30</ele>
<time>2018-12-30T12:49:50Z</time>
</trkpt>
<trkpt lat="49.1455244" lon="2.7171077">
<ele>117.58</ele>
<time>2018-12-30T12:49:52Z</time>
</trkpt>
<trkpt lat="49.1455013" lon="2.7171711">
<ele>117.61</ele>
<time>2018-12-30T12:49:54Z</time>
</trkpt>
<trkpt lat="49.1454697" lon="2.7172211">
<ele>118.31</ele>
<time>2018-12-30T12:49:56Z</time>
</trkpt>
<trkpt lat="49.1454166" lon="2.7172320">
<ele>118.58</ele>
<time>2018-12-30T12:49:58Z</time>
</trkpt>
<trkpt lat="49.1453468" lon="2.7172253">
<ele>118.61</ele>
<time>2018-12-30T12:50:00Z</time>
</trkpt>
<trkpt lat="49.1452845" lon="2.7172071">
<ele>118.61</ele>
<time>2018-12-30T12:50:02Z</time>
</trkpt>
<trkpt lat="49.1452179" lon="2.7171905">
<ele>118.61</ele>
<time>2018-12-30T12:50:04Z</time>
</trkpt>
<trkpt lat="49.1451628" lon="2.7171646">
<ele>119.52</ele>
<time>2018-12-30T12:50:06Z</time>
</trkpt>
<trkpt lat="49.1451188" lon="2.7171243">
<ele>120.30</ele>
<time>2018-12-30T12:50:08Z</time>
</trkpt>
<trkpt lat="49.1450651" lon="2.7170845">
<ele>120.58</ele>
<time>2018-12-30T12:50:10Z</time>
</trkpt>
<trkpt lat="49.1450077" lon="2.7170415">
<ele>121.31</ele>
<time>2018-12-30T12:50:12Z</time>
</trkpt>
<trkpt lat="49.1449484" lon="2.7170143">
<ele>121.58</ele>
<time>2018-12-30T12:50:14Z</time>
</trkpt>
<trkpt lat="49.1448918" lon="2.7170197">
<ele>122.31</ele>
<time>2018-12-30T12:50:16Z</time>
</trkpt>
<trkpt lat="49.1448317" lon="2.7170171">
<ele>122.58</ele>
<time>2018-12-30T12:50:18Z</time>
</trkpt>
<trkpt lat="49.1447878" lon="2.7169408">
<ele>122.61</ele>
<time>2018-12-30T12:50:20Z</time>
</trkpt>
<trkpt lat="49.1447487" lon="2.7168720">
<ele>123.31</ele>
<time>2018-12-30T12:50:22Z</time>
</trkpt>
<trkpt lat="49.1446976" lon="2.7167858">
<ele>123.58</ele>
<time>2018-12-30T12:50:24Z</time>
</trkpt>
<trkpt lat="49.1446342" lon="2.7167301">
<ele>123.61</ele>
<time>2018-12-30T12:50:26Z</time>
</trkpt>
<trkpt lat="49.1445694" lon="2.7166899">
<ele>124.31</ele>
<time>2018-12-30T12:50:28Z</time>
</trkpt>
<trkpt lat="49.1445081" lon="2.7166441">
<ele>124.58</ele>
<time>2018-12-30T12:50:30Z</time>
</trkpt>
<trkpt lat="49.1444448" lon="2.7165996">
<ele>125.52</ele>
<time>2018-12-30T12:50:32Z</time>
</trkpt>
<trkpt lat="49.1443854" lon="2.7165560">
<ele>125.60</ele>
<time>2018-12-30T12:50:34Z</time>
</trkpt>
<trkpt lat="49.1443237" lon="2.7164994">
<ele>125.61</ele>
<time>2018-12-30T12:50:36Z</time>
</trkpt>
<trkpt lat="49.1442498" lon="2.7164230">
<ele>126.31</ele>
<time>2018-12-30T12:50:38Z</time>
</trkpt>
<trkpt lat="49.1441817" lon="2.7163578">
<ele>126.58</ele>
<time>2018-12-30T12:50:40Z</time>
</trkpt>
<trkpt lat="49.1440874" lon="2.7162816">
<ele>127.52</ele>
<time>2018-12-30T12:50:42Z</time>
</trkpt>
<trkpt lat="49.1440381" lon="2.7162559">
<ele>127.58</ele>
<time>2018-12-30T12:50:43Z</time>
</trkpt>
<trkpt lat="49.1439947" lon="2.7162198">
<ele>126.90</ele>
<time>2018-12-30T12:50:44Z</time>
</trkpt>
<trkpt lat="49.1439470" lon="2.7161808">
<ele>126.70</ele>
<time>2018-12-30T12:50:45Z</time>
</trkpt>
<trkpt lat="49.1439035" lon="2.7161514">
<ele>126.64</ele>
<time>2018-12-30T12:50:46Z</time>
</trkpt>
<trkpt lat="49.1438236" lon="2.7160857">
<ele>126.61</ele>
<time>2018-12-30T12:50:48Z</time>
</trkpt>
<trkpt lat="49.1437777" lon="2.7160564">
<ele>125.91</ele>
<time>2018-12-30T12:50:49Z</time>
</trkpt>
<trkpt lat="49.1437308" lon="2.7160187">
<ele>125.70</ele>
<time>2018-12-30T12:50:50Z</time>
</trkpt>
<trkpt lat="49.1436889" lon="2.7159808">
<ele>125.64</ele>
<time>2018-12-30T12:50:51Z</time>
</trkpt>
<trkpt lat="49.1436461" lon="2.7159458">
<ele>125.62</ele>
<time>2018-12-30T12:50:52Z</time>
</trkpt>
<trkpt lat="49.1436045" lon="2.7159014">
<ele>125.61</ele>
<time>2018-12-30T12:50:53Z</time>
</trkpt>
<trkpt lat="49.1435316" lon="2.7158284">
<ele>125.61</ele>
<time>2018-12-30T12:50:55Z</time>
</trkpt>
<trkpt lat="49.1434452" lon="2.7157619">
<ele>125.61</ele>
<time>2018-12-30T12:50:57Z</time>
</trkpt>
<trkpt lat="49.1434009" lon="2.7157176">
<ele>125.61</ele>
<time>2018-12-30T12:50:58Z</time>
</trkpt>
<trkpt lat="49.1433578" lon="2.7156720">
<ele>125.61</ele>
<time>2018-12-30T12:50:59Z</time>
</trkpt>
<trkpt lat="49.1433141" lon="2.7156384">
<ele>125.61</ele>
<time>2018-12-30T12:51:00Z</time>
</trkpt>
<trkpt lat="49.1432691" lon="2.7156023">
<ele>125.61</ele>
<time>2018-12-30T12:51:01Z</time>
</trkpt>
<trkpt lat="49.1432212" lon="2.7155685">
<ele>125.61</ele>
<time>2018-12-30T12:51:02Z</time>
</trkpt>
<trkpt lat="49.1431715" lon="2.7155341">
<ele>125.61</ele>
<time>2018-12-30T12:51:03Z</time>
</trkpt>
<trkpt lat="49.1431232" lon="2.7154941">
<ele>125.61</ele>
<time>2018-12-30T12:51:04Z</time>
</trkpt>
<trkpt lat="49.1430809" lon="2.7154551">
<ele>124.91</ele>
<time>2018-12-30T12:51:05Z</time>
</trkpt>
<trkpt lat="49.1430396" lon="2.7154088">
<ele>124.70</ele>
<time>2018-12-30T12:51:06Z</time>
</trkpt>
<trkpt lat="49.1429944" lon="2.7153784">
<ele>124.64</ele>
<time>2018-12-30T12:51:07Z</time>
</trkpt>
<trkpt lat="49.1429544" lon="2.7153392">
<ele>124.62</ele>
<time>2018-12-30T12:51:08Z</time>
</trkpt>
<trkpt lat="49.1429132" lon="2.7152940">
<ele>124.61</ele>
<time>2018-12-30T12:51:09Z</time>
</trkpt>
<trkpt lat="49.1428692" lon="2.7152527">
<ele>124.61</ele>
<time>2018-12-30T12:51:10Z</time>
</trkpt>
<trkpt lat="49.1428271" lon="2.7152111">
<ele>124.61</ele>
<time>2018-12-30T12:51:11Z</time>
</trkpt>
<trkpt lat="49.1427845" lon="2.7151693">
<ele>124.61</ele>
<time>2018-12-30T12:51:12Z</time>
</trkpt>
<trkpt lat="49.1427404" lon="2.7151253">
<ele>124.61</ele>
<time>2018-12-30T12:51:13Z</time>
</trkpt>
<trkpt lat="49.1426973" lon="2.7150811">
<ele>124.61</ele>
<time>2018-12-30T12:51:14Z</time>
</trkpt>
<trkpt lat="49.1426573" lon="2.7150322">
<ele>124.61</ele>
<time>2018-12-30T12:51:15Z</time>
</trkpt>
<trkpt lat="49.1426170" lon="2.7149846">
<ele>124.61</ele>
<time>2018-12-30T12:51:16Z</time>
</trkpt>
<trkpt lat="49.1425770" lon="2.7149372">
<ele>124.61</ele>
<time>2018-12-30T12:51:17Z</time>
</trkpt>
<trkpt lat="49.1425293" lon="2.7148940">
<ele>124.61</ele>
<time>2018-12-30T12:51:18Z</time>
</trkpt>
<trkpt lat="49.1424839" lon="2.7148520">
<ele>124.61</ele>
<time>2018-12-30T12:51:19Z</time>
</trkpt>
<trkpt lat="49.1424411" lon="2.7148126">
<ele>124.61</ele>
<time>2018-12-30T12:51:20Z</time>
</trkpt>
<trkpt lat="49.1423971" lon="2.7147702">
<ele>124.61</ele>
<time>2018-12-30T12:51:21Z</time>
</trkpt>
<trkpt lat="49.1423528" lon="2.7147215">
<ele>124.61</ele>
<time>2018-12-30T12:51:22Z</time>
</trkpt>
<trkpt lat="49.1423074" lon="2.7146791">
<ele>123.91</ele>
<time>2018-12-30T12:51:23Z</time>
</trkpt>
<trkpt lat="49.1422600" lon="2.7146440">
<ele>123.70</ele>
<time>2018-12-30T12:51:24Z</time>
</trkpt>
<trkpt lat="49.1422156" lon="2.7146019">
<ele>123.64</ele>
<time>2018-12-30T12:51:25Z</time>
</trkpt>
<trkpt lat="49.1421700" lon="2.7145579">
<ele>123.62</ele>
<time>2018-12-30T12:51:26Z</time>
</trkpt>
<trkpt lat="49.1421201" lon="2.7145207">
<ele>123.61</ele>
<time>2018-12-30T12:51:27Z</time>
</trkpt>
<trkpt lat="49.1420687" lon="2.7144819">
<ele>122.91</ele>
<time>2018-12-30T12:51:28Z</time>
</trkpt>
<trkpt lat="49.1420229" lon="2.7144497">
<ele>122.70</ele>
<time>2018-12-30T12:51:29Z</time>
</trkpt>
<trkpt lat="49.1419801" lon="2.7144109">
<ele>122.64</ele>
<time>2018-12-30T12:51:30Z</time>
</trkpt>
<trkpt lat="49.1419411" lon="2.7143761">
<ele>121.92</ele>
<time>2018-12-30T12:51:31Z</time>
</trkpt>
<trkpt lat="49.1418688" lon="2.7143363">
<ele>122.55</ele>
<time>2018-12-30T12:51:33Z</time>
</trkpt>
<trkpt lat="49.1418211" lon="2.7143156">
<ele>122.61</ele>
<time>2018-12-30T12:51:51Z</time>
</trkpt>
<trkpt lat="49.1418330" lon="2.7142064">
<ele>122.61</ele>
<time>2018-12-30T12:51:54Z</time>
</trkpt>
<trkpt lat="49.1418581" lon="2.7141265">
<ele>122.61</ele>
<time>2018-12-30T12:51:56Z</time>
</trkpt>
<trkpt lat="49.1418660" lon="2.7140416">
<ele>122.61</ele>
<time>2018-12-30T12:51:59Z</time>
</trkpt>
<trkpt lat="49.1418532" lon="2.7139269">
<ele>122.61</ele>
<time>2018-12-30T12:52:01Z</time>
</trkpt>
<trkpt lat="49.1417991" lon="2.7137980">
<ele>121.00</ele>
<time>2018-12-30T12:52:03Z</time>
</trkpt>
<trkpt lat="49.1417627" lon="2.7137105">
<ele>120.73</ele>
<time>2018-12-30T12:52:04Z</time>
</trkpt>
<trkpt lat="49.1417490" lon="2.7136350">
<ele>119.95</ele>
<time>2018-12-30T12:52:05Z</time>
</trkpt>
<trkpt lat="49.1417457" lon="2.7135578">
<ele>119.71</ele>
<time>2018-12-30T12:52:06Z</time>
</trkpt>
<trkpt lat="49.1417395" lon="2.7134740">
<ele>119.64</ele>
<time>2018-12-30T12:52:07Z</time>
</trkpt>
<trkpt lat="49.1417255" lon="2.7133835">
<ele>119.62</ele>
<time>2018-12-30T12:52:08Z</time>
</trkpt>
<trkpt lat="49.1417092" lon="2.7133055">
<ele>118.91</ele>
<time>2018-12-30T12:52:09Z</time>
</trkpt>
<trkpt lat="49.1417026" lon="2.7132345">
<ele>118.00</ele>
<time>2018-12-30T12:52:10Z</time>
</trkpt>
<trkpt lat="49.1416875" lon="2.7131558">
<ele>117.73</ele>
<time>2018-12-30T12:52:11Z</time>
</trkpt>
<trkpt lat="49.1416800" lon="2.7130789">
<ele>118.35</ele>
<time>2018-12-30T12:52:12Z</time>
</trkpt>
<trkpt lat="49.1416787" lon="2.7130044">
<ele>118.53</ele>
<time>2018-12-30T12:52:13Z</time>
</trkpt>
<trkpt lat="49.1416737" lon="2.7129292">
<ele>117.89</ele>
<time>2018-12-30T12:52:14Z</time>
</trkpt>
<trkpt lat="49.1416669" lon="2.7128549">
<ele>117.69</ele>
<time>2018-12-30T12:52:15Z</time>
</trkpt>
<trkpt lat="49.1416543" lon="2.7127834">
<ele>117.64</ele>
<time>2018-12-30T12:52:16Z</time>
</trkpt>
<trkpt lat="49.1416436" lon="2.7127130">
<ele>117.62</ele>
<time>2018-12-30T12:52:17Z</time>
</trkpt>
<trkpt lat="49.1416282" lon="2.7126478">
<ele>117.61</ele>
<time>2018-12-30T12:52:18Z</time>
</trkpt>
<trkpt lat="49.1415989" lon="2.7125199">
<ele>117.61</ele>
<time>2018-12-30T12:52:20Z</time>
</trkpt>
<trkpt lat="49.1415558" lon="2.7123974">
<ele>117.61</ele>
<time>2018-12-30T12:52:22Z</time>
</trkpt>
<trkpt lat="49.1415161" lon="2.7122653">
<ele>117.61</ele>
<time>2018-12-30T12:52:24Z</time>
</trkpt>
<trkpt lat="49.1414989" lon="2.7121928">
<ele>117.61</ele>
<time>2018-12-30T12:52:25Z</time>
</trkpt>
<trkpt lat="49.1414813" lon="2.7121209">
<ele>116.91</ele>
<time>2018-12-30T12:52:26Z</time>
</trkpt>
<trkpt lat="49.1414605" lon="2.7120519">
<ele>116.70</ele>
<time>2018-12-30T12:52:27Z</time>
</trkpt>
<trkpt lat="49.1414373" lon="2.7119898">
<ele>116.64</ele>
<time>2018-12-30T12:52:28Z</time>
</trkpt>
<trkpt lat="49.1414121" lon="2.7119220">
<ele>116.62</ele>
<time>2018-12-30T12:52:29Z</time>
</trkpt>
<trkpt lat="49.1413855" lon="2.7118556">
<ele>116.61</ele>
<time>2018-12-30T12:52:30Z</time>
</trkpt>
<trkpt lat="49.1413522" lon="2.7117875">
<ele>116.61</ele>
<time>2018-12-30T12:52:31Z</time>
</trkpt>
<trkpt lat="49.1413134" lon="2.7117126">
<ele>116.61</ele>
<time>2018-12-30T12:52:32Z</time>
</trkpt>
<trkpt lat="49.1412731" lon="2.7116429">
<ele>116.61</ele>
<time>2018-12-30T12:52:33Z</time>
</trkpt>
<trkpt lat="49.1412340" lon="2.7115809">
<ele>116.61</ele>
<time>2018-12-30T12:52:34Z</time>
</trkpt>
<trkpt lat="49.1411969" lon="2.7115296">
<ele>116.61</ele>
<time>2018-12-30T12:52:35Z</time>
</trkpt>
<trkpt lat="49.1411575" lon="2.7114836">
<ele>116.61</ele>
<time>2018-12-30T12:52:36Z</time>
</trkpt>
<trkpt lat="49.1411210" lon="2.7114391">
<ele>116.61</ele>
<time>2018-12-30T12:52:37Z</time>
</trkpt>
<trkpt lat="49.1410541" lon="2.7113575">
<ele>117.31</ele>
<time>2018-12-30T12:52:39Z</time>
</trkpt>
<trkpt lat="49.1409938" lon="2.7112847">
<ele>116.88</ele>
<time>2018-12-30T12:52:41Z</time>
</trkpt>
<trkpt lat="49.1409346" lon="2.7112029">
<ele>117.55</ele>
<time>2018-12-30T12:52:43Z</time>
</trkpt>
<trkpt lat="49.1408941" lon="2.7111600">
<ele>117.59</ele>
<time>2018-12-30T12:52:44Z</time>
</trkpt>
<trkpt lat="49.1408579" lon="2.7111154">
<ele>117.61</ele>
<time>2018-12-30T12:52:45Z</time>
</trkpt>
<trkpt lat="49.1408235" lon="2.7110564">
<ele>117.61</ele>
<time>2018-12-30T12:52:46Z</time>
</trkpt>
<trkpt lat="49.1408059" lon="2.7109808">
<ele>117.61</ele>
<time>2018-12-30T12:52:47Z</time>
</trkpt>
<trkpt lat="49.1407900" lon="2.7108918">
<ele>117.61</ele>
<time>2018-12-30T12:52:48Z</time>
</trkpt>
<trkpt lat="49.1407758" lon="2.7107879">
<ele>116.91</ele>
<time>2018-12-30T12:52:49Z</time>
</trkpt>
<trkpt lat="49.1407566" lon="2.7106932">
<ele>116.70</ele>
<time>2018-12-30T12:52:50Z</time>
</trkpt>
<trkpt lat="49.1407413" lon="2.7106069">
<ele>116.64</ele>
<time>2018-12-30T12:52:51Z</time>
</trkpt>
<trkpt lat="49.1407184" lon="2.7105424">
<ele>116.62</ele>
<time>2018-12-30T12:52:52Z</time>
</trkpt>
<trkpt lat="49.1406800" lon="2.7104843">
<ele>116.61</ele>
<time>2018-12-30T12:52:53Z</time>
</trkpt>
<trkpt lat="49.1406449" lon="2.7104213">
<ele>116.61</ele>
<time>2018-12-30T12:52:54Z</time>
</trkpt>
<trkpt lat="49.1406033" lon="2.7103533">
<ele>116.61</ele>
<time>2018-12-30T12:52:55Z</time>
</trkpt>
<trkpt lat="49.1405652" lon="2.7102740">
<ele>117.31</ele>
<time>2018-12-30T12:52:56Z</time>
</trkpt>
<trkpt lat="49.1405278" lon="2.7101860">
<ele>116.82</ele>
<time>2018-12-30T12:52:57Z</time>
</trkpt>
<trkpt lat="49.1405049" lon="2.7100880">
<ele>116.67</ele>
<time>2018-12-30T12:52:58Z</time>
</trkpt>
<trkpt lat="49.1404871" lon="2.7099925">
<ele>115.93</ele>
<time>2018-12-30T12:52:59Z</time>
</trkpt>
<trkpt lat="49.1404684" lon="2.7098912">
<ele>115.71</ele>
<time>2018-12-30T12:53:00Z</time>
</trkpt>
<trkpt lat="49.1404449" lon="2.7098050">
<ele>115.64</ele>
<time>2018-12-30T12:53:01Z</time>
</trkpt>
<trkpt lat="49.1404251" lon="2.7097254">
<ele>114.92</ele>
<time>2018-12-30T12:53:02Z</time>
</trkpt>
<trkpt lat="49.1404159" lon="2.7096277">
<ele>114.70</ele>
<time>2018-12-30T12:53:03Z</time>
</trkpt>
<trkpt lat="49.1404264" lon="2.7095199">
<ele>113.94</ele>
<time>2018-12-30T12:53:04Z</time>
</trkpt>
<trkpt lat="49.1404444" lon="2.7094151">
<ele>113.01</ele>
<time>2018-12-30T12:53:05Z</time>
</trkpt>
<trkpt lat="49.1404660" lon="2.7092996">
<ele>112.73</ele>
<time>2018-12-30T12:53:06Z</time>
</trkpt>
<trkpt lat="49.1404865" lon="2.7092169">
<ele>111.25</ele>
<time>2018-12-30T12:53:07Z</time>
</trkpt>
<trkpt lat="49.1404561" lon="2.7091436">
<ele>109.06</ele>
<time>2018-12-30T12:53:09Z</time>
</trkpt>
<trkpt lat="49.1404399" lon="2.7090793">
<ele>106.61</ele>
<time>2018-12-30T12:53:25Z</time>
</trkpt>
<trkpt lat="49.1404284" lon="2.7089946">
<ele>106.61</ele>
<time>2018-12-30T12:53:28Z</time>
</trkpt>
<trkpt lat="49.1404163" lon="2.7089280">
<ele>106.61</ele>
<time>2018-12-30T12:53:30Z</time>
</trkpt>
<trkpt lat="49.1404032" lon="2.7088350">
<ele>105.91</ele>
<time>2018-12-30T12:53:33Z</time>
</trkpt>
<trkpt lat="49.1403624" lon="2.7087859">
<ele>105.62</ele>
<time>2018-12-30T12:53:36Z</time>
</trkpt>
<trkpt lat="49.1403173" lon="2.7087330">
<ele>105.61</ele>
<time>2018-12-30T12:53:39Z</time>
</trkpt>
<trkpt lat="49.1402689" lon="2.7086859">
<ele>106.31</ele>
<time>2018-12-30T12:53:42Z</time>
</trkpt>
<trkpt lat="49.1402220" lon="2.7086495">
<ele>106.60</ele>
<time>2018-12-30T12:53:45Z</time>
</trkpt>
<trkpt lat="49.1401726" lon="2.7085942">
<ele>107.52</ele>
<time>2018-12-30T12:53:51Z</time>
</trkpt>
<trkpt lat="49.1401210" lon="2.7085711">
<ele>108.52</ele>
<time>2018-12-30T12:53:54Z</time>
</trkpt>
<trkpt lat="49.1400665" lon="2.7085566">
<ele>109.51</ele>
<time>2018-12-30T12:53:56Z</time>
</trkpt>
<trkpt lat="49.1400114" lon="2.7085255">
<ele>109.60</ele>
<time>2018-12-30T12:53:58Z</time>
</trkpt>
<trkpt lat="49.1399558" lon="2.7084948">
<ele>110.52</ele>
<time>2018-12-30T12:54:00Z</time>
</trkpt>
<trkpt lat="49.1399008" lon="2.7084677">
<ele>110.60</ele>
<time>2018-12-30T12:54:02Z</time>
</trkpt>
<trkpt lat="49.1398418" lon="2.7084424">
<ele>110.61</ele>
<time>2018-12-30T12:54:04Z</time>
</trkpt>
<trkpt lat="49.1397786" lon="2.7083989">
<ele>111.52</ele>
<time>2018-12-30T12:54:06Z</time>
</trkpt>
<trkpt lat="49.1397294" lon="2.7083120">
<ele>111.60</ele>
<time>2018-12-30T12:54:08Z</time>
</trkpt>
<trkpt lat="49.1397023" lon="2.7082209">
<ele>111.61</ele>
<time>2018-12-30T12:54:10Z</time>
</trkpt>
<trkpt lat="49.1396798" lon="2.7081296">
<ele>111.61</ele>
<time>2018-12-30T12:54:12Z</time>
</trkpt>
<trkpt lat="49.1396786" lon="2.7080175">
<ele>111.61</ele>
<time>2018-12-30T12:54:14Z</time>
</trkpt>
<trkpt lat="49.1396833" lon="2.7078897">
<ele>111.61</ele>
<time>2018-12-30T12:54:16Z</time>
</trkpt>
<trkpt lat="49.1397061" lon="2.7077607">
<ele>112.31</ele>
<time>2018-12-30T12:54:18Z</time>
</trkpt>
<trkpt lat="49.1397236" lon="2.7076889">
<ele>112.52</ele>
<time>2018-12-30T12:54:19Z</time>
</trkpt>
<trkpt lat="49.1397443" lon="2.7076158">
<ele>112.58</ele>
<time>2018-12-30T12:54:20Z</time>
</trkpt>
<trkpt lat="49.1397617" lon="2.7075380">
<ele>112.60</ele>
<time>2018-12-30T12:54:21Z</time>
</trkpt>
<trkpt lat="49.1397851" lon="2.7074587">
<ele>112.61</ele>
<time>2018-12-30T12:54:22Z</time>
</trkpt>
<trkpt lat="49.1398136" lon="2.7073845">
<ele>111.91</ele>
<time>2018-12-30T12:54:23Z</time>
</trkpt>
<trkpt lat="49.1398409" lon="2.7073116">
<ele>112.40</ele>
<time>2018-12-30T12:54:24Z</time>
</trkpt>
<trkpt lat="49.1398641" lon="2.7072302">
<ele>112.55</ele>
<time>2018-12-30T12:54:25Z</time>
</trkpt>
<trkpt lat="49.1398858" lon="2.7071505">
<ele>112.59</ele>
<time>2018-12-30T12:54:26Z</time>
</trkpt>
<trkpt lat="49.1398951" lon="2.7070749">
<ele>112.61</ele>
<time>2018-12-30T12:54:27Z</time>
</trkpt>
<trkpt lat="49.1399011" lon="2.7069930">
<ele>111.91</ele>
<time>2018-12-30T12:54:28Z</time>
</trkpt>
<trkpt lat="49.1399114" lon="2.7069207">
<ele>111.70</ele>
<time>2018-12-30T12:54:29Z</time>
</trkpt>
<trkpt lat="49.1399178" lon="2.7068499">
<ele>111.64</ele>
<time>2018-12-30T12:54:30Z</time>
</trkpt>
<trkpt lat="49.1399190" lon="2.7067809">
<ele>111.62</ele>
<time>2018-12-30T12:54:31Z</time>
</trkpt>
<trkpt lat="49.1399196" lon="2.7067105">
<ele>111.61</ele>
<time>2018-12-30T12:54:32Z</time>
</trkpt>
<trkpt lat="49.1399159" lon="2.7066339">
<ele>111.61</ele>
<time>2018-12-30T12:54:33Z</time>
</trkpt>
<trkpt lat="49.1399091" lon="2.7065561">
<ele>111.61</ele>
<time>2018-12-30T12:54:34Z</time>
</trkpt>
<trkpt lat="49.1398968" lon="2.7064860">
<ele>111.61</ele>
<time>2018-12-30T12:54:35Z</time>
</trkpt>
<trkpt lat="49.1398838" lon="2.7064178">
<ele>112.31</ele>
<time>2018-12-30T12:54:36Z</time>
</trkpt>
<trkpt lat="49.1398679" lon="2.7063435">
<ele>112.52</ele>
<time>2018-12-30T12:54:37Z</time>
</trkpt>
<trkpt lat="49.1398685" lon="2.7062646">
<ele>112.58</ele>
<time>2018-12-30T12:54:38Z</time>
</trkpt>
<trkpt lat="49.1398786" lon="2.7061795">
<ele>112.60</ele>
<time>2018-12-30T12:54:39Z</time>
</trkpt>
<trkpt lat="49.1398825" lon="2.7060950">
<ele>112.61</ele>
<time>2018-12-30T12:54:40Z</time>
</trkpt>
<trkpt lat="49.1398868" lon="2.7060184">
<ele>112.61</ele>
<time>2018-12-30T12:54:41Z</time>
</trkpt>
<trkpt lat="49.1399064" lon="2.7059500">
<ele>112.61</ele>
<time>2018-12-30T12:54:42Z</time>
</trkpt>
<trkpt lat="49.1399282" lon="2.7058820">
<ele>112.61</ele>
<time>2018-12-30T12:54:43Z</time>
</trkpt>
<trkpt lat="49.1399464" lon="2.7058071">
<ele>112.61</ele>
<time>2018-12-30T12:54:44Z</time>
</trkpt>
<trkpt lat="49.1399608" lon="2.7057216">
<ele>113.31</ele>
<time>2018-12-30T12:54:45Z</time>
</trkpt>
<trkpt lat="49.1399643" lon="2.7056345">
<ele>113.52</ele>
<time>2018-12-30T12:54:46Z</time>
</trkpt>
<trkpt lat="49.1399594" lon="2.7055426">
<ele>112.88</ele>
<time>2018-12-30T12:54:47Z</time>
</trkpt>
<trkpt lat="49.1399337" lon="2.7054790">
<ele>112.69</ele>
<time>2018-12-30T12:54:48Z</time>
</trkpt>
<trkpt lat="49.1398914" lon="2.7054338">
<ele>112.64</ele>
<time>2018-12-30T12:54:49Z</time>
</trkpt>
<trkpt lat="49.1398452" lon="2.7053981">
<ele>112.62</ele>
<time>2018-12-30T12:54:50Z</time>
</trkpt>
<trkpt lat="49.1397926" lon="2.7053719">
<ele>113.31</ele>
<time>2018-12-30T12:54:51Z</time>
</trkpt>
<trkpt lat="49.1397379" lon="2.7053468">
<ele>113.52</ele>
<time>2018-12-30T12:54:52Z</time>
</trkpt>
<trkpt lat="49.1396865" lon="2.7053097">
<ele>113.58</ele>
<time>2018-12-30T12:54:53Z</time>
</trkpt>
<trkpt lat="49.1396483" lon="2.7051905">
<ele>112.91</ele>
<time>2018-12-30T12:54:55Z</time>
</trkpt>
<trkpt lat="49.1396529" lon="2.7051039">
<ele>113.40</ele>
<time>2018-12-30T12:54:56Z</time>
</trkpt>
<trkpt lat="49.1396619" lon="2.7050186">
<ele>112.85</ele>
<time>2018-12-30T12:54:57Z</time>
</trkpt>
<trkpt lat="49.1396738" lon="2.7049332">
<ele>112.68</ele>
<time>2018-12-30T12:54:58Z</time>
</trkpt>
<trkpt lat="49.1396797" lon="2.7048497">
<ele>112.63</ele>
<time>2018-12-30T12:54:59Z</time>
</trkpt>
<trkpt lat="49.1396753" lon="2.7047687">
<ele>112.62</ele>
<time>2018-12-30T12:55:00Z</time>
</trkpt>
<trkpt lat="49.1396641" lon="2.7046922">
<ele>113.31</ele>
<time>2018-12-30T12:55:01Z</time>
</trkpt>
<trkpt lat="49.1396459" lon="2.7046185">
<ele>113.52</ele>
<time>2018-12-30T12:55:02Z</time>
</trkpt>
<trkpt lat="49.1396180" lon="2.7045548">
<ele>113.58</ele>
<time>2018-12-30T12:55:03Z</time>
</trkpt>
<trkpt lat="49.1395802" lon="2.7044994">
<ele>112.90</ele>
<time>2018-12-30T12:55:04Z</time>
</trkpt>
<trkpt lat="49.1395437" lon="2.7044428">
<ele>113.40</ele>
<time>2018-12-30T12:55:05Z</time>
</trkpt>
<trkpt lat="49.1395034" lon="2.7044025">
<ele>112.85</ele>
<time>2018-12-30T12:55:06Z</time>
</trkpt>
<trkpt lat="49.1394581" lon="2.7043755">
<ele>112.68</ele>
<time>2018-12-30T12:55:07Z</time>
</trkpt>
<trkpt lat="49.1394108" lon="2.7043502">
<ele>112.63</ele>
<time>2018-12-30T12:55:08Z</time>
</trkpt>
<trkpt lat="49.1393626" lon="2.7043230">
<ele>112.62</ele>
<time>2018-12-30T12:55:09Z</time>
</trkpt>
<trkpt lat="49.1393158" lon="2.7042994">
<ele>112.61</ele>
<time>2018-12-30T12:55:10Z</time>
</trkpt>
<trkpt lat="49.1392256" lon="2.7042638">
<ele>112.61</ele>
<time>2018-12-30T12:55:12Z</time>
</trkpt>
<trkpt lat="49.1391767" lon="2.7042459">
<ele>112.61</ele>
<time>2018-12-30T12:55:13Z</time>
</trkpt>
<trkpt lat="49.1391306" lon="2.7042347">
<ele>112.61</ele>
<time>2018-12-30T12:55:14Z</time>
</trkpt>
<trkpt lat="49.1390756" lon="2.7042211">
<ele>112.61</ele>
<time>2018-12-30T12:55:15Z</time>
</trkpt>
<trkpt lat="49.1390273" lon="2.7041947">
<ele>112.61</ele>
<time>2018-12-30T12:55:16Z</time>
</trkpt>
<trkpt lat="49.1389784" lon="2.7041581">
<ele>112.61</ele>
<time>2018-12-30T12:55:17Z</time>
</trkpt>
<trkpt lat="49.1389278" lon="2.7041067">
<ele>113.31</ele>
<time>2018-12-30T12:55:18Z</time>
</trkpt>
<trkpt lat="49.1388790" lon="2.7040658">
<ele>113.52</ele>
<time>2018-12-30T12:55:19Z</time>
</trkpt>
<trkpt lat="49.1388325" lon="2.7040287">
<ele>114.28</ele>
<time>2018-12-30T12:55:20Z</time>
</trkpt>
<trkpt lat="49.1387858" lon="2.7039854">
<ele>114.51</ele>
<time>2018-12-30T12:55:21Z</time>
</trkpt>
<trkpt lat="49.1387423" lon="2.7039497">
<ele>114.58</ele>
<time>2018-12-30T12:55:22Z</time>
</trkpt>
<trkpt lat="49.1387019" lon="2.7039132">
<ele>114.60</ele>
<time>2018-12-30T12:55:23Z</time>
</trkpt>
<trkpt lat="49.1386570" lon="2.7038855">
<ele>114.61</ele>
<time>2018-12-30T12:55:24Z</time>
</trkpt>
<trkpt lat="49.1386125" lon="2.7038725">
<ele>114.61</ele>
<time>2018-12-30T12:55:25Z</time>
</trkpt>
<trkpt lat="49.1385530" lon="2.7038498">
<ele>114.61</ele>
<time>2018-12-30T12:55:27Z</time>
</trkpt>
<trkpt lat="49.1385004" lon="2.7038299">
<ele>115.31</ele>
<time>2018-12-30T12:55:30Z</time>
</trkpt>
<trkpt lat="49.1385124" lon="2.7037419">
<ele>115.61</ele>
<time>2018-12-30T12:55:58Z</time>
</trkpt>
<trkpt lat="49.1385649" lon="2.7037042">
<ele>115.61</ele>
<time>2018-12-30T12:56:00Z</time>
</trkpt>
<trkpt lat="49.1386592" lon="2.7036794">
<ele>114.00</ele>
<time>2018-12-30T12:56:02Z</time>
</trkpt>
<trkpt lat="49.1387105" lon="2.7036774">
<ele>113.73</ele>
<time>2018-12-30T12:56:03Z</time>
</trkpt>
<trkpt lat="49.1387663" lon="2.7036572">
<ele>112.95</ele>
<time>2018-12-30T12:56:04Z</time>
</trkpt>
<trkpt lat="49.1388199" lon="2.7036225">
<ele>112.01</ele>
<time>2018-12-30T12:56:05Z</time>
</trkpt>
<trkpt lat="49.1388697" lon="2.7035902">
<ele>111.73</ele>
<time>2018-12-30T12:56:06Z</time>
</trkpt>
<trkpt lat="49.1389283" lon="2.7035568">
<ele>111.65</ele>
<time>2018-12-30T12:56:07Z</time>
</trkpt>
<trkpt lat="49.1389993" lon="2.7035242">
<ele>110.92</ele>
<time>2018-12-30T12:56:08Z</time>
</trkpt>
<trkpt lat="49.1390720" lon="2.7035048">
<ele>110.00</ele>
<time>2018-12-30T12:56:09Z</time>
</trkpt>
<trkpt lat="49.1391435" lon="2.7034954">
<ele>109.03</ele>
<time>2018-12-30T12:56:10Z</time>
</trkpt>
<trkpt lat="49.1392121" lon="2.7034828">
<ele>108.74</ele>
<time>2018-12-30T12:56:11Z</time>
</trkpt>
<trkpt lat="49.1392806" lon="2.7034585">
<ele>107.95</ele>
<time>2018-12-30T12:56:12Z</time>
</trkpt>
<trkpt lat="49.1393487" lon="2.7034261">
<ele>107.01</ele>
<time>2018-12-30T12:56:13Z</time>
</trkpt>
<trkpt lat="49.1394054" lon="2.7033702">
<ele>106.73</ele>
<time>2018-12-30T12:56:14Z</time>
</trkpt>
<trkpt lat="49.1394628" lon="2.7033035">
<ele>105.95</ele>
<time>2018-12-30T12:56:15Z</time>
</trkpt>
<trkpt lat="49.1395325" lon="2.7032429">
<ele>104.31</ele>
<time>2018-12-30T12:56:16Z</time>
</trkpt>
<trkpt lat="49.1396193" lon="2.7032052">
<ele>103.12</ele>
<time>2018-12-30T12:56:17Z</time>
</trkpt>
<trkpt lat="49.1397126" lon="2.7031641">
<ele>102.06</ele>
<time>2018-12-30T12:56:18Z</time>
</trkpt>
<trkpt lat="49.1397867" lon="2.7031435">
<ele>101.05</ele>
<time>2018-12-30T12:56:19Z</time>
</trkpt>
<trkpt lat="49.1398331" lon="2.7031489">
<ele>100.74</ele>
<time>2018-12-30T12:56:20Z</time>
</trkpt>
<trkpt lat="49.1398839" lon="2.7032338">
<ele>99.92</ele>
<time>2018-12-30T12:56:22Z</time>
</trkpt>
<trkpt lat="49.1399668" lon="2.7032607">
<ele>98.24</ele>
<time>2018-12-30T12:56:24Z</time>
</trkpt>
<trkpt lat="49.1400306" lon="2.7032329">
<ele>97.10</ele>
<time>2018-12-30T12:56:25Z</time>
</trkpt>
<trkpt lat="49.1401012" lon="2.7032015">
<ele>96.76</ele>
<time>2018-12-30T12:56:26Z</time>
</trkpt>
<trkpt lat="49.1401623" lon="2.7031859">
<ele>95.95</ele>
<time>2018-12-30T12:56:27Z</time>
</trkpt>
<trkpt lat="49.1402229" lon="2.7031613">
<ele>95.71</ele>
<time>2018-12-30T12:56:28Z</time>
</trkpt>
<trkpt lat="49.1402969" lon="2.7031309">
<ele>94.94</ele>
<time>2018-12-30T12:56:29Z</time>
</trkpt>
<trkpt lat="49.1403605" lon="2.7030747">
<ele>94.01</ele>
<time>2018-12-30T12:56:30Z</time>
</trkpt>
<trkpt lat="49.1403953" lon="2.7030246">
<ele>93.73</ele>
<time>2018-12-30T12:56:31Z</time>
</trkpt>
<trkpt lat="49.1403666" lon="2.7029662">
<ele>90.71</ele>
<time>2018-12-30T12:56:57Z</time>
</trkpt>
<trkpt lat="49.1403076" lon="2.7029015">
<ele>89.70</ele>
<time>2018-12-30T12:57:00Z</time>
</trkpt>
<trkpt lat="49.1402584" lon="2.7028489">
<ele>89.62</ele>
<time>2018-12-30T12:57:02Z</time>
</trkpt>
<trkpt lat="49.1402133" lon="2.7027857">
<ele>88.70</ele>
<time>2018-12-30T12:57:04Z</time>
</trkpt>
<trkpt lat="49.1401580" lon="2.7027181">
<ele>88.62</ele>
<time>2018-12-30T12:57:06Z</time>
</trkpt>
<trkpt lat="49.1400864" lon="2.7026414">
<ele>88.61</ele>
<time>2018-12-30T12:57:08Z</time>
</trkpt>
<trkpt lat="49.1400327" lon="2.7025700">
<ele>88.61</ele>
<time>2018-12-30T12:57:10Z</time>
</trkpt>
<trkpt lat="49.1399850" lon="2.7024934">
<ele>88.61</ele>
<time>2018-12-30T12:57:12Z</time>
</trkpt>
<trkpt lat="49.1399341" lon="2.7024155">
<ele>88.61</ele>
<time>2018-12-30T12:57:14Z</time>
</trkpt>
<trkpt lat="49.1398824" lon="2.7023402">
<ele>88.61</ele>
<time>2018-12-30T12:57:16Z</time>
</trkpt>
<trkpt lat="49.1398293" lon="2.7022639">
<ele>88.61</ele>
<time>2018-12-30T12:57:18Z</time>
</trkpt>
<trkpt lat="49.1397770" lon="2.7021840">
<ele>88.61</ele>
<time>2018-12-30T12:57:20Z</time>
</trkpt>
<trkpt lat="49.1397265" lon="2.7021203">
<ele>88.61</ele>
<time>2018-12-30T12:57:22Z</time>
</trkpt>
<trkpt lat="49.1396757" lon="2.7020543">
<ele>88.61</ele>
<time>2018-12-30T12:57:24Z</time>
</trkpt>
<trkpt lat="49.1396060" lon="2.7019887">
<ele>88.61</ele>
<time>2018-12-30T12:57:26Z</time>
</trkpt>
<trkpt lat="49.1395391" lon="2.7019537">
<ele>89.31</ele>
<time>2018-12-30T12:57:27Z</time>
</trkpt>
<trkpt lat="49.1394762" lon="2.7019196">
<ele>89.52</ele>
<time>2018-12-30T12:57:28Z</time>
</trkpt>
<trkpt lat="49.1394104" lon="2.7018880">
<ele>89.58</ele>
<time>2018-12-30T12:57:29Z</time>
</trkpt>
<trkpt lat="49.1393473" lon="2.7018645">
<ele>89.60</ele>
<time>2018-12-30T12:57:30Z</time>
</trkpt>
<trkpt lat="49.1392882" lon="2.7018501">
<ele>89.61</ele>
<time>2018-12-30T12:57:31Z</time>
</trkpt>
<trkpt lat="49.1392259" lon="2.7018461">
<ele>89.61</ele>
<time>2018-12-30T12:57:32Z</time>
</trkpt>
<trkpt lat="49.1391624" lon="2.7018497">
<ele>89.61</ele>
<time>2018-12-30T12:57:33Z</time>
</trkpt>
<trkpt lat="49.1391032" lon="2.7018575">
<ele>89.61</ele>
<time>2018-12-30T12:57:34Z</time>
</trkpt>
<trkpt lat="49.1390395" lon="2.7018788">
<ele>88.91</ele>
<time>2018-12-30T12:57:35Z</time>
</trkpt>
<trkpt lat="49.1389799" lon="2.7019039">
<ele>88.70</ele>
<time>2018-12-30T12:57:36Z</time>
</trkpt>
<trkpt lat="49.1389262" lon="2.7019327">
<ele>88.64</ele>
<time>2018-12-30T12:57:37Z</time>
</trkpt>
<trkpt lat="49.1388740" lon="2.7019456">
<ele>89.32</ele>
<time>2018-12-30T12:57:38Z</time>
</trkpt>
<trkpt lat="49.1388202" lon="2.7019486">
<ele>89.52</ele>
<time>2018-12-30T12:57:39Z</time>
</trkpt>
<trkpt lat="49.1387622" lon="2.7019454">
<ele>89.58</ele>
<time>2018-12-30T12:57:40Z</time>
</trkpt>
<trkpt lat="49.1387063" lon="2.7019282">
<ele>89.60</ele>
<time>2018-12-30T12:57:41Z</time>
</trkpt>
<trkpt lat="49.1386448" lon="2.7019120">
<ele>89.61</ele>
<time>2018-12-30T12:57:42Z</time>
</trkpt>
<trkpt lat="49.1385916" lon="2.7018946">
<ele>88.91</ele>
<time>2018-12-30T12:57:43Z</time>
</trkpt>
<trkpt lat="49.1385430" lon="2.7018819">
<ele>89.40</ele>
<time>2018-12-30T12:57:44Z</time>
</trkpt>
<trkpt lat="49.1384983" lon="2.7018701">
<ele>89.55</ele>
<time>2018-12-30T12:57:45Z</time>
</trkpt>
<trkpt lat="49.1384130" lon="2.7018481">
<ele>89.61</ele>
<time>2018-12-30T12:57:47Z</time>
</trkpt>
<trkpt lat="49.1383399" lon="2.7018123">
<ele>89.61</ele>
<time>2018-12-30T12:57:49Z</time>
</trkpt>
<trkpt lat="49.1382798" lon="2.7017856">
<ele>89.61</ele>
<time>2018-12-30T12:57:51Z</time>
</trkpt>
<trkpt lat="49.1382188" lon="2.7017539">
<ele>89.61</ele>
<time>2018-12-30T12:57:53Z</time>
</trkpt>
<trkpt lat="49.1381338" lon="2.7017218">
<ele>89.61</ele>
<time>2018-12-30T12:57:55Z</time>
</trkpt>
<trkpt lat="49.1380842" lon="2.7017062">
<ele>88.91</ele>
<time>2018-12-30T12:57:56Z</time>
</trkpt>
<trkpt lat="49.1380308" lon="2.7016945">
<ele>89.40</ele>
<time>2018-12-30T12:57:57Z</time>
</trkpt>
<trkpt lat="49.1379775" lon="2.7016813">
<ele>88.85</ele>
<time>2018-12-30T12:57:58Z</time>
</trkpt>
<trkpt lat="49.1379190" lon="2.7016702">
<ele>88.68</ele>
<time>2018-12-30T12:57:59Z</time>
</trkpt>
<trkpt lat="49.1378656" lon="2.7016573">
<ele>88.63</ele>
<time>2018-12-30T12:58:00Z</time>
</trkpt>
<trkpt lat="49.1378106" lon="2.7016452">
<ele>88.62</ele>
<time>2018-12-30T12:58:01Z</time>
</trkpt>
<trkpt lat="49.1377565" lon="2.7016282">
<ele>88.61</ele>
<time>2018-12-30T12:58:02Z</time>
</trkpt>
<trkpt lat="49.1377053" lon="2.7016093">
<ele>88.61</ele>
<time>2018-12-30T12:58:03Z</time>
</trkpt>
<trkpt lat="49.1376577" lon="2.7015958">
<ele>87.91</ele>
<time>2018-12-30T12:58:04Z</time>
</trkpt>
<trkpt lat="49.1376134" lon="2.7015758">
<ele>87.70</ele>
<time>2018-12-30T12:58:05Z</time>
</trkpt>
<trkpt lat="49.1375390" lon="2.7015440">
<ele>87.62</ele>
<time>2018-12-30T12:58:07Z</time>
</trkpt>
<trkpt lat="49.1374609" lon="2.7015022">
<ele>87.40</ele>
<time>2018-12-30T12:58:09Z</time>
</trkpt>
<trkpt lat="49.1374205" lon="2.7014705">
<ele>86.85</ele>
<time>2018-12-30T12:58:10Z</time>
</trkpt>
<trkpt lat="49.1373752" lon="2.7014396">
<ele>86.68</ele>
<time>2018-12-30T12:58:11Z</time>
</trkpt>
<trkpt lat="49.1373277" lon="2.7014036">
<ele>87.33</ele>
<time>2018-12-30T12:58:12Z</time>
</trkpt>
<trkpt lat="49.1372830" lon="2.7013638">
<ele>86.83</ele>
<time>2018-12-30T12:58:13Z</time>
</trkpt>
<trkpt lat="49.1372401" lon="2.7013244">
<ele>87.38</ele>
<time>2018-12-30T12:58:14Z</time>
</trkpt>
<trkpt lat="49.1371952" lon="2.7012892">
<ele>87.54</ele>
<time>2018-12-30T12:58:15Z</time>
</trkpt>
<trkpt lat="49.1371509" lon="2.7012553">
<ele>87.59</ele>
<time>2018-12-30T12:58:16Z</time>
</trkpt>
<trkpt lat="49.1371093" lon="2.7012246">
<ele>87.60</ele>
<time>2018-12-30T12:58:17Z</time>
</trkpt>
<trkpt lat="49.1370687" lon="2.7011939">
<ele>87.61</ele>
<time>2018-12-30T12:58:18Z</time>
</trkpt>
<trkpt lat="49.1369833" lon="2.7011680">
<ele>87.61</ele>
<time>2018-12-30T12:58:20Z</time>
</trkpt>
<trkpt lat="49.1369108" lon="2.7011577">
<ele>86.91</ele>
<time>2018-12-30T12:58:22Z</time>
</trkpt>
<trkpt lat="49.1368426" lon="2.7011328">
<ele>86.64</ele>
<time>2018-12-30T12:58:24Z</time>
</trkpt>
<trkpt lat="49.1367949" lon="2.7011129">
<ele>86.62</ele>
<time>2018-12-30T12:58:25Z</time>
</trkpt>
<trkpt lat="49.1367481" lon="2.7010887">
<ele>86.61</ele>
<time>2018-12-30T12:58:26Z</time>
</trkpt>
<trkpt lat="49.1366960" lon="2.7010644">
<ele>86.61</ele>
<time>2018-12-30T12:58:27Z</time>
</trkpt>
<trkpt lat="49.1366462" lon="2.7010394">
<ele>86.61</ele>
<time>2018-12-30T12:58:28Z</time>
</trkpt>
<trkpt lat="49.1365958" lon="2.7010157">
<ele>86.61</ele>
<time>2018-12-30T12:58:29Z</time>
</trkpt>
<trkpt lat="49.1365445" lon="2.7009876">
<ele>86.61</ele>
<time>2018-12-30T12:58:30Z</time>
</trkpt>
<trkpt lat="49.1364917" lon="2.7009676">
<ele>86.61</ele>
<time>2018-12-30T12:58:31Z</time>
</trkpt>
<trkpt lat="49.1364411" lon="2.7009490">
<ele>86.61</ele>
<time>2018-12-30T12:58:32Z</time>
</trkpt>
<trkpt lat="49.1363556" lon="2.7009252">
<ele>86.61</ele>
<time>2018-12-30T12:58:34Z</time>
</trkpt>
<trkpt lat="49.1362816" lon="2.7008852">
<ele>86.61</ele>
<time>2018-12-30T12:58:36Z</time>
</trkpt>
<trkpt lat="49.1362020" lon="2.7008230">
<ele>86.61</ele>
<time>2018-12-30T12:58:38Z</time>
</trkpt>
<trkpt lat="49.1361658" lon="2.7007710">
<ele>86.61</ele>
<time>2018-12-30T12:58:39Z</time>
</trkpt>
<trkpt lat="49.1361310" lon="2.7007142">
<ele>86.61</ele>
<time>2018-12-30T12:58:40Z</time>
</trkpt>
<trkpt lat="49.1360907" lon="2.7006621">
<ele>86.61</ele>
<time>2018-12-30T12:58:41Z</time>
</trkpt>
<trkpt lat="49.1360506" lon="2.7006044">
<ele>87.31</ele>
<time>2018-12-30T12:58:42Z</time>
</trkpt>
<trkpt lat="49.1360125" lon="2.7005542">
<ele>87.52</ele>
<time>2018-12-30T12:58:43Z</time>
</trkpt>
<trkpt lat="49.1359660" lon="2.7005055">
<ele>87.58</ele>
<time>2018-12-30T12:58:44Z</time>
</trkpt>
<trkpt lat="49.1359223" lon="2.7004543">
<ele>87.60</ele>
<time>2018-12-30T12:58:45Z</time>
</trkpt>
<trkpt lat="49.1358793" lon="2.7004065">
<ele>87.61</ele>
<time>2018-12-30T12:58:46Z</time>
</trkpt>
<trkpt lat="49.1358327" lon="2.7003558">
<ele>86.91</ele>
<time>2018-12-30T12:58:47Z</time>
</trkpt>
<trkpt lat="49.1357825" lon="2.7003119">
<ele>86.70</ele>
<time>2018-12-30T12:58:48Z</time>
</trkpt>
<trkpt lat="49.1357110" lon="2.7002960">
<ele>85.71</ele>
<time>2018-12-30T12:58:50Z</time>
</trkpt>
<trkpt lat="49.1357152" lon="2.7003731">
<ele>85.61</ele>
<time>2018-12-30T12:58:54Z</time>
</trkpt>
<trkpt lat="49.1357322" lon="2.7004630">
<ele>85.61</ele>
<time>2018-12-30T12:58:56Z</time>
</trkpt>
<trkpt lat="49.1357528" lon="2.7005601">
<ele>85.61</ele>
<time>2018-12-30T12:58:58Z</time>
</trkpt>
<trkpt lat="49.1357777" lon="2.7006644">
<ele>85.61</ele>
<time>2018-12-30T12:59:00Z</time>
</trkpt>
<trkpt lat="49.1357933" lon="2.7007331">
<ele>85.61</ele>
<time>2018-12-30T12:59:01Z</time>
</trkpt>
<trkpt lat="49.1358186" lon="2.7008523">
<ele>85.61</ele>
<time>2018-12-30T12:59:03Z</time>
</trkpt>
<trkpt lat="49.1358425" lon="2.7009821">
<ele>85.61</ele>
<time>2018-12-30T12:59:05Z</time>
</trkpt>
<trkpt lat="49.1358642" lon="2.7011052">
<ele>86.31</ele>
<time>2018-12-30T12:59:07Z</time>
</trkpt>
<trkpt lat="49.1358767" lon="2.7012322">
<ele>86.58</ele>
<time>2018-12-30T12:59:09Z</time>
</trkpt>
<trkpt lat="49.1358927" lon="2.7013553">
<ele>87.31</ele>
<time>2018-12-30T12:59:11Z</time>
</trkpt>
<trkpt lat="49.1359068" lon="2.7014721">
<ele>87.58</ele>
<time>2018-12-30T12:59:13Z</time>
</trkpt>
<trkpt lat="49.1359185" lon="2.7015894">
<ele>88.31</ele>
<time>2018-12-30T12:59:15Z</time>
</trkpt>
<trkpt lat="49.1359455" lon="2.7016927">
<ele>88.58</ele>
<time>2018-12-30T12:59:17Z</time>
</trkpt>
<trkpt lat="49.1359674" lon="2.7017987">
<ele>88.61</ele>
<time>2018-12-30T12:59:19Z</time>
</trkpt>
<trkpt lat="49.1359849" lon="2.7018911">
<ele>89.52</ele>
<time>2018-12-30T12:59:21Z</time>
</trkpt>
<trkpt lat="49.1360103" lon="2.7019867">
<ele>89.60</ele>
<time>2018-12-30T12:59:23Z</time>
</trkpt>
<trkpt lat="49.1360270" lon="2.7020802">
<ele>89.61</ele>
<time>2018-12-30T12:59:25Z</time>
</trkpt>
<trkpt lat="49.1360372" lon="2.7021732">
<ele>89.61</ele>
<time>2018-12-30T12:59:27Z</time>
</trkpt>
<trkpt lat="49.1360432" lon="2.7022707">
<ele>90.31</ele>
<time>2018-12-30T12:59:29Z</time>
</trkpt>
<trkpt lat="49.1360618" lon="2.7023656">
<ele>90.58</ele>
<time>2018-12-30T12:59:31Z</time>
</trkpt>
<trkpt lat="49.1360831" lon="2.7024552">
<ele>91.31</ele>
<time>2018-12-30T12:59:33Z</time>
</trkpt>
<trkpt lat="49.1361067" lon="2.7025493">
<ele>91.58</ele>
<time>2018-12-30T12:59:35Z</time>
</trkpt>
<trkpt lat="49.1361250" lon="2.7026433">
<ele>92.52</ele>
<time>2018-12-30T12:59:37Z</time>
</trkpt>
<trkpt lat="49.1361415" lon="2.7027344">
<ele>92.60</ele>
<time>2018-12-30T12:59:39Z</time>
</trkpt>
<trkpt lat="49.1361528" lon="2.7028288">
<ele>93.31</ele>
<time>2018-12-30T12:59:41Z</time>
</trkpt>
<trkpt lat="49.1361634" lon="2.7029246">
<ele>93.58</ele>
<time>2018-12-30T12:59:43Z</time>
</trkpt>
<trkpt lat="49.1361807" lon="2.7030150">
<ele>94.31</ele>
<time>2018-12-30T12:59:45Z</time>
</trkpt>
<trkpt lat="49.1361909" lon="2.7031069">
<ele>94.58</ele>
<time>2018-12-30T12:59:47Z</time>
</trkpt>
<trkpt lat="49.1362069" lon="2.7031794">
<ele>95.52</ele>
<time>2018-12-30T12:59:49Z</time>
</trkpt>
<trkpt lat="49.1362111" lon="2.7032535">
<ele>96.30</ele>
<time>2018-12-30T12:59:51Z</time>
</trkpt>
<trkpt lat="49.1362144" lon="2.7033317">
<ele>97.28</ele>
<time>2018-12-30T12:59:53Z</time>
</trkpt>
<trkpt lat="49.1362296" lon="2.7034121">
<ele>98.28</ele>
<time>2018-12-30T12:59:55Z</time>
</trkpt>
<trkpt lat="49.1362369" lon="2.7034875">
<ele>98.58</ele>
<time>2018-12-30T12:59:57Z</time>
</trkpt>
<trkpt lat="49.1362478" lon="2.7035692">
<ele>99.52</ele>
<time>2018-12-30T12:59:59Z</time>
</trkpt>
<trkpt lat="49.1362582" lon="2.7036484">
<ele>100.30</ele>
<time>2018-12-30T13:00:01Z</time>
</trkpt>
<trkpt lat="49.1362704" lon="2.7037275">
<ele>101.28</ele>
<time>2018-12-30T13:00:03Z</time>
</trkpt>
<trkpt lat="49.1362771" lon="2.7038072">
<ele>101.58</ele>
<time>2018-12-30T13:00:05Z</time>
</trkpt>
<trkpt lat="49.1362890" lon="2.7038881">
<ele>102.52</ele>
<time>2018-12-30T13:00:07Z</time>
</trkpt>
<trkpt lat="49.1363028" lon="2.7039931">
<ele>105.19</ele>
<time>2018-12-30T13:00:10Z</time>
</trkpt>
<trkpt lat="49.1363228" lon="2.7040585">
<ele>105.57</ele>
<time>2018-12-30T13:00:12Z</time>
</trkpt>
<trkpt lat="49.1363337" lon="2.7041316">
<ele>106.52</ele>
<time>2018-12-30T13:00:14Z</time>
</trkpt>
<trkpt lat="49.1363337" lon="2.7042065">
<ele>107.51</ele>
<time>2018-12-30T13:00:16Z</time>
</trkpt>
<trkpt lat="49.1363390" lon="2.7042817">
<ele>108.30</ele>
<time>2018-12-30T13:00:18Z</time>
</trkpt>
<trkpt lat="49.1363434" lon="2.7043570">
<ele>108.58</ele>
<time>2018-12-30T13:00:20Z</time>
</trkpt>
<trkpt lat="49.1363365" lon="2.7044351">
<ele>109.31</ele>
<time>2018-12-30T13:00:23Z</time>
</trkpt>
<trkpt lat="49.1362879" lon="2.7044900">
<ele>111.51</ele>
<time>2018-12-30T13:00:27Z</time>
</trkpt>
<trkpt lat="49.1362316" lon="2.7044821">
<ele>115.28</ele>
<time>2018-12-30T13:00:59Z</time>
</trkpt>
<trkpt lat="49.1361764" lon="2.7044987">
<ele>115.60</ele>
<time>2018-12-30T13:01:02Z</time>
</trkpt>
<trkpt lat="49.1361192" lon="2.7045237">
<ele>115.61</ele>
<time>2018-12-30T13:01:04Z</time>
</trkpt>
<trkpt lat="49.1360561" lon="2.7045504">
<ele>114.70</ele>
<time>2018-12-30T13:01:06Z</time>
</trkpt>
<trkpt lat="49.1360020" lon="2.7045763">
<ele>114.62</ele>
<time>2018-12-30T13:01:08Z</time>
</trkpt>
<trkpt lat="49.1359437" lon="2.7046041">
<ele>115.52</ele>
<time>2018-12-30T13:01:10Z</time>
</trkpt>
<trkpt lat="49.1358838" lon="2.7046185">
<ele>116.30</ele>
<time>2018-12-30T13:01:12Z</time>
</trkpt>
<trkpt lat="49.1358215" lon="2.7046354">
<ele>117.28</ele>
<time>2018-12-30T13:01:14Z</time>
</trkpt>
<trkpt lat="49.1357614" lon="2.7046499">
<ele>118.28</ele>
<time>2018-12-30T13:01:16Z</time>
</trkpt>
<trkpt lat="49.1357022" lon="2.7046593">
<ele>118.58</ele>
<time>2018-12-30T13:01:18Z</time>
</trkpt>
<trkpt lat="49.1356417" lon="2.7046628">
<ele>119.52</ele>
<time>2018-12-30T13:01:20Z</time>
</trkpt>
<trkpt lat="49.1355788" lon="2.7046841">
<ele>120.51</ele>
<time>2018-12-30T13:01:22Z</time>
</trkpt>
<trkpt lat="49.1355158" lon="2.7046979">
<ele>121.30</ele>
<time>2018-12-30T13:01:24Z</time>
</trkpt>
<trkpt lat="49.1354473" lon="2.7047265">
<ele>121.58</ele>
<time>2018-12-30T13:01:26Z</time>
</trkpt>
<trkpt lat="49.1353791" lon="2.7047427">
<ele>121.61</ele>
<time>2018-12-30T13:01:28Z</time>
</trkpt>
<trkpt lat="49.1353039" lon="2.7047625">
<ele>121.61</ele>
<time>2018-12-30T13:01:30Z</time>
</trkpt>
<trkpt lat="49.1352333" lon="2.7047808">
<ele>121.82</ele>
<time>2018-12-30T13:01:32Z</time>
</trkpt>
<trkpt lat="49.1351663" lon="2.7048069">
<ele>121.63</ele>
<time>2018-12-30T13:01:34Z</time>
</trkpt>
<trkpt lat="49.1350916" lon="2.7048422">
<ele>121.61</ele>
<time>2018-12-30T13:01:36Z</time>
</trkpt>
<trkpt lat="49.1350103" lon="2.7048693">
<ele>122.31</ele>
<time>2018-12-30T13:01:38Z</time>
</trkpt>
<trkpt lat="49.1349370" lon="2.7048855">
<ele>122.58</ele>
<time>2018-12-30T13:01:40Z</time>
</trkpt>
<trkpt lat="49.1348932" lon="2.7049073">
<ele>123.30</ele>
<time>2018-12-30T13:01:41Z</time>
</trkpt>
<trkpt lat="49.1348231" lon="2.7049270">
<ele>123.58</ele>
<time>2018-12-30T13:01:43Z</time>
</trkpt>
<trkpt lat="49.1347763" lon="2.7049535">
<ele>124.30</ele>
<time>2018-12-30T13:01:44Z</time>
</trkpt>
<trkpt lat="49.1347267" lon="2.7049716">
<ele>124.52</ele>
<time>2018-12-30T13:01:45Z</time>
</trkpt>
<trkpt lat="49.1346407" lon="2.7049976">
<ele>125.30</ele>
<time>2018-12-30T13:01:47Z</time>
</trkpt>
<trkpt lat="49.1345940" lon="2.7050075">
<ele>125.52</ele>
<time>2018-12-30T13:01:48Z</time>
</trkpt>
<trkpt lat="49.1345108" lon="2.7050250">
<ele>124.90</ele>
<time>2018-12-30T13:01:50Z</time>
</trkpt>
<trkpt lat="49.1344659" lon="2.7050390">
<ele>124.70</ele>
<time>2018-12-30T13:01:51Z</time>
</trkpt>
<trkpt lat="49.1344177" lon="2.7050494">
<ele>124.64</ele>
<time>2018-12-30T13:01:52Z</time>
</trkpt>
<trkpt lat="49.1343325" lon="2.7050768">
<ele>124.61</ele>
<time>2018-12-30T13:01:54Z</time>
</trkpt>
<trkpt lat="49.1342438" lon="2.7051043">
<ele>124.61</ele>
<time>2018-12-30T13:01:56Z</time>
</trkpt>
<trkpt lat="49.1341556" lon="2.7051292">
<ele>124.61</ele>
<time>2018-12-30T13:01:58Z</time>
</trkpt>
<trkpt lat="49.1341021" lon="2.7051473">
<ele>123.91</ele>
<time>2018-12-30T13:01:59Z</time>
</trkpt>
<trkpt lat="49.1340486" lon="2.7051616">
<ele>123.70</ele>
<time>2018-12-30T13:02:00Z</time>
</trkpt>
<trkpt lat="49.1339970" lon="2.7051774">
<ele>123.64</ele>
<time>2018-12-30T13:02:01Z</time>
</trkpt>
<trkpt lat="49.1339427" lon="2.7051939">
<ele>123.62</ele>
<time>2018-12-30T13:02:02Z</time>
</trkpt>
<trkpt lat="49.1338848" lon="2.7052164">
<ele>122.91</ele>
<time>2018-12-30T13:02:03Z</time>
</trkpt>
<trkpt lat="49.1338264" lon="2.7052425">
<ele>122.70</ele>
<time>2018-12-30T13:02:04Z</time>
</trkpt>
<trkpt lat="49.1337664" lon="2.7052702">
<ele>122.64</ele>
<time>2018-12-30T13:02:05Z</time>
</trkpt>
<trkpt lat="49.1337038" lon="2.7052986">
<ele>121.92</ele>
<time>2018-12-30T13:02:06Z</time>
</trkpt>
<trkpt lat="49.1336447" lon="2.7053237">
<ele>121.70</ele>
<time>2018-12-30T13:02:07Z</time>
</trkpt>
<trkpt lat="49.1335854" lon="2.7053414">
<ele>121.64</ele>
<time>2018-12-30T13:02:08Z</time>
</trkpt>
<trkpt lat="49.1335215" lon="2.7053616">
<ele>121.62</ele>
<time>2018-12-30T13:02:09Z</time>
</trkpt>
<trkpt lat="49.1334606" lon="2.7053805">
<ele>121.61</ele>
<time>2018-12-30T13:02:10Z</time>
</trkpt>
<trkpt lat="49.1334026" lon="2.7053975">
<ele>120.91</ele>
<time>2018-12-30T13:02:11Z</time>
</trkpt>
<trkpt lat="49.1333428" lon="2.7054138">
<ele>120.70</ele>
<time>2018-12-30T13:02:12Z</time>
</trkpt>
<trkpt lat="49.1332843" lon="2.7054292">
<ele>120.64</ele>
<time>2018-12-30T13:02:13Z</time>
</trkpt>
<trkpt lat="49.1332248" lon="2.7054472">
<ele>119.92</ele>
<time>2018-12-30T13:02:14Z</time>
</trkpt>
<trkpt lat="49.1331729" lon="2.7054599">
<ele>119.70</ele>
<time>2018-12-30T13:02:15Z</time>
</trkpt>
<trkpt lat="49.1331176" lon="2.7054384">
<ele>119.64</ele>
<time>2018-12-30T13:02:16Z</time>
</trkpt>
<trkpt lat="49.1330674" lon="2.7054016">
<ele>119.62</ele>
<time>2018-12-30T13:02:17Z</time>
</trkpt>
<trkpt lat="49.1330278" lon="2.7053591">
<ele>120.31</ele>
<time>2018-12-30T13:02:18Z</time>
</trkpt>
<trkpt lat="49.1329911" lon="2.7053142">
<ele>120.52</ele>
<time>2018-12-30T13:02:19Z</time>
</trkpt>
<trkpt lat="49.1329508" lon="2.7052691">
<ele>119.88</ele>
<time>2018-12-30T13:02:20Z</time>
</trkpt>
<trkpt lat="49.1329026" lon="2.7052209">
<ele>120.39</ele>
<time>2018-12-30T13:02:21Z</time>
</trkpt>
<trkpt lat="49.1328512" lon="2.7051774">
<ele>120.55</ele>
<time>2018-12-30T13:02:22Z</time>
</trkpt>
<trkpt lat="49.1328086" lon="2.7051264">
<ele>120.59</ele>
<time>2018-12-30T13:02:23Z</time>
</trkpt>
<trkpt lat="49.1327661" lon="2.7050761">
<ele>120.61</ele>
<time>2018-12-30T13:02:24Z</time>
</trkpt>
<trkpt lat="49.1327189" lon="2.7050272">
<ele>120.61</ele>
<time>2018-12-30T13:02:25Z</time>
</trkpt>
<trkpt lat="49.1326694" lon="2.7049723">
<ele>120.61</ele>
<time>2018-12-30T13:02:26Z</time>
</trkpt>
<trkpt lat="49.1326189" lon="2.7049179">
<ele>120.61</ele>
<time>2018-12-30T13:02:27Z</time>
</trkpt>
<trkpt lat="49.1325648" lon="2.7048614">
<ele>120.61</ele>
<time>2018-12-30T13:02:28Z</time>
</trkpt>
<trkpt lat="49.1325158" lon="2.7048013">
<ele>120.61</ele>
<time>2018-12-30T13:02:29Z</time>
</trkpt>
<trkpt lat="49.1324671" lon="2.7047503">
<ele>120.61</ele>
<time>2018-12-30T13:02:30Z</time>
</trkpt>
<trkpt lat="49.1324221" lon="2.7046912">
<ele>119.91</ele>
<time>2018-12-30T13:02:31Z</time>
</trkpt>
<trkpt lat="49.1323743" lon="2.7046376">
<ele>120.40</ele>
<time>2018-12-30T13:02:32Z</time>
</trkpt>
<trkpt lat="49.1323198" lon="2.7045816">
<ele>119.85</ele>
<time>2018-12-30T13:02:33Z</time>
</trkpt>
<trkpt lat="49.1322689" lon="2.7045271">
<ele>119.68</ele>
<time>2018-12-30T13:02:34Z</time>
</trkpt>
<trkpt lat="49.1322161" lon="2.7044706">
<ele>119.63</ele>
<time>2018-12-30T13:02:35Z</time>
</trkpt>
<trkpt lat="49.1321587" lon="2.7044179">
<ele>119.62</ele>
<time>2018-12-30T13:02:36Z</time>
</trkpt>
<trkpt lat="49.1321075" lon="2.7043584">
<ele>119.61</ele>
<time>2018-12-30T13:02:37Z</time>
</trkpt>
<trkpt lat="49.1320548" lon="2.7043023">
<ele>118.91</ele>
<time>2018-12-30T13:02:38Z</time>
</trkpt>
<trkpt lat="49.1319996" lon="2.7042465">
<ele>118.70</ele>
<time>2018-12-30T13:02:39Z</time>
</trkpt>
<trkpt lat="49.1319479" lon="2.7041947">
<ele>118.64</ele>
<time>2018-12-30T13:02:40Z</time>
</trkpt>
<trkpt lat="49.1318942" lon="2.7041411">
<ele>118.62</ele>
<time>2018-12-30T13:02:41Z</time>
</trkpt>
<trkpt lat="49.1318400" lon="2.7040932">
<ele>118.61</ele>
<time>2018-12-30T13:02:42Z</time>
</trkpt>
<trkpt lat="49.1317891" lon="2.7040445">
<ele>118.61</ele>
<time>2018-12-30T13:02:43Z</time>
</trkpt>
<trkpt lat="49.1317398" lon="2.7039844">
<ele>118.61</ele>
<time>2018-12-30T13:02:44Z</time>
</trkpt>
<trkpt lat="49.1316931" lon="2.7039315">
<ele>118.61</ele>
<time>2018-12-30T13:02:45Z</time>
</trkpt>
<trkpt lat="49.1316471" lon="2.7038812">
<ele>118.61</ele>
<time>2018-12-30T13:02:46Z</time>
</trkpt>
<trkpt lat="49.1316050" lon="2.7038492">
<ele>118.61</ele>
<time>2018-12-30T13:02:47Z</time>
</trkpt>
<trkpt lat="49.1315182" lon="2.7039238">
<ele>117.91</ele>
<time>2018-12-30T13:02:49Z</time>
</trkpt>
<trkpt lat="49.1314860" lon="2.7040035">
<ele>117.70</ele>
<time>2018-12-30T13:02:50Z</time>
</trkpt>
<trkpt lat="49.1314560" lon="2.7040807">
<ele>117.64</ele>
<time>2018-12-30T13:02:51Z</time>
</trkpt>
<trkpt lat="49.1314221" lon="2.7041467">
<ele>116.92</ele>
<time>2018-12-30T13:02:52Z</time>
</trkpt>
<trkpt lat="49.1313925" lon="2.7042186">
<ele>116.70</ele>
<time>2018-12-30T13:02:53Z</time>
</trkpt>
<trkpt lat="49.1313631" lon="2.7042988">
<ele>116.64</ele>
<time>2018-12-30T13:02:54Z</time>
</trkpt>
<trkpt lat="49.1313268" lon="2.7043825">
<ele>116.62</ele>
<time>2018-12-30T13:02:55Z</time>
</trkpt>
<trkpt lat="49.1312856" lon="2.7044597">
<ele>116.61</ele>
<time>2018-12-30T13:02:56Z</time>
</trkpt>
<trkpt lat="49.1312380" lon="2.7044987">
<ele>116.61</ele>
<time>2018-12-30T13:02:57Z</time>
</trkpt>
<trkpt lat="49.1311729" lon="2.7045031">
<ele>115.91</ele>
<time>2018-12-30T13:02:58Z</time>
</trkpt>
<trkpt lat="49.1311110" lon="2.7044872">
<ele>115.70</ele>
<time>2018-12-30T13:02:59Z</time>
</trkpt>
<trkpt lat="49.1310503" lon="2.7044812">
<ele>115.64</ele>
<time>2018-12-30T13:03:00Z</time>
</trkpt>
<trkpt lat="49.1309831" lon="2.7044660">
<ele>115.62</ele>
<time>2018-12-30T13:03:01Z</time>
</trkpt>
<trkpt lat="49.1309177" lon="2.7044487">
<ele>115.61</ele>
<time>2018-12-30T13:03:02Z</time>
</trkpt>
<trkpt lat="49.1308478" lon="2.7044300">
<ele>115.61</ele>
<time>2018-12-30T13:03:03Z</time>
</trkpt>
<trkpt lat="49.1307804" lon="2.7044102">
<ele>115.61</ele>
<time>2018-12-30T13:03:04Z</time>
</trkpt>
<trkpt lat="49.1307205" lon="2.7043806">
<ele>115.61</ele>
<time>2018-12-30T13:03:05Z</time>
</trkpt>
<trkpt lat="49.1306692" lon="2.7043318">
<ele>114.91</ele>
<time>2018-12-30T13:03:06Z</time>
</trkpt>
<trkpt lat="49.1306107" lon="2.7042697">
<ele>114.70</ele>
<time>2018-12-30T13:03:07Z</time>
</trkpt>
<trkpt lat="49.1305581" lon="2.7042090">
<ele>114.64</ele>
<time>2018-12-30T13:03:08Z</time>
</trkpt>
<trkpt lat="49.1305096" lon="2.7041509">
<ele>114.62</ele>
<time>2018-12-30T13:03:09Z</time>
</trkpt>
<trkpt lat="49.1304558" lon="2.7040969">
<ele>114.61</ele>
<time>2018-12-30T13:03:10Z</time>
</trkpt>
<trkpt lat="49.1303925" lon="2.7040626">
<ele>113.91</ele>
<time>2018-12-30T13:03:11Z</time>
</trkpt>
<trkpt lat="49.1303262" lon="2.7040446">
<ele>113.70</ele>
<time>2018-12-30T13:03:12Z</time>
</trkpt>
<trkpt lat="49.1302477" lon="2.7040471">
<ele>112.94</ele>
<time>2018-12-30T13:03:13Z</time>
</trkpt>
<trkpt lat="49.1301761" lon="2.7040376">
<ele>112.71</ele>
<time>2018-12-30T13:03:14Z</time>
</trkpt>
<trkpt lat="49.1301026" lon="2.7040177">
<ele>111.94</ele>
<time>2018-12-30T13:03:15Z</time>
</trkpt>
<trkpt lat="49.1300441" lon="2.7039860">
<ele>111.71</ele>
<time>2018-12-30T13:03:16Z</time>
</trkpt>
<trkpt lat="49.1299803" lon="2.7039533">
<ele>110.94</ele>
<time>2018-12-30T13:03:17Z</time>
</trkpt>
<trkpt lat="49.1299172" lon="2.7039246">
<ele>110.71</ele>
<time>2018-12-30T13:03:18Z</time>
</trkpt>
<trkpt lat="49.1298636" lon="2.7038863">
<ele>109.94</ele>
<time>2018-12-30T13:03:19Z</time>
</trkpt>
<trkpt lat="49.1298193" lon="2.7038363">
<ele>109.71</ele>
<time>2018-12-30T13:03:20Z</time>
</trkpt>
<trkpt lat="49.1297663" lon="2.7037968">
<ele>108.24</ele>
<time>2018-12-30T13:03:21Z</time>
</trkpt>
<trkpt lat="49.1297049" lon="2.7037928">
<ele>107.10</ele>
<time>2018-12-30T13:03:22Z</time>
</trkpt>
<trkpt lat="49.1296576" lon="2.7038094">
<ele>106.76</ele>
<time>2018-12-30T13:03:23Z</time>
</trkpt>
<trkpt lat="49.1295948" lon="2.7038270">
<ele>106.62</ele>
<time>2018-12-30T13:03:25Z</time>
</trkpt>
<trkpt lat="49.1295342" lon="2.7037597">
<ele>105.00</ele>
<time>2018-12-30T13:03:27Z</time>
</trkpt>
<trkpt lat="49.1294896" lon="2.7037495">
<ele>104.03</ele>
<time>2018-12-30T13:03:28Z</time>
</trkpt>
<trkpt lat="49.1294150" lon="2.7037550">
<ele>103.65</ele>
<time>2018-12-30T13:03:30Z</time>
</trkpt>
<trkpt lat="49.1293604" lon="2.7037683">
<ele>102.92</ele>
<time>2018-12-30T13:03:31Z</time>
</trkpt>
<trkpt lat="49.1293047" lon="2.7037880">
<ele>102.00</ele>
<time>2018-12-30T13:03:32Z</time>
</trkpt>
<trkpt lat="49.1292323" lon="2.7038573">
<ele>101.65</ele>
<time>2018-12-30T13:03:34Z</time>
</trkpt>
<trkpt lat="49.1291938" lon="2.7039433">
<ele>101.61</ele>
<time>2018-12-30T13:03:36Z</time>
</trkpt>
<trkpt lat="49.1291622" lon="2.7040243">
<ele>100.70</ele>
<time>2018-12-30T13:03:38Z</time>
</trkpt>
<trkpt lat="49.1291271" lon="2.7040942">
<ele>99.91</ele>
<time>2018-12-30T13:03:41Z</time>
</trkpt>
<trkpt lat="49.1291114" lon="2.7041693">
<ele>97.71</ele>
<time>2018-12-30T13:03:46Z</time>
</trkpt>
<trkpt lat="49.1290598" lon="2.7041908">
<ele>96.00</ele>
<time>2018-12-30T13:03:49Z</time>
</trkpt>
<trkpt lat="49.1290050" lon="2.7041631">
<ele>94.01</ele>
<time>2018-12-30T13:03:52Z</time>
</trkpt>
<trkpt lat="49.1289585" lon="2.7041561">
<ele>92.74</ele>
<time>2018-12-30T13:03:54Z</time>
</trkpt>
<trkpt lat="49.1288835" lon="2.7041576">
<ele>90.03</ele>
<time>2018-12-30T13:03:57Z</time>
</trkpt>
<trkpt lat="49.1288025" lon="2.7040810">
<ele>86.43</ele>
<time>2018-12-30T13:03:59Z</time>
</trkpt>
<trkpt lat="49.1287717" lon="2.7040286">
<ele>84.46</ele>
<time>2018-12-30T13:04:00Z</time>
</trkpt>
<trkpt lat="49.1287543" lon="2.7039105">
<ele>82.78</ele>
<time>2018-12-30T13:04:02Z</time>
</trkpt>
<trkpt lat="49.1287440" lon="2.7037938">
<ele>81.02</ele>
<time>2018-12-30T13:04:04Z</time>
</trkpt>
<trkpt lat="49.1287225" lon="2.7036764">
<ele>79.04</ele>
<time>2018-12-30T13:04:06Z</time>
</trkpt>
<trkpt lat="49.1287102" lon="2.7035502">
<ele>77.95</ele>
<time>2018-12-30T13:04:08Z</time>
</trkpt>
<trkpt lat="49.1286922" lon="2.7034213">
<ele>76.94</ele>
<time>2018-12-30T13:04:10Z</time>
</trkpt>
<trkpt lat="49.1286739" lon="2.7032898">
<ele>76.64</ele>
<time>2018-12-30T13:04:12Z</time>
</trkpt>
<trkpt lat="49.1286675" lon="2.7032162">
<ele>76.62</ele>
<time>2018-12-30T13:04:13Z</time>
</trkpt>
<trkpt lat="49.1286626" lon="2.7031390">
<ele>76.61</ele>
<time>2018-12-30T13:04:14Z</time>
</trkpt>
<trkpt lat="49.1286603" lon="2.7030634">
<ele>76.61</ele>
<time>2018-12-30T13:04:15Z</time>
</trkpt>
<trkpt lat="49.1286589" lon="2.7029885">
<ele>75.91</ele>
<time>2018-12-30T13:04:16Z</time>
</trkpt>
<trkpt lat="49.1286629" lon="2.7029152">
<ele>75.70</ele>
<time>2018-12-30T13:04:17Z</time>
</trkpt>
<trkpt lat="49.1286600" lon="2.7028464">
<ele>75.64</ele>
<time>2018-12-30T13:04:18Z</time>
</trkpt>
<trkpt lat="49.1286422" lon="2.7027397">
<ele>76.52</ele>
<time>2018-12-30T13:04:20Z</time>
</trkpt>
<trkpt lat="49.1286109" lon="2.7026485">
<ele>76.60</ele>
<time>2018-12-30T13:04:22Z</time>
</trkpt>
<trkpt lat="49.1285577" lon="2.7025869">
<ele>76.61</ele>
<time>2018-12-30T13:04:24Z</time>
</trkpt>
<trkpt lat="49.1284886" lon="2.7025657">
<ele>75.70</ele>
<time>2018-12-30T13:04:26Z</time>
</trkpt>
<trkpt lat="49.1284396" lon="2.7025666">
<ele>76.34</ele>
<time>2018-12-30T13:04:27Z</time>
</trkpt>
<trkpt lat="49.1283676" lon="2.7025977">
<ele>76.59</ele>
<time>2018-12-30T13:04:29Z</time>
</trkpt>
<trkpt lat="49.1283192" lon="2.7025996">
<ele>77.30</ele>
<time>2018-12-30T13:04:30Z</time>
</trkpt>
<trkpt lat="49.1282322" lon="2.7025892">
<ele>78.28</ele>
<time>2018-12-30T13:04:32Z</time>
</trkpt>
<trkpt lat="49.1281556" lon="2.7025469">
<ele>78.58</ele>
<time>2018-12-30T13:04:34Z</time>
</trkpt>
<trkpt lat="49.1280900" lon="2.7024727">
<ele>78.61</ele>
<time>2018-12-30T13:04:36Z</time>
</trkpt>
<trkpt lat="49.1280313" lon="2.7023813">
<ele>78.61</ele>
<time>2018-12-30T13:04:38Z</time>
</trkpt>
<trkpt lat="49.1279677" lon="2.7023051">
<ele>78.82</ele>
<time>2018-12-30T13:04:40Z</time>
</trkpt>
<trkpt lat="49.1279081" lon="2.7022201">
<ele>78.63</ele>
<time>2018-12-30T13:04:42Z</time>
</trkpt>
<trkpt lat="49.1278442" lon="2.7021382">
<ele>78.61</ele>
<time>2018-12-30T13:04:44Z</time>
</trkpt>
<trkpt lat="49.1277803" lon="2.7020515">
<ele>79.52</ele>
<time>2018-12-30T13:04:46Z</time>
</trkpt>
<trkpt lat="49.1277172" lon="2.7019683">
<ele>79.60</ele>
<time>2018-12-30T13:04:48Z</time>
</trkpt>
<trkpt lat="49.1276530" lon="2.7018915">
<ele>80.52</ele>
<time>2018-12-30T13:04:50Z</time>
</trkpt>
<trkpt lat="49.1275850" lon="2.7018083">
<ele>80.60</ele>
<time>2018-12-30T13:04:52Z</time>
</trkpt>
<trkpt lat="49.1275186" lon="2.7017209">
<ele>81.52</ele>
<time>2018-12-30T13:04:54Z</time>
</trkpt>
<trkpt lat="49.1274591" lon="2.7016372">
<ele>80.90</ele>
<time>2018-12-30T13:04:56Z</time>
</trkpt>
<trkpt lat="49.1274279" lon="2.7015259">
<ele>81.34</ele>
<time>2018-12-30T13:04:58Z</time>
</trkpt>
<trkpt lat="49.1274235" lon="2.7014009">
<ele>81.59</ele>
<time>2018-12-30T13:05:00Z</time>
</trkpt>
<trkpt lat="49.1274444" lon="2.7012699">
<ele>81.61</ele>
<time>2018-12-30T13:05:02Z</time>
</trkpt>
<trkpt lat="49.1274588" lon="2.7011996">
<ele>81.61</ele>
<time>2018-12-30T13:05:03Z</time>
</trkpt>
<trkpt lat="49.1274712" lon="2.7011305">
<ele>81.61</ele>
<time>2018-12-30T13:05:04Z</time>
</trkpt>
<trkpt lat="49.1274843" lon="2.7010632">
<ele>81.61</ele>
<time>2018-12-30T13:05:05Z</time>
</trkpt>
<trkpt lat="49.1274965" lon="2.7009944">
<ele>81.61</ele>
<time>2018-12-30T13:05:06Z</time>
</trkpt>
<trkpt lat="49.1275065" lon="2.7009258">
<ele>81.61</ele>
<time>2018-12-30T13:05:07Z</time>
</trkpt>
<trkpt lat="49.1275264" lon="2.7007876">
<ele>80.70</ele>
<time>2018-12-30T13:05:09Z</time>
</trkpt>
<trkpt lat="49.1275365" lon="2.7007171">
<ele>80.64</ele>
<time>2018-12-30T13:05:10Z</time>
</trkpt>
<trkpt lat="49.1275483" lon="2.7006413">
<ele>79.92</ele>
<time>2018-12-30T13:05:11Z</time>
</trkpt>
<trkpt lat="49.1275590" lon="2.7005647">
<ele>79.70</ele>
<time>2018-12-30T13:05:12Z</time>
</trkpt>
<trkpt lat="49.1275717" lon="2.7004946">
<ele>80.34</ele>
<time>2018-12-30T13:05:13Z</time>
</trkpt>
<trkpt lat="49.1275834" lon="2.7004246">
<ele>80.53</ele>
<time>2018-12-30T13:05:14Z</time>
</trkpt>
<trkpt lat="49.1275954" lon="2.7003561">
<ele>80.59</ele>
<time>2018-12-30T13:05:15Z</time>
</trkpt>
<trkpt lat="49.1276254" lon="2.7002386">
<ele>80.61</ele>
<time>2018-12-30T13:05:17Z</time>
</trkpt>
<trkpt lat="49.1276885" lon="2.7001905">
<ele>80.61</ele>
<time>2018-12-30T13:05:19Z</time>
</trkpt>
<trkpt lat="49.1277597" lon="2.7002067">
<ele>80.61</ele>
<time>2018-12-30T13:05:21Z</time>
</trkpt>
<trkpt lat="49.1278494" lon="2.7002226">
<ele>81.31</ele>
<time>2018-12-30T13:05:23Z</time>
</trkpt>
<trkpt lat="49.1279182" lon="2.7001767">
<ele>80.88</ele>
<time>2018-12-30T13:05:25Z</time>
</trkpt>
<trkpt lat="49.1279417" lon="2.7001178">
<ele>80.69</ele>
<time>2018-12-30T13:05:26Z</time>
</trkpt>
<trkpt lat="49.1279493" lon="2.6999954">
<ele>80.62</ele>
<time>2018-12-30T13:05:28Z</time>
</trkpt>
<trkpt lat="49.1279586" lon="2.6999237">
<ele>79.91</ele>
<time>2018-12-30T13:05:29Z</time>
</trkpt>
<trkpt lat="49.1279651" lon="2.6998453">
<ele>79.70</ele>
<time>2018-12-30T13:05:30Z</time>
</trkpt>
<trkpt lat="49.1279651" lon="2.6997690">
<ele>79.64</ele>
<time>2018-12-30T13:05:31Z</time>
</trkpt>
<trkpt lat="49.1279635" lon="2.6996867">
<ele>78.92</ele>
<time>2018-12-30T13:05:32Z</time>
</trkpt>
<trkpt lat="49.1279649" lon="2.6996020">
<ele>78.70</ele>
<time>2018-12-30T13:05:33Z</time>
</trkpt>
<trkpt lat="49.1279668" lon="2.6995187">
<ele>78.64</ele>
<time>2018-12-30T13:05:34Z</time>
</trkpt>
<trkpt lat="49.1279642" lon="2.6994315">
<ele>77.92</ele>
<time>2018-12-30T13:05:35Z</time>
</trkpt>
<trkpt lat="49.1279569" lon="2.6993399">
<ele>77.70</ele>
<time>2018-12-30T13:05:36Z</time>
</trkpt>
<trkpt lat="49.1279520" lon="2.6992469">
<ele>77.64</ele>
<time>2018-12-30T13:05:37Z</time>
</trkpt>
<trkpt lat="49.1279459" lon="2.6991534">
<ele>77.62</ele>
<time>2018-12-30T13:05:38Z</time>
</trkpt>
<trkpt lat="49.1279420" lon="2.6990592">
<ele>77.61</ele>
<time>2018-12-30T13:05:39Z</time>
</trkpt>
<trkpt lat="49.1279324" lon="2.6989615">
<ele>77.61</ele>
<time>2018-12-30T13:05:40Z</time>
</trkpt>
<trkpt lat="49.1279203" lon="2.6988701">
<ele>77.61</ele>
<time>2018-12-30T13:05:41Z</time>
</trkpt>
<trkpt lat="49.1279054" lon="2.6987771">
<ele>78.31</ele>
<time>2018-12-30T13:05:42Z</time>
</trkpt>
<trkpt lat="49.1278916" lon="2.6986869">
<ele>78.52</ele>
<time>2018-12-30T13:05:43Z</time>
</trkpt>
<trkpt lat="49.1278758" lon="2.6985976">
<ele>78.58</ele>
<time>2018-12-30T13:05:44Z</time>
</trkpt>
<trkpt lat="49.1278648" lon="2.6985128">
<ele>77.90</ele>
<time>2018-12-30T13:05:45Z</time>
</trkpt>
<trkpt lat="49.1278504" lon="2.6984293">
<ele>77.70</ele>
<time>2018-12-30T13:05:46Z</time>
</trkpt>
<trkpt lat="49.1278392" lon="2.6983497">
<ele>77.64</ele>
<time>2018-12-30T13:05:47Z</time>
</trkpt>
<trkpt lat="49.1278344" lon="2.6982698">
<ele>77.62</ele>
<time>2018-12-30T13:05:48Z</time>
</trkpt>
<trkpt lat="49.1278328" lon="2.6981951">
<ele>77.61</ele>
<time>2018-12-30T13:05:49Z</time>
</trkpt>
<trkpt lat="49.1278323" lon="2.6981162">
<ele>77.61</ele>
<time>2018-12-30T13:05:50Z</time>
</trkpt>
<trkpt lat="49.1278308" lon="2.6980348">
<ele>77.61</ele>
<time>2018-12-30T13:05:51Z</time>
</trkpt>
<trkpt lat="49.1278255" lon="2.6979497">
<ele>77.61</ele>
<time>2018-12-30T13:05:52Z</time>
</trkpt>
<trkpt lat="49.1278184" lon="2.6978657">
<ele>77.61</ele>
<time>2018-12-30T13:05:53Z</time>
</trkpt>
<trkpt lat="49.1278116" lon="2.6977834">
<ele>76.91</ele>
<time>2018-12-30T13:05:54Z</time>
</trkpt>
<trkpt lat="49.1278074" lon="2.6977047">
<ele>76.70</ele>
<time>2018-12-30T13:05:55Z</time>
</trkpt>
<trkpt lat="49.1278022" lon="2.6976223">
<ele>76.64</ele>
<time>2018-12-30T13:05:56Z</time>
</trkpt>
<trkpt lat="49.1278005" lon="2.6975438">
<ele>76.62</ele>
<time>2018-12-30T13:05:57Z</time>
</trkpt>
<trkpt lat="49.1277990" lon="2.6974586">
<ele>75.91</ele>
<time>2018-12-30T13:05:58Z</time>
</trkpt>
<trkpt lat="49.1277972" lon="2.6973620">
<ele>75.70</ele>
<time>2018-12-30T13:05:59Z</time>
</trkpt>
<trkpt lat="49.1277945" lon="2.6972731">
<ele>75.64</ele>
<time>2018-12-30T13:06:00Z</time>
</trkpt>
<trkpt lat="49.1277980" lon="2.6971888">
<ele>75.62</ele>
<time>2018-12-30T13:06:01Z</time>
</trkpt>
<trkpt lat="49.1277983" lon="2.6971006">
<ele>75.61</ele>
<time>2018-12-30T13:06:02Z</time>
</trkpt>
<trkpt lat="49.1277943" lon="2.6970105">
<ele>75.61</ele>
<time>2018-12-30T13:06:03Z</time>
</trkpt>
<trkpt lat="49.1277945" lon="2.6969109">
<ele>75.61</ele>
<time>2018-12-30T13:06:04Z</time>
</trkpt>
<trkpt lat="49.1277951" lon="2.6968088">
<ele>75.61</ele>
<time>2018-12-30T13:06:05Z</time>
</trkpt>
<trkpt lat="49.1277937" lon="2.6967122">
<ele>74.91</ele>
<time>2018-12-30T13:06:06Z</time>
</trkpt>
<trkpt lat="49.1277878" lon="2.6966180">
<ele>74.70</ele>
<time>2018-12-30T13:06:07Z</time>
</trkpt>
<trkpt lat="49.1277789" lon="2.6965260">
<ele>74.64</ele>
<time>2018-12-30T13:06:08Z</time>
</trkpt>
<trkpt lat="49.1277614" lon="2.6964428">
<ele>74.62</ele>
<time>2018-12-30T13:06:09Z</time>
</trkpt>
<trkpt lat="49.1277371" lon="2.6963637">
<ele>74.61</ele>
<time>2018-12-30T13:06:10Z</time>
</trkpt>
<trkpt lat="49.1277118" lon="2.6962768">
<ele>74.61</ele>
<time>2018-12-30T13:06:11Z</time>
</trkpt>
<trkpt lat="49.1276861" lon="2.6961925">
<ele>74.61</ele>
<time>2018-12-30T13:06:12Z</time>
</trkpt>
<trkpt lat="49.1276569" lon="2.6961135">
<ele>74.61</ele>
<time>2018-12-30T13:06:13Z</time>
</trkpt>
<trkpt lat="49.1276274" lon="2.6960376">
<ele>74.61</ele>
<time>2018-12-30T13:06:14Z</time>
</trkpt>
<trkpt lat="49.1275941" lon="2.6959584">
<ele>74.61</ele>
<time>2018-12-30T13:06:15Z</time>
</trkpt>
<trkpt lat="49.1275576" lon="2.6958739">
<ele>74.61</ele>
<time>2018-12-30T13:06:16Z</time>
</trkpt>
<trkpt lat="49.1275240" lon="2.6957948">
<ele>75.31</ele>
<time>2018-12-30T13:06:17Z</time>
</trkpt>
<trkpt lat="49.1274855" lon="2.6957176">
<ele>75.52</ele>
<time>2018-12-30T13:06:18Z</time>
</trkpt>
<trkpt lat="49.1274462" lon="2.6956452">
<ele>74.88</ele>
<time>2018-12-30T13:06:19Z</time>
</trkpt>
<trkpt lat="49.1274069" lon="2.6955752">
<ele>74.69</ele>
<time>2018-12-30T13:06:20Z</time>
</trkpt>
<trkpt lat="49.1273679" lon="2.6955064">
<ele>74.64</ele>
<time>2018-12-30T13:06:21Z</time>
</trkpt>
<trkpt lat="49.1273280" lon="2.6954385">
<ele>74.62</ele>
<time>2018-12-30T13:06:22Z</time>
</trkpt>
<trkpt lat="49.1272828" lon="2.6953662">
<ele>74.61</ele>
<time>2018-12-30T13:06:23Z</time>
</trkpt>
<trkpt lat="49.1272339" lon="2.6952972">
<ele>73.91</ele>
<time>2018-12-30T13:06:24Z</time>
</trkpt>
<trkpt lat="49.1271922" lon="2.6952233">
<ele>73.70</ele>
<time>2018-12-30T13:06:25Z</time>
</trkpt>
<trkpt lat="49.1271514" lon="2.6951502">
<ele>73.64</ele>
<time>2018-12-30T13:06:26Z</time>
</trkpt>
<trkpt lat="49.1271127" lon="2.6950819">
<ele>73.62</ele>
<time>2018-12-30T13:06:27Z</time>
</trkpt>
<trkpt lat="49.1270737" lon="2.6950150">
<ele>72.91</ele>
<time>2018-12-30T13:06:28Z</time>
</trkpt>
<trkpt lat="49.1270375" lon="2.6949480">
<ele>72.70</ele>
<time>2018-12-30T13:06:29Z</time>
</trkpt>
<trkpt lat="49.1270018" lon="2.6948779">
<ele>72.64</ele>
<time>2018-12-30T13:06:30Z</time>
</trkpt>
<trkpt lat="49.1269598" lon="2.6948170">
<ele>72.62</ele>
<time>2018-12-30T13:06:31Z</time>
</trkpt>
<trkpt lat="49.1269194" lon="2.6947578">
<ele>72.61</ele>
<time>2018-12-30T13:06:32Z</time>
</trkpt>
<trkpt lat="49.1268798" lon="2.6946936">
<ele>72.61</ele>
<time>2018-12-30T13:06:33Z</time>
</trkpt>
<trkpt lat="49.1268436" lon="2.6946320">
<ele>72.61</ele>
<time>2018-12-30T13:06:34Z</time>
</trkpt>
<trkpt lat="49.1268097" lon="2.6945578">
<ele>72.61</ele>
<time>2018-12-30T13:06:35Z</time>
</trkpt>
<trkpt lat="49.1267785" lon="2.6944821">
<ele>72.61</ele>
<time>2018-12-30T13:06:36Z</time>
</trkpt>
<trkpt lat="49.1267509" lon="2.6944168">
<ele>73.31</ele>
<time>2018-12-30T13:06:37Z</time>
</trkpt>
<trkpt lat="49.1267151" lon="2.6943649">
<ele>73.52</ele>
<time>2018-12-30T13:06:38Z</time>
</trkpt>
<trkpt lat="49.1266812" lon="2.6943047">
<ele>73.58</ele>
<time>2018-12-30T13:06:39Z</time>
</trkpt>
<trkpt lat="49.1266432" lon="2.6942483">
<ele>73.60</ele>
<time>2018-12-30T13:06:40Z</time>
</trkpt>
<trkpt lat="49.1266030" lon="2.6942012">
<ele>73.61</ele>
<time>2018-12-30T13:06:41Z</time>
</trkpt>
<trkpt lat="49.1265617" lon="2.6941598">
<ele>74.31</ele>
<time>2018-12-30T13:06:42Z</time>
</trkpt>
<trkpt lat="49.1265154" lon="2.6941159">
<ele>74.52</ele>
<time>2018-12-30T13:06:43Z</time>
</trkpt>
<trkpt lat="49.1264739" lon="2.6940729">
<ele>73.88</ele>
<time>2018-12-30T13:06:44Z</time>
</trkpt>
<trkpt lat="49.1264273" lon="2.6940288">
<ele>73.69</ele>
<time>2018-12-30T13:06:45Z</time>
</trkpt>
<trkpt lat="49.1263824" lon="2.6939889">
<ele>74.34</ele>
<time>2018-12-30T13:06:46Z</time>
</trkpt>
<trkpt lat="49.1263373" lon="2.6939480">
<ele>74.53</ele>
<time>2018-12-30T13:06:47Z</time>
</trkpt>
<trkpt lat="49.1262927" lon="2.6939083">
<ele>74.59</ele>
<time>2018-12-30T13:06:48Z</time>
</trkpt>
<trkpt lat="49.1262489" lon="2.6938699">
<ele>74.60</ele>
<time>2018-12-30T13:06:49Z</time>
</trkpt>
<trkpt lat="49.1262058" lon="2.6938310">
<ele>74.61</ele>
<time>2018-12-30T13:06:50Z</time>
</trkpt>
<trkpt lat="49.1261645" lon="2.6937937">
<ele>74.61</ele>
<time>2018-12-30T13:06:51Z</time>
</trkpt>
<trkpt lat="49.1261215" lon="2.6937559">
<ele>74.61</ele>
<time>2018-12-30T13:06:52Z</time>
</trkpt>
<trkpt lat="49.1260779" lon="2.6937273">
<ele>74.61</ele>
<time>2018-12-30T13:06:53Z</time>
</trkpt>
<trkpt lat="49.1260368" lon="2.6936952">
<ele>75.31</ele>
<time>2018-12-30T13:06:54Z</time>
</trkpt>
<trkpt lat="49.1259616" lon="2.6936320">
<ele>75.58</ele>
<time>2018-12-30T13:06:56Z</time>
</trkpt>
<trkpt lat="49.1258888" lon="2.6935697">
<ele>76.52</ele>
<time>2018-12-30T13:06:58Z</time>
</trkpt>
<trkpt lat="49.1258182" lon="2.6935176">
<ele>77.30</ele>
<time>2018-12-30T13:07:00Z</time>
</trkpt>
<trkpt lat="49.1257548" lon="2.6934763">
<ele>77.58</ele>
<time>2018-12-30T13:07:02Z</time>
</trkpt>
<trkpt lat="49.1257047" lon="2.6934440">
<ele>76.91</ele>
<time>2018-12-30T13:07:04Z</time>
</trkpt>
<trkpt lat="49.1256852" lon="2.6933723">
<ele>76.64</ele>
<time>2018-12-30T13:07:06Z</time>
</trkpt>
<trkpt lat="49.1256542" lon="2.6932839">
<ele>76.61</ele>
<time>2018-12-30T13:07:08Z</time>
</trkpt>
<trkpt lat="49.1256025" lon="2.6932085">
<ele>76.61</ele>
<time>2018-12-30T13:07:10Z</time>
</trkpt>
<trkpt lat="49.1255300" lon="2.6931645">
<ele>77.52</ele>
<time>2018-12-30T13:07:12Z</time>
</trkpt>
<trkpt lat="49.1254428" lon="2.6931557">
<ele>77.60</ele>
<time>2018-12-30T13:07:14Z</time>
</trkpt>
<trkpt lat="49.1253703" lon="2.6931450">
<ele>77.61</ele>
<time>2018-12-30T13:07:16Z</time>
</trkpt>
<trkpt lat="49.1252984" lon="2.6931365">
<ele>77.61</ele>
<time>2018-12-30T13:07:18Z</time>
</trkpt>
<trkpt lat="49.1252528" lon="2.6931365">
<ele>77.61</ele>
<time>2018-12-30T13:07:19Z</time>
</trkpt>
<trkpt lat="49.1251676" lon="2.6931370">
<ele>77.61</ele>
<time>2018-12-30T13:07:21Z</time>
</trkpt>
<trkpt lat="49.1250810" lon="2.6931292">
<ele>78.31</ele>
<time>2018-12-30T13:07:23Z</time>
</trkpt>
<trkpt lat="49.1250018" lon="2.6931150">
<ele>79.28</ele>
<time>2018-12-30T13:07:25Z</time>
</trkpt>
<trkpt lat="49.1249403" lon="2.6931207">
<ele>79.58</ele>
<time>2018-12-30T13:07:27Z</time>
</trkpt>
<trkpt lat="49.1249099" lon="2.6931733">
<ele>79.40</ele>
<time>2018-12-30T13:07:29Z</time>
</trkpt>
<trkpt lat="49.1249320" lon="2.6932573">
<ele>79.59</ele>
<time>2018-12-30T13:07:31Z</time>
</trkpt>
<trkpt lat="49.1249958" lon="2.6932911">
<ele>78.91</ele>
<time>2018-12-30T13:07:33Z</time>
</trkpt>
<trkpt lat="49.1250631" lon="2.6932517">
<ele>78.64</ele>
<time>2018-12-30T13:07:35Z</time>
</trkpt>
<trkpt lat="49.1251188" lon="2.6931962">
<ele>78.61</ele>
<time>2018-12-30T13:07:37Z</time>
</trkpt>
<trkpt lat="49.1251910" lon="2.6931619">
<ele>79.52</ele>
<time>2018-12-30T13:07:39Z</time>
</trkpt>
<trkpt lat="49.1252389" lon="2.6931633">
<ele>80.28</ele>
<time>2018-12-30T13:07:40Z</time>
</trkpt>
<trkpt lat="49.1252877" lon="2.6931645">
<ele>80.51</ele>
<time>2018-12-30T13:07:41Z</time>
</trkpt>
<trkpt lat="49.1253317" lon="2.6931856">
<ele>80.58</ele>
<time>2018-12-30T13:07:42Z</time>
</trkpt>
<trkpt lat="49.1254030" lon="2.6932493">
<ele>80.61</ele>
<time>2018-12-30T13:07:44Z</time>
</trkpt>
<trkpt lat="49.1254618" lon="2.6933008">
<ele>80.61</ele>
<time>2018-12-30T13:07:46Z</time>
</trkpt>
<trkpt lat="49.1255143" lon="2.6933350">
<ele>80.61</ele>
<time>2018-12-30T13:07:48Z</time>
</trkpt>
<trkpt lat="49.1255566" lon="2.6934044">
<ele>79.91</ele>
<time>2018-12-30T13:07:51Z</time>
</trkpt>
</trkseg>
</trk>
</gpx>
